<?xml version='1.0' encoding='UTF-8'?><gpx version="1.1" creator="JPX - https://github.com/jenetics/jpx" xmlns="http://www.topografix.com/GPX/1/1"><trk><trkseg><trkpt lat="45.76024613533449" lon="11.708105864109827"><ele>108.0</ele><time>2026-04-10T11:08:50.998Z</time></trkpt><trkpt lat="45.7602075688131" lon="11.70798716796945"><ele>108.0</ele><time>2026-04-10T11:08:53.998Z</time></trkpt><trkpt lat="45.76021355983673" lon="11.708090015552456"><ele>108.0</ele><time>2026-04-10T11:09:00.998Z</time></trkpt><trkpt lat="45.76019470148875" lon="11.708193182690536"><ele>108.0</ele><time>2026-04-10T11:09:21.998Z</time></trkpt><trkpt lat="45.760126984809766" lon="11.708223056958095"><ele>108.0</ele><time>2026-04-10T11:09:33.997Z</time></trkpt><trkpt lat="45.76007121823034" lon="11.708176674672835"><ele>108.0</ele><time>2026-04-10T11:09:39.997Z</time></trkpt><trkpt lat="45.76008969898185" lon="11.708086422109062"><ele>108.0</ele><time>2026-04-10T11:11:50Z</time></trkpt><trkpt lat="45.760024182830776" lon="11.708068608720316"><ele>108.16666666666667</ele><time>2026-04-10T11:21:07.999Z</time></trkpt><trkpt lat="45.75994588955019" lon="11.70805708490614"><ele>108.33333333333334</ele><time>2026-04-10T11:21:12.999Z</time></trkpt><trkpt lat="45.7599015446715" lon="11.707985734775175"><ele>108.5</ele><time>2026-04-10T11:21:43.999Z</time></trkpt><trkpt lat="45.75984106715169" lon="11.708084936184223"><ele>108.66666666666667</ele><time>2026-04-10T11:21:45.999Z</time></trkpt><trkpt lat="45.759787527112366" lon="11.708166160770068"><ele>108.83333333333334</ele><time>2026-04-10T11:21:49.999Z</time></trkpt><trkpt lat="45.759830898961596" lon="11.708071749818734"><ele>109.0</ele><time>2026-04-10T11:22:10.072Z</time></trkpt><trkpt lat="45.75985536695348" lon="11.707968156376763"><ele>109.00000000000001</ele><time>2026-04-10T11:22:13.073Z</time></trkpt><trkpt lat="45.75990435822624" lon="11.707904652731811"><ele>109.0</ele><time>2026-04-10T11:22:41Z</time></trkpt><trkpt lat="45.75981489526435" lon="11.707864076021744"><ele>109.0</ele><time>2026-04-10T11:22:53Z</time></trkpt><trkpt lat="45.7598724732843" lon="11.707791448097451"><ele>109.0</ele><time>2026-04-10T11:23:00.029Z</time></trkpt><trkpt lat="45.759926463743895" lon="11.707736023323058"><ele>109.00000000000001</ele><time>2026-04-10T11:23:25.023Z</time></trkpt><trkpt lat="45.75997669128708" lon="11.707666274929126"><ele>109.0</ele><time>2026-04-10T11:23:28.023Z</time></trkpt><trkpt lat="45.7600651641757" lon="11.707517983355022"><ele>109.0</ele><time>2026-04-10T11:23:47.019Z</time></trkpt><trkpt lat="45.76009457909947" lon="11.707415971029878"><ele>109.0</ele><time>2026-04-10T11:23:49.019Z</time></trkpt><trkpt lat="45.76003047328916" lon="11.707775938051537"><ele>109.0</ele><time>2026-04-10T11:23:53Z</time></trkpt><trkpt lat="45.76016364735501" lon="11.70801993976749"><ele>109.0</ele><time>2026-04-10T11:23:54Z</time></trkpt><trkpt lat="45.760167310789335" lon="11.707922009913046"><ele>109.0</ele><time>2026-04-10T11:27:53Z</time></trkpt><trkpt lat="45.76017527475245" lon="11.707809649886446"><ele>109.0</ele><time>2026-04-10T11:27:55Z</time></trkpt><trkpt lat="45.76016322000899" lon="11.707709561691457"><ele>109.0</ele><time>2026-04-10T11:27:56Z</time></trkpt><trkpt lat="45.76013903783282" lon="11.707624901568886"><ele>109.0</ele><time>2026-04-10T11:27:56.999Z</time></trkpt><trkpt lat="45.76010112934718" lon="11.707540784861868"><ele>109.0</ele><time>2026-04-10T11:27:57.999Z</time></trkpt><trkpt lat="45.76005451887753" lon="11.707445756671177"><ele>109.0</ele><time>2026-04-10T11:27:58.999Z</time></trkpt><trkpt lat="45.76001012794508" lon="11.70734493524514"><ele>109.0</ele><time>2026-04-10T11:27:59.999Z</time></trkpt><trkpt lat="45.7599608187738" lon="11.707233342873117"><ele>109.0</ele><time>2026-04-10T11:28:00.999Z</time></trkpt><trkpt lat="45.75990732640994" lon="11.707118838385984"><ele>109.0</ele><time>2026-04-10T11:28:01.999Z</time></trkpt><trkpt lat="45.75985042993748" lon="11.70699872127717"><ele>109.0</ele><time>2026-04-10T11:28:02.999Z</time></trkpt><trkpt lat="45.75979465969976" lon="11.706866452007828"><ele>109.0</ele><time>2026-04-10T11:28:03.999Z</time></trkpt><trkpt lat="45.75973787715848" lon="11.70672723107791"><ele>108.75</ele><time>2026-04-10T11:28:04.999Z</time></trkpt><trkpt lat="45.75967697981992" lon="11.706579801383914"><ele>108.5</ele><time>2026-04-10T11:28:05.999Z</time></trkpt><trkpt lat="45.759611558357285" lon="11.70642652643674"><ele>108.25</ele><time>2026-04-10T11:28:06.999Z</time></trkpt><trkpt lat="45.759547666475385" lon="11.706271774806938"><ele>108.0</ele><time>2026-04-10T11:28:07.999Z</time></trkpt><trkpt lat="45.75948532350228" lon="11.706108037105668"><ele>108.25</ele><time>2026-04-10T11:28:08.999Z</time></trkpt><trkpt lat="45.75941965818086" lon="11.70595653455869"><ele>108.5</ele><time>2026-04-10T11:28:09.999Z</time></trkpt><trkpt lat="45.75935219593988" lon="11.705802152433806"><ele>108.75</ele><time>2026-04-10T11:28:10.999Z</time></trkpt><trkpt lat="45.759282631082094" lon="11.705648805202859"><ele>109.0</ele><time>2026-04-10T11:28:11.999Z</time></trkpt><trkpt lat="45.75922194837405" lon="11.705506648610777"><ele>108.6</ele><time>2026-04-10T11:28:12.999Z</time></trkpt><trkpt lat="45.75916702328993" lon="11.70537976073939"><ele>108.2</ele><time>2026-04-10T11:28:13.999Z</time></trkpt><trkpt lat="45.75912111492681" lon="11.705264762813856"><ele>107.79999999999998</ele><time>2026-04-10T11:28:14.999Z</time></trkpt><trkpt lat="45.759085531083734" lon="11.705150361907446"><ele>107.39999999999999</ele><time>2026-04-10T11:28:15.999Z</time></trkpt><trkpt lat="45.75906194416104" lon="11.705030041354869"><ele>107.0</ele><time>2026-04-10T11:28:16.999Z</time></trkpt><trkpt lat="45.759059660672364" lon="11.704883948849844"><ele>107.0</ele><time>2026-04-10T11:28:17.999Z</time></trkpt><trkpt lat="45.75908055476462" lon="11.7047267359444"><ele>107.0</ele><time>2026-04-10T11:28:18.999Z</time></trkpt><trkpt lat="45.75909815077114" lon="11.70455621923881"><ele>107.0</ele><time>2026-04-10T11:28:19.999Z</time></trkpt><trkpt lat="45.75911576567147" lon="11.704372806742029"><ele>107.0</ele><time>2026-04-10T11:28:20.999Z</time></trkpt><trkpt lat="45.759137437187704" lon="11.704161638498016"><ele>106.66666666666666</ele><time>2026-04-10T11:28:21.999Z</time></trkpt><trkpt lat="45.75915741987281" lon="11.703927195055225"><ele>106.33333333333334</ele><time>2026-04-10T11:28:22.999Z</time></trkpt><trkpt lat="45.75917716912631" lon="11.70367478020963"><ele>106.0</ele><time>2026-04-10T11:28:23.999Z</time></trkpt><trkpt lat="45.7591981051715" lon="11.703436316447556"><ele>106.0</ele><time>2026-04-10T11:28:24.999Z</time></trkpt><trkpt lat="45.75921960672783" lon="11.703194550202237"><ele>106.0</ele><time>2026-04-10T11:28:25.999Z</time></trkpt><trkpt lat="45.75924238510211" lon="11.70295844220897"><ele>106.0</ele><time>2026-04-10T11:28:26.999Z</time></trkpt><trkpt lat="45.75926587950834" lon="11.702721547129872"><ele>106.33333333333334</ele><time>2026-04-10T11:28:27.999Z</time></trkpt><trkpt lat="45.759289064767266" lon="11.702483026034136"><ele>106.66666666666666</ele><time>2026-04-10T11:28:28.999Z</time></trkpt><trkpt lat="45.75931050239381" lon="11.702235417434023"><ele>107.0</ele><time>2026-04-10T11:28:29.999Z</time></trkpt><trkpt lat="45.75933684947542" lon="11.701987798370107"><ele>107.33333333333333</ele><time>2026-04-10T11:28:30.999Z</time></trkpt><trkpt lat="45.75935876230042" lon="11.701739935883385"><ele>107.66666666666666</ele><time>2026-04-10T11:28:31.999Z</time></trkpt><trkpt lat="45.75937920409676" lon="11.701503730467124"><ele>108.0</ele><time>2026-04-10T11:28:32.999Z</time></trkpt><trkpt lat="45.75940239355422" lon="11.70126828667082"><ele>108.0</ele><time>2026-04-10T11:28:33.999Z</time></trkpt><trkpt lat="45.759426234271956" lon="11.701024568355749"><ele>108.0</ele><time>2026-04-10T11:28:34.999Z</time></trkpt><trkpt lat="45.75945128687295" lon="11.700796535895698"><ele>108.0</ele><time>2026-04-10T11:28:35.999Z</time></trkpt><trkpt lat="45.75947255108171" lon="11.700548688441785"><ele>108.0</ele><time>2026-04-10T11:28:36.999Z</time></trkpt><trkpt lat="45.75949541918981" lon="11.700291687441235"><ele>108.0</ele><time>2026-04-10T11:28:37.999Z</time></trkpt><trkpt lat="45.75951565729429" lon="11.700027964508386"><ele>108.0</ele><time>2026-04-10T11:28:38.999Z</time></trkpt><trkpt lat="45.75954083350214" lon="11.699762939724085"><ele>107.33333333333334</ele><time>2026-04-10T11:28:39.999Z</time></trkpt><trkpt lat="45.759563977945824" lon="11.699495181487837"><ele>106.66666666666667</ele><time>2026-04-10T11:28:40.999Z</time></trkpt><trkpt lat="45.759584430408935" lon="11.699232531041378"><ele>106.0</ele><time>2026-04-10T11:28:41.999Z</time></trkpt><trkpt lat="45.75960703294351" lon="11.698960470805892"><ele>106.0</ele><time>2026-04-10T11:28:42.999Z</time></trkpt><trkpt lat="45.75963709747053" lon="11.698655840752462"><ele>106.0</ele><time>2026-04-10T11:28:43.999Z</time></trkpt><trkpt lat="45.759664274974675" lon="11.698343009802551"><ele>106.0</ele><time>2026-04-10T11:28:44.999Z</time></trkpt><trkpt lat="45.75969025243894" lon="11.698038779047316"><ele>105.66666666666667</ele><time>2026-04-10T11:28:45.999Z</time></trkpt><trkpt lat="45.75971926596119" lon="11.697727368939972"><ele>105.33333333333334</ele><time>2026-04-10T11:28:46.999Z</time></trkpt><trkpt lat="45.75974335888876" lon="11.69741329687977"><ele>105.0</ele><time>2026-04-10T11:28:47.999Z</time></trkpt><trkpt lat="45.759771855203084" lon="11.697099864603908"><ele>106.0</ele><time>2026-04-10T11:28:48.999Z</time></trkpt><trkpt lat="45.75980196882865" lon="11.696778363046828"><ele>107.0</ele><time>2026-04-10T11:28:49.999Z</time></trkpt><trkpt lat="45.75982813505798" lon="11.696456831176722"><ele>107.0</ele><time>2026-04-10T11:28:51Z</time></trkpt><trkpt lat="45.75985841130627" lon="11.69613138615142"><ele>107.0</ele><time>2026-04-10T11:28:52Z</time></trkpt><trkpt lat="45.75988483125146" lon="11.695808895325975"><ele>107.66666666666666</ele><time>2026-04-10T11:28:53Z</time></trkpt><trkpt lat="45.759916319882294" lon="11.695492612634238"><ele>108.33333333333334</ele><time>2026-04-10T11:28:54Z</time></trkpt><trkpt lat="45.75994164734022" lon="11.695181671614248"><ele>109.0</ele><time>2026-04-10T11:28:55Z</time></trkpt><trkpt lat="45.75996630214423" lon="11.694870540052104"><ele>109.0</ele><time>2026-04-10T11:28:56Z</time></trkpt><trkpt lat="45.75999086819565" lon="11.694556360503737"><ele>109.0</ele><time>2026-04-10T11:28:57Z</time></trkpt><trkpt lat="45.76002019151044" lon="11.69425637703756"><ele>109.0</ele><time>2026-04-10T11:28:58Z</time></trkpt><trkpt lat="45.76004717140011" lon="11.693953628432041"><ele>108.66666666666667</ele><time>2026-04-10T11:28:59Z</time></trkpt><trkpt lat="45.76007069998301" lon="11.693648566283139"><ele>108.33333333333334</ele><time>2026-04-10T11:29:00Z</time></trkpt><trkpt lat="45.760100501893675" lon="11.69335165961839"><ele>108.0</ele><time>2026-04-10T11:29:01Z</time></trkpt><trkpt lat="45.760130180703854" lon="11.6930475333868"><ele>108.0</ele><time>2026-04-10T11:29:02Z</time></trkpt><trkpt lat="45.76016025959893" lon="11.692750122273937"><ele>108.0</ele><time>2026-04-10T11:29:03Z</time></trkpt><trkpt lat="45.76018557482726" lon="11.692448164295623"><ele>108.0</ele><time>2026-04-10T11:29:04Z</time></trkpt><trkpt lat="45.76021705236971" lon="11.692151551650307"><ele>108.33333333333334</ele><time>2026-04-10T11:29:05Z</time></trkpt><trkpt lat="45.76024219927837" lon="11.69185693111361"><ele>108.66666666666667</ele><time>2026-04-10T11:29:06Z</time></trkpt><trkpt lat="45.76026556394734" lon="11.691583465005564"><ele>109.0</ele><time>2026-04-10T11:29:07Z</time></trkpt><trkpt lat="45.76029085125863" lon="11.691332452368574"><ele>109.0</ele><time>2026-04-10T11:29:08Z</time></trkpt><trkpt lat="45.760310287276184" lon="11.691094141782878"><ele>109.0</ele><time>2026-04-10T11:29:09Z</time></trkpt><trkpt lat="45.760330184419395" lon="11.690871876961069"><ele>109.0</ele><time>2026-04-10T11:29:10Z</time></trkpt><trkpt lat="45.76034790665969" lon="11.690667663516527"><ele>109.5</ele><time>2026-04-10T11:29:11Z</time></trkpt><trkpt lat="45.76036260515627" lon="11.690477611726571"><ele>110.0</ele><time>2026-04-10T11:29:12Z</time></trkpt><trkpt lat="45.760371503909184" lon="11.690295946146563"><ele>110.5</ele><time>2026-04-10T11:29:13Z</time></trkpt><trkpt lat="45.760369127400125" lon="11.690116805628422"><ele>111.0</ele><time>2026-04-10T11:29:14Z</time></trkpt><trkpt lat="45.76035106304891" lon="11.689933594989336"><ele>110.75</ele><time>2026-04-10T11:29:15Z</time></trkpt><trkpt lat="45.76032549558252" lon="11.689749930460335"><ele>110.5</ele><time>2026-04-10T11:29:16Z</time></trkpt><trkpt lat="45.76029191549642" lon="11.68956611600463"><ele>110.25</ele><time>2026-04-10T11:29:17Z</time></trkpt><trkpt lat="45.76023870935831" lon="11.689379203953845"><ele>110.0</ele><time>2026-04-10T11:29:18Z</time></trkpt><trkpt lat="45.760172753907234" lon="11.689192503061367"><ele>110.0</ele><time>2026-04-10T11:29:19Z</time></trkpt><trkpt lat="45.76010736697239" lon="11.689025962995903"><ele>110.0</ele><time>2026-04-10T11:29:20Z</time></trkpt><trkpt lat="45.76004030904589" lon="11.68888059814161"><ele>110.0</ele><time>2026-04-10T11:29:21Z</time></trkpt><trkpt lat="45.7599628835347" lon="11.688734184451203"><ele>110.0</ele><time>2026-04-10T11:29:22Z</time></trkpt><trkpt lat="45.75986223691045" lon="11.688586367338232"><ele>110.66666666666666</ele><time>2026-04-10T11:29:23Z</time></trkpt><trkpt lat="45.75975261420389" lon="11.688420455194393"><ele>111.33333333333334</ele><time>2026-04-10T11:29:24Z</time></trkpt><trkpt lat="45.75964159731137" lon="11.688235956914335"><ele>112.0</ele><time>2026-04-10T11:29:25Z</time></trkpt><trkpt lat="45.75953749455476" lon="11.688077163903927"><ele>112.0</ele><time>2026-04-10T11:29:26Z</time></trkpt><trkpt lat="45.75944030166905" lon="11.687936332147995"><ele>112.0</ele><time>2026-04-10T11:29:27Z</time></trkpt><trkpt lat="45.75935050272877" lon="11.68780315040691"><ele>112.0</ele><time>2026-04-10T11:29:28Z</time></trkpt><trkpt lat="45.75926594243454" lon="11.687665829333913"><ele>112.0</ele><time>2026-04-10T11:29:29Z</time></trkpt><trkpt lat="45.75918382876791" lon="11.687532643365946"><ele>111.75</ele><time>2026-04-10T11:29:30Z</time></trkpt><trkpt lat="45.759102683443054" lon="11.68739705961173"><ele>111.5</ele><time>2026-04-10T11:29:31Z</time></trkpt><trkpt lat="45.75901955591715" lon="11.68727238015095"><ele>111.25</ele><time>2026-04-10T11:29:32Z</time></trkpt><trkpt lat="45.7589369222466" lon="11.6871552078481"><ele>111.0</ele><time>2026-04-10T11:29:33Z</time></trkpt><trkpt lat="45.758855327598546" lon="11.68702847638616"><ele>110.75</ele><time>2026-04-10T11:29:34Z</time></trkpt><trkpt lat="45.75876435665037" lon="11.686902931045013"><ele>110.5</ele><time>2026-04-10T11:29:35Z</time></trkpt><trkpt lat="45.758664497195085" lon="11.68677331722616"><ele>110.25</ele><time>2026-04-10T11:29:36Z</time></trkpt><trkpt lat="45.75854775785247" lon="11.686638256807576"><ele>110.0</ele><time>2026-04-10T11:29:37Z</time></trkpt><trkpt lat="45.75843359721696" lon="11.686505109141404"><ele>110.0</ele><time>2026-04-10T11:29:38Z</time></trkpt><trkpt lat="45.758320848189136" lon="11.68638934978563"><ele>110.0</ele><time>2026-04-10T11:29:39Z</time></trkpt><trkpt lat="45.758207930109705" lon="11.68628226261411"><ele>110.0</ele><time>2026-04-10T11:29:40Z</time></trkpt><trkpt lat="45.758087690717936" lon="11.686179811202765"><ele>110.0</ele><time>2026-04-10T11:29:41Z</time></trkpt><trkpt lat="45.757944821867326" lon="11.68606515241676"><ele>109.66666666666666</ele><time>2026-04-10T11:29:42Z</time></trkpt><trkpt lat="45.75777841537678" lon="11.6859285623114"><ele>109.33333333333334</ele><time>2026-04-10T11:29:43Z</time></trkpt><trkpt lat="45.757600090795066" lon="11.685775256259948"><ele>109.0</ele><time>2026-04-10T11:29:44Z</time></trkpt><trkpt lat="45.75741664166448" lon="11.685600268142831"><ele>109.0</ele><time>2026-04-10T11:29:45Z</time></trkpt><trkpt lat="45.75724285399529" lon="11.685412133239799"><ele>109.0</ele><time>2026-04-10T11:29:46Z</time></trkpt><trkpt lat="45.75708412993586" lon="11.685196708958108"><ele>109.0</ele><time>2026-04-10T11:29:47Z</time></trkpt><trkpt lat="45.75695463684747" lon="11.684935590158421"><ele>109.0</ele><time>2026-04-10T11:29:48Z</time></trkpt><trkpt lat="45.75681640859894" lon="11.684688456909258"><ele>109.0</ele><time>2026-04-10T11:29:49Z</time></trkpt><trkpt lat="45.756701883401085" lon="11.684428205131459"><ele>109.0</ele><time>2026-04-10T11:29:50Z</time></trkpt><trkpt lat="45.75659056778419" lon="11.684162670911325"><ele>108.66666666666667</ele><time>2026-04-10T11:29:50.999Z</time></trkpt><trkpt lat="45.75647671028914" lon="11.683898533010714"><ele>108.33333333333334</ele><time>2026-04-10T11:29:51.999Z</time></trkpt><trkpt lat="45.75636693473229" lon="11.683628721423377"><ele>108.0</ele><time>2026-04-10T11:29:52.999Z</time></trkpt><trkpt lat="45.756261552884574" lon="11.6833666200656"><ele>108.33333333333334</ele><time>2026-04-10T11:29:53.999Z</time></trkpt><trkpt lat="45.75614678738146" lon="11.683106701609603"><ele>108.66666666666667</ele><time>2026-04-10T11:29:54.999Z</time></trkpt><trkpt lat="45.75604153565229" lon="11.682839801963429"><ele>109.0</ele><time>2026-04-10T11:29:55.999Z</time></trkpt><trkpt lat="45.75593317893505" lon="11.682575866324893"><ele>109.0</ele><time>2026-04-10T11:29:56.999Z</time></trkpt><trkpt lat="45.75582769171456" lon="11.682305308763674"><ele>109.0</ele><time>2026-04-10T11:29:57.999Z</time></trkpt><trkpt lat="45.75572618470262" lon="11.682032164651329"><ele>109.0</ele><time>2026-04-10T11:29:58.999Z</time></trkpt><trkpt lat="45.75562246879511" lon="11.681761766542873"><ele>108.66666666666667</ele><time>2026-04-10T11:29:59.999Z</time></trkpt><trkpt lat="45.75550761002819" lon="11.681501627208311"><ele>108.33333333333334</ele><time>2026-04-10T11:30:00.999Z</time></trkpt><trkpt lat="45.75538769344902" lon="11.68126086080594"><ele>108.0</ele><time>2026-04-10T11:30:01.999Z</time></trkpt><trkpt lat="45.75524211059658" lon="11.681029467778108"><ele>106.5</ele><time>2026-04-10T11:30:02.999Z</time></trkpt><trkpt lat="45.75508011117833" lon="11.680801933576225"><ele>105.0</ele><time>2026-04-10T11:30:03.999Z</time></trkpt><trkpt lat="45.754905206823494" lon="11.680584412327166"><ele>105.0</ele><time>2026-04-10T11:30:04.999Z</time></trkpt><trkpt lat="45.75473010013848" lon="11.680361580189025"><ele>105.0</ele><time>2026-04-10T11:30:05.999Z</time></trkpt><trkpt lat="45.75455089578787" lon="11.680139306192755"><ele>105.5</ele><time>2026-04-10T11:30:06.999Z</time></trkpt><trkpt lat="45.754372974112364" lon="11.679908973007182"><ele>106.0</ele><time>2026-04-10T11:30:07.999Z</time></trkpt><trkpt lat="45.75420041104121" lon="11.67967734911066"><ele>106.0</ele><time>2026-04-10T11:30:08.999Z</time></trkpt><trkpt lat="45.754036197828604" lon="11.679439328213283"><ele>106.0</ele><time>2026-04-10T11:30:09.999Z</time></trkpt><trkpt lat="45.75390632672444" lon="11.679190895993415"><ele>107.0</ele><time>2026-04-10T11:30:10.999Z</time></trkpt><trkpt lat="45.75385236522326" lon="11.678914392345918"><ele>108.0</ele><time>2026-04-10T11:30:11.999Z</time></trkpt><trkpt lat="45.75380477868423" lon="11.678642902659526"><ele>109.0</ele><time>2026-04-10T11:30:12.999Z</time></trkpt><trkpt lat="45.753756293858046" lon="11.678357811479133"><ele>109.0</ele><time>2026-04-10T11:30:13.999Z</time></trkpt><trkpt lat="45.75369566184412" lon="11.678058225385703"><ele>109.0</ele><time>2026-04-10T11:30:14.999Z</time></trkpt><trkpt lat="45.753643470659945" lon="11.677755895382575"><ele>109.0</ele><time>2026-04-10T11:30:15.999Z</time></trkpt><trkpt lat="45.75358915186371" lon="11.67745304392202"><ele>108.0</ele><time>2026-04-10T11:30:16.999Z</time></trkpt><trkpt lat="45.75352374461897" lon="11.677146754397963"><ele>107.0</ele><time>2026-04-10T11:30:17.999Z</time></trkpt><trkpt lat="45.75343070681488" lon="11.676865466310906"><ele>106.0</ele><time>2026-04-10T11:30:18.999Z</time></trkpt><trkpt lat="45.753318088989765" lon="11.676630899169423"><ele>105.66666666666667</ele><time>2026-04-10T11:30:19.999Z</time></trkpt><trkpt lat="45.75320350925933" lon="11.676441218925794"><ele>105.33333333333334</ele><time>2026-04-10T11:30:20.999Z</time></trkpt><trkpt lat="45.75308710131392" lon="11.676271541679116"><ele>105.0</ele><time>2026-04-10T11:30:21.999Z</time></trkpt><trkpt lat="45.75297744526743" lon="11.676118262625877"><ele>105.0</ele><time>2026-04-10T11:30:22.999Z</time></trkpt><trkpt lat="45.752870439671874" lon="11.675967928875648"><ele>105.0</ele><time>2026-04-10T11:30:23.999Z</time></trkpt><trkpt lat="45.752762460128125" lon="11.67581254389846"><ele>105.0</ele><time>2026-04-10T11:30:24.999Z</time></trkpt><trkpt lat="45.75265165210634" lon="11.675646079084586"><ele>104.33333333333334</ele><time>2026-04-10T11:30:25.999Z</time></trkpt><trkpt lat="45.75253100539398" lon="11.675457975913664"><ele>103.66666666666667</ele><time>2026-04-10T11:30:26.999Z</time></trkpt><trkpt lat="45.75240993646676" lon="11.67525353150768"><ele>103.0</ele><time>2026-04-10T11:30:27.999Z</time></trkpt><trkpt lat="45.75228856958191" lon="11.675040676775271"><ele>103.0</ele><time>2026-04-10T11:30:28.999Z</time></trkpt><trkpt lat="45.75215879141718" lon="11.67482523261666"><ele>103.0</ele><time>2026-04-10T11:30:29.999Z</time></trkpt><trkpt lat="45.75203360801565" lon="11.674606333059254"><ele>103.0</ele><time>2026-04-10T11:30:30.999Z</time></trkpt><trkpt lat="45.75191218842892" lon="11.67438279046885"><ele>103.0</ele><time>2026-04-10T11:30:31.999Z</time></trkpt><trkpt lat="45.75179981841725" lon="11.674168398806874"><ele>103.0</ele><time>2026-04-10T11:30:32.999Z</time></trkpt><trkpt lat="45.751689583199" lon="11.67393898228923"><ele>103.0</ele><time>2026-04-10T11:30:33.999Z</time></trkpt><trkpt lat="45.75158114243422" lon="11.67371055044899"><ele>103.66666666666667</ele><time>2026-04-10T11:30:34.999Z</time></trkpt><trkpt lat="45.75147875161817" lon="11.673485772061147"><ele>104.33333333333334</ele><time>2026-04-10T11:30:35.999Z</time></trkpt><trkpt lat="45.75137825323521" lon="11.673272770754123"><ele>105.0</ele><time>2026-04-10T11:30:36.999Z</time></trkpt><trkpt lat="45.75129128103804" lon="11.673093893257855"><ele>105.0</ele><time>2026-04-10T11:30:37.999Z</time></trkpt><trkpt lat="45.75121233307998" lon="11.672927144905277"><ele>105.0</ele><time>2026-04-10T11:30:38.999Z</time></trkpt><trkpt lat="45.7511328932915" lon="11.672778205565274"><ele>105.0</ele><time>2026-04-10T11:30:39.999Z</time></trkpt><trkpt lat="45.75105815861198" lon="11.672630877838746"><ele>105.0</ele><time>2026-04-10T11:30:40.999Z</time></trkpt><trkpt lat="45.750979753545515" lon="11.672480929557159"><ele>105.0</ele><time>2026-04-10T11:30:41.999Z</time></trkpt><trkpt lat="45.75089549288241" lon="11.672334929836577"><ele>105.0</ele><time>2026-04-10T11:30:42.999Z</time></trkpt><trkpt lat="45.750809963015335" lon="11.6721929225038"><ele>105.0</ele><time>2026-04-10T11:30:43.999Z</time></trkpt><trkpt lat="45.7507181376151" lon="11.672051152744137"><ele>105.0</ele><time>2026-04-10T11:30:44.999Z</time></trkpt><trkpt lat="45.75061747472468" lon="11.67190171970003"><ele>105.0</ele><time>2026-04-10T11:30:45.999Z</time></trkpt><trkpt lat="45.75051482473296" lon="11.671729482215353"><ele>105.0</ele><time>2026-04-10T11:30:46.999Z</time></trkpt><trkpt lat="45.75040524156373" lon="11.671546023361186"><ele>105.0</ele><time>2026-04-10T11:30:47.999Z</time></trkpt><trkpt lat="45.7502879174346" lon="11.671354005939252"><ele>104.33333333333334</ele><time>2026-04-10T11:30:48.999Z</time></trkpt><trkpt lat="45.75016508042564" lon="11.671161436038327"><ele>103.66666666666667</ele><time>2026-04-10T11:30:49.999Z</time></trkpt><trkpt lat="45.75004508235181" lon="11.670964114203615"><ele>103.0</ele><time>2026-04-10T11:30:50.999Z</time></trkpt><trkpt lat="45.7499311434601" lon="11.670764987623324"><ele>103.0</ele><time>2026-04-10T11:30:51.999Z</time></trkpt><trkpt lat="45.749821001784674" lon="11.67058006575651"><ele>103.0</ele><time>2026-04-10T11:30:52.999Z</time></trkpt><trkpt lat="45.749732102688355" lon="11.670425553936013"><ele>103.0</ele><time>2026-04-10T11:30:53.999Z</time></trkpt><trkpt lat="45.74964904059934" lon="11.670279225936024"><ele>103.0</ele><time>2026-04-10T11:30:54.999Z</time></trkpt><trkpt lat="45.749565197497574" lon="11.670133487816639"><ele>103.0</ele><time>2026-04-10T11:30:55.999Z</time></trkpt><trkpt lat="45.74948839739628" lon="11.669995531890274"><ele>103.0</ele><time>2026-04-10T11:30:57Z</time></trkpt><trkpt lat="45.74941838888357" lon="11.669857645238823"><ele>103.0</ele><time>2026-04-10T11:30:58Z</time></trkpt><trkpt lat="45.74934923462158" lon="11.66971749074713"><ele>103.0</ele><time>2026-04-10T11:30:59Z</time></trkpt><trkpt lat="45.749283310264495" lon="11.669568765968652"><ele>103.5</ele><time>2026-04-10T11:31:00Z</time></trkpt><trkpt lat="45.74921984514031" lon="11.669412655797332"><ele>104.0</ele><time>2026-04-10T11:31:01Z</time></trkpt><trkpt lat="45.74916074422584" lon="11.669265654791127"><ele>104.5</ele><time>2026-04-10T11:31:02Z</time></trkpt><trkpt lat="45.74910424433445" lon="11.66911950692065"><ele>105.0</ele><time>2026-04-10T11:31:03Z</time></trkpt><trkpt lat="45.74905727268636" lon="11.668993620405171"><ele>105.0</ele><time>2026-04-10T11:31:04Z</time></trkpt><trkpt lat="45.74902646741471" lon="11.668888594772428"><ele>105.0</ele><time>2026-04-10T11:31:05Z</time></trkpt><trkpt lat="45.7489950458946" lon="11.668789883511486"><ele>105.0</ele><time>2026-04-10T11:31:06Z</time></trkpt><trkpt lat="45.74896302079435" lon="11.668691265557841"><ele>105.0</ele><time>2026-04-10T11:31:07Z</time></trkpt><trkpt lat="45.74892384681656" lon="11.66857885045935"><ele>105.0</ele><time>2026-04-10T11:31:08Z</time></trkpt><trkpt lat="45.748890111620334" lon="11.668463391863304"><ele>105.0</ele><time>2026-04-10T11:31:09Z</time></trkpt><trkpt lat="45.748850096015495" lon="11.668334652263267"><ele>104.8</ele><time>2026-04-10T11:31:10Z</time></trkpt><trkpt lat="45.74881500169154" lon="11.66819241077934"><ele>104.6</ele><time>2026-04-10T11:31:11Z</time></trkpt><trkpt lat="45.748777513035755" lon="11.668043370971976"><ele>104.4</ele><time>2026-04-10T11:31:12Z</time></trkpt><trkpt lat="45.74874388504249" lon="11.667895209954132"><ele>104.2</ele><time>2026-04-10T11:31:13Z</time></trkpt><trkpt lat="45.7487074365265" lon="11.66774656760468"><ele>104.0</ele><time>2026-04-10T11:31:14Z</time></trkpt><trkpt lat="45.748676160636045" lon="11.667607760639887"><ele>103.99999999999999</ele><time>2026-04-10T11:31:15Z</time></trkpt><trkpt lat="45.74864291991808" lon="11.667475651724969"><ele>104.0</ele><time>2026-04-10T11:31:16Z</time></trkpt><trkpt lat="45.748614875474324" lon="11.667357940966085"><ele>104.0</ele><time>2026-04-10T11:31:17Z</time></trkpt><trkpt lat="45.74858681252968" lon="11.66724699660481"><ele>104.0</ele><time>2026-04-10T11:31:18Z</time></trkpt><trkpt lat="45.74856227245917" lon="11.667137935905808"><ele>103.99999999999999</ele><time>2026-04-10T11:31:19Z</time></trkpt><trkpt lat="45.74853790233298" lon="11.667028333111167"><ele>104.0</ele><time>2026-04-10T11:31:20Z</time></trkpt><trkpt lat="45.74850853292997" lon="11.666914975465788"><ele>104.16666666666666</ele><time>2026-04-10T11:31:21Z</time></trkpt><trkpt lat="45.748485381708925" lon="11.66680513725735"><ele>104.33333333333333</ele><time>2026-04-10T11:31:22Z</time></trkpt><trkpt lat="45.74845758335932" lon="11.666704225303453"><ele>104.5</ele><time>2026-04-10T11:31:23Z</time></trkpt><trkpt lat="45.74843836876187" lon="11.666606540888482"><ele>104.66666666666666</ele><time>2026-04-10T11:31:24Z</time></trkpt><trkpt lat="45.74842052644433" lon="11.666515539841553"><ele>104.83333333333333</ele><time>2026-04-10T11:31:25Z</time></trkpt><trkpt lat="45.748440365610314" lon="11.66633849527041"><ele>105.0</ele><time>2026-04-10T11:31:27Z</time></trkpt><trkpt lat="45.74844561533015" lon="11.66623954593511"><ele>105.0</ele><time>2026-04-10T11:31:28Z</time></trkpt><trkpt lat="45.748425084633766" lon="11.666128086358823"><ele>105.0</ele><time>2026-04-10T11:31:29Z</time></trkpt><trkpt lat="45.748373444144335" lon="11.666030903639793"><ele>105.0</ele><time>2026-04-10T11:31:30Z</time></trkpt><trkpt lat="45.74830656776479" lon="11.665915594569366"><ele>105.0</ele><time>2026-04-10T11:31:31Z</time></trkpt><trkpt lat="45.74825604984129" lon="11.665785583561584"><ele>105.0</ele><time>2026-04-10T11:31:32Z</time></trkpt><trkpt lat="45.748220468413685" lon="11.665641568405938"><ele>105.0</ele><time>2026-04-10T11:31:33Z</time></trkpt><trkpt lat="45.74819285088312" lon="11.665512012280766"><ele>105.0</ele><time>2026-04-10T11:31:34Z</time></trkpt><trkpt lat="45.74816260435613" lon="11.665378630489242"><ele>105.0</ele><time>2026-04-10T11:31:35Z</time></trkpt><trkpt lat="45.74813226512982" lon="11.665247777346536"><ele>105.0</ele><time>2026-04-10T11:31:36Z</time></trkpt><trkpt lat="45.74810112502768" lon="11.665131209646685"><ele>105.0</ele><time>2026-04-10T11:31:37Z</time></trkpt><trkpt lat="45.748072614229685" lon="11.66499964518955"><ele>105.0</ele><time>2026-04-10T11:31:38Z</time></trkpt><trkpt lat="45.74802982079806" lon="11.664841226208187"><ele>105.0</ele><time>2026-04-10T11:31:39Z</time></trkpt><trkpt lat="45.74798436161531" lon="11.664659388751183"><ele>105.0</ele><time>2026-04-10T11:31:40Z</time></trkpt><trkpt lat="45.74794256353403" lon="11.664468047625043"><ele>105.0</ele><time>2026-04-10T11:31:41Z</time></trkpt><trkpt lat="45.74789813126394" lon="11.664258874632198"><ele>104.0</ele><time>2026-04-10T11:31:42Z</time></trkpt><trkpt lat="45.74784539384891" lon="11.664036248149687"><ele>103.0</ele><time>2026-04-10T11:31:43Z</time></trkpt><trkpt lat="45.7477961622284" lon="11.663812317647924"><ele>102.0</ele><time>2026-04-10T11:31:44Z</time></trkpt><trkpt lat="45.74775701766882" lon="11.663593822134175"><ele>102.0</ele><time>2026-04-10T11:31:45Z</time></trkpt><trkpt lat="45.74771090642798" lon="11.663361319578117"><ele>102.0</ele><time>2026-04-10T11:31:46Z</time></trkpt><trkpt lat="45.747662674191844" lon="11.663140118157338"><ele>102.0</ele><time>2026-04-10T11:31:47Z</time></trkpt><trkpt lat="45.74761873229934" lon="11.662930116414065"><ele>102.39999999999999</ele><time>2026-04-10T11:31:48Z</time></trkpt><trkpt lat="45.747584635269" lon="11.662733329651982"><ele>102.8</ele><time>2026-04-10T11:31:49Z</time></trkpt><trkpt lat="45.74756417968948" lon="11.662557846827756"><ele>103.2</ele><time>2026-04-10T11:31:50Z</time></trkpt><trkpt lat="45.74755746463894" lon="11.66241456327398"><ele>103.6</ele><time>2026-04-10T11:31:51Z</time></trkpt><trkpt lat="45.74755647542413" lon="11.662319368488705"><ele>104.0</ele><time>2026-04-10T11:31:52Z</time></trkpt><trkpt lat="45.7475765170301" lon="11.662204591210244"><ele>104.0</ele><time>2026-04-10T11:31:55Z</time></trkpt><trkpt lat="45.747601637871924" lon="11.662018405864934"><ele>104.0</ele><time>2026-04-10T11:31:58Z</time></trkpt><trkpt lat="45.74758171227136" lon="11.661902561040263"><ele>104.0</ele><time>2026-04-10T11:31:59Z</time></trkpt><trkpt lat="45.747518399346646" lon="11.661803679487155"><ele>104.0</ele><time>2026-04-10T11:32:00Z</time></trkpt><trkpt lat="45.74741481193901" lon="11.66170023971826"><ele>104.0</ele><time>2026-04-10T11:32:01Z</time></trkpt><trkpt lat="45.747314495178365" lon="11.661553758762835"><ele>103.66666666666666</ele><time>2026-04-10T11:32:02Z</time></trkpt><trkpt lat="45.74728273882074" lon="11.661360347589277"><ele>103.33333333333334</ele><time>2026-04-10T11:32:03Z</time></trkpt><trkpt lat="45.74723119171066" lon="11.661122811774609"><ele>103.0</ele><time>2026-04-10T11:32:04Z</time></trkpt><trkpt lat="45.74715163296685" lon="11.660867575411793"><ele>102.66666666666667</ele><time>2026-04-10T11:32:05Z</time></trkpt><trkpt lat="45.74707501059882" lon="11.660605781553107"><ele>102.33333333333334</ele><time>2026-04-10T11:32:06Z</time></trkpt><trkpt lat="45.74697231258772" lon="11.660340757139437"><ele>102.0</ele><time>2026-04-10T11:32:07Z</time></trkpt><trkpt lat="45.74686017793673" lon="11.660086375475972"><ele>102.0</ele><time>2026-04-10T11:32:08Z</time></trkpt><trkpt lat="45.746745920790616" lon="11.65986527204246"><ele>102.0</ele><time>2026-04-10T11:32:09Z</time></trkpt><trkpt lat="45.7466314196905" lon="11.65967300352433"><ele>102.0</ele><time>2026-04-10T11:32:10Z</time></trkpt><trkpt lat="45.74652326379925" lon="11.659512003221097"><ele>101.8</ele><time>2026-04-10T11:32:11Z</time></trkpt><trkpt lat="45.74642740885767" lon="11.659373053324574"><ele>101.6</ele><time>2026-04-10T11:32:12Z</time></trkpt><trkpt lat="45.7463379717268" lon="11.65926861527879"><ele>101.39999999999999</ele><time>2026-04-10T11:32:13Z</time></trkpt><trkpt lat="45.74628010378871" lon="11.659195265354812"><ele>101.19999999999999</ele><time>2026-04-10T11:32:14Z</time></trkpt><trkpt lat="45.746207246498" lon="11.659086877212223"><ele>101.0</ele><time>2026-04-10T11:32:16Z</time></trkpt><trkpt lat="45.746145675571974" lon="11.658987499003997"><ele>100.99999999999999</ele><time>2026-04-10T11:32:17.999Z</time></trkpt><trkpt lat="45.74610553687496" lon="11.658880001708118"><ele>101.0</ele><time>2026-04-10T11:32:20.999Z</time></trkpt><trkpt lat="45.74608389707303" lon="11.658757347831937"><ele>101.0</ele><time>2026-04-10T11:32:22.999Z</time></trkpt><trkpt lat="45.746022196993884" lon="11.658601503780014"><ele>101.0</ele><time>2026-04-10T11:32:24.999Z</time></trkpt><trkpt lat="45.745962445666024" lon="11.658565301597202"><ele>100.99999999999999</ele><time>2026-04-10T11:32:25.999Z</time></trkpt><trkpt lat="45.74588996735243" lon="11.65859253722542"><ele>101.0</ele><time>2026-04-10T11:32:26.999Z</time></trkpt><trkpt lat="45.74580652798806" lon="11.65866184835528"><ele>101.0</ele><time>2026-04-10T11:32:27.999Z</time></trkpt><trkpt lat="45.745713352465756" lon="11.658707353950541"><ele>101.0</ele><time>2026-04-10T11:32:28.999Z</time></trkpt><trkpt lat="45.745601029215365" lon="11.65869911899279"><ele>101.0</ele><time>2026-04-10T11:32:29.999Z</time></trkpt><trkpt lat="45.74549111835973" lon="11.658610603810406"><ele>101.0</ele><time>2026-04-10T11:32:30.999Z</time></trkpt><trkpt lat="45.745378003672904" lon="11.65857679180355"><ele>101.0</ele><time>2026-04-10T11:32:31.999Z</time></trkpt><trkpt lat="45.74525220577325" lon="11.65851816183215"><ele>101.0</ele><time>2026-04-10T11:32:32.999Z</time></trkpt><trkpt lat="45.745116503505294" lon="11.65846666811847"><ele>101.0</ele><time>2026-04-10T11:32:33.999Z</time></trkpt><trkpt lat="45.74497479223949" lon="11.658421243728139"><ele>101.0</ele><time>2026-04-10T11:32:34.999Z</time></trkpt><trkpt lat="45.74484071582895" lon="11.658386747237659"><ele>100.66666666666666</ele><time>2026-04-10T11:32:35.999Z</time></trkpt><trkpt lat="45.74469171788237" lon="11.658356822806319"><ele>100.33333333333334</ele><time>2026-04-10T11:32:36.999Z</time></trkpt><trkpt lat="45.74454171364434" lon="11.658332399535578"><ele>100.0</ele><time>2026-04-10T11:32:37.999Z</time></trkpt><trkpt lat="45.744391529681266" lon="11.6583266119752"><ele>100.0</ele><time>2026-04-10T11:32:38.999Z</time></trkpt><trkpt lat="45.74424488916739" lon="11.658326649972407"><ele>100.0</ele><time>2026-04-10T11:32:39.999Z</time></trkpt><trkpt lat="45.744086980990886" lon="11.658326186075199"><ele>100.0</ele><time>2026-04-10T11:32:40.999Z</time></trkpt><trkpt lat="45.74393141321297" lon="11.658335398782093"><ele>100.0</ele><time>2026-04-10T11:32:41.999Z</time></trkpt><trkpt lat="45.743775909600735" lon="11.658353905877105"><ele>100.0</ele><time>2026-04-10T11:32:42.999Z</time></trkpt><trkpt lat="45.74363460459348" lon="11.658366247265624"><ele>100.0</ele><time>2026-04-10T11:32:43.999Z</time></trkpt><trkpt lat="45.743502271510465" lon="11.65837845332926"><ele>100.0</ele><time>2026-04-10T11:32:44.999Z</time></trkpt><trkpt lat="45.743375052577264" lon="11.658391295433026"><ele>100.25</ele><time>2026-04-10T11:32:45.999Z</time></trkpt><trkpt lat="45.74324862355308" lon="11.658403496675291"><ele>100.5</ele><time>2026-04-10T11:32:46.999Z</time></trkpt><trkpt lat="45.74312620373773" lon="11.658415796724562"><ele>100.75</ele><time>2026-04-10T11:32:47.999Z</time></trkpt><trkpt lat="45.743043078871644" lon="11.658420871682733"><ele>101.0</ele><time>2026-04-10T11:32:48.999Z</time></trkpt><trkpt lat="45.74291822569354" lon="11.658439316137288"><ele>101.0</ele><time>2026-04-10T11:32:50.999Z</time></trkpt><trkpt lat="45.7428510321264" lon="11.658450200574674"><ele>101.0</ele><time>2026-04-10T11:32:51.999Z</time></trkpt><trkpt lat="45.74277390616549" lon="11.658462198646978"><ele>101.0</ele><time>2026-04-10T11:32:52.999Z</time></trkpt><trkpt lat="45.742681093326254" lon="11.658466856181997"><ele>101.0</ele><time>2026-04-10T11:32:53.999Z</time></trkpt><trkpt lat="45.74257661436974" lon="11.658472246915839"><ele>101.0</ele><time>2026-04-10T11:32:54.999Z</time></trkpt><trkpt lat="45.742464604441835" lon="11.658479774304693"><ele>100.25</ele><time>2026-04-10T11:32:55.999Z</time></trkpt><trkpt lat="45.74235113062931" lon="11.65848633854911"><ele>99.5</ele><time>2026-04-10T11:32:56.999Z</time></trkpt><trkpt lat="45.74222479312624" lon="11.658503309999794"><ele>98.75</ele><time>2026-04-10T11:32:57.999Z</time></trkpt><trkpt lat="45.74208964729568" lon="11.658516443515204"><ele>98.0</ele><time>2026-04-10T11:32:58.999Z</time></trkpt><trkpt lat="45.74195490933094" lon="11.658531988486796"><ele>98.0</ele><time>2026-04-10T11:32:59.999Z</time></trkpt><trkpt lat="45.741826700866724" lon="11.658562034528494"><ele>98.0</ele><time>2026-04-10T11:33:00.999Z</time></trkpt><trkpt lat="45.74171459818414" lon="11.658598174714127"><ele>98.0</ele><time>2026-04-10T11:33:01.999Z</time></trkpt><trkpt lat="45.741612674217414" lon="11.658636027024214"><ele>98.0</ele><time>2026-04-10T11:33:03Z</time></trkpt><trkpt lat="45.74152539971107" lon="11.658679162734618"><ele>98.0</ele><time>2026-04-10T11:33:04Z</time></trkpt><trkpt lat="45.74144405987616" lon="11.658695570912233"><ele>98.0</ele><time>2026-04-10T11:33:05Z</time></trkpt><trkpt lat="45.74135723164146" lon="11.658674561479533"><ele>98.0</ele><time>2026-04-10T11:33:06Z</time></trkpt><trkpt lat="45.74126479572883" lon="11.658619814467835"><ele>98.0</ele><time>2026-04-10T11:33:07Z</time></trkpt><trkpt lat="45.741164080362644" lon="11.658581915516587"><ele>98.0</ele><time>2026-04-10T11:33:08Z</time></trkpt><trkpt lat="45.74104931210545" lon="11.658599176360651"><ele>98.0</ele><time>2026-04-10T11:33:09Z</time></trkpt><trkpt lat="45.740910653072724" lon="11.658599828398206"><ele>97.5</ele><time>2026-04-10T11:33:10Z</time></trkpt><trkpt lat="45.74076734669573" lon="11.658528519216402"><ele>97.0</ele><time>2026-04-10T11:33:11Z</time></trkpt><trkpt lat="45.74061459747832" lon="11.658505552917859"><ele>96.5</ele><time>2026-04-10T11:33:12Z</time></trkpt><trkpt lat="45.74048819794723" lon="11.658455624646505"><ele>96.0</ele><time>2026-04-10T11:33:13Z</time></trkpt><trkpt lat="45.7403762834628" lon="11.658406013376649"><ele>96.0</ele><time>2026-04-10T11:33:14Z</time></trkpt><trkpt lat="45.74027047654005" lon="11.658347730092162"><ele>96.0</ele><time>2026-04-10T11:33:15Z</time></trkpt><trkpt lat="45.740167178313655" lon="11.65829040653493"><ele>96.0</ele><time>2026-04-10T11:33:16Z</time></trkpt><trkpt lat="45.74006357378815" lon="11.658220393694723"><ele>96.0</ele><time>2026-04-10T11:33:17Z</time></trkpt><trkpt lat="45.73994840117955" lon="11.658136924324651"><ele>96.25</ele><time>2026-04-10T11:33:18Z</time></trkpt><trkpt lat="45.739839428910976" lon="11.658053828143492"><ele>96.5</ele><time>2026-04-10T11:33:19Z</time></trkpt><trkpt lat="45.739730853927696" lon="11.657959366238355"><ele>96.75</ele><time>2026-04-10T11:33:20Z</time></trkpt><trkpt lat="45.73962717197724" lon="11.657861123741094"><ele>97.0</ele><time>2026-04-10T11:33:21Z</time></trkpt><trkpt lat="45.73952532171722" lon="11.65774838071657"><ele>97.0</ele><time>2026-04-10T11:33:22Z</time></trkpt><trkpt lat="45.739425574743656" lon="11.657622934028524"><ele>97.0</ele><time>2026-04-10T11:33:23Z</time></trkpt><trkpt lat="45.739332831724155" lon="11.657492012957553"><ele>97.0</ele><time>2026-04-10T11:33:24Z</time></trkpt><trkpt lat="45.73925219606182" lon="11.65737453367268"><ele>97.0</ele><time>2026-04-10T11:33:25Z</time></trkpt><trkpt lat="45.73917478223043" lon="11.65726255119954"><ele>96.39999999999999</ele><time>2026-04-10T11:33:26Z</time></trkpt><trkpt lat="45.73910089187841" lon="11.657155139220091"><ele>95.8</ele><time>2026-04-10T11:33:27Z</time></trkpt><trkpt lat="45.73902642763517" lon="11.657052693638358"><ele>95.2</ele><time>2026-04-10T11:33:28Z</time></trkpt><trkpt lat="45.73894888669771" lon="11.656943780490925"><ele>94.6</ele><time>2026-04-10T11:33:29Z</time></trkpt><trkpt lat="45.73886734355402" lon="11.656830771308208"><ele>94.0</ele><time>2026-04-10T11:33:30Z</time></trkpt><trkpt lat="45.73878330634895" lon="11.656715300792253"><ele>94.0</ele><time>2026-04-10T11:33:31Z</time></trkpt><trkpt lat="45.73870130739047" lon="11.656601303970813"><ele>94.0</ele><time>2026-04-10T11:33:32Z</time></trkpt><trkpt lat="45.73861335250516" lon="11.656479807258329"><ele>94.0</ele><time>2026-04-10T11:33:33Z</time></trkpt><trkpt lat="45.738525541492116" lon="11.656351692146824"><ele>94.0</ele><time>2026-04-10T11:33:34Z</time></trkpt><trkpt lat="45.73843383715044" lon="11.656216954114868"><ele>93.75</ele><time>2026-04-10T11:33:35Z</time></trkpt><trkpt lat="45.738336293379646" lon="11.656084913318045"><ele>93.5</ele><time>2026-04-10T11:33:36Z</time></trkpt><trkpt lat="45.738239775378055" lon="11.655947659317633"><ele>93.25</ele><time>2026-04-10T11:33:37Z</time></trkpt><trkpt lat="45.73814169994219" lon="11.655806097743293"><ele>93.0</ele><time>2026-04-10T11:33:38Z</time></trkpt><trkpt lat="45.738051454605" lon="11.655670769115492"><ele>93.0</ele><time>2026-04-10T11:33:39Z</time></trkpt><trkpt lat="45.73795970927342" lon="11.655539751623916"><ele>93.0</ele><time>2026-04-10T11:33:40Z</time></trkpt><trkpt lat="45.737868027144145" lon="11.655418786609378"><ele>93.0</ele><time>2026-04-10T11:33:41Z</time></trkpt><trkpt lat="45.7377770077856" lon="11.655303925390914"><ele>93.0</ele><time>2026-04-10T11:33:42Z</time></trkpt><trkpt lat="45.73768198157127" lon="11.655188665959841"><ele>92.75</ele><time>2026-04-10T11:33:43Z</time></trkpt><trkpt lat="45.73757555428683" lon="11.655076808625981"><ele>92.5</ele><time>2026-04-10T11:33:44Z</time></trkpt><trkpt lat="45.73745760092013" lon="11.654984269165384"><ele>92.25</ele><time>2026-04-10T11:33:45Z</time></trkpt><trkpt lat="45.737314444602" lon="11.654898981046223"><ele>92.0</ele><time>2026-04-10T11:33:46Z</time></trkpt><trkpt lat="45.73714475352207" lon="11.654836186292236"><ele>92.0</ele><time>2026-04-10T11:33:47Z</time></trkpt><trkpt lat="45.73695619407279" lon="11.654775134357804"><ele>92.0</ele><time>2026-04-10T11:33:48Z</time></trkpt><trkpt lat="45.73676234324495" lon="11.654706469753993"><ele>92.0</ele><time>2026-04-10T11:33:49Z</time></trkpt><trkpt lat="45.73655711943721" lon="11.654627402820173"><ele>92.33333333333334</ele><time>2026-04-10T11:33:50Z</time></trkpt><trkpt lat="45.7363425697592" lon="11.654551910164953"><ele>92.66666666666667</ele><time>2026-04-10T11:33:51Z</time></trkpt><trkpt lat="45.736137606955666" lon="11.654467718548245"><ele>93.0</ele><time>2026-04-10T11:33:52Z</time></trkpt><trkpt lat="45.735925468636815" lon="11.654387493159454"><ele>92.0</ele><time>2026-04-10T11:33:53Z</time></trkpt><trkpt lat="45.73571054741396" lon="11.654308345865145"><ele>91.0</ele><time>2026-04-10T11:33:54Z</time></trkpt><trkpt lat="45.73549327338367" lon="11.654227583972732"><ele>90.0</ele><time>2026-04-10T11:33:55Z</time></trkpt><trkpt lat="45.73527087767725" lon="11.654142385504063"><ele>91.0</ele><time>2026-04-10T11:33:56Z</time></trkpt><trkpt lat="45.73481093848534" lon="11.653973348685371"><ele>91.0</ele><time>2026-04-10T11:33:58Z</time></trkpt><trkpt lat="45.73457642347209" lon="11.653889993536772"><ele>91.0</ele><time>2026-04-10T11:33:59Z</time></trkpt><trkpt lat="45.73434038499447" lon="11.653800582444177"><ele>91.0</ele><time>2026-04-10T11:34:00Z</time></trkpt><trkpt lat="45.73409997347504" lon="11.653709285355374"><ele>91.0</ele><time>2026-04-10T11:34:01Z</time></trkpt><trkpt lat="45.733861846636366" lon="11.653619504242668"><ele>90.5</ele><time>2026-04-10T11:34:02Z</time></trkpt><trkpt lat="45.73362522418941" lon="11.653532039368233"><ele>90.0</ele><time>2026-04-10T11:34:03Z</time></trkpt><trkpt lat="45.73338133530897" lon="11.653434036532698"><ele>90.0</ele><time>2026-04-10T11:34:04Z</time></trkpt><trkpt lat="45.73313178302963" lon="11.653341357077304"><ele>90.0</ele><time>2026-04-10T11:34:05Z</time></trkpt><trkpt lat="45.732882746531175" lon="11.653251912779444"><ele>90.0</ele><time>2026-04-10T11:34:06Z</time></trkpt><trkpt lat="45.732631022226386" lon="11.653159340939567"><ele>90.0</ele><time>2026-04-10T11:34:07Z</time></trkpt><trkpt lat="45.732383382101915" lon="11.653067261622738"><ele>90.0</ele><time>2026-04-10T11:34:08Z</time></trkpt><trkpt lat="45.73213208101192" lon="11.652966863596786"><ele>90.0</ele><time>2026-04-10T11:34:09Z</time></trkpt><trkpt lat="45.73187778581904" lon="11.652868389170786"><ele>89.5</ele><time>2026-04-10T11:34:10Z</time></trkpt><trkpt lat="45.73162502094112" lon="11.652772251071632"><ele>89.0</ele><time>2026-04-10T11:34:11Z</time></trkpt><trkpt lat="45.7313712336851" lon="11.6526843937578"><ele>89.0</ele><time>2026-04-10T11:34:12Z</time></trkpt><trkpt lat="45.73111528670511" lon="11.652603565898499"><ele>89.0</ele><time>2026-04-10T11:34:12.999Z</time></trkpt><trkpt lat="45.730856291443935" lon="11.6525301158935"><ele>88.0</ele><time>2026-04-10T11:34:13.999Z</time></trkpt><trkpt lat="45.73060065206684" lon="11.652463944313748"><ele>87.0</ele><time>2026-04-10T11:34:14.999Z</time></trkpt><trkpt lat="45.730339469889685" lon="11.652409883168884"><ele>88.0</ele><time>2026-04-10T11:34:15.999Z</time></trkpt><trkpt lat="45.7300766023799" lon="11.652360541175316"><ele>89.0</ele><time>2026-04-10T11:34:16.999Z</time></trkpt><trkpt lat="45.729812379483725" lon="11.652314864228776"><ele>89.0</ele><time>2026-04-10T11:34:17.999Z</time></trkpt><trkpt lat="45.72955201812793" lon="11.652263826224255"><ele>89.0</ele><time>2026-04-10T11:34:18.999Z</time></trkpt><trkpt lat="45.72931629888502" lon="11.652227112253291"><ele>89.0</ele><time>2026-04-10T11:34:19.999Z</time></trkpt><trkpt lat="45.729093936002364" lon="11.652185722171849"><ele>89.0</ele><time>2026-04-10T11:34:20.999Z</time></trkpt><trkpt lat="45.728887572827155" lon="11.65215178704566"><ele>89.0</ele><time>2026-04-10T11:34:21.999Z</time></trkpt><trkpt lat="45.728695338171995" lon="11.65211691094781"><ele>89.0</ele><time>2026-04-10T11:34:22.999Z</time></trkpt><trkpt lat="45.72852735147492" lon="11.652088363384562"><ele>89.0</ele><time>2026-04-10T11:34:23.999Z</time></trkpt><trkpt lat="45.72837160548662" lon="11.652060300363777"><ele>89.0</ele><time>2026-04-10T11:34:24.999Z</time></trkpt><trkpt lat="45.72822006321222" lon="11.652028781637783"><ele>89.0</ele><time>2026-04-10T11:34:25.999Z</time></trkpt><trkpt lat="45.72807616607185" lon="11.652004694320281"><ele>89.0</ele><time>2026-04-10T11:34:26.999Z</time></trkpt><trkpt lat="45.72794437120861" lon="11.651975486651262"><ele>89.0</ele><time>2026-04-10T11:34:27.999Z</time></trkpt><trkpt lat="45.72782469543922" lon="11.651951856397883"><ele>89.0</ele><time>2026-04-10T11:34:28.999Z</time></trkpt><trkpt lat="45.72772325954704" lon="11.651925774336346"><ele>88.66666666666667</ele><time>2026-04-10T11:34:29.999Z</time></trkpt><trkpt lat="45.727638655968484" lon="11.651896395901947"><ele>88.33333333333334</ele><time>2026-04-10T11:34:30.999Z</time></trkpt><trkpt lat="45.72756249481705" lon="11.651866044222194"><ele>88.0</ele><time>2026-04-10T11:34:31.999Z</time></trkpt><trkpt lat="45.72749104329529" lon="11.651841480282469"><ele>87.66666666666667</ele><time>2026-04-10T11:34:32.999Z</time></trkpt><trkpt lat="45.727425319543556" lon="11.651811097195706"><ele>87.33333333333333</ele><time>2026-04-10T11:34:33.999Z</time></trkpt><trkpt lat="45.727355799894816" lon="11.65177051403823"><ele>87.0</ele><time>2026-04-10T11:34:34.999Z</time></trkpt><trkpt lat="45.72729317038354" lon="11.651686528363765"><ele>87.0</ele><time>2026-04-10T11:34:35.999Z</time></trkpt><trkpt lat="45.727253588522565" lon="11.651562781842246"><ele>87.0</ele><time>2026-04-10T11:34:36.999Z</time></trkpt><trkpt lat="45.72723077487363" lon="11.651437299561774"><ele>87.0</ele><time>2026-04-10T11:34:37.999Z</time></trkpt><trkpt lat="45.72715162336526" lon="11.651325501825442"><ele>87.0</ele><time>2026-04-10T11:34:38.999Z</time></trkpt><trkpt lat="45.72710623314563" lon="11.651242662498213"><ele>87.0</ele><time>2026-04-10T11:34:39.999Z</time></trkpt><trkpt lat="45.727024104805295" lon="11.651193743419677"><ele>87.0</ele><time>2026-04-10T11:34:40.999Z</time></trkpt><trkpt lat="45.72693243574929" lon="11.651161038296658"><ele>87.0</ele><time>2026-04-10T11:34:41.999Z</time></trkpt><trkpt lat="45.72684282965312" lon="11.651134165718332"><ele>87.0</ele><time>2026-04-10T11:34:42.999Z</time></trkpt><trkpt lat="45.726751550290594" lon="11.65107911106568"><ele>87.0</ele><time>2026-04-10T11:34:43.999Z</time></trkpt><trkpt lat="45.72666811140289" lon="11.650973771726873"><ele>87.0</ele><time>2026-04-10T11:34:44.999Z</time></trkpt><trkpt lat="45.72658454698228" lon="11.65083740966186"><ele>86.5</ele><time>2026-04-10T11:34:45.999Z</time></trkpt><trkpt lat="45.72649332970876" lon="11.650681154320655"><ele>86.0</ele><time>2026-04-10T11:34:46.999Z</time></trkpt><trkpt lat="45.72641163688312" lon="11.650522964270252"><ele>85.5</ele><time>2026-04-10T11:34:47.999Z</time></trkpt><trkpt lat="45.726332543640915" lon="11.65035372159149"><ele>85.0</ele><time>2026-04-10T11:34:48.999Z</time></trkpt><trkpt lat="45.72625191349676" lon="11.65018611705815"><ele>84.66666666666666</ele><time>2026-04-10T11:34:49.999Z</time></trkpt><trkpt lat="45.726168927931255" lon="11.650017294799568"><ele>84.33333333333333</ele><time>2026-04-10T11:34:50.999Z</time></trkpt><trkpt lat="45.72607480718275" lon="11.64983661433943"><ele>84.0</ele><time>2026-04-10T11:34:51.999Z</time></trkpt><trkpt lat="45.72596710625643" lon="11.649624716020519"><ele>84.0</ele><time>2026-04-10T11:34:52.999Z</time></trkpt><trkpt lat="45.72584267376935" lon="11.649375281138392"><ele>84.0</ele><time>2026-04-10T11:34:53.999Z</time></trkpt><trkpt lat="45.72570749822838" lon="11.649091702368683"><ele>84.0</ele><time>2026-04-10T11:34:54.998Z</time></trkpt><trkpt lat="45.72556740805414" lon="11.64878100409132"><ele>84.0</ele><time>2026-04-10T11:34:55.998Z</time></trkpt><trkpt lat="45.72542899334703" lon="11.64845567678289"><ele>83.5</ele><time>2026-04-10T11:34:56.998Z</time></trkpt><trkpt lat="45.725297667199115" lon="11.648153417657527"><ele>83.0</ele><time>2026-04-10T11:34:57.998Z</time></trkpt><trkpt lat="45.725164301066805" lon="11.647879491256239"><ele>83.0</ele><time>2026-04-10T11:34:58.998Z</time></trkpt><trkpt lat="45.72501568796424" lon="11.647603942091653"><ele>83.0</ele><time>2026-04-10T11:34:59.998Z</time></trkpt><trkpt lat="45.72485285664971" lon="11.647326755717755"><ele>83.0</ele><time>2026-04-10T11:35:00.998Z</time></trkpt><trkpt lat="45.72468108358383" lon="11.647041955145083"><ele>83.0</ele><time>2026-04-10T11:35:01.998Z</time></trkpt><trkpt lat="45.72450469703714" lon="11.646764554487536"><ele>83.0</ele><time>2026-04-10T11:35:02.998Z</time></trkpt><trkpt lat="45.72432116322907" lon="11.6464868214736"><ele>83.0</ele><time>2026-04-10T11:35:03.998Z</time></trkpt><trkpt lat="45.724138693823775" lon="11.646215223895814"><ele>82.5</ele><time>2026-04-10T11:35:04.998Z</time></trkpt><trkpt lat="45.7239537533652" lon="11.645951047528774"><ele>82.0</ele><time>2026-04-10T11:35:05.998Z</time></trkpt><trkpt lat="45.72375798117373" lon="11.645693893058194"><ele>82.0</ele><time>2026-04-10T11:35:06.998Z</time></trkpt><trkpt lat="45.72355135945369" lon="11.645442688193112"><ele>82.0</ele><time>2026-04-10T11:35:07.998Z</time></trkpt><trkpt lat="45.723340072836486" lon="11.645195271113048"><ele>81.5</ele><time>2026-04-10T11:35:09Z</time></trkpt><trkpt lat="45.723122507782755" lon="11.644949139797964"><ele>81.0</ele><time>2026-04-10T11:35:10Z</time></trkpt><trkpt lat="45.72290554398743" lon="11.64470709224025"><ele>81.0</ele><time>2026-04-10T11:35:11Z</time></trkpt><trkpt lat="45.72268269725682" lon="11.644467727121954"><ele>81.0</ele><time>2026-04-10T11:35:12Z</time></trkpt><trkpt lat="45.72245470978251" lon="11.644232071152723"><ele>81.0</ele><time>2026-04-10T11:35:13Z</time></trkpt><trkpt lat="45.72222483895224" lon="11.64400104169243"><ele>81.0</ele><time>2026-04-10T11:35:14Z</time></trkpt><trkpt lat="45.72199453238454" lon="11.643766844195916"><ele>81.0</ele><time>2026-04-10T11:35:15Z</time></trkpt><trkpt lat="45.72176421877551" lon="11.643531278599715"><ele>81.0</ele><time>2026-04-10T11:35:16Z</time></trkpt><trkpt lat="45.72154293613894" lon="11.643291642421135"><ele>81.0</ele><time>2026-04-10T11:35:17Z</time></trkpt><trkpt lat="45.721319935798" lon="11.64305604652318"><ele>81.0</ele><time>2026-04-10T11:35:18Z</time></trkpt><trkpt lat="45.72109796324004" lon="11.642814995149797"><ele>81.5</ele><time>2026-04-10T11:35:19Z</time></trkpt><trkpt lat="45.72087463045989" lon="11.642579541088276"><ele>82.0</ele><time>2026-04-10T11:35:20Z</time></trkpt><trkpt lat="45.72064799795203" lon="11.642349652585326"><ele>82.0</ele><time>2026-04-10T11:35:21Z</time></trkpt><trkpt lat="45.720427026128135" lon="11.642119124344262"><ele>82.0</ele><time>2026-04-10T11:35:22Z</time></trkpt><trkpt lat="45.720200387856096" lon="11.641884120074863"><ele>82.0</ele><time>2026-04-10T11:35:23Z</time></trkpt><trkpt lat="45.719972925165685" lon="11.641648298058087"><ele>82.0</ele><time>2026-04-10T11:35:24Z</time></trkpt><trkpt lat="45.71974377544231" lon="11.641408997281667"><ele>82.0</ele><time>2026-04-10T11:35:25Z</time></trkpt><trkpt lat="45.719513279020404" lon="11.641170112848808"><ele>82.0</ele><time>2026-04-10T11:35:26Z</time></trkpt><trkpt lat="45.71928243277755" lon="11.640937690619733"><ele>81.5</ele><time>2026-04-10T11:35:27Z</time></trkpt><trkpt lat="45.71905378938393" lon="11.64071136689824"><ele>81.0</ele><time>2026-04-10T11:35:28Z</time></trkpt><trkpt lat="45.718822804376096" lon="11.640476916913256"><ele>81.5</ele><time>2026-04-10T11:35:29Z</time></trkpt><trkpt lat="45.718601757183706" lon="11.64023453706218"><ele>82.0</ele><time>2026-04-10T11:35:30Z</time></trkpt><trkpt lat="45.71838125400091" lon="11.639989438998471"><ele>82.0</ele><time>2026-04-10T11:35:31Z</time></trkpt><trkpt lat="45.71815987533503" lon="11.63974692314784"><ele>82.0</ele><time>2026-04-10T11:35:32Z</time></trkpt><trkpt lat="45.717949996592985" lon="11.639521474078665"><ele>82.33333333333333</ele><time>2026-04-10T11:35:33Z</time></trkpt><trkpt lat="45.717762714848185" lon="11.639320563763256"><ele>82.66666666666667</ele><time>2026-04-10T11:35:34Z</time></trkpt><trkpt lat="45.71759203236173" lon="11.639140462967976"><ele>83.0</ele><time>2026-04-10T11:35:35Z</time></trkpt><trkpt lat="45.71743631494187" lon="11.638971633596558"><ele>82.33333333333334</ele><time>2026-04-10T11:35:36Z</time></trkpt><trkpt lat="45.71730026706295" lon="11.638817972338616"><ele>81.66666666666667</ele><time>2026-04-10T11:35:37Z</time></trkpt><trkpt lat="45.717175140639824" lon="11.638678674590691"><ele>81.0</ele><time>2026-04-10T11:35:38Z</time></trkpt><trkpt lat="45.717062002294206" lon="11.638547289819531"><ele>81.0</ele><time>2026-04-10T11:35:39Z</time></trkpt><trkpt lat="45.71695915062067" lon="11.638421210768591"><ele>81.0</ele><time>2026-04-10T11:35:40Z</time></trkpt><trkpt lat="45.71686945469881" lon="11.638301568885796"><ele>81.0</ele><time>2026-04-10T11:35:41Z</time></trkpt><trkpt lat="45.716786968890716" lon="11.6381793550242"><ele>81.0</ele><time>2026-04-10T11:35:42Z</time></trkpt><trkpt lat="45.716713761695836" lon="11.638060570977178"><ele>81.0</ele><time>2026-04-10T11:35:42.999Z</time></trkpt><trkpt lat="45.716660848781935" lon="11.63796859129644"><ele>81.0</ele><time>2026-04-10T11:35:43.999Z</time></trkpt><trkpt lat="45.7166188820151" lon="11.63786110953574"><ele>81.0</ele><time>2026-04-10T11:35:45.999Z</time></trkpt><trkpt lat="45.71658939210854" lon="11.637753765264307"><ele>81.0</ele><time>2026-04-10T11:35:48.999Z</time></trkpt><trkpt lat="45.71658036070352" lon="11.63755742622489"><ele>81.0</ele><time>2026-04-10T11:35:50.999Z</time></trkpt><trkpt lat="45.71659390568989" lon="11.63745008256001"><ele>81.0</ele><time>2026-04-10T11:35:51.999Z</time></trkpt><trkpt lat="45.716595700934434" lon="11.637325786881359"><ele>81.0</ele><time>2026-04-10T11:35:52.999Z</time></trkpt><trkpt lat="45.716563668868375" lon="11.637184673023565"><ele>81.0</ele><time>2026-04-10T11:35:53.999Z</time></trkpt><trkpt lat="45.71648275414624" lon="11.637052321580887"><ele>81.0</ele><time>2026-04-10T11:35:54.999Z</time></trkpt><trkpt lat="45.71639403538315" lon="11.636933260024426"><ele>81.0</ele><time>2026-04-10T11:35:55.999Z</time></trkpt><trkpt lat="45.71627758367246" lon="11.636922611279571"><ele>80.75</ele><time>2026-04-10T11:35:56.999Z</time></trkpt><trkpt lat="45.71615872049334" lon="11.636954510358484"><ele>80.5</ele><time>2026-04-10T11:35:57.999Z</time></trkpt><trkpt lat="45.71606976154336" lon="11.637036785726039"><ele>80.25</ele><time>2026-04-10T11:35:58.999Z</time></trkpt><trkpt lat="45.715950008437275" lon="11.637064932662373"><ele>80.0</ele><time>2026-04-10T11:35:59.999Z</time></trkpt><trkpt lat="45.71582083305557" lon="11.637103725652656"><ele>80.0</ele><time>2026-04-10T11:36:00.999Z</time></trkpt><trkpt lat="45.71571622844922" lon="11.637009479373779"><ele>80.0</ele><time>2026-04-10T11:36:01.999Z</time></trkpt><trkpt lat="45.71560760033119" lon="11.636892376467358"><ele>80.0</ele><time>2026-04-10T11:36:02.999Z</time></trkpt><trkpt lat="45.71544135372459" lon="11.636751658090864"><ele>79.33333333333334</ele><time>2026-04-10T11:36:03.999Z</time></trkpt><trkpt lat="45.71532135826792" lon="11.63656081701591"><ele>78.66666666666667</ele><time>2026-04-10T11:36:04.999Z</time></trkpt><trkpt lat="45.71515944733489" lon="11.636391844604596"><ele>78.0</ele><time>2026-04-10T11:36:05.999Z</time></trkpt><trkpt lat="45.71498373251233" lon="11.636224153533009"><ele>78.33333333333333</ele><time>2026-04-10T11:36:06.999Z</time></trkpt><trkpt lat="45.714818126223115" lon="11.636033980028513"><ele>78.66666666666666</ele><time>2026-04-10T11:36:07.999Z</time></trkpt><trkpt lat="45.71465330628136" lon="11.635853892226377"><ele>79.0</ele><time>2026-04-10T11:36:08.999Z</time></trkpt><trkpt lat="45.71448093992575" lon="11.635680862674935"><ele>79.33333333333333</ele><time>2026-04-10T11:36:09.999Z</time></trkpt><trkpt lat="45.71430912527301" lon="11.635501032719306"><ele>79.66666666666667</ele><time>2026-04-10T11:36:10.999Z</time></trkpt><trkpt lat="45.71414236141961" lon="11.635344469514818"><ele>80.0</ele><time>2026-04-10T11:36:11.999Z</time></trkpt><trkpt lat="45.713993223989235" lon="11.635192511027821"><ele>80.0</ele><time>2026-04-10T11:36:12.999Z</time></trkpt><trkpt lat="45.71383126381559" lon="11.635027172381124"><ele>80.0</ele><time>2026-04-10T11:36:13.999Z</time></trkpt><trkpt lat="45.71365763655996" lon="11.634850425159643"><ele>80.0</ele><time>2026-04-10T11:36:14.999Z</time></trkpt><trkpt lat="45.71345341177413" lon="11.634666541876573"><ele>78.5</ele><time>2026-04-10T11:36:15.999Z</time></trkpt><trkpt lat="45.713239924260364" lon="11.634464700268223"><ele>77.0</ele><time>2026-04-10T11:36:16.999Z</time></trkpt><trkpt lat="45.713022627391034" lon="11.634246847131699"><ele>77.0</ele><time>2026-04-10T11:36:17.999Z</time></trkpt><trkpt lat="45.71279948460184" lon="11.634015176782382"><ele>77.0</ele><time>2026-04-10T11:36:18.999Z</time></trkpt><trkpt lat="45.712581454877125" lon="11.633787342154188"><ele>77.0</ele><time>2026-04-10T11:36:19.999Z</time></trkpt><trkpt lat="45.71235357336624" lon="11.633548774132484"><ele>77.0</ele><time>2026-04-10T11:36:20.999Z</time></trkpt><trkpt lat="45.71211940229004" lon="11.633297471310364"><ele>77.0</ele><time>2026-04-10T11:36:21.999Z</time></trkpt><trkpt lat="45.71189836724989" lon="11.633041779564389"><ele>77.0</ele><time>2026-04-10T11:36:22.999Z</time></trkpt><trkpt lat="45.711695897408894" lon="11.632780081016564"><ele>77.0</ele><time>2026-04-10T11:36:23.999Z</time></trkpt><trkpt lat="45.71151447210344" lon="11.632499270338641"><ele>77.0</ele><time>2026-04-10T11:36:24.999Z</time></trkpt><trkpt lat="45.71134987668298" lon="11.632217613165466"><ele>76.0</ele><time>2026-04-10T11:36:25.999Z</time></trkpt><trkpt lat="45.711199427035936" lon="11.631923396249205"><ele>75.0</ele><time>2026-04-10T11:36:26.999Z</time></trkpt><trkpt lat="45.71106287781709" lon="11.631621686528574"><ele>74.0</ele><time>2026-04-10T11:36:27.999Z</time></trkpt><trkpt lat="45.71093875252008" lon="11.63131297136341"><ele>73.0</ele><time>2026-04-10T11:36:28.999Z</time></trkpt><trkpt lat="45.7108235709441" lon="11.630997490768468"><ele>73.0</ele><time>2026-04-10T11:36:29.999Z</time></trkpt><trkpt lat="45.71072515170017" lon="11.630679654849715"><ele>73.0</ele><time>2026-04-10T11:36:30.999Z</time></trkpt><trkpt lat="45.710635471293024" lon="11.630354113330524"><ele>74.5</ele><time>2026-04-10T11:36:31.999Z</time></trkpt><trkpt lat="45.71055329890873" lon="11.630023422116933"><ele>76.0</ele><time>2026-04-10T11:36:32.999Z</time></trkpt><trkpt lat="45.71047676399968" lon="11.629694181278222"><ele>77.0</ele><time>2026-04-10T11:36:33.999Z</time></trkpt><trkpt lat="45.710405739275615" lon="11.62937262893515"><ele>78.0</ele><time>2026-04-10T11:36:34.999Z</time></trkpt><trkpt lat="45.71033017989341" lon="11.629051500716736"><ele>78.0</ele><time>2026-04-10T11:36:35.999Z</time></trkpt><trkpt lat="45.71025294641221" lon="11.62872381169197"><ele>78.0</ele><time>2026-04-10T11:36:36.999Z</time></trkpt><trkpt lat="45.71017688353924" lon="11.628388842999806"><ele>78.0</ele><time>2026-04-10T11:36:37.999Z</time></trkpt><trkpt lat="45.710103872289324" lon="11.628045501704037"><ele>78.0</ele><time>2026-04-10T11:36:38.999Z</time></trkpt><trkpt lat="45.710027650290336" lon="11.627700363385756"><ele>78.0</ele><time>2026-04-10T11:36:39.999Z</time></trkpt><trkpt lat="45.709952112861366" lon="11.627351527125013"><ele>78.0</ele><time>2026-04-10T11:36:40.999Z</time></trkpt><trkpt lat="45.709875297749214" lon="11.62700246733928"><ele>78.0</ele><time>2026-04-10T11:36:41.999Z</time></trkpt><trkpt lat="45.709800049497574" lon="11.626655441843422"><ele>78.0</ele><time>2026-04-10T11:36:42.999Z</time></trkpt><trkpt lat="45.709726838773605" lon="11.62631086789157"><ele>78.0</ele><time>2026-04-10T11:36:43.999Z</time></trkpt><trkpt lat="45.709652713613174" lon="11.625956918584563"><ele>78.0</ele><time>2026-04-10T11:36:44.999Z</time></trkpt><trkpt lat="45.709586032474895" lon="11.625605478115066"><ele>77.5</ele><time>2026-04-10T11:36:45.999Z</time></trkpt><trkpt lat="45.70951835773394" lon="11.625249477609861"><ele>77.0</ele><time>2026-04-10T11:36:46.999Z</time></trkpt><trkpt lat="45.70946533951843" lon="11.624886948440235"><ele>77.0</ele><time>2026-04-10T11:36:47.999Z</time></trkpt><trkpt lat="45.70941165983136" lon="11.624519341100177"><ele>77.0</ele><time>2026-04-10T11:36:48.999Z</time></trkpt><trkpt lat="45.709354817396274" lon="11.624152010146519"><ele>77.5</ele><time>2026-04-10T11:36:49.999Z</time></trkpt><trkpt lat="45.70930173094047" lon="11.623787430565502"><ele>78.0</ele><time>2026-04-10T11:36:50.999Z</time></trkpt><trkpt lat="45.70924575694631" lon="11.623416689876557"><ele>78.0</ele><time>2026-04-10T11:36:51.999Z</time></trkpt><trkpt lat="45.70918699574629" lon="11.623039896920485"><ele>78.0</ele><time>2026-04-10T11:36:52.999Z</time></trkpt><trkpt lat="45.70913667218239" lon="11.622659170266395"><ele>78.0</ele><time>2026-04-10T11:36:53.999Z</time></trkpt><trkpt lat="45.70908137567349" lon="11.62228316557488"><ele>78.0</ele><time>2026-04-10T11:36:54.999Z</time></trkpt><trkpt lat="45.70902547598645" lon="11.621903837454278"><ele>78.0</ele><time>2026-04-10T11:36:55.999Z</time></trkpt><trkpt lat="45.7089649505378" lon="11.621524056592893"><ele>78.0</ele><time>2026-04-10T11:36:56.999Z</time></trkpt><trkpt lat="45.70890562369205" lon="11.621137431022815"><ele>78.5</ele><time>2026-04-10T11:36:57.999Z</time></trkpt><trkpt lat="45.70884971234738" lon="11.62075322327212"><ele>79.0</ele><time>2026-04-10T11:36:58.999Z</time></trkpt><trkpt lat="45.70878829802999" lon="11.62037065253124"><ele>78.5</ele><time>2026-04-10T11:36:59.999Z</time></trkpt><trkpt lat="45.708725998185606" lon="11.619985988388498"><ele>78.0</ele><time>2026-04-10T11:37:00.999Z</time></trkpt><trkpt lat="45.70865798366758" lon="11.619601198411237"><ele>78.0</ele><time>2026-04-10T11:37:01.999Z</time></trkpt><trkpt lat="45.70859180374654" lon="11.619216258130718"><ele>78.0</ele><time>2026-04-10T11:37:02.999Z</time></trkpt><trkpt lat="45.70852198880843" lon="11.618835128184852"><ele>77.5</ele><time>2026-04-10T11:37:03.999Z</time></trkpt><trkpt lat="45.70845095893268" lon="11.618454207666177"><ele>77.0</ele><time>2026-04-10T11:37:04.999Z</time></trkpt><trkpt lat="45.70837378216587" lon="11.618080812757773"><ele>76.5</ele><time>2026-04-10T11:37:05.999Z</time></trkpt><trkpt lat="45.70830056333563" lon="11.617709359640148"><ele>76.0</ele><time>2026-04-10T11:37:06.999Z</time></trkpt><trkpt lat="45.708227450357676" lon="11.617355287449652"><ele>76.0</ele><time>2026-04-10T11:37:07.999Z</time></trkpt><trkpt lat="45.708155602336525" lon="11.617028811452716"><ele>76.0</ele><time>2026-04-10T11:37:08.999Z</time></trkpt><trkpt lat="45.70809276756444" lon="11.616728877334562"><ele>75.66666666666666</ele><time>2026-04-10T11:37:09.999Z</time></trkpt><trkpt lat="45.70803114130853" lon="11.616428632394353"><ele>75.33333333333333</ele><time>2026-04-10T11:37:10.999Z</time></trkpt><trkpt lat="45.70796303253538" lon="11.616128016181634"><ele>75.0</ele><time>2026-04-10T11:37:11.999Z</time></trkpt><trkpt lat="45.70790771780412" lon="11.615830870024903"><ele>76.0</ele><time>2026-04-10T11:37:12.999Z</time></trkpt><trkpt lat="45.707854173723725" lon="11.615563149084341"><ele>77.0</ele><time>2026-04-10T11:37:13.999Z</time></trkpt><trkpt lat="45.70780231186227" lon="11.615328773800814"><ele>78.0</ele><time>2026-04-10T11:37:15Z</time></trkpt><trkpt lat="45.70774494984406" lon="11.615116649517175"><ele>78.0</ele><time>2026-04-10T11:37:16Z</time></trkpt><trkpt lat="45.707686474577436" lon="11.614910765583529"><ele>78.0</ele><time>2026-04-10T11:37:17Z</time></trkpt><trkpt lat="45.70761572455513" lon="11.614718903052704"><ele>78.0</ele><time>2026-04-10T11:37:18Z</time></trkpt><trkpt lat="45.70753992104609" lon="11.614548297295027"><ele>78.0</ele><time>2026-04-10T11:37:19Z</time></trkpt><trkpt lat="45.707461737456114" lon="11.614387861034757"><ele>78.0</ele><time>2026-04-10T11:37:20Z</time></trkpt><trkpt lat="45.707377906722506" lon="11.614236759875398"><ele>78.0</ele><time>2026-04-10T11:37:21Z</time></trkpt><trkpt lat="45.707301519156616" lon="11.614097197836173"><ele>78.0</ele><time>2026-04-10T11:37:22Z</time></trkpt><trkpt lat="45.707223326216955" lon="11.613974223287462"><ele>78.0</ele><time>2026-04-10T11:37:23Z</time></trkpt><trkpt lat="45.70715581028161" lon="11.61384396874367"><ele>78.0</ele><time>2026-04-10T11:37:24Z</time></trkpt><trkpt lat="45.70710228667861" lon="11.613719526459011"><ele>78.0</ele><time>2026-04-10T11:37:25Z</time></trkpt><trkpt lat="45.70706839114722" lon="11.61357697726644"><ele>78.0</ele><time>2026-04-10T11:37:26Z</time></trkpt><trkpt lat="45.707053628320004" lon="11.613428101408461"><ele>78.0</ele><time>2026-04-10T11:37:27Z</time></trkpt><trkpt lat="45.707045982756135" lon="11.613278012519348"><ele>78.0</ele><time>2026-04-10T11:37:28Z</time></trkpt><trkpt lat="45.707035202257" lon="11.613118722684876"><ele>78.0</ele><time>2026-04-10T11:37:29Z</time></trkpt><trkpt lat="45.707038094444684" lon="11.612956599033174"><ele>78.0</ele><time>2026-04-10T11:37:30Z</time></trkpt><trkpt lat="45.707065372015954" lon="11.61279864202466"><ele>78.0</ele><time>2026-04-10T11:37:31Z</time></trkpt><trkpt lat="45.707110583419485" lon="11.612644320209581"><ele>78.0</ele><time>2026-04-10T11:37:32Z</time></trkpt><trkpt lat="45.70715306581439" lon="11.61247873913359"><ele>77.75</ele><time>2026-04-10T11:37:33Z</time></trkpt><trkpt lat="45.707197335016055" lon="11.612296530638217"><ele>77.5</ele><time>2026-04-10T11:37:34Z</time></trkpt><trkpt lat="45.70724485938988" lon="11.612120550389921"><ele>77.25</ele><time>2026-04-10T11:37:35Z</time></trkpt><trkpt lat="45.70728835837225" lon="11.611944349954797"><ele>77.0</ele><time>2026-04-10T11:37:36Z</time></trkpt><trkpt lat="45.70733280968056" lon="11.611787189767698"><ele>76.66666666666667</ele><time>2026-04-10T11:37:37Z</time></trkpt><trkpt lat="45.70737234134182" lon="11.611510569723347"><ele>76.33333333333333</ele><time>2026-04-10T11:37:38Z</time></trkpt><trkpt lat="45.707357598629756" lon="11.611248920770242"><ele>76.0</ele><time>2026-04-10T11:37:39Z</time></trkpt><trkpt lat="45.70735813688259" lon="11.611021770516702"><ele>76.0</ele><time>2026-04-10T11:37:40Z</time></trkpt><trkpt lat="45.70735639886601" lon="11.610798898307692"><ele>76.0</ele><time>2026-04-10T11:37:41Z</time></trkpt><trkpt lat="45.70733563135641" lon="11.61057943852521"><ele>76.0</ele><time>2026-04-10T11:37:42Z</time></trkpt><trkpt lat="45.70729653285438" lon="11.610355916056845"><ele>76.0</ele><time>2026-04-10T11:37:43Z</time></trkpt><trkpt lat="45.70724150746794" lon="11.610123788191082"><ele>76.0</ele><time>2026-04-10T11:37:44Z</time></trkpt><trkpt lat="45.70717388563578" lon="11.609889041651272"><ele>76.0</ele><time>2026-04-10T11:37:45Z</time></trkpt><trkpt lat="45.70710233441849" lon="11.609667701258223"><ele>76.33333333333333</ele><time>2026-04-10T11:37:46Z</time></trkpt><trkpt lat="45.70702397951383" lon="11.609472051619841"><ele>76.66666666666667</ele><time>2026-04-10T11:37:47Z</time></trkpt><trkpt lat="45.706938302235514" lon="11.609281650010455"><ele>77.0</ele><time>2026-04-10T11:37:48Z</time></trkpt><trkpt lat="45.70684518527035" lon="11.60910855025364"><ele>77.33333333333334</ele><time>2026-04-10T11:37:49Z</time></trkpt><trkpt lat="45.706748492300676" lon="11.608943111686466"><ele>77.66666666666667</ele><time>2026-04-10T11:37:50Z</time></trkpt><trkpt lat="45.706644146808564" lon="11.608775911707411"><ele>78.0</ele><time>2026-04-10T11:37:51Z</time></trkpt><trkpt lat="45.706545624001" lon="11.608600143258668"><ele>79.0</ele><time>2026-04-10T11:37:52Z</time></trkpt><trkpt lat="45.706456606668226" lon="11.608411129623372"><ele>80.0</ele><time>2026-04-10T11:37:53Z</time></trkpt><trkpt lat="45.70638057918617" lon="11.60821506429992"><ele>81.0</ele><time>2026-04-10T11:37:54Z</time></trkpt><trkpt lat="45.70630842746619" lon="11.608016824030734"><ele>81.0</ele><time>2026-04-10T11:37:55Z</time></trkpt><trkpt lat="45.70624382862042" lon="11.607803989482608"><ele>81.0</ele><time>2026-04-10T11:37:56Z</time></trkpt><trkpt lat="45.70617619665379" lon="11.607577208347882"><ele>81.0</ele><time>2026-04-10T11:37:57Z</time></trkpt><trkpt lat="45.70610385831228" lon="11.607336851214294"><ele>80.33333333333333</ele><time>2026-04-10T11:37:58Z</time></trkpt><trkpt lat="45.706016667444814" lon="11.607082875850741"><ele>79.66666666666666</ele><time>2026-04-10T11:37:59Z</time></trkpt><trkpt lat="45.7059255455743" lon="11.606812362166645"><ele>79.0</ele><time>2026-04-10T11:38:00Z</time></trkpt><trkpt lat="45.70583045671389" lon="11.606524822127698"><ele>78.5</ele><time>2026-04-10T11:38:01Z</time></trkpt><trkpt lat="45.70574128015689" lon="11.606225530810935"><ele>78.0</ele><time>2026-04-10T11:38:02Z</time></trkpt><trkpt lat="45.70565586067131" lon="11.605913340670991"><ele>78.0</ele><time>2026-04-10T11:38:03Z</time></trkpt><trkpt lat="45.70556903549524" lon="11.605602538550151"><ele>78.0</ele><time>2026-04-10T11:38:04Z</time></trkpt><trkpt lat="45.705509045258204" lon="11.605273840417068"><ele>77.66666666666667</ele><time>2026-04-10T11:38:05Z</time></trkpt><trkpt lat="45.70541429684441" lon="11.604978610965295"><ele>77.33333333333334</ele><time>2026-04-10T11:38:06Z</time></trkpt><trkpt lat="45.70533970956795" lon="11.604689487386723"><ele>77.0</ele><time>2026-04-10T11:38:07Z</time></trkpt><trkpt lat="45.70526729225399" lon="11.604401390686862"><ele>77.33333333333334</ele><time>2026-04-10T11:38:08Z</time></trkpt><trkpt lat="45.705192935350645" lon="11.604131690283113"><ele>77.66666666666667</ele><time>2026-04-10T11:38:09Z</time></trkpt><trkpt lat="45.70511968668566" lon="11.603879757665586"><ele>78.0</ele><time>2026-04-10T11:38:10Z</time></trkpt><trkpt lat="45.7050398199677" lon="11.603639873071248"><ele>78.0</ele><time>2026-04-10T11:38:11Z</time></trkpt><trkpt lat="45.7049590631887" lon="11.60340699344877"><ele>78.0</ele><time>2026-04-10T11:38:12Z</time></trkpt><trkpt lat="45.70488152297296" lon="11.603189111040509"><ele>78.0</ele><time>2026-04-10T11:38:13Z</time></trkpt><trkpt lat="45.70481479892631" lon="11.602991365113377"><ele>77.8</ele><time>2026-04-10T11:38:14Z</time></trkpt><trkpt lat="45.70475812271657" lon="11.60281923519547"><ele>77.6</ele><time>2026-04-10T11:38:15Z</time></trkpt><trkpt lat="45.70471379716489" lon="11.602666394085304"><ele>77.4</ele><time>2026-04-10T11:38:16Z</time></trkpt><trkpt lat="45.70467348252264" lon="11.602526548403723"><ele>77.2</ele><time>2026-04-10T11:38:16.999Z</time></trkpt><trkpt lat="45.70463341581663" lon="11.60240523860547"><ele>77.0</ele><time>2026-04-10T11:38:17.999Z</time></trkpt><trkpt lat="45.70460739315407" lon="11.602302576457829"><ele>77.0</ele><time>2026-04-10T11:38:18.999Z</time></trkpt><trkpt lat="45.704567237068176" lon="11.602142026686945"><ele>77.0</ele><time>2026-04-10T11:38:20.999Z</time></trkpt><trkpt lat="45.704550792687314" lon="11.601975837991482"><ele>77.0</ele><time>2026-04-10T11:38:22.999Z</time></trkpt><trkpt lat="45.704571617241456" lon="11.601880194308395"><ele>77.0</ele><time>2026-04-10T11:38:23.999Z</time></trkpt><trkpt lat="45.704590884570656" lon="11.60179437138124"><ele>77.0</ele><time>2026-04-10T11:38:24.999Z</time></trkpt><trkpt lat="45.70458924542849" lon="11.601643383605019"><ele>77.0</ele><time>2026-04-10T11:38:26.999Z</time></trkpt><trkpt lat="45.70451717769011" lon="11.601506194639294"><ele>77.0</ele><time>2026-04-10T11:38:28.999Z</time></trkpt><trkpt lat="45.70445762359391" lon="11.601447164476259"><ele>77.0</ele><time>2026-04-10T11:38:29.999Z</time></trkpt><trkpt lat="45.70437805350601" lon="11.601386056689359"><ele>77.0</ele><time>2026-04-10T11:38:30.999Z</time></trkpt><trkpt lat="45.70430019517028" lon="11.601294102252"><ele>77.0</ele><time>2026-04-10T11:38:31.999Z</time></trkpt><trkpt lat="45.70423663453945" lon="11.601187980567131"><ele>77.0</ele><time>2026-04-10T11:38:32.999Z</time></trkpt><trkpt lat="45.70416461676206" lon="11.601075882211367"><ele>77.0</ele><time>2026-04-10T11:38:33.999Z</time></trkpt><trkpt lat="45.70408060380073" lon="11.600978111218268"><ele>77.0</ele><time>2026-04-10T11:38:34.999Z</time></trkpt><trkpt lat="45.703996298690626" lon="11.600882267515999"><ele>77.0</ele><time>2026-04-10T11:38:35.999Z</time></trkpt><trkpt lat="45.70390767682785" lon="11.600781492106105"><ele>77.0</ele><time>2026-04-10T11:38:36.999Z</time></trkpt><trkpt lat="45.703812686455" lon="11.600670026092144"><ele>77.0</ele><time>2026-04-10T11:38:37.999Z</time></trkpt><trkpt lat="45.70372207152513" lon="11.600545596625144"><ele>77.0</ele><time>2026-04-10T11:38:38.999Z</time></trkpt><trkpt lat="45.703646697201656" lon="11.60039723024702"><ele>77.0</ele><time>2026-04-10T11:38:39.999Z</time></trkpt><trkpt lat="45.70358326029248" lon="11.600229760538191"><ele>77.0</ele><time>2026-04-10T11:38:40.999Z</time></trkpt><trkpt lat="45.703526290538676" lon="11.600037525929041"><ele>77.0</ele><time>2026-04-10T11:38:41.999Z</time></trkpt><trkpt lat="45.703469719177235" lon="11.599822575004437"><ele>77.0</ele><time>2026-04-10T11:38:42.999Z</time></trkpt><trkpt lat="45.70337516368402" lon="11.599565772676318"><ele>77.0</ele><time>2026-04-10T11:38:43.999Z</time></trkpt><trkpt lat="45.70329478852772" lon="11.59922525819096"><ele>77.0</ele><time>2026-04-10T11:38:44.999Z</time></trkpt><trkpt lat="45.70318455096828" lon="11.598846113185372"><ele>77.0</ele><time>2026-04-10T11:38:45.999Z</time></trkpt><trkpt lat="45.703072945744964" lon="11.598508291497865"><ele>77.5</ele><time>2026-04-10T11:38:46.999Z</time></trkpt><trkpt lat="45.70297415933566" lon="11.598135375438835"><ele>78.0</ele><time>2026-04-10T11:38:47.999Z</time></trkpt><trkpt lat="45.70286468359197" lon="11.597745507817786"><ele>78.5</ele><time>2026-04-10T11:38:48.999Z</time></trkpt><trkpt lat="45.70274866692879" lon="11.597372713570708"><ele>79.0</ele><time>2026-04-10T11:38:49.999Z</time></trkpt><trkpt lat="45.70262973440242" lon="11.596983124299522"><ele>80.0</ele><time>2026-04-10T11:38:50.999Z</time></trkpt><trkpt lat="45.70251006717639" lon="11.596578210756856"><ele>81.0</ele><time>2026-04-10T11:38:51.999Z</time></trkpt><trkpt lat="45.70238972576984" lon="11.59618260045999"><ele>81.0</ele><time>2026-04-10T11:38:52.999Z</time></trkpt><trkpt lat="45.70226576310946" lon="11.5957981232527"><ele>81.0</ele><time>2026-04-10T11:38:53.999Z</time></trkpt><trkpt lat="45.70214482074605" lon="11.595409929013178"><ele>81.5</ele><time>2026-04-10T11:38:54.999Z</time></trkpt><trkpt lat="45.70203205251409" lon="11.595039215001082"><ele>82.0</ele><time>2026-04-10T11:38:55.999Z</time></trkpt><trkpt lat="45.701926148945994" lon="11.594668918084656"><ele>82.0</ele><time>2026-04-10T11:38:56.999Z</time></trkpt><trkpt lat="45.70181888650637" lon="11.594301221854648"><ele>82.0</ele><time>2026-04-10T11:38:57.999Z</time></trkpt><trkpt lat="45.70171592647891" lon="11.59394388165438"><ele>82.0</ele><time>2026-04-10T11:38:58.999Z</time></trkpt><trkpt lat="45.70161019281865" lon="11.593590055294676"><ele>82.0</ele><time>2026-04-10T11:38:59.999Z</time></trkpt><trkpt lat="45.7015040144546" lon="11.593226271975656"><ele>82.0</ele><time>2026-04-10T11:39:00.999Z</time></trkpt><trkpt lat="45.701396933715536" lon="11.592858801639618"><ele>82.0</ele><time>2026-04-10T11:39:01.999Z</time></trkpt><trkpt lat="45.70128960524305" lon="11.592496501923454"><ele>82.5</ele><time>2026-04-10T11:39:02.999Z</time></trkpt><trkpt lat="45.70119042843667" lon="11.592140205743922"><ele>83.0</ele><time>2026-04-10T11:39:03.999Z</time></trkpt><trkpt lat="45.70109347292" lon="11.591799501203393"><ele>83.5</ele><time>2026-04-10T11:39:04.999Z</time></trkpt><trkpt lat="45.70099940118645" lon="11.59148035332547"><ele>84.0</ele><time>2026-04-10T11:39:05.999Z</time></trkpt><trkpt lat="45.70091257152669" lon="11.591188535488437"><ele>84.0</ele><time>2026-04-10T11:39:06.999Z</time></trkpt><trkpt lat="45.700830888790044" lon="11.590905489070828"><ele>84.0</ele><time>2026-04-10T11:39:07.999Z</time></trkpt><trkpt lat="45.700752416780176" lon="11.590638152889904"><ele>84.0</ele><time>2026-04-10T11:39:08.999Z</time></trkpt><trkpt lat="45.700682183971516" lon="11.590383525201103"><ele>84.0</ele><time>2026-04-10T11:39:09.999Z</time></trkpt><trkpt lat="45.700606724874504" lon="11.590133991397705"><ele>84.0</ele><time>2026-04-10T11:39:10.999Z</time></trkpt><trkpt lat="45.7005313302116" lon="11.589871149014108"><ele>84.0</ele><time>2026-04-10T11:39:11.999Z</time></trkpt><trkpt lat="45.70044950746025" lon="11.58958943499692"><ele>85.0</ele><time>2026-04-10T11:39:12.999Z</time></trkpt><trkpt lat="45.700365698763136" lon="11.589302387363553"><ele>86.0</ele><time>2026-04-10T11:39:13.999Z</time></trkpt><trkpt lat="45.700286331667385" lon="11.589029822023193"><ele>87.0</ele><time>2026-04-10T11:39:14.999Z</time></trkpt><trkpt lat="45.70020876530391" lon="11.588757862859127"><ele>87.33333333333333</ele><time>2026-04-10T11:39:15.999Z</time></trkpt><trkpt lat="45.70013517253728" lon="11.588489885724222"><ele>87.66666666666666</ele><time>2026-04-10T11:39:16.999Z</time></trkpt><trkpt lat="45.70005972835267" lon="11.58822647946996"><ele>88.0</ele><time>2026-04-10T11:39:17.999Z</time></trkpt><trkpt lat="45.6999905609318" lon="11.587983945189947"><ele>88.33333333333333</ele><time>2026-04-10T11:39:18.999Z</time></trkpt><trkpt lat="45.69991984259326" lon="11.587737214517121"><ele>88.66666666666667</ele><time>2026-04-10T11:39:20Z</time></trkpt><trkpt lat="45.69985626478645" lon="11.587493771641467"><ele>89.0</ele><time>2026-04-10T11:39:21Z</time></trkpt><trkpt lat="45.699797115739955" lon="11.587256487805142"><ele>89.0</ele><time>2026-04-10T11:39:22Z</time></trkpt><trkpt lat="45.699730633136355" lon="11.587014999143365"><ele>89.0</ele><time>2026-04-10T11:39:23Z</time></trkpt><trkpt lat="45.69966731475806" lon="11.586762094992093"><ele>89.0</ele><time>2026-04-10T11:39:24Z</time></trkpt><trkpt lat="45.699589017646346" lon="11.586490502056"><ele>89.5</ele><time>2026-04-10T11:39:25Z</time></trkpt><trkpt lat="45.699492604119094" lon="11.586194083692765"><ele>90.0</ele><time>2026-04-10T11:39:26Z</time></trkpt><trkpt lat="45.69939149025431" lon="11.585863711557675"><ele>90.0</ele><time>2026-04-10T11:39:27Z</time></trkpt><trkpt lat="45.69928980310785" lon="11.585515849012733"><ele>90.0</ele><time>2026-04-10T11:39:28Z</time></trkpt><trkpt lat="45.69918204702239" lon="11.585141527648714"><ele>90.0</ele><time>2026-04-10T11:39:29Z</time></trkpt><trkpt lat="45.699076995709255" lon="11.584775971052755"><ele>90.0</ele><time>2026-04-10T11:39:30Z</time></trkpt><trkpt lat="45.6989811351622" lon="11.584405533589326"><ele>90.5</ele><time>2026-04-10T11:39:31Z</time></trkpt><trkpt lat="45.698886174922315" lon="11.584046969302786"><ele>91.0</ele><time>2026-04-10T11:39:32Z</time></trkpt><trkpt lat="45.69879038070214" lon="11.583685789623173"><ele>91.0</ele><time>2026-04-10T11:39:33Z</time></trkpt><trkpt lat="45.69869188005108" lon="11.583324932532262"><ele>91.0</ele><time>2026-04-10T11:39:34Z</time></trkpt><trkpt lat="45.69859457435966" lon="11.58295720264822"><ele>91.5</ele><time>2026-04-10T11:39:35Z</time></trkpt><trkpt lat="45.69849302876208" lon="11.582598120426557"><ele>92.0</ele><time>2026-04-10T11:39:36Z</time></trkpt><trkpt lat="45.698397943473566" lon="11.582242495449995"><ele>92.5</ele><time>2026-04-10T11:39:37Z</time></trkpt><trkpt lat="45.69831160588891" lon="11.58190795807715"><ele>93.0</ele><time>2026-04-10T11:39:38Z</time></trkpt><trkpt lat="45.698141716468484" lon="11.581271059695094"><ele>93.33333333333333</ele><time>2026-04-10T11:39:40Z</time></trkpt><trkpt lat="45.698062927460406" lon="11.58097450449481"><ele>93.66666666666666</ele><time>2026-04-10T11:39:41Z</time></trkpt><trkpt lat="45.697992159595785" lon="11.58070270846978"><ele>94.0</ele><time>2026-04-10T11:39:42Z</time></trkpt><trkpt lat="45.697923329462974" lon="11.580457463536472"><ele>93.66666666666666</ele><time>2026-04-10T11:39:43Z</time></trkpt><trkpt lat="45.69785432205163" lon="11.580223225001621"><ele>93.33333333333333</ele><time>2026-04-10T11:39:44Z</time></trkpt><trkpt lat="45.69776901525049" lon="11.580014049120804"><ele>93.0</ele><time>2026-04-10T11:39:45Z</time></trkpt><trkpt lat="45.69765945699747" lon="11.579817264740125"><ele>93.66666666666667</ele><time>2026-04-10T11:39:46Z</time></trkpt><trkpt lat="45.697569467905446" lon="11.57960933426569"><ele>94.33333333333334</ele><time>2026-04-10T11:39:47Z</time></trkpt><trkpt lat="45.69749845955573" lon="11.579384261903382"><ele>95.0</ele><time>2026-04-10T11:39:48Z</time></trkpt><trkpt lat="45.69745447534741" lon="11.579155683582535"><ele>95.0</ele><time>2026-04-10T11:39:49Z</time></trkpt><trkpt lat="45.69742027101419" lon="11.578951118304863"><ele>95.0</ele><time>2026-04-10T11:39:50Z</time></trkpt><trkpt lat="45.69738159539341" lon="11.578779244080213"><ele>95.0</ele><time>2026-04-10T11:39:51Z</time></trkpt><trkpt lat="45.69733571060984" lon="11.578648594852762"><ele>95.0</ele><time>2026-04-10T11:39:52Z</time></trkpt><trkpt lat="45.69731170768209" lon="11.578507012442364"><ele>94.8</ele><time>2026-04-10T11:39:53Z</time></trkpt><trkpt lat="45.69732973590611" lon="11.578365447230556"><ele>94.6</ele><time>2026-04-10T11:39:54Z</time></trkpt><trkpt lat="45.69734219326916" lon="11.578234273966773"><ele>94.4</ele><time>2026-04-10T11:39:55Z</time></trkpt><trkpt lat="45.69730217098646" lon="11.578127959856472"><ele>94.2</ele><time>2026-04-10T11:39:56Z</time></trkpt><trkpt lat="45.69721450914096" lon="11.578045444728343"><ele>94.0</ele><time>2026-04-10T11:39:57Z</time></trkpt><trkpt lat="45.69710407018687" lon="11.578022685687491"><ele>94.0</ele><time>2026-04-10T11:39:58Z</time></trkpt><trkpt lat="45.69699012683892" lon="11.578056939293715"><ele>94.0</ele><time>2026-04-10T11:39:59Z</time></trkpt><trkpt lat="45.69688075071209" lon="11.578112096183446"><ele>94.0</ele><time>2026-04-10T11:40:00Z</time></trkpt><trkpt lat="45.696771959533365" lon="11.578083318981845"><ele>94.0</ele><time>2026-04-10T11:40:01Z</time></trkpt><trkpt lat="45.69666692782497" lon="11.577997740265445"><ele>93.5</ele><time>2026-04-10T11:40:02Z</time></trkpt><trkpt lat="45.69657214744017" lon="11.577863832828397"><ele>93.0</ele><time>2026-04-10T11:40:03Z</time></trkpt><trkpt lat="45.696514047353844" lon="11.577692038612906"><ele>92.5</ele><time>2026-04-10T11:40:04Z</time></trkpt><trkpt lat="45.6964952308533" lon="11.577494138787745"><ele>92.0</ele><time>2026-04-10T11:40:05Z</time></trkpt><trkpt lat="45.69648315575235" lon="11.57726780052365"><ele>92.33333333333334</ele><time>2026-04-10T11:40:06Z</time></trkpt><trkpt lat="45.69643076334395" lon="11.577000048602192"><ele>92.66666666666667</ele><time>2026-04-10T11:40:07Z</time></trkpt><trkpt lat="45.69637750635512" lon="11.576697418329868"><ele>93.0</ele><time>2026-04-10T11:40:08Z</time></trkpt><trkpt lat="45.696336079260014" lon="11.576380296334811"><ele>93.5</ele><time>2026-04-10T11:40:09Z</time></trkpt><trkpt lat="45.696298996236756" lon="11.576068650871356"><ele>94.0</ele><time>2026-04-10T11:40:10Z</time></trkpt><trkpt lat="45.69625170780771" lon="11.575741866113352"><ele>94.0</ele><time>2026-04-10T11:40:11Z</time></trkpt><trkpt lat="45.69620101156265" lon="11.575413135933767"><ele>94.0</ele><time>2026-04-10T11:40:12Z</time></trkpt><trkpt lat="45.696150029498824" lon="11.575091413420948"><ele>93.5</ele><time>2026-04-10T11:40:13Z</time></trkpt><trkpt lat="45.69609429699163" lon="11.574765628339756"><ele>93.0</ele><time>2026-04-10T11:40:14Z</time></trkpt><trkpt lat="45.696038990047676" lon="11.57443952124281"><ele>93.0</ele><time>2026-04-10T11:40:15Z</time></trkpt><trkpt lat="45.69599537989335" lon="11.57411695697616"><ele>93.0</ele><time>2026-04-10T11:40:16Z</time></trkpt><trkpt lat="45.69595627432638" lon="11.573799271460699"><ele>93.33333333333333</ele><time>2026-04-10T11:40:17Z</time></trkpt><trkpt lat="45.69591824820789" lon="11.573478073411673"><ele>93.66666666666666</ele><time>2026-04-10T11:40:18Z</time></trkpt><trkpt lat="45.695886142575645" lon="11.573174829315462"><ele>94.0</ele><time>2026-04-10T11:40:19Z</time></trkpt><trkpt lat="45.69585400948976" lon="11.572898920507154"><ele>94.33333333333333</ele><time>2026-04-10T11:40:20Z</time></trkpt><trkpt lat="45.69582250898423" lon="11.572622712376102"><ele>94.66666666666667</ele><time>2026-04-10T11:40:21Z</time></trkpt><trkpt lat="45.69578920513048" lon="11.572337318091053"><ele>95.0</ele><time>2026-04-10T11:40:22Z</time></trkpt><trkpt lat="45.695762032053715" lon="11.572058740303444"><ele>95.0</ele><time>2026-04-10T11:40:23Z</time></trkpt><trkpt lat="45.69573311737828" lon="11.571776176665166"><ele>95.0</ele><time>2026-04-10T11:40:24Z</time></trkpt><trkpt lat="45.69570374885263" lon="11.571483320487575"><ele>95.0</ele><time>2026-04-10T11:40:25Z</time></trkpt><trkpt lat="45.69567203580212" lon="11.571190615754393"><ele>95.0</ele><time>2026-04-10T11:40:26Z</time></trkpt><trkpt lat="45.69564557586662" lon="11.57089313123728"><ele>95.0</ele><time>2026-04-10T11:40:27Z</time></trkpt><trkpt lat="45.69562141556399" lon="11.570612099356794"><ele>95.0</ele><time>2026-04-10T11:40:28Z</time></trkpt><trkpt lat="45.69560078603943" lon="11.570372319207452"><ele>95.25</ele><time>2026-04-10T11:40:29Z</time></trkpt><trkpt lat="45.69558044305677" lon="11.570160858386796"><ele>95.5</ele><time>2026-04-10T11:40:30Z</time></trkpt><trkpt lat="45.6955467526259" lon="11.569958639180786"><ele>95.75</ele><time>2026-04-10T11:40:31Z</time></trkpt><trkpt lat="45.6954903563385" lon="11.569776802132205"><ele>96.0</ele><time>2026-04-10T11:40:32Z</time></trkpt><trkpt lat="45.69541746082726" lon="11.569618377704058"><ele>96.0</ele><time>2026-04-10T11:40:33Z</time></trkpt><trkpt lat="45.69533230508558" lon="11.569476779349044"><ele>96.0</ele><time>2026-04-10T11:40:34Z</time></trkpt><trkpt lat="45.69521345654085" lon="11.569332594632236"><ele>96.0</ele><time>2026-04-10T11:40:35Z</time></trkpt><trkpt lat="45.695057860947664" lon="11.56919120505056"><ele>95.66666666666667</ele><time>2026-04-10T11:40:36Z</time></trkpt><trkpt lat="45.69488015422886" lon="11.569062395885949"><ele>95.33333333333334</ele><time>2026-04-10T11:40:37Z</time></trkpt><trkpt lat="45.69469050659252" lon="11.568935223797125"><ele>95.0</ele><time>2026-04-10T11:40:37.999Z</time></trkpt><trkpt lat="45.694498692488594" lon="11.568815055312545"><ele>95.0</ele><time>2026-04-10T11:40:38.999Z</time></trkpt><trkpt lat="45.69432368765825" lon="11.56868388462683"><ele>95.0</ele><time>2026-04-10T11:40:39.999Z</time></trkpt><trkpt lat="45.694171451406746" lon="11.568523047405453"><ele>95.0</ele><time>2026-04-10T11:40:40.999Z</time></trkpt><trkpt lat="45.69405632064084" lon="11.568335474584021"><ele>95.0</ele><time>2026-04-10T11:40:41.999Z</time></trkpt><trkpt lat="45.69396405414261" lon="11.568110818157455"><ele>95.0</ele><time>2026-04-10T11:40:42.999Z</time></trkpt><trkpt lat="45.69389880066218" lon="11.567867500942715"><ele>95.0</ele><time>2026-04-10T11:40:43.999Z</time></trkpt><trkpt lat="45.693861887402974" lon="11.567597170885842"><ele>95.33333333333334</ele><time>2026-04-10T11:40:44.999Z</time></trkpt><trkpt lat="45.69384682916725" lon="11.567314581371212"><ele>95.66666666666667</ele><time>2026-04-10T11:40:45.999Z</time></trkpt><trkpt lat="45.69384642902859" lon="11.567029648963032"><ele>96.0</ele><time>2026-04-10T11:40:46.999Z</time></trkpt><trkpt lat="45.693859296617994" lon="11.566772641640874"><ele>96.33333333333334</ele><time>2026-04-10T11:40:47.999Z</time></trkpt><trkpt lat="45.6938603145461" lon="11.56655002303988"><ele>96.66666666666667</ele><time>2026-04-10T11:40:48.999Z</time></trkpt><trkpt lat="45.69385210773996" lon="11.56634024349643"><ele>97.0</ele><time>2026-04-10T11:40:49.999Z</time></trkpt><trkpt lat="45.69384358060759" lon="11.566129181666811"><ele>97.5</ele><time>2026-04-10T11:40:50.999Z</time></trkpt><trkpt lat="45.693839025768966" lon="11.565914977274254"><ele>98.0</ele><time>2026-04-10T11:40:51.999Z</time></trkpt><trkpt lat="45.69383689510509" lon="11.565714195574682"><ele>98.5</ele><time>2026-04-10T11:40:52.999Z</time></trkpt><trkpt lat="45.69383317678736" lon="11.565532073817756"><ele>99.0</ele><time>2026-04-10T11:40:53.999Z</time></trkpt><trkpt lat="45.69382827359739" lon="11.565353687032259"><ele>99.25</ele><time>2026-04-10T11:40:54.999Z</time></trkpt><trkpt lat="45.69382154895302" lon="11.565168790157815"><ele>99.5</ele><time>2026-04-10T11:40:55.999Z</time></trkpt><trkpt lat="45.693808498401665" lon="11.564976749698275"><ele>99.75</ele><time>2026-04-10T11:40:56.999Z</time></trkpt><trkpt lat="45.693780970177656" lon="11.564787041376649"><ele>100.0</ele><time>2026-04-10T11:40:57.999Z</time></trkpt><trkpt lat="45.69373871946516" lon="11.564602173881768"><ele>99.8</ele><time>2026-04-10T11:40:58.999Z</time></trkpt><trkpt lat="45.69368663008136" lon="11.564443299188534"><ele>99.6</ele><time>2026-04-10T11:40:59.999Z</time></trkpt><trkpt lat="45.69363871295902" lon="11.564297909580148"><ele>99.4</ele><time>2026-04-10T11:41:00.999Z</time></trkpt><trkpt lat="45.693596752943186" lon="11.564181155459355"><ele>99.2</ele><time>2026-04-10T11:41:01.999Z</time></trkpt><trkpt lat="45.693568068567025" lon="11.564071498232478"><ele>99.0</ele><time>2026-04-10T11:41:02.999Z</time></trkpt><trkpt lat="45.693542692231745" lon="11.563986449418923"><ele>99.0</ele><time>2026-04-10T11:41:03.999Z</time></trkpt><trkpt lat="45.69350314451782" lon="11.563822226657038"><ele>99.0</ele><time>2026-04-10T11:41:05.999Z</time></trkpt><trkpt lat="45.69362447946245" lon="11.563612385309945"><ele>99.0</ele><time>2026-04-10T11:41:07.999Z</time></trkpt><trkpt lat="45.69367390515613" lon="11.56350554855829"><ele>99.0</ele><time>2026-04-10T11:41:08.999Z</time></trkpt><trkpt lat="45.6937008623671" lon="11.563405747102676"><ele>99.0</ele><time>2026-04-10T11:41:09.999Z</time></trkpt><trkpt lat="45.693708456681065" lon="11.563276985401398"><ele>99.0</ele><time>2026-04-10T11:41:10.999Z</time></trkpt><trkpt lat="45.69368747766625" lon="11.563140670185856"><ele>99.0</ele><time>2026-04-10T11:41:11.999Z</time></trkpt><trkpt lat="45.69362912933915" lon="11.5630455669774"><ele>99.0</ele><time>2026-04-10T11:41:12.999Z</time></trkpt><trkpt lat="45.69357199455258" lon="11.562959740567496"><ele>99.0</ele><time>2026-04-10T11:41:13.999Z</time></trkpt><trkpt lat="45.693585178992734" lon="11.562727963435908"><ele>99.0</ele><time>2026-04-10T11:41:14.999Z</time></trkpt><trkpt lat="45.693615467317166" lon="11.562525795379496"><ele>99.0</ele><time>2026-04-10T11:41:15.999Z</time></trkpt><trkpt lat="45.693653738320116" lon="11.562331082356023"><ele>99.0</ele><time>2026-04-10T11:41:16.999Z</time></trkpt><trkpt lat="45.693688318425764" lon="11.562143778894768"><ele>99.0</ele><time>2026-04-10T11:41:17.999Z</time></trkpt><trkpt lat="45.69372797583851" lon="11.561973058473416"><ele>98.75</ele><time>2026-04-10T11:41:18.999Z</time></trkpt><trkpt lat="45.69377111507503" lon="11.561796528666077"><ele>98.5</ele><time>2026-04-10T11:41:19.999Z</time></trkpt><trkpt lat="45.69381544490205" lon="11.561614047122248"><ele>98.25</ele><time>2026-04-10T11:41:20.999Z</time></trkpt><trkpt lat="45.69386551687861" lon="11.56143396005815"><ele>98.0</ele><time>2026-04-10T11:41:21.999Z</time></trkpt><trkpt lat="45.69391156002973" lon="11.561265518673585"><ele>98.0</ele><time>2026-04-10T11:41:22.999Z</time></trkpt><trkpt lat="45.69395851800356" lon="11.561108410145868"><ele>98.0</ele><time>2026-04-10T11:41:23.999Z</time></trkpt><trkpt lat="45.69401250479204" lon="11.560962730539316"><ele>98.0</ele><time>2026-04-10T11:41:24.999Z</time></trkpt><trkpt lat="45.69407525652044" lon="11.560818798421847"><ele>98.0</ele><time>2026-04-10T11:41:26.001Z</time></trkpt><trkpt lat="45.69414964257956" lon="11.560674934957879"><ele>98.0</ele><time>2026-04-10T11:41:27.001Z</time></trkpt><trkpt lat="45.69423391513146" lon="11.560525277063286"><ele>98.0</ele><time>2026-04-10T11:41:28.001Z</time></trkpt><trkpt lat="45.694329425715104" lon="11.560368941184864"><ele>98.0</ele><time>2026-04-10T11:41:29.001Z</time></trkpt><trkpt lat="45.69443548326806" lon="11.560214437727304"><ele>98.0</ele><time>2026-04-10T11:41:30.001Z</time></trkpt><trkpt lat="45.69454645982484" lon="11.560083419975511"><ele>98.5</ele><time>2026-04-10T11:41:31.001Z</time></trkpt><trkpt lat="45.69465806486712" lon="11.559961530687652"><ele>99.0</ele><time>2026-04-10T11:41:32.001Z</time></trkpt><trkpt lat="45.69476556218147" lon="11.559829072413823"><ele>99.5</ele><time>2026-04-10T11:41:33.001Z</time></trkpt><trkpt lat="45.694864374479" lon="11.559677015969982"><ele>100.0</ele><time>2026-04-10T11:41:34.001Z</time></trkpt><trkpt lat="45.69495245489683" lon="11.559490783457097"><ele>100.0</ele><time>2026-04-10T11:41:35.001Z</time></trkpt><trkpt lat="45.69503079107797" lon="11.559298067329987"><ele>100.0</ele><time>2026-04-10T11:41:36.001Z</time></trkpt><trkpt lat="45.69509784040684" lon="11.559099834829592"><ele>100.0</ele><time>2026-04-10T11:41:37.001Z</time></trkpt><trkpt lat="45.695133605175215" lon="11.558888854146671"><ele>100.75</ele><time>2026-04-10T11:41:38.001Z</time></trkpt><trkpt lat="45.69517605159257" lon="11.558685854310959"><ele>101.5</ele><time>2026-04-10T11:41:39.001Z</time></trkpt><trkpt lat="45.69520363435019" lon="11.558485193556313"><ele>102.25</ele><time>2026-04-10T11:41:40Z</time></trkpt><trkpt lat="45.6952204121697" lon="11.558281011021998"><ele>103.0</ele><time>2026-04-10T11:41:41Z</time></trkpt><trkpt lat="45.69522538919667" lon="11.558066327334046"><ele>103.0</ele><time>2026-04-10T11:41:42Z</time></trkpt><trkpt lat="45.695223569775806" lon="11.557841651386925"><ele>103.0</ele><time>2026-04-10T11:41:43Z</time></trkpt><trkpt lat="45.69522760079727" lon="11.557627128845201"><ele>103.0</ele><time>2026-04-10T11:41:44Z</time></trkpt><trkpt lat="45.69520741017767" lon="11.557430742211595"><ele>103.0</ele><time>2026-04-10T11:41:45Z</time></trkpt><trkpt lat="45.69519421387859" lon="11.557214417419166"><ele>102.33333333333334</ele><time>2026-04-10T11:41:46Z</time></trkpt><trkpt lat="45.69517646191618" lon="11.55696501805891"><ele>101.66666666666666</ele><time>2026-04-10T11:41:47Z</time></trkpt><trkpt lat="45.695158863452875" lon="11.556696118158829"><ele>101.0</ele><time>2026-04-10T11:41:48Z</time></trkpt><trkpt lat="45.695147357345256" lon="11.556429013836233"><ele>101.33333333333333</ele><time>2026-04-10T11:41:49Z</time></trkpt><trkpt lat="45.69513367076166" lon="11.556165474839636"><ele>101.66666666666666</ele><time>2026-04-10T11:41:50Z</time></trkpt><trkpt lat="45.69512336294764" lon="11.555919926875603"><ele>102.0</ele><time>2026-04-10T11:41:51Z</time></trkpt><trkpt lat="45.69511014199929" lon="11.55566670687871"><ele>102.0</ele><time>2026-04-10T11:41:52Z</time></trkpt><trkpt lat="45.69509538430139" lon="11.555408265747186"><ele>102.0</ele><time>2026-04-10T11:41:53Z</time></trkpt><trkpt lat="45.69508343643579" lon="11.555156965012532"><ele>102.0</ele><time>2026-04-10T11:41:54Z</time></trkpt><trkpt lat="45.69506838627309" lon="11.55490833312218"><ele>102.0</ele><time>2026-04-10T11:41:55Z</time></trkpt><trkpt lat="45.69505005193572" lon="11.554651688052319"><ele>102.0</ele><time>2026-04-10T11:41:56Z</time></trkpt><trkpt lat="45.69502866844526" lon="11.554394033744295"><ele>102.0</ele><time>2026-04-10T11:41:57Z</time></trkpt><trkpt lat="45.69498354830347" lon="11.55414882709152"><ele>101.33333333333334</ele><time>2026-04-10T11:41:58Z</time></trkpt><trkpt lat="45.6949496523966" lon="11.553920238757286"><ele>100.66666666666667</ele><time>2026-04-10T11:41:59Z</time></trkpt><trkpt lat="45.694914189879796" lon="11.553697575332517"><ele>100.0</ele><time>2026-04-10T11:42:00Z</time></trkpt><trkpt lat="45.69488647717463" lon="11.553466767652525"><ele>100.0</ele><time>2026-04-10T11:42:01Z</time></trkpt><trkpt lat="45.69484937223092" lon="11.553243616663625"><ele>100.0</ele><time>2026-04-10T11:42:02Z</time></trkpt><trkpt lat="45.694802637234446" lon="11.553041612099847"><ele>100.0</ele><time>2026-04-10T11:42:03Z</time></trkpt><trkpt lat="45.69479931839556" lon="11.552847586104848"><ele>100.0</ele><time>2026-04-10T11:42:04Z</time></trkpt><trkpt lat="45.69479391013346" lon="11.552691128445442"><ele>100.2</ele><time>2026-04-10T11:42:05Z</time></trkpt><trkpt lat="45.69480268000719" lon="11.552553282313815"><ele>100.4</ele><time>2026-04-10T11:42:06Z</time></trkpt><trkpt lat="45.69482882159557" lon="11.55243006636322"><ele>100.6</ele><time>2026-04-10T11:42:07Z</time></trkpt><trkpt lat="45.69489200290797" lon="11.552317039443786"><ele>100.8</ele><time>2026-04-10T11:42:08Z</time></trkpt><trkpt lat="45.69489258887852" lon="11.552213840886541"><ele>101.0</ele><time>2026-04-10T11:42:09Z</time></trkpt><trkpt lat="45.69489591560097" lon="11.552027129697416"><ele>101.25</ele><time>2026-04-10T11:42:11Z</time></trkpt><trkpt lat="45.69488442399453" lon="11.551860789242975"><ele>101.5</ele><time>2026-04-10T11:42:12Z</time></trkpt><trkpt lat="45.69486344113762" lon="11.551645668909357"><ele>101.75</ele><time>2026-04-10T11:42:13Z</time></trkpt><trkpt lat="45.69483316054636" lon="11.551401576600298"><ele>102.0</ele><time>2026-04-10T11:42:14Z</time></trkpt><trkpt lat="45.694802679614895" lon="11.5511238726894"><ele>101.33333333333334</ele><time>2026-04-10T11:42:15Z</time></trkpt><trkpt lat="45.694774264285975" lon="11.550829856599757"><ele>100.66666666666667</ele><time>2026-04-10T11:42:16Z</time></trkpt><trkpt lat="45.694744329227134" lon="11.550537707533001"><ele>100.0</ele><time>2026-04-10T11:42:17Z</time></trkpt><trkpt lat="45.69470900208146" lon="11.5502245578017"><ele>98.66666666666667</ele><time>2026-04-10T11:42:18Z</time></trkpt><trkpt lat="45.69466533305228" lon="11.54991344949488"><ele>97.33333333333334</ele><time>2026-04-10T11:42:19Z</time></trkpt><trkpt lat="45.6946289151174" lon="11.549597512842668"><ele>96.0</ele><time>2026-04-10T11:42:20Z</time></trkpt><trkpt lat="45.69459599101763" lon="11.549304438181736"><ele>95.66666666666667</ele><time>2026-04-10T11:42:21Z</time></trkpt><trkpt lat="45.69456229851585" lon="11.54901222865376"><ele>95.33333333333334</ele><time>2026-04-10T11:42:22Z</time></trkpt><trkpt lat="45.69452590741055" lon="11.54869704774504"><ele>95.0</ele><time>2026-04-10T11:42:23Z</time></trkpt><trkpt lat="45.6944861693814" lon="11.54838241891258"><ele>98.0</ele><time>2026-04-10T11:42:24Z</time></trkpt><trkpt lat="45.694452025000004" lon="11.548057956071466"><ele>101.0</ele><time>2026-04-10T11:42:25Z</time></trkpt><trkpt lat="45.69441729214768" lon="11.547736995362428"><ele>101.5</ele><time>2026-04-10T11:42:26Z</time></trkpt><trkpt lat="45.69438206692001" lon="11.547410063989627"><ele>102.0</ele><time>2026-04-10T11:42:27Z</time></trkpt><trkpt lat="45.69434404030535" lon="11.547072824349828"><ele>101.5</ele><time>2026-04-10T11:42:28Z</time></trkpt><trkpt lat="45.6943057975939" lon="11.546737534144055"><ele>101.0</ele><time>2026-04-10T11:42:29Z</time></trkpt><trkpt lat="45.69426771842319" lon="11.546399914727045"><ele>102.5</ele><time>2026-04-10T11:42:30Z</time></trkpt><trkpt lat="45.69422805736074" lon="11.546064242740455"><ele>104.0</ele><time>2026-04-10T11:42:31Z</time></trkpt><trkpt lat="45.69417858643585" lon="11.54572679147019"><ele>104.0</ele><time>2026-04-10T11:42:32Z</time></trkpt><trkpt lat="45.69413862946114" lon="11.54539087039988"><ele>104.0</ele><time>2026-04-10T11:42:33Z</time></trkpt><trkpt lat="45.694100971090606" lon="11.545050349711213"><ele>104.0</ele><time>2026-04-10T11:42:34Z</time></trkpt><trkpt lat="45.69406603593006" lon="11.54471802330654"><ele>104.0</ele><time>2026-04-10T11:42:35Z</time></trkpt><trkpt lat="45.6940306323269" lon="11.544377684986507"><ele>103.33333333333333</ele><time>2026-04-10T11:42:36Z</time></trkpt><trkpt lat="45.693992346167775" lon="11.544049536496093"><ele>102.66666666666666</ele><time>2026-04-10T11:42:37Z</time></trkpt><trkpt lat="45.69395895627117" lon="11.543757055764917"><ele>102.0</ele><time>2026-04-10T11:42:38Z</time></trkpt><trkpt lat="45.693927776967854" lon="11.543479277374345"><ele>102.0</ele><time>2026-04-10T11:42:39Z</time></trkpt><trkpt lat="45.693897378181845" lon="11.543217142205918"><ele>102.0</ele><time>2026-04-10T11:42:40Z</time></trkpt><trkpt lat="45.693867927726814" lon="11.54297206125853"><ele>102.0</ele><time>2026-04-10T11:42:41Z</time></trkpt><trkpt lat="45.69384158831506" lon="11.542746638745482"><ele>102.33333333333334</ele><time>2026-04-10T11:42:42Z</time></trkpt><trkpt lat="45.69381203356128" lon="11.54251733875369"><ele>102.66666666666667</ele><time>2026-04-10T11:42:43Z</time></trkpt><trkpt lat="45.69378103815376" lon="11.542280737542168"><ele>103.0</ele><time>2026-04-10T11:42:44Z</time></trkpt><trkpt lat="45.69374166999034" lon="11.542031309963106"><ele>103.66666666666667</ele><time>2026-04-10T11:42:45Z</time></trkpt><trkpt lat="45.69369452770701" lon="11.541799392317513"><ele>104.33333333333334</ele><time>2026-04-10T11:42:46Z</time></trkpt><trkpt lat="45.69364800418649" lon="11.54158364572335"><ele>105.0</ele><time>2026-04-10T11:42:47Z</time></trkpt><trkpt lat="45.693597608600236" lon="11.541336667183515"><ele>104.66666666666666</ele><time>2026-04-10T11:42:48Z</time></trkpt><trkpt lat="45.693532019484586" lon="11.54107265823148"><ele>104.33333333333333</ele><time>2026-04-10T11:42:49Z</time></trkpt><trkpt lat="45.69346151836157" lon="11.54078480491161"><ele>104.0</ele><time>2026-04-10T11:42:50Z</time></trkpt><trkpt lat="45.69338775400088" lon="11.540493406354495"><ele>104.0</ele><time>2026-04-10T11:42:51Z</time></trkpt><trkpt lat="45.6933415455614" lon="11.540229720509688"><ele>104.0</ele><time>2026-04-10T11:42:52Z</time></trkpt><trkpt lat="45.69332816933983" lon="11.540022350859159"><ele>104.0</ele><time>2026-04-10T11:42:53Z</time></trkpt><trkpt lat="45.69333474285253" lon="11.539850740221985"><ele>103.99999999999999</ele><time>2026-04-10T11:42:54Z</time></trkpt><trkpt lat="45.69335319545532" lon="11.5397081040419"><ele>104.0</ele><time>2026-04-10T11:42:55Z</time></trkpt><trkpt lat="45.69339448671922" lon="11.539607815693609"><ele>104.0</ele><time>2026-04-10T11:42:55.999Z</time></trkpt><trkpt lat="45.69346532253263" lon="11.539540201876868"><ele>104.0</ele><time>2026-04-10T11:42:56.999Z</time></trkpt><trkpt lat="45.69355601179956" lon="11.539508707727473"><ele>103.99999999999999</ele><time>2026-04-10T11:42:57.999Z</time></trkpt><trkpt lat="45.693597298443976" lon="11.53940252058387"><ele>104.0</ele><time>2026-04-10T11:42:58.999Z</time></trkpt><trkpt lat="45.69361834166128" lon="11.539272005852265"><ele>104.0</ele><time>2026-04-10T11:42:59.999Z</time></trkpt><trkpt lat="45.69359873752917" lon="11.539134345351252"><ele>104.0</ele><time>2026-04-10T11:43:00.999Z</time></trkpt><trkpt lat="45.69353695533636" lon="11.538998757053799"><ele>104.0</ele><time>2026-04-10T11:43:01.999Z</time></trkpt><trkpt lat="45.693421933504965" lon="11.538924312986646"><ele>104.0</ele><time>2026-04-10T11:43:02.999Z</time></trkpt><trkpt lat="45.69336529946479" lon="11.538706658583408"><ele>104.0</ele><time>2026-04-10T11:43:03.999Z</time></trkpt><trkpt lat="45.693316475921186" lon="11.538488075654643"><ele>104.0</ele><time>2026-04-10T11:43:04.999Z</time></trkpt><trkpt lat="45.69331628262789" lon="11.538223566325383"><ele>104.0</ele><time>2026-04-10T11:43:05.999Z</time></trkpt><trkpt lat="45.6932774965713" lon="11.537980574384862"><ele>104.0</ele><time>2026-04-10T11:43:06.999Z</time></trkpt><trkpt lat="45.69325349974706" lon="11.537706125245842"><ele>104.0</ele><time>2026-04-10T11:43:07.999Z</time></trkpt><trkpt lat="45.69322136781261" lon="11.537407892882404"><ele>104.0</ele><time>2026-04-10T11:43:08.999Z</time></trkpt><trkpt lat="45.69319408230657" lon="11.537094894730853"><ele>103.66666666666666</ele><time>2026-04-10T11:43:09.999Z</time></trkpt><trkpt lat="45.69316183023979" lon="11.53678537690006"><ele>103.33333333333334</ele><time>2026-04-10T11:43:10.999Z</time></trkpt><trkpt lat="45.693125659997726" lon="11.5364662642413"><ele>103.0</ele><time>2026-04-10T11:43:11.999Z</time></trkpt><trkpt lat="45.69308889960474" lon="11.53613263873913"><ele>103.0</ele><time>2026-04-10T11:43:12.999Z</time></trkpt><trkpt lat="45.6930482597152" lon="11.535788225202294"><ele>103.0</ele><time>2026-04-10T11:43:13.999Z</time></trkpt><trkpt lat="45.693012227599475" lon="11.53543604657362"><ele>104.5</ele><time>2026-04-10T11:43:14.999Z</time></trkpt><trkpt lat="45.692974564158405" lon="11.535089452353628"><ele>106.0</ele><time>2026-04-10T11:43:15.999Z</time></trkpt><trkpt lat="45.692933992966125" lon="11.534734732349689"><ele>105.5</ele><time>2026-04-10T11:43:16.999Z</time></trkpt><trkpt lat="45.69289695050548" lon="11.534380273439394"><ele>105.0</ele><time>2026-04-10T11:43:17.999Z</time></trkpt><trkpt lat="45.69285755737325" lon="11.534035716416557"><ele>105.5</ele><time>2026-04-10T11:43:18.999Z</time></trkpt><trkpt lat="45.692822123099674" lon="11.533705070184466"><ele>106.0</ele><time>2026-04-10T11:43:19.999Z</time></trkpt><trkpt lat="45.692784253657116" lon="11.533367099343035"><ele>104.5</ele><time>2026-04-10T11:43:20.999Z</time></trkpt><trkpt lat="45.69274630076893" lon="11.533035957406405"><ele>103.0</ele><time>2026-04-10T11:43:21.999Z</time></trkpt><trkpt lat="45.692709241839204" lon="11.532729538945391"><ele>103.0</ele><time>2026-04-10T11:43:22.999Z</time></trkpt><trkpt lat="45.69267088036905" lon="11.532456717247118"><ele>103.0</ele><time>2026-04-10T11:43:23.999Z</time></trkpt><trkpt lat="45.69263511443841" lon="11.532194705158311"><ele>103.0</ele><time>2026-04-10T11:43:24.999Z</time></trkpt><trkpt lat="45.69260436165966" lon="11.531931061353994"><ele>103.0</ele><time>2026-04-10T11:43:25.999Z</time></trkpt><trkpt lat="45.69257721902889" lon="11.531675941038253"><ele>103.0</ele><time>2026-04-10T11:43:26.999Z</time></trkpt><trkpt lat="45.69255544689231" lon="11.531426883827923"><ele>103.0</ele><time>2026-04-10T11:43:27.999Z</time></trkpt><trkpt lat="45.69252770006586" lon="11.531160558551976"><ele>103.0</ele><time>2026-04-10T11:43:28.999Z</time></trkpt><trkpt lat="45.69249286674107" lon="11.530882353777354"><ele>103.0</ele><time>2026-04-10T11:43:29.999Z</time></trkpt><trkpt lat="45.6924621790966" lon="11.53061874719191"><ele>103.0</ele><time>2026-04-10T11:43:30.999Z</time></trkpt><trkpt lat="45.692446009080996" lon="11.530358041649745"><ele>103.0</ele><time>2026-04-10T11:43:32.001Z</time></trkpt><trkpt lat="45.692431816344616" lon="11.530095433116607"><ele>103.0</ele><time>2026-04-10T11:43:33.001Z</time></trkpt><trkpt lat="45.69242003371437" lon="11.529800097324692"><ele>103.0</ele><time>2026-04-10T11:43:34.001Z</time></trkpt><trkpt lat="45.692418272271375" lon="11.52947079337011"><ele>103.0</ele><time>2026-04-10T11:43:35.001Z</time></trkpt><trkpt lat="45.692421107410226" lon="11.529126283800892"><ele>103.0</ele><time>2026-04-10T11:43:36.001Z</time></trkpt><trkpt lat="45.69243883583795" lon="11.528769828844975"><ele>103.5</ele><time>2026-04-10T11:43:37.001Z</time></trkpt><trkpt lat="45.69246292162279" lon="11.528401277638453"><ele>104.0</ele><time>2026-04-10T11:43:38.001Z</time></trkpt><trkpt lat="45.69248700252896" lon="11.52802405097157"><ele>104.0</ele><time>2026-04-10T11:43:39.001Z</time></trkpt><trkpt lat="45.69251277652855" lon="11.52763821262773"><ele>104.0</ele><time>2026-04-10T11:43:40.001Z</time></trkpt><trkpt lat="45.692541335559966" lon="11.527245274146793"><ele>103.0</ele><time>2026-04-10T11:43:41.001Z</time></trkpt><trkpt lat="45.692571886977476" lon="11.526854618898467"><ele>102.0</ele><time>2026-04-10T11:43:42.001Z</time></trkpt><trkpt lat="45.69260088758876" lon="11.52646339062435"><ele>102.5</ele><time>2026-04-10T11:43:43.001Z</time></trkpt><trkpt lat="45.69262529326379" lon="11.526079035644495"><ele>103.0</ele><time>2026-04-10T11:43:44.001Z</time></trkpt><trkpt lat="45.69265507597247" lon="11.52569628060333"><ele>103.5</ele><time>2026-04-10T11:43:45.001Z</time></trkpt><trkpt lat="45.692677717006134" lon="11.525307475648793"><ele>104.0</ele><time>2026-04-10T11:43:46.001Z</time></trkpt><trkpt lat="45.69270981291096" lon="11.524904731035324"><ele>103.0</ele><time>2026-04-10T11:43:47.001Z</time></trkpt><trkpt lat="45.692733252917016" lon="11.52449401454456"><ele>102.0</ele><time>2026-04-10T11:43:48.001Z</time></trkpt><trkpt lat="45.6927616205969" lon="11.524074829978439"><ele>101.0</ele><time>2026-04-10T11:43:49.001Z</time></trkpt><trkpt lat="45.692793748387764" lon="11.52365638418048"><ele>100.0</ele><time>2026-04-10T11:43:50.001Z</time></trkpt><trkpt lat="45.6928275017169" lon="11.523229564424684"><ele>100.0</ele><time>2026-04-10T11:43:51.001Z</time></trkpt><trkpt lat="45.69285786015581" lon="11.52280299266387"><ele>100.0</ele><time>2026-04-10T11:43:52.001Z</time></trkpt><trkpt lat="45.69288874359268" lon="11.52237183345262"><ele>99.0</ele><time>2026-04-10T11:43:53.001Z</time></trkpt><trkpt lat="45.69291867046783" lon="11.521946750635564"><ele>98.0</ele><time>2026-04-10T11:43:54.001Z</time></trkpt><trkpt lat="45.69294463322628" lon="11.521551878180947"><ele>98.5</ele><time>2026-04-10T11:43:55.001Z</time></trkpt><trkpt lat="45.692966055719545" lon="11.52117451046496"><ele>99.0</ele><time>2026-04-10T11:43:56.001Z</time></trkpt><trkpt lat="45.69299186786865" lon="11.520807816540021"><ele>99.0</ele><time>2026-04-10T11:43:57.001Z</time></trkpt><trkpt lat="45.693013565898376" lon="11.520445540144278"><ele>99.0</ele><time>2026-04-10T11:43:58.001Z</time></trkpt><trkpt lat="45.69303635729325" lon="11.520116648762833"><ele>99.0</ele><time>2026-04-10T11:43:59.001Z</time></trkpt><trkpt lat="45.69305466774533" lon="11.519811956972067"><ele>99.0</ele><time>2026-04-10T11:44:00.001Z</time></trkpt><trkpt lat="45.69307663203776" lon="11.519488537681795"><ele>99.0</ele><time>2026-04-10T11:44:01Z</time></trkpt><trkpt lat="45.69309985114503" lon="11.519132130737445"><ele>99.0</ele><time>2026-04-10T11:44:02Z</time></trkpt><trkpt lat="45.69313000820778" lon="11.518761176154204"><ele>99.0</ele><time>2026-04-10T11:44:03Z</time></trkpt><trkpt lat="45.69316524892221" lon="11.518375731003346"><ele>100.0</ele><time>2026-04-10T11:44:04Z</time></trkpt><trkpt lat="45.693192678976494" lon="11.517978243966414"><ele>101.0</ele><time>2026-04-10T11:44:05Z</time></trkpt><trkpt lat="45.69322449038487" lon="11.517563343692638"><ele>101.5</ele><time>2026-04-10T11:44:06Z</time></trkpt><trkpt lat="45.69325373468002" lon="11.51714327226506"><ele>102.0</ele><time>2026-04-10T11:44:07Z</time></trkpt><trkpt lat="45.693283716295475" lon="11.51672375348496"><ele>102.0</ele><time>2026-04-10T11:44:08Z</time></trkpt><trkpt lat="45.693316841752214" lon="11.516298669463833"><ele>102.0</ele><time>2026-04-10T11:44:09Z</time></trkpt><trkpt lat="45.69334520818445" lon="11.515873849787475"><ele>102.0</ele><time>2026-04-10T11:44:10Z</time></trkpt><trkpt lat="45.693375106913145" lon="11.515440080509611"><ele>102.0</ele><time>2026-04-10T11:44:11Z</time></trkpt><trkpt lat="45.69340549979396" lon="11.515002502713912"><ele>102.0</ele><time>2026-04-10T11:44:12Z</time></trkpt><trkpt lat="45.69343869803548" lon="11.514557565363596"><ele>102.0</ele><time>2026-04-10T11:44:13Z</time></trkpt><trkpt lat="45.69346888945581" lon="11.514109560347599"><ele>102.0</ele><time>2026-04-10T11:44:14Z</time></trkpt><trkpt lat="45.69350509448068" lon="11.51366267901466"><ele>102.0</ele><time>2026-04-10T11:44:15Z</time></trkpt><trkpt lat="45.693533317083585" lon="11.513216774367764"><ele>102.0</ele><time>2026-04-10T11:44:16Z</time></trkpt><trkpt lat="45.6935657792908" lon="11.512767307757372"><ele>102.0</ele><time>2026-04-10T11:44:17Z</time></trkpt><trkpt lat="45.69359445887427" lon="11.512324113506214"><ele>103.0</ele><time>2026-04-10T11:44:18Z</time></trkpt><trkpt lat="45.69362119758615" lon="11.511886311942453"><ele>104.0</ele><time>2026-04-10T11:44:19Z</time></trkpt><trkpt lat="45.69365138836219" lon="11.511452480131512"><ele>104.5</ele><time>2026-04-10T11:44:20Z</time></trkpt><trkpt lat="45.693681408791996" lon="11.51101810953939"><ele>105.0</ele><time>2026-04-10T11:44:21Z</time></trkpt><trkpt lat="45.693716708014236" lon="11.51058093853455"><ele>106.0</ele><time>2026-04-10T11:44:22Z</time></trkpt><trkpt lat="45.69375039324246" lon="11.51014181159418"><ele>107.0</ele><time>2026-04-10T11:44:23Z</time></trkpt><trkpt lat="45.6937827443445" lon="11.509707311123035"><ele>107.0</ele><time>2026-04-10T11:44:24Z</time></trkpt><trkpt lat="45.69381301986067" lon="11.509266851026055"><ele>107.0</ele><time>2026-04-10T11:44:25Z</time></trkpt><trkpt lat="45.69384106899477" lon="11.508838285126222"><ele>106.5</ele><time>2026-04-10T11:44:26Z</time></trkpt><trkpt lat="45.693871404765275" lon="11.50840394689769"><ele>106.0</ele><time>2026-04-10T11:44:27Z</time></trkpt><trkpt lat="45.69390246137099" lon="11.5079695351106"><ele>107.0</ele><time>2026-04-10T11:44:28Z</time></trkpt><trkpt lat="45.6939352584496" lon="11.507534470643643"><ele>108.0</ele><time>2026-04-10T11:44:29Z</time></trkpt><trkpt lat="45.69396851699279" lon="11.507103451620328"><ele>108.0</ele><time>2026-04-10T11:44:30Z</time></trkpt><trkpt lat="45.694002457199616" lon="11.50665982515023"><ele>108.0</ele><time>2026-04-10T11:44:31Z</time></trkpt><trkpt lat="45.69402994867842" lon="11.506204347347207"><ele>107.5</ele><time>2026-04-10T11:44:32Z</time></trkpt><trkpt lat="45.69405739258555" lon="11.505733447060907"><ele>107.0</ele><time>2026-04-10T11:44:33Z</time></trkpt><trkpt lat="45.69408827551979" lon="11.505239604060606"><ele>106.5</ele><time>2026-04-10T11:44:34Z</time></trkpt><trkpt lat="45.69411902368453" lon="11.504751832902413"><ele>106.0</ele><time>2026-04-10T11:44:35Z</time></trkpt><trkpt lat="45.694155188325475" lon="11.50427661802464"><ele>107.5</ele><time>2026-04-10T11:44:36Z</time></trkpt><trkpt lat="45.69418998718361" lon="11.503807996395816"><ele>109.0</ele><time>2026-04-10T11:44:37Z</time></trkpt><trkpt lat="45.694225263705825" lon="11.503339124569106"><ele>110.0</ele><time>2026-04-10T11:44:38Z</time></trkpt><trkpt lat="45.694258747239736" lon="11.502870228401576"><ele>111.0</ele><time>2026-04-10T11:44:39Z</time></trkpt><trkpt lat="45.694299252422276" lon="11.502395814545258"><ele>111.0</ele><time>2026-04-10T11:44:40Z</time></trkpt><trkpt lat="45.694333065549806" lon="11.50193666449359"><ele>111.0</ele><time>2026-04-10T11:44:41Z</time></trkpt><trkpt lat="45.694368468080036" lon="11.501516350243204"><ele>111.0</ele><time>2026-04-10T11:44:42Z</time></trkpt><trkpt lat="45.69439873174074" lon="11.501119065173885"><ele>111.0</ele><time>2026-04-10T11:44:43Z</time></trkpt><trkpt lat="45.69442195989544" lon="11.500752388362294"><ele>112.5</ele><time>2026-04-10T11:44:44Z</time></trkpt><trkpt lat="45.69444224453978" lon="11.500407506384372"><ele>114.0</ele><time>2026-04-10T11:44:45Z</time></trkpt><trkpt lat="45.69446065654692" lon="11.500085760679635"><ele>114.0</ele><time>2026-04-10T11:44:46Z</time></trkpt><trkpt lat="45.6944666256182" lon="11.499784893544508"><ele>114.0</ele><time>2026-04-10T11:44:47Z</time></trkpt><trkpt lat="45.694466089706346" lon="11.499530592824145"><ele>114.0</ele><time>2026-04-10T11:44:48Z</time></trkpt><trkpt lat="45.694460216820694" lon="11.499318903497574"><ele>114.0</ele><time>2026-04-10T11:44:49Z</time></trkpt><trkpt lat="45.694454821100834" lon="11.499137510424559"><ele>114.0</ele><time>2026-04-10T11:44:50Z</time></trkpt><trkpt lat="45.69444338116605" lon="11.498982144890139"><ele>114.0</ele><time>2026-04-10T11:44:51Z</time></trkpt><trkpt lat="45.69443554801322" lon="11.498828179733012"><ele>114.0</ele><time>2026-04-10T11:44:52Z</time></trkpt><trkpt lat="45.694427176125345" lon="11.498694692677084"><ele>114.0</ele><time>2026-04-10T11:44:53Z</time></trkpt><trkpt lat="45.69441454276835" lon="11.498550701680776"><ele>114.0</ele><time>2026-04-10T11:44:54Z</time></trkpt><trkpt lat="45.69439334873358" lon="11.498373672145096"><ele>114.0</ele><time>2026-04-10T11:44:55Z</time></trkpt><trkpt lat="45.694373933915514" lon="11.498169333327347"><ele>114.0</ele><time>2026-04-10T11:44:56Z</time></trkpt><trkpt lat="45.69434791460713" lon="11.497958306609986"><ele>114.0</ele><time>2026-04-10T11:44:57Z</time></trkpt><trkpt lat="45.69432742749827" lon="11.497756190099933"><ele>114.0</ele><time>2026-04-10T11:44:58Z</time></trkpt><trkpt lat="45.694303221994225" lon="11.49758571147574"><ele>114.0</ele><time>2026-04-10T11:44:59Z</time></trkpt><trkpt lat="45.69428463652416" lon="11.49744798013484"><ele>114.0</ele><time>2026-04-10T11:45:00Z</time></trkpt><trkpt lat="45.694280024040566" lon="11.497325779223113"><ele>114.0</ele><time>2026-04-10T11:45:01Z</time></trkpt><trkpt lat="45.694274719005655" lon="11.497207236588185"><ele>114.0</ele><time>2026-04-10T11:45:02Z</time></trkpt><trkpt lat="45.69427282214712" lon="11.49709883554379"><ele>114.2</ele><time>2026-04-10T11:45:03Z</time></trkpt><trkpt lat="45.694274467607926" lon="11.49699639088293"><ele>114.4</ele><time>2026-04-10T11:45:04Z</time></trkpt><trkpt lat="45.694275658679686" lon="11.496832658429415"><ele>114.6</ele><time>2026-04-10T11:45:06Z</time></trkpt><trkpt lat="45.69429863454144" lon="11.496631822231251"><ele>114.8</ele><time>2026-04-10T11:45:08Z</time></trkpt><trkpt lat="45.69431962604413" lon="11.496497301045663"><ele>115.0</ele><time>2026-04-10T11:45:08.999Z</time></trkpt><trkpt lat="45.694333559979285" lon="11.49636469693968"><ele>115.0</ele><time>2026-04-10T11:45:09.999Z</time></trkpt><trkpt lat="45.69433335584782" lon="11.496218727346209"><ele>115.0</ele><time>2026-04-10T11:45:10.999Z</time></trkpt><trkpt lat="45.69430632567903" lon="11.496065906032145"><ele>115.0</ele><time>2026-04-10T11:45:11.998Z</time></trkpt><trkpt lat="45.69423218394839" lon="11.495928417413504"><ele>115.0</ele><time>2026-04-10T11:45:12.998Z</time></trkpt><trkpt lat="45.69411819195649" lon="11.495840958710017"><ele>115.0</ele><time>2026-04-10T11:45:13.998Z</time></trkpt><trkpt lat="45.69403676177631" lon="11.49568116117061"><ele>115.0</ele><time>2026-04-10T11:45:14.998Z</time></trkpt><trkpt lat="45.693961312980335" lon="11.495487233872256"><ele>115.0</ele><time>2026-04-10T11:45:15.998Z</time></trkpt><trkpt lat="45.69392054890169" lon="11.495283853879704"><ele>115.0</ele><time>2026-04-10T11:45:16.998Z</time></trkpt><trkpt lat="45.69388675894615" lon="11.495062883954281"><ele>115.0</ele><time>2026-04-10T11:45:17.998Z</time></trkpt><trkpt lat="45.693850996601924" lon="11.494809909450563"><ele>115.0</ele><time>2026-04-10T11:45:18.998Z</time></trkpt><trkpt lat="45.69380950765105" lon="11.494527429344407"><ele>115.0</ele><time>2026-04-10T11:45:19.998Z</time></trkpt><trkpt lat="45.69378573790053" lon="11.494227398166126"><ele>115.0</ele><time>2026-04-10T11:45:20.998Z</time></trkpt><trkpt lat="45.69373846309551" lon="11.493921284231407"><ele>115.0</ele><time>2026-04-10T11:45:21.998Z</time></trkpt><trkpt lat="45.69369262390173" lon="11.493623988333502"><ele>115.0</ele><time>2026-04-10T11:45:22.998Z</time></trkpt><trkpt lat="45.6936385428693" lon="11.493360919065434"><ele>115.33333333333334</ele><time>2026-04-10T11:45:23.998Z</time></trkpt><trkpt lat="45.69360965024428" lon="11.493113331049758"><ele>115.66666666666666</ele><time>2026-04-10T11:45:24.998Z</time></trkpt><trkpt lat="45.69357409794058" lon="11.492879395889478"><ele>116.0</ele><time>2026-04-10T11:45:25.998Z</time></trkpt><trkpt lat="45.693538917568404" lon="11.492656830653559"><ele>116.0</ele><time>2026-04-10T11:45:26.998Z</time></trkpt><trkpt lat="45.69350050593999" lon="11.49243684937955"><ele>116.0</ele><time>2026-04-10T11:45:27.998Z</time></trkpt><trkpt lat="45.69346677965817" lon="11.492221002113924"><ele>116.0</ele><time>2026-04-10T11:45:28.998Z</time></trkpt><trkpt lat="45.69343697851592" lon="11.492022606346467"><ele>116.25</ele><time>2026-04-10T11:45:29.998Z</time></trkpt><trkpt lat="45.69340918847812" lon="11.49184794981792"><ele>116.5</ele><time>2026-04-10T11:45:30.998Z</time></trkpt><trkpt lat="45.693373326182616" lon="11.491657197534064"><ele>116.75</ele><time>2026-04-10T11:45:31.998Z</time></trkpt><trkpt lat="45.69335127354079" lon="11.491413882227524"><ele>117.0</ele><time>2026-04-10T11:45:32.998Z</time></trkpt><trkpt lat="45.693310735190096" lon="11.49115203723234"><ele>117.66666666666666</ele><time>2026-04-10T11:45:33.998Z</time></trkpt><trkpt lat="45.69326459606208" lon="11.490857790863693"><ele>118.33333333333333</ele><time>2026-04-10T11:45:34.998Z</time></trkpt><trkpt lat="45.693201566002976" lon="11.490558277589772"><ele>119.0</ele><time>2026-04-10T11:45:35.998Z</time></trkpt><trkpt lat="45.69316794338618" lon="11.490249513138195"><ele>119.5</ele><time>2026-04-10T11:45:36.998Z</time></trkpt><trkpt lat="45.693128879564824" lon="11.489925529410513"><ele>120.0</ele><time>2026-04-10T11:45:38Z</time></trkpt><trkpt lat="45.6930859595435" lon="11.489599446348393"><ele>120.0</ele><time>2026-04-10T11:45:39Z</time></trkpt><trkpt lat="45.69303871085244" lon="11.48927329173835"><ele>120.0</ele><time>2026-04-10T11:45:40Z</time></trkpt><trkpt lat="45.692993655947014" lon="11.488955737317537"><ele>120.5</ele><time>2026-04-10T11:45:41Z</time></trkpt><trkpt lat="45.69294659414743" lon="11.488630143630907"><ele>121.0</ele><time>2026-04-10T11:45:42Z</time></trkpt><trkpt lat="45.6928977943072" lon="11.4882997331983"><ele>121.0</ele><time>2026-04-10T11:45:43Z</time></trkpt><trkpt lat="45.69285138670829" lon="11.48796632430018"><ele>121.0</ele><time>2026-04-10T11:45:44Z</time></trkpt><trkpt lat="45.69280258686014" lon="11.487631067110497"><ele>121.0</ele><time>2026-04-10T11:45:45Z</time></trkpt><trkpt lat="45.69275571818004" lon="11.487290427678698"><ele>121.0</ele><time>2026-04-10T11:45:46Z</time></trkpt><trkpt lat="45.692691996979505" lon="11.486950193122313"><ele>121.0</ele><time>2026-04-10T11:45:47Z</time></trkpt><trkpt lat="45.69263844289928" lon="11.486605587253422"><ele>121.0</ele><time>2026-04-10T11:45:48Z</time></trkpt><trkpt lat="45.692585299079155" lon="11.486263621293327"><ele>120.0</ele><time>2026-04-10T11:45:49Z</time></trkpt><trkpt lat="45.6925446847411" lon="11.485914482361046"><ele>119.0</ele><time>2026-04-10T11:45:50Z</time></trkpt><trkpt lat="45.69249053372602" lon="11.485569383718616"><ele>119.0</ele><time>2026-04-10T11:45:51Z</time></trkpt><trkpt lat="45.69243599144422" lon="11.485226326254839"><ele>119.0</ele><time>2026-04-10T11:45:52Z</time></trkpt><trkpt lat="45.69238108716839" lon="11.484895258793467"><ele>119.66666666666666</ele><time>2026-04-10T11:45:53Z</time></trkpt><trkpt lat="45.69232988170527" lon="11.484591479363479"><ele>120.33333333333334</ele><time>2026-04-10T11:45:54Z</time></trkpt><trkpt lat="45.69228764393303" lon="11.4843290176726"><ele>121.0</ele><time>2026-04-10T11:45:55Z</time></trkpt><trkpt lat="45.6922509567742" lon="11.484102436961665"><ele>121.0</ele><time>2026-04-10T11:45:56Z</time></trkpt><trkpt lat="45.692224916186866" lon="11.483911376178659"><ele>121.0</ele><time>2026-04-10T11:45:57Z</time></trkpt><trkpt lat="45.69220581743659" lon="11.483752826379181"><ele>121.0</ele><time>2026-04-10T11:45:58Z</time></trkpt><trkpt lat="45.692203281616266" lon="11.483610139032459"><ele>121.0</ele><time>2026-04-10T11:45:59Z</time></trkpt><trkpt lat="45.69218950406867" lon="11.483473076001161"><ele>121.0</ele><time>2026-04-10T11:46:00Z</time></trkpt><trkpt lat="45.692186720304" lon="11.483333359062943"><ele>121.0</ele><time>2026-04-10T11:46:01Z</time></trkpt><trkpt lat="45.69225055794445" lon="11.483189732550642"><ele>121.0</ele><time>2026-04-10T11:46:02Z</time></trkpt><trkpt lat="45.69233048782273" lon="11.483095570597195"><ele>121.0</ele><time>2026-04-10T11:46:03Z</time></trkpt><trkpt lat="45.692424693288984" lon="11.483028339694775"><ele>121.0</ele><time>2026-04-10T11:46:04Z</time></trkpt><trkpt lat="45.692593028782085" lon="11.483133490539148"><ele>121.0</ele><time>2026-04-10T11:46:05Z</time></trkpt><trkpt lat="45.69274011656962" lon="11.483139935922074"><ele>121.0</ele><time>2026-04-10T11:46:06Z</time></trkpt><trkpt lat="45.69291161640776" lon="11.483141581067507"><ele>121.0</ele><time>2026-04-10T11:46:07Z</time></trkpt><trkpt lat="45.69308343250327" lon="11.483125129362259"><ele>121.0</ele><time>2026-04-10T11:46:08Z</time></trkpt><trkpt lat="45.69321388620804" lon="11.483105341832818"><ele>121.0</ele><time>2026-04-10T11:46:09Z</time></trkpt><trkpt lat="45.69330676307044" lon="11.483094129501936"><ele>121.0</ele><time>2026-04-10T11:46:10Z</time></trkpt><trkpt lat="45.693377048036396" lon="11.483065640076804"><ele>121.0</ele><time>2026-04-10T11:46:11Z</time></trkpt><trkpt lat="45.693437640152084" lon="11.4829919726555"><ele>121.0</ele><time>2026-04-10T11:46:12Z</time></trkpt><trkpt lat="45.693483378253156" lon="11.482873211278307"><ele>121.25</ele><time>2026-04-10T11:46:13Z</time></trkpt><trkpt lat="45.69348611199133" lon="11.482707629095298"><ele>121.5</ele><time>2026-04-10T11:46:14Z</time></trkpt><trkpt lat="45.69350910773177" lon="11.482523923410463"><ele>121.75</ele><time>2026-04-10T11:46:15Z</time></trkpt><trkpt lat="45.69346179336375" lon="11.482327068592955"><ele>122.0</ele><time>2026-04-10T11:46:16Z</time></trkpt><trkpt lat="45.693376097650926" lon="11.482176443711486"><ele>122.0</ele><time>2026-04-10T11:46:17Z</time></trkpt><trkpt lat="45.69324750830752" lon="11.482042806159644"><ele>122.0</ele><time>2026-04-10T11:46:18Z</time></trkpt><trkpt lat="45.69309472450534" lon="11.481905397272348"><ele>122.0</ele><time>2026-04-10T11:46:19Z</time></trkpt><trkpt lat="45.69293397632818" lon="11.481759356778001"><ele>122.0</ele><time>2026-04-10T11:46:20Z</time></trkpt><trkpt lat="45.69279408224743" lon="11.481599427263298"><ele>122.0</ele><time>2026-04-10T11:46:21Z</time></trkpt><trkpt lat="45.69265914412314" lon="11.481452420979531"><ele>122.0</ele><time>2026-04-10T11:46:22Z</time></trkpt><trkpt lat="45.69251902597764" lon="11.481301111371188"><ele>122.0</ele><time>2026-04-10T11:46:23Z</time></trkpt><trkpt lat="45.69236960470026" lon="11.481149439997045"><ele>122.0</ele><time>2026-04-10T11:46:24Z</time></trkpt><trkpt lat="45.69221584634483" lon="11.481035557245056"><ele>122.0</ele><time>2026-04-10T11:46:25Z</time></trkpt><trkpt lat="45.69206561067926" lon="11.480971215803807"><ele>121.25</ele><time>2026-04-10T11:46:26Z</time></trkpt><trkpt lat="45.69191993001592" lon="11.480938047558114"><ele>120.5</ele><time>2026-04-10T11:46:27Z</time></trkpt><trkpt lat="45.69178703218529" lon="11.480915933648609"><ele>119.75</ele><time>2026-04-10T11:46:27.999Z</time></trkpt><trkpt lat="45.691668579972266" lon="11.480902675580086"><ele>119.0</ele><time>2026-04-10T11:46:28.999Z</time></trkpt><trkpt lat="45.691553487528566" lon="11.480896632926818"><ele>119.0</ele><time>2026-04-10T11:46:29.999Z</time></trkpt><trkpt lat="45.69142902274066" lon="11.480888788868512"><ele>119.0</ele><time>2026-04-10T11:46:30.999Z</time></trkpt><trkpt lat="45.69130204117111" lon="11.480880471418898"><ele>119.0</ele><time>2026-04-10T11:46:31.999Z</time></trkpt><trkpt lat="45.69117302680188" lon="11.480871115763446"><ele>119.0</ele><time>2026-04-10T11:46:32.999Z</time></trkpt><trkpt lat="45.69104687204345" lon="11.480856295649481"><ele>118.5</ele><time>2026-04-10T11:46:33.999Z</time></trkpt><trkpt lat="45.6909299226157" lon="11.480852534252378"><ele>118.0</ele><time>2026-04-10T11:46:34.999Z</time></trkpt><trkpt lat="45.69081424859083" lon="11.480848657437507"><ele>117.5</ele><time>2026-04-10T11:46:35.999Z</time></trkpt><trkpt lat="45.69069137954713" lon="11.480838118231187"><ele>117.0</ele><time>2026-04-10T11:46:36.999Z</time></trkpt><trkpt lat="45.69055609505623" lon="11.480835121988616"><ele>117.0</ele><time>2026-04-10T11:46:37.999Z</time></trkpt><trkpt lat="45.69042363861554" lon="11.480845544786897"><ele>117.0</ele><time>2026-04-10T11:46:38.999Z</time></trkpt><trkpt lat="45.69028519471821" lon="11.480877179703084"><ele>117.0</ele><time>2026-04-10T11:46:39.999Z</time></trkpt><trkpt lat="45.69015189128889" lon="11.480936891024598"><ele>117.0</ele><time>2026-04-10T11:46:40.999Z</time></trkpt><trkpt lat="45.69003290247504" lon="11.481020682767742"><ele>117.0</ele><time>2026-04-10T11:46:41.999Z</time></trkpt><trkpt lat="45.68993367554645" lon="11.481113437495097"><ele>117.0</ele><time>2026-04-10T11:46:42.999Z</time></trkpt><trkpt lat="45.689828555782576" lon="11.481222363487795"><ele>117.0</ele><time>2026-04-10T11:46:43.999Z</time></trkpt><trkpt lat="45.68972532346635" lon="11.481336606945282"><ele>117.0</ele><time>2026-04-10T11:46:44.999Z</time></trkpt><trkpt lat="45.68962202432929" lon="11.481448341903656"><ele>116.75</ele><time>2026-04-10T11:46:45.999Z</time></trkpt><trkpt lat="45.689516775390864" lon="11.481558806342202"><ele>116.5</ele><time>2026-04-10T11:46:46.999Z</time></trkpt><trkpt lat="45.6894158781089" lon="11.481666509072278"><ele>116.25</ele><time>2026-04-10T11:46:47.999Z</time></trkpt><trkpt lat="45.68930647012459" lon="11.481776059308146"><ele>116.0</ele><time>2026-04-10T11:46:48.999Z</time></trkpt><trkpt lat="45.68919003523245" lon="11.48188868891124"><ele>116.25</ele><time>2026-04-10T11:46:49.999Z</time></trkpt><trkpt lat="45.68908225043284" lon="11.482003376241739"><ele>116.5</ele><time>2026-04-10T11:46:50.999Z</time></trkpt><trkpt lat="45.688977772746995" lon="11.482128540150228"><ele>116.75</ele><time>2026-04-10T11:46:51.999Z</time></trkpt><trkpt lat="45.68888275913767" lon="11.482239521165887"><ele>117.0</ele><time>2026-04-10T11:46:52.999Z</time></trkpt><trkpt lat="45.68879463947377" lon="11.482340391291213"><ele>117.0</ele><time>2026-04-10T11:46:53.999Z</time></trkpt><trkpt lat="45.68870141190077" lon="11.482406859834652"><ele>116.99999999999999</ele><time>2026-04-10T11:46:54.999Z</time></trkpt><trkpt lat="45.688606730631825" lon="11.482431091058961"><ele>116.99999999999999</ele><time>2026-04-10T11:46:55.999Z</time></trkpt><trkpt lat="45.68850898538829" lon="11.482401214224417"><ele>117.0</ele><time>2026-04-10T11:46:56.999Z</time></trkpt><trkpt lat="45.68842118893357" lon="11.48230789632253"><ele>117.0</ele><time>2026-04-10T11:46:57.999Z</time></trkpt><trkpt lat="45.68834386163377" lon="11.482161076654142"><ele>116.66666666666666</ele><time>2026-04-10T11:46:58.999Z</time></trkpt><trkpt lat="45.68826238856427" lon="11.481984655629413"><ele>116.33333333333333</ele><time>2026-04-10T11:46:59.999Z</time></trkpt><trkpt lat="45.688171861649984" lon="11.48180159797549"><ele>116.0</ele><time>2026-04-10T11:47:00.999Z</time></trkpt><trkpt lat="45.688076095265856" lon="11.48163506147922"><ele>116.0</ele><time>2026-04-10T11:47:01.999Z</time></trkpt><trkpt lat="45.68799071901718" lon="11.481480442431867"><ele>116.0</ele><time>2026-04-10T11:47:02.999Z</time></trkpt><trkpt lat="45.6879206404601" lon="11.481349235961243"><ele>116.0</ele><time>2026-04-10T11:47:03.999Z</time></trkpt><trkpt lat="45.68785477856986" lon="11.48122877651657"><ele>116.0</ele><time>2026-04-10T11:47:04.999Z</time></trkpt><trkpt lat="45.68778732572791" lon="11.481116125167164"><ele>116.0</ele><time>2026-04-10T11:47:05.999Z</time></trkpt><trkpt lat="45.687723447968295" lon="11.481017441373137"><ele>116.0</ele><time>2026-04-10T11:47:06.999Z</time></trkpt><trkpt lat="45.687640511714946" lon="11.48091551654978"><ele>116.0</ele><time>2026-04-10T11:47:07.999Z</time></trkpt><trkpt lat="45.68754587413553" lon="11.48080277027653"><ele>116.0</ele><time>2026-04-10T11:47:08.999Z</time></trkpt><trkpt lat="45.687444445688804" lon="11.480674657343267"><ele>116.0</ele><time>2026-04-10T11:47:09.999Z</time></trkpt><trkpt lat="45.68734318066398" lon="11.480523724991347"><ele>116.0</ele><time>2026-04-10T11:47:10.999Z</time></trkpt><trkpt lat="45.68726353957577" lon="11.480326048406315"><ele>116.0</ele><time>2026-04-10T11:47:11.999Z</time></trkpt><trkpt lat="45.687162294923674" lon="11.480144629296634"><ele>116.0</ele><time>2026-04-10T11:47:12.999Z</time></trkpt><trkpt lat="45.68704637850466" lon="11.479971128515546"><ele>116.0</ele><time>2026-04-10T11:47:13.999Z</time></trkpt><trkpt lat="45.686943862876646" lon="11.479781230247584"><ele>116.0</ele><time>2026-04-10T11:47:14.999Z</time></trkpt><trkpt lat="45.68684159060184" lon="11.479597985586395"><ele>116.0</ele><time>2026-04-10T11:47:15.999Z</time></trkpt><trkpt lat="45.68674796416382" lon="11.47943422646308"><ele>116.0</ele><time>2026-04-10T11:47:16.999Z</time></trkpt><trkpt lat="45.68666413616401" lon="11.479287381287692"><ele>116.0</ele><time>2026-04-10T11:47:17.999Z</time></trkpt><trkpt lat="45.68659146231805" lon="11.479147680749096"><ele>116.0</ele><time>2026-04-10T11:47:18.999Z</time></trkpt><trkpt lat="45.68652805271235" lon="11.479025308308426"><ele>115.99999999999999</ele><time>2026-04-10T11:47:19.999Z</time></trkpt><trkpt lat="45.68646623719396" lon="11.478923592224113"><ele>116.0</ele><time>2026-04-10T11:47:20.999Z</time></trkpt><trkpt lat="45.68641472704254" lon="11.47883436465317"><ele>116.0</ele><time>2026-04-10T11:47:21.999Z</time></trkpt><trkpt lat="45.686374293630124" lon="11.478747746177813"><ele>116.0</ele><time>2026-04-10T11:47:22.999Z</time></trkpt><trkpt lat="45.68630893165831" lon="11.478622084012699"><ele>115.99999999999999</ele><time>2026-04-10T11:47:24.999Z</time></trkpt><trkpt lat="45.68625684089154" lon="11.478526480504666"><ele>116.0</ele><time>2026-04-10T11:47:26.999Z</time></trkpt><trkpt lat="45.68621293318103" lon="11.478434497417243"><ele>116.0</ele><time>2026-04-10T11:47:29.999Z</time></trkpt><trkpt lat="45.686167823153866" lon="11.47829168680151"><ele>116.0</ele><time>2026-04-10T11:47:32.999Z</time></trkpt><trkpt lat="45.68614615771482" lon="11.478174091382996"><ele>116.0</ele><time>2026-04-10T11:47:34.999Z</time></trkpt><trkpt lat="45.68607818939088" lon="11.478067813661633"><ele>116.0</ele><time>2026-04-10T11:47:36.999Z</time></trkpt><trkpt lat="45.68596728899811" lon="11.477977705781232"><ele>116.0</ele><time>2026-04-10T11:47:38.999Z</time></trkpt><trkpt lat="45.68591207617029" lon="11.477921582672705"><ele>116.00000000000001</ele><time>2026-04-10T11:47:39.998Z</time></trkpt><trkpt lat="45.68587127908223" lon="11.477820498714488"><ele>116.0</ele><time>2026-04-10T11:47:40.998Z</time></trkpt><trkpt lat="45.685822888275865" lon="11.477731998367656"><ele>116.00000000000001</ele><time>2026-04-10T11:47:41.998Z</time></trkpt><trkpt lat="45.68577134389842" lon="11.477665708928688"><ele>116.00000000000001</ele><time>2026-04-10T11:47:42.998Z</time></trkpt><trkpt lat="45.685730957572595" lon="11.47759205799394"><ele>116.0</ele><time>2026-04-10T11:47:44.001Z</time></trkpt><trkpt lat="45.6856818087818" lon="11.477512607112093"><ele>116.00000000000001</ele><time>2026-04-10T11:47:45.001Z</time></trkpt><trkpt lat="45.68563437050631" lon="11.47742561611064"><ele>116.00000000000001</ele><time>2026-04-10T11:47:46Z</time></trkpt><trkpt lat="45.68558480399246" lon="11.477300209852439"><ele>116.0</ele><time>2026-04-10T11:47:47.001Z</time></trkpt><trkpt lat="45.68548627160582" lon="11.477172438640803"><ele>116.0</ele><time>2026-04-10T11:47:48.001Z</time></trkpt><trkpt lat="45.68538000836105" lon="11.476997170284212"><ele>116.0</ele><time>2026-04-10T11:47:49Z</time></trkpt><trkpt lat="45.68527992580128" lon="11.476798763135006"><ele>115.8</ele><time>2026-04-10T11:47:50Z</time></trkpt><trkpt lat="45.685215847278855" lon="11.476627296605368"><ele>115.6</ele><time>2026-04-10T11:47:51Z</time></trkpt><trkpt lat="45.68517975892697" lon="11.476488899335655"><ele>115.4</ele><time>2026-04-10T11:47:52Z</time></trkpt><trkpt lat="45.685153052936975" lon="11.47637407462904"><ele>115.2</ele><time>2026-04-10T11:47:53Z</time></trkpt><trkpt lat="45.68509944822049" lon="11.47627519399155"><ele>115.0</ele><time>2026-04-10T11:47:54Z</time></trkpt><trkpt lat="45.68501367619576" lon="11.476204284710258"><ele>114.83333333333334</ele><time>2026-04-10T11:47:55Z</time></trkpt><trkpt lat="45.684934334575075" lon="11.476138520857592"><ele>114.66666666666667</ele><time>2026-04-10T11:47:56Z</time></trkpt><trkpt lat="45.684881227324276" lon="11.476057671176374"><ele>114.5</ele><time>2026-04-10T11:47:57Z</time></trkpt><trkpt lat="45.68483771743932" lon="11.475963586750265"><ele>114.33333333333334</ele><time>2026-04-10T11:47:58Z</time></trkpt><trkpt lat="45.684786976681174" lon="11.475869939863152"><ele>114.16666666666667</ele><time>2026-04-10T11:47:59Z</time></trkpt><trkpt lat="45.68473221950341" lon="11.47576945595396"><ele>114.0</ele><time>2026-04-10T11:48:00Z</time></trkpt><trkpt lat="45.68467240958897" lon="11.47565898062275"><ele>114.0</ele><time>2026-04-10T11:48:01Z</time></trkpt><trkpt lat="45.684614323664846" lon="11.475547211990072"><ele>114.0</ele><time>2026-04-10T11:48:02Z</time></trkpt><trkpt lat="45.684555382775436" lon="11.47543913238848"><ele>114.0</ele><time>2026-04-10T11:48:03Z</time></trkpt><trkpt lat="45.68449777133936" lon="11.475333069667338"><ele>114.0</ele><time>2026-04-10T11:48:04Z</time></trkpt><trkpt lat="45.68444664281269" lon="11.475229136925106"><ele>114.0</ele><time>2026-04-10T11:48:05Z</time></trkpt><trkpt lat="45.68439535713571" lon="11.475132060070576"><ele>113.85714285714285</ele><time>2026-04-10T11:48:06Z</time></trkpt><trkpt lat="45.68434604575948" lon="11.475037038782814"><ele>113.7142857142857</ele><time>2026-04-10T11:48:07Z</time></trkpt><trkpt lat="45.684312309505664" lon="11.474945623545638"><ele>113.57142857142857</ele><time>2026-04-10T11:48:08Z</time></trkpt><trkpt lat="45.68429135247645" lon="11.474857679337436"><ele>113.42857142857142</ele><time>2026-04-10T11:48:09Z</time></trkpt><trkpt lat="45.68427616566685" lon="11.474769487451885"><ele>113.28571428571428</ele><time>2026-04-10T11:48:10Z</time></trkpt><trkpt lat="45.68427398827809" lon="11.474663575908858"><ele>113.14285714285714</ele><time>2026-04-10T11:48:11Z</time></trkpt><trkpt lat="45.68428529048933" lon="11.474552128389686"><ele>113.0</ele><time>2026-04-10T11:48:12Z</time></trkpt><trkpt lat="45.684309871445656" lon="11.47444382417842"><ele>113.0</ele><time>2026-04-10T11:48:13Z</time></trkpt><trkpt lat="45.68435315786446" lon="11.474347693611138"><ele>113.00000000000001</ele><time>2026-04-10T11:48:14Z</time></trkpt><trkpt lat="45.68441586143526" lon="11.47425417146178"><ele>113.00000000000001</ele><time>2026-04-10T11:48:15Z</time></trkpt><trkpt lat="45.68450237071094" lon="11.474152055808679"><ele>113.0</ele><time>2026-04-10T11:48:16Z</time></trkpt><trkpt lat="45.6846084177331" lon="11.474043475019776"><ele>113.0</ele><time>2026-04-10T11:48:17Z</time></trkpt><trkpt lat="45.68473892913864" lon="11.473905163683758"><ele>113.33333333333333</ele><time>2026-04-10T11:48:18Z</time></trkpt><trkpt lat="45.68487211732832" lon="11.473750275414037"><ele>113.66666666666666</ele><time>2026-04-10T11:48:19Z</time></trkpt><trkpt lat="45.68502172403367" lon="11.473592749155909"><ele>114.0</ele><time>2026-04-10T11:48:20Z</time></trkpt><trkpt lat="45.68519586962136" lon="11.473439703834883"><ele>114.66666666666666</ele><time>2026-04-10T11:48:21Z</time></trkpt><trkpt lat="45.68536264789331" lon="11.473294159974232"><ele>115.33333333333333</ele><time>2026-04-10T11:48:22Z</time></trkpt><trkpt lat="45.68553461604175" lon="11.473128855585763"><ele>116.0</ele><time>2026-04-10T11:48:23Z</time></trkpt><trkpt lat="45.685714576428275" lon="11.472943991966899"><ele>115.5</ele><time>2026-04-10T11:48:24Z</time></trkpt><trkpt lat="45.685896718991984" lon="11.472751890264517"><ele>115.0</ele><time>2026-04-10T11:48:25Z</time></trkpt><trkpt lat="45.68608595686682" lon="11.472552492428443"><ele>116.0</ele><time>2026-04-10T11:48:26Z</time></trkpt><trkpt lat="45.6862739324224" lon="11.472351965178088"><ele>117.0</ele><time>2026-04-10T11:48:27Z</time></trkpt><trkpt lat="45.68646115798938" lon="11.472154472781842"><ele>117.0</ele><time>2026-04-10T11:48:28Z</time></trkpt><trkpt lat="45.686649119520766" lon="11.471951703147383"><ele>117.0</ele><time>2026-04-10T11:48:29Z</time></trkpt><trkpt lat="45.68681985417631" lon="11.471769146340582"><ele>117.0</ele><time>2026-04-10T11:48:30Z</time></trkpt><trkpt lat="45.68697321112284" lon="11.47160138538925"><ele>117.33333333333334</ele><time>2026-04-10T11:48:31Z</time></trkpt><trkpt lat="45.68710750174881" lon="11.471432899667235"><ele>117.66666666666667</ele><time>2026-04-10T11:48:32Z</time></trkpt><trkpt lat="45.68721987666281" lon="11.471260163947393"><ele>118.0</ele><time>2026-04-10T11:48:33Z</time></trkpt><trkpt lat="45.6873086261535" lon="11.471092048300132"><ele>118.0</ele><time>2026-04-10T11:48:34Z</time></trkpt><trkpt lat="45.68738231173053" lon="11.470939036988215"><ele>118.0</ele><time>2026-04-10T11:48:35Z</time></trkpt><trkpt lat="45.687465811198194" lon="11.470811594617487"><ele>118.0</ele><time>2026-04-10T11:48:35.999Z</time></trkpt><trkpt lat="45.68757238084306" lon="11.470725562962492"><ele>118.0</ele><time>2026-04-10T11:48:36.999Z</time></trkpt><trkpt lat="45.6877126516781" lon="11.47071494122502"><ele>118.0</ele><time>2026-04-10T11:48:37.999Z</time></trkpt><trkpt lat="45.68781143276056" lon="11.470610377949724"><ele>118.00000000000001</ele><time>2026-04-10T11:48:38.999Z</time></trkpt><trkpt lat="45.68789084968626" lon="11.470504041489905"><ele>118.00000000000001</ele><time>2026-04-10T11:48:39.999Z</time></trkpt><trkpt lat="45.68793898148625" lon="11.470375481830818"><ele>118.0</ele><time>2026-04-10T11:48:40.999Z</time></trkpt><trkpt lat="45.68793521867765" lon="11.470225101606065"><ele>118.0</ele><time>2026-04-10T11:48:41.999Z</time></trkpt><trkpt lat="45.687932327737826" lon="11.470118461613316"><ele>118.0</ele><time>2026-04-10T11:48:42.999Z</time></trkpt><trkpt lat="45.68814119247064" lon="11.470088565529855"><ele>118.0</ele><time>2026-04-10T11:48:43.999Z</time></trkpt><trkpt lat="45.68826344327533" lon="11.47003521345804"><ele>118.0</ele><time>2026-04-10T11:48:44.999Z</time></trkpt><trkpt lat="45.68840961379625" lon="11.469962457526302"><ele>118.0</ele><time>2026-04-10T11:48:45.999Z</time></trkpt><trkpt lat="45.68856872298563" lon="11.469857687280856"><ele>118.0</ele><time>2026-04-10T11:48:46.999Z</time></trkpt><trkpt lat="45.688725335607266" lon="11.469765437630269"><ele>118.0</ele><time>2026-04-10T11:48:47.999Z</time></trkpt><trkpt lat="45.688854923354924" lon="11.469634739146308"><ele>118.33333333333334</ele><time>2026-04-10T11:48:48.999Z</time></trkpt><trkpt lat="45.68898252677309" lon="11.46947578862372"><ele>118.66666666666666</ele><time>2026-04-10T11:48:49.999Z</time></trkpt><trkpt lat="45.68910401448316" lon="11.469329828753596"><ele>119.0</ele><time>2026-04-10T11:48:50.999Z</time></trkpt><trkpt lat="45.689250522264075" lon="11.469163210433333"><ele>119.66666666666666</ele><time>2026-04-10T11:48:51.999Z</time></trkpt><trkpt lat="45.68942781547704" lon="11.468999744473077"><ele>120.33333333333334</ele><time>2026-04-10T11:48:52.999Z</time></trkpt><trkpt lat="45.6896283859891" lon="11.468834053052003"><ele>121.0</ele><time>2026-04-10T11:48:53.999Z</time></trkpt><trkpt lat="45.6898367660015" lon="11.468581402595703"><ele>121.0</ele><time>2026-04-10T11:48:54.999Z</time></trkpt><trkpt lat="45.6900664665461" lon="11.468345244927512"><ele>121.0</ele><time>2026-04-10T11:48:55.999Z</time></trkpt><trkpt lat="45.6903080227272" lon="11.468086892099299"><ele>121.5</ele><time>2026-04-10T11:48:56.999Z</time></trkpt><trkpt lat="45.690555411060274" lon="11.467815027289063"><ele>122.0</ele><time>2026-04-10T11:48:57.999Z</time></trkpt><trkpt lat="45.69080564632791" lon="11.467542131824846"><ele>122.0</ele><time>2026-04-10T11:48:58.999Z</time></trkpt><trkpt lat="45.69102554454267" lon="11.467305771262152"><ele>122.0</ele><time>2026-04-10T11:48:59.999Z</time></trkpt><trkpt lat="45.69120466573019" lon="11.467115241018764"><ele>122.66666666666666</ele><time>2026-04-10T11:49:00.999Z</time></trkpt><trkpt lat="45.691351005305684" lon="11.466955224716164"><ele>123.33333333333334</ele><time>2026-04-10T11:49:01.999Z</time></trkpt><trkpt lat="45.69148440595541" lon="11.466824666018832"><ele>124.0</ele><time>2026-04-10T11:49:02.999Z</time></trkpt><trkpt lat="45.69160367040519" lon="11.466690201678436"><ele>124.0</ele><time>2026-04-10T11:49:03.999Z</time></trkpt><trkpt lat="45.69171586519308" lon="11.466565729211343"><ele>124.0</ele><time>2026-04-10T11:49:04.999Z</time></trkpt><trkpt lat="45.691822812969676" lon="11.466452181766503"><ele>124.0</ele><time>2026-04-10T11:49:05.999Z</time></trkpt><trkpt lat="45.691921925253375" lon="11.466355921222107"><ele>124.0</ele><time>2026-04-10T11:49:06.999Z</time></trkpt><trkpt lat="45.692012216466274" lon="11.466266382694684"><ele>124.2</ele><time>2026-04-10T11:49:07.999Z</time></trkpt><trkpt lat="45.69210016780781" lon="11.46616874289415"><ele>124.4</ele><time>2026-04-10T11:49:08.999Z</time></trkpt><trkpt lat="45.69218857917553" lon="11.46606894118266"><ele>124.6</ele><time>2026-04-10T11:49:09.999Z</time></trkpt><trkpt lat="45.69227714327718" lon="11.46597657107112"><ele>124.8</ele><time>2026-04-10T11:49:10.999Z</time></trkpt><trkpt lat="45.692352767452846" lon="11.465899910943408"><ele>125.0</ele><time>2026-04-10T11:49:11.999Z</time></trkpt><trkpt lat="45.69242597877547" lon="11.465834457028894"><ele>125.0</ele><time>2026-04-10T11:49:13.999Z</time></trkpt><trkpt lat="45.69247628806171" lon="11.465770226507443"><ele>125.0</ele><time>2026-04-10T11:49:15.999Z</time></trkpt><trkpt lat="45.692535115751056" lon="11.465712329079725"><ele>125.0</ele><time>2026-04-10T11:49:17.999Z</time></trkpt><trkpt lat="45.69258667210471" lon="11.465647163862627"><ele>125.0</ele><time>2026-04-10T11:49:19.999Z</time></trkpt><trkpt lat="45.692646351239624" lon="11.465578261281209"><ele>125.0</ele><time>2026-04-10T11:49:21.999Z</time></trkpt><trkpt lat="45.692690464454344" lon="11.465503974873116"><ele>125.0</ele><time>2026-04-10T11:49:23.999Z</time></trkpt><trkpt lat="45.69275075834774" lon="11.465417634358005"><ele>125.0</ele><time>2026-04-10T11:49:25.999Z</time></trkpt><trkpt lat="45.69283929337655" lon="11.465343452083992"><ele>125.16666666666666</ele><time>2026-04-10T11:49:32.999Z</time></trkpt><trkpt lat="45.69291192170252" lon="11.46529459863646"><ele>125.33333333333333</ele><time>2026-04-10T11:49:33.999Z</time></trkpt><trkpt lat="45.69299299907443" lon="11.465255767021139"><ele>125.5</ele><time>2026-04-10T11:49:34.999Z</time></trkpt><trkpt lat="45.6930670651498" lon="11.465184764357337"><ele>125.66666666666666</ele><time>2026-04-10T11:49:35.999Z</time></trkpt><trkpt lat="45.693133300148915" lon="11.465059002922429"><ele>125.83333333333333</ele><time>2026-04-10T11:49:36.999Z</time></trkpt><trkpt lat="45.69318776652281" lon="11.464979124949865"><ele>126.0</ele><time>2026-04-10T11:49:37.999Z</time></trkpt><trkpt lat="45.69326731210838" lon="11.464913782811328"><ele>126.0</ele><time>2026-04-10T11:49:39.999Z</time></trkpt><trkpt lat="45.69332403803556" lon="11.464865351963907"><ele>126.0</ele><time>2026-04-10T11:49:41.998Z</time></trkpt><trkpt lat="45.693412650856125" lon="11.464777370155678"><ele>126.0</ele><time>2026-04-10T11:49:43.998Z</time></trkpt><trkpt lat="45.693480503422435" lon="11.464708116061274"><ele>126.0</ele><time>2026-04-10T11:49:44.998Z</time></trkpt><trkpt lat="45.69355519181151" lon="11.464621185233428"><ele>126.0</ele><time>2026-04-10T11:49:45.998Z</time></trkpt><trkpt lat="45.69363556354395" lon="11.464530271310407"><ele>126.5</ele><time>2026-04-10T11:49:46.998Z</time></trkpt><trkpt lat="45.69372315753232" lon="11.464430774784326"><ele>127.0</ele><time>2026-04-10T11:49:47.998Z</time></trkpt><trkpt lat="45.69383034871555" lon="11.464313358949836"><ele>127.5</ele><time>2026-04-10T11:49:48.998Z</time></trkpt><trkpt lat="45.69393955900392" lon="11.464196958317782"><ele>128.0</ele><time>2026-04-10T11:49:50Z</time></trkpt><trkpt lat="45.69405475940965" lon="11.464077408424105"><ele>128.0</ele><time>2026-04-10T11:49:51Z</time></trkpt><trkpt lat="45.69416207050483" lon="11.463967925344969"><ele>128.0</ele><time>2026-04-10T11:49:52Z</time></trkpt><trkpt lat="45.69425371423441" lon="11.46387729613559"><ele>128.0</ele><time>2026-04-10T11:49:53Z</time></trkpt><trkpt lat="45.69433979822743" lon="11.463790079367774"><ele>128.0</ele><time>2026-04-10T11:49:54Z</time></trkpt><trkpt lat="45.694429302945245" lon="11.463701104580691"><ele>129.0</ele><time>2026-04-10T11:49:55Z</time></trkpt><trkpt lat="45.694514929058165" lon="11.46360667273273"><ele>130.0</ele><time>2026-04-10T11:49:56Z</time></trkpt><trkpt lat="45.69461142111404" lon="11.463509548373866"><ele>131.0</ele><time>2026-04-10T11:49:57Z</time></trkpt><trkpt lat="45.69470585083133" lon="11.46340884346117"><ele>132.0</ele><time>2026-04-10T11:49:58Z</time></trkpt><trkpt lat="45.694794530807755" lon="11.463312217553288"><ele>132.0</ele><time>2026-04-10T11:49:59Z</time></trkpt><trkpt lat="45.69488673553589" lon="11.463220749073077"><ele>132.0</ele><time>2026-04-10T11:50:00Z</time></trkpt><trkpt lat="45.694972369594446" lon="11.463129192388056"><ele>132.0</ele><time>2026-04-10T11:50:01Z</time></trkpt><trkpt lat="45.69506326330716" lon="11.46302962163783"><ele>132.0</ele><time>2026-04-10T11:50:02Z</time></trkpt><trkpt lat="45.6951522131571" lon="11.462934277168785"><ele>132.0</ele><time>2026-04-10T11:50:03Z</time></trkpt><trkpt lat="45.69523945604635" lon="11.462842098193875"><ele>131.75</ele><time>2026-04-10T11:50:04Z</time></trkpt><trkpt lat="45.6953302811524" lon="11.462745970684155"><ele>131.5</ele><time>2026-04-10T11:50:05Z</time></trkpt><trkpt lat="45.695423124606805" lon="11.46264627619441"><ele>131.25</ele><time>2026-04-10T11:50:06Z</time></trkpt><trkpt lat="45.695520468716374" lon="11.462551906350688"><ele>131.0</ele><time>2026-04-10T11:50:07Z</time></trkpt><trkpt lat="45.69561512165657" lon="11.46245079235922"><ele>131.0</ele><time>2026-04-10T11:50:08Z</time></trkpt><trkpt lat="45.69571500166911" lon="11.462346473962313"><ele>131.0</ele><time>2026-04-10T11:50:09Z</time></trkpt><trkpt lat="45.695813931049564" lon="11.46223498050787"><ele>131.0</ele><time>2026-04-10T11:50:10Z</time></trkpt><trkpt lat="45.695915834692066" lon="11.462122282659987"><ele>131.0</ele><time>2026-04-10T11:50:11Z</time></trkpt><trkpt lat="45.69601359888345" lon="11.462014348275488"><ele>131.5</ele><time>2026-04-10T11:50:12Z</time></trkpt><trkpt lat="45.69610993742825" lon="11.461913759212797"><ele>132.0</ele><time>2026-04-10T11:50:13Z</time></trkpt><trkpt lat="45.69620731483144" lon="11.461813376562528"><ele>132.5</ele><time>2026-04-10T11:50:14Z</time></trkpt><trkpt lat="45.696304152917776" lon="11.461709025215473"><ele>133.0</ele><time>2026-04-10T11:50:15Z</time></trkpt><trkpt lat="45.69639760273572" lon="11.461611257746716"><ele>133.0</ele><time>2026-04-10T11:50:16Z</time></trkpt><trkpt lat="45.696483675505576" lon="11.461519925597264"><ele>133.0</ele><time>2026-04-10T11:50:17Z</time></trkpt><trkpt lat="45.696564944914456" lon="11.461438220221469"><ele>133.0</ele><time>2026-04-10T11:50:18Z</time></trkpt><trkpt lat="45.69663803490033" lon="11.461357231013864"><ele>133.0</ele><time>2026-04-10T11:50:19Z</time></trkpt><trkpt lat="45.6967188549555" lon="11.461272437181748"><ele>133.0</ele><time>2026-04-10T11:50:20Z</time></trkpt><trkpt lat="45.69679725170267" lon="11.461191054156705"><ele>133.0</ele><time>2026-04-10T11:50:21Z</time></trkpt><trkpt lat="45.69687468857403" lon="11.461107703403915"><ele>133.0</ele><time>2026-04-10T11:50:22Z</time></trkpt><trkpt lat="45.69694573011666" lon="11.461038274428367"><ele>133.0</ele><time>2026-04-10T11:50:23Z</time></trkpt><trkpt lat="45.69700816408258" lon="11.460980615167882"><ele>133.0</ele><time>2026-04-10T11:50:24Z</time></trkpt><trkpt lat="45.69709929034034" lon="11.46089030297709"><ele>133.0</ele><time>2026-04-10T11:50:26Z</time></trkpt><trkpt lat="45.697177614525366" lon="11.460832670521155"><ele>132.83333333333334</ele><time>2026-04-10T11:50:28Z</time></trkpt><trkpt lat="45.69726714494572" lon="11.460779132487747"><ele>132.66666666666669</ele><time>2026-04-10T11:50:30Z</time></trkpt><trkpt lat="45.697333056743595" lon="11.460778623685773"><ele>132.5</ele><time>2026-04-10T11:50:32Z</time></trkpt><trkpt lat="45.69742136655118" lon="11.460762847437145"><ele>132.33333333333334</ele><time>2026-04-10T11:50:35Z</time></trkpt><trkpt lat="45.69748676637871" lon="11.460768238670989"><ele>132.16666666666666</ele><time>2026-04-10T11:50:36Z</time></trkpt><trkpt lat="45.69757916538106" lon="11.460763920851354"><ele>132.0</ele><time>2026-04-10T11:50:37Z</time></trkpt><trkpt lat="45.697686887037456" lon="11.46071735357547"><ele>132.16666666666666</ele><time>2026-04-10T11:50:38Z</time></trkpt><trkpt lat="45.69777081122058" lon="11.460631933799457"><ele>132.33333333333334</ele><time>2026-04-10T11:50:39Z</time></trkpt><trkpt lat="45.69782884685308" lon="11.460529461367969"><ele>132.5</ele><time>2026-04-10T11:50:40Z</time></trkpt><trkpt lat="45.69786504648914" lon="11.460422088166244"><ele>132.66666666666669</ele><time>2026-04-10T11:50:41Z</time></trkpt><trkpt lat="45.69788121865753" lon="11.460310330314357"><ele>132.83333333333334</ele><time>2026-04-10T11:50:42Z</time></trkpt><trkpt lat="45.69786852225281" lon="11.460204357754467"><ele>133.0</ele><time>2026-04-10T11:50:43Z</time></trkpt><trkpt lat="45.697915067144095" lon="11.460001188742218"><ele>133.5</ele><time>2026-04-10T11:50:45Z</time></trkpt><trkpt lat="45.697949755259614" lon="11.459918253832505"><ele>134.0</ele><time>2026-04-10T11:50:46Z</time></trkpt><trkpt lat="45.697994717933526" lon="11.459845472047645"><ele>134.5</ele><time>2026-04-10T11:50:47Z</time></trkpt><trkpt lat="45.69804761471987" lon="11.459757517426315"><ele>135.0</ele><time>2026-04-10T11:50:48Z</time></trkpt><trkpt lat="45.6981107439424" lon="11.459659143880023"><ele>135.5</ele><time>2026-04-10T11:50:49Z</time></trkpt><trkpt lat="45.69818428100827" lon="11.459557530045574"><ele>136.0</ele><time>2026-04-10T11:50:50Z</time></trkpt><trkpt lat="45.69827197671063" lon="11.459446720382326"><ele>136.0</ele><time>2026-04-10T11:50:50.999Z</time></trkpt><trkpt lat="45.69836735561652" lon="11.459329209709006"><ele>136.0</ele><time>2026-04-10T11:50:51.999Z</time></trkpt><trkpt lat="45.698446792743226" lon="11.459236025132252"><ele>136.0</ele><time>2026-04-10T11:50:52.999Z</time></trkpt><trkpt lat="45.69852154140177" lon="11.459140807767378"><ele>136.0</ele><time>2026-04-10T11:50:53.999Z</time></trkpt><trkpt lat="45.69860134390213" lon="11.459045858863114"><ele>136.0</ele><time>2026-04-10T11:50:54.999Z</time></trkpt><trkpt lat="45.6986835388576" lon="11.458956181492232"><ele>135.75</ele><time>2026-04-10T11:50:55.999Z</time></trkpt><trkpt lat="45.69876847287939" lon="11.458861246626578"><ele>135.5</ele><time>2026-04-10T11:50:56.999Z</time></trkpt><trkpt lat="45.69886592652081" lon="11.458755130480014"><ele>135.25</ele><time>2026-04-10T11:50:57.999Z</time></trkpt><trkpt lat="45.69896502467397" lon="11.458649200679956"><ele>135.0</ele><time>2026-04-10T11:50:58.999Z</time></trkpt><trkpt lat="45.699064256720455" lon="11.458545506033099"><ele>135.0</ele><time>2026-04-10T11:50:59.999Z</time></trkpt><trkpt lat="45.69917172396946" lon="11.45843863209721"><ele>135.0</ele><time>2026-04-10T11:51:00.999Z</time></trkpt><trkpt lat="45.699268939766576" lon="11.458348384005737"><ele>135.0</ele><time>2026-04-10T11:51:01.999Z</time></trkpt><trkpt lat="45.6993651208727" lon="11.458257067003446"><ele>135.0</ele><time>2026-04-10T11:51:02.999Z</time></trkpt><trkpt lat="45.69946778302128" lon="11.45816151546452"><ele>135.25</ele><time>2026-04-10T11:51:03.999Z</time></trkpt><trkpt lat="45.69957769075225" lon="11.458055179776926"><ele>135.5</ele><time>2026-04-10T11:51:04.999Z</time></trkpt><trkpt lat="45.69969119150376" lon="11.457947421641306"><ele>135.75</ele><time>2026-04-10T11:51:05.999Z</time></trkpt><trkpt lat="45.699809459902106" lon="11.457833755952516"><ele>136.0</ele><time>2026-04-10T11:51:06.999Z</time></trkpt><trkpt lat="45.699933007783855" lon="11.457713445532976"><ele>136.0</ele><time>2026-04-10T11:51:07.999Z</time></trkpt><trkpt lat="45.70006269340626" lon="11.457590951052042"><ele>136.0</ele><time>2026-04-10T11:51:08.999Z</time></trkpt><trkpt lat="45.70019679611488" lon="11.457471528188707"><ele>136.0</ele><time>2026-04-10T11:51:09.999Z</time></trkpt><trkpt lat="45.700325104909105" lon="11.457359816963884"><ele>136.5</ele><time>2026-04-10T11:51:10.999Z</time></trkpt><trkpt lat="45.70044821692886" lon="11.457249349686778"><ele>137.0</ele><time>2026-04-10T11:51:11.999Z</time></trkpt><trkpt lat="45.70057263280116" lon="11.45713937488414"><ele>137.5</ele><time>2026-04-10T11:51:12.999Z</time></trkpt><trkpt lat="45.70070334472999" lon="11.457016570325608"><ele>138.0</ele><time>2026-04-10T11:51:13.999Z</time></trkpt><trkpt lat="45.700839504372155" lon="11.456888233877724"><ele>138.33333333333334</ele><time>2026-04-10T11:51:14.999Z</time></trkpt><trkpt lat="45.70098350402466" lon="11.456752826364557"><ele>138.66666666666669</ele><time>2026-04-10T11:51:15.999Z</time></trkpt><trkpt lat="45.701132861405824" lon="11.456619386909876"><ele>139.0</ele><time>2026-04-10T11:51:16.999Z</time></trkpt><trkpt lat="45.70128336902548" lon="11.456482572864656"><ele>139.33333333333334</ele><time>2026-04-10T11:51:17.999Z</time></trkpt><trkpt lat="45.7014388581829" lon="11.456341363825146"><ele>139.66666666666666</ele><time>2026-04-10T11:51:18.999Z</time></trkpt><trkpt lat="45.70159956454429" lon="11.456206888678524"><ele>140.0</ele><time>2026-04-10T11:51:19.999Z</time></trkpt><trkpt lat="45.70175766248905" lon="11.456068292875187"><ele>141.33333333333331</ele><time>2026-04-10T11:51:20.999Z</time></trkpt><trkpt lat="45.701915789138894" lon="11.455931322997094"><ele>142.66666666666666</ele><time>2026-04-10T11:51:21.999Z</time></trkpt><trkpt lat="45.70206697469902" lon="11.455787891301037"><ele>144.0</ele><time>2026-04-10T11:51:22.999Z</time></trkpt><trkpt lat="45.702220691805444" lon="11.455651273669677"><ele>144.0</ele><time>2026-04-10T11:51:23.999Z</time></trkpt><trkpt lat="45.70236540159713" lon="11.455520656340239"><ele>144.0</ele><time>2026-04-10T11:51:24.999Z</time></trkpt><trkpt lat="45.7025097159029" lon="11.45538394317096"><ele>144.0</ele><time>2026-04-10T11:51:25.999Z</time></trkpt><trkpt lat="45.70266097395956" lon="11.455246183699742"><ele>144.0</ele><time>2026-04-10T11:51:26.999Z</time></trkpt><trkpt lat="45.702816615554894" lon="11.455103875629465"><ele>144.0</ele><time>2026-04-10T11:51:27.999Z</time></trkpt><trkpt lat="45.702974811366985" lon="11.454965329678545"><ele>144.0</ele><time>2026-04-10T11:51:28.999Z</time></trkpt><trkpt lat="45.70312929733459" lon="11.45482756819855"><ele>144.0</ele><time>2026-04-10T11:51:29.999Z</time></trkpt><trkpt lat="45.703286678466576" lon="11.454676806847788"><ele>144.0</ele><time>2026-04-10T11:51:30.999Z</time></trkpt><trkpt lat="45.70344752030071" lon="11.454513930348128"><ele>144.0</ele><time>2026-04-10T11:51:31.999Z</time></trkpt><trkpt lat="45.703607615502925" lon="11.454348623381842"><ele>144.0</ele><time>2026-04-10T11:51:32.999Z</time></trkpt><trkpt lat="45.70375903216013" lon="11.454196442111781"><ele>144.0</ele><time>2026-04-10T11:51:33.999Z</time></trkpt><trkpt lat="45.703904386500426" lon="11.45404662373187"><ele>144.0</ele><time>2026-04-10T11:51:34.999Z</time></trkpt><trkpt lat="45.704049926057316" lon="11.453887790891795"><ele>144.0</ele><time>2026-04-10T11:51:35.999Z</time></trkpt><trkpt lat="45.70419719398172" lon="11.45372678197876"><ele>144.0</ele><time>2026-04-10T11:51:36.999Z</time></trkpt><trkpt lat="45.70434364476355" lon="11.453556868819808"><ele>144.0</ele><time>2026-04-10T11:51:37.999Z</time></trkpt><trkpt lat="45.704484840658914" lon="11.45337966797399"><ele>145.0</ele><time>2026-04-10T11:51:38.999Z</time></trkpt><trkpt lat="45.70462279258885" lon="11.453196349746948"><ele>146.0</ele><time>2026-04-10T11:51:39.999Z</time></trkpt><trkpt lat="45.70476444597615" lon="11.453013420249475"><ele>147.0</ele><time>2026-04-10T11:51:40.999Z</time></trkpt><trkpt lat="45.70489550688168" lon="11.452823473090088"><ele>147.0</ele><time>2026-04-10T11:51:41.999Z</time></trkpt><trkpt lat="45.70502509185427" lon="11.45263578919674"><ele>147.0</ele><time>2026-04-10T11:51:42.999Z</time></trkpt><trkpt lat="45.705148248555766" lon="11.452454798379774"><ele>147.0</ele><time>2026-04-10T11:51:43.999Z</time></trkpt><trkpt lat="45.70526715820872" lon="11.452261687837431"><ele>147.33333333333334</ele><time>2026-04-10T11:51:44.999Z</time></trkpt><trkpt lat="45.70539098928484" lon="11.452064197372493"><ele>147.66666666666669</ele><time>2026-04-10T11:51:45.999Z</time></trkpt><trkpt lat="45.70550651178975" lon="11.451854116713216"><ele>148.0</ele><time>2026-04-10T11:51:46.999Z</time></trkpt><trkpt lat="45.7056238956251" lon="11.45164976927939"><ele>148.0</ele><time>2026-04-10T11:51:47.999Z</time></trkpt><trkpt lat="45.705739627885734" lon="11.451445139328696"><ele>148.0</ele><time>2026-04-10T11:51:48.999Z</time></trkpt><trkpt lat="45.70584744565385" lon="11.451232569384924"><ele>148.0</ele><time>2026-04-10T11:51:49.999Z</time></trkpt><trkpt lat="45.705958083300104" lon="11.451023691314939"><ele>148.66666666666669</ele><time>2026-04-10T11:51:50.999Z</time></trkpt><trkpt lat="45.70606539213583" lon="11.450810908475004"><ele>149.33333333333334</ele><time>2026-04-10T11:51:51.999Z</time></trkpt><trkpt lat="45.70617425817808" lon="11.450591648773514"><ele>150.0</ele><time>2026-04-10T11:51:52.998Z</time></trkpt><trkpt lat="45.70628814362788" lon="11.450373331304608"><ele>150.33333333333334</ele><time>2026-04-10T11:51:53.998Z</time></trkpt><trkpt lat="45.70640217887752" lon="11.450148236111428"><ele>150.66666666666669</ele><time>2026-04-10T11:51:54.998Z</time></trkpt><trkpt lat="45.70651573224849" lon="11.44991259036375"><ele>151.0</ele><time>2026-04-10T11:51:56.001Z</time></trkpt><trkpt lat="45.70663910493467" lon="11.449651656551532"><ele>151.0</ele><time>2026-04-10T11:51:57.001Z</time></trkpt><trkpt lat="45.706771642545725" lon="11.449367862296134"><ele>151.0</ele><time>2026-04-10T11:51:58.001Z</time></trkpt><trkpt lat="45.70691920455651" lon="11.449077606903552"><ele>151.5</ele><time>2026-04-10T11:51:59.001Z</time></trkpt><trkpt lat="45.70708339067866" lon="11.448791445472922"><ele>152.0</ele><time>2026-04-10T11:52:00.001Z</time></trkpt><trkpt lat="45.70723275126315" lon="11.44846712407312"><ele>152.0</ele><time>2026-04-10T11:52:01.001Z</time></trkpt><trkpt lat="45.70740141280428" lon="11.44814961711326"><ele>152.0</ele><time>2026-04-10T11:52:02.001Z</time></trkpt><trkpt lat="45.70757493238575" lon="11.4478239073155"><ele>152.0</ele><time>2026-04-10T11:52:03.001Z</time></trkpt><trkpt lat="45.707749901867764" lon="11.447485432973888"><ele>152.0</ele><time>2026-04-10T11:52:04.001Z</time></trkpt><trkpt lat="45.707922421229796" lon="11.447150828167773"><ele>152.5</ele><time>2026-04-10T11:52:05.001Z</time></trkpt><trkpt lat="45.708087529936435" lon="11.446823406988182"><ele>153.0</ele><time>2026-04-10T11:52:06.001Z</time></trkpt><trkpt lat="45.70824890220123" lon="11.446502111327447"><ele>153.0</ele><time>2026-04-10T11:52:07Z</time></trkpt><trkpt lat="45.70841600560632" lon="11.446178351386827"><ele>153.0</ele><time>2026-04-10T11:52:08Z</time></trkpt><trkpt lat="45.70857718749005" lon="11.44585648425077"><ele>153.0</ele><time>2026-04-10T11:52:09Z</time></trkpt><trkpt lat="45.708744525669246" lon="11.445524377435822"><ele>153.0</ele><time>2026-04-10T11:52:10Z</time></trkpt><trkpt lat="45.7089116915924" lon="11.445189404310266"><ele>153.0</ele><time>2026-04-10T11:52:11Z</time></trkpt><trkpt lat="45.709079775937624" lon="11.444853302447815"><ele>153.0</ele><time>2026-04-10T11:52:12Z</time></trkpt><trkpt lat="45.70924894730436" lon="11.444515824274834"><ele>154.5</ele><time>2026-04-10T11:52:13Z</time></trkpt><trkpt lat="45.70942128108762" lon="11.444175829834236"><ele>156.0</ele><time>2026-04-10T11:52:14Z</time></trkpt><trkpt lat="45.70959040972907" lon="11.443836440773657"><ele>155.0</ele><time>2026-04-10T11:52:15Z</time></trkpt><trkpt lat="45.70976186070699" lon="11.443502998951374"><ele>154.0</ele><time>2026-04-10T11:52:16Z</time></trkpt><trkpt lat="45.70993154748706" lon="11.44316683994848"><ele>154.0</ele><time>2026-04-10T11:52:17Z</time></trkpt><trkpt lat="45.71010272769187" lon="11.442828270574118"><ele>154.0</ele><time>2026-04-10T11:52:18Z</time></trkpt><trkpt lat="45.710276985860226" lon="11.44248648493501"><ele>154.5</ele><time>2026-04-10T11:52:19Z</time></trkpt><trkpt lat="45.71045676283663" lon="11.442134222327898"><ele>155.0</ele><time>2026-04-10T11:52:20Z</time></trkpt><trkpt lat="45.71063491250231" lon="11.441783243910773"><ele>155.0</ele><time>2026-04-10T11:52:21Z</time></trkpt><trkpt lat="45.710812146572515" lon="11.441433746270125"><ele>155.0</ele><time>2026-04-10T11:52:22Z</time></trkpt><trkpt lat="45.71099293441505" lon="11.44107723906601"><ele>155.0</ele><time>2026-04-10T11:52:23Z</time></trkpt><trkpt lat="45.71116845912264" lon="11.440727931463764"><ele>155.0</ele><time>2026-04-10T11:52:24Z</time></trkpt><trkpt lat="45.711344007072334" lon="11.440378603458662"><ele>155.0</ele><time>2026-04-10T11:52:25Z</time></trkpt><trkpt lat="45.711527357322296" lon="11.440024794906051"><ele>155.0</ele><time>2026-04-10T11:52:26Z</time></trkpt><trkpt lat="45.71170242993076" lon="11.439675590286674"><ele>154.5</ele><time>2026-04-10T11:52:27Z</time></trkpt><trkpt lat="45.71187881024597" lon="11.439330180194673"><ele>154.0</ele><time>2026-04-10T11:52:28Z</time></trkpt><trkpt lat="45.71205468371525" lon="11.43898682010866"><ele>156.5</ele><time>2026-04-10T11:52:29Z</time></trkpt><trkpt lat="45.71222363484474" lon="11.438652793738118"><ele>159.0</ele><time>2026-04-10T11:52:30Z</time></trkpt><trkpt lat="45.71238378436343" lon="11.43832853715537"><ele>159.0</ele><time>2026-04-10T11:52:31Z</time></trkpt><trkpt lat="45.71254109207691" lon="11.438020665083892"><ele>159.0</ele><time>2026-04-10T11:52:32Z</time></trkpt><trkpt lat="45.71268029271119" lon="11.437734038654671"><ele>158.66666666666666</ele><time>2026-04-10T11:52:33Z</time></trkpt><trkpt lat="45.712815667849384" lon="11.437468427700013"><ele>158.33333333333331</ele><time>2026-04-10T11:52:34Z</time></trkpt><trkpt lat="45.71294211275933" lon="11.43722112821104"><ele>158.0</ele><time>2026-04-10T11:52:35Z</time></trkpt><trkpt lat="45.71307142053981" lon="11.43696256605972"><ele>158.0</ele><time>2026-04-10T11:52:36Z</time></trkpt><trkpt lat="45.71320685621083" lon="11.43670001641491"><ele>158.0</ele><time>2026-04-10T11:52:37Z</time></trkpt><trkpt lat="45.71333963656162" lon="11.436431491987793"><ele>159.0</ele><time>2026-04-10T11:52:38Z</time></trkpt><trkpt lat="45.71347747320106" lon="11.436163396215965"><ele>160.0</ele><time>2026-04-10T11:52:39Z</time></trkpt><trkpt lat="45.71361237254661" lon="11.43589589251018"><ele>160.0</ele><time>2026-04-10T11:52:40Z</time></trkpt><trkpt lat="45.713738920808034" lon="11.435645541909347"><ele>160.0</ele><time>2026-04-10T11:52:41Z</time></trkpt><trkpt lat="45.713862555594574" lon="11.435393735428868"><ele>160.0</ele><time>2026-04-10T11:52:42Z</time></trkpt><trkpt lat="45.71398354724536" lon="11.43515340234257"><ele>160.0</ele><time>2026-04-10T11:52:43Z</time></trkpt><trkpt lat="45.71409816327444" lon="11.434922991799588"><ele>160.0</ele><time>2026-04-10T11:52:44Z</time></trkpt><trkpt lat="45.714216477182795" lon="11.434691053071768"><ele>160.0</ele><time>2026-04-10T11:52:45Z</time></trkpt><trkpt lat="45.71433508322169" lon="11.434444679928125"><ele>161.5</ele><time>2026-04-10T11:52:46Z</time></trkpt><trkpt lat="45.71446430135229" lon="11.434178695118357"><ele>163.0</ele><time>2026-04-10T11:52:47Z</time></trkpt><trkpt lat="45.71459973275841" lon="11.433902596207641"><ele>162.5</ele><time>2026-04-10T11:52:48Z</time></trkpt><trkpt lat="45.71473888489708" lon="11.433624606641406"><ele>162.0</ele><time>2026-04-10T11:52:49Z</time></trkpt><trkpt lat="45.71487318321834" lon="11.433366065996848"><ele>162.0</ele><time>2026-04-10T11:52:50Z</time></trkpt><trkpt lat="45.714998433658074" lon="11.433128481520452"><ele>162.0</ele><time>2026-04-10T11:52:51Z</time></trkpt><trkpt lat="45.71511840122963" lon="11.43290984711816"><ele>162.0</ele><time>2026-04-10T11:52:52Z</time></trkpt><trkpt lat="45.71523587949771" lon="11.432692398421315"><ele>162.0</ele><time>2026-04-10T11:52:53Z</time></trkpt><trkpt lat="45.71535356339374" lon="11.432486982628177"><ele>162.0</ele><time>2026-04-10T11:52:54Z</time></trkpt><trkpt lat="45.71546741187079" lon="11.432301507548301"><ele>162.0</ele><time>2026-04-10T11:52:55Z</time></trkpt><trkpt lat="45.715573765293655" lon="11.432121862804749"><ele>162.0</ele><time>2026-04-10T11:52:56Z</time></trkpt><trkpt lat="45.71567088638796" lon="11.431955553424325"><ele>162.0</ele><time>2026-04-10T11:52:57Z</time></trkpt><trkpt lat="45.715766514641786" lon="11.431801755189097"><ele>162.0</ele><time>2026-04-10T11:52:58Z</time></trkpt><trkpt lat="45.71585860981273" lon="11.431665692792883"><ele>162.0</ele><time>2026-04-10T11:52:58.999Z</time></trkpt><trkpt lat="45.71595076068642" lon="11.431534326359614"><ele>162.0</ele><time>2026-04-10T11:52:59.999Z</time></trkpt><trkpt lat="45.716050277063225" lon="11.431391577226702"><ele>162.0</ele><time>2026-04-10T11:53:00.999Z</time></trkpt><trkpt lat="45.71615362471449" lon="11.431243228627439"><ele>162.0</ele><time>2026-04-10T11:53:01.999Z</time></trkpt><trkpt lat="45.71625903845299" lon="11.431089297533799"><ele>162.0</ele><time>2026-04-10T11:53:02.999Z</time></trkpt><trkpt lat="45.71636567027894" lon="11.43093825513472"><ele>162.5</ele><time>2026-04-10T11:53:03.999Z</time></trkpt><trkpt lat="45.716478696071505" lon="11.430801340214936"><ele>163.0</ele><time>2026-04-10T11:53:04.999Z</time></trkpt><trkpt lat="45.71660244397431" lon="11.430694131904598"><ele>163.5</ele><time>2026-04-10T11:53:05.999Z</time></trkpt><trkpt lat="45.71672840151709" lon="11.430621341428305"><ele>164.0</ele><time>2026-04-10T11:53:06.999Z</time></trkpt><trkpt lat="45.716852535106725" lon="11.43059508808369"><ele>164.25</ele><time>2026-04-10T11:53:07.999Z</time></trkpt><trkpt lat="45.71698007439506" lon="11.430596529410533"><ele>164.5</ele><time>2026-04-10T11:53:08.999Z</time></trkpt><trkpt lat="45.71710751292452" lon="11.430606100780148"><ele>164.75</ele><time>2026-04-10T11:53:09.999Z</time></trkpt><trkpt lat="45.71723320966587" lon="11.430620595778795"><ele>165.0</ele><time>2026-04-10T11:53:10.999Z</time></trkpt><trkpt lat="45.717347938852654" lon="11.430629019940262"><ele>165.0</ele><time>2026-04-10T11:53:11.999Z</time></trkpt><trkpt lat="45.717458052458525" lon="11.43061654804129"><ele>165.0</ele><time>2026-04-10T11:53:12.999Z</time></trkpt><trkpt lat="45.71756065741198" lon="11.430568464999364"><ele>165.0</ele><time>2026-04-10T11:53:13.999Z</time></trkpt><trkpt lat="45.71765391071872" lon="11.430469471516815"><ele>165.0</ele><time>2026-04-10T11:53:14.999Z</time></trkpt><trkpt lat="45.71772481566727" lon="11.430321555400807"><ele>165.25</ele><time>2026-04-10T11:53:15.999Z</time></trkpt><trkpt lat="45.71776497185581" lon="11.430140373512272"><ele>165.5</ele><time>2026-04-10T11:53:16.999Z</time></trkpt><trkpt lat="45.71777304419354" lon="11.429936898479161"><ele>165.75</ele><time>2026-04-10T11:53:17.999Z</time></trkpt><trkpt lat="45.7177461725309" lon="11.42973364804657"><ele>166.0</ele><time>2026-04-10T11:53:18.999Z</time></trkpt><trkpt lat="45.71769410173778" lon="11.429535477421997"><ele>166.0</ele><time>2026-04-10T11:53:19.999Z</time></trkpt><trkpt lat="45.71762882142754" lon="11.42933955538177"><ele>166.0</ele><time>2026-04-10T11:53:20.999Z</time></trkpt><trkpt lat="45.71755700587354" lon="11.429142770326584"><ele>166.0</ele><time>2026-04-10T11:53:21.999Z</time></trkpt><trkpt lat="45.71748988598541" lon="11.428949948230269"><ele>166.0</ele><time>2026-04-10T11:53:22.999Z</time></trkpt><trkpt lat="45.71742332249975" lon="11.428764401610263"><ele>166.0</ele><time>2026-04-10T11:53:23.999Z</time></trkpt><trkpt lat="45.717365047014155" lon="11.42855627121775"><ele>166.0</ele><time>2026-04-10T11:53:24.999Z</time></trkpt><trkpt lat="45.717305107620476" lon="11.428361032225565"><ele>166.0</ele><time>2026-04-10T11:53:25.999Z</time></trkpt><trkpt lat="45.71723739366039" lon="11.42820962824165"><ele>166.0</ele><time>2026-04-10T11:53:26.999Z</time></trkpt><trkpt lat="45.71716879303102" lon="11.428028007143244"><ele>166.0</ele><time>2026-04-10T11:53:27.999Z</time></trkpt><trkpt lat="45.717097694859625" lon="11.427832124556529"><ele>166.0</ele><time>2026-04-10T11:53:28.999Z</time></trkpt><trkpt lat="45.71701299809884" lon="11.427627168778043"><ele>167.0</ele><time>2026-04-10T11:53:29.999Z</time></trkpt><trkpt lat="45.716924659257266" lon="11.427414435486442"><ele>168.0</ele><time>2026-04-10T11:53:30.999Z</time></trkpt><trkpt lat="45.71683073223982" lon="11.427199878417781"><ele>169.0</ele><time>2026-04-10T11:53:31.999Z</time></trkpt><trkpt lat="45.71673559033848" lon="11.426984005343721"><ele>166.66666666666669</ele><time>2026-04-10T11:53:32.999Z</time></trkpt><trkpt lat="45.71663677024581" lon="11.426775533446047"><ele>164.33333333333334</ele><time>2026-04-10T11:53:33.999Z</time></trkpt><trkpt lat="45.71654026777249" lon="11.426572892522351"><ele>162.0</ele><time>2026-04-10T11:53:34.999Z</time></trkpt><trkpt lat="45.71645162725338" lon="11.426384266674145"><ele>162.33333333333334</ele><time>2026-04-10T11:53:35.999Z</time></trkpt><trkpt lat="45.71636364878394" lon="11.426203128407485"><ele>162.66666666666669</ele><time>2026-04-10T11:53:36.999Z</time></trkpt><trkpt lat="45.71627913722603" lon="11.426019231497857"><ele>163.0</ele><time>2026-04-10T11:53:37.999Z</time></trkpt><trkpt lat="45.71619118129847" lon="11.425832695188387"><ele>163.0</ele><time>2026-04-10T11:53:38.999Z</time></trkpt><trkpt lat="45.716099618687906" lon="11.425651273675145"><ele>163.0</ele><time>2026-04-10T11:53:39.999Z</time></trkpt><trkpt lat="45.71600898076364" lon="11.425479633615184"><ele>163.0</ele><time>2026-04-10T11:53:40.999Z</time></trkpt><trkpt lat="45.71592986444772" lon="11.425330400602412"><ele>163.0</ele><time>2026-04-10T11:53:41.999Z</time></trkpt><trkpt lat="45.71585118899334" lon="11.42519287637737"><ele>163.5</ele><time>2026-04-10T11:53:42.999Z</time></trkpt><trkpt lat="45.71578970615439" lon="11.425082927810417"><ele>164.0</ele><time>2026-04-10T11:53:43.999Z</time></trkpt><trkpt lat="45.715736436964754" lon="11.424985660122447"><ele>164.5</ele><time>2026-04-10T11:53:44.999Z</time></trkpt><trkpt lat="45.71568980840694" lon="11.424893323505774"><ele>165.0</ele><time>2026-04-10T11:53:45.999Z</time></trkpt><trkpt lat="45.71564952414489" lon="11.42481077472859"><ele>165.5</ele><time>2026-04-10T11:53:46.999Z</time></trkpt><trkpt lat="45.71562762844792" lon="11.424715569267713"><ele>166.0</ele><time>2026-04-10T11:53:47.999Z</time></trkpt><trkpt lat="45.71562218612257" lon="11.42459669817311"><ele>166.0</ele><time>2026-04-10T11:53:48.999Z</time></trkpt><trkpt lat="45.71562520178586" lon="11.424461847834749"><ele>166.0</ele><time>2026-04-10T11:53:49.999Z</time></trkpt><trkpt lat="45.71562032201559" lon="11.42432508629622"><ele>166.0</ele><time>2026-04-10T11:53:50.999Z</time></trkpt><trkpt lat="45.71558305170718" lon="11.424195584041412"><ele>166.0</ele><time>2026-04-10T11:53:51.999Z</time></trkpt><trkpt lat="45.715504488796434" lon="11.424082017527486"><ele>166.0</ele><time>2026-04-10T11:53:52.999Z</time></trkpt><trkpt lat="45.71538638430738" lon="11.42401941482192"><ele>166.0</ele><time>2026-04-10T11:53:53.999Z</time></trkpt><trkpt lat="45.715250937803404" lon="11.423972496335196"><ele>166.0</ele><time>2026-04-10T11:53:54.999Z</time></trkpt><trkpt lat="45.715118910619054" lon="11.423874476392225"><ele>166.0</ele><time>2026-04-10T11:53:55.999Z</time></trkpt><trkpt lat="45.71500717520146" lon="11.423691107445322"><ele>166.0</ele><time>2026-04-10T11:53:56.999Z</time></trkpt><trkpt lat="45.71490869818493" lon="11.423491137987167"><ele>166.0</ele><time>2026-04-10T11:53:57.999Z</time></trkpt><trkpt lat="45.71479428225528" lon="11.42328841138613"><ele>166.0</ele><time>2026-04-10T11:53:58.998Z</time></trkpt><trkpt lat="45.7146645726624" lon="11.423071704391287"><ele>165.66666666666669</ele><time>2026-04-10T11:53:59.998Z</time></trkpt><trkpt lat="45.71453501579922" lon="11.422855556698991"><ele>165.33333333333334</ele><time>2026-04-10T11:54:00.998Z</time></trkpt><trkpt lat="45.71440092804006" lon="11.422631113357184"><ele>165.0</ele><time>2026-04-10T11:54:02.001Z</time></trkpt><trkpt lat="45.714258720537316" lon="11.42240237317654"><ele>164.33333333333334</ele><time>2026-04-10T11:54:03.001Z</time></trkpt><trkpt lat="45.71411967854805" lon="11.42217248542163"><ele>163.66666666666669</ele><time>2026-04-10T11:54:04Z</time></trkpt><trkpt lat="45.71397664218307" lon="11.421940390676713"><ele>163.0</ele><time>2026-04-10T11:54:05.001Z</time></trkpt><trkpt lat="45.713826709867355" lon="11.421707115268484"><ele>162.0</ele><time>2026-04-10T11:54:06.001Z</time></trkpt><trkpt lat="45.71367912843691" lon="11.421475395783276"><ele>161.0</ele><time>2026-04-10T11:54:07.001Z</time></trkpt><trkpt lat="45.71351881412159" lon="11.421272660921598"><ele>160.0</ele><time>2026-04-10T11:54:08.001Z</time></trkpt><trkpt lat="45.713381883644225" lon="11.420990360631203"><ele>159.0</ele><time>2026-04-10T11:54:09.001Z</time></trkpt><trkpt lat="45.71323005224348" lon="11.42073549788565"><ele>158.0</ele><time>2026-04-10T11:54:10Z</time></trkpt><trkpt lat="45.713076039380155" lon="11.420474169163626"><ele>158.0</ele><time>2026-04-10T11:54:11Z</time></trkpt><trkpt lat="45.712924891228084" lon="11.420210653789857"><ele>158.0</ele><time>2026-04-10T11:54:12.001Z</time></trkpt><trkpt lat="45.71277405808509" lon="11.419943715054405"><ele>157.5</ele><time>2026-04-10T11:54:13Z</time></trkpt><trkpt lat="45.71262545471347" lon="11.419683447308191"><ele>157.0</ele><time>2026-04-10T11:54:14Z</time></trkpt><trkpt lat="45.71247819309123" lon="11.419425256662095"><ele>158.0</ele><time>2026-04-10T11:54:15Z</time></trkpt><trkpt lat="45.71233561766779" lon="11.41916379424979"><ele>159.0</ele><time>2026-04-10T11:54:16Z</time></trkpt><trkpt lat="45.71220622954567" lon="11.41891160634416"><ele>159.66666666666666</ele><time>2026-04-10T11:54:17Z</time></trkpt><trkpt lat="45.71209278257037" lon="11.418668430329705"><ele>160.33333333333331</ele><time>2026-04-10T11:54:18Z</time></trkpt><trkpt lat="45.71198901625272" lon="11.418409948565166"><ele>161.0</ele><time>2026-04-10T11:54:19Z</time></trkpt><trkpt lat="45.71189544531432" lon="11.418140521249407"><ele>159.66666666666666</ele><time>2026-04-10T11:54:20Z</time></trkpt><trkpt lat="45.711811444037025" lon="11.417867937420649"><ele>158.33333333333334</ele><time>2026-04-10T11:54:21Z</time></trkpt><trkpt lat="45.71173551605916" lon="11.417586305919281"><ele>157.0</ele><time>2026-04-10T11:54:22Z</time></trkpt><trkpt lat="45.71167026356296" lon="11.417292912060756"><ele>156.66666666666669</ele><time>2026-04-10T11:54:23Z</time></trkpt><trkpt lat="45.711608311038894" lon="11.41699363152188"><ele>156.33333333333334</ele><time>2026-04-10T11:54:24Z</time></trkpt><trkpt lat="45.711560067242154" lon="11.41669612173694"><ele>156.0</ele><time>2026-04-10T11:54:25Z</time></trkpt><trkpt lat="45.71152456400157" lon="11.416415039341569"><ele>155.66666666666666</ele><time>2026-04-10T11:54:26Z</time></trkpt><trkpt lat="45.71150608883868" lon="11.416143649142391"><ele>155.33333333333331</ele><time>2026-04-10T11:54:27Z</time></trkpt><trkpt lat="45.71149388686994" lon="11.415870580880926"><ele>155.0</ele><time>2026-04-10T11:54:28Z</time></trkpt><trkpt lat="45.71149020440897" lon="11.415602107644641"><ele>155.33333333333331</ele><time>2026-04-10T11:54:29Z</time></trkpt><trkpt lat="45.71149666416988" lon="11.415352548397147"><ele>155.66666666666666</ele><time>2026-04-10T11:54:30Z</time></trkpt><trkpt lat="45.711506468647734" lon="11.4151115856294"><ele>156.0</ele><time>2026-04-10T11:54:31Z</time></trkpt><trkpt lat="45.71152237302556" lon="11.414876452466089"><ele>156.0</ele><time>2026-04-10T11:54:32Z</time></trkpt><trkpt lat="45.71154706067431" lon="11.414625908909276"><ele>156.0</ele><time>2026-04-10T11:54:33Z</time></trkpt><trkpt lat="45.71157073507882" lon="11.414362618491143"><ele>156.0</ele><time>2026-04-10T11:54:34Z</time></trkpt><trkpt lat="45.7116002218158" lon="11.41408154748074"><ele>155.66666666666666</ele><time>2026-04-10T11:54:35Z</time></trkpt><trkpt lat="45.711629272251564" lon="11.413797469833943"><ele>155.33333333333331</ele><time>2026-04-10T11:54:36Z</time></trkpt><trkpt lat="45.71166003638342" lon="11.413497417001615"><ele>155.0</ele><time>2026-04-10T11:54:37Z</time></trkpt><trkpt lat="45.71168071936536" lon="11.413189748680319"><ele>154.66666666666666</ele><time>2026-04-10T11:54:38Z</time></trkpt><trkpt lat="45.711675832526204" lon="11.412897176745394"><ele>154.33333333333334</ele><time>2026-04-10T11:54:39Z</time></trkpt><trkpt lat="45.71165601708272" lon="11.412621611705687"><ele>154.0</ele><time>2026-04-10T11:54:40Z</time></trkpt><trkpt lat="45.71163539971167" lon="11.412340718185648"><ele>153.66666666666669</ele><time>2026-04-10T11:54:41Z</time></trkpt><trkpt lat="45.71159494380548" lon="11.4120507365588"><ele>153.33333333333334</ele><time>2026-04-10T11:54:42Z</time></trkpt><trkpt lat="45.711552589898616" lon="11.411753063918082"><ele>153.0</ele><time>2026-04-10T11:54:43Z</time></trkpt><trkpt lat="45.711518292245145" lon="11.411454276623344"><ele>153.33333333333334</ele><time>2026-04-10T11:54:44Z</time></trkpt><trkpt lat="45.71148211089653" lon="11.411155458348691"><ele>153.66666666666669</ele><time>2026-04-10T11:54:45Z</time></trkpt><trkpt lat="45.711453900153714" lon="11.41085297797684"><ele>154.0</ele><time>2026-04-10T11:54:46Z</time></trkpt><trkpt lat="45.71143454237567" lon="11.410540077050545"><ele>155.0</ele><time>2026-04-10T11:54:47Z</time></trkpt><trkpt lat="45.711417527187834" lon="11.410219366292683"><ele>156.0</ele><time>2026-04-10T11:54:48Z</time></trkpt><trkpt lat="45.71140426401436" lon="11.40989393107751"><ele>156.5</ele><time>2026-04-10T11:54:49Z</time></trkpt><trkpt lat="45.711396417391995" lon="11.409572721852383"><ele>157.0</ele><time>2026-04-10T11:54:50Z</time></trkpt><trkpt lat="45.711390170994186" lon="11.409248726059193"><ele>157.0</ele><time>2026-04-10T11:54:51Z</time></trkpt><trkpt lat="45.7113809461884" lon="11.408924484517172"><ele>157.0</ele><time>2026-04-10T11:54:52Z</time></trkpt><trkpt lat="45.7113786534938" lon="11.408602447399504"><ele>157.0</ele><time>2026-04-10T11:54:53Z</time></trkpt><trkpt lat="45.71137875446429" lon="11.408280450933338"><ele>157.0</ele><time>2026-04-10T11:54:54Z</time></trkpt><trkpt lat="45.71137960846753" lon="11.407945829554722"><ele>157.5</ele><time>2026-04-10T11:54:55Z</time></trkpt><trkpt lat="45.71138514770421" lon="11.407610933096231"><ele>158.0</ele><time>2026-04-10T11:54:56Z</time></trkpt><trkpt lat="45.71138235954785" lon="11.40728292931052"><ele>158.0</ele><time>2026-04-10T11:54:57Z</time></trkpt><trkpt lat="45.71138181151629" lon="11.406958515718062"><ele>158.0</ele><time>2026-04-10T11:54:58Z</time></trkpt><trkpt lat="45.71137970279312" lon="11.406646133539732"><ele>158.0</ele><time>2026-04-10T11:54:59Z</time></trkpt><trkpt lat="45.71138089317316" lon="11.406324992674428"><ele>158.33333333333331</ele><time>2026-04-10T11:55:00Z</time></trkpt><trkpt lat="45.71138290975404" lon="11.406007502445785"><ele>158.66666666666666</ele><time>2026-04-10T11:55:01Z</time></trkpt><trkpt lat="45.71139011528336" lon="11.405694524348934"><ele>159.0</ele><time>2026-04-10T11:55:02Z</time></trkpt><trkpt lat="45.71139358985711" lon="11.405384335310943"><ele>159.33333333333334</ele><time>2026-04-10T11:55:03Z</time></trkpt><trkpt lat="45.71139810927952" lon="11.405082073432789"><ele>159.66666666666669</ele><time>2026-04-10T11:55:04Z</time></trkpt><trkpt lat="45.71140434632984" lon="11.404782453572864"><ele>160.0</ele><time>2026-04-10T11:55:05Z</time></trkpt><trkpt lat="45.71141129142049" lon="11.404476727322475"><ele>160.0</ele><time>2026-04-10T11:55:06Z</time></trkpt><trkpt lat="45.7114190646905" lon="11.404163957405576"><ele>160.0</ele><time>2026-04-10T11:55:07Z</time></trkpt><trkpt lat="45.71143635907579" lon="11.403849434128164"><ele>160.0</ele><time>2026-04-10T11:55:08Z</time></trkpt><trkpt lat="45.711448494320585" lon="11.403531804822244"><ele>160.0</ele><time>2026-04-10T11:55:09Z</time></trkpt><trkpt lat="45.71146696386589" lon="11.403221479320147"><ele>160.0</ele><time>2026-04-10T11:55:10Z</time></trkpt><trkpt lat="45.71148501824945" lon="11.402916163626736"><ele>160.0</ele><time>2026-04-10T11:55:11Z</time></trkpt><trkpt lat="45.711502607943814" lon="11.402605891631183"><ele>159.5</ele><time>2026-04-10T11:55:11.999Z</time></trkpt><trkpt lat="45.711521778905784" lon="11.402280489217418"><ele>159.0</ele><time>2026-04-10T11:55:12.999Z</time></trkpt><trkpt lat="45.71154127773046" lon="11.40195870471604"><ele>159.0</ele><time>2026-04-10T11:55:13.999Z</time></trkpt><trkpt lat="45.711559423682324" lon="11.401665189773173"><ele>159.0</ele><time>2026-04-10T11:55:14.999Z</time></trkpt><trkpt lat="45.7115798810428" lon="11.401394855209228"><ele>159.0</ele><time>2026-04-10T11:55:15.999Z</time></trkpt><trkpt lat="45.711597383932926" lon="11.40114009356241"><ele>159.66666666666666</ele><time>2026-04-10T11:55:16.999Z</time></trkpt><trkpt lat="45.71161453247773" lon="11.400886243977265"><ele>160.33333333333331</ele><time>2026-04-10T11:55:17.999Z</time></trkpt><trkpt lat="45.71163156215195" lon="11.400629734109048"><ele>161.0</ele><time>2026-04-10T11:55:18.999Z</time></trkpt><trkpt lat="45.71164498947775" lon="11.400378297461824"><ele>161.0</ele><time>2026-04-10T11:55:19.999Z</time></trkpt><trkpt lat="45.71166076194366" lon="11.400134262153843"><ele>161.0</ele><time>2026-04-10T11:55:20.999Z</time></trkpt><trkpt lat="45.711683100903464" lon="11.399884859467354"><ele>161.0</ele><time>2026-04-10T11:55:21.999Z</time></trkpt><trkpt lat="45.7117193920033" lon="11.399639970804028"><ele>161.0</ele><time>2026-04-10T11:55:22.999Z</time></trkpt><trkpt lat="45.7117656050586" lon="11.399413922212775"><ele>161.0</ele><time>2026-04-10T11:55:23.999Z</time></trkpt><trkpt lat="45.71182103873999" lon="11.3992039560781"><ele>161.0</ele><time>2026-04-10T11:55:24.999Z</time></trkpt><trkpt lat="45.71188204774929" lon="11.399001063684997"><ele>161.66666666666666</ele><time>2026-04-10T11:55:25.999Z</time></trkpt><trkpt lat="45.71194873575598" lon="11.398793160397902"><ele>162.33333333333334</ele><time>2026-04-10T11:55:26.999Z</time></trkpt><trkpt lat="45.712011589891574" lon="11.398583012716855"><ele>163.0</ele><time>2026-04-10T11:55:27.999Z</time></trkpt><trkpt lat="45.712069801429806" lon="11.398363785200754"><ele>163.0</ele><time>2026-04-10T11:55:28.999Z</time></trkpt><trkpt lat="45.71213291080363" lon="11.398145942580813"><ele>163.0</ele><time>2026-04-10T11:55:29.999Z</time></trkpt><trkpt lat="45.712190255538914" lon="11.397925170195345"><ele>163.0</ele><time>2026-04-10T11:55:30.999Z</time></trkpt><trkpt lat="45.71224500659158" lon="11.397706099369767"><ele>163.66666666666669</ele><time>2026-04-10T11:55:31.999Z</time></trkpt><trkpt lat="45.7122966818754" lon="11.397480724039974"><ele>164.33333333333334</ele><time>2026-04-10T11:55:32.999Z</time></trkpt><trkpt lat="45.71233741861126" lon="11.397257165554445"><ele>165.0</ele><time>2026-04-10T11:55:33.999Z</time></trkpt><trkpt lat="45.712361429629595" lon="11.39703099192502"><ele>165.66666666666666</ele><time>2026-04-10T11:55:34.999Z</time></trkpt><trkpt lat="45.712364106643285" lon="11.39680068312259"><ele>166.33333333333331</ele><time>2026-04-10T11:55:35.999Z</time></trkpt><trkpt lat="45.71235998251126" lon="11.396574546381398"><ele>167.0</ele><time>2026-04-10T11:55:36.999Z</time></trkpt><trkpt lat="45.7123472879202" lon="11.396346850137151"><ele>167.0</ele><time>2026-04-10T11:55:37.999Z</time></trkpt><trkpt lat="45.71232817241484" lon="11.396128976871474"><ele>167.0</ele><time>2026-04-10T11:55:38.999Z</time></trkpt><trkpt lat="45.712307968210276" lon="11.395919710896736"><ele>167.0</ele><time>2026-04-10T11:55:39.999Z</time></trkpt><trkpt lat="45.71229097954103" lon="11.395710992612742"><ele>167.0</ele><time>2026-04-10T11:55:40.999Z</time></trkpt><trkpt lat="45.712271097498856" lon="11.395496405394677"><ele>167.0</ele><time>2026-04-10T11:55:41.999Z</time></trkpt><trkpt lat="45.71225615350894" lon="11.395278385724088"><ele>167.0</ele><time>2026-04-10T11:55:42.999Z</time></trkpt><trkpt lat="45.712249443558136" lon="11.395063405920805"><ele>167.0</ele><time>2026-04-10T11:55:43.999Z</time></trkpt><trkpt lat="45.7122501403904" lon="11.394843691618307"><ele>167.33333333333331</ele><time>2026-04-10T11:55:44.999Z</time></trkpt><trkpt lat="45.71225214287082" lon="11.394624726786601"><ele>167.66666666666666</ele><time>2026-04-10T11:55:45.999Z</time></trkpt><trkpt lat="45.712266000719836" lon="11.394402137601915"><ele>168.0</ele><time>2026-04-10T11:55:46.999Z</time></trkpt><trkpt lat="45.71228146345034" lon="11.394179047445025"><ele>168.0</ele><time>2026-04-10T11:55:47.999Z</time></trkpt><trkpt lat="45.7123048084721" lon="11.393963672777332"><ele>168.0</ele><time>2026-04-10T11:55:48.999Z</time></trkpt><trkpt lat="45.71233622687934" lon="11.393755380362498"><ele>168.0</ele><time>2026-04-10T11:55:49.999Z</time></trkpt><trkpt lat="45.71236761883268" lon="11.393542346621198"><ele>168.33333333333334</ele><time>2026-04-10T11:55:50.999Z</time></trkpt><trkpt lat="45.71239907423495" lon="11.393325652922526"><ele>168.66666666666669</ele><time>2026-04-10T11:55:51.999Z</time></trkpt><trkpt lat="45.712431620471" lon="11.393104974079199"><ele>169.0</ele><time>2026-04-10T11:55:52.999Z</time></trkpt><trkpt lat="45.71246604878562" lon="11.392878025564467"><ele>169.33333333333334</ele><time>2026-04-10T11:55:53.999Z</time></trkpt><trkpt lat="45.71250090654357" lon="11.392653985301717"><ele>169.66666666666666</ele><time>2026-04-10T11:55:54.999Z</time></trkpt><trkpt lat="45.7125371594531" lon="11.392429217922336"><ele>170.0</ele><time>2026-04-10T11:55:55.999Z</time></trkpt><trkpt lat="45.712566056701824" lon="11.392205739501213"><ele>170.66666666666666</ele><time>2026-04-10T11:55:56.999Z</time></trkpt><trkpt lat="45.7125990670256" lon="11.391982766228407"><ele>171.33333333333334</ele><time>2026-04-10T11:55:57.999Z</time></trkpt><trkpt lat="45.71262972519359" lon="11.39177088192756"><ele>172.0</ele><time>2026-04-10T11:55:58.999Z</time></trkpt><trkpt lat="45.712663393457554" lon="11.391562935097996"><ele>172.0</ele><time>2026-04-10T11:55:59.999Z</time></trkpt><trkpt lat="45.712697822907415" lon="11.391353399367643"><ele>172.0</ele><time>2026-04-10T11:56:00.999Z</time></trkpt><trkpt lat="45.71273415938979" lon="11.391122428461971"><ele>172.0</ele><time>2026-04-10T11:56:01.999Z</time></trkpt><trkpt lat="45.7127724996048" lon="11.390885403773106"><ele>171.5</ele><time>2026-04-10T11:56:02.999Z</time></trkpt><trkpt lat="45.71280371871898" lon="11.390671783616288"><ele>171.0</ele><time>2026-04-10T11:56:03.999Z</time></trkpt><trkpt lat="45.71283205345906" lon="11.39046187609054"><ele>170.5</ele><time>2026-04-10T11:56:04.999Z</time></trkpt><trkpt lat="45.71285888593248" lon="11.390263451310034"><ele>170.0</ele><time>2026-04-10T11:56:05.999Z</time></trkpt><trkpt lat="45.71288875237411" lon="11.39006163741277"><ele>170.0</ele><time>2026-04-10T11:56:07.001Z</time></trkpt><trkpt lat="45.712915981712555" lon="11.389858348503767"><ele>170.0</ele><time>2026-04-10T11:56:08.001Z</time></trkpt><trkpt lat="45.71294251011143" lon="11.389645129853957"><ele>170.0</ele><time>2026-04-10T11:56:09Z</time></trkpt><trkpt lat="45.71297557329432" lon="11.389431843449794"><ele>170.0</ele><time>2026-04-10T11:56:10Z</time></trkpt><trkpt lat="45.71300753151876" lon="11.389226812903877"><ele>170.0</ele><time>2026-04-10T11:56:11Z</time></trkpt><trkpt lat="45.71303744715798" lon="11.389031964063095"><ele>170.0</ele><time>2026-04-10T11:56:12Z</time></trkpt><trkpt lat="45.71306696407535" lon="11.388841464212753"><ele>170.0</ele><time>2026-04-10T11:56:13Z</time></trkpt><trkpt lat="45.71309673543056" lon="11.388664375737982"><ele>170.0</ele><time>2026-04-10T11:56:14Z</time></trkpt><trkpt lat="45.713145698349564" lon="11.388489288700418"><ele>170.75</ele><time>2026-04-10T11:56:15Z</time></trkpt><trkpt lat="45.713211903574084" lon="11.388328498517355"><ele>171.5</ele><time>2026-04-10T11:56:16Z</time></trkpt><trkpt lat="45.71329906458177" lon="11.388193243558034"><ele>172.25</ele><time>2026-04-10T11:56:17Z</time></trkpt><trkpt lat="45.71339809811467" lon="11.38807112127865"><ele>173.0</ele><time>2026-04-10T11:56:18Z</time></trkpt><trkpt lat="45.71350800706545" lon="11.387969424667952"><ele>173.0</ele><time>2026-04-10T11:56:19Z</time></trkpt><trkpt lat="45.71362642118102" lon="11.38789410934884"><ele>173.0</ele><time>2026-04-10T11:56:20Z</time></trkpt><trkpt lat="45.71374420786699" lon="11.387823322492096"><ele>173.0</ele><time>2026-04-10T11:56:21Z</time></trkpt><trkpt lat="45.71385186227796" lon="11.387732332224608"><ele>173.0</ele><time>2026-04-10T11:56:22Z</time></trkpt><trkpt lat="45.71393766341853" lon="11.387612873769351"><ele>173.0</ele><time>2026-04-10T11:56:23Z</time></trkpt><trkpt lat="45.71400850897539" lon="11.38745916253637"><ele>173.0</ele><time>2026-04-10T11:56:24Z</time></trkpt><trkpt lat="45.714068372962764" lon="11.387266149974263"><ele>173.0</ele><time>2026-04-10T11:56:25Z</time></trkpt><trkpt lat="45.71410646068665" lon="11.387039075993021"><ele>173.0</ele><time>2026-04-10T11:56:25.999Z</time></trkpt><trkpt lat="45.71411495532456" lon="11.386795913041158"><ele>174.33333333333331</ele><time>2026-04-10T11:56:26.999Z</time></trkpt><trkpt lat="45.71407994380292" lon="11.386561238428502"><ele>175.66666666666666</ele><time>2026-04-10T11:56:27.999Z</time></trkpt><trkpt lat="45.714018469104786" lon="11.386348458315744"><ele>177.0</ele><time>2026-04-10T11:56:28.999Z</time></trkpt><trkpt lat="45.713926768378" lon="11.386150151642747"><ele>176.33333333333334</ele><time>2026-04-10T11:56:29.999Z</time></trkpt><trkpt lat="45.713817594709866" lon="11.385972494066293"><ele>175.66666666666669</ele><time>2026-04-10T11:56:30.999Z</time></trkpt><trkpt lat="45.71367634912122" lon="11.385816139314233"><ele>175.0</ele><time>2026-04-10T11:56:31.999Z</time></trkpt><trkpt lat="45.713517778209294" lon="11.385687640764532"><ele>175.0</ele><time>2026-04-10T11:56:32.999Z</time></trkpt><trkpt lat="45.713359222531025" lon="11.385555262933137"><ele>175.0</ele><time>2026-04-10T11:56:33.999Z</time></trkpt><trkpt lat="45.71319909059026" lon="11.385414050148036"><ele>175.0</ele><time>2026-04-10T11:56:34.999Z</time></trkpt><trkpt lat="45.71304532841153" lon="11.385271706060854"><ele>175.0</ele><time>2026-04-10T11:56:35.999Z</time></trkpt><trkpt lat="45.712864950063214" lon="11.385143018763294"><ele>175.0</ele><time>2026-04-10T11:56:36.999Z</time></trkpt><trkpt lat="45.712737789577176" lon="11.384993647415484"><ele>175.0</ele><time>2026-04-10T11:56:37.999Z</time></trkpt><trkpt lat="45.712560111769776" lon="11.38487135935317"><ele>174.0</ele><time>2026-04-10T11:56:38.999Z</time></trkpt><trkpt lat="45.712340734719824" lon="11.38469024357142"><ele>173.0</ele><time>2026-04-10T11:56:39.999Z</time></trkpt><trkpt lat="45.71206039377061" lon="11.384405133579095"><ele>173.0</ele><time>2026-04-10T11:56:40.999Z</time></trkpt><trkpt lat="45.71180345646511" lon="11.384146540481346"><ele>173.0</ele><time>2026-04-10T11:56:41.999Z</time></trkpt><trkpt lat="45.71151108372238" lon="11.383918940077047"><ele>173.0</ele><time>2026-04-10T11:56:42.999Z</time></trkpt><trkpt lat="45.71129286588402" lon="11.383736362043916"><ele>173.0</ele><time>2026-04-10T11:56:43.999Z</time></trkpt><trkpt lat="45.71110450307035" lon="11.383573882670397"><ele>172.66666666666666</ele><time>2026-04-10T11:56:44.999Z</time></trkpt><trkpt lat="45.71092783646417" lon="11.383423312121698"><ele>172.33333333333334</ele><time>2026-04-10T11:56:45.999Z</time></trkpt><trkpt lat="45.71076640132294" lon="11.383247223372438"><ele>172.0</ele><time>2026-04-10T11:56:46.999Z</time></trkpt><trkpt lat="45.710612466425715" lon="11.383110946777595"><ele>172.66666666666669</ele><time>2026-04-10T11:56:47.999Z</time></trkpt><trkpt lat="45.71051727234064" lon="11.382933232666383"><ele>173.33333333333334</ele><time>2026-04-10T11:56:48.999Z</time></trkpt><trkpt lat="45.71043284576906" lon="11.382730495675897"><ele>174.0</ele><time>2026-04-10T11:56:49.999Z</time></trkpt><trkpt lat="45.71033501063092" lon="11.382484937435299"><ele>174.33333333333334</ele><time>2026-04-10T11:56:50.999Z</time></trkpt><trkpt lat="45.710224666182015" lon="11.382216313714839"><ele>174.66666666666669</ele><time>2026-04-10T11:56:51.999Z</time></trkpt><trkpt lat="45.710102932788075" lon="11.38194541155132"><ele>175.0</ele><time>2026-04-10T11:56:52.999Z</time></trkpt><trkpt lat="45.7099971701058" lon="11.381662381678154"><ele>175.5</ele><time>2026-04-10T11:56:53.999Z</time></trkpt><trkpt lat="45.709883016517445" lon="11.38136556053596"><ele>176.0</ele><time>2026-04-10T11:56:54.999Z</time></trkpt><trkpt lat="45.70976738701736" lon="11.381074820915979"><ele>175.5</ele><time>2026-04-10T11:56:55.999Z</time></trkpt><trkpt lat="45.70964860082688" lon="11.380776008879232"><ele>175.0</ele><time>2026-04-10T11:56:56.999Z</time></trkpt><trkpt lat="45.70953112654047" lon="11.3804720377906"><ele>175.0</ele><time>2026-04-10T11:56:57.999Z</time></trkpt><trkpt lat="45.70941242275889" lon="11.380166524955344"><ele>175.0</ele><time>2026-04-10T11:56:58.999Z</time></trkpt><trkpt lat="45.70928824605284" lon="11.379862188189568"><ele>174.0</ele><time>2026-04-10T11:56:59.999Z</time></trkpt><trkpt lat="45.709168111226475" lon="11.379566983662988"><ele>173.0</ele><time>2026-04-10T11:57:00.999Z</time></trkpt><trkpt lat="45.70905892683887" lon="11.37929660642002"><ele>173.0</ele><time>2026-04-10T11:57:01.999Z</time></trkpt><trkpt lat="45.70895835502883" lon="11.379057109080815"><ele>173.0</ele><time>2026-04-10T11:57:02.999Z</time></trkpt><trkpt lat="45.70885926901232" lon="11.378824756250916"><ele>173.0</ele><time>2026-04-10T11:57:03.999Z</time></trkpt><trkpt lat="45.708765514090175" lon="11.37859293347819"><ele>173.33333333333331</ele><time>2026-04-10T11:57:04.999Z</time></trkpt><trkpt lat="45.70867518924591" lon="11.37836194048424"><ele>173.66666666666666</ele><time>2026-04-10T11:57:05.999Z</time></trkpt><trkpt lat="45.70858810209549" lon="11.37815244397237"><ele>174.0</ele><time>2026-04-10T11:57:06.999Z</time></trkpt><trkpt lat="45.70850806408768" lon="11.377958691841245"><ele>174.0</ele><time>2026-04-10T11:57:07.999Z</time></trkpt><trkpt lat="45.70843167779382" lon="11.377777451285313"><ele>174.0</ele><time>2026-04-10T11:57:08.999Z</time></trkpt><trkpt lat="45.708350080495094" lon="11.377618940936436"><ele>174.0</ele><time>2026-04-10T11:57:09.999Z</time></trkpt><trkpt lat="45.708246682166966" lon="11.377472935072202"><ele>174.0</ele><time>2026-04-10T11:57:10.999Z</time></trkpt><trkpt lat="45.708123488890536" lon="11.377350001848058"><ele>174.0</ele><time>2026-04-10T11:57:11.999Z</time></trkpt><trkpt lat="45.70797481957087" lon="11.377251730500646"><ele>174.0</ele><time>2026-04-10T11:57:12.999Z</time></trkpt><trkpt lat="45.70781181298213" lon="11.377168829656272"><ele>174.0</ele><time>2026-04-10T11:57:13.999Z</time></trkpt><trkpt lat="45.707634170764585" lon="11.377099093411376"><ele>173.66666666666666</ele><time>2026-04-10T11:57:14.999Z</time></trkpt><trkpt lat="45.70746187183979" lon="11.377006913245031"><ele>173.33333333333331</ele><time>2026-04-10T11:57:15.999Z</time></trkpt><trkpt lat="45.707291530061916" lon="11.376909799493971"><ele>173.0</ele><time>2026-04-10T11:57:16.999Z</time></trkpt><trkpt lat="45.70711946944318" lon="11.376816594006817"><ele>173.0</ele><time>2026-04-10T11:57:17.999Z</time></trkpt><trkpt lat="45.70694714193848" lon="11.376718498387293"><ele>173.0</ele><time>2026-04-10T11:57:18.999Z</time></trkpt><trkpt lat="45.706771348006576" lon="11.376620651759048"><ele>173.0</ele><time>2026-04-10T11:57:19.999Z</time></trkpt><trkpt lat="45.70658898579016" lon="11.376525277259628"><ele>173.0</ele><time>2026-04-10T11:57:20.999Z</time></trkpt><trkpt lat="45.70639997994074" lon="11.376422825564596"><ele>173.0</ele><time>2026-04-10T11:57:21.999Z</time></trkpt><trkpt lat="45.70620950872415" lon="11.376289660501264"><ele>173.0</ele><time>2026-04-10T11:57:22.999Z</time></trkpt><trkpt lat="45.70601303533743" lon="11.37617637538983"><ele>172.66666666666666</ele><time>2026-04-10T11:57:23.999Z</time></trkpt><trkpt lat="45.705806868035594" lon="11.376080402380007"><ele>172.33333333333334</ele><time>2026-04-10T11:57:24.999Z</time></trkpt><trkpt lat="45.705612064534236" lon="11.37595394208265"><ele>172.0</ele><time>2026-04-10T11:57:25.998Z</time></trkpt><trkpt lat="45.705436402632756" lon="11.375844907663025"><ele>172.0</ele><time>2026-04-10T11:57:26.998Z</time></trkpt><trkpt lat="45.705278042260886" lon="11.375747594264016"><ele>172.0</ele><time>2026-04-10T11:57:27.998Z</time></trkpt><trkpt lat="45.70512732222398" lon="11.375656451206249"><ele>172.0</ele><time>2026-04-10T11:57:28.998Z</time></trkpt><trkpt lat="45.7049823876557" lon="11.375572817398835"><ele>173.5</ele><time>2026-04-10T11:57:29.998Z</time></trkpt><trkpt lat="45.704849816827924" lon="11.375488640384116"><ele>175.0</ele><time>2026-04-10T11:57:30.998Z</time></trkpt><trkpt lat="45.70472316271772" lon="11.37541573691588"><ele>176.5</ele><time>2026-04-10T11:57:31.998Z</time></trkpt><trkpt lat="45.70461083645075" lon="11.37533927941758"><ele>178.0</ele><time>2026-04-10T11:57:32.998Z</time></trkpt><trkpt lat="45.70451939227992" lon="11.375251935614969"><ele>178.0</ele><time>2026-04-10T11:57:33.998Z</time></trkpt><trkpt lat="45.70444659085073" lon="11.375146454504915"><ele>178.0</ele><time>2026-04-10T11:57:34.998Z</time></trkpt><trkpt lat="45.704386159248784" lon="11.375010327790521"><ele>178.0</ele><time>2026-04-10T11:57:35.998Z</time></trkpt><trkpt lat="45.70435206913075" lon="11.374846448384389"><ele>178.0</ele><time>2026-04-10T11:57:36.998Z</time></trkpt><trkpt lat="45.70434388821165" lon="11.374667301972094"><ele>177.75</ele><time>2026-04-10T11:57:37.998Z</time></trkpt><trkpt lat="45.704365062162395" lon="11.374507757723178"><ele>177.5</ele><time>2026-04-10T11:57:38.998Z</time></trkpt><trkpt lat="45.704399044392346" lon="11.374363778312262"><ele>177.25</ele><time>2026-04-10T11:57:39.998Z</time></trkpt><trkpt lat="45.70444547675765" lon="11.374194044599077"><ele>177.0</ele><time>2026-04-10T11:57:40.998Z</time></trkpt><trkpt lat="45.70450017716092" lon="11.374019380901938"><ele>177.25</ele><time>2026-04-10T11:57:41.998Z</time></trkpt><trkpt lat="45.70457522722627" lon="11.373847104109803"><ele>177.5</ele><time>2026-04-10T11:57:42.998Z</time></trkpt><trkpt lat="45.704665481608316" lon="11.373673372813256"><ele>177.75</ele><time>2026-04-10T11:57:43.998Z</time></trkpt><trkpt lat="45.70475524221295" lon="11.37349481978755"><ele>178.0</ele><time>2026-04-10T11:57:44.998Z</time></trkpt><trkpt lat="45.7048381196586" lon="11.373308458179743"><ele>178.0</ele><time>2026-04-10T11:57:45.998Z</time></trkpt><trkpt lat="45.704909877931875" lon="11.37315363957019"><ele>178.0</ele><time>2026-04-10T11:57:46.998Z</time></trkpt><trkpt lat="45.70497109494796" lon="11.373011018389063"><ele>178.0</ele><time>2026-04-10T11:57:47.998Z</time></trkpt><trkpt lat="45.70503513006274" lon="11.372876666714621"><ele>178.0</ele><time>2026-04-10T11:57:48.998Z</time></trkpt><trkpt lat="45.70508928242994" lon="11.372765941456564"><ele>178.33333333333334</ele><time>2026-04-10T11:57:49.998Z</time></trkpt><trkpt lat="45.70514035437858" lon="11.372675446290293"><ele>178.66666666666669</ele><time>2026-04-10T11:57:50.998Z</time></trkpt><trkpt lat="45.705178830021104" lon="11.372601132145808"><ele>179.0</ele><time>2026-04-10T11:57:51.998Z</time></trkpt><trkpt lat="45.70523238791253" lon="11.372501391732227"><ele>179.33333333333334</ele><time>2026-04-10T11:57:53.998Z</time></trkpt><trkpt lat="45.70526365630942" lon="11.372407077977586"><ele>179.66666666666666</ele><time>2026-04-10T11:57:56.998Z</time></trkpt><trkpt lat="45.70530579276316" lon="11.37232176535788"><ele>180.0</ele><time>2026-04-10T11:59:44.998Z</time></trkpt><trkpt lat="45.705343942868865" lon="11.372231322905865"><ele>179.8</ele><time>2026-04-10T11:59:45.998Z</time></trkpt><trkpt lat="45.70538159066324" lon="11.372127973295106"><ele>179.6</ele><time>2026-04-10T11:59:46.998Z</time></trkpt><trkpt lat="45.705431354689715" lon="11.371993591048431"><ele>179.39999999999998</ele><time>2026-04-10T11:59:47.998Z</time></trkpt><trkpt lat="45.705483012759125" lon="11.371838224216216"><ele>179.2</ele><time>2026-04-10T11:59:48.998Z</time></trkpt><trkpt lat="45.70553258988883" lon="11.371698540175771"><ele>179.0</ele><time>2026-04-10T11:59:49.998Z</time></trkpt><trkpt lat="45.70559393338666" lon="11.371543358528898"><ele>179.0</ele><time>2026-04-10T11:59:50.998Z</time></trkpt><trkpt lat="45.70565776593646" lon="11.371385419523275"><ele>179.0</ele><time>2026-04-10T11:59:51.998Z</time></trkpt><trkpt lat="45.705712175327136" lon="11.371248313484221"><ele>179.0</ele><time>2026-04-10T11:59:52.998Z</time></trkpt><trkpt lat="45.705767125767544" lon="11.37109529572594"><ele>179.0</ele><time>2026-04-10T11:59:53.998Z</time></trkpt><trkpt lat="45.70582710292355" lon="11.370944891352098"><ele>179.2</ele><time>2026-04-10T11:59:54.998Z</time></trkpt><trkpt lat="45.70589076335267" lon="11.370793369615939"><ele>179.39999999999998</ele><time>2026-04-10T11:59:55.998Z</time></trkpt><trkpt lat="45.705952499338565" lon="11.370657952183302"><ele>179.6</ele><time>2026-04-10T11:59:56.998Z</time></trkpt><trkpt lat="45.7060108568209" lon="11.370536349513866"><ele>179.8</ele><time>2026-04-10T11:59:57.998Z</time></trkpt><trkpt lat="45.70606367631166" lon="11.370441789198193"><ele>180.0</ele><time>2026-04-10T11:59:58.998Z</time></trkpt><trkpt lat="45.70611481111189" lon="11.370363220134626"><ele>180.4</ele><time>2026-04-10T11:59:59.998Z</time></trkpt><trkpt lat="45.70617575668645" lon="11.370305654039566"><ele>180.8</ele><time>2026-04-10T12:00:00.998Z</time></trkpt><trkpt lat="45.70625140966207" lon="11.370265316038733"><ele>181.2</ele><time>2026-04-10T12:00:01.998Z</time></trkpt><trkpt lat="45.70633303072658" lon="11.370198393731505"><ele>181.6</ele><time>2026-04-10T12:00:02.998Z</time></trkpt><trkpt lat="45.706411944147746" lon="11.370096934599005"><ele>182.0</ele><time>2026-04-10T12:00:03.998Z</time></trkpt><trkpt lat="45.70645808282194" lon="11.369954064886782"><ele>182.0</ele><time>2026-04-10T12:00:04.998Z</time></trkpt><trkpt lat="45.70646810188888" lon="11.369788942375195"><ele>182.0</ele><time>2026-04-10T12:00:05.998Z</time></trkpt><trkpt lat="45.706446411112914" lon="11.369631462392345"><ele>182.0</ele><time>2026-04-10T12:00:06.998Z</time></trkpt><trkpt lat="45.70645787684781" lon="11.369470790221404"><ele>182.0</ele><time>2026-04-10T12:00:07.998Z</time></trkpt><trkpt lat="45.70652440897989" lon="11.369316449599765"><ele>182.0</ele><time>2026-04-10T12:00:08.998Z</time></trkpt><trkpt lat="45.70660844314023" lon="11.369154318160684"><ele>182.0</ele><time>2026-04-10T12:00:09.998Z</time></trkpt><trkpt lat="45.70668681384402" lon="11.368987230857678"><ele>182.0</ele><time>2026-04-10T12:00:10.998Z</time></trkpt><trkpt lat="45.7067547173964" lon="11.36884189661222"><ele>182.0</ele><time>2026-04-10T12:00:11.998Z</time></trkpt><trkpt lat="45.70682595747586" lon="11.368694734138971"><ele>182.0</ele><time>2026-04-10T12:00:12.998Z</time></trkpt><trkpt lat="45.70689461421029" lon="11.368527633708988"><ele>182.0</ele><time>2026-04-10T12:00:13.998Z</time></trkpt><trkpt lat="45.706971307305096" lon="11.368353990516637"><ele>182.0</ele><time>2026-04-10T12:00:14.998Z</time></trkpt><trkpt lat="45.70705368657637" lon="11.368163612785011"><ele>182.0</ele><time>2026-04-10T12:00:15.998Z</time></trkpt><trkpt lat="45.70713223197176" lon="11.36796328519443"><ele>182.33333333333331</ele><time>2026-04-10T12:00:16.998Z</time></trkpt><trkpt lat="45.707214366137165" lon="11.36775886680828"><ele>182.66666666666666</ele><time>2026-04-10T12:00:17.998Z</time></trkpt><trkpt lat="45.70729975695203" lon="11.367550741297805"><ele>183.0</ele><time>2026-04-10T12:00:19Z</time></trkpt><trkpt lat="45.70739083283499" lon="11.367332289271191"><ele>183.33333333333334</ele><time>2026-04-10T12:00:20Z</time></trkpt><trkpt lat="45.70748493005865" lon="11.367108097898804"><ele>183.66666666666669</ele><time>2026-04-10T12:00:21Z</time></trkpt><trkpt lat="45.70758149922779" lon="11.366890825008285"><ele>184.0</ele><time>2026-04-10T12:00:22Z</time></trkpt><trkpt lat="45.707668376255064" lon="11.3666970619885"><ele>184.5</ele><time>2026-04-10T12:00:23Z</time></trkpt><trkpt lat="45.70774721388975" lon="11.36652134114995"><ele>185.0</ele><time>2026-04-10T12:00:24Z</time></trkpt><trkpt lat="45.70782594552614" lon="11.36634656172583"><ele>185.5</ele><time>2026-04-10T12:00:25Z</time></trkpt><trkpt lat="45.70790056511029" lon="11.366172035100409"><ele>186.0</ele><time>2026-04-10T12:00:26Z</time></trkpt><trkpt lat="45.70798004978099" lon="11.366005707058592"><ele>186.0</ele><time>2026-04-10T12:00:27Z</time></trkpt><trkpt lat="45.70805390519355" lon="11.36585779193555"><ele>186.0</ele><time>2026-04-10T12:00:28Z</time></trkpt><trkpt lat="45.70812506942221" lon="11.365729045183413"><ele>186.0</ele><time>2026-04-10T12:00:29Z</time></trkpt><trkpt lat="45.70819361147779" lon="11.365612888048444"><ele>186.0</ele><time>2026-04-10T12:00:30Z</time></trkpt><trkpt lat="45.70825507867259" lon="11.365512161915964"><ele>186.0</ele><time>2026-04-10T12:00:31Z</time></trkpt><trkpt lat="45.708313425510255" lon="11.365416178110008"><ele>186.16666666666666</ele><time>2026-04-10T12:00:32Z</time></trkpt><trkpt lat="45.70837454158268" lon="11.365345869276325"><ele>186.33333333333334</ele><time>2026-04-10T12:00:33Z</time></trkpt><trkpt lat="45.708431515764346" lon="11.365283875506186"><ele>186.5</ele><time>2026-04-10T12:00:34Z</time></trkpt><trkpt lat="45.70848352028741" lon="11.365209900331106"><ele>186.66666666666669</ele><time>2026-04-10T12:00:35Z</time></trkpt><trkpt lat="45.70851155041332" lon="11.365113122554915"><ele>186.83333333333334</ele><time>2026-04-10T12:00:36Z</time></trkpt><trkpt lat="45.70849478330207" lon="11.365010555840179"><ele>187.0</ele><time>2026-04-10T12:00:37Z</time></trkpt><trkpt lat="45.70843835438958" lon="11.364929037765398"><ele>187.0</ele><time>2026-04-10T12:00:38Z</time></trkpt><trkpt lat="45.70835110321373" lon="11.364867021712595"><ele>187.0</ele><time>2026-04-10T12:00:39Z</time></trkpt><trkpt lat="45.70827756752299" lon="11.36477843375472"><ele>187.0</ele><time>2026-04-10T12:00:40Z</time></trkpt><trkpt lat="45.70822808836795" lon="11.364616604510632"><ele>187.0</ele><time>2026-04-10T12:00:41Z</time></trkpt><trkpt lat="45.70820166923445" lon="11.364406529509356"><ele>186.66666666666669</ele><time>2026-04-10T12:00:42Z</time></trkpt><trkpt lat="45.70818651260285" lon="11.364201362598838"><ele>186.33333333333334</ele><time>2026-04-10T12:00:43Z</time></trkpt><trkpt lat="45.708172324828006" lon="11.36397154179235"><ele>186.0</ele><time>2026-04-10T12:00:44Z</time></trkpt><trkpt lat="45.70815320070806" lon="11.363730948585232"><ele>187.0</ele><time>2026-04-10T12:00:45Z</time></trkpt><trkpt lat="45.708131276350684" lon="11.363501939073524"><ele>188.0</ele><time>2026-04-10T12:00:46Z</time></trkpt><trkpt lat="45.70811778529994" lon="11.363272488867912"><ele>189.0</ele><time>2026-04-10T12:00:47Z</time></trkpt><trkpt lat="45.70811922772838" lon="11.363043384921681"><ele>189.0</ele><time>2026-04-10T12:00:48Z</time></trkpt><trkpt lat="45.70814079359573" lon="11.362813418432752"><ele>189.0</ele><time>2026-04-10T12:00:49Z</time></trkpt><trkpt lat="45.708181548756244" lon="11.362597854613478"><ele>189.0</ele><time>2026-04-10T12:00:50Z</time></trkpt><trkpt lat="45.708237755628254" lon="11.362392217875525"><ele>188.33333333333334</ele><time>2026-04-10T12:00:51Z</time></trkpt><trkpt lat="45.708295953404125" lon="11.362169015305332"><ele>187.66666666666669</ele><time>2026-04-10T12:00:52Z</time></trkpt><trkpt lat="45.708350492648265" lon="11.361945650253336"><ele>187.0</ele><time>2026-04-10T12:00:52.999Z</time></trkpt><trkpt lat="45.708402845636186" lon="11.36171137457171"><ele>187.0</ele><time>2026-04-10T12:00:53.999Z</time></trkpt><trkpt lat="45.70845789143164" lon="11.361475992728574"><ele>187.0</ele><time>2026-04-10T12:00:54.999Z</time></trkpt><trkpt lat="45.708507807250434" lon="11.361245990993352"><ele>187.0</ele><time>2026-04-10T12:00:55.999Z</time></trkpt><trkpt lat="45.7085573386147" lon="11.361014080408465"><ele>187.75</ele><time>2026-04-10T12:00:56.999Z</time></trkpt><trkpt lat="45.70860589750258" lon="11.360812219383494"><ele>188.5</ele><time>2026-04-10T12:00:57.999Z</time></trkpt><trkpt lat="45.70864977539502" lon="11.3606185655415"><ele>189.25</ele><time>2026-04-10T12:00:58.999Z</time></trkpt><trkpt lat="45.70869448929404" lon="11.360420772420072"><ele>190.0</ele><time>2026-04-10T12:00:59.999Z</time></trkpt><trkpt lat="45.708745034799776" lon="11.360212073689533"><ele>190.0</ele><time>2026-04-10T12:01:00.999Z</time></trkpt><trkpt lat="45.70879151035618" lon="11.359990299592647"><ele>190.0</ele><time>2026-04-10T12:01:01.999Z</time></trkpt><trkpt lat="45.70883932819111" lon="11.359772053424177"><ele>190.0</ele><time>2026-04-10T12:01:02.999Z</time></trkpt><trkpt lat="45.70889629197075" lon="11.3595638471825"><ele>190.33333333333334</ele><time>2026-04-10T12:01:03.999Z</time></trkpt><trkpt lat="45.70894544261817" lon="11.359352373640078"><ele>190.66666666666666</ele><time>2026-04-10T12:01:04.999Z</time></trkpt><trkpt lat="45.70899155136482" lon="11.359139531438421"><ele>191.0</ele><time>2026-04-10T12:01:05.999Z</time></trkpt><trkpt lat="45.70904341908328" lon="11.358936200724136"><ele>191.0</ele><time>2026-04-10T12:01:06.999Z</time></trkpt><trkpt lat="45.70909063334049" lon="11.358734506541465"><ele>191.0</ele><time>2026-04-10T12:01:07.999Z</time></trkpt><trkpt lat="45.709134278721294" lon="11.358537399128052"><ele>191.0</ele><time>2026-04-10T12:01:08.999Z</time></trkpt><trkpt lat="45.7091798175458" lon="11.358337038625477"><ele>191.0</ele><time>2026-04-10T12:01:09.999Z</time></trkpt><trkpt lat="45.70923138087128" lon="11.35814442730828"><ele>191.25</ele><time>2026-04-10T12:01:10.999Z</time></trkpt><trkpt lat="45.709281428973334" lon="11.357951417977604"><ele>191.5</ele><time>2026-04-10T12:01:11.999Z</time></trkpt><trkpt lat="45.70932601047382" lon="11.357765880086063"><ele>191.75</ele><time>2026-04-10T12:01:12.999Z</time></trkpt><trkpt lat="45.709377923987574" lon="11.357577303218017"><ele>192.0</ele><time>2026-04-10T12:01:13.999Z</time></trkpt><trkpt lat="45.70942871615704" lon="11.357404208288738"><ele>192.25</ele><time>2026-04-10T12:01:14.999Z</time></trkpt><trkpt lat="45.70947523155204" lon="11.35723413927045"><ele>192.5</ele><time>2026-04-10T12:01:15.999Z</time></trkpt><trkpt lat="45.70951454157226" lon="11.35707978396765"><ele>192.75</ele><time>2026-04-10T12:01:16.999Z</time></trkpt><trkpt lat="45.70956819005436" lon="11.356936347554287"><ele>193.0</ele><time>2026-04-10T12:01:17.999Z</time></trkpt><trkpt lat="45.70961060964256" lon="11.356796424522216"><ele>193.8</ele><time>2026-04-10T12:01:18.999Z</time></trkpt><trkpt lat="45.70965206516957" lon="11.356651412248931"><ele>194.60000000000002</ele><time>2026-04-10T12:01:19.999Z</time></trkpt><trkpt lat="45.70969269263472" lon="11.356496929477077"><ele>195.39999999999998</ele><time>2026-04-10T12:01:20.999Z</time></trkpt><trkpt lat="45.70972867263844" lon="11.356359739716874"><ele>196.2</ele><time>2026-04-10T12:01:21.999Z</time></trkpt><trkpt lat="45.70976811761862" lon="11.35622492830159"><ele>197.0</ele><time>2026-04-10T12:01:22.999Z</time></trkpt><trkpt lat="45.70980456351037" lon="11.35608710518963"><ele>197.5</ele><time>2026-04-10T12:01:23.999Z</time></trkpt><trkpt lat="45.70984995678637" lon="11.355936817860556"><ele>198.0</ele><time>2026-04-10T12:01:24.999Z</time></trkpt><trkpt lat="45.70990168264885" lon="11.355780593454153"><ele>198.5</ele><time>2026-04-10T12:01:25.999Z</time></trkpt><trkpt lat="45.70994449278287" lon="11.355620497302553"><ele>199.0</ele><time>2026-04-10T12:01:26.999Z</time></trkpt><trkpt lat="45.7099822148308" lon="11.355479036097154"><ele>199.16666666666666</ele><time>2026-04-10T12:01:27.999Z</time></trkpt><trkpt lat="45.710020107916215" lon="11.355361403142465"><ele>199.33333333333331</ele><time>2026-04-10T12:01:28.999Z</time></trkpt><trkpt lat="45.71005673535843" lon="11.355247876104292"><ele>199.5</ele><time>2026-04-10T12:01:29.999Z</time></trkpt><trkpt lat="45.71008558971871" lon="11.355151637538313"><ele>199.66666666666669</ele><time>2026-04-10T12:01:30.999Z</time></trkpt><trkpt lat="45.71010820274613" lon="11.35505408105922"><ele>199.83333333333334</ele><time>2026-04-10T12:01:31.999Z</time></trkpt><trkpt lat="45.71015779039898" lon="11.354899521331353"><ele>200.0</ele><time>2026-04-10T12:01:33.999Z</time></trkpt><trkpt lat="45.71019828343728" lon="11.35477776862119"><ele>200.0</ele><time>2026-04-10T12:01:35.999Z</time></trkpt><trkpt lat="45.71005701801529" lon="11.354642965633758"><ele>200.0</ele><time>2026-04-10T12:01:36.999Z</time></trkpt><trkpt lat="45.70996430228579" lon="11.354588423792576"><ele>200.0</ele><time>2026-04-10T12:01:37.999Z</time></trkpt><trkpt lat="45.70986292166333" lon="11.354529103451796"><ele>200.0</ele><time>2026-04-10T12:01:38.999Z</time></trkpt><trkpt lat="45.7097657482557" lon="11.354467595679372"><ele>200.0</ele><time>2026-04-10T12:01:39.999Z</time></trkpt><trkpt lat="45.70966591281132" lon="11.354389962212888"><ele>200.0</ele><time>2026-04-10T12:01:40.999Z</time></trkpt><trkpt lat="45.70954652220322" lon="11.354298267471565"><ele>200.0</ele><time>2026-04-10T12:01:41.999Z</time></trkpt><trkpt lat="45.70941783369737" lon="11.354208695613803"><ele>200.0</ele><time>2026-04-10T12:01:42.999Z</time></trkpt><trkpt lat="45.70929862761189" lon="11.35413599413285"><ele>200.00000000000003</ele><time>2026-04-10T12:01:43.999Z</time></trkpt><trkpt lat="45.709201671016814" lon="11.354075517945152"><ele>200.0</ele><time>2026-04-10T12:01:44.999Z</time></trkpt><trkpt lat="45.709125089000906" lon="11.354028784488824"><ele>200.0</ele><time>2026-04-10T12:01:45.999Z</time></trkpt><trkpt lat="45.709061550594626" lon="11.353992223515993"><ele>200.0</ele><time>2026-04-10T12:01:46.999Z</time></trkpt><trkpt lat="45.709000426519275" lon="11.353950311403876"><ele>200.00000000000003</ele><time>2026-04-10T12:01:47.999Z</time></trkpt><trkpt lat="45.70892313257464" lon="11.353898362156679"><ele>200.0</ele><time>2026-04-10T12:01:48.999Z</time></trkpt><trkpt lat="45.70884520853254" lon="11.353843135297423"><ele>200.2</ele><time>2026-04-10T12:01:49.999Z</time></trkpt><trkpt lat="45.7087620847799" lon="11.353788773057767"><ele>200.4</ele><time>2026-04-10T12:01:50.999Z</time></trkpt><trkpt lat="45.708688519614505" lon="11.353713636184812"><ele>200.60000000000002</ele><time>2026-04-10T12:01:51.999Z</time></trkpt><trkpt lat="45.708612709817274" lon="11.35359840633838"><ele>200.8</ele><time>2026-04-10T12:01:52.999Z</time></trkpt><trkpt lat="45.70850965350471" lon="11.353455095236777"><ele>201.0</ele><time>2026-04-10T12:01:53.998Z</time></trkpt><trkpt lat="45.7084115713741" lon="11.353306008711781"><ele>203.33333333333331</ele><time>2026-04-10T12:01:54.998Z</time></trkpt><trkpt lat="45.70831236802944" lon="11.353150291115332"><ele>205.66666666666666</ele><time>2026-04-10T12:01:55.998Z</time></trkpt><trkpt lat="45.708211865793835" lon="11.352979034076096"><ele>208.0</ele><time>2026-04-10T12:01:56.998Z</time></trkpt><trkpt lat="45.70811731413187" lon="11.352812162461325"><ele>208.2</ele><time>2026-04-10T12:01:57.998Z</time></trkpt><trkpt lat="45.708034525877736" lon="11.352686709816476"><ele>208.4</ele><time>2026-04-10T12:01:58.998Z</time></trkpt><trkpt lat="45.70796326062394" lon="11.352568555911253"><ele>208.6</ele><time>2026-04-10T12:01:59.998Z</time></trkpt><trkpt lat="45.7078911529472" lon="11.352465363871545"><ele>208.79999999999998</ele><time>2026-04-10T12:02:00.998Z</time></trkpt><trkpt lat="45.7078208523786" lon="11.352379255880985"><ele>209.0</ele><time>2026-04-10T12:02:01.998Z</time></trkpt><trkpt lat="45.70776037216219" lon="11.352325400893077"><ele>209.2</ele><time>2026-04-10T12:02:02.998Z</time></trkpt><trkpt lat="45.70769292980899" lon="11.35233521669793"><ele>209.39999999999998</ele><time>2026-04-10T12:02:03.998Z</time></trkpt><trkpt lat="45.707629046444985" lon="11.352378973163296"><ele>209.6</ele><time>2026-04-10T12:02:04.998Z</time></trkpt><trkpt lat="45.70757289295105" lon="11.352512049711851"><ele>209.8</ele><time>2026-04-10T12:02:05.998Z</time></trkpt><trkpt lat="45.70752074800211" lon="11.35263284839094"><ele>210.0</ele><time>2026-04-10T12:02:06.998Z</time></trkpt><trkpt lat="45.707440798036956" lon="11.352782959551657"><ele>210.0</ele><time>2026-04-10T12:02:07.998Z</time></trkpt><trkpt lat="45.707355529971025" lon="11.352951146451632"><ele>210.0</ele><time>2026-04-10T12:02:08.998Z</time></trkpt><trkpt lat="45.7072796619717" lon="11.353097112188472"><ele>210.0</ele><time>2026-04-10T12:02:09.998Z</time></trkpt><trkpt lat="45.70720852255611" lon="11.353223110396565"><ele>210.0</ele><time>2026-04-10T12:02:10.998Z</time></trkpt><trkpt lat="45.70713393280229" lon="11.353358321375953"><ele>210.0</ele><time>2026-04-10T12:02:11.998Z</time></trkpt><trkpt lat="45.707067187452594" lon="11.353483740198103"><ele>210.0</ele><time>2026-04-10T12:02:12.998Z</time></trkpt><trkpt lat="45.70700624715687" lon="11.353598254652033"><ele>210.0</ele><time>2026-04-10T12:02:13.998Z</time></trkpt><trkpt lat="45.70695491313157" lon="11.35369840056438"><ele>210.0</ele><time>2026-04-10T12:02:14.998Z</time></trkpt><trkpt lat="45.706904164930855" lon="11.353752875436134"><ele>210.0</ele><time>2026-04-10T12:02:15.998Z</time></trkpt><trkpt lat="45.706872236776256" lon="11.353848358019922"><ele>210.0</ele><time>2026-04-10T12:02:17.998Z</time></trkpt><trkpt lat="45.70681136402872" lon="11.353968959322222"><ele>209.8</ele><time>2026-04-10T12:02:52.999Z</time></trkpt><trkpt lat="45.7067611297801" lon="11.354029196165794"><ele>209.6</ele><time>2026-04-10T12:02:53.999Z</time></trkpt><trkpt lat="45.70669289189717" lon="11.35402245590532"><ele>209.39999999999998</ele><time>2026-04-10T12:02:54.999Z</time></trkpt><trkpt lat="45.706631338142245" lon="11.353956255648752"><ele>209.2</ele><time>2026-04-10T12:02:55.999Z</time></trkpt><trkpt lat="45.70655943350794" lon="11.353843443773407"><ele>209.0</ele><time>2026-04-10T12:02:56.999Z</time></trkpt><trkpt lat="45.706462988784594" lon="11.35370594236227"><ele>209.0</ele><time>2026-04-10T12:02:57.999Z</time></trkpt><trkpt lat="45.70638544067052" lon="11.353616882278503"><ele>209.0</ele><time>2026-04-10T12:02:58.999Z</time></trkpt><trkpt lat="45.7062710878598" lon="11.353493371966682"><ele>209.0</ele><time>2026-04-10T12:02:59.999Z</time></trkpt><trkpt lat="45.70616127772186" lon="11.353366123048474"><ele>209.0</ele><time>2026-04-10T12:03:00.999Z</time></trkpt><trkpt lat="45.70604314669631" lon="11.3532594942745"><ele>209.33333333333334</ele><time>2026-04-10T12:03:01.999Z</time></trkpt><trkpt lat="45.705914292957694" lon="11.35313231958717"><ele>209.66666666666669</ele><time>2026-04-10T12:03:02.999Z</time></trkpt><trkpt lat="45.70579179701479" lon="11.353005184562749"><ele>210.0</ele><time>2026-04-10T12:03:03.999Z</time></trkpt><trkpt lat="45.705674261814515" lon="11.35288563498149"><ele>210.0</ele><time>2026-04-10T12:03:04.999Z</time></trkpt><trkpt lat="45.705553152975554" lon="11.352754614719391"><ele>210.0</ele><time>2026-04-10T12:03:05.999Z</time></trkpt><trkpt lat="45.7054336203394" lon="11.352621436286503"><ele>210.0</ele><time>2026-04-10T12:03:06.999Z</time></trkpt><trkpt lat="45.70531011352812" lon="11.35248212485766"><ele>209.66666666666669</ele><time>2026-04-10T12:03:07.999Z</time></trkpt><trkpt lat="45.705185232876325" lon="11.352349724340714"><ele>209.33333333333334</ele><time>2026-04-10T12:03:08.999Z</time></trkpt><trkpt lat="45.70505565258662" lon="11.352211042391259"><ele>209.0</ele><time>2026-04-10T12:03:09.999Z</time></trkpt><trkpt lat="45.704927583786485" lon="11.352075177726055"><ele>208.75</ele><time>2026-04-10T12:03:10.999Z</time></trkpt><trkpt lat="45.70480130028201" lon="11.35195250437078"><ele>208.5</ele><time>2026-04-10T12:03:11.999Z</time></trkpt><trkpt lat="45.704686967453775" lon="11.351830409232411"><ele>208.25</ele><time>2026-04-10T12:03:12.999Z</time></trkpt><trkpt lat="45.704585849273954" lon="11.351717023031913"><ele>208.0</ele><time>2026-04-10T12:03:13.999Z</time></trkpt><trkpt lat="45.704490792831194" lon="11.351615028598154"><ele>207.60000000000002</ele><time>2026-04-10T12:03:14.999Z</time></trkpt><trkpt lat="45.70441022182589" lon="11.351534172382065"><ele>207.20000000000002</ele><time>2026-04-10T12:03:15.999Z</time></trkpt><trkpt lat="45.70434532705047" lon="11.351467013657242"><ele>206.8</ele><time>2026-04-10T12:03:16.999Z</time></trkpt><trkpt lat="45.7042956849093" lon="11.35141027407447"><ele>206.4</ele><time>2026-04-10T12:03:17.999Z</time></trkpt><trkpt lat="45.7042334849879" lon="11.351277312995412"><ele>206.0</ele><time>2026-04-10T12:03:19.999Z</time></trkpt><trkpt lat="45.704139056696675" lon="11.351143380250093"><ele>206.0</ele><time>2026-04-10T12:03:21.999Z</time></trkpt><trkpt lat="45.704034532011015" lon="11.351123386717148"><ele>206.0</ele><time>2026-04-10T12:03:22.999Z</time></trkpt><trkpt lat="45.70395311373659" lon="11.351047455640146"><ele>206.0</ele><time>2026-04-10T12:03:23.999Z</time></trkpt><trkpt lat="45.703881616354536" lon="11.350960671916749"><ele>206.0</ele><time>2026-04-10T12:03:24.999Z</time></trkpt><trkpt lat="45.703804158356505" lon="11.35086932407035"><ele>206.0</ele><time>2026-04-10T12:03:25.999Z</time></trkpt><trkpt lat="45.70371344281771" lon="11.350780029991002"><ele>206.0</ele><time>2026-04-10T12:03:26.999Z</time></trkpt><trkpt lat="45.70359865601442" lon="11.350673301651963"><ele>206.0</ele><time>2026-04-10T12:03:27.999Z</time></trkpt><trkpt lat="45.70347538483489" lon="11.350520942916297"><ele>206.0</ele><time>2026-04-10T12:03:28.999Z</time></trkpt><trkpt lat="45.70333048164998" lon="11.350395115538069"><ele>206.0</ele><time>2026-04-10T12:03:29.999Z</time></trkpt><trkpt lat="45.70320030519358" lon="11.350247310763907"><ele>206.0</ele><time>2026-04-10T12:03:30.999Z</time></trkpt><trkpt lat="45.703073929388374" lon="11.350103255180462"><ele>206.0</ele><time>2026-04-10T12:03:31.999Z</time></trkpt><trkpt lat="45.70295435391407" lon="11.349977943194933"><ele>206.0</ele><time>2026-04-10T12:03:32.999Z</time></trkpt><trkpt lat="45.70284492378365" lon="11.349862191879582"><ele>206.0</ele><time>2026-04-10T12:03:33.999Z</time></trkpt><trkpt lat="45.70274823821164" lon="11.349754965537997"><ele>206.0</ele><time>2026-04-10T12:03:34.999Z</time></trkpt><trkpt lat="45.702667153882025" lon="11.349652663205923"><ele>206.0</ele><time>2026-04-10T12:03:35.999Z</time></trkpt><trkpt lat="45.702599322821804" lon="11.349577220862642"><ele>205.60000000000002</ele><time>2026-04-10T12:03:36.999Z</time></trkpt><trkpt lat="45.702545777549545" lon="11.349524031336593"><ele>205.2</ele><time>2026-04-10T12:03:37.999Z</time></trkpt><trkpt lat="45.70245301018222" lon="11.349426028049312"><ele>204.8</ele><time>2026-04-10T12:03:39.999Z</time></trkpt><trkpt lat="45.70238635916517" lon="11.349298637059498"><ele>204.39999999999998</ele><time>2026-04-10T12:03:41.999Z</time></trkpt><trkpt lat="45.70232783121498" lon="11.349220026340808"><ele>204.0</ele><time>2026-04-10T12:03:42.999Z</time></trkpt><trkpt lat="45.702229833148245" lon="11.349148391816303"><ele>204.0</ele><time>2026-04-10T12:03:43.999Z</time></trkpt><trkpt lat="45.70211419416059" lon="11.349048504387408"><ele>204.0</ele><time>2026-04-10T12:03:44.999Z</time></trkpt><trkpt lat="45.70200182088507" lon="11.34893590764776"><ele>204.0</ele><time>2026-04-10T12:03:45.999Z</time></trkpt><trkpt lat="45.70187124783001" lon="11.348801799292811"><ele>204.0</ele><time>2026-04-10T12:03:46.999Z</time></trkpt><trkpt lat="45.70172564037205" lon="11.348646329879733"><ele>203.66666666666669</ele><time>2026-04-10T12:03:47.999Z</time></trkpt><trkpt lat="45.701577285029" lon="11.348485902547912"><ele>203.33333333333334</ele><time>2026-04-10T12:03:48.999Z</time></trkpt><trkpt lat="45.70141494367614" lon="11.348319062915788"><ele>203.0</ele><time>2026-04-10T12:03:49.999Z</time></trkpt><trkpt lat="45.70124463745811" lon="11.348138861800162"><ele>203.33333333333334</ele><time>2026-04-10T12:03:50.999Z</time></trkpt><trkpt lat="45.70107253305733" lon="11.34795248547876"><ele>203.66666666666669</ele><time>2026-04-10T12:03:51.999Z</time></trkpt><trkpt lat="45.700904829370735" lon="11.347762290471469"><ele>204.0</ele><time>2026-04-10T12:03:52.999Z</time></trkpt><trkpt lat="45.70073049876872" lon="11.347571968520503"><ele>204.0</ele><time>2026-04-10T12:03:53.999Z</time></trkpt><trkpt lat="45.70055954019161" lon="11.347380985868806"><ele>204.0</ele><time>2026-04-10T12:03:54.999Z</time></trkpt><trkpt lat="45.70038075164695" lon="11.34719838642216"><ele>204.0</ele><time>2026-04-10T12:03:55.999Z</time></trkpt><trkpt lat="45.70020724473255" lon="11.347009648677844"><ele>204.33333333333331</ele><time>2026-04-10T12:03:56.999Z</time></trkpt><trkpt lat="45.70003338167051" lon="11.346820841383948"><ele>204.66666666666666</ele><time>2026-04-10T12:03:57.998Z</time></trkpt><trkpt lat="45.69985910017351" lon="11.346631482916864"><ele>205.0</ele><time>2026-04-10T12:03:58.998Z</time></trkpt><trkpt lat="45.69969647733363" lon="11.346446442158799"><ele>205.33333333333331</ele><time>2026-04-10T12:03:59.998Z</time></trkpt><trkpt lat="45.699545109034254" lon="11.346254975275155"><ele>205.66666666666669</ele><time>2026-04-10T12:04:00.998Z</time></trkpt><trkpt lat="45.69940502734881" lon="11.34605640543474"><ele>206.0</ele><time>2026-04-10T12:04:01.998Z</time></trkpt><trkpt lat="45.69927830400162" lon="11.345836312413109"><ele>206.0</ele><time>2026-04-10T12:04:02.998Z</time></trkpt><trkpt lat="45.69915149350383" lon="11.345607359258906"><ele>206.0</ele><time>2026-04-10T12:04:03.998Z</time></trkpt><trkpt lat="45.699038953627394" lon="11.345363639710078"><ele>206.0</ele><time>2026-04-10T12:04:04.998Z</time></trkpt><trkpt lat="45.698967617047344" lon="11.345120937737091"><ele>206.5</ele><time>2026-04-10T12:04:05.998Z</time></trkpt><trkpt lat="45.69889323212156" lon="11.34493432276872"><ele>207.0</ele><time>2026-04-10T12:04:06.998Z</time></trkpt><trkpt lat="45.69885229885902" lon="11.344768063977302"><ele>207.5</ele><time>2026-04-10T12:04:07.998Z</time></trkpt><trkpt lat="45.698831056393054" lon="11.34461853270629"><ele>208.0</ele><time>2026-04-10T12:04:08.998Z</time></trkpt><trkpt lat="45.698807718414734" lon="11.344473881062145"><ele>208.2</ele><time>2026-04-10T12:04:09.998Z</time></trkpt><trkpt lat="45.698791788224504" lon="11.344344884337671"><ele>208.4</ele><time>2026-04-10T12:04:10.998Z</time></trkpt><trkpt lat="45.69876850827598" lon="11.344218478247706"><ele>208.6</ele><time>2026-04-10T12:04:11.998Z</time></trkpt><trkpt lat="45.69871790066757" lon="11.344095491541808"><ele>208.79999999999998</ele><time>2026-04-10T12:04:12.998Z</time></trkpt><trkpt lat="45.69862498006544" lon="11.343995175662787"><ele>209.0</ele><time>2026-04-10T12:04:13.998Z</time></trkpt><trkpt lat="45.69850050908514" lon="11.343936854169808"><ele>211.0</ele><time>2026-04-10T12:04:14.998Z</time></trkpt><trkpt lat="45.69835163566794" lon="11.34392762779929"><ele>213.0</ele><time>2026-04-10T12:04:15.998Z</time></trkpt><trkpt lat="45.69818588777252" lon="11.343950290676123"><ele>215.0</ele><time>2026-04-10T12:04:16.998Z</time></trkpt><trkpt lat="45.69800825688584" lon="11.343991706773014"><ele>215.0</ele><time>2026-04-10T12:04:17.998Z</time></trkpt><trkpt lat="45.697826900094974" lon="11.344011820241317"><ele>215.0</ele><time>2026-04-10T12:04:18.998Z</time></trkpt><trkpt lat="45.69766596967226" lon="11.34400625915397"><ele>215.0</ele><time>2026-04-10T12:04:19.998Z</time></trkpt><trkpt lat="45.697503159106425" lon="11.3439722830441"><ele>217.0</ele><time>2026-04-10T12:04:20.998Z</time></trkpt><trkpt lat="45.69735439749188" lon="11.343904840119828"><ele>219.0</ele><time>2026-04-10T12:04:21.998Z</time></trkpt><trkpt lat="45.69721352384731" lon="11.34387554058752"><ele>221.0</ele><time>2026-04-10T12:04:22.998Z</time></trkpt><trkpt lat="45.69710081662113" lon="11.343829602275393"><ele>223.0</ele><time>2026-04-10T12:04:23.998Z</time></trkpt><trkpt lat="45.6970156167931" lon="11.343821927334186"><ele>223.0</ele><time>2026-04-10T12:04:24.998Z</time></trkpt><trkpt lat="45.69694119476035" lon="11.343899105655682"><ele>223.0</ele><time>2026-04-10T12:04:25.998Z</time></trkpt><trkpt lat="45.69688614470193" lon="11.344037508599932"><ele>223.0</ele><time>2026-04-10T12:04:26.998Z</time></trkpt><trkpt lat="45.696861359220115" lon="11.344217204459923"><ele>223.0</ele><time>2026-04-10T12:04:27.998Z</time></trkpt><trkpt lat="45.69686008617039" lon="11.344431599194314"><ele>224.75</ele><time>2026-04-10T12:04:28.998Z</time></trkpt><trkpt lat="45.696849784856624" lon="11.344661050411942"><ele>226.5</ele><time>2026-04-10T12:04:29.998Z</time></trkpt><trkpt lat="45.6968103148226" lon="11.34483124532999"><ele>228.25</ele><time>2026-04-10T12:04:30.999Z</time></trkpt><trkpt lat="45.696798957774234" lon="11.34495411065372"><ele>230.0</ele><time>2026-04-10T12:04:31.999Z</time></trkpt><trkpt lat="45.69673213293143" lon="11.345010685719801"><ele>230.0</ele><time>2026-04-10T12:04:32.999Z</time></trkpt><trkpt lat="45.69665155059511" lon="11.3449677320571"><ele>230.0</ele><time>2026-04-10T12:04:33.999Z</time></trkpt><trkpt lat="45.69658856245101" lon="11.344914985277214"><ele>230.0</ele><time>2026-04-10T12:04:34.999Z</time></trkpt><trkpt lat="45.69656379092028" lon="11.344757134119089"><ele>230.0</ele><time>2026-04-10T12:04:35.999Z</time></trkpt><trkpt lat="45.69648211640595" lon="11.344626913387096"><ele>230.0</ele><time>2026-04-10T12:04:36.999Z</time></trkpt><trkpt lat="45.69640322036424" lon="11.344467075591217"><ele>230.8</ele><time>2026-04-10T12:04:37.999Z</time></trkpt><trkpt lat="45.69632657678101" lon="11.344303881762414"><ele>231.6</ele><time>2026-04-10T12:04:38.999Z</time></trkpt><trkpt lat="45.69627130293155" lon="11.344183673301393"><ele>232.39999999999998</ele><time>2026-04-10T12:04:39.999Z</time></trkpt><trkpt lat="45.69622139644432" lon="11.344093265817579"><ele>233.2</ele><time>2026-04-10T12:04:40.999Z</time></trkpt><trkpt lat="45.69616064188198" lon="11.344051669503171"><ele>234.0</ele><time>2026-04-10T12:04:41.999Z</time></trkpt><trkpt lat="45.69608220551117" lon="11.344091203195735"><ele>236.5</ele><time>2026-04-10T12:04:42.999Z</time></trkpt><trkpt lat="45.69600845909518" lon="11.344180505398826"><ele>239.0</ele><time>2026-04-10T12:04:44Z</time></trkpt><trkpt lat="45.69595666396427" lon="11.344356688692258"><ele>241.5</ele><time>2026-04-10T12:04:45Z</time></trkpt><trkpt lat="45.695889401614615" lon="11.34452605641497"><ele>244.0</ele><time>2026-04-10T12:04:46Z</time></trkpt><trkpt lat="45.695801129986165" lon="11.344596391604531"><ele>244.0</ele><time>2026-04-10T12:04:47Z</time></trkpt><trkpt lat="45.69569971440676" lon="11.34459169268793"><ele>244.0</ele><time>2026-04-10T12:04:48Z</time></trkpt><trkpt lat="45.69556713450311" lon="11.344566077343067"><ele>244.0</ele><time>2026-04-10T12:04:49Z</time></trkpt><trkpt lat="45.69542082278546" lon="11.344568613230837"><ele>244.0</ele><time>2026-04-10T12:04:50Z</time></trkpt><trkpt lat="45.69526712947646" lon="11.344554297520302"><ele>246.79999999999998</ele><time>2026-04-10T12:04:51Z</time></trkpt><trkpt lat="45.695143283385654" lon="11.344570854352702"><ele>249.59999999999997</ele><time>2026-04-10T12:04:52Z</time></trkpt><trkpt lat="45.695050085686354" lon="11.344599362340075"><ele>252.4</ele><time>2026-04-10T12:04:53Z</time></trkpt><trkpt lat="45.69497026778936" lon="11.344635958963456"><ele>255.2</ele><time>2026-04-10T12:04:54Z</time></trkpt><trkpt lat="45.69488447663407" lon="11.344547138067272"><ele>258.0</ele><time>2026-04-10T12:04:56Z</time></trkpt><trkpt lat="45.69489272621929" lon="11.3444325010212"><ele>258.0</ele><time>2026-04-10T12:04:57Z</time></trkpt><trkpt lat="45.69495223505664" lon="11.344313194444858"><ele>258.0</ele><time>2026-04-10T12:04:58Z</time></trkpt><trkpt lat="45.69500555318507" lon="11.344139500694057"><ele>258.0</ele><time>2026-04-10T12:04:59Z</time></trkpt><trkpt lat="45.69506421879399" lon="11.343940753855318"><ele>258.0</ele><time>2026-04-10T12:05:00Z</time></trkpt><trkpt lat="45.695110191188704" lon="11.343729305266226"><ele>259.3333333333333</ele><time>2026-04-10T12:05:01Z</time></trkpt><trkpt lat="45.695169479144276" lon="11.343504773745277"><ele>260.66666666666663</ele><time>2026-04-10T12:05:01.999Z</time></trkpt><trkpt lat="45.69522881727226" lon="11.343265635679481"><ele>262.0</ele><time>2026-04-10T12:05:02.999Z</time></trkpt><trkpt lat="45.6952866697272" lon="11.343027833629428"><ele>262.0</ele><time>2026-04-10T12:05:03.999Z</time></trkpt><trkpt lat="45.69533360158996" lon="11.342831959740444"><ele>262.0</ele><time>2026-04-10T12:05:04.999Z</time></trkpt><trkpt lat="45.695385473904366" lon="11.342680355136332"><ele>262.0</ele><time>2026-04-10T12:05:05.999Z</time></trkpt><trkpt lat="45.695426753007794" lon="11.34256607319164"><ele>262.0</ele><time>2026-04-10T12:05:06.999Z</time></trkpt><trkpt lat="45.69544280616505" lon="11.342460718754687"><ele>262.0</ele><time>2026-04-10T12:05:07.999Z</time></trkpt><trkpt lat="45.69540273603692" lon="11.342357731230987"><ele>262.0</ele><time>2026-04-10T12:05:08.999Z</time></trkpt><trkpt lat="45.69531233167657" lon="11.342307423246877"><ele>262.0</ele><time>2026-04-10T12:05:09.999Z</time></trkpt><trkpt lat="45.69520737347143" lon="11.342342902522597"><ele>262.0</ele><time>2026-04-10T12:05:10.999Z</time></trkpt><trkpt lat="45.69510598790053" lon="11.342442949852467"><ele>262.0</ele><time>2026-04-10T12:05:11.999Z</time></trkpt><trkpt lat="45.694994357206745" lon="11.342607949888196"><ele>266.3333333333333</ele><time>2026-04-10T12:05:12.999Z</time></trkpt><trkpt lat="45.6948432002513" lon="11.342793263491993"><ele>270.6666666666667</ele><time>2026-04-10T12:05:13.999Z</time></trkpt><trkpt lat="45.6947174336144" lon="11.342858131116131"><ele>275.0</ele><time>2026-04-10T12:05:14.999Z</time></trkpt><trkpt lat="45.694583547754" lon="11.342935008633917"><ele>275.0</ele><time>2026-04-10T12:05:15.999Z</time></trkpt><trkpt lat="45.69449354744065" lon="11.342975529904402"><ele>275.0</ele><time>2026-04-10T12:05:16.999Z</time></trkpt><trkpt lat="45.69443043444408" lon="11.342983844707922"><ele>275.0</ele><time>2026-04-10T12:05:17.999Z</time></trkpt><trkpt lat="45.69439395449301" lon="11.342808691071669"><ele>275.0</ele><time>2026-04-10T12:05:19.999Z</time></trkpt><trkpt lat="45.69446454356315" lon="11.342693126665457"><ele>275.0</ele><time>2026-04-10T12:05:20.999Z</time></trkpt><trkpt lat="45.694528483115256" lon="11.342499228739786"><ele>275.0</ele><time>2026-04-10T12:05:21.999Z</time></trkpt><trkpt lat="45.69460612738828" lon="11.342253195166988"><ele>275.0</ele><time>2026-04-10T12:05:22.999Z</time></trkpt><trkpt lat="45.69466595784617" lon="11.342037398081542"><ele>275.0</ele><time>2026-04-10T12:05:23.999Z</time></trkpt><trkpt lat="45.694725009149465" lon="11.341875081217657"><ele>276.1666666666667</ele><time>2026-04-10T12:05:24.999Z</time></trkpt><trkpt lat="45.69478366075373" lon="11.34174753406462"><ele>277.33333333333337</ele><time>2026-04-10T12:05:25.999Z</time></trkpt><trkpt lat="45.694822509211654" lon="11.341652560809443"><ele>278.5</ele><time>2026-04-10T12:05:26.999Z</time></trkpt><trkpt lat="45.69482229754221" lon="11.341555475901703"><ele>279.6666666666667</ele><time>2026-04-10T12:05:27.999Z</time></trkpt><trkpt lat="45.694758761003804" lon="11.341481772714397"><ele>280.8333333333333</ele><time>2026-04-10T12:05:28.999Z</time></trkpt><trkpt lat="45.69465800617892" lon="11.341463669294475"><ele>282.0</ele><time>2026-04-10T12:05:29.999Z</time></trkpt><trkpt lat="45.69454045595062" lon="11.341515695535367"><ele>286.6666666666667</ele><time>2026-04-10T12:05:30.999Z</time></trkpt><trkpt lat="45.69439740689662" lon="11.341639752916398"><ele>291.33333333333337</ele><time>2026-04-10T12:05:31.999Z</time></trkpt><trkpt lat="45.6942367370238" lon="11.34182466010468"><ele>296.0</ele><time>2026-04-10T12:05:32.999Z</time></trkpt><trkpt lat="45.6940648485045" lon="11.342021561708869"><ele>296.0</ele><time>2026-04-10T12:05:33.999Z</time></trkpt><trkpt lat="45.69390591420634" lon="11.342191873231714"><ele>296.0</ele><time>2026-04-10T12:05:34.999Z</time></trkpt><trkpt lat="45.69377156042359" lon="11.342353145566364"><ele>296.0</ele><time>2026-04-10T12:05:35.999Z</time></trkpt><trkpt lat="45.69365055647015" lon="11.342540719640327"><ele>298.0</ele><time>2026-04-10T12:05:36.999Z</time></trkpt><trkpt lat="45.693567822354815" lon="11.342731336972333"><ele>300.0</ele><time>2026-04-10T12:05:37.999Z</time></trkpt><trkpt lat="45.69350493780967" lon="11.342899068447263"><ele>302.0</ele><time>2026-04-10T12:05:38.999Z</time></trkpt><trkpt lat="45.69344282343573" lon="11.343014896424444"><ele>304.0</ele><time>2026-04-10T12:05:39.999Z</time></trkpt><trkpt lat="45.69339246768787" lon="11.343084954185182"><ele>304.8</ele><time>2026-04-10T12:05:40.999Z</time></trkpt><trkpt lat="45.69329940142028" lon="11.343037132604612"><ele>305.59999999999997</ele><time>2026-04-10T12:05:42.999Z</time></trkpt><trkpt lat="45.69327431470712" lon="11.34292876470346"><ele>306.4</ele><time>2026-04-10T12:05:43.999Z</time></trkpt><trkpt lat="45.69330384230892" lon="11.342787512119578"><ele>307.2</ele><time>2026-04-10T12:05:44.999Z</time></trkpt><trkpt lat="45.69330545990435" lon="11.34258848586195"><ele>308.0</ele><time>2026-04-10T12:05:45.999Z</time></trkpt><trkpt lat="45.69333908432191" lon="11.342372555907195"><ele>308.4</ele><time>2026-04-10T12:05:46.999Z</time></trkpt><trkpt lat="45.69336010766457" lon="11.342191081929629"><ele>308.8</ele><time>2026-04-10T12:05:47.999Z</time></trkpt><trkpt lat="45.69336122322397" lon="11.342068940908824"><ele>309.2</ele><time>2026-04-10T12:05:48.999Z</time></trkpt><trkpt lat="45.69327152451094" lon="11.341980249688554"><ele>309.6</ele><time>2026-04-10T12:05:50.999Z</time></trkpt><trkpt lat="45.69318650077798" lon="11.341983249409639"><ele>310.0</ele><time>2026-04-10T12:05:51.999Z</time></trkpt><trkpt lat="45.693084346032265" lon="11.342084998639528"><ele>309.5</ele><time>2026-04-10T12:05:52.999Z</time></trkpt><trkpt lat="45.69302080962225" lon="11.342283532018"><ele>309.0</ele><time>2026-04-10T12:05:53.999Z</time></trkpt><trkpt lat="45.69292064560561" lon="11.34244477673558"><ele>308.5</ele><time>2026-04-10T12:05:54.999Z</time></trkpt><trkpt lat="45.69282684989902" lon="11.342596398305103"><ele>308.0</ele><time>2026-04-10T12:05:55.999Z</time></trkpt><trkpt lat="45.692661823311575" lon="11.342622320018915"><ele>311.0</ele><time>2026-04-10T12:05:56.999Z</time></trkpt><trkpt lat="45.6924865464566" lon="11.34273084442789"><ele>314.0</ele><time>2026-04-10T12:05:57.999Z</time></trkpt><trkpt lat="45.692327573462144" lon="11.34290343289817"><ele>317.0</ele><time>2026-04-10T12:05:58.999Z</time></trkpt><trkpt lat="45.69218332041214" lon="11.343062964332752"><ele>317.0</ele><time>2026-04-10T12:05:59.999Z</time></trkpt><trkpt lat="45.6920478191166" lon="11.343228870917194"><ele>317.0</ele><time>2026-04-10T12:06:00.999Z</time></trkpt><trkpt lat="45.69188896198297" lon="11.34333590661755"><ele>317.0</ele><time>2026-04-10T12:06:01.999Z</time></trkpt><trkpt lat="45.69172203579743" lon="11.343425990200275"><ele>322.6666666666667</ele><time>2026-04-10T12:06:02.999Z</time></trkpt><trkpt lat="45.69154135209082" lon="11.343515427245881"><ele>328.3333333333333</ele><time>2026-04-10T12:06:03.999Z</time></trkpt><trkpt lat="45.69135409847535" lon="11.343609519426305"><ele>334.0</ele><time>2026-04-10T12:06:04.999Z</time></trkpt><trkpt lat="45.69118041166958" lon="11.343699334537977"><ele>334.75</ele><time>2026-04-10T12:06:05.999Z</time></trkpt><trkpt lat="45.69103054369108" lon="11.343776832573184"><ele>335.5</ele><time>2026-04-10T12:06:06.999Z</time></trkpt><trkpt lat="45.69089352613551" lon="11.343842366248339"><ele>336.25</ele><time>2026-04-10T12:06:07.999Z</time></trkpt><trkpt lat="45.69075284823182" lon="11.343888852200292"><ele>337.0</ele><time>2026-04-10T12:06:08.999Z</time></trkpt><trkpt lat="45.69061000732962" lon="11.343900691897744"><ele>337.0</ele><time>2026-04-10T12:06:09.999Z</time></trkpt><trkpt lat="45.690471673226284" lon="11.343881633969701"><ele>337.0</ele><time>2026-04-10T12:06:10.999Z</time></trkpt><trkpt lat="45.69034015780019" lon="11.343842221339777"><ele>337.0</ele><time>2026-04-10T12:06:11.999Z</time></trkpt><trkpt lat="45.690249925854246" lon="11.343802572608851"><ele>337.0</ele><time>2026-04-10T12:06:12.999Z</time></trkpt><trkpt lat="45.690188483636106" lon="11.34376528301765"><ele>337.0</ele><time>2026-04-10T12:06:13.999Z</time></trkpt><trkpt lat="45.69012234989968" lon="11.343665833584604"><ele>339.8</ele><time>2026-04-10T12:06:15.999Z</time></trkpt><trkpt lat="45.69016031340194" lon="11.343582139733499"><ele>342.6</ele><time>2026-04-10T12:06:16.999Z</time></trkpt><trkpt lat="45.690235400407445" lon="11.343550583161836"><ele>345.40000000000003</ele><time>2026-04-10T12:06:17.999Z</time></trkpt><trkpt lat="45.690333125534664" lon="11.343596805508852"><ele>348.20000000000005</ele><time>2026-04-10T12:06:18.999Z</time></trkpt><trkpt lat="45.69044988758083" lon="11.343598618215557"><ele>351.0</ele><time>2026-04-10T12:06:19.999Z</time></trkpt><trkpt lat="45.69057535009934" lon="11.343568846725514"><ele>351.0</ele><time>2026-04-10T12:06:20.998Z</time></trkpt><trkpt lat="45.69067889734529" lon="11.343491310991363"><ele>351.0</ele><time>2026-04-10T12:06:21.998Z</time></trkpt><trkpt lat="45.69080348280075" lon="11.343317559244495"><ele>351.0</ele><time>2026-04-10T12:06:23.998Z</time></trkpt><trkpt lat="45.69082558417939" lon="11.343158881967504"><ele>351.0</ele><time>2026-04-10T12:06:24.998Z</time></trkpt><trkpt lat="45.69081161025553" lon="11.343033327298008"><ele>352.0</ele><time>2026-04-10T12:06:25.998Z</time></trkpt><trkpt lat="45.69079562623932" lon="11.342917893989974"><ele>353.0</ele><time>2026-04-10T12:06:26.998Z</time></trkpt><trkpt lat="45.690779889495396" lon="11.342794566468013"><ele>354.0</ele><time>2026-04-10T12:06:27.998Z</time></trkpt><trkpt lat="45.69075649052426" lon="11.34266213576768"><ele>355.0</ele><time>2026-04-10T12:06:28.998Z</time></trkpt><trkpt lat="45.69073276373724" lon="11.342534680618773"><ele>356.0</ele><time>2026-04-10T12:06:29.998Z</time></trkpt><trkpt lat="45.69070649209553" lon="11.342414285052964"><ele>357.0</ele><time>2026-04-10T12:06:30.998Z</time></trkpt><trkpt lat="45.690670219440165" lon="11.342293940207835"><ele>357.1666666666667</ele><time>2026-04-10T12:06:31.998Z</time></trkpt><trkpt lat="45.69062617740092" lon="11.342173357533463"><ele>357.3333333333333</ele><time>2026-04-10T12:06:32.998Z</time></trkpt><trkpt lat="45.690570846470024" lon="11.342058482079494"><ele>357.5</ele><time>2026-04-10T12:06:33.998Z</time></trkpt><trkpt lat="45.69050767072756" lon="11.34194974687673"><ele>357.66666666666663</ele><time>2026-04-10T12:06:34.998Z</time></trkpt><trkpt lat="45.690436713241695" lon="11.341874063337801"><ele>357.8333333333333</ele><time>2026-04-10T12:06:35.998Z</time></trkpt><trkpt lat="45.690380064008856" lon="11.341829189983528"><ele>358.0</ele><time>2026-04-10T12:06:36.999Z</time></trkpt><trkpt lat="45.69031573842823" lon="11.341794864674831"><ele>360.4</ele><time>2026-04-10T12:06:37.999Z</time></trkpt><trkpt lat="45.69023620070913" lon="11.34177862560279"><ele>362.79999999999995</ele><time>2026-04-10T12:06:38.999Z</time></trkpt><trkpt lat="45.690058033713846" lon="11.341802333996966"><ele>365.2</ele><time>2026-04-10T12:06:41Z</time></trkpt><trkpt lat="45.689971346966324" lon="11.34181486791637"><ele>367.6</ele><time>2026-04-10T12:06:42Z</time></trkpt><trkpt lat="45.68988416488078" lon="11.341834745383267"><ele>370.0</ele><time>2026-04-10T12:06:43Z</time></trkpt><trkpt lat="45.68979491372112" lon="11.341844420285286"><ele>370.0</ele><time>2026-04-10T12:06:44Z</time></trkpt><trkpt lat="45.68970315181222" lon="11.34185746442332"><ele>370.0</ele><time>2026-04-10T12:06:45Z</time></trkpt><trkpt lat="45.689604461972294" lon="11.341873401454425"><ele>370.0</ele><time>2026-04-10T12:06:46Z</time></trkpt><trkpt lat="45.68951587644848" lon="11.34189788776704"><ele>370.0</ele><time>2026-04-10T12:06:47Z</time></trkpt><trkpt lat="45.68944293348259" lon="11.3419164408911"><ele>370.0</ele><time>2026-04-10T12:06:48Z</time></trkpt><trkpt lat="45.68937787215026" lon="11.341915590374278"><ele>370.0</ele><time>2026-04-10T12:06:49Z</time></trkpt><trkpt lat="45.6893166731554" lon="11.341878689838508"><ele>371.16666666666663</ele><time>2026-04-10T12:06:50Z</time></trkpt><trkpt lat="45.68925296774955" lon="11.341857690695715"><ele>372.3333333333333</ele><time>2026-04-10T12:06:51Z</time></trkpt><trkpt lat="45.689229020209716" lon="11.341739697866144"><ele>373.5</ele><time>2026-04-10T12:06:52Z</time></trkpt><trkpt lat="45.68921513311486" lon="11.341627329663073"><ele>374.6666666666667</ele><time>2026-04-10T12:06:53Z</time></trkpt><trkpt lat="45.68917538283432" lon="11.341498826529806"><ele>375.83333333333337</ele><time>2026-04-10T12:06:54Z</time></trkpt><trkpt lat="45.68915116285411" lon="11.341345426793836"><ele>377.0</ele><time>2026-04-10T12:06:55Z</time></trkpt><trkpt lat="45.68911894489597" lon="11.341193759182465"><ele>378.40000000000003</ele><time>2026-04-10T12:06:56Z</time></trkpt><trkpt lat="45.68908972216832" lon="11.341044514427493"><ele>379.8</ele><time>2026-04-10T12:06:57Z</time></trkpt><trkpt lat="45.68905957325054" lon="11.340907170584465"><ele>381.2</ele><time>2026-04-10T12:06:58Z</time></trkpt><trkpt lat="45.6890261927129" lon="11.340777846946088"><ele>382.6</ele><time>2026-04-10T12:06:59Z</time></trkpt><trkpt lat="45.68900021518795" lon="11.340654233807252"><ele>384.0</ele><time>2026-04-10T12:07:00Z</time></trkpt><trkpt lat="45.688974806182856" lon="11.340532200920912"><ele>384.79999999999995</ele><time>2026-04-10T12:07:01Z</time></trkpt><trkpt lat="45.68894783879693" lon="11.340411175494804"><ele>385.59999999999997</ele><time>2026-04-10T12:07:02Z</time></trkpt><trkpt lat="45.68892383684563" lon="11.340283277338825"><ele>386.4</ele><time>2026-04-10T12:07:03Z</time></trkpt><trkpt lat="45.68890160450111" lon="11.340150102058574"><ele>387.2</ele><time>2026-04-10T12:07:03.999Z</time></trkpt><trkpt lat="45.688869768406725" lon="11.340002864958848"><ele>388.0</ele><time>2026-04-10T12:07:04.999Z</time></trkpt><trkpt lat="45.688806216864826" lon="11.339878773178002"><ele>388.0</ele><time>2026-04-10T12:07:05.999Z</time></trkpt><trkpt lat="45.6887116737526" lon="11.33978918611245"><ele>388.0</ele><time>2026-04-10T12:07:06.999Z</time></trkpt><trkpt lat="45.68860582688931" lon="11.339745699641824"><ele>388.0</ele><time>2026-04-10T12:07:07.999Z</time></trkpt><trkpt lat="45.688505880495796" lon="11.339722792306977"><ele>388.0</ele><time>2026-04-10T12:07:08.999Z</time></trkpt><trkpt lat="45.68841005114536" lon="11.33968869492018"><ele>388.0</ele><time>2026-04-10T12:07:09.999Z</time></trkpt><trkpt lat="45.68831578226945" lon="11.339650103678197"><ele>391.59999999999997</ele><time>2026-04-10T12:07:10.999Z</time></trkpt><trkpt lat="45.68823660608618" lon="11.339583727410401"><ele>395.2</ele><time>2026-04-10T12:07:11.999Z</time></trkpt><trkpt lat="45.68815425854658" lon="11.339532217477188"><ele>398.8</ele><time>2026-04-10T12:07:12.999Z</time></trkpt><trkpt lat="45.688073582115344" lon="11.339474912258117"><ele>402.4</ele><time>2026-04-10T12:07:13.999Z</time></trkpt><trkpt lat="45.687993937640805" lon="11.339407748292903"><ele>406.0</ele><time>2026-04-10T12:07:14.999Z</time></trkpt><trkpt lat="45.687914020446" lon="11.33933076262971"><ele>406.00000000000006</ele><time>2026-04-10T12:07:15.999Z</time></trkpt><trkpt lat="45.68785282526062" lon="11.339256302358798"><ele>406.0</ele><time>2026-04-10T12:07:16.999Z</time></trkpt><trkpt lat="45.68779597509883" lon="11.339171306659788"><ele>406.0</ele><time>2026-04-10T12:07:17.999Z</time></trkpt><trkpt lat="45.68773704705286" lon="11.339068523290956"><ele>406.0</ele><time>2026-04-10T12:07:18.999Z</time></trkpt><trkpt lat="45.68768197078673" lon="11.338963512226714"><ele>406.00000000000006</ele><time>2026-04-10T12:07:19.999Z</time></trkpt><trkpt lat="45.68762987361518" lon="11.338868003969429"><ele>406.0</ele><time>2026-04-10T12:07:20.999Z</time></trkpt><trkpt lat="45.68758224703302" lon="11.338781602455178"><ele>406.8</ele><time>2026-04-10T12:07:21.999Z</time></trkpt><trkpt lat="45.68750634572952" lon="11.338680039296658"><ele>407.6</ele><time>2026-04-10T12:07:23.999Z</time></trkpt><trkpt lat="45.6874401700006" lon="11.338546973289773"><ele>408.4</ele><time>2026-04-10T12:07:25.999Z</time></trkpt><trkpt lat="45.68739767758428" lon="11.33846169690273"><ele>409.2</ele><time>2026-04-10T12:07:26.998Z</time></trkpt><trkpt lat="45.68734177611671" lon="11.338357569094036"><ele>410.0</ele><time>2026-04-10T12:07:27.998Z</time></trkpt><trkpt lat="45.68727206539094" lon="11.338236659019909"><ele>410.0</ele><time>2026-04-10T12:07:28.998Z</time></trkpt><trkpt lat="45.687202761175975" lon="11.338096260562839"><ele>410.0</ele><time>2026-04-10T12:07:29.998Z</time></trkpt><trkpt lat="45.68715803998021" lon="11.337919212544508"><ele>410.0</ele><time>2026-04-10T12:07:30.998Z</time></trkpt><trkpt lat="45.687092448917745" lon="11.337780298431307"><ele>410.0</ele><time>2026-04-10T12:07:31.998Z</time></trkpt><trkpt lat="45.68704672112993" lon="11.337647169943278"><ele>411.75</ele><time>2026-04-10T12:07:32.998Z</time></trkpt><trkpt lat="45.68699476881223" lon="11.337503885686136"><ele>413.5</ele><time>2026-04-10T12:07:33.998Z</time></trkpt><trkpt lat="45.68693154071128" lon="11.33735495553101"><ele>415.25</ele><time>2026-04-10T12:07:34.998Z</time></trkpt><trkpt lat="45.68684971906743" lon="11.337212291477904"><ele>417.0</ele><time>2026-04-10T12:07:35.998Z</time></trkpt><trkpt lat="45.68672867446263" lon="11.337112851659393"><ele>418.66666666666663</ele><time>2026-04-10T12:07:36.998Z</time></trkpt><trkpt lat="45.68657910792785" lon="11.337070319735071"><ele>420.3333333333333</ele><time>2026-04-10T12:07:37.998Z</time></trkpt><trkpt lat="45.6864290577235" lon="11.337063000114817"><ele>422.0</ele><time>2026-04-10T12:07:38.998Z</time></trkpt><trkpt lat="45.68628214224587" lon="11.337070723699451"><ele>422.0</ele><time>2026-04-10T12:07:39.998Z</time></trkpt><trkpt lat="45.68614924462423" lon="11.337000917357415"><ele>422.0</ele><time>2026-04-10T12:07:40.998Z</time></trkpt><trkpt lat="45.68601760752857" lon="11.336905048511966"><ele>422.0</ele><time>2026-04-10T12:07:41.998Z</time></trkpt><trkpt lat="45.68588257222187" lon="11.336805077498727"><ele>422.0</ele><time>2026-04-10T12:07:42.998Z</time></trkpt><trkpt lat="45.685753722771885" lon="11.336708580536412"><ele>423.75</ele><time>2026-04-10T12:07:43.998Z</time></trkpt><trkpt lat="45.685625743814676" lon="11.336612734974038"><ele>425.5</ele><time>2026-04-10T12:07:44.998Z</time></trkpt><trkpt lat="45.68549069670072" lon="11.336536675664926"><ele>427.25</ele><time>2026-04-10T12:07:45.998Z</time></trkpt><trkpt lat="45.6853636392204" lon="11.336454557953394"><ele>429.0</ele><time>2026-04-10T12:07:46.998Z</time></trkpt><trkpt lat="45.6852281356192" lon="11.336389366945216"><ele>431.33333333333337</ele><time>2026-04-10T12:07:47.998Z</time></trkpt><trkpt lat="45.68509171552449" lon="11.336316017252312"><ele>433.6666666666667</ele><time>2026-04-10T12:07:48.998Z</time></trkpt><trkpt lat="45.68496031514359" lon="11.336198969912747"><ele>436.0</ele><time>2026-04-10T12:07:49.998Z</time></trkpt><trkpt lat="45.68481743413645" lon="11.336098913833895"><ele>436.0</ele><time>2026-04-10T12:07:50.998Z</time></trkpt><trkpt lat="45.684692089888266" lon="11.33598707079303"><ele>436.0</ele><time>2026-04-10T12:07:51.998Z</time></trkpt><trkpt lat="45.684558577448534" lon="11.335870605344953"><ele>436.0</ele><time>2026-04-10T12:07:52.998Z</time></trkpt><trkpt lat="45.68443102066346" lon="11.335739074859497"><ele>436.25</ele><time>2026-04-10T12:07:53.998Z</time></trkpt><trkpt lat="45.68430266510703" lon="11.335648920887278"><ele>436.5</ele><time>2026-04-10T12:07:54.998Z</time></trkpt><trkpt lat="45.6841881272252" lon="11.33555992412407"><ele>436.75</ele><time>2026-04-10T12:07:55.998Z</time></trkpt><trkpt lat="45.68406248714276" lon="11.335490965183343"><ele>437.0</ele><time>2026-04-10T12:07:56.998Z</time></trkpt><trkpt lat="45.68393632958405" lon="11.335424959792496"><ele>437.0</ele><time>2026-04-10T12:07:57.998Z</time></trkpt><trkpt lat="45.68383089902185" lon="11.33530325013357"><ele>437.0</ele><time>2026-04-10T12:07:58.998Z</time></trkpt><trkpt lat="45.68369729069019" lon="11.335209275741853"><ele>437.0</ele><time>2026-04-10T12:07:59.998Z</time></trkpt><trkpt lat="45.68356569043594" lon="11.33508646101668"><ele>437.0</ele><time>2026-04-10T12:08:00.998Z</time></trkpt><trkpt lat="45.68344568208132" lon="11.334981521397246"><ele>437.5</ele><time>2026-04-10T12:08:01.998Z</time></trkpt><trkpt lat="45.68334395679663" lon="11.334865178073132"><ele>438.0</ele><time>2026-04-10T12:08:02.998Z</time></trkpt><trkpt lat="45.68322505061067" lon="11.334790080603245"><ele>438.5</ele><time>2026-04-10T12:08:03.998Z</time></trkpt><trkpt lat="45.68311166808129" lon="11.33467117872856"><ele>439.0</ele><time>2026-04-10T12:08:04.998Z</time></trkpt><trkpt lat="45.68296566155403" lon="11.33459110120307"><ele>440.0</ele><time>2026-04-10T12:08:05.998Z</time></trkpt><trkpt lat="45.682821951747606" lon="11.334490379071179"><ele>441.0</ele><time>2026-04-10T12:08:06.998Z</time></trkpt><trkpt lat="45.682662769447205" lon="11.334405656459035"><ele>442.0</ele><time>2026-04-10T12:08:07.998Z</time></trkpt><trkpt lat="45.68250934136655" lon="11.334290473695551"><ele>443.0</ele><time>2026-04-10T12:08:08.998Z</time></trkpt><trkpt lat="45.68235693691023" lon="11.334150213165016"><ele>444.0</ele><time>2026-04-10T12:08:09.998Z</time></trkpt><trkpt lat="45.68218503997237" lon="11.3340059617433"><ele>445.0</ele><time>2026-04-10T12:08:10.998Z</time></trkpt><trkpt lat="45.68201464074569" lon="11.333869371646692"><ele>448.0</ele><time>2026-04-10T12:08:11.998Z</time></trkpt><trkpt lat="45.68186044380094" lon="11.33372020340764"><ele>451.0</ele><time>2026-04-10T12:08:12.998Z</time></trkpt><trkpt lat="45.681744081615356" lon="11.33357826558654"><ele>454.0</ele><time>2026-04-10T12:08:13.998Z</time></trkpt><trkpt lat="45.68164504295528" lon="11.333420593747038"><ele>454.0</ele><time>2026-04-10T12:08:14.998Z</time></trkpt><trkpt lat="45.68156926139298" lon="11.333237690162044"><ele>454.0</ele><time>2026-04-10T12:08:15.998Z</time></trkpt><trkpt lat="45.68150559971448" lon="11.333050061677529"><ele>454.0</ele><time>2026-04-10T12:08:16.998Z</time></trkpt><trkpt lat="45.681429501404544" lon="11.33288384392806"><ele>454.0</ele><time>2026-04-10T12:08:17.998Z</time></trkpt><trkpt lat="45.68134769910378" lon="11.332720660035813"><ele>454.75</ele><time>2026-04-10T12:08:18.998Z</time></trkpt><trkpt lat="45.6812403275312" lon="11.33257328241456"><ele>455.5</ele><time>2026-04-10T12:08:19.998Z</time></trkpt><trkpt lat="45.68111911538075" lon="11.332439775900308"><ele>456.25</ele><time>2026-04-10T12:08:20.998Z</time></trkpt><trkpt lat="45.68102694793876" lon="11.332301907379932"><ele>457.0</ele><time>2026-04-10T12:08:21.998Z</time></trkpt><trkpt lat="45.68097634126177" lon="11.33212030142392"><ele>461.0</ele><time>2026-04-10T12:08:22.998Z</time></trkpt><trkpt lat="45.68090860701193" lon="11.33193570897366"><ele>465.0</ele><time>2026-04-10T12:08:23.998Z</time></trkpt><trkpt lat="45.68085205285376" lon="11.331735876721158"><ele>469.0</ele><time>2026-04-10T12:08:24.998Z</time></trkpt><trkpt lat="45.680820191166156" lon="11.331511668586764"><ele>470.25</ele><time>2026-04-10T12:08:25.998Z</time></trkpt><trkpt lat="45.68077414491078" lon="11.33129045638392"><ele>471.5</ele><time>2026-04-10T12:08:26.998Z</time></trkpt><trkpt lat="45.680760877803486" lon="11.331103778791535"><ele>472.75</ele><time>2026-04-10T12:08:27.998Z</time></trkpt><trkpt lat="45.68073444343602" lon="11.330984242672523"><ele>474.0</ele><time>2026-04-10T12:08:28.998Z</time></trkpt><trkpt lat="45.68069535866862" lon="11.330848047949793"><ele>474.0</ele><time>2026-04-10T12:08:29.998Z</time></trkpt><trkpt lat="45.680612769372274" lon="11.330752792297499"><ele>474.0</ele><time>2026-04-10T12:08:30.998Z</time></trkpt><trkpt lat="45.680491826042" lon="11.331009739084282"><ele>474.0</ele><time>2026-04-10T12:08:31.998Z</time></trkpt><trkpt lat="45.6803357698088" lon="11.331044419587442"><ele>476.0</ele><time>2026-04-10T12:08:32.998Z</time></trkpt><trkpt lat="45.680173571625765" lon="11.331015634024718"><ele>478.0</ele><time>2026-04-10T12:08:33.998Z</time></trkpt><trkpt lat="45.680026377058965" lon="11.330977067199674"><ele>480.0</ele><time>2026-04-10T12:08:34.998Z</time></trkpt><trkpt lat="45.67988771341592" lon="11.330939767382873"><ele>480.0</ele><time>2026-04-10T12:08:35.998Z</time></trkpt><trkpt lat="45.67977272840199" lon="11.330909946555623"><ele>480.0</ele><time>2026-04-10T12:08:36.998Z</time></trkpt><trkpt lat="45.67970974183732" lon="11.330894417233289"><ele>480.0</ele><time>2026-04-10T12:08:37.998Z</time></trkpt><trkpt lat="45.67962579170276" lon="11.330862218064379"><ele>480.0</ele><time>2026-04-10T12:08:38.998Z</time></trkpt><trkpt lat="45.679576826932546" lon="11.33075777989343"><ele>480.0</ele><time>2026-04-10T12:08:40.998Z</time></trkpt><trkpt lat="45.67959681399542" lon="11.33066815351571"><ele>480.0</ele><time>2026-04-10T12:08:41.998Z</time></trkpt><trkpt lat="45.67967734708393" lon="11.330555348998995"><ele>482.75</ele><time>2026-04-10T12:08:42.999Z</time></trkpt><trkpt lat="45.679765066882595" lon="11.330423597371356"><ele>485.5</ele><time>2026-04-10T12:08:43.999Z</time></trkpt><trkpt lat="45.67983891392799" lon="11.33029897340925"><ele>488.25</ele><time>2026-04-10T12:08:44.999Z</time></trkpt><trkpt lat="45.67992559335844" lon="11.330132552373811"><ele>491.0</ele><time>2026-04-10T12:08:45.999Z</time></trkpt><trkpt lat="45.680016062873925" lon="11.329989438946786"><ele>491.0</ele><time>2026-04-10T12:08:46.999Z</time></trkpt><trkpt lat="45.68012740947173" lon="11.329835713394766"><ele>491.0</ele><time>2026-04-10T12:08:47.999Z</time></trkpt><trkpt lat="45.68021839192575" lon="11.32970317019927"><ele>491.0</ele><time>2026-04-10T12:08:48.999Z</time></trkpt><trkpt lat="45.680318984875164" lon="11.329523769908775"><ele>491.0</ele><time>2026-04-10T12:08:49.999Z</time></trkpt><trkpt lat="45.680424650003765" lon="11.329345286510295"><ele>494.25</ele><time>2026-04-10T12:08:50.999Z</time></trkpt><trkpt lat="45.680517094617485" lon="11.329163320301264"><ele>497.5</ele><time>2026-04-10T12:08:51.999Z</time></trkpt><trkpt lat="45.680617065501025" lon="11.329029670222559"><ele>500.75</ele><time>2026-04-10T12:08:52.999Z</time></trkpt><trkpt lat="45.680735091518" lon="11.328963004857284"><ele>504.0</ele><time>2026-04-10T12:08:53.999Z</time></trkpt><trkpt lat="45.68086157652309" lon="11.328916242435664"><ele>505.79999999999995</ele><time>2026-04-10T12:08:54.999Z</time></trkpt><trkpt lat="45.68099420218166" lon="11.328877300925859"><ele>507.59999999999997</ele><time>2026-04-10T12:08:55.999Z</time></trkpt><trkpt lat="45.681082466022616" lon="11.328839230258264"><ele>509.4</ele><time>2026-04-10T12:08:56.999Z</time></trkpt><trkpt lat="45.68115299937852" lon="11.328785534615083"><ele>511.2</ele><time>2026-04-10T12:08:57.999Z</time></trkpt><trkpt lat="45.68117580735665" lon="11.328682580504708"><ele>513.0</ele><time>2026-04-10T12:08:58.999Z</time></trkpt><trkpt lat="45.68113184715632" lon="11.328573360518543"><ele>513.0</ele><time>2026-04-10T12:08:59.999Z</time></trkpt><trkpt lat="45.68109266694197" lon="11.328443072916029"><ele>513.0</ele><time>2026-04-10T12:09:00.999Z</time></trkpt><trkpt lat="45.681030803124465" lon="11.328297343367677"><ele>513.0</ele><time>2026-04-10T12:09:01.999Z</time></trkpt><trkpt lat="45.68101153166696" lon="11.328135700353746"><ele>513.0</ele><time>2026-04-10T12:09:02.999Z</time></trkpt><trkpt lat="45.68101540683555" lon="11.32799972405591"><ele>513.0</ele><time>2026-04-10T12:09:03.999Z</time></trkpt><trkpt lat="45.68100637050311" lon="11.327882898860507"><ele>515.3333333333334</ele><time>2026-04-10T12:09:04.999Z</time></trkpt><trkpt lat="45.68120037228308" lon="11.327733526974233"><ele>517.6666666666667</ele><time>2026-04-10T12:09:05.999Z</time></trkpt><trkpt lat="45.6812847107052" lon="11.32757288681608"><ele>520.0</ele><time>2026-04-10T12:09:06.999Z</time></trkpt><trkpt lat="45.68137278696544" lon="11.327401694367245"><ele>520.25</ele><time>2026-04-10T12:09:07.999Z</time></trkpt><trkpt lat="45.68146510190069" lon="11.327219002474543"><ele>520.5</ele><time>2026-04-10T12:09:08.999Z</time></trkpt><trkpt lat="45.68151908406659" lon="11.327072926679975"><ele>520.75</ele><time>2026-04-10T12:09:09.999Z</time></trkpt><trkpt lat="45.68153153256412" lon="11.326934670575259"><ele>521.0</ele><time>2026-04-10T12:09:10.999Z</time></trkpt><trkpt lat="45.68150524051279" lon="11.326768792662847"><ele>521.0</ele><time>2026-04-10T12:09:11.999Z</time></trkpt><trkpt lat="45.68147406262707" lon="11.326606639201186"><ele>521.0</ele><time>2026-04-10T12:09:12.999Z</time></trkpt><trkpt lat="45.68141131424891" lon="11.326631320719866"><ele>521.0</ele><time>2026-04-10T12:09:28.999Z</time></trkpt><trkpt lat="45.6813356871655" lon="11.326566388936444"><ele>521.0</ele><time>2026-04-10T12:09:31.999Z</time></trkpt><trkpt lat="45.6813469237787" lon="11.326366374708718"><ele>521.0</ele><time>2026-04-10T12:09:33.999Z</time></trkpt><trkpt lat="45.681345881954485" lon="11.32623671768937"><ele>521.5</ele><time>2026-04-10T12:09:34.999Z</time></trkpt><trkpt lat="45.68133821066706" lon="11.326095344469627"><ele>522.0</ele><time>2026-04-10T12:09:35.999Z</time></trkpt><trkpt lat="45.68132098381524" lon="11.325921734871969"><ele>522.5</ele><time>2026-04-10T12:09:36.999Z</time></trkpt><trkpt lat="45.68130289625846" lon="11.325753808864478"><ele>523.0</ele><time>2026-04-10T12:09:37.999Z</time></trkpt><trkpt lat="45.68127750434094" lon="11.32558515577502"><ele>522.8333333333334</ele><time>2026-04-10T12:09:38.999Z</time></trkpt><trkpt lat="45.68125672020742" lon="11.325441129860653"><ele>522.6666666666667</ele><time>2026-04-10T12:09:39.999Z</time></trkpt><trkpt lat="45.681232100168934" lon="11.325322835114312"><ele>522.5</ele><time>2026-04-10T12:09:40.999Z</time></trkpt><trkpt lat="45.68119773812885" lon="11.325237554589963"><ele>522.3333333333334</ele><time>2026-04-10T12:09:41.999Z</time></trkpt><trkpt lat="45.681130840313095" lon="11.325163437780839"><ele>522.1666666666666</ele><time>2026-04-10T12:09:42.999Z</time></trkpt><trkpt lat="45.68104861168947" lon="11.325112328701792"><ele>522.0</ele><time>2026-04-10T12:09:43.999Z</time></trkpt><trkpt lat="45.680952927134705" lon="11.325081264884295"><ele>527.2</ele><time>2026-04-10T12:09:44.999Z</time></trkpt><trkpt lat="45.680854791266725" lon="11.325043670631013"><ele>532.4000000000001</ele><time>2026-04-10T12:09:45.999Z</time></trkpt><trkpt lat="45.68075906753043" lon="11.32500087535061"><ele>537.5999999999999</ele><time>2026-04-10T12:09:46.999Z</time></trkpt><trkpt lat="45.68066917461226" lon="11.32494254659607"><ele>542.8</ele><time>2026-04-10T12:09:47.999Z</time></trkpt><trkpt lat="45.68058749623918" lon="11.324907333285775"><ele>548.0</ele><time>2026-04-10T12:09:48.999Z</time></trkpt><trkpt lat="45.68052040353383" lon="11.324890262156082"><ele>548.0</ele><time>2026-04-10T12:09:49.999Z</time></trkpt><trkpt lat="45.68045026580901" lon="11.324921754872225"><ele>548.0</ele><time>2026-04-10T12:09:51.999Z</time></trkpt><trkpt lat="45.680349692325464" lon="11.324940255630823"><ele>548.0</ele><time>2026-04-10T12:10:38.998Z</time></trkpt><trkpt lat="45.680264421448534" lon="11.325033656347605"><ele>548.0</ele><time>2026-04-10T12:10:40.998Z</time></trkpt><trkpt lat="45.68018799453453" lon="11.32511989303611"><ele>548.0</ele><time>2026-04-10T12:10:41.998Z</time></trkpt><trkpt lat="45.680122120862" lon="11.32521127678697"><ele>551.75</ele><time>2026-04-10T12:10:42.998Z</time></trkpt><trkpt lat="45.680045347698055" lon="11.325327204280509"><ele>555.5</ele><time>2026-04-10T12:10:43.998Z</time></trkpt><trkpt lat="45.67997844730087" lon="11.325449116889517"><ele>559.25</ele><time>2026-04-10T12:10:44.998Z</time></trkpt><trkpt lat="45.67991187882123" lon="11.325586117561594"><ele>563.0</ele><time>2026-04-10T12:10:45.998Z</time></trkpt><trkpt lat="45.67983198882515" lon="11.325735666119376"><ele>563.0</ele><time>2026-04-10T12:10:46.998Z</time></trkpt><trkpt lat="45.67973749065888" lon="11.325873663024845"><ele>563.0</ele><time>2026-04-10T12:10:48Z</time></trkpt><trkpt lat="45.67960559910633" lon="11.325984890886712"><ele>563.0</ele><time>2026-04-10T12:10:49Z</time></trkpt><trkpt lat="45.67946729754356" lon="11.326086329516635"><ele>563.0</ele><time>2026-04-10T12:10:50Z</time></trkpt><trkpt lat="45.679326261392255" lon="11.326204108294297"><ele>567.0</ele><time>2026-04-10T12:10:51Z</time></trkpt><trkpt lat="45.6791975063633" lon="11.326354336754099"><ele>571.0</ele><time>2026-04-10T12:10:52Z</time></trkpt><trkpt lat="45.679075210605646" lon="11.326520189299433"><ele>575.0</ele><time>2026-04-10T12:10:53Z</time></trkpt><trkpt lat="45.678982484106996" lon="11.326651386037229"><ele>575.0</ele><time>2026-04-10T12:10:54Z</time></trkpt><trkpt lat="45.678918818126924" lon="11.326765038507869"><ele>575.0</ele><time>2026-04-10T12:10:55Z</time></trkpt><trkpt lat="45.678879797663626" lon="11.326905587342834"><ele>575.0</ele><time>2026-04-10T12:10:56Z</time></trkpt><trkpt lat="45.67887908116493" lon="11.327083964267581"><ele>575.0</ele><time>2026-04-10T12:10:57Z</time></trkpt><trkpt lat="45.67889717940391" lon="11.32728676557732"><ele>571.5</ele><time>2026-04-10T12:10:58Z</time></trkpt><trkpt lat="45.67889915535502" lon="11.327496612009538"><ele>568.0</ele><time>2026-04-10T12:10:59Z</time></trkpt><trkpt lat="45.678857451327914" lon="11.327705382514745"><ele>564.5</ele><time>2026-04-10T12:11:00Z</time></trkpt><trkpt lat="45.678811642498026" lon="11.32790831188421"><ele>561.0</ele><time>2026-04-10T12:11:01Z</time></trkpt><trkpt lat="45.678753783224856" lon="11.328088346909661"><ele>558.2</ele><time>2026-04-10T12:11:02Z</time></trkpt><trkpt lat="45.678747943510814" lon="11.328232059171802"><ele>555.4000000000001</ele><time>2026-04-10T12:11:03Z</time></trkpt><trkpt lat="45.67872742504901" lon="11.328342911704258"><ele>552.6</ele><time>2026-04-10T12:11:04Z</time></trkpt><trkpt lat="45.678655795909684" lon="11.328429456061063"><ele>549.8000000000001</ele><time>2026-04-10T12:11:05Z</time></trkpt><trkpt lat="45.678588284785995" lon="11.32850431914298"><ele>547.0</ele><time>2026-04-10T12:11:06Z</time></trkpt><trkpt lat="45.67845028559114" lon="11.328572857194013"><ele>557.6</ele><time>2026-04-10T12:11:07Z</time></trkpt><trkpt lat="45.67834400624377" lon="11.32864263693339"><ele>568.2</ele><time>2026-04-10T12:11:08Z</time></trkpt><trkpt lat="45.67827341008871" lon="11.328696796124195"><ele>578.8</ele><time>2026-04-10T12:11:09Z</time></trkpt><trkpt lat="45.678192952385665" lon="11.328739982120016"><ele>589.4</ele><time>2026-04-10T12:11:11Z</time></trkpt><trkpt lat="45.678173161986656" lon="11.328625560563362"><ele>600.0</ele><time>2026-04-10T12:11:14Z</time></trkpt><trkpt lat="45.67829589445243" lon="11.328534926041385"><ele>600.0</ele><time>2026-04-10T12:11:16Z</time></trkpt><trkpt lat="45.67837056946299" lon="11.328438876824235"><ele>600.0</ele><time>2026-04-10T12:11:17Z</time></trkpt><trkpt lat="45.678427710061136" lon="11.328317519120047"><ele>600.0</ele><time>2026-04-10T12:11:17.999Z</time></trkpt><trkpt lat="45.67848407289112" lon="11.328169169947449"><ele>600.0</ele><time>2026-04-10T12:11:18.999Z</time></trkpt><trkpt lat="45.6785209911654" lon="11.32805484140641"><ele>600.0</ele><time>2026-04-10T12:11:19.999Z</time></trkpt><trkpt lat="45.67850831183539" lon="11.327928915431729"><ele>600.0</ele><time>2026-04-10T12:11:21.999Z</time></trkpt><trkpt lat="45.67842012896382" lon="11.327959599611491"><ele>600.0</ele><time>2026-04-10T12:11:23.999Z</time></trkpt><trkpt lat="45.678396833907655" lon="11.328045573472851"><ele>600.0</ele><time>2026-04-10T12:11:24.999Z</time></trkpt><trkpt lat="45.67837306455464" lon="11.328164337615274"><ele>600.0</ele><time>2026-04-10T12:11:25.999Z</time></trkpt><trkpt lat="45.678308328666176" lon="11.328286839361063"><ele>600.0</ele><time>2026-04-10T12:11:26.999Z</time></trkpt><trkpt lat="45.67822360911671" lon="11.328380202402748"><ele>600.0</ele><time>2026-04-10T12:11:27.999Z</time></trkpt><trkpt lat="45.678108050789575" lon="11.328480370046684"><ele>600.0</ele><time>2026-04-10T12:11:28.999Z</time></trkpt><trkpt lat="45.67797295578693" lon="11.328575557603207"><ele>600.0</ele><time>2026-04-10T12:11:29.999Z</time></trkpt><trkpt lat="45.67784662938124" lon="11.328660700038837"><ele>600.0</ele><time>2026-04-10T12:11:30.999Z</time></trkpt><trkpt lat="45.67772142069961" lon="11.328769772777601"><ele>601.3333333333334</ele><time>2026-04-10T12:11:31.999Z</time></trkpt><trkpt lat="45.677584877068156" lon="11.328896880352824"><ele>602.6666666666667</ele><time>2026-04-10T12:11:32.999Z</time></trkpt><trkpt lat="45.6774456256812" lon="11.329018143694617"><ele>604.0</ele><time>2026-04-10T12:11:33.999Z</time></trkpt><trkpt lat="45.67729996701125" lon="11.329121403352381"><ele>604.0</ele><time>2026-04-10T12:11:34.999Z</time></trkpt><trkpt lat="45.677156187650894" lon="11.329202388515448"><ele>604.0</ele><time>2026-04-10T12:11:35.999Z</time></trkpt><trkpt lat="45.67702388011018" lon="11.329250224492737"><ele>604.0</ele><time>2026-04-10T12:11:36.999Z</time></trkpt><trkpt lat="45.67691082525026" lon="11.329258116087647"><ele>604.0</ele><time>2026-04-10T12:11:37.999Z</time></trkpt><trkpt lat="45.67681869394671" lon="11.329215070504684"><ele>607.25</ele><time>2026-04-10T12:11:38.999Z</time></trkpt><trkpt lat="45.67672937764007" lon="11.329122925699101"><ele>610.5</ele><time>2026-04-10T12:11:39.999Z</time></trkpt><trkpt lat="45.67663740775749" lon="11.328986759340061"><ele>613.75</ele><time>2026-04-10T12:11:40.999Z</time></trkpt><trkpt lat="45.67654310869501" lon="11.328831657154424"><ele>617.0</ele><time>2026-04-10T12:11:41.999Z</time></trkpt><trkpt lat="45.67644635931073" lon="11.328675858300588"><ele>619.0</ele><time>2026-04-10T12:11:42.999Z</time></trkpt><trkpt lat="45.67637132991029" lon="11.328548817670407"><ele>621.0</ele><time>2026-04-10T12:11:43.999Z</time></trkpt><trkpt lat="45.676329118963366" lon="11.328413055879516"><ele>623.0</ele><time>2026-04-10T12:11:44.999Z</time></trkpt><trkpt lat="45.67630520483812" lon="11.328265273094482"><ele>625.0</ele><time>2026-04-10T12:11:45.999Z</time></trkpt><trkpt lat="45.67629731869192" lon="11.328110564843668"><ele>627.0</ele><time>2026-04-10T12:11:46.999Z</time></trkpt><trkpt lat="45.676294867782204" lon="11.327943784403677"><ele>627.4</ele><time>2026-04-10T12:11:47.999Z</time></trkpt><trkpt lat="45.67628360494229" lon="11.32777209743891"><ele>627.8000000000001</ele><time>2026-04-10T12:11:48.999Z</time></trkpt><trkpt lat="45.676263164375264" lon="11.327628306386472"><ele>628.2</ele><time>2026-04-10T12:11:49.999Z</time></trkpt><trkpt lat="45.676233302389434" lon="11.327500528328182"><ele>628.6</ele><time>2026-04-10T12:11:50.999Z</time></trkpt><trkpt lat="45.676221758394675" lon="11.327375184947186"><ele>629.0</ele><time>2026-04-10T12:11:51.999Z</time></trkpt><trkpt lat="45.67622936616681" lon="11.327246886251926"><ele>631.0</ele><time>2026-04-10T12:11:52.999Z</time></trkpt><trkpt lat="45.67620650543592" lon="11.327114390863452"><ele>633.0</ele><time>2026-04-10T12:11:53.999Z</time></trkpt><trkpt lat="45.67614944559574" lon="11.326951384091078"><ele>635.0</ele><time>2026-04-10T12:11:54.999Z</time></trkpt><trkpt lat="45.676100359752404" lon="11.326790430833695"><ele>637.0</ele><time>2026-04-10T12:11:55.999Z</time></trkpt><trkpt lat="45.67604838095317" lon="11.32661928864146"><ele>636.75</ele><time>2026-04-10T12:11:56.999Z</time></trkpt><trkpt lat="45.67597438182277" lon="11.32646752916766"><ele>636.5</ele><time>2026-04-10T12:11:57.999Z</time></trkpt><trkpt lat="45.67588180939342" lon="11.326346463494993"><ele>636.25</ele><time>2026-04-10T12:11:58.999Z</time></trkpt><trkpt lat="45.675767475105836" lon="11.326242576699256"><ele>636.0</ele><time>2026-04-10T12:11:59.999Z</time></trkpt><trkpt lat="45.67564077300792" lon="11.326140502071015"><ele>636.0</ele><time>2026-04-10T12:12:00.999Z</time></trkpt><trkpt lat="45.67552139732232" lon="11.32601034937203"><ele>636.0</ele><time>2026-04-10T12:12:01.999Z</time></trkpt><trkpt lat="45.67541937848481" lon="11.325842724056699"><ele>636.0</ele><time>2026-04-10T12:12:02.999Z</time></trkpt><trkpt lat="45.6753217614781" lon="11.32566333052514"><ele>636.0</ele><time>2026-04-10T12:12:03.999Z</time></trkpt><trkpt lat="45.67520233163637" lon="11.325506118718598"><ele>636.0</ele><time>2026-04-10T12:12:04.999Z</time></trkpt><trkpt lat="45.67508601046996" lon="11.325363912814137"><ele>636.0</ele><time>2026-04-10T12:12:05.999Z</time></trkpt><trkpt lat="45.67498374787003" lon="11.32520159459211"><ele>636.0</ele><time>2026-04-10T12:12:06.999Z</time></trkpt><trkpt lat="45.67490284358836" lon="11.325053038787654"><ele>636.0</ele><time>2026-04-10T12:12:07.999Z</time></trkpt><trkpt lat="45.674868069298896" lon="11.324859776267822"><ele>636.0</ele><time>2026-04-10T12:12:08.999Z</time></trkpt><trkpt lat="45.67482861636249" lon="11.324716263676013"><ele>636.0</ele><time>2026-04-10T12:12:09.999Z</time></trkpt><trkpt lat="45.67477396079219" lon="11.324610469823433"><ele>636.0</ele><time>2026-04-10T12:12:10.999Z</time></trkpt><trkpt lat="45.674728473515714" lon="11.324537827978219"><ele>636.0</ele><time>2026-04-10T12:12:11.999Z</time></trkpt><trkpt lat="45.674612172564174" lon="11.32456653462858"><ele>636.0</ele><time>2026-04-10T12:12:13.999Z</time></trkpt><trkpt lat="45.67457366141767" lon="11.324671347249698"><ele>636.0</ele><time>2026-04-10T12:12:14.999Z</time></trkpt><trkpt lat="45.674561345193965" lon="11.324838216170095"><ele>636.0</ele><time>2026-04-10T12:12:15.999Z</time></trkpt><trkpt lat="45.674556313148365" lon="11.325016145006943"><ele>636.0</ele><time>2026-04-10T12:12:16.999Z</time></trkpt><trkpt lat="45.67451295641639" lon="11.325168260877655"><ele>636.0</ele><time>2026-04-10T12:12:17.999Z</time></trkpt><trkpt lat="45.67442975034054" lon="11.325254209074979"><ele>636.0</ele><time>2026-04-10T12:12:18.999Z</time></trkpt><trkpt lat="45.67431068247812" lon="11.325302286357848"><ele>636.0</ele><time>2026-04-10T12:12:19.999Z</time></trkpt><trkpt lat="45.6741642954122" lon="11.32535288101087"><ele>634.0</ele><time>2026-04-10T12:12:20.999Z</time></trkpt><trkpt lat="45.67401604618089" lon="11.32545546342195"><ele>632.0</ele><time>2026-04-10T12:12:21.999Z</time></trkpt><trkpt lat="45.673915293825516" lon="11.32561972922862"><ele>630.0</ele><time>2026-04-10T12:12:22.999Z</time></trkpt><trkpt lat="45.67385132023488" lon="11.325817109583467"><ele>630.0</ele><time>2026-04-10T12:12:23.999Z</time></trkpt><trkpt lat="45.67380325538598" lon="11.326045104268593"><ele>630.0</ele><time>2026-04-10T12:12:24.999Z</time></trkpt><trkpt lat="45.673742050479895" lon="11.326272500350276"><ele>630.0</ele><time>2026-04-10T12:12:25.999Z</time></trkpt><trkpt lat="45.67364175704711" lon="11.326487321959371"><ele>637.6666666666666</ele><time>2026-04-10T12:12:26.999Z</time></trkpt><trkpt lat="45.673508610350055" lon="11.326688608352834"><ele>645.3333333333333</ele><time>2026-04-10T12:12:27.999Z</time></trkpt><trkpt lat="45.6734649796332" lon="11.326937436472043"><ele>653.0</ele><time>2026-04-10T12:12:28.999Z</time></trkpt><trkpt lat="45.67343479398549" lon="11.327187107038775"><ele>649.0</ele><time>2026-04-10T12:12:29.999Z</time></trkpt><trkpt lat="45.673430088014115" lon="11.327417307345366"><ele>645.0</ele><time>2026-04-10T12:12:30.999Z</time></trkpt><trkpt lat="45.67345790022872" lon="11.3276226811625"><ele>641.0</ele><time>2026-04-10T12:12:31.999Z</time></trkpt><trkpt lat="45.673501874204746" lon="11.327772468434363"><ele>637.0</ele><time>2026-04-10T12:12:32.999Z</time></trkpt><trkpt lat="45.67354255672322" lon="11.327885482259038"><ele>637.0</ele><time>2026-04-10T12:12:33.999Z</time></trkpt><trkpt lat="45.6735445845199" lon="11.327999802677358"><ele>637.0</ele><time>2026-04-10T12:12:34.999Z</time></trkpt><trkpt lat="45.67349514827793" lon="11.328127595183966"><ele>637.0</ele><time>2026-04-10T12:12:35.999Z</time></trkpt><trkpt lat="45.67343694864158" lon="11.32822634345037"><ele>637.0</ele><time>2026-04-10T12:12:36.999Z</time></trkpt><trkpt lat="45.67336681874708" lon="11.328264010853024"><ele>637.0</ele><time>2026-04-10T12:12:37.999Z</time></trkpt><trkpt lat="45.67330073432938" lon="11.328236605313121"><ele>637.0</ele><time>2026-04-10T12:12:38.999Z</time></trkpt><trkpt lat="45.67323451565892" lon="11.32815353646923"><ele>637.0</ele><time>2026-04-10T12:12:39.999Z</time></trkpt><trkpt lat="45.673169002177254" lon="11.328027791139947"><ele>637.0</ele><time>2026-04-10T12:12:40.999Z</time></trkpt><trkpt lat="45.673090800854965" lon="11.327900599337845"><ele>637.0</ele><time>2026-04-10T12:12:41.999Z</time></trkpt><trkpt lat="45.672990112834626" lon="11.327792970547602"><ele>637.0</ele><time>2026-04-10T12:12:42.999Z</time></trkpt><trkpt lat="45.67288362828016" lon="11.327749868376765"><ele>641.5</ele><time>2026-04-10T12:12:43.999Z</time></trkpt><trkpt lat="45.67276708603259" lon="11.327762473817264"><ele>646.0</ele><time>2026-04-10T12:12:44.999Z</time></trkpt><trkpt lat="45.67265360658628" lon="11.3278194821989"><ele>650.5</ele><time>2026-04-10T12:12:45.999Z</time></trkpt><trkpt lat="45.67254204337518" lon="11.327924171189341"><ele>655.0</ele><time>2026-04-10T12:12:46.999Z</time></trkpt><trkpt lat="45.67242624047014" lon="11.328000860136434"><ele>655.0</ele><time>2026-04-10T12:12:47.999Z</time></trkpt><trkpt lat="45.67229083813367" lon="11.328042823747287"><ele>655.0</ele><time>2026-04-10T12:12:48.999Z</time></trkpt><trkpt lat="45.67216117870606" lon="11.328106657374267"><ele>655.0</ele><time>2026-04-10T12:12:49.999Z</time></trkpt><trkpt lat="45.67203746883855" lon="11.328082950381566"><ele>655.0</ele><time>2026-04-10T12:12:50.999Z</time></trkpt><trkpt lat="45.671939825608845" lon="11.328051258416833"><ele>652.75</ele><time>2026-04-10T12:12:51.999Z</time></trkpt><trkpt lat="45.67177858094357" lon="11.327982032230608"><ele>650.5</ele><time>2026-04-10T12:12:52.998Z</time></trkpt><trkpt lat="45.67165628835223" lon="11.327902832747867"><ele>648.25</ele><time>2026-04-10T12:12:54Z</time></trkpt><trkpt lat="45.671554979683926" lon="11.327783050788472"><ele>646.0</ele><time>2026-04-10T12:12:55Z</time></trkpt><trkpt lat="45.671456443330015" lon="11.327634388820886"><ele>646.0</ele><time>2026-04-10T12:12:56Z</time></trkpt><trkpt lat="45.67136891616358" lon="11.327481208740041"><ele>646.0</ele><time>2026-04-10T12:12:57Z</time></trkpt><trkpt lat="45.67127342249145" lon="11.327335379691602"><ele>646.0</ele><time>2026-04-10T12:12:58Z</time></trkpt><trkpt lat="45.67116449174774" lon="11.327202184071124"><ele>646.0</ele><time>2026-04-10T12:12:59Z</time></trkpt><trkpt lat="45.67106719328638" lon="11.327074682785407"><ele>646.0</ele><time>2026-04-10T12:13:00Z</time></trkpt><trkpt lat="45.67100688326846" lon="11.326941076346301"><ele>646.0</ele><time>2026-04-10T12:13:01Z</time></trkpt><trkpt lat="45.67096896805496" lon="11.326802584932762"><ele>646.0</ele><time>2026-04-10T12:13:02Z</time></trkpt><trkpt lat="45.67091984751474" lon="11.326663042428287"><ele>646.0</ele><time>2026-04-10T12:13:03Z</time></trkpt><trkpt lat="45.67084266649746" lon="11.326534280661503"><ele>646.0</ele><time>2026-04-10T12:13:04Z</time></trkpt><trkpt lat="45.67076552502584" lon="11.326429828996169"><ele>647.8333333333334</ele><time>2026-04-10T12:13:05Z</time></trkpt><trkpt lat="45.670711626451215" lon="11.32636064428019"><ele>649.6666666666667</ele><time>2026-04-10T12:13:06Z</time></trkpt><trkpt lat="45.67063100224466" lon="11.32633145606149"><ele>651.5</ele><time>2026-04-10T12:13:09Z</time></trkpt><trkpt lat="45.67057041545565" lon="11.326301354700005"><ele>653.3333333333334</ele><time>2026-04-10T12:13:11Z</time></trkpt><trkpt lat="45.67050045218104" lon="11.326230211633396"><ele>655.1666666666666</ele><time>2026-04-10T12:13:14Z</time></trkpt><trkpt lat="45.67043193824536" lon="11.326124273997218"><ele>657.0</ele><time>2026-04-10T12:13:16Z</time></trkpt><trkpt lat="45.67039436873891" lon="11.325940555079034"><ele>657.0</ele><time>2026-04-10T12:13:18Z</time></trkpt><trkpt lat="45.67038274434009" lon="11.325807710864876"><ele>657.0</ele><time>2026-04-10T12:13:19Z</time></trkpt><trkpt lat="45.67037283252772" lon="11.32565064237651"><ele>657.0</ele><time>2026-04-10T12:13:20Z</time></trkpt><trkpt lat="45.67035195130087" lon="11.325509436611842"><ele>657.0</ele><time>2026-04-10T12:13:21Z</time></trkpt><trkpt lat="45.67031259852928" lon="11.325408189666847"><ele>657.0</ele><time>2026-04-10T12:13:22Z</time></trkpt><trkpt lat="45.67026774816013" lon="11.325312572619286"><ele>656.0</ele><time>2026-04-10T12:13:23Z</time></trkpt><trkpt lat="45.670263069871524" lon="11.32520765787678"><ele>655.0</ele><time>2026-04-10T12:13:24Z</time></trkpt><trkpt lat="45.670306818832415" lon="11.325117324854249"><ele>654.0</ele><time>2026-04-10T12:13:25Z</time></trkpt><trkpt lat="45.6703895714222" lon="11.325070489417373"><ele>653.0</ele><time>2026-04-10T12:13:26Z</time></trkpt><trkpt lat="45.67047224172265" lon="11.325010874202755"><ele>652.0</ele><time>2026-04-10T12:13:27Z</time></trkpt><trkpt lat="45.67052648124449" lon="11.324896835419965"><ele>651.0</ele><time>2026-04-10T12:13:28Z</time></trkpt><trkpt lat="45.6705465545893" lon="11.324759095378674"><ele>648.5</ele><time>2026-04-10T12:13:29Z</time></trkpt><trkpt lat="45.6705756625802" lon="11.324612581572744"><ele>646.0</ele><time>2026-04-10T12:13:30Z</time></trkpt><trkpt lat="45.67060607886362" lon="11.32445142831679"><ele>643.5</ele><time>2026-04-10T12:13:31Z</time></trkpt><trkpt lat="45.67062458159927" lon="11.32429252831314"><ele>641.0</ele><time>2026-04-10T12:13:32Z</time></trkpt><trkpt lat="45.67063198977183" lon="11.324117581652455"><ele>641.0</ele><time>2026-04-10T12:13:33Z</time></trkpt><trkpt lat="45.670654794365895" lon="11.323939680547662"><ele>641.0</ele><time>2026-04-10T12:13:34Z</time></trkpt><trkpt lat="45.67068844450944" lon="11.323772296422264"><ele>641.0</ele><time>2026-04-10T12:13:35Z</time></trkpt><trkpt lat="45.67074618478478" lon="11.3236057299585"><ele>641.0</ele><time>2026-04-10T12:13:36Z</time></trkpt><trkpt lat="45.67081128061419" lon="11.323439629412354"><ele>639.75</ele><time>2026-04-10T12:13:37Z</time></trkpt><trkpt lat="45.67088383324447" lon="11.3232510948253"><ele>638.5</ele><time>2026-04-10T12:13:38Z</time></trkpt><trkpt lat="45.67093293330292" lon="11.323062218128198"><ele>637.25</ele><time>2026-04-10T12:13:39Z</time></trkpt><trkpt lat="45.67096146108634" lon="11.322854547050776"><ele>636.0</ele><time>2026-04-10T12:13:40Z</time></trkpt><trkpt lat="45.670983271500404" lon="11.322627915287596"><ele>636.0</ele><time>2026-04-10T12:13:41Z</time></trkpt><trkpt lat="45.67101702548695" lon="11.322403438537606"><ele>636.0</ele><time>2026-04-10T12:13:42Z</time></trkpt><trkpt lat="45.67107836079106" lon="11.322193029336265"><ele>636.0</ele><time>2026-04-10T12:13:43Z</time></trkpt><trkpt lat="45.67117189067498" lon="11.321998519948053"><ele>643.0</ele><time>2026-04-10T12:13:44Z</time></trkpt><trkpt lat="45.67127014883224" lon="11.321804903545695"><ele>650.0</ele><time>2026-04-10T12:13:45Z</time></trkpt><trkpt lat="45.671363740995034" lon="11.321602607007067"><ele>657.0</ele><time>2026-04-10T12:13:46Z</time></trkpt><trkpt lat="45.67145091394882" lon="11.321390378348124"><ele>657.0</ele><time>2026-04-10T12:13:47Z</time></trkpt><trkpt lat="45.671522003621966" lon="11.321168147149514"><ele>657.0</ele><time>2026-04-10T12:13:48Z</time></trkpt><trkpt lat="45.67157406607655" lon="11.320973868366673"><ele>657.0</ele><time>2026-04-10T12:13:48.999Z</time></trkpt><trkpt lat="45.67161343969339" lon="11.320807698149679"><ele>657.0</ele><time>2026-04-10T12:13:49.999Z</time></trkpt><trkpt lat="45.67169700938231" lon="11.320693194060972"><ele>657.0</ele><time>2026-04-10T12:13:50.999Z</time></trkpt><trkpt lat="45.67178714486982" lon="11.32058301930983"><ele>657.0</ele><time>2026-04-10T12:13:51.999Z</time></trkpt><trkpt lat="45.67189678832324" lon="11.320472429471039"><ele>657.0</ele><time>2026-04-10T12:13:52.999Z</time></trkpt><trkpt lat="45.672009242153436" lon="11.320354860118913"><ele>657.0</ele><time>2026-04-10T12:13:53.999Z</time></trkpt><trkpt lat="45.67210147496401" lon="11.320262829186483"><ele>657.1666666666666</ele><time>2026-04-10T12:13:54.999Z</time></trkpt><trkpt lat="45.67218705255529" lon="11.320211385394304"><ele>657.3333333333334</ele><time>2026-04-10T12:13:55.999Z</time></trkpt><trkpt lat="45.67227785521614" lon="11.320190881751019"><ele>657.5</ele><time>2026-04-10T12:13:56.999Z</time></trkpt><trkpt lat="45.67237276278584" lon="11.32019353968836"><ele>657.6666666666667</ele><time>2026-04-10T12:13:57.999Z</time></trkpt><trkpt lat="45.67245949925752" lon="11.320209858451358"><ele>657.8333333333334</ele><time>2026-04-10T12:13:58.999Z</time></trkpt><trkpt lat="45.67252193909006" lon="11.320247668189733"><ele>658.0</ele><time>2026-04-10T12:13:59.999Z</time></trkpt><trkpt lat="45.672591793486035" lon="11.320311216055035"><ele>658.0</ele><time>2026-04-10T12:14:00.999Z</time></trkpt><trkpt lat="45.67269823289056" lon="11.320346660015547"><ele>658.0</ele><time>2026-04-10T12:14:01.999Z</time></trkpt><trkpt lat="45.67280950446446" lon="11.32039514551757"><ele>658.0</ele><time>2026-04-10T12:14:02.999Z</time></trkpt><trkpt lat="45.67293786325171" lon="11.320418998156331"><ele>658.0</ele><time>2026-04-10T12:14:03.999Z</time></trkpt><trkpt lat="45.673052613590954" lon="11.320423817180789"><ele>659.2</ele><time>2026-04-10T12:14:04.999Z</time></trkpt><trkpt lat="45.67314959185369" lon="11.32040600297475"><ele>660.4</ele><time>2026-04-10T12:14:05.999Z</time></trkpt><trkpt lat="45.67323266423641" lon="11.32037153673765"><ele>661.6</ele><time>2026-04-10T12:14:06.999Z</time></trkpt><trkpt lat="45.67328600576303" lon="11.320308766856698"><ele>662.8000000000001</ele><time>2026-04-10T12:14:07.999Z</time></trkpt><trkpt lat="45.673341286668915" lon="11.320209714591757"><ele>664.0</ele><time>2026-04-10T12:14:08.999Z</time></trkpt><trkpt lat="45.673422418470125" lon="11.320098644209736"><ele>664.0</ele><time>2026-04-10T12:14:09.999Z</time></trkpt><trkpt lat="45.67352908881349" lon="11.31998152334385"><ele>664.0</ele><time>2026-04-10T12:14:10.999Z</time></trkpt><trkpt lat="45.67364237659991" lon="11.319838737161348"><ele>664.0</ele><time>2026-04-10T12:14:11.999Z</time></trkpt><trkpt lat="45.67376124358697" lon="11.319692760366864"><ele>664.0</ele><time>2026-04-10T12:14:12.999Z</time></trkpt><trkpt lat="45.67384627082739" lon="11.319539632969239"><ele>665.6</ele><time>2026-04-10T12:14:13.999Z</time></trkpt><trkpt lat="45.67391558074824" lon="11.319422418106335"><ele>667.2</ele><time>2026-04-10T12:14:14.999Z</time></trkpt><trkpt lat="45.67397884299283" lon="11.319319056294322"><ele>668.8000000000001</ele><time>2026-04-10T12:14:15.999Z</time></trkpt><trkpt lat="45.674027491548834" lon="11.319197635544452"><ele>670.4000000000001</ele><time>2026-04-10T12:14:16.999Z</time></trkpt><trkpt lat="45.674057164914814" lon="11.319051193237243"><ele>672.0</ele><time>2026-04-10T12:14:17.999Z</time></trkpt><trkpt lat="45.674058353251326" lon="11.318878327460137"><ele>672.25</ele><time>2026-04-10T12:14:18.999Z</time></trkpt><trkpt lat="45.67403729350303" lon="11.318695941937717"><ele>672.5</ele><time>2026-04-10T12:14:19.999Z</time></trkpt><trkpt lat="45.674001447493396" lon="11.318496908605058"><ele>672.75</ele><time>2026-04-10T12:14:20.999Z</time></trkpt><trkpt lat="45.67396649193859" lon="11.318295584348292"><ele>673.0</ele><time>2026-04-10T12:14:21.999Z</time></trkpt><trkpt lat="45.67392829520978" lon="11.318110012094492"><ele>673.25</ele><time>2026-04-10T12:14:22.999Z</time></trkpt><trkpt lat="45.67389176596667" lon="11.317926125684359"><ele>673.5</ele><time>2026-04-10T12:14:23.999Z</time></trkpt><trkpt lat="45.673849510644594" lon="11.31773696155168"><ele>673.75</ele><time>2026-04-10T12:14:24.999Z</time></trkpt><trkpt lat="45.67382024591237" lon="11.317557118396515"><ele>674.0</ele><time>2026-04-10T12:14:25.999Z</time></trkpt><trkpt lat="45.67380449679244" lon="11.317400839816933"><ele>674.0</ele><time>2026-04-10T12:14:26.999Z</time></trkpt><trkpt lat="45.67379955419986" lon="11.317255959300109"><ele>674.0</ele><time>2026-04-10T12:14:27.999Z</time></trkpt><trkpt lat="45.67381962300194" lon="11.317131780694677"><ele>674.0</ele><time>2026-04-10T12:14:28.999Z</time></trkpt><trkpt lat="45.67381669863608" lon="11.317020525408386"><ele>674.0</ele><time>2026-04-10T12:14:29.999Z</time></trkpt><trkpt lat="45.67386902024001" lon="11.316928423204484"><ele>674.0</ele><time>2026-04-10T12:14:30.999Z</time></trkpt><trkpt lat="45.673949002297256" lon="11.316882104490286"><ele>674.0</ele><time>2026-04-10T12:14:31.999Z</time></trkpt><trkpt lat="45.674033997583514" lon="11.316780564009674"><ele>673.75</ele><time>2026-04-10T12:14:32.999Z</time></trkpt><trkpt lat="45.674122888827206" lon="11.316652939458736"><ele>673.5</ele><time>2026-04-10T12:14:33.999Z</time></trkpt><trkpt lat="45.67419260068442" lon="11.316484861115844"><ele>673.25</ele><time>2026-04-10T12:14:34.999Z</time></trkpt><trkpt lat="45.674270985783224" lon="11.31629861207109"><ele>673.0</ele><time>2026-04-10T12:14:35.999Z</time></trkpt><trkpt lat="45.674335973785176" lon="11.316098113842017"><ele>673.25</ele><time>2026-04-10T12:14:36.999Z</time></trkpt><trkpt lat="45.67437854200151" lon="11.315910668098507"><ele>673.5</ele><time>2026-04-10T12:14:37.999Z</time></trkpt><trkpt lat="45.67442372590629" lon="11.31572437850455"><ele>673.75</ele><time>2026-04-10T12:14:38.999Z</time></trkpt><trkpt lat="45.67447036275383" lon="11.315538208430961"><ele>674.0</ele><time>2026-04-10T12:14:39.999Z</time></trkpt><trkpt lat="45.67452836881569" lon="11.315350142314285"><ele>674.0</ele><time>2026-04-10T12:14:40.999Z</time></trkpt><trkpt lat="45.67458055435928" lon="11.315175643261034"><ele>674.0</ele><time>2026-04-10T12:14:41.999Z</time></trkpt><trkpt lat="45.67465370148059" lon="11.315032688001645"><ele>674.0</ele><time>2026-04-10T12:14:42.999Z</time></trkpt><trkpt lat="45.674714239825406" lon="11.314935954225838"><ele>674.0</ele><time>2026-04-10T12:14:43.999Z</time></trkpt><trkpt lat="45.67479123369531" lon="11.314868046265234"><ele>674.0</ele><time>2026-04-10T12:14:44.999Z</time></trkpt><trkpt lat="45.674875687028546" lon="11.314866261583733"><ele>674.0</ele><time>2026-04-10T12:14:45.999Z</time></trkpt><trkpt lat="45.67498081758325" lon="11.31492361072643"><ele>674.0</ele><time>2026-04-10T12:14:46.999Z</time></trkpt><trkpt lat="45.675119787581494" lon="11.314879120505442"><ele>674.0</ele><time>2026-04-10T12:14:48.999Z</time></trkpt><trkpt lat="45.67518540709002" lon="11.314753510988124"><ele>674.0</ele><time>2026-04-10T12:14:49.999Z</time></trkpt><trkpt lat="45.67526042835828" lon="11.314622155132616"><ele>673.0</ele><time>2026-04-10T12:14:50.999Z</time></trkpt><trkpt lat="45.6753381008525" lon="11.31445802676292"><ele>672.0</ele><time>2026-04-10T12:14:51.999Z</time></trkpt><trkpt lat="45.67542582051885" lon="11.314276927690546"><ele>671.0</ele><time>2026-04-10T12:14:52.999Z</time></trkpt><trkpt lat="45.675506655018665" lon="11.314097685334383"><ele>670.0</ele><time>2026-04-10T12:14:53.999Z</time></trkpt><trkpt lat="45.675586436966924" lon="11.313934377799294"><ele>665.5</ele><time>2026-04-10T12:14:54.999Z</time></trkpt><trkpt lat="45.67569326274922" lon="11.313829534444722"><ele>661.0</ele><time>2026-04-10T12:14:55.999Z</time></trkpt><trkpt lat="45.67579603047664" lon="11.313722183931967"><ele>656.5</ele><time>2026-04-10T12:14:56.999Z</time></trkpt><trkpt lat="45.67589697002603" lon="11.313616568328115"><ele>652.0</ele><time>2026-04-10T12:14:57.999Z</time></trkpt><trkpt lat="45.67599312699634" lon="11.313514043025204"><ele>652.0</ele><time>2026-04-10T12:14:58.999Z</time></trkpt><trkpt lat="45.67608385675089" lon="11.313416602340101"><ele>652.0</ele><time>2026-04-10T12:15:00Z</time></trkpt><trkpt lat="45.6761647401493" lon="11.313330063838844"><ele>652.0</ele><time>2026-04-10T12:15:01Z</time></trkpt><trkpt lat="45.6762364759045" lon="11.313256658186335"><ele>652.0</ele><time>2026-04-10T12:15:02Z</time></trkpt><trkpt lat="45.676307197733536" lon="11.31320014179593"><ele>652.0</ele><time>2026-04-10T12:15:03Z</time></trkpt><trkpt lat="45.676384968789705" lon="11.313197054487562"><ele>650.3333333333334</ele><time>2026-04-10T12:15:04Z</time></trkpt><trkpt lat="45.676463470102675" lon="11.31321631676928"><ele>648.6666666666667</ele><time>2026-04-10T12:15:05Z</time></trkpt><trkpt lat="45.67652919889865" lon="11.313280553371916"><ele>647.0</ele><time>2026-04-10T12:15:06Z</time></trkpt><trkpt lat="45.676575685174306" lon="11.313363517222808"><ele>645.3333333333334</ele><time>2026-04-10T12:15:07Z</time></trkpt><trkpt lat="45.676585713215104" lon="11.313463266516505"><ele>643.6666666666666</ele><time>2026-04-10T12:15:08Z</time></trkpt><trkpt lat="45.67660072187989" lon="11.313589935941264"><ele>642.0</ele><time>2026-04-10T12:15:09Z</time></trkpt><trkpt lat="45.6766325790155" lon="11.313731569093788"><ele>642.0</ele><time>2026-04-10T12:15:10Z</time></trkpt><trkpt lat="45.67668668347223" lon="11.313888703643038"><ele>642.0</ele><time>2026-04-10T12:15:11Z</time></trkpt><trkpt lat="45.67676261441734" lon="11.31403645820612"><ele>642.0</ele><time>2026-04-10T12:15:12Z</time></trkpt><trkpt lat="45.67683478694956" lon="11.314148854449273"><ele>642.0</ele><time>2026-04-10T12:15:13Z</time></trkpt><trkpt lat="45.676916711597855" lon="11.31422105454361"><ele>643.4000000000001</ele><time>2026-04-10T12:15:14Z</time></trkpt><trkpt lat="45.67700299700679" lon="11.314253895397593"><ele>644.8000000000001</ele><time>2026-04-10T12:15:15Z</time></trkpt><trkpt lat="45.67708798236681" lon="11.314233412702844"><ele>646.2</ele><time>2026-04-10T12:15:16Z</time></trkpt><trkpt lat="45.67717091794282" lon="11.314184609665825"><ele>647.6</ele><time>2026-04-10T12:15:17Z</time></trkpt><trkpt lat="45.677222564216024" lon="11.314040023946346"><ele>649.0</ele><time>2026-04-10T12:15:18Z</time></trkpt><trkpt lat="45.677296563407204" lon="11.313926145974884"><ele>644.5</ele><time>2026-04-10T12:15:19Z</time></trkpt><trkpt lat="45.67740157602129" lon="11.313883269172152"><ele>640.0</ele><time>2026-04-10T12:15:20Z</time></trkpt><trkpt lat="45.6775167605338" lon="11.313840363071243"><ele>635.5</ele><time>2026-04-10T12:15:21Z</time></trkpt><trkpt lat="45.677662807883635" lon="11.313788116881495"><ele>631.0</ele><time>2026-04-10T12:15:22Z</time></trkpt><trkpt lat="45.67780376251867" lon="11.313726035017947"><ele>630.75</ele><time>2026-04-10T12:15:23Z</time></trkpt><trkpt lat="45.67794769926049" lon="11.313627835579569"><ele>630.5</ele><time>2026-04-10T12:15:24Z</time></trkpt><trkpt lat="45.67808445105299" lon="11.313555284245975"><ele>630.25</ele><time>2026-04-10T12:15:25Z</time></trkpt><trkpt lat="45.67818646834001" lon="11.313496453818257"><ele>630.0</ele><time>2026-04-10T12:15:26Z</time></trkpt><trkpt lat="45.67828100413815" lon="11.313537659035054"><ele>630.0</ele><time>2026-04-10T12:15:27Z</time></trkpt><trkpt lat="45.67837565086493" lon="11.313608432094284"><ele>630.0</ele><time>2026-04-10T12:15:28Z</time></trkpt><trkpt lat="45.678494030422996" lon="11.31364395301098"><ele>630.0</ele><time>2026-04-10T12:15:29Z</time></trkpt><trkpt lat="45.67861487645214" lon="11.31367037577196"><ele>630.0</ele><time>2026-04-10T12:15:30Z</time></trkpt><trkpt lat="45.67871644422213" lon="11.31372621797665"><ele>630.8</ele><time>2026-04-10T12:15:31Z</time></trkpt><trkpt lat="45.67880357123214" lon="11.31374087636782"><ele>631.6</ele><time>2026-04-10T12:15:32Z</time></trkpt><trkpt lat="45.67888129597635" lon="11.313654724215802"><ele>632.4</ele><time>2026-04-10T12:15:33Z</time></trkpt><trkpt lat="45.678944155465494" lon="11.313540315616615"><ele>633.2</ele><time>2026-04-10T12:15:34Z</time></trkpt><trkpt lat="45.67899967387291" lon="11.313386281539882"><ele>634.0</ele><time>2026-04-10T12:15:35Z</time></trkpt><trkpt lat="45.67906143108153" lon="11.313200208605275"><ele>631.3333333333334</ele><time>2026-04-10T12:15:36Z</time></trkpt><trkpt lat="45.67913909262125" lon="11.312990058917777"><ele>628.6666666666666</ele><time>2026-04-10T12:15:37Z</time></trkpt><trkpt lat="45.679217901156704" lon="11.312773794297723"><ele>626.0</ele><time>2026-04-10T12:15:38Z</time></trkpt><trkpt lat="45.67928938602957" lon="11.3125777696918"><ele>626.0</ele><time>2026-04-10T12:15:39Z</time></trkpt><trkpt lat="45.67934782934024" lon="11.312400833985198"><ele>626.0</ele><time>2026-04-10T12:15:40Z</time></trkpt><trkpt lat="45.679396283942125" lon="11.312260595022622"><ele>626.0</ele><time>2026-04-10T12:15:41Z</time></trkpt><trkpt lat="45.67945568574709" lon="11.312148329208874"><ele>626.0</ele><time>2026-04-10T12:15:42Z</time></trkpt><trkpt lat="45.67951639807413" lon="11.312054754740908"><ele>626.0</ele><time>2026-04-10T12:15:43Z</time></trkpt><trkpt lat="45.67958923292486" lon="11.312012703321036"><ele>628.3333333333333</ele><time>2026-04-10T12:15:44Z</time></trkpt><trkpt lat="45.67966575933566" lon="11.311957571624154"><ele>630.6666666666666</ele><time>2026-04-10T12:15:45Z</time></trkpt><trkpt lat="45.67974476404323" lon="11.311855643410986"><ele>633.0</ele><time>2026-04-10T12:15:47Z</time></trkpt><trkpt lat="45.67971216603488" lon="11.311763348190667"><ele>635.3333333333334</ele><time>2026-04-10T12:15:48Z</time></trkpt><trkpt lat="45.679640594808276" lon="11.311712972501306"><ele>637.6666666666667</ele><time>2026-04-10T12:15:49Z</time></trkpt><trkpt lat="45.67954715779106" lon="11.311709010438285"><ele>640.0</ele><time>2026-04-10T12:15:50Z</time></trkpt><trkpt lat="45.67945251265861" lon="11.311715442256025"><ele>639.0</ele><time>2026-04-10T12:15:51Z</time></trkpt><trkpt lat="45.679381252291286" lon="11.311692450196443"><ele>638.0</ele><time>2026-04-10T12:15:52Z</time></trkpt><trkpt lat="45.679357930077934" lon="11.311569540516219"><ele>637.0</ele><time>2026-04-10T12:15:53Z</time></trkpt><trkpt lat="45.67931948340217" lon="11.31143711508262"><ele>636.0</ele><time>2026-04-10T12:15:54Z</time></trkpt><trkpt lat="45.679254615589926" lon="11.311290868705688"><ele>635.0</ele><time>2026-04-10T12:15:55Z</time></trkpt><trkpt lat="45.67914149816695" lon="11.311231812037152"><ele>635.0</ele><time>2026-04-10T12:15:56Z</time></trkpt><trkpt lat="45.67903803491041" lon="11.311186796867469"><ele>635.0</ele><time>2026-04-10T12:15:57Z</time></trkpt><trkpt lat="45.67896231399219" lon="11.311156948031659"><ele>635.0</ele><time>2026-04-10T12:15:58Z</time></trkpt><trkpt lat="45.678885021983305" lon="11.311188014286483"><ele>635.0</ele><time>2026-04-10T12:15:59Z</time></trkpt><trkpt lat="45.678818219970516" lon="11.311275336041197"><ele>635.0</ele><time>2026-04-10T12:16:00Z</time></trkpt><trkpt lat="45.678752472917964" lon="11.311377116381037"><ele>635.0</ele><time>2026-04-10T12:16:01Z</time></trkpt><trkpt lat="45.6786506595589" lon="11.311385946519879"><ele>635.0</ele><time>2026-04-10T12:16:02Z</time></trkpt><trkpt lat="45.67855129078483" lon="11.3113626694701"><ele>635.0</ele><time>2026-04-10T12:16:03Z</time></trkpt><trkpt lat="45.67846970599579" lon="11.311349089325233"><ele>635.0</ele><time>2026-04-10T12:16:04Z</time></trkpt><trkpt lat="45.67839720425529" lon="11.311303546173434"><ele>635.0</ele><time>2026-04-10T12:16:05Z</time></trkpt><trkpt lat="45.67836034721756" lon="11.311201711220427"><ele>635.0</ele><time>2026-04-10T12:16:06Z</time></trkpt><trkpt lat="45.678321991575935" lon="11.311076693437455"><ele>630.0</ele><time>2026-04-10T12:16:07Z</time></trkpt><trkpt lat="45.67833934333645" lon="11.310961343512608"><ele>625.0</ele><time>2026-04-10T12:16:08Z</time></trkpt><trkpt lat="45.67835487926377" lon="11.310848881640093"><ele>620.0</ele><time>2026-04-10T12:16:09Z</time></trkpt><trkpt lat="45.678356143341034" lon="11.310738240609371"><ele>615.0</ele><time>2026-04-10T12:16:10Z</time></trkpt><trkpt lat="45.67829739890941" lon="11.310632206921948"><ele>610.0</ele><time>2026-04-10T12:16:11Z</time></trkpt><trkpt lat="45.67817556700929" lon="11.31061486632119"><ele>610.0</ele><time>2026-04-10T12:16:12Z</time></trkpt><trkpt lat="45.678065207235825" lon="11.310583086102936"><ele>610.0</ele><time>2026-04-10T12:16:13Z</time></trkpt><trkpt lat="45.677976833148236" lon="11.310469663766293"><ele>610.0</ele><time>2026-04-10T12:16:14Z</time></trkpt><trkpt lat="45.67793296145334" lon="11.310314822524512"><ele>610.0</ele><time>2026-04-10T12:16:15Z</time></trkpt><trkpt lat="45.67785276813591" lon="11.310179957740608"><ele>607.0</ele><time>2026-04-10T12:16:16Z</time></trkpt><trkpt lat="45.67776709589506" lon="11.310086448477511"><ele>604.0</ele><time>2026-04-10T12:16:17Z</time></trkpt><trkpt lat="45.67767177825671" lon="11.309868274593375"><ele>601.0</ele><time>2026-04-10T12:16:19Z</time></trkpt><trkpt lat="45.677613926950556" lon="11.30970430550595"><ele>598.0</ele><time>2026-04-10T12:16:20Z</time></trkpt><trkpt lat="45.67756709652278" lon="11.309556474025243"><ele>597.1666666666667</ele><time>2026-04-10T12:16:21Z</time></trkpt><trkpt lat="45.67752913117393" lon="11.309414661243776"><ele>596.3333333333334</ele><time>2026-04-10T12:16:22Z</time></trkpt><trkpt lat="45.67749157168055" lon="11.309288942015849"><ele>595.5</ele><time>2026-04-10T12:16:23Z</time></trkpt><trkpt lat="45.67746455690976" lon="11.309186377440838"><ele>594.6666666666666</ele><time>2026-04-10T12:16:24Z</time></trkpt><trkpt lat="45.677472443380815" lon="11.30909251347014"><ele>593.8333333333333</ele><time>2026-04-10T12:16:25Z</time></trkpt><trkpt lat="45.677516514757706" lon="11.309005961659514"><ele>593.0</ele><time>2026-04-10T12:16:26Z</time></trkpt><trkpt lat="45.67759792892127" lon="11.308967005618769"><ele>596.25</ele><time>2026-04-10T12:16:27Z</time></trkpt><trkpt lat="45.677693326746066" lon="11.308854816095302"><ele>599.5</ele><time>2026-04-10T12:16:28Z</time></trkpt><trkpt lat="45.677785262044274" lon="11.30872884640928"><ele>602.75</ele><time>2026-04-10T12:16:28.999Z</time></trkpt><trkpt lat="45.677878004840316" lon="11.308601071541107"><ele>606.0</ele><time>2026-04-10T12:16:29.999Z</time></trkpt><trkpt lat="45.677968068433785" lon="11.308468057560333"><ele>606.0</ele><time>2026-04-10T12:16:30.999Z</time></trkpt><trkpt lat="45.67801118231022" lon="11.308272318560515"><ele>606.0</ele><time>2026-04-10T12:16:31.999Z</time></trkpt><trkpt lat="45.678073494712834" lon="11.308101266063696"><ele>606.0</ele><time>2026-04-10T12:16:32.999Z</time></trkpt><trkpt lat="45.678176563211835" lon="11.307974188794475"><ele>606.0</ele><time>2026-04-10T12:16:33.999Z</time></trkpt><trkpt lat="45.67829561963583" lon="11.307863421739746"><ele>603.0</ele><time>2026-04-10T12:16:34.999Z</time></trkpt><trkpt lat="45.67840397947241" lon="11.307713835214736"><ele>600.0</ele><time>2026-04-10T12:16:35.999Z</time></trkpt><trkpt lat="45.678491370200604" lon="11.307547717000087"><ele>597.0</ele><time>2026-04-10T12:16:36.999Z</time></trkpt><trkpt lat="45.67859660846372" lon="11.307453576489953"><ele>594.0</ele><time>2026-04-10T12:16:37.999Z</time></trkpt><trkpt lat="45.678695039492865" lon="11.307355258736505"><ele>594.0</ele><time>2026-04-10T12:16:38.999Z</time></trkpt><trkpt lat="45.67880075872057" lon="11.30725349934659"><ele>594.0</ele><time>2026-04-10T12:16:39.999Z</time></trkpt><trkpt lat="45.67890368167978" lon="11.307158425067694"><ele>594.0</ele><time>2026-04-10T12:16:40.999Z</time></trkpt><trkpt lat="45.67899585923378" lon="11.307094736932322"><ele>594.0</ele><time>2026-04-10T12:16:41.999Z</time></trkpt><trkpt lat="45.67908960492242" lon="11.307080313658949"><ele>594.0</ele><time>2026-04-10T12:16:42.999Z</time></trkpt><trkpt lat="45.67917486758751" lon="11.307134518923613"><ele>592.75</ele><time>2026-04-10T12:16:43.999Z</time></trkpt><trkpt lat="45.67929581093113" lon="11.30717571424542"><ele>591.5</ele><time>2026-04-10T12:16:44.999Z</time></trkpt><trkpt lat="45.67942088199725" lon="11.307225708436853"><ele>590.25</ele><time>2026-04-10T12:16:45.999Z</time></trkpt><trkpt lat="45.67953638261235" lon="11.307299350163863"><ele>589.0</ele><time>2026-04-10T12:16:46.999Z</time></trkpt><trkpt lat="45.67963879576423" lon="11.307403512062397"><ele>589.0</ele><time>2026-04-10T12:16:47.999Z</time></trkpt><trkpt lat="45.679746145708584" lon="11.307526599747023"><ele>589.0</ele><time>2026-04-10T12:16:48.999Z</time></trkpt><trkpt lat="45.67987377360609" lon="11.307675941392937"><ele>589.0</ele><time>2026-04-10T12:16:49.999Z</time></trkpt><trkpt lat="45.680003020569465" lon="11.307821836785198"><ele>589.0</ele><time>2026-04-10T12:16:50.999Z</time></trkpt><trkpt lat="45.68015015030233" lon="11.307963521063101"><ele>589.0</ele><time>2026-04-10T12:16:51.999Z</time></trkpt><trkpt lat="45.68030845157698" lon="11.308079743806816"><ele>589.0</ele><time>2026-04-10T12:16:52.999Z</time></trkpt><trkpt lat="45.680478018700995" lon="11.308151034231843"><ele>593.3333333333334</ele><time>2026-04-10T12:16:53.999Z</time></trkpt><trkpt lat="45.680655463508366" lon="11.308201177927277"><ele>597.6666666666666</ele><time>2026-04-10T12:16:54.999Z</time></trkpt><trkpt lat="45.68084215107327" lon="11.30823759526577"><ele>602.0</ele><time>2026-04-10T12:16:55.999Z</time></trkpt><trkpt lat="45.6810232536453" lon="11.308270531930805"><ele>603.3333333333333</ele><time>2026-04-10T12:16:56.999Z</time></trkpt><trkpt lat="45.68120076698855" lon="11.3083453636432"><ele>604.6666666666666</ele><time>2026-04-10T12:16:57.999Z</time></trkpt><trkpt lat="45.681372528366516" lon="11.30843773520061"><ele>606.0</ele><time>2026-04-10T12:16:58.999Z</time></trkpt><trkpt lat="45.68152558086762" lon="11.308526911499706"><ele>606.0</ele><time>2026-04-10T12:16:59.999Z</time></trkpt><trkpt lat="45.68166182193939" lon="11.30859432327465"><ele>606.0</ele><time>2026-04-10T12:17:00.999Z</time></trkpt><trkpt lat="45.68178775864813" lon="11.308614596130665"><ele>606.0</ele><time>2026-04-10T12:17:01.999Z</time></trkpt><trkpt lat="45.68189425913284" lon="11.30860576456596"><ele>606.0</ele><time>2026-04-10T12:17:02.999Z</time></trkpt><trkpt lat="45.68196384930324" lon="11.308565082321994"><ele>606.0</ele><time>2026-04-10T12:17:03.999Z</time></trkpt><trkpt lat="45.682042301448455" lon="11.308489307969316"><ele>606.0</ele><time>2026-04-10T12:17:06.001Z</time></trkpt><trkpt lat="45.68196644107382" lon="11.30831472949351"><ele>606.0</ele><time>2026-04-10T12:17:09.001Z</time></trkpt><trkpt lat="45.68187970840178" lon="11.308325157634632"><ele>606.0</ele><time>2026-04-10T12:17:10.001Z</time></trkpt><trkpt lat="45.68176851377304" lon="11.308367756327025"><ele>606.0</ele><time>2026-04-10T12:17:11.001Z</time></trkpt><trkpt lat="45.68164273473704" lon="11.308366655072916"><ele>606.0</ele><time>2026-04-10T12:17:12.001Z</time></trkpt><trkpt lat="45.68154102120623" lon="11.30825441655654"><ele>606.0</ele><time>2026-04-10T12:17:13.001Z</time></trkpt><trkpt lat="45.681437237876786" lon="11.308143338925737"><ele>606.0</ele><time>2026-04-10T12:17:14.001Z</time></trkpt><trkpt lat="45.681319195537924" lon="11.308030146582672"><ele>606.0</ele><time>2026-04-10T12:17:15.001Z</time></trkpt><trkpt lat="45.681194205938475" lon="11.307923329450169"><ele>600.75</ele><time>2026-04-10T12:17:16.001Z</time></trkpt><trkpt lat="45.68107036293912" lon="11.307826115543985"><ele>595.5</ele><time>2026-04-10T12:17:17.001Z</time></trkpt><trkpt lat="45.68095195704145" lon="11.307726710243326"><ele>590.25</ele><time>2026-04-10T12:17:18.001Z</time></trkpt><trkpt lat="45.68085204771815" lon="11.30762779674459"><ele>585.0</ele><time>2026-04-10T12:17:19.001Z</time></trkpt><trkpt lat="45.68079501329248" lon="11.307527112369288"><ele>585.0</ele><time>2026-04-10T12:17:20.001Z</time></trkpt><trkpt lat="45.680752747935415" lon="11.307412244132845"><ele>585.0</ele><time>2026-04-10T12:17:21.001Z</time></trkpt><trkpt lat="45.68076129289601" lon="11.3072997148799"><ele>585.0</ele><time>2026-04-10T12:17:22.001Z</time></trkpt><trkpt lat="45.68078848681085" lon="11.307168212725596"><ele>585.0</ele><time>2026-04-10T12:17:23.001Z</time></trkpt><trkpt lat="45.6808448766166" lon="11.307028339866818"><ele>585.0</ele><time>2026-04-10T12:17:24.001Z</time></trkpt><trkpt lat="45.68090218665739" lon="11.306894275978378"><ele>582.0</ele><time>2026-04-10T12:17:25.001Z</time></trkpt><trkpt lat="45.680955979962384" lon="11.306769379235488"><ele>579.0</ele><time>2026-04-10T12:17:26Z</time></trkpt><trkpt lat="45.681022737285495" lon="11.306641764795435"><ele>576.0</ele><time>2026-04-10T12:17:27Z</time></trkpt><trkpt lat="45.680995364238846" lon="11.30645896841873"><ele>573.0</ele><time>2026-04-10T12:17:29Z</time></trkpt><trkpt lat="45.68094198830265" lon="11.306379518290273"><ele>570.0</ele><time>2026-04-10T12:17:30Z</time></trkpt><trkpt lat="45.68083945262237" lon="11.306373686664715"><ele>570.0</ele><time>2026-04-10T12:17:31Z</time></trkpt><trkpt lat="45.68074150711652" lon="11.306421958296848"><ele>570.0</ele><time>2026-04-10T12:17:32Z</time></trkpt><trkpt lat="45.680668612125906" lon="11.306496212591123"><ele>570.0</ele><time>2026-04-10T12:17:33Z</time></trkpt><trkpt lat="45.68061637510628" lon="11.306557977096867"><ele>570.0</ele><time>2026-04-10T12:17:34Z</time></trkpt><trkpt lat="45.680497173861845" lon="11.30649828766767"><ele>570.0</ele><time>2026-04-10T12:17:36Z</time></trkpt><trkpt lat="45.68048463597383" lon="11.306356488695771"><ele>567.75</ele><time>2026-04-10T12:17:37Z</time></trkpt><trkpt lat="45.68041607047814" lon="11.306229702451887"><ele>565.5</ele><time>2026-04-10T12:17:38Z</time></trkpt><trkpt lat="45.68035904835017" lon="11.30609407186735"><ele>563.25</ele><time>2026-04-10T12:17:39Z</time></trkpt><trkpt lat="45.68027997718121" lon="11.305954692273561"><ele>561.0</ele><time>2026-04-10T12:17:40Z</time></trkpt><trkpt lat="45.680191449160134" lon="11.305812305611342"><ele>560.6</ele><time>2026-04-10T12:17:41Z</time></trkpt><trkpt lat="45.68011892893449" lon="11.305665911248283"><ele>560.2</ele><time>2026-04-10T12:17:42Z</time></trkpt><trkpt lat="45.68005659132056" lon="11.305526553335463"><ele>559.8</ele><time>2026-04-10T12:17:43Z</time></trkpt><trkpt lat="45.68000337807489" lon="11.305411313482672"><ele>559.4</ele><time>2026-04-10T12:17:44Z</time></trkpt><trkpt lat="45.679937433556006" lon="11.305320660427684"><ele>559.0</ele><time>2026-04-10T12:17:45Z</time></trkpt><trkpt lat="45.6798488163438" lon="11.30524666678344"><ele>557.4</ele><time>2026-04-10T12:17:46Z</time></trkpt><trkpt lat="45.679781827165066" lon="11.305126231859498"><ele>555.8</ele><time>2026-04-10T12:17:47Z</time></trkpt><trkpt lat="45.67977583529305" lon="11.30495801638381"><ele>554.2</ele><time>2026-04-10T12:17:48Z</time></trkpt><trkpt lat="45.67972857841609" lon="11.304823280782497"><ele>552.6</ele><time>2026-04-10T12:17:49Z</time></trkpt><trkpt lat="45.679634920283284" lon="11.304729010245534"><ele>551.0</ele><time>2026-04-10T12:17:50Z</time></trkpt><trkpt lat="45.67956018337369" lon="11.304615429350985"><ele>548.75</ele><time>2026-04-10T12:17:51Z</time></trkpt><trkpt lat="45.67948157107901" lon="11.304494968504715"><ele>546.5</ele><time>2026-04-10T12:17:52Z</time></trkpt><trkpt lat="45.67939487702578" lon="11.304397824380109"><ele>544.25</ele><time>2026-04-10T12:17:53Z</time></trkpt><trkpt lat="45.6792964887438" lon="11.304311457109536"><ele>542.0</ele><time>2026-04-10T12:17:54Z</time></trkpt><trkpt lat="45.67919794195741" lon="11.304222741281743"><ele>541.75</ele><time>2026-04-10T12:17:55Z</time></trkpt><trkpt lat="45.67910934565217" lon="11.30411982377624"><ele>541.5</ele><time>2026-04-10T12:17:56Z</time></trkpt><trkpt lat="45.6790375358795" lon="11.304002593540993"><ele>541.25</ele><time>2026-04-10T12:17:57Z</time></trkpt><trkpt lat="45.67893683309061" lon="11.30392714704874"><ele>541.0</ele><time>2026-04-10T12:17:57.999Z</time></trkpt><trkpt lat="45.67880944731666" lon="11.303893084536742"><ele>540.75</ele><time>2026-04-10T12:17:58.999Z</time></trkpt><trkpt lat="45.67867044728406" lon="11.303886944042816"><ele>540.5</ele><time>2026-04-10T12:17:59.999Z</time></trkpt><trkpt lat="45.67853219284638" lon="11.303894016316152"><ele>540.25</ele><time>2026-04-10T12:18:00.999Z</time></trkpt><trkpt lat="45.678383566014766" lon="11.303924178336842"><ele>540.0</ele><time>2026-04-10T12:18:01.999Z</time></trkpt><trkpt lat="45.678234479378105" lon="11.303938087751693"><ele>540.0</ele><time>2026-04-10T12:18:02.999Z</time></trkpt><trkpt lat="45.67810356650653" lon="11.3038967445556"><ele>540.0</ele><time>2026-04-10T12:18:03.999Z</time></trkpt><trkpt lat="45.67797812306417" lon="11.303870337669238"><ele>540.0</ele><time>2026-04-10T12:18:04.999Z</time></trkpt><trkpt lat="45.67786046190928" lon="11.303923372368413"><ele>540.0</ele><time>2026-04-10T12:18:05.999Z</time></trkpt><trkpt lat="45.67775149083395" lon="11.304021566896301"><ele>537.8</ele><time>2026-04-10T12:18:06.999Z</time></trkpt><trkpt lat="45.67766421251649" lon="11.304167894475231"><ele>535.6</ele><time>2026-04-10T12:18:07.999Z</time></trkpt><trkpt lat="45.67760265684539" lon="11.304302008578324"><ele>533.4</ele><time>2026-04-10T12:18:08.999Z</time></trkpt><trkpt lat="45.67753245615296" lon="11.304376449654184"><ele>531.2</ele><time>2026-04-10T12:18:09.999Z</time></trkpt><trkpt lat="45.67743414940215" lon="11.304342985901643"><ele>529.0</ele><time>2026-04-10T12:18:10.999Z</time></trkpt><trkpt lat="45.67733572942539" lon="11.304278532523647"><ele>529.0</ele><time>2026-04-10T12:18:11.999Z</time></trkpt><trkpt lat="45.677214897783266" lon="11.30422352358722"><ele>529.0</ele><time>2026-04-10T12:18:12.999Z</time></trkpt><trkpt lat="45.67708969436582" lon="11.304174903177955"><ele>529.0</ele><time>2026-04-10T12:18:13.999Z</time></trkpt><trkpt lat="45.67697093567923" lon="11.304113823938527"><ele>529.0</ele><time>2026-04-10T12:18:14.999Z</time></trkpt><trkpt lat="45.67682371027154" lon="11.304103511357825"><ele>527.0</ele><time>2026-04-10T12:18:15.999Z</time></trkpt><trkpt lat="45.67674779720745" lon="11.30415378502248"><ele>525.0</ele><time>2026-04-10T12:18:16.999Z</time></trkpt><trkpt lat="45.676638223745734" lon="11.304226056508982"><ele>523.0</ele><time>2026-04-10T12:18:17.999Z</time></trkpt><trkpt lat="45.67653482545455" lon="11.304362368839866"><ele>521.0</ele><time>2026-04-10T12:18:18.999Z</time></trkpt><trkpt lat="45.676426337606294" lon="11.304493859133638"><ele>521.0</ele><time>2026-04-10T12:18:19.999Z</time></trkpt><trkpt lat="45.67630484896721" lon="11.304617465786054"><ele>521.0</ele><time>2026-04-10T12:18:20.999Z</time></trkpt><trkpt lat="45.676201255880045" lon="11.30473067883437"><ele>521.0</ele><time>2026-04-10T12:18:21.999Z</time></trkpt><trkpt lat="45.676085106204305" lon="11.304780720521165"><ele>521.0</ele><time>2026-04-10T12:18:22.999Z</time></trkpt><trkpt lat="45.67600050571903" lon="11.304863279398665"><ele>521.0</ele><time>2026-04-10T12:18:23.999Z</time></trkpt><trkpt lat="45.67591865385161" lon="11.304923467728631"><ele>521.0</ele><time>2026-04-10T12:18:24.999Z</time></trkpt><trkpt lat="45.67584436519617" lon="11.30501556429637"><ele>521.0</ele><time>2026-04-10T12:18:25.999Z</time></trkpt><trkpt lat="45.6757937343524" lon="11.305130660129405"><ele>521.0</ele><time>2026-04-10T12:18:26.999Z</time></trkpt><trkpt lat="45.67576304392338" lon="11.305270726268487"><ele>521.0</ele><time>2026-04-10T12:18:27.999Z</time></trkpt><trkpt lat="45.67575792301634" lon="11.305424057460746"><ele>521.0</ele><time>2026-04-10T12:18:28.999Z</time></trkpt><trkpt lat="45.67577515107719" lon="11.305552164406162"><ele>521.0</ele><time>2026-04-10T12:18:29.999Z</time></trkpt><trkpt lat="45.67580649465607" lon="11.305653801897353"><ele>521.0</ele><time>2026-04-10T12:18:30.999Z</time></trkpt><trkpt lat="45.67590506718736" lon="11.305694183786057"><ele>521.0</ele><time>2026-04-10T12:18:31.999Z</time></trkpt><trkpt lat="45.67598146980842" lon="11.305769525586532"><ele>521.0</ele><time>2026-04-10T12:18:32.999Z</time></trkpt><trkpt lat="45.67604643527902" lon="11.305872970927108"><ele>520.6</ele><time>2026-04-10T12:18:33.999Z</time></trkpt><trkpt lat="45.676073426476236" lon="11.30601231306223"><ele>520.2</ele><time>2026-04-10T12:18:34.999Z</time></trkpt><trkpt lat="45.67611277928117" lon="11.306174686166914"><ele>519.8</ele><time>2026-04-10T12:18:35.999Z</time></trkpt><trkpt lat="45.67615480783952" lon="11.306309450857446"><ele>519.4</ele><time>2026-04-10T12:18:36.999Z</time></trkpt><trkpt lat="45.676218825097614" lon="11.306396361889368"><ele>519.0</ele><time>2026-04-10T12:18:37.999Z</time></trkpt><trkpt lat="45.67627906648664" lon="11.306465020410638"><ele>521.8</ele><time>2026-04-10T12:18:38.999Z</time></trkpt><trkpt lat="45.67636554047277" lon="11.306477407414155"><ele>524.5999999999999</ele><time>2026-04-10T12:18:39.999Z</time></trkpt><trkpt lat="45.676468761433824" lon="11.306475297727241"><ele>527.4</ele><time>2026-04-10T12:18:40.999Z</time></trkpt><trkpt lat="45.67657967938829" lon="11.306506218311087"><ele>530.1999999999999</ele><time>2026-04-10T12:18:41.999Z</time></trkpt><trkpt lat="45.67665219351393" lon="11.306631094176796"><ele>533.0</ele><time>2026-04-10T12:18:42.999Z</time></trkpt><trkpt lat="45.676712851500575" lon="11.306729424759215"><ele>533.0</ele><time>2026-04-10T12:18:43.999Z</time></trkpt><trkpt lat="45.676748278275866" lon="11.306836616559284"><ele>533.0</ele><time>2026-04-10T12:18:44.999Z</time></trkpt><trkpt lat="45.67673630148033" lon="11.30694262082165"><ele>533.0</ele><time>2026-04-10T12:18:45.999Z</time></trkpt><trkpt lat="45.67668202777702" lon="11.307034938262339"><ele>533.0</ele><time>2026-04-10T12:18:46.999Z</time></trkpt><trkpt lat="45.67664739000462" lon="11.307133737890098"><ele>533.0</ele><time>2026-04-10T12:18:47.999Z</time></trkpt><trkpt lat="45.67655202662424" lon="11.307228395079065"><ele>533.0</ele><time>2026-04-10T12:18:49.999Z</time></trkpt><trkpt lat="45.67648624616639" lon="11.307168325699983"><ele>533.0</ele><time>2026-04-10T12:18:50.998Z</time></trkpt><trkpt lat="45.67639789594224" lon="11.307142747837798"><ele>533.0</ele><time>2026-04-10T12:18:51.998Z</time></trkpt><trkpt lat="45.676298581021044" lon="11.307125176271756"><ele>533.0</ele><time>2026-04-10T12:18:52.998Z</time></trkpt><trkpt lat="45.67620067834808" lon="11.307196866181906"><ele>533.0</ele><time>2026-04-10T12:18:53.998Z</time></trkpt><trkpt lat="45.67608151389715" lon="11.30728089633766"><ele>533.0</ele><time>2026-04-10T12:18:54.998Z</time></trkpt><trkpt lat="45.675974799870595" lon="11.307354284675197"><ele>532.0</ele><time>2026-04-10T12:18:55.998Z</time></trkpt><trkpt lat="45.67584268694435" lon="11.307399524801824"><ele>531.0</ele><time>2026-04-10T12:18:56.998Z</time></trkpt><trkpt lat="45.67570372152928" lon="11.30734964124401"><ele>530.0</ele><time>2026-04-10T12:18:57.998Z</time></trkpt><trkpt lat="45.67556378340527" lon="11.307313090212253"><ele>529.0</ele><time>2026-04-10T12:18:58.998Z</time></trkpt><trkpt lat="45.67541122712582" lon="11.307284221352061"><ele>527.75</ele><time>2026-04-10T12:18:59.998Z</time></trkpt><trkpt lat="45.67526498705497" lon="11.307291811858985"><ele>526.5</ele><time>2026-04-10T12:19:00.998Z</time></trkpt><trkpt lat="45.67511430399084" lon="11.307268557769417"><ele>525.25</ele><time>2026-04-10T12:19:01.998Z</time></trkpt><trkpt lat="45.674991584039844" lon="11.307288357684783"><ele>524.0</ele><time>2026-04-10T12:19:02.998Z</time></trkpt><trkpt lat="45.67488392167739" lon="11.307308257755263"><ele>524.0</ele><time>2026-04-10T12:19:03.998Z</time></trkpt><trkpt lat="45.674798863927776" lon="11.30735259234283"><ele>524.0</ele><time>2026-04-10T12:19:04.998Z</time></trkpt><trkpt lat="45.67470694300389" lon="11.307418327762942"><ele>524.0</ele><time>2026-04-10T12:19:05.998Z</time></trkpt><trkpt lat="45.67461261543039" lon="11.307400917628119"><ele>524.0</ele><time>2026-04-10T12:19:06.998Z</time></trkpt><trkpt lat="45.674503305427486" lon="11.307395309100594"><ele>524.0</ele><time>2026-04-10T12:19:07.998Z</time></trkpt><trkpt lat="45.674383091592226" lon="11.307398486818554"><ele>521.5</ele><time>2026-04-10T12:19:08.998Z</time></trkpt><trkpt lat="45.67424013949469" lon="11.307423135400407"><ele>519.0</ele><time>2026-04-10T12:19:09.998Z</time></trkpt><trkpt lat="45.67409029839489" lon="11.307414846327784"><ele>516.5</ele><time>2026-04-10T12:19:11Z</time></trkpt><trkpt lat="45.67395765776239" lon="11.307416588043855"><ele>514.0</ele><time>2026-04-10T12:19:12Z</time></trkpt><trkpt lat="45.67383562338797" lon="11.307440199123901"><ele>514.0</ele><time>2026-04-10T12:19:13Z</time></trkpt><trkpt lat="45.673705554374415" lon="11.30750187775151"><ele>514.0</ele><time>2026-04-10T12:19:14Z</time></trkpt><trkpt lat="45.673578160694866" lon="11.307591753010588"><ele>514.0</ele><time>2026-04-10T12:19:15Z</time></trkpt><trkpt lat="45.67347284352042" lon="11.307661997014272"><ele>514.0</ele><time>2026-04-10T12:19:16Z</time></trkpt><trkpt lat="45.673368987541444" lon="11.307728457379959"><ele>512.5</ele><time>2026-04-10T12:19:17Z</time></trkpt><trkpt lat="45.67325673699635" lon="11.307777546406726"><ele>511.0</ele><time>2026-04-10T12:19:18Z</time></trkpt><trkpt lat="45.67314408763711" lon="11.307826949360138"><ele>509.5</ele><time>2026-04-10T12:19:19Z</time></trkpt><trkpt lat="45.67302789851109" lon="11.307879537538065"><ele>508.0</ele><time>2026-04-10T12:19:20Z</time></trkpt><trkpt lat="45.67291371212273" lon="11.307943434908768"><ele>508.0</ele><time>2026-04-10T12:19:21Z</time></trkpt><trkpt lat="45.67279680111613" lon="11.30801669461399"><ele>508.0</ele><time>2026-04-10T12:19:22Z</time></trkpt><trkpt lat="45.67268861754865" lon="11.308100288117416"><ele>508.0</ele><time>2026-04-10T12:19:23Z</time></trkpt><trkpt lat="45.672580029711916" lon="11.308177639281908"><ele>508.0</ele><time>2026-04-10T12:19:24Z</time></trkpt><trkpt lat="45.6724798040483" lon="11.308251767605148"><ele>507.59999999999997</ele><time>2026-04-10T12:19:25Z</time></trkpt><trkpt lat="45.672379531945396" lon="11.30831702648452"><ele>507.19999999999993</ele><time>2026-04-10T12:19:26Z</time></trkpt><trkpt lat="45.67229631136333" lon="11.30838749562985"><ele>506.8</ele><time>2026-04-10T12:19:27Z</time></trkpt><trkpt lat="45.67223685254789" lon="11.308480298499362"><ele>506.4</ele><time>2026-04-10T12:19:28Z</time></trkpt><trkpt lat="45.67219680481539" lon="11.30859795874939"><ele>506.0</ele><time>2026-04-10T12:19:29Z</time></trkpt><trkpt lat="45.67215114851358" lon="11.308718190895693"><ele>505.99999999999994</ele><time>2026-04-10T12:19:30Z</time></trkpt><trkpt lat="45.67208676404794" lon="11.308769133126498"><ele>506.0</ele><time>2026-04-10T12:19:31Z</time></trkpt><trkpt lat="45.67201862992602" lon="11.308740592149448"><ele>506.0</ele><time>2026-04-10T12:19:32Z</time></trkpt><trkpt lat="45.6719829822122" lon="11.308613009782505"><ele>506.0</ele><time>2026-04-10T12:19:33Z</time></trkpt><trkpt lat="45.67193819251389" lon="11.308512978743071"><ele>505.99999999999994</ele><time>2026-04-10T12:19:34Z</time></trkpt><trkpt lat="45.671870544824834" lon="11.30839782648926"><ele>506.0</ele><time>2026-04-10T12:19:35Z</time></trkpt><trkpt lat="45.671799917761874" lon="11.308257662754842"><ele>507.0</ele><time>2026-04-10T12:19:36Z</time></trkpt><trkpt lat="45.67171434495368" lon="11.308139213802315"><ele>508.0</ele><time>2026-04-10T12:19:37Z</time></trkpt><trkpt lat="45.67159454677532" lon="11.308038012924825"><ele>509.0</ele><time>2026-04-10T12:19:38Z</time></trkpt><trkpt lat="45.67149831575754" lon="11.307899847512942"><ele>510.0</ele><time>2026-04-10T12:19:39Z</time></trkpt><trkpt lat="45.671376446006136" lon="11.307772927395629"><ele>509.0</ele><time>2026-04-10T12:19:40Z</time></trkpt><trkpt lat="45.67124749640274" lon="11.307661488954134"><ele>508.0</ele><time>2026-04-10T12:19:41Z</time></trkpt><trkpt lat="45.67113886875146" lon="11.307558625545076"><ele>507.0</ele><time>2026-04-10T12:19:42Z</time></trkpt><trkpt lat="45.67104222200247" lon="11.307465000588916"><ele>506.0</ele><time>2026-04-10T12:19:43Z</time></trkpt><trkpt lat="45.67096237389398" lon="11.307397394282965"><ele>506.0</ele><time>2026-04-10T12:19:44Z</time></trkpt><trkpt lat="45.67088544624738" lon="11.307371956548652"><ele>506.0</ele><time>2026-04-10T12:19:45Z</time></trkpt><trkpt lat="45.67080585621846" lon="11.307408833615886"><ele>506.0</ele><time>2026-04-10T12:19:46Z</time></trkpt><trkpt lat="45.670733881630575" lon="11.307427216993325"><ele>506.0</ele><time>2026-04-10T12:19:47Z</time></trkpt><trkpt lat="45.67066046837878" lon="11.307330787461833"><ele>506.0</ele><time>2026-04-10T12:19:48Z</time></trkpt><trkpt lat="45.67057358485258" lon="11.307211403262034"><ele>504.0</ele><time>2026-04-10T12:19:49Z</time></trkpt><trkpt lat="45.670476070562785" lon="11.307060624470685"><ele>502.0</ele><time>2026-04-10T12:19:50Z</time></trkpt><trkpt lat="45.67037617282204" lon="11.30689352838132"><ele>500.0</ele><time>2026-04-10T12:19:51Z</time></trkpt><trkpt lat="45.67033726021953" lon="11.306698135750448"><ele>498.0</ele><time>2026-04-10T12:19:52Z</time></trkpt><trkpt lat="45.67028935094289" lon="11.3065362936783"><ele>499.2</ele><time>2026-04-10T12:19:53Z</time></trkpt><trkpt lat="45.67023584178931" lon="11.30642054306548"><ele>500.4</ele><time>2026-04-10T12:19:54Z</time></trkpt><trkpt lat="45.670197932182454" lon="11.306308158149662"><ele>501.59999999999997</ele><time>2026-04-10T12:19:55Z</time></trkpt><trkpt lat="45.6701336378145" lon="11.306201640652928"><ele>502.79999999999995</ele><time>2026-04-10T12:19:56Z</time></trkpt><trkpt lat="45.670054377670056" lon="11.30612142773747"><ele>504.0</ele><time>2026-04-10T12:19:57Z</time></trkpt><trkpt lat="45.66994342872421" lon="11.306048132364275"><ele>500.25</ele><time>2026-04-10T12:19:57.999Z</time></trkpt><trkpt lat="45.66981119244769" lon="11.305995567054804"><ele>496.5</ele><time>2026-04-10T12:19:58.999Z</time></trkpt><trkpt lat="45.669671920119185" lon="11.30596559519256"><ele>492.75</ele><time>2026-04-10T12:19:59.999Z</time></trkpt><trkpt lat="45.6695273415749" lon="11.305934576980508"><ele>489.0</ele><time>2026-04-10T12:20:00.999Z</time></trkpt><trkpt lat="45.66939053522245" lon="11.305862430434921"><ele>488.66666666666663</ele><time>2026-04-10T12:20:01.999Z</time></trkpt><trkpt lat="45.66924754350956" lon="11.305771810344305"><ele>488.3333333333333</ele><time>2026-04-10T12:20:02.999Z</time></trkpt><trkpt lat="45.66910995513227" lon="11.305668605907721"><ele>488.0</ele><time>2026-04-10T12:20:03.999Z</time></trkpt><trkpt lat="45.668976011338316" lon="11.305552597884592"><ele>486.0</ele><time>2026-04-10T12:20:04.999Z</time></trkpt><trkpt lat="45.66884679339045" lon="11.30541848369622"><ele>484.0</ele><time>2026-04-10T12:20:05.999Z</time></trkpt><trkpt lat="45.668723343264844" lon="11.305270765975187"><ele>482.0</ele><time>2026-04-10T12:20:06.999Z</time></trkpt><trkpt lat="45.668609112344875" lon="11.305120634140419"><ele>482.0</ele><time>2026-04-10T12:20:07.999Z</time></trkpt><trkpt lat="45.66848343117327" lon="11.30499719476217"><ele>482.0</ele><time>2026-04-10T12:20:08.999Z</time></trkpt><trkpt lat="45.668373843958214" lon="11.304895519494968"><ele>482.0</ele><time>2026-04-10T12:20:09.999Z</time></trkpt><trkpt lat="45.66827744187745" lon="11.30483167919439"><ele>482.0</ele><time>2026-04-10T12:20:10.999Z</time></trkpt><trkpt lat="45.66820974627813" lon="11.304744744975585"><ele>479.40000000000003</ele><time>2026-04-10T12:20:11.999Z</time></trkpt><trkpt lat="45.66816080553664" lon="11.304663870195522"><ele>476.80000000000007</ele><time>2026-04-10T12:20:12.999Z</time></trkpt><trkpt lat="45.668099059077186" lon="11.304616259783321"><ele>474.2</ele><time>2026-04-10T12:20:13.999Z</time></trkpt><trkpt lat="45.668032673337876" lon="11.304508246739472"><ele>471.6</ele><time>2026-04-10T12:20:15.999Z</time></trkpt><trkpt lat="45.66790945814316" lon="11.304577186035981"><ele>469.0</ele><time>2026-04-10T12:20:17.999Z</time></trkpt><trkpt lat="45.667834000341486" lon="11.304666868734097"><ele>469.00000000000006</ele><time>2026-04-10T12:20:18.999Z</time></trkpt><trkpt lat="45.66777916596564" lon="11.304744610437226"><ele>469.0</ele><time>2026-04-10T12:20:19.999Z</time></trkpt><trkpt lat="45.66771172418381" lon="11.30478816215924"><ele>469.0</ele><time>2026-04-10T12:20:21.999Z</time></trkpt><trkpt lat="45.66763954239709" lon="11.304831199632478"><ele>469.0</ele><time>2026-04-10T12:20:52.999Z</time></trkpt><trkpt lat="45.66757938610856" lon="11.304871859470003"><ele>469.00000000000006</ele><time>2026-04-10T12:20:53.999Z</time></trkpt><trkpt lat="45.66750257857605" lon="11.304912250384426"><ele>469.0</ele><time>2026-04-10T12:20:54.999Z</time></trkpt><trkpt lat="45.66741113747037" lon="11.304960534490103"><ele>472.0</ele><time>2026-04-10T12:20:55.999Z</time></trkpt><trkpt lat="45.66730698726826" lon="11.305001955572777"><ele>475.0</ele><time>2026-04-10T12:20:56.999Z</time></trkpt><trkpt lat="45.667185862251" lon="11.305047558727967"><ele>478.0</ele><time>2026-04-10T12:20:57.999Z</time></trkpt><trkpt lat="45.66706705287868" lon="11.30508649264465"><ele>481.0</ele><time>2026-04-10T12:20:58.999Z</time></trkpt><trkpt lat="45.66696066132933" lon="11.30512614886329"><ele>478.0</ele><time>2026-04-10T12:20:59.999Z</time></trkpt><trkpt lat="45.66685890454198" lon="11.305193627961236"><ele>475.0</ele><time>2026-04-10T12:21:00.999Z</time></trkpt><trkpt lat="45.66677211124412" lon="11.305304072780102"><ele>472.0</ele><time>2026-04-10T12:21:01.999Z</time></trkpt><trkpt lat="45.666687555471064" lon="11.305431917026112"><ele>469.0</ele><time>2026-04-10T12:21:02.999Z</time></trkpt><trkpt lat="45.66658908363822" lon="11.305565527060773"><ele>472.25</ele><time>2026-04-10T12:21:03.999Z</time></trkpt><trkpt lat="45.66648434352693" lon="11.3056883597859"><ele>475.5</ele><time>2026-04-10T12:21:04.999Z</time></trkpt><trkpt lat="45.66637721574853" lon="11.305800229858244"><ele>478.75</ele><time>2026-04-10T12:21:05.999Z</time></trkpt><trkpt lat="45.666268201165806" lon="11.305915425783093"><ele>482.0</ele><time>2026-04-10T12:21:06.999Z</time></trkpt><trkpt lat="45.66616589238441" lon="11.306017248723428"><ele>476.75</ele><time>2026-04-10T12:21:07.999Z</time></trkpt><trkpt lat="45.66605249836709" lon="11.306112648302012"><ele>471.5</ele><time>2026-04-10T12:21:08.999Z</time></trkpt><trkpt lat="45.66592917880579" lon="11.306205784976603"><ele>466.25</ele><time>2026-04-10T12:21:09.999Z</time></trkpt><trkpt lat="45.66579476532564" lon="11.306293072913848"><ele>461.0</ele><time>2026-04-10T12:21:10.999Z</time></trkpt><trkpt lat="45.66563330501409" lon="11.306361663476757"><ele>466.0</ele><time>2026-04-10T12:21:11.999Z</time></trkpt><trkpt lat="45.66547091926503" lon="11.306419022010141"><ele>471.0</ele><time>2026-04-10T12:21:12.999Z</time></trkpt><trkpt lat="45.66532445862199" lon="11.30644260018146"><ele>476.0</ele><time>2026-04-10T12:21:13.999Z</time></trkpt><trkpt lat="45.66518758530964" lon="11.306467237756804"><ele>476.0</ele><time>2026-04-10T12:21:14.999Z</time></trkpt><trkpt lat="45.665045895157135" lon="11.3064540783121"><ele>476.0</ele><time>2026-04-10T12:21:15.999Z</time></trkpt><trkpt lat="45.664903554857716" lon="11.306406571732293"><ele>476.0</ele><time>2026-04-10T12:21:17Z</time></trkpt><trkpt lat="45.66476494695217" lon="11.30636264581987"><ele>476.0</ele><time>2026-04-10T12:21:18Z</time></trkpt><trkpt lat="45.66462385381398" lon="11.306302450011486"><ele>473.5</ele><time>2026-04-10T12:21:19Z</time></trkpt><trkpt lat="45.66447168951104" lon="11.306287459239217"><ele>471.0</ele><time>2026-04-10T12:21:20Z</time></trkpt><trkpt lat="45.66433810770724" lon="11.30628772780696"><ele>468.5</ele><time>2026-04-10T12:21:21Z</time></trkpt><trkpt lat="45.66421644272491" lon="11.30628834521821"><ele>466.0</ele><time>2026-04-10T12:21:22Z</time></trkpt><trkpt lat="45.66409749973763" lon="11.306247687559459"><ele>466.0</ele><time>2026-04-10T12:21:23Z</time></trkpt><trkpt lat="45.66397448639389" lon="11.306181981948162"><ele>466.0</ele><time>2026-04-10T12:21:24Z</time></trkpt><trkpt lat="45.66386350025763" lon="11.30607539469219"><ele>466.0</ele><time>2026-04-10T12:21:25Z</time></trkpt><trkpt lat="45.6637668060346" lon="11.30596401321331"><ele>466.0</ele><time>2026-04-10T12:21:26Z</time></trkpt><trkpt lat="45.6636827678166" lon="11.305859426219993"><ele>466.20000000000005</ele><time>2026-04-10T12:21:27Z</time></trkpt><trkpt lat="45.66359946250758" lon="11.305744364792838"><ele>466.40000000000003</ele><time>2026-04-10T12:21:28Z</time></trkpt><trkpt lat="45.66353524869645" lon="11.305660733582924"><ele>466.6</ele><time>2026-04-10T12:21:29Z</time></trkpt><trkpt lat="45.66341140783631" lon="11.305753717024094"><ele>466.8</ele><time>2026-04-10T12:21:37Z</time></trkpt><trkpt lat="45.663404656906714" lon="11.30585365164832"><ele>467.0</ele><time>2026-04-10T12:22:00Z</time></trkpt><trkpt lat="45.663472590397504" lon="11.306031495742474"><ele>467.0</ele><time>2026-04-10T12:22:02Z</time></trkpt><trkpt lat="45.66352416628133" lon="11.306134559890827"><ele>467.00000000000006</ele><time>2026-04-10T12:22:03Z</time></trkpt><trkpt lat="45.663578244378094" lon="11.306234776777957"><ele>467.00000000000006</ele><time>2026-04-10T12:22:04Z</time></trkpt><trkpt lat="45.66364033682121" lon="11.306341678138324"><ele>467.0</ele><time>2026-04-10T12:22:05Z</time></trkpt><trkpt lat="45.663710311822975" lon="11.306441894034082"><ele>467.0</ele><time>2026-04-10T12:22:06Z</time></trkpt><trkpt lat="45.66379046519209" lon="11.306533805020134"><ele>470.0</ele><time>2026-04-10T12:22:07Z</time></trkpt><trkpt lat="45.66385258345407" lon="11.306623060703933"><ele>473.00000000000006</ele><time>2026-04-10T12:22:08Z</time></trkpt><trkpt lat="45.663871442740394" lon="11.30672932123481"><ele>476.00000000000006</ele><time>2026-04-10T12:22:09Z</time></trkpt><trkpt lat="45.6638342861234" lon="11.306864498403588"><ele>479.0</ele><time>2026-04-10T12:22:10Z</time></trkpt><trkpt lat="45.66380719635584" lon="11.307009288286961"><ele>482.0</ele><time>2026-04-10T12:22:11Z</time></trkpt><trkpt lat="45.66379464345366" lon="11.30715973113831"><ele>487.20000000000005</ele><time>2026-04-10T12:22:12Z</time></trkpt><trkpt lat="45.663768536053475" lon="11.30731948137322"><ele>492.40000000000003</ele><time>2026-04-10T12:22:12.999Z</time></trkpt><trkpt lat="45.66375028155519" lon="11.307428130574356"><ele>497.59999999999997</ele><time>2026-04-10T12:22:13.999Z</time></trkpt><trkpt lat="45.663773012997865" lon="11.307633063515386"><ele>502.79999999999995</ele><time>2026-04-10T12:22:15.999Z</time></trkpt><trkpt lat="45.66383354522282" lon="11.30773385949907"><ele>508.0</ele><time>2026-04-10T12:22:16.999Z</time></trkpt><trkpt lat="45.66390213812986" lon="11.3078273547224"><ele>508.00000000000006</ele><time>2026-04-10T12:22:17.999Z</time></trkpt><trkpt lat="45.66397152685319" lon="11.307902931360745"><ele>508.0</ele><time>2026-04-10T12:22:18.999Z</time></trkpt><trkpt lat="45.66403673100722" lon="11.30790792454597"><ele>508.0</ele><time>2026-04-10T12:22:19.999Z</time></trkpt><trkpt lat="45.664096094269475" lon="11.307859536760178"><ele>508.0</ele><time>2026-04-10T12:22:20.999Z</time></trkpt><trkpt lat="45.66416852790725" lon="11.30777887504778"><ele>508.00000000000006</ele><time>2026-04-10T12:22:21.999Z</time></trkpt><trkpt lat="45.66425056618473" lon="11.307688861369328"><ele>508.0</ele><time>2026-04-10T12:22:22.999Z</time></trkpt><trkpt lat="45.66433578944812" lon="11.307644161062576"><ele>508.00000000000006</ele><time>2026-04-10T12:22:23.999Z</time></trkpt><trkpt lat="45.66442523701818" lon="11.30764360289055"><ele>508.0</ele><time>2026-04-10T12:22:24.999Z</time></trkpt><trkpt lat="45.66451398973298" lon="11.307667780766973"><ele>508.0</ele><time>2026-04-10T12:22:25.999Z</time></trkpt><trkpt lat="45.664597653375466" lon="11.307720328905416"><ele>508.0</ele><time>2026-04-10T12:22:26.999Z</time></trkpt><trkpt lat="45.664660552710004" lon="11.30778973258706"><ele>508.00000000000006</ele><time>2026-04-10T12:22:27.999Z</time></trkpt><trkpt lat="45.66471564185656" lon="11.307844552244195"><ele>508.0</ele><time>2026-04-10T12:22:28.999Z</time></trkpt><trkpt lat="45.66472477634496" lon="11.307986726062975"><ele>508.59999999999997</ele><time>2026-04-10T12:22:30.999Z</time></trkpt><trkpt lat="45.66462158328017" lon="11.308010319075269"><ele>509.19999999999993</ele><time>2026-04-10T12:22:31.999Z</time></trkpt><trkpt lat="45.66454243167725" lon="11.308029270796581"><ele>509.8</ele><time>2026-04-10T12:22:32.999Z</time></trkpt><trkpt lat="45.6644587713749" lon="11.308098600797122"><ele>510.4</ele><time>2026-04-10T12:22:33.999Z</time></trkpt><trkpt lat="45.66441306844607" lon="11.308244135767682"><ele>511.0</ele><time>2026-04-10T12:22:34.999Z</time></trkpt><trkpt lat="45.66439288354632" lon="11.308404323745235"><ele>513.25</ele><time>2026-04-10T12:22:35.999Z</time></trkpt><trkpt lat="45.664370144709274" lon="11.308563690379556"><ele>515.5</ele><time>2026-04-10T12:22:36.999Z</time></trkpt><trkpt lat="45.664363526288824" lon="11.308738108827514"><ele>517.75</ele><time>2026-04-10T12:22:37.999Z</time></trkpt><trkpt lat="45.66435622890259" lon="11.308913622647022"><ele>520.0</ele><time>2026-04-10T12:22:38.999Z</time></trkpt><trkpt lat="45.66434726677504" lon="11.30906079477696"><ele>521.8</ele><time>2026-04-10T12:22:39.999Z</time></trkpt><trkpt lat="45.66433977746895" lon="11.309164227591017"><ele>523.6</ele><time>2026-04-10T12:22:40.999Z</time></trkpt><trkpt lat="45.664388349939955" lon="11.30928513265396"><ele>525.4</ele><time>2026-04-10T12:22:42.999Z</time></trkpt><trkpt lat="45.664497085956725" lon="11.309239455831609"><ele>527.2</ele><time>2026-04-10T12:22:44.999Z</time></trkpt><trkpt lat="45.66449281990845" lon="11.309086441745379"><ele>529.0</ele><time>2026-04-10T12:22:45.999Z</time></trkpt><trkpt lat="45.66453426269686" lon="11.308959547838464"><ele>531.0</ele><time>2026-04-10T12:22:46.999Z</time></trkpt><trkpt lat="45.664607661195504" lon="11.308890523369064"><ele>533.0</ele><time>2026-04-10T12:22:47.999Z</time></trkpt><trkpt lat="45.66467006491921" lon="11.308848018630883"><ele>535.0</ele><time>2026-04-10T12:22:48.999Z</time></trkpt><trkpt lat="45.66473062099319" lon="11.308924821013429"><ele>537.0</ele><time>2026-04-10T12:22:49.999Z</time></trkpt><trkpt lat="45.664762900565506" lon="11.30907300758832"><ele>539.0</ele><time>2026-04-10T12:22:50.999Z</time></trkpt><trkpt lat="45.66482991403101" lon="11.309194868919324"><ele>543.25</ele><time>2026-04-10T12:22:51.999Z</time></trkpt><trkpt lat="45.66487146842258" lon="11.30934629166848"><ele>547.5</ele><time>2026-04-10T12:22:52.999Z</time></trkpt><trkpt lat="45.66483676618924" lon="11.309501822408473"><ele>551.75</ele><time>2026-04-10T12:22:53.999Z</time></trkpt><trkpt lat="45.66481699407663" lon="11.309662010023851"><ele>556.0</ele><time>2026-04-10T12:22:54.999Z</time></trkpt><trkpt lat="45.66480974944199" lon="11.30983722899629"><ele>557.5</ele><time>2026-04-10T12:22:55.999Z</time></trkpt><trkpt lat="45.66480985732827" lon="11.310021105970849"><ele>559.0</ele><time>2026-04-10T12:22:56.999Z</time></trkpt><trkpt lat="45.66478037675221" lon="11.31018208893359"><ele>560.5</ele><time>2026-04-10T12:22:57.999Z</time></trkpt><trkpt lat="45.66472139952788" lon="11.310310850810868"><ele>562.0</ele><time>2026-04-10T12:22:58.999Z</time></trkpt><trkpt lat="45.66464406896503" lon="11.31042716363943"><ele>564.75</ele><time>2026-04-10T12:22:59.999Z</time></trkpt><trkpt lat="45.664593932854146" lon="11.310590631170966"><ele>567.5</ele><time>2026-04-10T12:23:00.999Z</time></trkpt><trkpt lat="45.66453384795484" lon="11.310756997045027"><ele>570.25</ele><time>2026-04-10T12:23:01.999Z</time></trkpt><trkpt lat="45.6644962458188" lon="11.310936853096752"><ele>573.0</ele><time>2026-04-10T12:23:02.999Z</time></trkpt><trkpt lat="45.66445983426167" lon="11.311108911413088"><ele>571.8</ele><time>2026-04-10T12:23:03.999Z</time></trkpt><trkpt lat="45.66443250149453" lon="11.311262758787048"><ele>570.5999999999999</ele><time>2026-04-10T12:23:04.999Z</time></trkpt><trkpt lat="45.66437639312114" lon="11.311377656584424"><ele>569.4000000000001</ele><time>2026-04-10T12:23:05.999Z</time></trkpt><trkpt lat="45.66431964463299" lon="11.311486608720484"><ele>568.2</ele><time>2026-04-10T12:23:06.999Z</time></trkpt><trkpt lat="45.66429902252353" lon="11.31158352271557"><ele>567.0</ele><time>2026-04-10T12:23:07.999Z</time></trkpt><trkpt lat="45.66430405785682" lon="11.311773519774704"><ele>567.0</ele><time>2026-04-10T12:23:09.999Z</time></trkpt><trkpt lat="45.6643094706386" lon="11.311887469670022"><ele>567.0</ele><time>2026-04-10T12:23:10.999Z</time></trkpt><trkpt lat="45.66429186637507" lon="11.312001136215828"><ele>567.0</ele><time>2026-04-10T12:23:11.999Z</time></trkpt><trkpt lat="45.66423732630712" lon="11.31208107723361"><ele>567.0</ele><time>2026-04-10T12:23:12.999Z</time></trkpt><trkpt lat="45.664221991220806" lon="11.312203373509472"><ele>567.0</ele><time>2026-04-10T12:23:14.999Z</time></trkpt><trkpt lat="45.664331860795514" lon="11.312243565482637"><ele>567.0</ele><time>2026-04-10T12:23:16.999Z</time></trkpt><trkpt lat="45.66440935728115" lon="11.312217159840632"><ele>570.2</ele><time>2026-04-10T12:23:17.999Z</time></trkpt><trkpt lat="45.66451801886301" lon="11.312220613588604"><ele>573.4000000000001</ele><time>2026-04-10T12:23:18.999Z</time></trkpt><trkpt lat="45.66461576951339" lon="11.3122060016515"><ele>576.5999999999999</ele><time>2026-04-10T12:23:19.999Z</time></trkpt><trkpt lat="45.664736245835606" lon="11.312158304180304"><ele>579.8</ele><time>2026-04-10T12:23:20.999Z</time></trkpt><trkpt lat="45.66484254147207" lon="11.312126518894887"><ele>583.0</ele><time>2026-04-10T12:23:21.999Z</time></trkpt><trkpt lat="45.66491929748094" lon="11.312132275377454"><ele>583.0</ele><time>2026-04-10T12:23:23Z</time></trkpt><trkpt lat="45.66499032837398" lon="11.312237949072994"><ele>583.0</ele><time>2026-04-10T12:23:25Z</time></trkpt><trkpt lat="45.664971999649104" lon="11.312360149427688"><ele>583.0</ele><time>2026-04-10T12:23:26Z</time></trkpt><trkpt lat="45.66490932937831" lon="11.312485888076099"><ele>583.0</ele><time>2026-04-10T12:23:27Z</time></trkpt><trkpt lat="45.66484208814938" lon="11.312596115031265"><ele>583.0</ele><time>2026-04-10T12:23:28Z</time></trkpt><trkpt lat="45.66479234422647" lon="11.312693347261119"><ele>585.4</ele><time>2026-04-10T12:23:29Z</time></trkpt><trkpt lat="45.664764446687904" lon="11.312841775959809"><ele>587.8</ele><time>2026-04-10T12:23:31Z</time></trkpt><trkpt lat="45.66481240322003" lon="11.312936556665221"><ele>590.2</ele><time>2026-04-10T12:23:32Z</time></trkpt><trkpt lat="45.664932641696964" lon="11.31295524545985"><ele>592.6</ele><time>2026-04-10T12:23:33Z</time></trkpt><trkpt lat="45.66503412045371" lon="11.31299621033204"><ele>595.0</ele><time>2026-04-10T12:23:34Z</time></trkpt><trkpt lat="45.665128278076885" lon="11.313066030400472"><ele>595.6</ele><time>2026-04-10T12:23:35Z</time></trkpt><trkpt lat="45.66516111427997" lon="11.313194950635177"><ele>596.2</ele><time>2026-04-10T12:23:36Z</time></trkpt><trkpt lat="45.665160865832966" lon="11.31332942886077"><ele>596.8</ele><time>2026-04-10T12:23:37Z</time></trkpt><trkpt lat="45.665168680260244" lon="11.313468152347518"><ele>597.4</ele><time>2026-04-10T12:23:38Z</time></trkpt><trkpt lat="45.66517125900909" lon="11.313622222550523"><ele>598.0</ele><time>2026-04-10T12:23:39Z</time></trkpt><trkpt lat="45.6651838718186" lon="11.31377622220324"><ele>597.8</ele><time>2026-04-10T12:23:40Z</time></trkpt><trkpt lat="45.66515970707667" lon="11.313921907603689"><ele>597.5999999999999</ele><time>2026-04-10T12:23:41Z</time></trkpt><trkpt lat="45.66518361063657" lon="11.314063199835193"><ele>597.4000000000001</ele><time>2026-04-10T12:23:42Z</time></trkpt><trkpt lat="45.6652219097559" lon="11.314200809463456"><ele>597.2</ele><time>2026-04-10T12:23:43Z</time></trkpt><trkpt lat="45.665274164969134" lon="11.314338333335039"><ele>597.0</ele><time>2026-04-10T12:23:44Z</time></trkpt><trkpt lat="45.66533131170178" lon="11.314473975336956"><ele>599.0</ele><time>2026-04-10T12:23:45Z</time></trkpt><trkpt lat="45.665393755581405" lon="11.314610903861892"><ele>601.0</ele><time>2026-04-10T12:23:46Z</time></trkpt><trkpt lat="45.665474280208976" lon="11.31473341553723"><ele>603.0</ele><time>2026-04-10T12:23:47Z</time></trkpt><trkpt lat="45.66555544688653" lon="11.314868877713028"><ele>605.0</ele><time>2026-04-10T12:23:48Z</time></trkpt><trkpt lat="45.66565629893686" lon="11.315011323897071"><ele>605.0</ele><time>2026-04-10T12:23:49Z</time></trkpt><trkpt lat="45.66572161618624" lon="11.315166166862635"><ele>605.0</ele><time>2026-04-10T12:23:50Z</time></trkpt><trkpt lat="45.66580078069723" lon="11.315305733501217"><ele>605.0</ele><time>2026-04-10T12:23:51Z</time></trkpt><trkpt lat="45.66585430203733" lon="11.315475697594453"><ele>605.0</ele><time>2026-04-10T12:23:52Z</time></trkpt><trkpt lat="45.665913249717484" lon="11.315644109810874"><ele>604.5</ele><time>2026-04-10T12:23:53Z</time></trkpt><trkpt lat="45.665977121566215" lon="11.315784678686837"><ele>604.0</ele><time>2026-04-10T12:23:54Z</time></trkpt><trkpt lat="45.66604236575401" lon="11.315908156613856"><ele>603.5</ele><time>2026-04-10T12:23:55Z</time></trkpt><trkpt lat="45.6661312185688" lon="11.316004977211792"><ele>603.0</ele><time>2026-04-10T12:23:56Z</time></trkpt><trkpt lat="45.66622659411993" lon="11.316114254112993"><ele>606.0</ele><time>2026-04-10T12:23:57Z</time></trkpt><trkpt lat="45.666294577011065" lon="11.31627463047117"><ele>609.0</ele><time>2026-04-10T12:23:58Z</time></trkpt><trkpt lat="45.66638714621589" lon="11.316405876687178"><ele>612.0</ele><time>2026-04-10T12:23:59Z</time></trkpt><trkpt lat="45.666452950450115" lon="11.316556122864469"><ele>615.0</ele><time>2026-04-10T12:24:00Z</time></trkpt><trkpt lat="45.666512412667856" lon="11.316668164917468"><ele>615.0</ele><time>2026-04-10T12:24:01Z</time></trkpt><trkpt lat="45.6665673176551" lon="11.316770732082697"><ele>615.0</ele><time>2026-04-10T12:24:02Z</time></trkpt><trkpt lat="45.66663362226018" lon="11.31684872806887"><ele>615.0</ele><time>2026-04-10T12:24:03Z</time></trkpt><trkpt lat="45.66669642719362" lon="11.316947168964264"><ele>615.0</ele><time>2026-04-10T12:24:04Z</time></trkpt><trkpt lat="45.666771994877074" lon="11.317014822749998"><ele>615.0</ele><time>2026-04-10T12:24:05Z</time></trkpt><trkpt lat="45.66685577932054" lon="11.317054146402663"><ele>615.0</ele><time>2026-04-10T12:24:06Z</time></trkpt><trkpt lat="45.66694929559234" lon="11.317060351536798"><ele>614.2</ele><time>2026-04-10T12:24:07Z</time></trkpt><trkpt lat="45.66705312993785" lon="11.317073107592295"><ele>613.4</ele><time>2026-04-10T12:24:08Z</time></trkpt><trkpt lat="45.66714081601284" lon="11.317169838100163"><ele>612.6</ele><time>2026-04-10T12:24:09Z</time></trkpt><trkpt lat="45.667219341058185" lon="11.31727940570855"><ele>611.8</ele><time>2026-04-10T12:24:10Z</time></trkpt><trkpt lat="45.66730846892268" lon="11.317385084359625"><ele>611.0</ele><time>2026-04-10T12:24:11Z</time></trkpt><trkpt lat="45.6673993774912" lon="11.317463342161354"><ele>611.0</ele><time>2026-04-10T12:24:12Z</time></trkpt><trkpt lat="45.66751927990836" lon="11.317612680102775"><ele>611.0</ele><time>2026-04-10T12:24:14Z</time></trkpt><trkpt lat="45.667636944394836" lon="11.317625929773104"><ele>611.0</ele><time>2026-04-10T12:24:16Z</time></trkpt><trkpt lat="45.66769894462932" lon="11.317713023314427"><ele>611.0</ele><time>2026-04-10T12:24:17Z</time></trkpt><trkpt lat="45.66777921257643" lon="11.317723416950404"><ele>611.0</ele><time>2026-04-10T12:24:18Z</time></trkpt><trkpt lat="45.66789760193693" lon="11.317672859773278"><ele>612.5</ele><time>2026-04-10T12:24:19Z</time></trkpt><trkpt lat="45.668006527740324" lon="11.317649945652144"><ele>614.0</ele><time>2026-04-10T12:24:20Z</time></trkpt><trkpt lat="45.66812908315239" lon="11.317672834869617"><ele>615.5</ele><time>2026-04-10T12:24:21Z</time></trkpt><trkpt lat="45.668225164830815" lon="11.31776119423582"><ele>617.0</ele><time>2026-04-10T12:24:22Z</time></trkpt><trkpt lat="45.66826851574414" lon="11.317904342152977"><ele>617.0</ele><time>2026-04-10T12:24:23Z</time></trkpt><trkpt lat="45.66829304209899" lon="11.318053787908344"><ele>617.0</ele><time>2026-04-10T12:24:24Z</time></trkpt><trkpt lat="45.66835260638748" lon="11.3181729314734"><ele>617.0</ele><time>2026-04-10T12:24:25Z</time></trkpt><trkpt lat="45.66837935669605" lon="11.318323322355363"><ele>617.0</ele><time>2026-04-10T12:24:27Z</time></trkpt><trkpt lat="45.66831892098547" lon="11.318382307856691"><ele>617.0</ele><time>2026-04-10T12:24:28Z</time></trkpt><trkpt lat="45.66823772714284" lon="11.318366433781458"><ele>614.0</ele><time>2026-04-10T12:24:28.999Z</time></trkpt><trkpt lat="45.66816560254704" lon="11.31830842908222"><ele>611.0</ele><time>2026-04-10T12:24:29.999Z</time></trkpt><trkpt lat="45.66804554246986" lon="11.318271659109415"><ele>608.0</ele><time>2026-04-10T12:24:30.999Z</time></trkpt><trkpt lat="45.66791847604595" lon="11.318265790395234"><ele>605.0</ele><time>2026-04-10T12:24:31.999Z</time></trkpt><trkpt lat="45.66782073552118" lon="11.318288153941783"><ele>602.0</ele><time>2026-04-10T12:24:32.999Z</time></trkpt><trkpt lat="45.66774488843817" lon="11.318357178922755"><ele>602.0</ele><time>2026-04-10T12:24:33.999Z</time></trkpt><trkpt lat="45.66769518387885" lon="11.31845896513312"><ele>602.0</ele><time>2026-04-10T12:24:34.999Z</time></trkpt><trkpt lat="45.66767578423282" lon="11.318581019170068"><ele>602.0</ele><time>2026-04-10T12:24:35.999Z</time></trkpt><trkpt lat="45.667710305414936" lon="11.318713234334867"><ele>602.0</ele><time>2026-04-10T12:24:36.999Z</time></trkpt><trkpt lat="45.66778069490643" lon="11.318843802082776"><ele>602.0</ele><time>2026-04-10T12:24:37.999Z</time></trkpt><trkpt lat="45.66783970229902" lon="11.318958497891112"><ele>599.4</ele><time>2026-04-10T12:24:38.999Z</time></trkpt><trkpt lat="45.66784096238146" lon="11.319105893733996"><ele>596.8000000000001</ele><time>2026-04-10T12:24:39.999Z</time></trkpt><trkpt lat="45.66781178911596" lon="11.319240117941188"><ele>594.2</ele><time>2026-04-10T12:24:40.999Z</time></trkpt><trkpt lat="45.66777404452142" lon="11.319356809764772"><ele>591.6</ele><time>2026-04-10T12:24:41.999Z</time></trkpt><trkpt lat="45.66771851004308" lon="11.319442239416803"><ele>589.0</ele><time>2026-04-10T12:24:42.999Z</time></trkpt><trkpt lat="45.66763893618716" lon="11.319473333011647"><ele>587.8</ele><time>2026-04-10T12:24:43.999Z</time></trkpt><trkpt lat="45.66754214560114" lon="11.319430648433224"><ele>586.5999999999999</ele><time>2026-04-10T12:24:44.999Z</time></trkpt><trkpt lat="45.66744124974364" lon="11.319473674109165"><ele>585.4</ele><time>2026-04-10T12:24:45.999Z</time></trkpt><trkpt lat="45.667330058097896" lon="11.319507199225587"><ele>584.1999999999999</ele><time>2026-04-10T12:24:46.999Z</time></trkpt><trkpt lat="45.66721510551008" lon="11.319590958613514"><ele>583.0</ele><time>2026-04-10T12:24:47.999Z</time></trkpt><trkpt lat="45.66709678866378" lon="11.319678724132508"><ele>578.25</ele><time>2026-04-10T12:24:48.999Z</time></trkpt><trkpt lat="45.66697547808503" lon="11.319748694638065"><ele>573.5</ele><time>2026-04-10T12:24:49.999Z</time></trkpt><trkpt lat="45.66685769609044" lon="11.319826677629838"><ele>568.75</ele><time>2026-04-10T12:24:50.999Z</time></trkpt><trkpt lat="45.666738020197215" lon="11.31990503001824"><ele>564.0</ele><time>2026-04-10T12:24:51.999Z</time></trkpt><trkpt lat="45.66661515717833" lon="11.31998581418658"><ele>563.75</ele><time>2026-04-10T12:24:52.999Z</time></trkpt><trkpt lat="45.66648017369486" lon="11.320036414540095"><ele>563.5</ele><time>2026-04-10T12:24:53.999Z</time></trkpt><trkpt lat="45.66635379094289" lon="11.320112819410674"><ele>563.25</ele><time>2026-04-10T12:24:54.999Z</time></trkpt><trkpt lat="45.66622603756382" lon="11.320165939331423"><ele>563.0</ele><time>2026-04-10T12:24:55.999Z</time></trkpt><trkpt lat="45.66612747432419" lon="11.320216753158302"><ele>561.0</ele><time>2026-04-10T12:24:56.999Z</time></trkpt><trkpt lat="45.66605212043782" lon="11.32027945073278"><ele>559.0</ele><time>2026-04-10T12:24:57.999Z</time></trkpt><trkpt lat="45.66598936501788" lon="11.320331882551663"><ele>557.0</ele><time>2026-04-10T12:24:58.999Z</time></trkpt><trkpt lat="45.66590138601563" lon="11.320313964616979"><ele>555.0</ele><time>2026-04-10T12:24:59.999Z</time></trkpt><trkpt lat="45.665821454468244" lon="11.320264690414687"><ele>553.0</ele><time>2026-04-10T12:25:00.999Z</time></trkpt><trkpt lat="45.66573531567717" lon="11.32018979926505"><ele>551.0</ele><time>2026-04-10T12:25:01.999Z</time></trkpt><trkpt lat="45.66567880126602" lon="11.320080669118083"><ele>551.0</ele><time>2026-04-10T12:25:02.999Z</time></trkpt><trkpt lat="45.66561778005582" lon="11.319949098474527"><ele>551.0</ele><time>2026-04-10T12:25:03.999Z</time></trkpt><trkpt lat="45.66556988587745" lon="11.319833433752393"><ele>551.0</ele><time>2026-04-10T12:25:04.999Z</time></trkpt><trkpt lat="45.66550757441486" lon="11.319733930726565"><ele>551.0</ele><time>2026-04-10T12:25:05.999Z</time></trkpt><trkpt lat="45.66543335438334" lon="11.319643917524393"><ele>551.0</ele><time>2026-04-10T12:25:06.999Z</time></trkpt><trkpt lat="45.66532615768209" lon="11.319606238599864"><ele>547.2</ele><time>2026-04-10T12:25:07.999Z</time></trkpt><trkpt lat="45.66522714794306" lon="11.31958161732784"><ele>543.4000000000001</ele><time>2026-04-10T12:25:08.999Z</time></trkpt><trkpt lat="45.665132038132164" lon="11.319538861746208"><ele>539.6</ele><time>2026-04-10T12:25:09.999Z</time></trkpt><trkpt lat="45.66505097951045" lon="11.319447959579277"><ele>535.8000000000001</ele><time>2026-04-10T12:25:10.999Z</time></trkpt><trkpt lat="45.66503933878893" lon="11.319287162918256"><ele>532.0</ele><time>2026-04-10T12:25:11.999Z</time></trkpt><trkpt lat="45.66497708178559" lon="11.319170227898146"><ele>532.0</ele><time>2026-04-10T12:25:12.999Z</time></trkpt><trkpt lat="45.664926265265265" lon="11.319043064917109"><ele>532.0</ele><time>2026-04-10T12:25:13.999Z</time></trkpt><trkpt lat="45.664854299719515" lon="11.31893642263445"><ele>532.0</ele><time>2026-04-10T12:25:14.999Z</time></trkpt><trkpt lat="45.66476006965307" lon="11.31886106450317"><ele>532.0</ele><time>2026-04-10T12:25:15.999Z</time></trkpt><trkpt lat="45.66464184823817" lon="11.318832514001182"><ele>532.0</ele><time>2026-04-10T12:25:16.999Z</time></trkpt><trkpt lat="45.66452071886395" lon="11.31882029413131"><ele>529.2</ele><time>2026-04-10T12:25:17.999Z</time></trkpt><trkpt lat="45.66441072170213" lon="11.31879121179607"><ele>526.4000000000001</ele><time>2026-04-10T12:25:18.999Z</time></trkpt><trkpt lat="45.66430078924987" lon="11.318770896025555"><ele>523.5999999999999</ele><time>2026-04-10T12:25:19.999Z</time></trkpt><trkpt lat="45.6641935550628" lon="11.318741688709828"><ele>520.8</ele><time>2026-04-10T12:25:20.999Z</time></trkpt><trkpt lat="45.66410836669088" lon="11.318653194877095"><ele>518.0</ele><time>2026-04-10T12:25:21.999Z</time></trkpt><trkpt lat="45.6640104156975" lon="11.318561540012677"><ele>518.0</ele><time>2026-04-10T12:25:22.999Z</time></trkpt><trkpt lat="45.66391530406692" lon="11.318478452268725"><ele>518.0</ele><time>2026-04-10T12:25:23.999Z</time></trkpt><trkpt lat="45.66384204753192" lon="11.318407748727186"><ele>518.0</ele><time>2026-04-10T12:25:24.999Z</time></trkpt><trkpt lat="45.66377338969325" lon="11.3183508013128"><ele>518.0</ele><time>2026-04-10T12:25:25.999Z</time></trkpt><trkpt lat="45.66377492745327" lon="11.318218503682374"><ele>518.0</ele><time>2026-04-10T12:25:26.999Z</time></trkpt><trkpt lat="45.66381604399742" lon="11.318095875807648"><ele>519.0</ele><time>2026-04-10T12:25:27.999Z</time></trkpt><trkpt lat="45.6638353578979" lon="11.317943137040052"><ele>520.0</ele><time>2026-04-10T12:25:29Z</time></trkpt><trkpt lat="45.66384362899636" lon="11.31776431506474"><ele>521.0</ele><time>2026-04-10T12:25:30Z</time></trkpt><trkpt lat="45.66385643460465" lon="11.31758074686128"><ele>522.0</ele><time>2026-04-10T12:25:31Z</time></trkpt><trkpt lat="45.66385788977215" lon="11.317399484597983"><ele>521.75</ele><time>2026-04-10T12:25:32Z</time></trkpt><trkpt lat="45.66385814486158" lon="11.317220977605285"><ele>521.5</ele><time>2026-04-10T12:25:33Z</time></trkpt><trkpt lat="45.66389213635613" lon="11.317046169421392"><ele>521.25</ele><time>2026-04-10T12:25:34Z</time></trkpt><trkpt lat="45.663907016961225" lon="11.316869976456006"><ele>521.0</ele><time>2026-04-10T12:25:35Z</time></trkpt><trkpt lat="45.663923799244536" lon="11.316712578272686"><ele>521.0</ele><time>2026-04-10T12:25:36Z</time></trkpt><trkpt lat="45.66389492780422" lon="11.316541913861428"><ele>521.0</ele><time>2026-04-10T12:25:37Z</time></trkpt><trkpt lat="45.66384760380982" lon="11.31638399123768"><ele>521.0</ele><time>2026-04-10T12:25:38Z</time></trkpt><trkpt lat="45.663793942005334" lon="11.316237686941504"><ele>521.0</ele><time>2026-04-10T12:25:39Z</time></trkpt><trkpt lat="45.66369541244309" lon="11.31613321097293"><ele>514.75</ele><time>2026-04-10T12:25:40Z</time></trkpt><trkpt lat="45.66360714740718" lon="11.316008330754666"><ele>508.5</ele><time>2026-04-10T12:25:41Z</time></trkpt><trkpt lat="45.663489516798116" lon="11.31592642594045"><ele>502.25</ele><time>2026-04-10T12:25:42Z</time></trkpt><trkpt lat="45.66336353135578" lon="11.315854334229206"><ele>496.0</ele><time>2026-04-10T12:25:43Z</time></trkpt><trkpt lat="45.663247467005576" lon="11.315774164689607"><ele>496.0</ele><time>2026-04-10T12:25:44Z</time></trkpt><trkpt lat="45.66317732588849" lon="11.315656171488348"><ele>496.0</ele><time>2026-04-10T12:25:45Z</time></trkpt><trkpt lat="45.663133550554136" lon="11.315538648649541"><ele>496.0</ele><time>2026-04-10T12:25:46Z</time></trkpt><trkpt lat="45.66309350411107" lon="11.315421643316865"><ele>496.0</ele><time>2026-04-10T12:25:47Z</time></trkpt><trkpt lat="45.66304638188471" lon="11.315344864036083"><ele>496.0</ele><time>2026-04-10T12:25:48Z</time></trkpt><trkpt lat="45.66294969749905" lon="11.31525172927922"><ele>496.0</ele><time>2026-04-10T12:25:50Z</time></trkpt><trkpt lat="45.66288521868033" lon="11.31528407701629"><ele>496.0</ele><time>2026-04-10T12:25:51Z</time></trkpt><trkpt lat="45.662850609621" lon="11.315378735775422"><ele>496.0</ele><time>2026-04-10T12:25:52Z</time></trkpt><trkpt lat="45.66286231086111" lon="11.315520832030037"><ele>496.0</ele><time>2026-04-10T12:25:53Z</time></trkpt><trkpt lat="45.66290499891219" lon="11.31568408501908"><ele>496.0</ele><time>2026-04-10T12:25:54Z</time></trkpt><trkpt lat="45.66291256029139" lon="11.315852459795614"><ele>496.0</ele><time>2026-04-10T12:25:55Z</time></trkpt><trkpt lat="45.66291165625614" lon="11.316040633470214"><ele>496.0</ele><time>2026-04-10T12:25:56Z</time></trkpt><trkpt lat="45.66292993295536" lon="11.316235570941842"><ele>496.0</ele><time>2026-04-10T12:25:57Z</time></trkpt><trkpt lat="45.66292860892434" lon="11.316425349270283"><ele>496.0</ele><time>2026-04-10T12:25:58Z</time></trkpt><trkpt lat="45.66296024322893" lon="11.316568567821903"><ele>492.50000000000006</ele><time>2026-04-10T12:25:59Z</time></trkpt><trkpt lat="45.66300388695555" lon="11.316687223952862"><ele>489.0</ele><time>2026-04-10T12:26:00Z</time></trkpt><trkpt lat="45.66307600142758" lon="11.316775173978272"><ele>485.5</ele><time>2026-04-10T12:26:01Z</time></trkpt><trkpt lat="45.66317417470853" lon="11.31682232015192"><ele>482.0</ele><time>2026-04-10T12:26:02Z</time></trkpt><trkpt lat="45.66324990063135" lon="11.316852061815394"><ele>478.50000000000006</ele><time>2026-04-10T12:26:03Z</time></trkpt><trkpt lat="45.66329866181535" lon="11.316918583887144"><ele>475.0</ele><time>2026-04-10T12:26:04Z</time></trkpt><trkpt lat="45.66328777358015" lon="11.317081971905722"><ele>475.0</ele><time>2026-04-10T12:26:06Z</time></trkpt><trkpt lat="45.66319843353832" lon="11.31710212769582"><ele>475.0</ele><time>2026-04-10T12:26:07Z</time></trkpt><trkpt lat="45.66311310163188" lon="11.31700577059261"><ele>475.0</ele><time>2026-04-10T12:26:08Z</time></trkpt><trkpt lat="45.66299333556892" lon="11.316955850178765"><ele>475.0</ele><time>2026-04-10T12:26:09Z</time></trkpt><trkpt lat="45.66286769701061" lon="11.316905588942248"><ele>467.5</ele><time>2026-04-10T12:26:10Z</time></trkpt><trkpt lat="45.662741646909474" lon="11.316828811005523"><ele>460.0</ele><time>2026-04-10T12:26:11Z</time></trkpt><trkpt lat="45.66261448417655" lon="11.316722987622228"><ele>452.5</ele><time>2026-04-10T12:26:12Z</time></trkpt><trkpt lat="45.662478143519465" lon="11.316639257288024"><ele>445.0</ele><time>2026-04-10T12:26:13Z</time></trkpt><trkpt lat="45.6623489172565" lon="11.31654679308473"><ele>445.0</ele><time>2026-04-10T12:26:14Z</time></trkpt><trkpt lat="45.66221181318092" lon="11.316481299672247"><ele>445.0</ele><time>2026-04-10T12:26:15Z</time></trkpt><trkpt lat="45.66207085363345" lon="11.316438979315818"><ele>445.0</ele><time>2026-04-10T12:26:16Z</time></trkpt><trkpt lat="45.66193598159682" lon="11.316388096892462"><ele>445.0</ele><time>2026-04-10T12:26:17Z</time></trkpt><trkpt lat="45.66184920974956" lon="11.31635213176394"><ele>443.33333333333337</ele><time>2026-04-10T12:26:18Z</time></trkpt><trkpt lat="45.66178827245278" lon="11.316315559133216"><ele>441.6666666666667</ele><time>2026-04-10T12:26:19Z</time></trkpt><trkpt lat="45.661713299802884" lon="11.316298522381153"><ele>440.0</ele><time>2026-04-10T12:26:21Z</time></trkpt><trkpt lat="45.66168031500201" lon="11.316435815218238"><ele>438.33333333333337</ele><time>2026-04-10T12:26:24Z</time></trkpt><trkpt lat="45.661717012790895" lon="11.31651574557523"><ele>436.6666666666667</ele><time>2026-04-10T12:26:25Z</time></trkpt><trkpt lat="45.66176608684791" lon="11.31662621233075"><ele>435.0</ele><time>2026-04-10T12:26:26Z</time></trkpt><trkpt lat="45.661771859207896" lon="11.316784335947672"><ele>435.6</ele><time>2026-04-10T12:26:27Z</time></trkpt><trkpt lat="45.6618014846251" lon="11.316921178256111"><ele>436.2</ele><time>2026-04-10T12:26:28Z</time></trkpt><trkpt lat="45.66186289759402" lon="11.317011284218964"><ele>436.79999999999995</ele><time>2026-04-10T12:26:29Z</time></trkpt><trkpt lat="45.66193502928221" lon="11.317078450607779"><ele>437.4</ele><time>2026-04-10T12:26:30Z</time></trkpt><trkpt lat="45.662015213410555" lon="11.317149745432948"><ele>438.0</ele><time>2026-04-10T12:26:31Z</time></trkpt><trkpt lat="45.662075645362336" lon="11.317261065878458"><ele>438.0</ele><time>2026-04-10T12:26:32Z</time></trkpt><trkpt lat="45.66211295568484" lon="11.31738721896046"><ele>437.99999999999994</ele><time>2026-04-10T12:26:33Z</time></trkpt><trkpt lat="45.662141246809576" lon="11.317522860958961"><ele>437.99999999999994</ele><time>2026-04-10T12:26:34Z</time></trkpt><trkpt lat="45.66216063752757" lon="11.317660787540131"><ele>438.0</ele><time>2026-04-10T12:26:35Z</time></trkpt><trkpt lat="45.662187026574415" lon="11.317779635488545"><ele>438.0</ele><time>2026-04-10T12:26:36Z</time></trkpt><trkpt lat="45.66225008102086" lon="11.317878906197222"><ele>438.0</ele><time>2026-04-10T12:26:37Z</time></trkpt><trkpt lat="45.6623134216915" lon="11.317972760321036"><ele>437.99999999999994</ele><time>2026-04-10T12:26:38Z</time></trkpt><trkpt lat="45.662394740684995" lon="11.318045494176687"><ele>437.99999999999994</ele><time>2026-04-10T12:26:39Z</time></trkpt><trkpt lat="45.66248507118902" lon="11.318091066045184"><ele>438.0</ele><time>2026-04-10T12:26:40Z</time></trkpt><trkpt lat="45.66255668720019" lon="11.318152017772844"><ele>438.0</ele><time>2026-04-10T12:26:41Z</time></trkpt><trkpt lat="45.66263379061744" lon="11.318240737567121"><ele>437.79999999999995</ele><time>2026-04-10T12:26:43Z</time></trkpt><trkpt lat="45.66261200257305" lon="11.318345887425838"><ele>437.59999999999997</ele><time>2026-04-10T12:26:44.999Z</time></trkpt><trkpt lat="45.66255393115305" lon="11.318451184452064"><ele>437.40000000000003</ele><time>2026-04-10T12:26:46.999Z</time></trkpt><trkpt lat="45.66241247659993" lon="11.318462896628512"><ele>437.20000000000005</ele><time>2026-04-10T12:26:48.999Z</time></trkpt><trkpt lat="45.66232735854694" lon="11.318498448354024"><ele>437.0</ele><time>2026-04-10T12:26:49.999Z</time></trkpt><trkpt lat="45.66223842837846" lon="11.318517120785755"><ele>436.99999999999994</ele><time>2026-04-10T12:26:50.999Z</time></trkpt><trkpt lat="45.66215721266692" lon="11.318577898633912"><ele>437.0</ele><time>2026-04-10T12:26:51.999Z</time></trkpt><trkpt lat="45.66207790491998" lon="11.31865220903257"><ele>437.0</ele><time>2026-04-10T12:26:52.999Z</time></trkpt><trkpt lat="45.66200192401762" lon="11.318708390872956"><ele>437.0</ele><time>2026-04-10T12:26:53.999Z</time></trkpt><trkpt lat="45.66193742392632" lon="11.3187963693721"><ele>436.99999999999994</ele><time>2026-04-10T12:26:54.999Z</time></trkpt><trkpt lat="45.66190537076934" lon="11.318896649358372"><ele>437.0</ele><time>2026-04-10T12:26:55.999Z</time></trkpt><trkpt lat="45.661855783262304" lon="11.31895547029235"><ele>437.49999999999994</ele><time>2026-04-10T12:26:56.999Z</time></trkpt><trkpt lat="45.66184382586707" lon="11.319083204678636"><ele>438.0</ele><time>2026-04-10T12:26:57.999Z</time></trkpt><trkpt lat="45.66177335761324" lon="11.319157266125242"><ele>438.5</ele><time>2026-04-10T12:26:58.999Z</time></trkpt><trkpt lat="45.66167319398233" lon="11.319166593431182"><ele>439.0</ele><time>2026-04-10T12:26:59.999Z</time></trkpt><trkpt lat="45.6615980600134" lon="11.319225612317773"><ele>439.49999999999994</ele><time>2026-04-10T12:27:00.999Z</time></trkpt><trkpt lat="45.66153963477563" lon="11.3192931076341"><ele>440.0</ele><time>2026-04-10T12:27:01.999Z</time></trkpt><trkpt lat="45.661503565717744" lon="11.319405635485435"><ele>440.0</ele><time>2026-04-10T12:27:02.999Z</time></trkpt><trkpt lat="45.66147072868024" lon="11.319525527639659"><ele>440.0</ele><time>2026-04-10T12:27:03.999Z</time></trkpt><trkpt lat="45.661410371657404" lon="11.319637378600088"><ele>440.0</ele><time>2026-04-10T12:27:04.999Z</time></trkpt><trkpt lat="45.6613383610267" lon="11.319743881604317"><ele>440.0</ele><time>2026-04-10T12:27:05.999Z</time></trkpt><trkpt lat="45.661275493062966" lon="11.319846195792463"><ele>440.0</ele><time>2026-04-10T12:27:06.999Z</time></trkpt><trkpt lat="45.6612132288439" lon="11.319976440351727"><ele>441.4</ele><time>2026-04-10T12:27:07.999Z</time></trkpt><trkpt lat="45.66116816477118" lon="11.32012399997332"><ele>442.8</ele><time>2026-04-10T12:27:08.999Z</time></trkpt><trkpt lat="45.66111962444915" lon="11.320261836106068"><ele>444.20000000000005</ele><time>2026-04-10T12:27:09.999Z</time></trkpt><trkpt lat="45.66105477865142" lon="11.320376583840762"><ele>445.6</ele><time>2026-04-10T12:27:10.999Z</time></trkpt><trkpt lat="45.66099480985645" lon="11.320476231696134"><ele>447.0</ele><time>2026-04-10T12:27:11.999Z</time></trkpt><trkpt lat="45.6609059697227" lon="11.320509621656369"><ele>447.0</ele><time>2026-04-10T12:27:12.999Z</time></trkpt><trkpt lat="45.66085247819262" lon="11.320562821318946"><ele>447.0</ele><time>2026-04-10T12:27:13.999Z</time></trkpt><trkpt lat="45.66082354293535" lon="11.32067100925135"><ele>447.0</ele><time>2026-04-10T12:27:14.999Z</time></trkpt><trkpt lat="45.660810985180056" lon="11.320775273551503"><ele>447.0</ele><time>2026-04-10T12:27:15.999Z</time></trkpt><trkpt lat="45.6607942999272" lon="11.32090062387134"><ele>447.0</ele><time>2026-04-10T12:27:16.999Z</time></trkpt><trkpt lat="45.660771547519815" lon="11.321011988629005"><ele>447.0</ele><time>2026-04-10T12:27:17.999Z</time></trkpt><trkpt lat="45.66067189334317" lon="11.321082793410149"><ele>449.1666666666667</ele><time>2026-04-10T12:27:19.999Z</time></trkpt><trkpt lat="45.66054340570223" lon="11.321116148811049"><ele>451.33333333333337</ele><time>2026-04-10T12:27:21.999Z</time></trkpt><trkpt lat="45.660469126088785" lon="11.321126764055608"><ele>453.5</ele><time>2026-04-10T12:27:22.999Z</time></trkpt><trkpt lat="45.66039173591456" lon="11.321134403373437"><ele>455.6666666666667</ele><time>2026-04-10T12:27:23.999Z</time></trkpt><trkpt lat="45.66032603388337" lon="11.321123002650575"><ele>457.83333333333337</ele><time>2026-04-10T12:27:24.999Z</time></trkpt><trkpt lat="45.66025682214246" lon="11.321092459944314"><ele>460.0</ele><time>2026-04-10T12:27:25.999Z</time></trkpt><trkpt lat="45.66018750738233" lon="11.321045431558183"><ele>461.6666666666667</ele><time>2026-04-10T12:27:26.999Z</time></trkpt><trkpt lat="45.66010330197392" lon="11.32103318919587"><ele>463.33333333333337</ele><time>2026-04-10T12:27:27.999Z</time></trkpt><trkpt lat="45.660027328497115" lon="11.321046854320034"><ele>465.0</ele><time>2026-04-10T12:27:28.999Z</time></trkpt><trkpt lat="45.65994926656976" lon="11.32105933962137"><ele>466.66666666666663</ele><time>2026-04-10T12:27:29.999Z</time></trkpt><trkpt lat="45.65988648808055" lon="11.32107591556113"><ele>468.3333333333333</ele><time>2026-04-10T12:27:30.999Z</time></trkpt><trkpt lat="45.659775465626126" lon="11.321003383097361"><ele>470.0</ele><time>2026-04-10T12:27:32.999Z</time></trkpt><trkpt lat="45.659722095933105" lon="11.320925680265182"><ele>469.99999999999994</ele><time>2026-04-10T12:27:33.999Z</time></trkpt><trkpt lat="45.659666385596736" lon="11.320840360024993"><ele>470.0</ele><time>2026-04-10T12:27:35Z</time></trkpt><trkpt lat="45.65960348513608" lon="11.320755261860358"><ele>470.0</ele><time>2026-04-10T12:27:36Z</time></trkpt><trkpt lat="45.659560048766" lon="11.320636225337225"><ele>470.0</ele><time>2026-04-10T12:27:37Z</time></trkpt><trkpt lat="45.65952369029763" lon="11.320511493218943"><ele>469.99999999999994</ele><time>2026-04-10T12:27:38Z</time></trkpt><trkpt lat="45.659490993001484" lon="11.320402286357284"><ele>470.0</ele><time>2026-04-10T12:27:39Z</time></trkpt><trkpt lat="45.65945414595144" lon="11.320312003525707"><ele>471.49999999999994</ele><time>2026-04-10T12:27:40Z</time></trkpt><trkpt lat="45.65940928947922" lon="11.320248099030914"><ele>473.0</ele><time>2026-04-10T12:27:41Z</time></trkpt><trkpt lat="45.659337789444585" lon="11.320217050351756"><ele>474.5</ele><time>2026-04-10T12:27:42Z</time></trkpt><trkpt lat="45.65924911788643" lon="11.320221583928383"><ele>476.0</ele><time>2026-04-10T12:27:43Z</time></trkpt><trkpt lat="45.65915051445105" lon="11.320208748781413"><ele>477.49999999999994</ele><time>2026-04-10T12:27:44Z</time></trkpt><trkpt lat="45.659069056975156" lon="11.320213855060173"><ele>479.0</ele><time>2026-04-10T12:27:45Z</time></trkpt><trkpt lat="45.65898571532673" lon="11.32020657468883"><ele>478.99999999999994</ele><time>2026-04-10T12:27:46Z</time></trkpt><trkpt lat="45.65891638034428" lon="11.320208258387067"><ele>479.0</ele><time>2026-04-10T12:27:47Z</time></trkpt><trkpt lat="45.658835137940954" lon="11.32027403776098"><ele>479.0</ele><time>2026-04-10T12:27:49Z</time></trkpt><trkpt lat="45.658788558828896" lon="11.320334872395856"><ele>479.0</ele><time>2026-04-10T12:27:50Z</time></trkpt><trkpt lat="45.65876448150675" lon="11.320429625655823"><ele>478.99999999999994</ele><time>2026-04-10T12:27:51Z</time></trkpt><trkpt lat="45.65873169138836" lon="11.320534586318587"><ele>479.0</ele><time>2026-04-10T12:27:52Z</time></trkpt><trkpt lat="45.65869448317884" lon="11.320650626810151"><ele>484.2</ele><time>2026-04-10T12:27:53Z</time></trkpt><trkpt lat="45.65864727803912" lon="11.320759766878036"><ele>489.4</ele><time>2026-04-10T12:27:54Z</time></trkpt><trkpt lat="45.65859413528417" lon="11.320872587087639"><ele>494.6</ele><time>2026-04-10T12:27:55Z</time></trkpt><trkpt lat="45.65853004429582" lon="11.320983573529546"><ele>499.8</ele><time>2026-04-10T12:27:56Z</time></trkpt><trkpt lat="45.658447535357055" lon="11.321060326318078"><ele>505.0</ele><time>2026-04-10T12:27:57Z</time></trkpt><trkpt lat="45.658343938819385" lon="11.321088011614513"><ele>506.00000000000006</ele><time>2026-04-10T12:27:58Z</time></trkpt><trkpt lat="45.6582549105661" lon="11.321154140319052"><ele>507.0</ele><time>2026-04-10T12:27:59Z</time></trkpt><trkpt lat="45.65817249976574" lon="11.321216252405925"><ele>508.0</ele><time>2026-04-10T12:28:00Z</time></trkpt><trkpt lat="45.6580921312037" lon="11.321279155429888"><ele>509.0</ele><time>2026-04-10T12:28:01Z</time></trkpt><trkpt lat="45.65802461750872" lon="11.321345734467243"><ele>510.00000000000006</ele><time>2026-04-10T12:28:02Z</time></trkpt><trkpt lat="45.657967610805414" lon="11.321414097161165"><ele>511.0</ele><time>2026-04-10T12:28:04Z</time></trkpt><trkpt lat="45.65795011310149" lon="11.321557264343209"><ele>514.0</ele><time>2026-04-10T12:28:07Z</time></trkpt><trkpt lat="45.658089193358144" lon="11.321574555806864"><ele>517.0</ele><time>2026-04-10T12:28:09Z</time></trkpt><trkpt lat="45.65816041580972" lon="11.32156824302949"><ele>520.0</ele><time>2026-04-10T12:28:10Z</time></trkpt><trkpt lat="45.65824530548418" lon="11.321556797173155"><ele>523.0</ele><time>2026-04-10T12:28:11Z</time></trkpt><trkpt lat="45.65832280985842" lon="11.321552235939127"><ele>526.0</ele><time>2026-04-10T12:28:12Z</time></trkpt><trkpt lat="45.65839041955742" lon="11.321555400082524"><ele>529.0</ele><time>2026-04-10T12:28:13Z</time></trkpt><trkpt lat="45.658505619746144" lon="11.32157781702641"><ele>528.0</ele><time>2026-04-10T12:28:15Z</time></trkpt><trkpt lat="45.65862229943571" lon="11.321653372698353"><ele>527.0</ele><time>2026-04-10T12:28:17Z</time></trkpt><trkpt lat="45.65869222340133" lon="11.321699680452248"><ele>526.0</ele><time>2026-04-10T12:28:18Z</time></trkpt><trkpt lat="45.65877079010596" lon="11.321741158234069"><ele>525.0</ele><time>2026-04-10T12:28:19Z</time></trkpt><trkpt lat="45.65884735628382" lon="11.321734008445166"><ele>524.0</ele><time>2026-04-10T12:28:20Z</time></trkpt><trkpt lat="45.658952254394805" lon="11.32168385617329"><ele>524.0</ele><time>2026-04-10T12:28:22Z</time></trkpt><trkpt lat="45.65900758215668" lon="11.321637522539385"><ele>524.0</ele><time>2026-04-10T12:28:23Z</time></trkpt><trkpt lat="45.65907085316257" lon="11.321726936695898"><ele>524.0</ele><time>2026-04-10T12:28:26Z</time></trkpt><trkpt lat="45.65900144617476" lon="11.321839824625302"><ele>524.0</ele><time>2026-04-10T12:28:28Z</time></trkpt><trkpt lat="45.6589498783" lon="11.321939273073733"><ele>524.0</ele><time>2026-04-10T12:28:29Z</time></trkpt><trkpt lat="45.65891410299221" lon="11.322045673517236"><ele>524.0</ele><time>2026-04-10T12:28:30Z</time></trkpt><trkpt lat="45.65888180354426" lon="11.322175577752358"><ele>526.3333333333333</ele><time>2026-04-10T12:28:31Z</time></trkpt><trkpt lat="45.65886382703122" lon="11.322316452215214"><ele>528.6666666666666</ele><time>2026-04-10T12:28:32Z</time></trkpt><trkpt lat="45.658831566712486" lon="11.32243282621292"><ele>531.0</ele><time>2026-04-10T12:28:33Z</time></trkpt><trkpt lat="45.65880147736918" lon="11.322532711108874"><ele>533.3333333333334</ele><time>2026-04-10T12:28:34Z</time></trkpt><trkpt lat="45.658809765789144" lon="11.322642486273208"><ele>535.6666666666667</ele><time>2026-04-10T12:28:35Z</time></trkpt><trkpt lat="45.65885810033398" lon="11.322735954652291"><ele>538.0</ele><time>2026-04-10T12:28:36Z</time></trkpt><trkpt lat="45.658861432217805" lon="11.322835108851669"><ele>538.0</ele><time>2026-04-10T12:28:37Z</time></trkpt><trkpt lat="45.65884908312966" lon="11.322930066998163"><ele>538.0</ele><time>2026-04-10T12:28:38Z</time></trkpt><trkpt lat="45.658790393035815" lon="11.322969776074912"><ele>538.0</ele><time>2026-04-10T12:28:39Z</time></trkpt><trkpt lat="45.6586621113391" lon="11.323049016541876"><ele>538.0</ele><time>2026-04-10T12:28:41Z</time></trkpt><trkpt lat="45.65859320026853" lon="11.323107799312053"><ele>538.0</ele><time>2026-04-10T12:28:42Z</time></trkpt><trkpt lat="45.658525915491026" lon="11.323181650512547"><ele>538.0</ele><time>2026-04-10T12:28:43Z</time></trkpt><trkpt lat="45.6584663299064" lon="11.32328203673762"><ele>542.1999999999999</ele><time>2026-04-10T12:28:44Z</time></trkpt><trkpt lat="45.65840816160126" lon="11.323378598950475"><ele>546.4</ele><time>2026-04-10T12:28:45Z</time></trkpt><trkpt lat="45.658342333467075" lon="11.32348775840978"><ele>550.5999999999999</ele><time>2026-04-10T12:28:46Z</time></trkpt><trkpt lat="45.65827686529027" lon="11.323596320987308"><ele>554.8</ele><time>2026-04-10T12:28:47Z</time></trkpt><trkpt lat="45.6582239414666" lon="11.32371492220007"><ele>559.0</ele><time>2026-04-10T12:28:48Z</time></trkpt><trkpt lat="45.658159971898364" lon="11.323807457678432"><ele>559.0</ele><time>2026-04-10T12:28:49Z</time></trkpt><trkpt lat="45.658084795100066" lon="11.323863042874793"><ele>559.0</ele><time>2026-04-10T12:28:50Z</time></trkpt><trkpt lat="45.65797907876361" lon="11.323916668176635"><ele>559.0</ele><time>2026-04-10T12:28:51.999Z</time></trkpt><trkpt lat="45.65791486028345" lon="11.323905580286068"><ele>559.0</ele><time>2026-04-10T12:28:52.999Z</time></trkpt><trkpt lat="45.6578470817233" lon="11.323885171309678"><ele>559.0</ele><time>2026-04-10T12:28:53.999Z</time></trkpt><trkpt lat="45.657779093402425" lon="11.323855135190533"><ele>559.0</ele><time>2026-04-10T12:28:54.999Z</time></trkpt><trkpt lat="45.65768472988557" lon="11.32382138490694"><ele>563.0</ele><time>2026-04-10T12:28:56.999Z</time></trkpt><trkpt lat="45.65769369711103" lon="11.323917533852757"><ele>567.0</ele><time>2026-04-10T12:29:03.998Z</time></trkpt><trkpt lat="45.65776144145188" lon="11.323942280245618"><ele>571.0</ele><time>2026-04-10T12:29:04.998Z</time></trkpt><trkpt lat="45.657824115515275" lon="11.324031399145264"><ele>575.0</ele><time>2026-04-10T12:29:05.998Z</time></trkpt><trkpt lat="45.65790095936866" lon="11.324104145804622"><ele>579.0</ele><time>2026-04-10T12:29:06.998Z</time></trkpt><trkpt lat="45.65799676868357" lon="11.324171100901738"><ele>583.0</ele><time>2026-04-10T12:29:07.998Z</time></trkpt><trkpt lat="45.65805982813294" lon="11.324229640538762"><ele>583.8</ele><time>2026-04-10T12:29:08.998Z</time></trkpt><trkpt lat="45.65812326991698" lon="11.324247288925816"><ele>584.5999999999999</ele><time>2026-04-10T12:29:09.998Z</time></trkpt><trkpt lat="45.65820495776338" lon="11.32423672158397"><ele>585.4000000000001</ele><time>2026-04-10T12:29:10.998Z</time></trkpt><trkpt lat="45.65830536896852" lon="11.324214901823831"><ele>586.2</ele><time>2026-04-10T12:29:11.998Z</time></trkpt><trkpt lat="45.65842478358231" lon="11.324207668145629"><ele>587.0</ele><time>2026-04-10T12:29:12.998Z</time></trkpt><trkpt lat="45.65856634062107" lon="11.324209732683167"><ele>586.2</ele><time>2026-04-10T12:29:13.998Z</time></trkpt><trkpt lat="45.65869893577485" lon="11.32421248917402"><ele>585.4000000000001</ele><time>2026-04-10T12:29:14.998Z</time></trkpt><trkpt lat="45.65880801342509" lon="11.324215591185627"><ele>584.5999999999999</ele><time>2026-04-10T12:29:15.998Z</time></trkpt><trkpt lat="45.658878382387925" lon="11.32423856992769"><ele>583.8</ele><time>2026-04-10T12:29:16.998Z</time></trkpt><trkpt lat="45.65894409370276" lon="11.324269275227694"><ele>583.0</ele><time>2026-04-10T12:29:18.998Z</time></trkpt><trkpt lat="45.658867522183215" lon="11.324303639012218"><ele>583.0</ele><time>2026-04-10T12:29:24.998Z</time></trkpt><trkpt lat="45.65878884292384" lon="11.324329602069458"><ele>583.0</ele><time>2026-04-10T12:29:25.998Z</time></trkpt><trkpt lat="45.65869701431326" lon="11.32435668551449"><ele>583.0</ele><time>2026-04-10T12:29:26.998Z</time></trkpt><trkpt lat="45.65859199488697" lon="11.324389328835787"><ele>583.0</ele><time>2026-04-10T12:29:27.998Z</time></trkpt><trkpt lat="45.658455254846736" lon="11.324420193791216"><ele>583.0</ele><time>2026-04-10T12:29:28.998Z</time></trkpt><trkpt lat="45.65832459151266" lon="11.324434992444573"><ele>584.0</ele><time>2026-04-10T12:29:29.998Z</time></trkpt><trkpt lat="45.658193983882136" lon="11.324434176602491"><ele>585.0</ele><time>2026-04-10T12:29:30.998Z</time></trkpt><trkpt lat="45.658059428126506" lon="11.324428530062086"><ele>586.0</ele><time>2026-04-10T12:29:31.998Z</time></trkpt><trkpt lat="45.65794201045326" lon="11.324416869152696"><ele>587.0</ele><time>2026-04-10T12:29:32.998Z</time></trkpt><trkpt lat="45.65785150383749" lon="11.324410776504662"><ele>586.0</ele><time>2026-04-10T12:29:33.998Z</time></trkpt><trkpt lat="45.65776694693418" lon="11.32444503101925"><ele>585.0</ele><time>2026-04-10T12:29:34.998Z</time></trkpt><trkpt lat="45.65767543142743" lon="11.324545619258185"><ele>584.0</ele><time>2026-04-10T12:29:35.998Z</time></trkpt><trkpt lat="45.657583424185376" lon="11.324651452304273"><ele>583.0</ele><time>2026-04-10T12:29:36.998Z</time></trkpt><trkpt lat="45.65747815654253" lon="11.324759845416256"><ele>588.75</ele><time>2026-04-10T12:29:37.998Z</time></trkpt><trkpt lat="45.657361522700484" lon="11.324868934254157"><ele>594.5</ele><time>2026-04-10T12:29:38.998Z</time></trkpt><trkpt lat="45.65725091344736" lon="11.32499999495354"><ele>600.25</ele><time>2026-04-10T12:29:39.998Z</time></trkpt><trkpt lat="45.657172967972805" lon="11.325118825185188"><ele>606.0</ele><time>2026-04-10T12:29:40.999Z</time></trkpt><trkpt lat="45.657150844084654" lon="11.325254831294659"><ele>606.0</ele><time>2026-04-10T12:29:41.999Z</time></trkpt><trkpt lat="45.65710254707604" lon="11.325397901951517"><ele>606.0</ele><time>2026-04-10T12:29:42.999Z</time></trkpt><trkpt lat="45.65708461161235" lon="11.325554676518516"><ele>606.0</ele><time>2026-04-10T12:29:43.999Z</time></trkpt><trkpt lat="45.65704756828285" lon="11.325711989309163"><ele>606.0</ele><time>2026-04-10T12:29:44.999Z</time></trkpt><trkpt lat="45.65702211950433" lon="11.325846149832962"><ele>606.0</ele><time>2026-04-10T12:29:45.999Z</time></trkpt><trkpt lat="45.65699008176972" lon="11.325939623281736"><ele>605.0</ele><time>2026-04-10T12:29:46.999Z</time></trkpt><trkpt lat="45.656848549443666" lon="11.325984899143258"><ele>604.0</ele><time>2026-04-10T12:29:48.999Z</time></trkpt><trkpt lat="45.656745043487724" lon="11.32610238466169"><ele>603.0</ele><time>2026-04-10T12:29:50.999Z</time></trkpt><trkpt lat="45.656733305023536" lon="11.326305226523251"><ele>602.0</ele><time>2026-04-10T12:29:52.999Z</time></trkpt><trkpt lat="45.656708990081114" lon="11.326390544540875"><ele>605.5</ele><time>2026-04-10T12:29:53.999Z</time></trkpt><trkpt lat="45.65665201251029" lon="11.326430299176058"><ele>609.0</ele><time>2026-04-10T12:29:54.999Z</time></trkpt><trkpt lat="45.656565085351545" lon="11.326404283087498"><ele>612.5</ele><time>2026-04-10T12:29:55.999Z</time></trkpt><trkpt lat="45.656480733039906" lon="11.326399477103054"><ele>616.0</ele><time>2026-04-10T12:29:56.999Z</time></trkpt><trkpt lat="45.65639632425882" lon="11.32640638707793"><ele>619.5</ele><time>2026-04-10T12:29:57.999Z</time></trkpt><trkpt lat="45.65631275918316" lon="11.326472194109984"><ele>623.0</ele><time>2026-04-10T12:29:58.999Z</time></trkpt><trkpt lat="45.656240223220934" lon="11.326571154293937"><ele>623.0</ele><time>2026-04-10T12:29:59.999Z</time></trkpt><trkpt lat="45.65616573862634" lon="11.32665321163248"><ele>623.0</ele><time>2026-04-10T12:30:00.999Z</time></trkpt><trkpt lat="45.656062524680955" lon="11.326701575917063"><ele>623.0</ele><time>2026-04-10T12:30:01.999Z</time></trkpt><trkpt lat="45.65595987411074" lon="11.326707842069194"><ele>623.0</ele><time>2026-04-10T12:30:02.999Z</time></trkpt><trkpt lat="45.6558825722034" lon="11.326630566126559"><ele>623.0</ele><time>2026-04-10T12:30:03.999Z</time></trkpt><trkpt lat="45.655807290959785" lon="11.3265328402377"><ele>624.6</ele><time>2026-04-10T12:30:04.999Z</time></trkpt><trkpt lat="45.65571840061676" lon="11.326453260101477"><ele>626.1999999999999</ele><time>2026-04-10T12:30:05.999Z</time></trkpt><trkpt lat="45.65562843622469" lon="11.32637011863699"><ele>627.8</ele><time>2026-04-10T12:30:06.999Z</time></trkpt><trkpt lat="45.655537868789324" lon="11.326273780942882"><ele>629.4</ele><time>2026-04-10T12:30:07.999Z</time></trkpt><trkpt lat="45.65546685624828" lon="11.326184756009951"><ele>631.0</ele><time>2026-04-10T12:30:08.999Z</time></trkpt><trkpt lat="45.65539537522225" lon="11.326138629138503"><ele>628.0</ele><time>2026-04-10T12:30:09.999Z</time></trkpt><trkpt lat="45.65531737551513" lon="11.326146724463142"><ele>625.0</ele><time>2026-04-10T12:30:10.999Z</time></trkpt><trkpt lat="45.655228573025" lon="11.326190153230241"><ele>622.0</ele><time>2026-04-10T12:30:11.999Z</time></trkpt><trkpt lat="45.65511621593494" lon="11.326241264258735"><ele>619.0</ele><time>2026-04-10T12:30:12.999Z</time></trkpt><trkpt lat="45.65498078880097" lon="11.326292054174303"><ele>616.0</ele><time>2026-04-10T12:30:13.999Z</time></trkpt><trkpt lat="45.65484760275566" lon="11.326340296490725"><ele>616.0</ele><time>2026-04-10T12:30:14.999Z</time></trkpt><trkpt lat="45.654713286095564" lon="11.32638133517598"><ele>616.0</ele><time>2026-04-10T12:30:15.999Z</time></trkpt><trkpt lat="45.65460897618553" lon="11.326397980495933"><ele>616.0</ele><time>2026-04-10T12:30:16.999Z</time></trkpt><trkpt lat="45.65452763463067" lon="11.326375182937277"><ele>616.0</ele><time>2026-04-10T12:30:17.999Z</time></trkpt><trkpt lat="45.65448536764962" lon="11.326178479540758"><ele>619.0</ele><time>2026-04-10T12:30:18.999Z</time></trkpt><trkpt lat="45.65439619250915" lon="11.326100256654115"><ele>622.0</ele><time>2026-04-10T12:30:20.999Z</time></trkpt><trkpt lat="45.654297491044574" lon="11.326120102621989"><ele>625.0</ele><time>2026-04-10T12:30:21.999Z</time></trkpt><trkpt lat="45.65420805915766" lon="11.326149397986663"><ele>628.0</ele><time>2026-04-10T12:30:22.999Z</time></trkpt><trkpt lat="45.65412293021786" lon="11.326187531260487"><ele>631.0</ele><time>2026-04-10T12:30:23.999Z</time></trkpt><trkpt lat="45.65402885868963" lon="11.326182255964476"><ele>631.0</ele><time>2026-04-10T12:30:24.999Z</time></trkpt><trkpt lat="45.65395838945861" lon="11.326124509323542"><ele>631.0</ele><time>2026-04-10T12:30:25.999Z</time></trkpt><trkpt lat="45.653941381196034" lon="11.326013392867933"><ele>631.0</ele><time>2026-04-10T12:30:26.999Z</time></trkpt><trkpt lat="45.6538770445684" lon="11.325872749597739"><ele>631.0</ele><time>2026-04-10T12:30:28.999Z</time></trkpt><trkpt lat="45.653910909553844" lon="11.325984112913797"><ele>631.0</ele><time>2026-04-10T12:30:31.999Z</time></trkpt><trkpt lat="45.653886157179286" lon="11.326136039065803"><ele>631.0</ele><time>2026-04-10T12:30:32.999Z</time></trkpt><trkpt lat="45.65394374817391" lon="11.326236062834447"><ele>631.0</ele><time>2026-04-10T12:30:33.999Z</time></trkpt><trkpt lat="45.653999424358496" lon="11.326347826637118"><ele>631.0</ele><time>2026-04-10T12:30:34.999Z</time></trkpt><trkpt lat="45.65406749011021" lon="11.326483551845342"><ele>631.0</ele><time>2026-04-10T12:30:35.999Z</time></trkpt><trkpt lat="45.65414911954058" lon="11.326635567986855"><ele>631.0</ele><time>2026-04-10T12:30:36.999Z</time></trkpt><trkpt lat="45.654237835344574" lon="11.326809267513076"><ele>636.0</ele><time>2026-04-10T12:30:37.999Z</time></trkpt><trkpt lat="45.65432136120179" lon="11.326986641344305"><ele>641.0</ele><time>2026-04-10T12:30:38.999Z</time></trkpt><trkpt lat="45.65442851597886" lon="11.327175328851963"><ele>646.0</ele><time>2026-04-10T12:30:39.999Z</time></trkpt><trkpt lat="45.65456987429981" lon="11.327331817407849"><ele>649.0</ele><time>2026-04-10T12:30:40.999Z</time></trkpt><trkpt lat="45.65472720891963" lon="11.327449508600068"><ele>652.0</ele><time>2026-04-10T12:30:41.999Z</time></trkpt><trkpt lat="45.65489429427817" lon="11.327543784421056"><ele>655.0</ele><time>2026-04-10T12:30:42.999Z</time></trkpt><trkpt lat="45.65503868162671" lon="11.327630747494682"><ele>655.0</ele><time>2026-04-10T12:30:43.999Z</time></trkpt><trkpt lat="45.65515952240334" lon="11.327697829863721"><ele>655.0</ele><time>2026-04-10T12:30:44.999Z</time></trkpt><trkpt lat="45.65526877916153" lon="11.327723598416215"><ele>655.0</ele><time>2026-04-10T12:30:45.999Z</time></trkpt><trkpt lat="45.655365186891565" lon="11.327715911597931"><ele>655.0</ele><time>2026-04-10T12:30:46.999Z</time></trkpt><trkpt lat="45.65544196878776" lon="11.327738240508324"><ele>655.0</ele><time>2026-04-10T12:30:47.999Z</time></trkpt><trkpt lat="45.655490104872804" lon="11.327851049905458"><ele>654.6</ele><time>2026-04-10T12:30:48.999Z</time></trkpt><trkpt lat="45.65547797412779" lon="11.327966234155411"><ele>654.2</ele><time>2026-04-10T12:30:49.999Z</time></trkpt><trkpt lat="45.65546727101611" lon="11.328090109749086"><ele>653.8</ele><time>2026-04-10T12:30:50.999Z</time></trkpt><trkpt lat="45.65546175674927" lon="11.32825469147209"><ele>653.4</ele><time>2026-04-10T12:30:51.999Z</time></trkpt><trkpt lat="45.65549286622057" lon="11.328416898319364"><ele>653.0</ele><time>2026-04-10T12:30:52.999Z</time></trkpt><trkpt lat="45.65558586983467" lon="11.328520256907693"><ele>652.25</ele><time>2026-04-10T12:30:53.999Z</time></trkpt><trkpt lat="45.65570296023329" lon="11.328609792159595"><ele>651.5</ele><time>2026-04-10T12:30:54.999Z</time></trkpt><trkpt lat="45.655842072847776" lon="11.328678916364453"><ele>650.75</ele><time>2026-04-10T12:30:55.999Z</time></trkpt><trkpt lat="45.65599182273042" lon="11.328747708072768"><ele>650.0</ele><time>2026-04-10T12:30:56.999Z</time></trkpt><trkpt lat="45.656141815069255" lon="11.328839021858606"><ele>657.3333333333333</ele><time>2026-04-10T12:30:57.999Z</time></trkpt><trkpt lat="45.656275568740924" lon="11.328967292969004"><ele>664.6666666666666</ele><time>2026-04-10T12:30:58.999Z</time></trkpt><trkpt lat="45.65643629278648" lon="11.329049415649628"><ele>672.0</ele><time>2026-04-10T12:30:59.999Z</time></trkpt><trkpt lat="45.65659895628895" lon="11.32915117908285"><ele>672.0</ele><time>2026-04-10T12:31:00.999Z</time></trkpt><trkpt lat="45.656755131016475" lon="11.329237921540809"><ele>672.0</ele><time>2026-04-10T12:31:01.999Z</time></trkpt><trkpt lat="45.65691273812214" lon="11.329259209859446"><ele>672.0</ele><time>2026-04-10T12:31:02.999Z</time></trkpt><trkpt lat="45.65708394509006" lon="11.329265113113612"><ele>672.6666666666666</ele><time>2026-04-10T12:31:03.999Z</time></trkpt><trkpt lat="45.65726025178415" lon="11.329242266393406"><ele>673.3333333333333</ele><time>2026-04-10T12:31:04.999Z</time></trkpt><trkpt lat="45.65744837189081" lon="11.329233700912866"><ele>674.0</ele><time>2026-04-10T12:31:05.999Z</time></trkpt><trkpt lat="45.65763769880216" lon="11.329212162840061"><ele>678.3333333333333</ele><time>2026-04-10T12:31:06.999Z</time></trkpt><trkpt lat="45.657814737023074" lon="11.329180675287487"><ele>682.6666666666666</ele><time>2026-04-10T12:31:07.998Z</time></trkpt><trkpt lat="45.65796356585811" lon="11.32913328355629"><ele>687.0</ele><time>2026-04-10T12:31:08.998Z</time></trkpt><trkpt lat="45.65809930853966" lon="11.32909439881488"><ele>687.0</ele><time>2026-04-10T12:31:09.998Z</time></trkpt><trkpt lat="45.65822774899287" lon="11.329061899404065"><ele>687.0</ele><time>2026-04-10T12:31:10.998Z</time></trkpt><trkpt lat="45.65834841960089" lon="11.329017739718221"><ele>687.0</ele><time>2026-04-10T12:31:11.998Z</time></trkpt><trkpt lat="45.658451309479325" lon="11.328941871275386"><ele>687.0</ele><time>2026-04-10T12:31:12.998Z</time></trkpt><trkpt lat="45.65854297438697" lon="11.328830851294372"><ele>685.6</ele><time>2026-04-10T12:31:13.998Z</time></trkpt><trkpt lat="45.658615579974" lon="11.328715482873324"><ele>684.2</ele><time>2026-04-10T12:31:14.998Z</time></trkpt><trkpt lat="45.658700786983864" lon="11.328622401064356"><ele>682.8</ele><time>2026-04-10T12:31:15.998Z</time></trkpt><trkpt lat="45.65880218675055" lon="11.328588211857742"><ele>681.4</ele><time>2026-04-10T12:31:16.998Z</time></trkpt><trkpt lat="45.65889666818405" lon="11.328571458872924"><ele>680.0</ele><time>2026-04-10T12:31:17.998Z</time></trkpt><trkpt lat="45.65897820404633" lon="11.32857199216187"><ele>680.0</ele><time>2026-04-10T12:31:18.998Z</time></trkpt><trkpt lat="45.659053604768665" lon="11.328581754147924"><ele>680.0</ele><time>2026-04-10T12:31:19.998Z</time></trkpt><trkpt lat="45.65914673550788" lon="11.328571383175639"><ele>680.0</ele><time>2026-04-10T12:31:20.998Z</time></trkpt><trkpt lat="45.65921594010782" lon="11.32867055883353"><ele>680.0</ele><time>2026-04-10T12:31:21.998Z</time></trkpt><trkpt lat="45.659312954326154" lon="11.328742026825305"><ele>680.0</ele><time>2026-04-10T12:31:22.998Z</time></trkpt><trkpt lat="45.65938995857952" lon="11.3288452484039"><ele>682.25</ele><time>2026-04-10T12:31:23.998Z</time></trkpt><trkpt lat="45.659465967644984" lon="11.32896480948161"><ele>684.5</ele><time>2026-04-10T12:31:24.998Z</time></trkpt><trkpt lat="45.65954162738971" lon="11.329087620281712"><ele>686.75</ele><time>2026-04-10T12:31:25.998Z</time></trkpt><trkpt lat="45.65962475030834" lon="11.32921132748781"><ele>689.0</ele><time>2026-04-10T12:31:26.998Z</time></trkpt><trkpt lat="45.65972033113703" lon="11.329314674303227"><ele>689.0</ele><time>2026-04-10T12:31:27.998Z</time></trkpt><trkpt lat="45.65980693586137" lon="11.3294247476592"><ele>689.0</ele><time>2026-04-10T12:31:28.998Z</time></trkpt><trkpt lat="45.65989056040327" lon="11.32954319264057"><ele>689.0</ele><time>2026-04-10T12:31:29.998Z</time></trkpt><trkpt lat="45.65996229692009" lon="11.329670844458132"><ele>689.0</ele><time>2026-04-10T12:31:30.998Z</time></trkpt><trkpt lat="45.6600180189636" lon="11.329790622534194"><ele>689.0</ele><time>2026-04-10T12:31:31.998Z</time></trkpt><trkpt lat="45.66003759503163" lon="11.329887509246111"><ele>691.0</ele><time>2026-04-10T12:31:32.998Z</time></trkpt><trkpt lat="45.66003394607589" lon="11.330038439655715"><ele>693.0</ele><time>2026-04-10T12:31:34.998Z</time></trkpt><trkpt lat="45.660023825657575" lon="11.330138378655553"><ele>695.0</ele><time>2026-04-10T12:31:35.998Z</time></trkpt><trkpt lat="45.66001785686483" lon="11.330270354700863"><ele>697.0</ele><time>2026-04-10T12:31:36.998Z</time></trkpt><trkpt lat="45.66003786986736" lon="11.330424584449588"><ele>699.0</ele><time>2026-04-10T12:31:37.998Z</time></trkpt><trkpt lat="45.66004867137558" lon="11.330586287182943"><ele>699.0</ele><time>2026-04-10T12:31:38.998Z</time></trkpt><trkpt lat="45.66004059741935" lon="11.330749520337527"><ele>699.0</ele><time>2026-04-10T12:31:39.998Z</time></trkpt><trkpt lat="45.66003301368652" lon="11.330903916181768"><ele>699.0</ele><time>2026-04-10T12:31:40.998Z</time></trkpt><trkpt lat="45.66001370339533" lon="11.331047239988541"><ele>699.0</ele><time>2026-04-10T12:31:41.998Z</time></trkpt><trkpt lat="45.659994837488625" lon="11.331153676836871"><ele>699.0</ele><time>2026-04-10T12:31:42.998Z</time></trkpt><trkpt lat="45.65996440602488" lon="11.331245931631763"><ele>699.0</ele><time>2026-04-10T12:31:43.998Z</time></trkpt><trkpt lat="45.659921248347146" lon="11.331341636180088"><ele>699.0</ele><time>2026-04-10T12:31:44.998Z</time></trkpt><trkpt lat="45.659856278244725" lon="11.3314296631335"><ele>699.0</ele><time>2026-04-10T12:31:45.999Z</time></trkpt><trkpt lat="45.6597790968445" lon="11.33152122492037"><ele>699.0</ele><time>2026-04-10T12:31:46.999Z</time></trkpt><trkpt lat="45.659693293014364" lon="11.331641713224572"><ele>699.0</ele><time>2026-04-10T12:31:47.999Z</time></trkpt><trkpt lat="45.65959626232516" lon="11.331736022647862"><ele>698.6</ele><time>2026-04-10T12:31:48.999Z</time></trkpt><trkpt lat="45.659520059990385" lon="11.331859822410081"><ele>698.2</ele><time>2026-04-10T12:31:49.999Z</time></trkpt><trkpt lat="45.65946857465438" lon="11.33199181082116"><ele>697.8000000000001</ele><time>2026-04-10T12:31:50.999Z</time></trkpt><trkpt lat="45.65944516481199" lon="11.33214324968389"><ele>697.4000000000001</ele><time>2026-04-10T12:31:52Z</time></trkpt><trkpt lat="45.65944130233508" lon="11.332301690996392"><ele>697.0</ele><time>2026-04-10T12:31:53Z</time></trkpt><trkpt lat="45.65945727071582" lon="11.33247301029986"><ele>693.4000000000001</ele><time>2026-04-10T12:31:54Z</time></trkpt><trkpt lat="45.65947406021953" lon="11.33264545366355"><ele>689.8000000000001</ele><time>2026-04-10T12:31:55Z</time></trkpt><trkpt lat="45.65949283127699" lon="11.332806315755352"><ele>686.2</ele><time>2026-04-10T12:31:56Z</time></trkpt><trkpt lat="45.6595117976092" lon="11.332959958686857"><ele>682.6</ele><time>2026-04-10T12:31:57Z</time></trkpt><trkpt lat="45.65949391499762" lon="11.333104269111335"><ele>679.0</ele><time>2026-04-10T12:31:58Z</time></trkpt><trkpt lat="45.6594711409329" lon="11.33324436747459"><ele>682.0</ele><time>2026-04-10T12:31:59Z</time></trkpt><trkpt lat="45.65942206961299" lon="11.333356938128258"><ele>685.0</ele><time>2026-04-10T12:32:00Z</time></trkpt><trkpt lat="45.6593639172812" lon="11.33348649363334"><ele>688.0</ele><time>2026-04-10T12:32:01Z</time></trkpt><trkpt lat="45.65928852363262" lon="11.333613739849653"><ele>691.0</ele><time>2026-04-10T12:32:02Z</time></trkpt><trkpt lat="45.659200591960605" lon="11.333760495833902"><ele>688.25</ele><time>2026-04-10T12:32:03Z</time></trkpt><trkpt lat="45.659111004930764" lon="11.333894007682945"><ele>685.5</ele><time>2026-04-10T12:32:04Z</time></trkpt><trkpt lat="45.659023078337405" lon="11.334012509033595"><ele>682.75</ele><time>2026-04-10T12:32:05Z</time></trkpt><trkpt lat="45.658940719057014" lon="11.334127394472755"><ele>680.0</ele><time>2026-04-10T12:32:06Z</time></trkpt><trkpt lat="45.65886552015679" lon="11.33424746159435"><ele>680.0</ele><time>2026-04-10T12:32:07Z</time></trkpt><trkpt lat="45.65880111953269" lon="11.33437034326471"><ele>680.0</ele><time>2026-04-10T12:32:08Z</time></trkpt><trkpt lat="45.65876566706088" lon="11.334514763251835"><ele>680.0</ele><time>2026-04-10T12:32:09Z</time></trkpt><trkpt lat="45.65873488119222" lon="11.334656136288013"><ele>680.0</ele><time>2026-04-10T12:32:10Z</time></trkpt><trkpt lat="45.65874018731086" lon="11.334836343827416"><ele>680.0</ele><time>2026-04-10T12:32:11Z</time></trkpt><trkpt lat="45.65875227964001" lon="11.33503381041627"><ele>680.0</ele><time>2026-04-10T12:32:12Z</time></trkpt><trkpt lat="45.65876361103565" lon="11.335232687293782"><ele>680.0</ele><time>2026-04-10T12:32:13Z</time></trkpt><trkpt lat="45.658772906167286" lon="11.335416635766327"><ele>680.0</ele><time>2026-04-10T12:32:14Z</time></trkpt><trkpt lat="45.65877718260036" lon="11.335589070973775"><ele>680.0</ele><time>2026-04-10T12:32:15Z</time></trkpt><trkpt lat="45.65875065309447" lon="11.335723026476149"><ele>680.0</ele><time>2026-04-10T12:32:16Z</time></trkpt><trkpt lat="45.65872012167377" lon="11.335822243533608"><ele>680.0</ele><time>2026-04-10T12:32:17Z</time></trkpt><trkpt lat="45.658682785664936" lon="11.335903736246523"><ele>680.0</ele><time>2026-04-10T12:32:18Z</time></trkpt><trkpt lat="45.65858427117547" lon="11.335981597634975"><ele>680.0</ele><time>2026-04-10T12:32:20Z</time></trkpt><trkpt lat="45.65851917664968" lon="11.33597151858491"><ele>680.0</ele><time>2026-04-10T12:32:20.999Z</time></trkpt><trkpt lat="45.65845560899769" lon="11.335946447493162"><ele>680.0</ele><time>2026-04-10T12:32:21.999Z</time></trkpt><trkpt lat="45.6583947717918" lon="11.335855545020536"><ele>676.6</ele><time>2026-04-10T12:32:22.999Z</time></trkpt><trkpt lat="45.65833506627381" lon="11.335750204802956"><ele>673.2</ele><time>2026-04-10T12:32:23.999Z</time></trkpt><trkpt lat="45.65827157999811" lon="11.335682126028257"><ele>669.8</ele><time>2026-04-10T12:32:24.999Z</time></trkpt><trkpt lat="45.658181087237786" lon="11.335646279844855"><ele>666.4</ele><time>2026-04-10T12:32:25.999Z</time></trkpt><trkpt lat="45.65808850207615" lon="11.335640257634699"><ele>663.0</ele><time>2026-04-10T12:32:26.999Z</time></trkpt><trkpt lat="45.657993620254494" lon="11.335751766853035"><ele>663.0</ele><time>2026-04-10T12:32:27.999Z</time></trkpt><trkpt lat="45.65790207281535" lon="11.335854043930322"><ele>663.0</ele><time>2026-04-10T12:32:28.999Z</time></trkpt><trkpt lat="45.65781419589937" lon="11.335964317927212"><ele>663.0</ele><time>2026-04-10T12:32:29.999Z</time></trkpt><trkpt lat="45.657727553720456" lon="11.336065518686599"><ele>663.0</ele><time>2026-04-10T12:32:30.999Z</time></trkpt><trkpt lat="45.65766276217434" lon="11.336150278298375"><ele>663.0</ele><time>2026-04-10T12:32:31.999Z</time></trkpt><trkpt lat="45.65758762840288" lon="11.336238598319074"><ele>663.1666666666666</ele><time>2026-04-10T12:32:32.999Z</time></trkpt><trkpt lat="45.657542019124946" lon="11.33632887424135"><ele>663.3333333333334</ele><time>2026-04-10T12:32:33.999Z</time></trkpt><trkpt lat="45.65752717942659" lon="11.336421326612877"><ele>663.5</ele><time>2026-04-10T12:32:34.999Z</time></trkpt><trkpt lat="45.657548318396685" lon="11.33652387483643"><ele>663.6666666666667</ele><time>2026-04-10T12:32:35.999Z</time></trkpt><trkpt lat="45.65762858911269" lon="11.336573596826783"><ele>663.8333333333334</ele><time>2026-04-10T12:32:36.999Z</time></trkpt><trkpt lat="45.657723575118354" lon="11.336567056816316"><ele>664.0</ele><time>2026-04-10T12:32:37.999Z</time></trkpt><trkpt lat="45.657838244648865" lon="11.336524029638188"><ele>661.8000000000001</ele><time>2026-04-10T12:32:38.999Z</time></trkpt><trkpt lat="45.65795300193461" lon="11.3364991767686"><ele>659.6</ele><time>2026-04-10T12:32:39.999Z</time></trkpt><trkpt lat="45.65805376247329" lon="11.336484728756927"><ele>657.4</ele><time>2026-04-10T12:32:40.999Z</time></trkpt><trkpt lat="45.65814014451369" lon="11.336468448620625"><ele>655.2</ele><time>2026-04-10T12:32:41.999Z</time></trkpt><trkpt lat="45.65822492867095" lon="11.336476545969044"><ele>653.0</ele><time>2026-04-10T12:32:42.999Z</time></trkpt><trkpt lat="45.65829946813291" lon="11.336531849334776"><ele>653.0</ele><time>2026-04-10T12:32:43.999Z</time></trkpt><trkpt lat="45.65833363316801" lon="11.336666748684312"><ele>653.0</ele><time>2026-04-10T12:32:44.999Z</time></trkpt><trkpt lat="45.65833013986503" lon="11.336808033353119"><ele>653.0</ele><time>2026-04-10T12:32:45.999Z</time></trkpt><trkpt lat="45.65832955669282" lon="11.336959663519004"><ele>653.0</ele><time>2026-04-10T12:32:46.999Z</time></trkpt><trkpt lat="45.65832127579316" lon="11.337110261954676"><ele>653.0</ele><time>2026-04-10T12:32:47.999Z</time></trkpt><trkpt lat="45.6583150092961" lon="11.337272839741766"><ele>650.0</ele><time>2026-04-10T12:32:48.999Z</time></trkpt><trkpt lat="45.658327465435605" lon="11.337430101541583"><ele>647.0</ele><time>2026-04-10T12:32:49.999Z</time></trkpt><trkpt lat="45.658340427751654" lon="11.33759640189799"><ele>644.0</ele><time>2026-04-10T12:32:50.999Z</time></trkpt><trkpt lat="45.65837839873194" lon="11.337757142989316"><ele>641.0</ele><time>2026-04-10T12:32:51.999Z</time></trkpt><trkpt lat="45.658439280270294" lon="11.337894847407279"><ele>641.0</ele><time>2026-04-10T12:32:52.999Z</time></trkpt><trkpt lat="45.658520830887646" lon="11.337999464859017"><ele>641.0</ele><time>2026-04-10T12:32:53.999Z</time></trkpt><trkpt lat="45.65860815063338" lon="11.338056753143082"><ele>641.0</ele><time>2026-04-10T12:32:54.999Z</time></trkpt><trkpt lat="45.658656375906745" lon="11.33812675350081"><ele>641.0</ele><time>2026-04-10T12:32:55.999Z</time></trkpt><trkpt lat="45.65884076775542" lon="11.338096626087875"><ele>643.0</ele><time>2026-04-10T12:32:57.999Z</time></trkpt><trkpt lat="45.658945369370976" lon="11.338094105420668"><ele>645.0</ele><time>2026-04-10T12:32:58.999Z</time></trkpt><trkpt lat="45.65905751668099" lon="11.338090137619284"><ele>647.0</ele><time>2026-04-10T12:32:59.999Z</time></trkpt><trkpt lat="45.65916464525891" lon="11.338071867109813"><ele>649.0</ele><time>2026-04-10T12:33:00.999Z</time></trkpt><trkpt lat="45.65927260324872" lon="11.338038665310394"><ele>651.0</ele><time>2026-04-10T12:33:01.999Z</time></trkpt><trkpt lat="45.65936174413365" lon="11.337965474915418"><ele>647.4</ele><time>2026-04-10T12:33:02.999Z</time></trkpt><trkpt lat="45.65945612481809" lon="11.33789236013809"><ele>643.8</ele><time>2026-04-10T12:33:03.999Z</time></trkpt><trkpt lat="45.65956412924348" lon="11.337864662970054"><ele>640.1999999999999</ele><time>2026-04-10T12:33:04.999Z</time></trkpt><trkpt lat="45.65968644484532" lon="11.337881015635828"><ele>636.5999999999999</ele><time>2026-04-10T12:33:05.999Z</time></trkpt><trkpt lat="45.65979369678619" lon="11.337910693258394"><ele>633.0</ele><time>2026-04-10T12:33:06.999Z</time></trkpt><trkpt lat="45.65988029501397" lon="11.337932827681449"><ele>633.0</ele><time>2026-04-10T12:33:07.999Z</time></trkpt><trkpt lat="45.659952886131904" lon="11.337912933625805"><ele>633.0</ele><time>2026-04-10T12:33:08.999Z</time></trkpt><trkpt lat="45.66002568899126" lon="11.337842970579873"><ele>633.0</ele><time>2026-04-10T12:33:09.999Z</time></trkpt><trkpt lat="45.660102642264256" lon="11.337725174519523"><ele>633.0</ele><time>2026-04-10T12:33:10.999Z</time></trkpt><trkpt lat="45.66019205960263" lon="11.33760332461338"><ele>633.0</ele><time>2026-04-10T12:33:11.999Z</time></trkpt><trkpt lat="45.66029027091113" lon="11.337523802251962"><ele>629.0</ele><time>2026-04-10T12:33:12.999Z</time></trkpt><trkpt lat="45.66039433731672" lon="11.337492219715823"><ele>625.0</ele><time>2026-04-10T12:33:13.999Z</time></trkpt><trkpt lat="45.66051489456694" lon="11.337500683041034"><ele>621.0</ele><time>2026-04-10T12:33:14.999Z</time></trkpt><trkpt lat="45.66064332800282" lon="11.337514284231794"><ele>617.0</ele><time>2026-04-10T12:33:15.999Z</time></trkpt><trkpt lat="45.66076777199697" lon="11.33753702155183"><ele>617.0</ele><time>2026-04-10T12:33:16.999Z</time></trkpt><trkpt lat="45.66088618106798" lon="11.337563909668969"><ele>617.0</ele><time>2026-04-10T12:33:17.999Z</time></trkpt><trkpt lat="45.66099533264624" lon="11.33760742486985"><ele>617.0</ele><time>2026-04-10T12:33:18.999Z</time></trkpt><trkpt lat="45.661089437888336" lon="11.337663224840579"><ele>617.0</ele><time>2026-04-10T12:33:19.999Z</time></trkpt><trkpt lat="45.66117869977546" lon="11.337741117078844"><ele>617.0</ele><time>2026-04-10T12:33:20.999Z</time></trkpt><trkpt lat="45.66122622320141" lon="11.337893826782631"><ele>612.0</ele><time>2026-04-10T12:33:21.999Z</time></trkpt><trkpt lat="45.66126391068661" lon="11.33805926789037"><ele>607.0</ele><time>2026-04-10T12:33:22.999Z</time></trkpt><trkpt lat="45.661314126475254" lon="11.338227259160067"><ele>602.0</ele><time>2026-04-10T12:33:23.999Z</time></trkpt><trkpt lat="45.661366810109485" lon="11.338387267421224"><ele>597.0</ele><time>2026-04-10T12:33:24.999Z</time></trkpt><trkpt lat="45.66141541681845" lon="11.338545641124515"><ele>597.0</ele><time>2026-04-10T12:33:25.999Z</time></trkpt><trkpt lat="45.661436405563705" lon="11.33871441588209"><ele>597.0</ele><time>2026-04-10T12:33:26.999Z</time></trkpt><trkpt lat="45.66142055630701" lon="11.338885307575474"><ele>597.0</ele><time>2026-04-10T12:33:27.999Z</time></trkpt><trkpt lat="45.661375807430204" lon="11.33903886414456"><ele>597.0</ele><time>2026-04-10T12:33:28.999Z</time></trkpt><trkpt lat="45.66133527619539" lon="11.33918505468907"><ele>597.0</ele><time>2026-04-10T12:33:29.999Z</time></trkpt><trkpt lat="45.66130855377636" lon="11.339337386604775"><ele>597.0</ele><time>2026-04-10T12:33:30.999Z</time></trkpt><trkpt lat="45.66130643533039" lon="11.3394921628892"><ele>597.0</ele><time>2026-04-10T12:33:31.999Z</time></trkpt><trkpt lat="45.66131016803837" lon="11.339638988172096"><ele>597.0</ele><time>2026-04-10T12:33:32.999Z</time></trkpt><trkpt lat="45.66133731378649" lon="11.339770400155906"><ele>597.0</ele><time>2026-04-10T12:33:33.999Z</time></trkpt><trkpt lat="45.66140262221344" lon="11.339895238513764"><ele>594.5</ele><time>2026-04-10T12:33:34.999Z</time></trkpt><trkpt lat="45.66150090483582" lon="11.340019997017649"><ele>592.0</ele><time>2026-04-10T12:33:35.999Z</time></trkpt><trkpt lat="45.66160524530235" lon="11.34013714554628"><ele>589.5</ele><time>2026-04-10T12:33:36.999Z</time></trkpt><trkpt lat="45.66170247008345" lon="11.340268638929352"><ele>587.0</ele><time>2026-04-10T12:33:37.999Z</time></trkpt><trkpt lat="45.661781035690254" lon="11.340422250333287"><ele>583.8000000000001</ele><time>2026-04-10T12:33:38.999Z</time></trkpt><trkpt lat="45.661836677277556" lon="11.340579523535618"><ele>580.6</ele><time>2026-04-10T12:33:39.999Z</time></trkpt><trkpt lat="45.66186424024645" lon="11.340738288762186"><ele>577.4000000000001</ele><time>2026-04-10T12:33:40.999Z</time></trkpt><trkpt lat="45.66190349806446" lon="11.340874661252128"><ele>574.2</ele><time>2026-04-10T12:33:41.999Z</time></trkpt><trkpt lat="45.66196081562804" lon="11.340993781254856"><ele>571.0</ele><time>2026-04-10T12:33:42.999Z</time></trkpt><trkpt lat="45.66204171681841" lon="11.34106942789935"><ele>570.2</ele><time>2026-04-10T12:33:43.999Z</time></trkpt><trkpt lat="45.66213712496976" lon="11.341111378562493"><ele>569.4000000000001</ele><time>2026-04-10T12:33:44.999Z</time></trkpt><trkpt lat="45.66223410576868" lon="11.341113921333156"><ele>568.6</ele><time>2026-04-10T12:33:45.999Z</time></trkpt><trkpt lat="45.66232199252907" lon="11.341082318152978"><ele>567.8000000000001</ele><time>2026-04-10T12:33:46.999Z</time></trkpt><trkpt lat="45.66239314423407" lon="11.34102487779748"><ele>567.0</ele><time>2026-04-10T12:33:47.999Z</time></trkpt><trkpt lat="45.662450331708584" lon="11.34089886709238"><ele>567.0</ele><time>2026-04-10T12:33:48.999Z</time></trkpt><trkpt lat="45.66250978303767" lon="11.340776467811875"><ele>567.0</ele><time>2026-04-10T12:33:49.999Z</time></trkpt><trkpt lat="45.66257889972859" lon="11.340661772317246"><ele>567.0</ele><time>2026-04-10T12:33:50.999Z</time></trkpt><trkpt lat="45.662670092904364" lon="11.340584329383578"><ele>567.0</ele><time>2026-04-10T12:33:52Z</time></trkpt><trkpt lat="45.662782290418065" lon="11.340556232324587"><ele>567.0</ele><time>2026-04-10T12:33:53Z</time></trkpt><trkpt lat="45.66289572450954" lon="11.340570942635145"><ele>565.8000000000001</ele><time>2026-04-10T12:33:54Z</time></trkpt><trkpt lat="45.6630039505207" lon="11.340614090651421"><ele>564.6</ele><time>2026-04-10T12:33:55Z</time></trkpt><trkpt lat="45.66311750272643" lon="11.340654016980674"><ele>563.4000000000001</ele><time>2026-04-10T12:33:56Z</time></trkpt><trkpt lat="45.66322953216286" lon="11.340681148221837"><ele>562.2</ele><time>2026-04-10T12:33:57Z</time></trkpt><trkpt lat="45.66333117135607" lon="11.340707993723017"><ele>561.0</ele><time>2026-04-10T12:33:58Z</time></trkpt><trkpt lat="45.66341699720223" lon="11.340773581942614"><ele>561.0</ele><time>2026-04-10T12:33:59Z</time></trkpt><trkpt lat="45.66348858020945" lon="11.340873602414874"><ele>561.0</ele><time>2026-04-10T12:34:00Z</time></trkpt><trkpt lat="45.663553131001194" lon="11.340986685373913"><ele>561.0</ele><time>2026-04-10T12:34:01Z</time></trkpt><trkpt lat="45.66361844585888" lon="11.341095494935963"><ele>561.0</ele><time>2026-04-10T12:34:02Z</time></trkpt><trkpt lat="45.66369516715651" lon="11.34115950979302"><ele>561.0</ele><time>2026-04-10T12:34:03Z</time></trkpt><trkpt lat="45.66378828591241" lon="11.341167736795219"><ele>560.75</ele><time>2026-04-10T12:34:04Z</time></trkpt><trkpt lat="45.66389810280712" lon="11.34114073909107"><ele>560.5</ele><time>2026-04-10T12:34:05Z</time></trkpt><trkpt lat="45.66401364773155" lon="11.341138895689555"><ele>560.25</ele><time>2026-04-10T12:34:06Z</time></trkpt><trkpt lat="45.66412975794319" lon="11.341156162196564"><ele>560.0</ele><time>2026-04-10T12:34:07Z</time></trkpt><trkpt lat="45.6642468576844" lon="11.341197909880815"><ele>560.0</ele><time>2026-04-10T12:34:08Z</time></trkpt><trkpt lat="45.664347900977305" lon="11.341261696613602"><ele>560.0</ele><time>2026-04-10T12:34:09Z</time></trkpt><trkpt lat="45.66443595980972" lon="11.341338640544716"><ele>560.0</ele><time>2026-04-10T12:34:10Z</time></trkpt><trkpt lat="45.66451099113416" lon="11.341424372218542"><ele>560.0</ele><time>2026-04-10T12:34:11Z</time></trkpt><trkpt lat="45.664583612572336" lon="11.341515538618454"><ele>560.0</ele><time>2026-04-10T12:34:12Z</time></trkpt><trkpt lat="45.6646368016667" lon="11.341604345068236"><ele>558.0</ele><time>2026-04-10T12:34:13Z</time></trkpt><trkpt lat="45.6646526461481" lon="11.341693554019738"><ele>556.0</ele><time>2026-04-10T12:34:14Z</time></trkpt><trkpt lat="45.66462340212462" lon="11.341797531353608"><ele>554.0</ele><time>2026-04-10T12:34:15Z</time></trkpt><trkpt lat="45.664554171191156" lon="11.341897928337266"><ele>552.0</ele><time>2026-04-10T12:34:16Z</time></trkpt><trkpt lat="45.66448080509035" lon="11.342033560477352"><ele>550.0</ele><time>2026-04-10T12:34:17Z</time></trkpt><trkpt lat="45.66440976112665" lon="11.342213701161576"><ele>548.0</ele><time>2026-04-10T12:34:18Z</time></trkpt><trkpt lat="45.66434331335005" lon="11.342426609586715"><ele>546.0</ele><time>2026-04-10T12:34:19Z</time></trkpt><trkpt lat="45.66427592286313" lon="11.342641606638352"><ele>544.0</ele><time>2026-04-10T12:34:20Z</time></trkpt><trkpt lat="45.66421209451447" lon="11.342834041610388"><ele>544.0</ele><time>2026-04-10T12:34:21Z</time></trkpt><trkpt lat="45.664151310032054" lon="11.342994718397781"><ele>544.0</ele><time>2026-04-10T12:34:22Z</time></trkpt><trkpt lat="45.66408627363472" lon="11.34313254822721"><ele>544.0</ele><time>2026-04-10T12:34:23Z</time></trkpt><trkpt lat="45.66403987391935" lon="11.34328903412336"><ele>544.0</ele><time>2026-04-10T12:34:24Z</time></trkpt><trkpt lat="45.664017096580054" lon="11.343479090644452"><ele>544.25</ele><time>2026-04-10T12:34:25Z</time></trkpt><trkpt lat="45.66399792180285" lon="11.343671462525768"><ele>544.5</ele><time>2026-04-10T12:34:26Z</time></trkpt><trkpt lat="45.66398799908008" lon="11.343854658642044"><ele>544.75</ele><time>2026-04-10T12:34:27Z</time></trkpt><trkpt lat="45.66398285224808" lon="11.344037251888942"><ele>545.0</ele><time>2026-04-10T12:34:28Z</time></trkpt><trkpt lat="45.6639857034044" lon="11.34421434474235"><ele>544.25</ele><time>2026-04-10T12:34:29Z</time></trkpt><trkpt lat="45.663994584846236" lon="11.344386010853256"><ele>543.5</ele><time>2026-04-10T12:34:30Z</time></trkpt><trkpt lat="45.66402534886855" lon="11.344561089704873"><ele>542.75</ele><time>2026-04-10T12:34:31Z</time></trkpt><trkpt lat="45.66404592686315" lon="11.344741577831101"><ele>542.0</ele><time>2026-04-10T12:34:32Z</time></trkpt><trkpt lat="45.66402817096003" lon="11.344919685712343"><ele>541.4</ele><time>2026-04-10T12:34:33Z</time></trkpt><trkpt lat="45.6639990544038" lon="11.345089813021346"><ele>540.8000000000001</ele><time>2026-04-10T12:34:34Z</time></trkpt><trkpt lat="45.66396878982224" lon="11.345243964929745"><ele>540.2</ele><time>2026-04-10T12:34:35Z</time></trkpt><trkpt lat="45.6639487886644" lon="11.345362951695986"><ele>539.6</ele><time>2026-04-10T12:34:36Z</time></trkpt><trkpt lat="45.663919068624416" lon="11.345482781832173"><ele>539.0</ele><time>2026-04-10T12:34:38Z</time></trkpt><trkpt lat="45.66383003974394" lon="11.34540859703622"><ele>539.0</ele><time>2026-04-10T12:34:40Z</time></trkpt><trkpt lat="45.66382153511599" lon="11.345293668210918"><ele>539.0</ele><time>2026-04-10T12:34:41Z</time></trkpt><trkpt lat="45.66383679158718" lon="11.345149935428491"><ele>539.0</ele><time>2026-04-10T12:34:42Z</time></trkpt><trkpt lat="45.66383452397391" lon="11.34497781013374"><ele>539.0</ele><time>2026-04-10T12:34:43Z</time></trkpt><trkpt lat="45.66382662575713" lon="11.344794524529854"><ele>539.0</ele><time>2026-04-10T12:34:44Z</time></trkpt><trkpt lat="45.66381381615447" lon="11.344604625131083"><ele>539.75</ele><time>2026-04-10T12:34:45Z</time></trkpt><trkpt lat="45.663778184068725" lon="11.344434009971213"><ele>540.5</ele><time>2026-04-10T12:34:46Z</time></trkpt><trkpt lat="45.66371162617025" lon="11.344289387189692"><ele>541.25</ele><time>2026-04-10T12:34:47Z</time></trkpt><trkpt lat="45.663641654624584" lon="11.34416359251635"><ele>542.0</ele><time>2026-04-10T12:34:48Z</time></trkpt><trkpt lat="45.66357999433702" lon="11.344042067264317"><ele>538.2</ele><time>2026-04-10T12:34:49Z</time></trkpt><trkpt lat="45.663523546415064" lon="11.343945394323509"><ele>534.4000000000001</ele><time>2026-04-10T12:34:50Z</time></trkpt><trkpt lat="45.66344161303129" lon="11.343877883865693"><ele>530.5999999999999</ele><time>2026-04-10T12:34:51Z</time></trkpt><trkpt lat="45.66334964019132" lon="11.343870210494146"><ele>526.8</ele><time>2026-04-10T12:34:52Z</time></trkpt><trkpt lat="45.66326091222839" lon="11.343933437037936"><ele>523.0</ele><time>2026-04-10T12:34:53Z</time></trkpt><trkpt lat="45.66319096244845" lon="11.34405113048291"><ele>520.0</ele><time>2026-04-10T12:34:54Z</time></trkpt><trkpt lat="45.66316452376438" lon="11.34420280513224"><ele>517.0</ele><time>2026-04-10T12:34:55Z</time></trkpt><trkpt lat="45.6631790500219" lon="11.344371952764158"><ele>514.0</ele><time>2026-04-10T12:34:55.999Z</time></trkpt><trkpt lat="45.66321014322455" lon="11.344546288544626"><ele>511.0</ele><time>2026-04-10T12:34:56.999Z</time></trkpt><trkpt lat="45.66325941287168" lon="11.344720761617921"><ele>509.5</ele><time>2026-04-10T12:34:57.999Z</time></trkpt><trkpt lat="45.6633200193783" lon="11.344882769216719"><ele>508.0</ele><time>2026-04-10T12:34:58.999Z</time></trkpt><trkpt lat="45.66335995143773" lon="11.34504984635037"><ele>506.5</ele><time>2026-04-10T12:34:59.999Z</time></trkpt><trkpt lat="45.6633651449667" lon="11.345233255882412"><ele>505.0</ele><time>2026-04-10T12:35:00.999Z</time></trkpt><trkpt lat="45.66332539860211" lon="11.345415970959245"><ele>503.75</ele><time>2026-04-10T12:35:01.999Z</time></trkpt><trkpt lat="45.6632817182377" lon="11.34559610935979"><ele>502.5</ele><time>2026-04-10T12:35:02.999Z</time></trkpt><trkpt lat="45.66323610202968" lon="11.34576557798491"><ele>501.25</ele><time>2026-04-10T12:35:03.999Z</time></trkpt><trkpt lat="45.66315676418355" lon="11.345883018847767"><ele>500.0</ele><time>2026-04-10T12:35:04.999Z</time></trkpt><trkpt lat="45.663101687997084" lon="11.34605148617341"><ele>500.0</ele><time>2026-04-10T12:35:05.999Z</time></trkpt><trkpt lat="45.66306141308633" lon="11.346225604302223"><ele>500.0</ele><time>2026-04-10T12:35:06.999Z</time></trkpt><trkpt lat="45.663092828795214" lon="11.34638549440095"><ele>500.0</ele><time>2026-04-10T12:35:07.999Z</time></trkpt><trkpt lat="45.66313654515394" lon="11.346566044874681"><ele>500.0</ele><time>2026-04-10T12:35:08.999Z</time></trkpt><trkpt lat="45.66324486053984" lon="11.346671964353984"><ele>501.0</ele><time>2026-04-10T12:35:09.999Z</time></trkpt><trkpt lat="45.6633645681182" lon="11.34673804614362"><ele>502.0</ele><time>2026-04-10T12:35:10.999Z</time></trkpt><trkpt lat="45.66346702066288" lon="11.34673956219209"><ele>503.0</ele><time>2026-04-10T12:35:11.999Z</time></trkpt><trkpt lat="45.66357006747377" lon="11.346666046893239"><ele>504.0</ele><time>2026-04-10T12:35:12.999Z</time></trkpt><trkpt lat="45.66367559048794" lon="11.346570304844787"><ele>504.0</ele><time>2026-04-10T12:35:13.999Z</time></trkpt><trkpt lat="45.663784199439476" lon="11.34656930116831"><ele>504.0</ele><time>2026-04-10T12:35:14.999Z</time></trkpt><trkpt lat="45.663884732836" lon="11.346615159623333"><ele>504.0</ele><time>2026-04-10T12:35:15.999Z</time></trkpt><trkpt lat="45.66400247403576" lon="11.346672438995975"><ele>504.0</ele><time>2026-04-10T12:35:16.999Z</time></trkpt><trkpt lat="45.66410517473509" lon="11.34674398430378"><ele>504.0</ele><time>2026-04-10T12:35:17.999Z</time></trkpt><trkpt lat="45.66420522384536" lon="11.346788552965615"><ele>504.0</ele><time>2026-04-10T12:35:18.999Z</time></trkpt><trkpt lat="45.664281459169864" lon="11.347087985713898"><ele>504.0</ele><time>2026-04-10T12:35:19.999Z</time></trkpt><trkpt lat="45.66439421864378" lon="11.347216933476037"><ele>502.6666666666667</ele><time>2026-04-10T12:35:20.999Z</time></trkpt><trkpt lat="45.664492909457145" lon="11.347299897210302"><ele>501.33333333333337</ele><time>2026-04-10T12:35:21.999Z</time></trkpt><trkpt lat="45.66455276745216" lon="11.347355895719511"><ele>500.0</ele><time>2026-04-10T12:35:22.999Z</time></trkpt><trkpt lat="45.664611493411066" lon="11.347435862360651"><ele>498.6666666666667</ele><time>2026-04-10T12:35:23.999Z</time></trkpt><trkpt lat="45.6646391369116" lon="11.347520974830369"><ele>497.33333333333337</ele><time>2026-04-10T12:35:25.999Z</time></trkpt><trkpt lat="45.66458444294283" lon="11.347583033319891"><ele>496.0</ele><time>2026-04-10T12:35:26.999Z</time></trkpt><trkpt lat="45.66450898108649" lon="11.347564148756971"><ele>491.6</ele><time>2026-04-10T12:35:27.999Z</time></trkpt><trkpt lat="45.66444055288369" lon="11.347522748889"><ele>487.20000000000005</ele><time>2026-04-10T12:35:28.999Z</time></trkpt><trkpt lat="45.664339674813256" lon="11.347459348642836"><ele>482.79999999999995</ele><time>2026-04-10T12:35:29.999Z</time></trkpt><trkpt lat="45.664240253225074" lon="11.347392645159044"><ele>478.4</ele><time>2026-04-10T12:35:30.999Z</time></trkpt><trkpt lat="45.6641750017095" lon="11.347321587635951"><ele>474.0</ele><time>2026-04-10T12:35:31.999Z</time></trkpt><trkpt lat="45.66410334330224" lon="11.34735625860725"><ele>474.0</ele><time>2026-04-10T12:35:33.999Z</time></trkpt><trkpt lat="45.66413340352172" lon="11.347466496787627"><ele>474.0</ele><time>2026-04-10T12:35:34.999Z</time></trkpt><trkpt lat="45.664214973301725" lon="11.347547549863245"><ele>474.0</ele><time>2026-04-10T12:35:35.999Z</time></trkpt><trkpt lat="45.66429662212223" lon="11.347646375557066"><ele>474.0</ele><time>2026-04-10T12:35:36.999Z</time></trkpt><trkpt lat="45.664358347176076" lon="11.347763555247528"><ele>474.0</ele><time>2026-04-10T12:35:37.999Z</time></trkpt><trkpt lat="45.66444120129995" lon="11.347903507944526"><ele>473.75</ele><time>2026-04-10T12:35:38.999Z</time></trkpt><trkpt lat="45.66450675785999" lon="11.348050956141186"><ele>473.5</ele><time>2026-04-10T12:35:39.999Z</time></trkpt><trkpt lat="45.66457304407855" lon="11.348191592200147"><ele>473.25</ele><time>2026-04-10T12:35:40.999Z</time></trkpt><trkpt lat="45.6646214131773" lon="11.34834303193261"><ele>473.0</ele><time>2026-04-10T12:35:41.999Z</time></trkpt><trkpt lat="45.66465280108874" lon="11.348509413286836"><ele>473.0</ele><time>2026-04-10T12:35:42.999Z</time></trkpt><trkpt lat="45.66469647192871" lon="11.348668499754845"><ele>472.99999999999994</ele><time>2026-04-10T12:35:43.999Z</time></trkpt><trkpt lat="45.6647239995065" lon="11.348813026837217"><ele>472.99999999999994</ele><time>2026-04-10T12:35:44.999Z</time></trkpt><trkpt lat="45.66470484168854" lon="11.348960098528005"><ele>473.0</ele><time>2026-04-10T12:35:45.999Z</time></trkpt><trkpt lat="45.66465261292045" lon="11.349098467743687"><ele>473.0</ele><time>2026-04-10T12:35:46.999Z</time></trkpt><trkpt lat="45.6645857070805" lon="11.349220382839471"><ele>469.75</ele><time>2026-04-10T12:35:47.999Z</time></trkpt><trkpt lat="45.664521030224584" lon="11.349339057033664"><ele>466.5</ele><time>2026-04-10T12:35:48.999Z</time></trkpt><trkpt lat="45.6644654608749" lon="11.349436038353613"><ele>463.25</ele><time>2026-04-10T12:35:49.999Z</time></trkpt><trkpt lat="45.664369747984395" lon="11.349556443414537"><ele>460.0</ele><time>2026-04-10T12:35:51.999Z</time></trkpt><trkpt lat="45.66422653378961" lon="11.349505480465234"><ele>456.33333333333337</ele><time>2026-04-10T12:35:53.999Z</time></trkpt><trkpt lat="45.66410962679154" lon="11.349395937745825"><ele>452.66666666666663</ele><time>2026-04-10T12:35:54.999Z</time></trkpt><trkpt lat="45.66396896846286" lon="11.349303615562931"><ele>449.0</ele><time>2026-04-10T12:35:55.999Z</time></trkpt><trkpt lat="45.663821412245795" lon="11.349222861777449"><ele>449.0</ele><time>2026-04-10T12:35:56.999Z</time></trkpt><trkpt lat="45.66369206854429" lon="11.349156098436973"><ele>449.0</ele><time>2026-04-10T12:35:58Z</time></trkpt><trkpt lat="45.663578578621134" lon="11.349103576297045"><ele>449.0</ele><time>2026-04-10T12:35:59Z</time></trkpt><trkpt lat="45.66345932490905" lon="11.349078684512593"><ele>449.0</ele><time>2026-04-10T12:36:00Z</time></trkpt><trkpt lat="45.66333089430837" lon="11.349092641890847"><ele>448.0</ele><time>2026-04-10T12:36:01Z</time></trkpt><trkpt lat="45.66320320589975" lon="11.349150039598664"><ele>447.0</ele><time>2026-04-10T12:36:02Z</time></trkpt><trkpt lat="45.663063901740024" lon="11.349208712741426"><ele>446.0</ele><time>2026-04-10T12:36:03Z</time></trkpt><trkpt lat="45.66292274242247" lon="11.349243324911075"><ele>445.0</ele><time>2026-04-10T12:36:04Z</time></trkpt><trkpt lat="45.66279301917649" lon="11.349258806785981"><ele>445.0</ele><time>2026-04-10T12:36:05Z</time></trkpt><trkpt lat="45.66266397183362" lon="11.349248310700686"><ele>445.0</ele><time>2026-04-10T12:36:06Z</time></trkpt><trkpt lat="45.66253534806761" lon="11.349230740935491"><ele>445.0</ele><time>2026-04-10T12:36:07Z</time></trkpt><trkpt lat="45.66239946156303" lon="11.34926091398449"><ele>445.0</ele><time>2026-04-10T12:36:08Z</time></trkpt><trkpt lat="45.66225677938493" lon="11.34933512225921"><ele>445.0</ele><time>2026-04-10T12:36:09Z</time></trkpt><trkpt lat="45.66211105750457" lon="11.349419859381463"><ele>445.0</ele><time>2026-04-10T12:36:10Z</time></trkpt><trkpt lat="45.661971361188854" lon="11.349501305713577"><ele>445.0</ele><time>2026-04-10T12:36:11Z</time></trkpt><trkpt lat="45.661851512616735" lon="11.349565573989569"><ele>445.0</ele><time>2026-04-10T12:36:12Z</time></trkpt><trkpt lat="45.66174988552703" lon="11.34963889746183"><ele>442.4</ele><time>2026-04-10T12:36:13Z</time></trkpt><trkpt lat="45.66166523772595" lon="11.34972805790986"><ele>439.8</ele><time>2026-04-10T12:36:14Z</time></trkpt><trkpt lat="45.66160765005674" lon="11.349850793251349"><ele>437.20000000000005</ele><time>2026-04-10T12:36:15Z</time></trkpt><trkpt lat="45.661590111172195" lon="11.350005905783545"><ele>434.6</ele><time>2026-04-10T12:36:16Z</time></trkpt><trkpt lat="45.66161149930787" lon="11.350180722051475"><ele>432.0</ele><time>2026-04-10T12:36:17Z</time></trkpt><trkpt lat="45.66163570780223" lon="11.350346268725277"><ele>432.0</ele><time>2026-04-10T12:36:18Z</time></trkpt><trkpt lat="45.66162065212846" lon="11.350510950686402"><ele>432.0</ele><time>2026-04-10T12:36:19Z</time></trkpt><trkpt lat="45.661561428929474" lon="11.350671586044584"><ele>432.0</ele><time>2026-04-10T12:36:20Z</time></trkpt><trkpt lat="45.661487663296946" lon="11.350810030878524"><ele>432.0</ele><time>2026-04-10T12:36:21Z</time></trkpt><trkpt lat="45.66142843310284" lon="11.350950985134707"><ele>430.75</ele><time>2026-04-10T12:36:22Z</time></trkpt><trkpt lat="45.66138514834622" lon="11.351119478414601"><ele>429.5</ele><time>2026-04-10T12:36:23Z</time></trkpt><trkpt lat="45.66135528619114" lon="11.351304426755329"><ele>428.25</ele><time>2026-04-10T12:36:24Z</time></trkpt><trkpt lat="45.661318329601656" lon="11.351492128820137"><ele>427.0</ele><time>2026-04-10T12:36:25Z</time></trkpt><trkpt lat="45.661265296563535" lon="11.351651080005535"><ele>425.25</ele><time>2026-04-10T12:36:26Z</time></trkpt><trkpt lat="45.66123587957106" lon="11.351791252040602"><ele>423.5</ele><time>2026-04-10T12:36:27Z</time></trkpt><trkpt lat="45.66125296139305" lon="11.351952922675329"><ele>421.75</ele><time>2026-04-10T12:36:28Z</time></trkpt><trkpt lat="45.661298972728446" lon="11.352131788416578"><ele>420.0</ele><time>2026-04-10T12:36:29Z</time></trkpt><trkpt lat="45.66134751694167" lon="11.352324072919723"><ele>419.2</ele><time>2026-04-10T12:36:30Z</time></trkpt><trkpt lat="45.661383562413384" lon="11.352531601843932"><ele>418.4</ele><time>2026-04-10T12:36:31Z</time></trkpt><trkpt lat="45.66140045730332" lon="11.352712541137079"><ele>417.6</ele><time>2026-04-10T12:36:32Z</time></trkpt><trkpt lat="45.66140568897065" lon="11.352845700706805"><ele>416.8</ele><time>2026-04-10T12:36:33Z</time></trkpt><trkpt lat="45.66140809559921" lon="11.352941568606044"><ele>416.0</ele><time>2026-04-10T12:36:34Z</time></trkpt><trkpt lat="45.66141018696161" lon="11.353063631452802"><ele>416.0</ele><time>2026-04-10T12:36:36Z</time></trkpt><trkpt lat="45.66148007423805" lon="11.353144074516045"><ele>416.0</ele><time>2026-04-10T12:36:39Z</time></trkpt><trkpt lat="45.66155839165377" lon="11.352994506697383"><ele>416.0</ele><time>2026-04-10T12:36:41Z</time></trkpt><trkpt lat="45.66162454399161" lon="11.35288652086762"><ele>416.0</ele><time>2026-04-10T12:36:42Z</time></trkpt><trkpt lat="45.66172148358968" lon="11.352795542233705"><ele>416.0</ele><time>2026-04-10T12:36:43Z</time></trkpt><trkpt lat="45.66182687275179" lon="11.352702769037421"><ele>416.0</ele><time>2026-04-10T12:36:44Z</time></trkpt><trkpt lat="45.66194721102978" lon="11.35259394704213"><ele>416.0</ele><time>2026-04-10T12:36:45Z</time></trkpt><trkpt lat="45.6620796510973" lon="11.35248199770084"><ele>416.0</ele><time>2026-04-10T12:36:46Z</time></trkpt><trkpt lat="45.66220118418237" lon="11.352368665510241"><ele>416.0</ele><time>2026-04-10T12:36:47Z</time></trkpt><trkpt lat="45.66231903366109" lon="11.352254937104203"><ele>416.25</ele><time>2026-04-10T12:36:48Z</time></trkpt><trkpt lat="45.66244308957903" lon="11.352140973753146"><ele>416.5</ele><time>2026-04-10T12:36:49Z</time></trkpt><trkpt lat="45.66255503282294" lon="11.35203746721628"><ele>416.75</ele><time>2026-04-10T12:36:50Z</time></trkpt><trkpt lat="45.66266135063598" lon="11.351943793056016"><ele>417.0</ele><time>2026-04-10T12:36:51Z</time></trkpt><trkpt lat="45.66276807431658" lon="11.351867974756965"><ele>416.5</ele><time>2026-04-10T12:36:52Z</time></trkpt><trkpt lat="45.6628892270107" lon="11.351835298985389"><ele>416.0</ele><time>2026-04-10T12:36:53Z</time></trkpt><trkpt lat="45.66302266165465" lon="11.351857209326125"><ele>415.5</ele><time>2026-04-10T12:36:54Z</time></trkpt><trkpt lat="45.66317267139267" lon="11.351903910868225"><ele>415.0</ele><time>2026-04-10T12:36:55Z</time></trkpt><trkpt lat="45.663331086386755" lon="11.351921469445179"><ele>415.0</ele><time>2026-04-10T12:36:56Z</time></trkpt><trkpt lat="45.663502880756376" lon="11.351891784840165"><ele>415.0</ele><time>2026-04-10T12:36:57Z</time></trkpt><trkpt lat="45.66368475302913" lon="11.351841180837988"><ele>415.0</ele><time>2026-04-10T12:36:58Z</time></trkpt><trkpt lat="45.66387123541803" lon="11.351800880875553"><ele>414.33333333333337</ele><time>2026-04-10T12:36:59Z</time></trkpt><trkpt lat="45.664071166521595" lon="11.351758537055815"><ele>413.66666666666663</ele><time>2026-04-10T12:37:00Z</time></trkpt><trkpt lat="45.6642537952238" lon="11.35172911459979"><ele>413.0</ele><time>2026-04-10T12:37:01Z</time></trkpt><trkpt lat="45.66442324575678" lon="11.35170530732646"><ele>413.5</ele><time>2026-04-10T12:37:02Z</time></trkpt><trkpt lat="45.6645749181037" lon="11.35166811747037"><ele>414.0</ele><time>2026-04-10T12:37:03Z</time></trkpt><trkpt lat="45.664718450182576" lon="11.351649279521947"><ele>414.5</ele><time>2026-04-10T12:37:04Z</time></trkpt><trkpt lat="45.664856681255756" lon="11.351692787083902"><ele>415.0</ele><time>2026-04-10T12:37:05Z</time></trkpt><trkpt lat="45.664984909702746" lon="11.351788797100284"><ele>415.0</ele><time>2026-04-10T12:37:06Z</time></trkpt><trkpt lat="45.66511818840072" lon="11.351888374911756"><ele>415.0</ele><time>2026-04-10T12:37:07Z</time></trkpt><trkpt lat="45.6652473030783" lon="11.351978155867647"><ele>415.0</ele><time>2026-04-10T12:37:08Z</time></trkpt><trkpt lat="45.66538104351188" lon="11.35205674021299"><ele>415.0</ele><time>2026-04-10T12:37:09Z</time></trkpt><trkpt lat="45.66551914974929" lon="11.352124099354068"><ele>411.33333333333337</ele><time>2026-04-10T12:37:10Z</time></trkpt><trkpt lat="45.66566421794527" lon="11.352181003100037"><ele>407.66666666666663</ele><time>2026-04-10T12:37:11Z</time></trkpt><trkpt lat="45.6658167648742" lon="11.35220759792496"><ele>404.0</ele><time>2026-04-10T12:37:12Z</time></trkpt><trkpt lat="45.665969750744765" lon="11.352205170861364"><ele>405.0</ele><time>2026-04-10T12:37:13Z</time></trkpt><trkpt lat="45.66613272427118" lon="11.352182212435093"><ele>406.0</ele><time>2026-04-10T12:37:14Z</time></trkpt><trkpt lat="45.66630029950535" lon="11.352194084606694"><ele>407.0</ele><time>2026-04-10T12:37:15Z</time></trkpt><trkpt lat="45.666469076961455" lon="11.352257097237421"><ele>407.0</ele><time>2026-04-10T12:37:16Z</time></trkpt><trkpt lat="45.66664117336903" lon="11.352286230568174"><ele>407.0</ele><time>2026-04-10T12:37:16.999Z</time></trkpt><trkpt lat="45.66681299334691" lon="11.352333383778506"><ele>407.0</ele><time>2026-04-10T12:37:17.999Z</time></trkpt><trkpt lat="45.666981322415076" lon="11.352385655252125"><ele>410.0</ele><time>2026-04-10T12:37:18.999Z</time></trkpt><trkpt lat="45.667136402801916" lon="11.352434179957793"><ele>413.0</ele><time>2026-04-10T12:37:19.999Z</time></trkpt><trkpt lat="45.66726479978691" lon="11.352527867692116"><ele>416.0</ele><time>2026-04-10T12:37:20.999Z</time></trkpt><trkpt lat="45.667375074684585" lon="11.352642872480255"><ele>419.0</ele><time>2026-04-10T12:37:21.999Z</time></trkpt><trkpt lat="45.66747287815596" lon="11.352775273535178"><ele>419.0</ele><time>2026-04-10T12:37:22.999Z</time></trkpt><trkpt lat="45.66757304860669" lon="11.352932686793825"><ele>419.0</ele><time>2026-04-10T12:37:23.999Z</time></trkpt><trkpt lat="45.66767889341853" lon="11.353105873402608"><ele>419.0</ele><time>2026-04-10T12:37:24.999Z</time></trkpt><trkpt lat="45.66778307168332" lon="11.35328217503195"><ele>422.3333333333333</ele><time>2026-04-10T12:37:25.999Z</time></trkpt><trkpt lat="45.66788705385493" lon="11.353461865972905"><ele>425.66666666666663</ele><time>2026-04-10T12:37:26.999Z</time></trkpt><trkpt lat="45.6679853692401" lon="11.35364634319658"><ele>429.0</ele><time>2026-04-10T12:37:27.999Z</time></trkpt><trkpt lat="45.668092571720116" lon="11.353810631582565"><ele>425.0</ele><time>2026-04-10T12:37:28.999Z</time></trkpt><trkpt lat="45.668164610685785" lon="11.353988284365123"><ele>421.0</ele><time>2026-04-10T12:37:29.999Z</time></trkpt><trkpt lat="45.668239267393595" lon="11.354138452415224"><ele>417.0</ele><time>2026-04-10T12:37:30.999Z</time></trkpt><trkpt lat="45.66831005216537" lon="11.354260043388477"><ele>413.0</ele><time>2026-04-10T12:37:31.999Z</time></trkpt><trkpt lat="45.668389364418786" lon="11.3543517668845"><ele>413.0</ele><time>2026-04-10T12:37:32.999Z</time></trkpt><trkpt lat="45.668502348598025" lon="11.35441588035453"><ele>413.0</ele><time>2026-04-10T12:37:33.999Z</time></trkpt><trkpt lat="45.66863279399208" lon="11.354435879332769"><ele>413.0</ele><time>2026-04-10T12:37:34.999Z</time></trkpt><trkpt lat="45.66876487644991" lon="11.354444193231142"><ele>413.0</ele><time>2026-04-10T12:37:35.999Z</time></trkpt><trkpt lat="45.66888495576636" lon="11.354370644217887"><ele>415.25</ele><time>2026-04-10T12:37:36.999Z</time></trkpt><trkpt lat="45.66902468530721" lon="11.354300521210764"><ele>417.5</ele><time>2026-04-10T12:37:37.999Z</time></trkpt><trkpt lat="45.66915531316605" lon="11.354206857276862"><ele>419.75</ele><time>2026-04-10T12:37:38.999Z</time></trkpt><trkpt lat="45.669281293407515" lon="11.354126611666354"><ele>422.0</ele><time>2026-04-10T12:37:39.999Z</time></trkpt><trkpt lat="45.66938847735802" lon="11.354059558177193"><ele>422.20000000000005</ele><time>2026-04-10T12:37:40.999Z</time></trkpt><trkpt lat="45.66946878694969" lon="11.353987931854531"><ele>422.4</ele><time>2026-04-10T12:37:41.999Z</time></trkpt><trkpt lat="45.66952289746895" lon="11.353887475218913"><ele>422.6</ele><time>2026-04-10T12:37:42.999Z</time></trkpt><trkpt lat="45.66952324889725" lon="11.353742731052705"><ele>422.79999999999995</ele><time>2026-04-10T12:37:43.999Z</time></trkpt><trkpt lat="45.6695654120509" lon="11.35358887403449"><ele>423.0</ele><time>2026-04-10T12:37:44.999Z</time></trkpt><trkpt lat="45.66961352748656" lon="11.353434144812743"><ele>423.0</ele><time>2026-04-10T12:37:45.999Z</time></trkpt><trkpt lat="45.669702422127024" lon="11.353352959157503"><ele>423.0</ele><time>2026-04-10T12:37:46.999Z</time></trkpt><trkpt lat="45.66979727074123" lon="11.35323410163583"><ele>423.0</ele><time>2026-04-10T12:37:47.999Z</time></trkpt><trkpt lat="45.66989651977853" lon="11.353106310499616"><ele>423.0</ele><time>2026-04-10T12:37:48.999Z</time></trkpt><trkpt lat="45.66997618793453" lon="11.352934982269083"><ele>423.2</ele><time>2026-04-10T12:37:49.999Z</time></trkpt><trkpt lat="45.670017150707295" lon="11.352777534343934"><ele>423.4</ele><time>2026-04-10T12:37:50.999Z</time></trkpt><trkpt lat="45.67004915870264" lon="11.352626241925849"><ele>423.59999999999997</ele><time>2026-04-10T12:37:51.999Z</time></trkpt><trkpt lat="45.67008556547101" lon="11.352480100840415"><ele>423.79999999999995</ele><time>2026-04-10T12:37:52.999Z</time></trkpt><trkpt lat="45.670114189018115" lon="11.352332719898287"><ele>424.0</ele><time>2026-04-10T12:37:53.999Z</time></trkpt><trkpt lat="45.6701248429978" lon="11.352193975641466"><ele>424.0</ele><time>2026-04-10T12:37:54.999Z</time></trkpt><trkpt lat="45.670102230528265" lon="11.352065657639654"><ele>424.0</ele><time>2026-04-10T12:37:55.999Z</time></trkpt><trkpt lat="45.67004813774827" lon="11.351951952318387"><ele>424.0</ele><time>2026-04-10T12:37:56.999Z</time></trkpt><trkpt lat="45.66995251467943" lon="11.351859004368947"><ele>424.0</ele><time>2026-04-10T12:37:57.999Z</time></trkpt><trkpt lat="45.669828925253725" lon="11.351758913367142"><ele>424.0</ele><time>2026-04-10T12:37:58.999Z</time></trkpt><trkpt lat="45.66970204852523" lon="11.351650278233306"><ele>424.0</ele><time>2026-04-10T12:37:59.999Z</time></trkpt><trkpt lat="45.66957008133151" lon="11.351540902468765"><ele>424.0</ele><time>2026-04-10T12:38:00.999Z</time></trkpt><trkpt lat="45.66945702488336" lon="11.351410746407055"><ele>424.0</ele><time>2026-04-10T12:38:01.999Z</time></trkpt><trkpt lat="45.66937063921373" lon="11.35124450503071"><ele>424.0</ele><time>2026-04-10T12:38:03Z</time></trkpt><trkpt lat="45.66935664663926" lon="11.351041553779032"><ele>423.5</ele><time>2026-04-10T12:38:04Z</time></trkpt><trkpt lat="45.66935749497016" lon="11.35085235463052"><ele>423.0</ele><time>2026-04-10T12:38:05Z</time></trkpt><trkpt lat="45.66938104912283" lon="11.350666498098377"><ele>422.5</ele><time>2026-04-10T12:38:06Z</time></trkpt><trkpt lat="45.66942924298228" lon="11.350474883804742"><ele>422.0</ele><time>2026-04-10T12:38:07Z</time></trkpt><trkpt lat="45.66948960033184" lon="11.350270106922226"><ele>422.0</ele><time>2026-04-10T12:38:08Z</time></trkpt><trkpt lat="45.66955864196735" lon="11.350062653212838"><ele>422.0</ele><time>2026-04-10T12:38:09Z</time></trkpt><trkpt lat="45.66961275318033" lon="11.349864175889884"><ele>422.0</ele><time>2026-04-10T12:38:10Z</time></trkpt><trkpt lat="45.66966650892446" lon="11.349726665583823"><ele>422.0</ele><time>2026-04-10T12:38:11Z</time></trkpt><trkpt lat="45.66969059693415" lon="11.349610093483397"><ele>422.0</ele><time>2026-04-10T12:38:12Z</time></trkpt><trkpt lat="45.669670842736856" lon="11.349491867432665"><ele>422.0</ele><time>2026-04-10T12:38:13Z</time></trkpt><trkpt lat="45.66958204786273" lon="11.349410172313748"><ele>422.0</ele><time>2026-04-10T12:38:14Z</time></trkpt><trkpt lat="45.6694799237439" lon="11.349346600178567"><ele>422.0</ele><time>2026-04-10T12:38:15Z</time></trkpt><trkpt lat="45.66934570462215" lon="11.349275988502512"><ele>422.0</ele><time>2026-04-10T12:38:16Z</time></trkpt><trkpt lat="45.66920112858073" lon="11.349183022828246"><ele>428.0</ele><time>2026-04-10T12:38:17Z</time></trkpt><trkpt lat="45.66904583730867" lon="11.34910784908948"><ele>434.0</ele><time>2026-04-10T12:38:18Z</time></trkpt><trkpt lat="45.668882220754" lon="11.349030742282011"><ele>440.0</ele><time>2026-04-10T12:38:19Z</time></trkpt><trkpt lat="45.66872198343475" lon="11.348965985406624"><ele>441.0</ele><time>2026-04-10T12:38:20Z</time></trkpt><trkpt lat="45.66859620493629" lon="11.348920436604002"><ele>442.0</ele><time>2026-04-10T12:38:21Z</time></trkpt><trkpt lat="45.66849885432659" lon="11.348901754579162"><ele>443.0</ele><time>2026-04-10T12:38:22Z</time></trkpt><trkpt lat="45.66841241831754" lon="11.348830689466208"><ele>444.0</ele><time>2026-04-10T12:38:23Z</time></trkpt><trkpt lat="45.66834986435267" lon="11.348730869950723"><ele>445.0</ele><time>2026-04-10T12:38:24Z</time></trkpt><trkpt lat="45.66833570054325" lon="11.34860169179092"><ele>445.0</ele><time>2026-04-10T12:38:25Z</time></trkpt><trkpt lat="45.668333493445054" lon="11.348474600270704"><ele>445.0</ele><time>2026-04-10T12:38:26Z</time></trkpt><trkpt lat="45.668367855643766" lon="11.348310240143748"><ele>445.0</ele><time>2026-04-10T12:38:27Z</time></trkpt><trkpt lat="45.66838558208202" lon="11.348064124556867"><ele>445.0</ele><time>2026-04-10T12:38:28Z</time></trkpt><trkpt lat="45.66840128350117" lon="11.34784553254169"><ele>445.25</ele><time>2026-04-10T12:38:29Z</time></trkpt><trkpt lat="45.66841687811324" lon="11.34762882431914"><ele>445.5</ele><time>2026-04-10T12:38:30Z</time></trkpt><trkpt lat="45.6684223666265" lon="11.347419916914966"><ele>445.75</ele><time>2026-04-10T12:38:31Z</time></trkpt><trkpt lat="45.66843529425252" lon="11.347230992053163"><ele>446.0</ele><time>2026-04-10T12:38:32Z</time></trkpt><trkpt lat="45.66843562914225" lon="11.347028699475006"><ele>447.66666666666663</ele><time>2026-04-10T12:38:33Z</time></trkpt><trkpt lat="45.66840589254205" lon="11.346823014540997"><ele>449.33333333333337</ele><time>2026-04-10T12:38:34Z</time></trkpt><trkpt lat="45.66837067835308" lon="11.346619978437568"><ele>451.0</ele><time>2026-04-10T12:38:35Z</time></trkpt><trkpt lat="45.66835636213822" lon="11.346393139352395"><ele>450.0</ele><time>2026-04-10T12:38:36Z</time></trkpt><trkpt lat="45.66837667602374" lon="11.346149840955986"><ele>449.0</ele><time>2026-04-10T12:38:37Z</time></trkpt><trkpt lat="45.66841761159418" lon="11.345917360444396"><ele>448.0</ele><time>2026-04-10T12:38:38Z</time></trkpt><trkpt lat="45.66846516293564" lon="11.345684937272797"><ele>446.75</ele><time>2026-04-10T12:38:39Z</time></trkpt><trkpt lat="45.668501638657865" lon="11.345467060933213"><ele>445.5</ele><time>2026-04-10T12:38:40Z</time></trkpt><trkpt lat="45.66853270717492" lon="11.345299967927836"><ele>444.25</ele><time>2026-04-10T12:38:41Z</time></trkpt><trkpt lat="45.66855553423851" lon="11.345147095335701"><ele>443.0</ele><time>2026-04-10T12:38:42Z</time></trkpt><trkpt lat="45.66856014208651" lon="11.345006624483622"><ele>443.0</ele><time>2026-04-10T12:38:43Z</time></trkpt><trkpt lat="45.66852399161858" lon="11.344884795426735"><ele>443.0</ele><time>2026-04-10T12:38:44Z</time></trkpt><trkpt lat="45.66842508674707" lon="11.344797082304622"><ele>443.0</ele><time>2026-04-10T12:38:45Z</time></trkpt><trkpt lat="45.66833017453428" lon="11.344694598510833"><ele>443.0</ele><time>2026-04-10T12:38:46Z</time></trkpt><trkpt lat="45.668226168648324" lon="11.34458208733407"><ele>442.75</ele><time>2026-04-10T12:38:47Z</time></trkpt><trkpt lat="45.668096880173" lon="11.344521215672405"><ele>442.5</ele><time>2026-04-10T12:38:48Z</time></trkpt><trkpt lat="45.667957072814" lon="11.34448231388526"><ele>442.25</ele><time>2026-04-10T12:38:49Z</time></trkpt><trkpt lat="45.66783375373483" lon="11.344458194613477"><ele>442.0</ele><time>2026-04-10T12:38:50Z</time></trkpt><trkpt lat="45.66773084543997" lon="11.344444592198009"><ele>445.33333333333337</ele><time>2026-04-10T12:38:51Z</time></trkpt><trkpt lat="45.66765885171876" lon="11.344370427158648"><ele>448.6666666666667</ele><time>2026-04-10T12:38:52Z</time></trkpt><trkpt lat="45.66760164791462" lon="11.344295894309859"><ele>452.0</ele><time>2026-04-10T12:38:53Z</time></trkpt><trkpt lat="45.66759053567629" lon="11.344181163306992"><ele>455.33333333333337</ele><time>2026-04-10T12:38:54Z</time></trkpt><trkpt lat="45.667661411121244" lon="11.344091245940135"><ele>458.6666666666667</ele><time>2026-04-10T12:38:55Z</time></trkpt><trkpt lat="45.66771633677267" lon="11.343972368458056"><ele>462.0</ele><time>2026-04-10T12:38:56Z</time></trkpt><trkpt lat="45.66777689234801" lon="11.343818678368379"><ele>455.66666666666663</ele><time>2026-04-10T12:38:57Z</time></trkpt><trkpt lat="45.66784008425947" lon="11.343624927136249"><ele>449.3333333333333</ele><time>2026-04-10T12:38:58Z</time></trkpt><trkpt lat="45.66792749566981" lon="11.343425054343337"><ele>443.0</ele><time>2026-04-10T12:38:59Z</time></trkpt><trkpt lat="45.66801028183317" lon="11.343224991257571"><ele>443.0</ele><time>2026-04-10T12:39:00Z</time></trkpt><trkpt lat="45.668079709881184" lon="11.3430521255059"><ele>443.0</ele><time>2026-04-10T12:39:01Z</time></trkpt><trkpt lat="45.66811933453941" lon="11.342856698248035"><ele>443.0</ele><time>2026-04-10T12:39:02Z</time></trkpt><trkpt lat="45.66812448140736" lon="11.342642944309711"><ele>443.0</ele><time>2026-04-10T12:39:03Z</time></trkpt><trkpt lat="45.668129697317625" lon="11.342421680885625"><ele>443.25</ele><time>2026-04-10T12:39:04Z</time></trkpt><trkpt lat="45.668153922777144" lon="11.342223994313839"><ele>443.5</ele><time>2026-04-10T12:39:05Z</time></trkpt><trkpt lat="45.66820945994852" lon="11.342053817858943"><ele>443.75</ele><time>2026-04-10T12:39:06Z</time></trkpt><trkpt lat="45.668274511424485" lon="11.341909631277195"><ele>444.0</ele><time>2026-04-10T12:39:07Z</time></trkpt><trkpt lat="45.668325370722535" lon="11.34179989877424"><ele>444.3333333333333</ele><time>2026-04-10T12:39:08Z</time></trkpt><trkpt lat="45.66835860968496" lon="11.341702665378179"><ele>444.66666666666663</ele><time>2026-04-10T12:39:09Z</time></trkpt><trkpt lat="45.66838834758383" lon="11.341608161797353"><ele>445.0</ele><time>2026-04-10T12:39:10Z</time></trkpt><trkpt lat="45.668418698253646" lon="11.341525660110456"><ele>445.3333333333333</ele><time>2026-04-10T12:39:11Z</time></trkpt><trkpt lat="45.66845424005246" lon="11.341428254191168"><ele>445.66666666666663</ele><time>2026-04-10T12:39:12Z</time></trkpt><trkpt lat="45.66849000386284" lon="11.341306900649698"><ele>446.0</ele><time>2026-04-10T12:39:13Z</time></trkpt><trkpt lat="45.66850490315535" lon="11.341158308763136"><ele>447.0</ele><time>2026-04-10T12:39:14Z</time></trkpt><trkpt lat="45.66847695234967" lon="11.340982293193962"><ele>448.0</ele><time>2026-04-10T12:39:15Z</time></trkpt><trkpt lat="45.668429678455354" lon="11.340810092485292"><ele>449.0</ele><time>2026-04-10T12:39:16Z</time></trkpt><trkpt lat="45.66838876900075" lon="11.340666995652313"><ele>450.0</ele><time>2026-04-10T12:39:17Z</time></trkpt><trkpt lat="45.668397678567764" lon="11.340540925126431"><ele>449.0</ele><time>2026-04-10T12:39:18Z</time></trkpt><trkpt lat="45.66849179935125" lon="11.340449935910833"><ele>448.0</ele><time>2026-04-10T12:39:19Z</time></trkpt><trkpt lat="45.66858342569974" lon="11.340350808484654"><ele>447.0</ele><time>2026-04-10T12:39:20Z</time></trkpt><trkpt lat="45.668692144873106" lon="11.340211757628374"><ele>446.0</ele><time>2026-04-10T12:39:21Z</time></trkpt><trkpt lat="45.66880262439476" lon="11.340081341900607"><ele>446.0</ele><time>2026-04-10T12:39:22Z</time></trkpt><trkpt lat="45.66890411087257" lon="11.339944048451024"><ele>446.0</ele><time>2026-04-10T12:39:23Z</time></trkpt><trkpt lat="45.669004625081165" lon="11.33978668089958"><ele>446.0</ele><time>2026-04-10T12:39:24Z</time></trkpt><trkpt lat="45.669121871813346" lon="11.339635823943182"><ele>446.0</ele><time>2026-04-10T12:39:25Z</time></trkpt><trkpt lat="45.66923609984717" lon="11.339476201921965"><ele>447.66666666666663</ele><time>2026-04-10T12:39:26Z</time></trkpt><trkpt lat="45.66935030105471" lon="11.339297830507103"><ele>449.33333333333337</ele><time>2026-04-10T12:39:27Z</time></trkpt><trkpt lat="45.669472835150415" lon="11.339125606275854"><ele>451.0</ele><time>2026-04-10T12:39:28Z</time></trkpt><trkpt lat="45.66960140126862" lon="11.338945727877649"><ele>453.0</ele><time>2026-04-10T12:39:29Z</time></trkpt><trkpt lat="45.66973582744477" lon="11.338771839543588"><ele>455.0</ele><time>2026-04-10T12:39:30Z</time></trkpt><trkpt lat="45.6698627635394" lon="11.33859248382102"><ele>457.0</ele><time>2026-04-10T12:39:31Z</time></trkpt><trkpt lat="45.66995961719514" lon="11.338446432761774"><ele>457.0</ele><time>2026-04-10T12:39:32Z</time></trkpt><trkpt lat="45.67003473580027" lon="11.338334072232634"><ele>457.00000000000006</ele><time>2026-04-10T12:39:33Z</time></trkpt><trkpt lat="45.670104853969534" lon="11.338222577135582"><ele>457.00000000000006</ele><time>2026-04-10T12:39:34Z</time></trkpt><trkpt lat="45.67015171708736" lon="11.338114158980018"><ele>457.0</ele><time>2026-04-10T12:39:35Z</time></trkpt><trkpt lat="45.6701311875171" lon="11.337983764133485"><ele>457.0</ele><time>2026-04-10T12:39:36Z</time></trkpt><trkpt lat="45.670085332442376" lon="11.337844558178261"><ele>457.0</ele><time>2026-04-10T12:39:37Z</time></trkpt><trkpt lat="45.6700162696702" lon="11.337708334152074"><ele>457.0</ele><time>2026-04-10T12:39:37.999Z</time></trkpt><trkpt lat="45.66993295472824" lon="11.337548412883608"><ele>457.0</ele><time>2026-04-10T12:39:38.999Z</time></trkpt><trkpt lat="45.669826098181346" lon="11.337394471750674"><ele>457.0</ele><time>2026-04-10T12:39:39.999Z</time></trkpt><trkpt lat="45.66971317420697" lon="11.337240508368009"><ele>456.5</ele><time>2026-04-10T12:39:40.999Z</time></trkpt><trkpt lat="45.66959609557873" lon="11.337097294790603"><ele>456.0</ele><time>2026-04-10T12:39:41.999Z</time></trkpt><trkpt lat="45.669469147791084" lon="11.336979124452029"><ele>455.5</ele><time>2026-04-10T12:39:42.999Z</time></trkpt><trkpt lat="45.66934486919615" lon="11.33692480018243"><ele>455.0</ele><time>2026-04-10T12:39:43.999Z</time></trkpt><trkpt lat="45.66924701936518" lon="11.33688599088321"><ele>456.4</ele><time>2026-04-10T12:39:44.998Z</time></trkpt><trkpt lat="45.66917592717498" lon="11.33681802005867"><ele>457.8</ele><time>2026-04-10T12:39:45.998Z</time></trkpt><trkpt lat="45.66916928929586" lon="11.336675600378554"><ele>459.20000000000005</ele><time>2026-04-10T12:39:46.998Z</time></trkpt><trkpt lat="45.66912567642154" lon="11.3365295800279"><ele>460.6</ele><time>2026-04-10T12:39:47.998Z</time></trkpt><trkpt lat="45.669095911220964" lon="11.336386464299816"><ele>462.0</ele><time>2026-04-10T12:39:48.998Z</time></trkpt><trkpt lat="45.669100343754614" lon="11.336248988706535"><ele>463.8</ele><time>2026-04-10T12:39:49.998Z</time></trkpt><trkpt lat="45.66914197196805" lon="11.336138747325412"><ele>465.6</ele><time>2026-04-10T12:39:50.998Z</time></trkpt><trkpt lat="45.669200899004906" lon="11.336008370055296"><ele>467.40000000000003</ele><time>2026-04-10T12:39:51.998Z</time></trkpt><trkpt lat="45.66926492214966" lon="11.335871095733122"><ele>469.20000000000005</ele><time>2026-04-10T12:39:52.998Z</time></trkpt><trkpt lat="45.669314609050566" lon="11.335774424053547"><ele>471.0</ele><time>2026-04-10T12:39:53.998Z</time></trkpt><trkpt lat="45.669358833338805" lon="11.33570759967981"><ele>469.4</ele><time>2026-04-10T12:39:54.998Z</time></trkpt><trkpt lat="45.66948126193136" lon="11.335686534096938"><ele>467.8</ele><time>2026-04-10T12:39:56.998Z</time></trkpt><trkpt lat="45.669549205163115" lon="11.335754813690782"><ele>466.19999999999993</ele><time>2026-04-10T12:39:57.998Z</time></trkpt><trkpt lat="45.66960905668902" lon="11.335863843455966"><ele>464.59999999999997</ele><time>2026-04-10T12:39:58.998Z</time></trkpt><trkpt lat="45.66970599441241" lon="11.335983806971734"><ele>463.0</ele><time>2026-04-10T12:39:59.998Z</time></trkpt><trkpt lat="45.669809767049614" lon="11.33607344521266"><ele>463.0</ele><time>2026-04-10T12:40:00.998Z</time></trkpt><trkpt lat="45.669927712884835" lon="11.336163346805131"><ele>463.0</ele><time>2026-04-10T12:40:01.998Z</time></trkpt><trkpt lat="45.67003483934274" lon="11.33624362439057"><ele>463.0</ele><time>2026-04-10T12:40:02.998Z</time></trkpt><trkpt lat="45.67013690279796" lon="11.336316605257757"><ele>463.0</ele><time>2026-04-10T12:40:03.998Z</time></trkpt><trkpt lat="45.67025985463365" lon="11.336358782208523"><ele>465.0</ele><time>2026-04-10T12:40:04.998Z</time></trkpt><trkpt lat="45.67040761147954" lon="11.33636795190986"><ele>467.0</ele><time>2026-04-10T12:40:05.998Z</time></trkpt><trkpt lat="45.67057542173976" lon="11.336372038950964"><ele>469.0</ele><time>2026-04-10T12:40:06.998Z</time></trkpt><trkpt lat="45.67073238642994" lon="11.336390525882923"><ele>466.5</ele><time>2026-04-10T12:40:07.998Z</time></trkpt><trkpt lat="45.670878811841334" lon="11.336407471867547"><ele>464.0</ele><time>2026-04-10T12:40:09Z</time></trkpt><trkpt lat="45.671004391720466" lon="11.336400717737586"><ele>461.5</ele><time>2026-04-10T12:40:10Z</time></trkpt><trkpt lat="45.67114518884822" lon="11.33632380350643"><ele>459.0</ele><time>2026-04-10T12:40:11Z</time></trkpt><trkpt lat="45.67124146877634" lon="11.336196846585713"><ele>459.0</ele><time>2026-04-10T12:40:12Z</time></trkpt><trkpt lat="45.671375905156246" lon="11.336106581458804"><ele>459.0</ele><time>2026-04-10T12:40:13Z</time></trkpt><trkpt lat="45.671498428398856" lon="11.336087008376607"><ele>459.0</ele><time>2026-04-10T12:40:14Z</time></trkpt><trkpt lat="45.6715925003759" lon="11.336100467187931"><ele>459.0</ele><time>2026-04-10T12:40:15Z</time></trkpt><trkpt lat="45.67166687782573" lon="11.336172483748285"><ele>459.0</ele><time>2026-04-10T12:40:16Z</time></trkpt><trkpt lat="45.671671521118995" lon="11.336345702186355"><ele>459.0</ele><time>2026-04-10T12:40:17Z</time></trkpt><trkpt lat="45.671786115397616" lon="11.336445471432384"><ele>459.0</ele><time>2026-04-10T12:40:18Z</time></trkpt><trkpt lat="45.67190465555252" lon="11.336498079417405"><ele>459.0</ele><time>2026-04-10T12:40:19Z</time></trkpt><trkpt lat="45.67205522267419" lon="11.336513292591267"><ele>453.0</ele><time>2026-04-10T12:40:20Z</time></trkpt><trkpt lat="45.67221035417683" lon="11.336448525235609"><ele>447.0</ele><time>2026-04-10T12:40:21Z</time></trkpt><trkpt lat="45.67234268907102" lon="11.336409127510764"><ele>441.0</ele><time>2026-04-10T12:40:22Z</time></trkpt><trkpt lat="45.67247545175404" lon="11.336415993119095"><ele>435.0</ele><time>2026-04-10T12:40:23Z</time></trkpt><trkpt lat="45.67261237209149" lon="11.336441880742044"><ele>435.0</ele><time>2026-04-10T12:40:24Z</time></trkpt><trkpt lat="45.67270273624415" lon="11.336481981963278"><ele>435.0</ele><time>2026-04-10T12:40:24.999Z</time></trkpt><trkpt lat="45.67279045388801" lon="11.336510404741512"><ele>435.0</ele><time>2026-04-10T12:40:25.999Z</time></trkpt><trkpt lat="45.67285669294665" lon="11.336362188050023"><ele>435.0</ele><time>2026-04-10T12:40:27.999Z</time></trkpt><trkpt lat="45.672896413150696" lon="11.336248726632247"><ele>435.0</ele><time>2026-04-10T12:40:28.999Z</time></trkpt><trkpt lat="45.672956375567736" lon="11.336075337452744"><ele>435.8</ele><time>2026-04-10T12:40:29.999Z</time></trkpt><trkpt lat="45.67299713383849" lon="11.335944532429904"><ele>436.6</ele><time>2026-04-10T12:40:30.999Z</time></trkpt><trkpt lat="45.67300959287321" lon="11.335826161631916"><ele>437.4</ele><time>2026-04-10T12:40:31.999Z</time></trkpt><trkpt lat="45.673021361661036" lon="11.335718084627258"><ele>438.2</ele><time>2026-04-10T12:40:32.999Z</time></trkpt><trkpt lat="45.67299612690664" lon="11.335578916849288"><ele>439.0</ele><time>2026-04-10T12:40:33.999Z</time></trkpt><trkpt lat="45.672967927065095" lon="11.335398426525307"><ele>439.0</ele><time>2026-04-10T12:40:34.999Z</time></trkpt><trkpt lat="45.6729364148208" lon="11.335234753276657"><ele>439.0</ele><time>2026-04-10T12:40:35.999Z</time></trkpt><trkpt lat="45.67290871751773" lon="11.335073021864067"><ele>439.0</ele><time>2026-04-10T12:40:36.999Z</time></trkpt><trkpt lat="45.672893972089696" lon="11.334944458790154"><ele>439.0</ele><time>2026-04-10T12:40:37.999Z</time></trkpt><trkpt lat="45.67289666181911" lon="11.334845330647278"><ele>439.0</ele><time>2026-04-10T12:40:38.999Z</time></trkpt><trkpt lat="45.672928796949506" lon="11.334755799594898"><ele>439.00000000000006</ele><time>2026-04-10T12:40:39.999Z</time></trkpt><trkpt lat="45.67299439528396" lon="11.33471298896384"><ele>439.0</ele><time>2026-04-10T12:40:40.999Z</time></trkpt><trkpt lat="45.673058785384356" lon="11.334726493633674"><ele>439.0</ele><time>2026-04-10T12:40:41.999Z</time></trkpt><trkpt lat="45.67311671367879" lon="11.334777636876366"><ele>439.0</ele><time>2026-04-10T12:40:42.999Z</time></trkpt><trkpt lat="45.6732039186558" lon="11.334821976173796"><ele>439.00000000000006</ele><time>2026-04-10T12:40:43.999Z</time></trkpt><trkpt lat="45.673324287267384" lon="11.334873281700045"><ele>439.0</ele><time>2026-04-10T12:40:44.999Z</time></trkpt><trkpt lat="45.673431306849956" lon="11.334899854826416"><ele>439.0</ele><time>2026-04-10T12:40:45.999Z</time></trkpt><trkpt lat="45.67352782995935" lon="11.334893840194269"><ele>439.0</ele><time>2026-04-10T12:40:46.999Z</time></trkpt><trkpt lat="45.67363796641759" lon="11.334819561141515"><ele>439.0</ele><time>2026-04-10T12:40:47.999Z</time></trkpt><trkpt lat="45.67371148410526" lon="11.334773636235932"><ele>439.0</ele><time>2026-04-10T12:40:48.999Z</time></trkpt><trkpt lat="45.6737965380469" lon="11.334629790497207"><ele>439.0</ele><time>2026-04-10T12:40:49.999Z</time></trkpt><trkpt lat="45.67384586892342" lon="11.334540199399765"><ele>440.0</ele><time>2026-04-10T12:40:50.999Z</time></trkpt><trkpt lat="45.673879937131964" lon="11.33444346764988"><ele>441.0</ele><time>2026-04-10T12:40:51.999Z</time></trkpt><trkpt lat="45.673978287092574" lon="11.334559497332942"><ele>442.0</ele><time>2026-04-10T12:40:52.999Z</time></trkpt><trkpt lat="45.67406450607055" lon="11.334539342990558"><ele>443.0</ele><time>2026-04-10T12:40:53.999Z</time></trkpt><trkpt lat="45.67415787394286" lon="11.334492851993692"><ele>444.0</ele><time>2026-04-10T12:40:54.999Z</time></trkpt><trkpt lat="45.67424174339977" lon="11.334425341148808"><ele>444.0</ele><time>2026-04-10T12:40:55.999Z</time></trkpt><trkpt lat="45.6743271424362" lon="11.334309194809329"><ele>444.0</ele><time>2026-04-10T12:40:56.999Z</time></trkpt><trkpt lat="45.674413750271775" lon="11.334155586171233"><ele>444.0</ele><time>2026-04-10T12:40:57.999Z</time></trkpt><trkpt lat="45.6745653823745" lon="11.333845011155711"><ele>443.4</ele><time>2026-04-10T12:40:59.999Z</time></trkpt><trkpt lat="45.674633022409765" lon="11.333765488094565"><ele>442.79999999999995</ele><time>2026-04-10T12:41:00.999Z</time></trkpt><trkpt lat="45.67469102698214" lon="11.33372393164049"><ele>442.20000000000005</ele><time>2026-04-10T12:41:01.999Z</time></trkpt><trkpt lat="45.67479355427682" lon="11.3338125145053"><ele>441.6</ele><time>2026-04-10T12:41:03.999Z</time></trkpt><trkpt lat="45.67482523099877" lon="11.333918691455219"><ele>441.0</ele><time>2026-04-10T12:41:04.999Z</time></trkpt><trkpt lat="45.67489661142896" lon="11.334044866367242"><ele>441.0</ele><time>2026-04-10T12:41:05.999Z</time></trkpt><trkpt lat="45.67498110004529" lon="11.33415013877131"><ele>441.0</ele><time>2026-04-10T12:41:06.999Z</time></trkpt><trkpt lat="45.67503541834447" lon="11.334236422172333"><ele>441.0</ele><time>2026-04-10T12:41:07.999Z</time></trkpt><trkpt lat="45.67512272608635" lon="11.334205612798952"><ele>441.0</ele><time>2026-04-10T12:41:08.999Z</time></trkpt><trkpt lat="45.67519461854104" lon="11.334217595567416"><ele>441.0</ele><time>2026-04-10T12:41:09.999Z</time></trkpt><trkpt lat="45.675332967483" lon="11.333997549158674"><ele>444.20000000000005</ele><time>2026-04-10T12:41:10.999Z</time></trkpt><trkpt lat="45.67541705047751" lon="11.333875066157862"><ele>447.40000000000003</ele><time>2026-04-10T12:41:11.999Z</time></trkpt><trkpt lat="45.67549436900164" lon="11.33376804331628"><ele>450.6</ele><time>2026-04-10T12:41:12.999Z</time></trkpt><trkpt lat="45.67555397736066" lon="11.333671401541181"><ele>453.8</ele><time>2026-04-10T12:41:13.999Z</time></trkpt><trkpt lat="45.675666116399" lon="11.333708692075566"><ele>457.0</ele><time>2026-04-10T12:41:15.999Z</time></trkpt><trkpt lat="45.67571833373296" lon="11.333807601949477"><ele>453.40000000000003</ele><time>2026-04-10T12:41:16.999Z</time></trkpt><trkpt lat="45.675802439796776" lon="11.333892702824333"><ele>449.80000000000007</ele><time>2026-04-10T12:41:17.999Z</time></trkpt><trkpt lat="45.675896072347484" lon="11.33401341772863"><ele>446.2</ele><time>2026-04-10T12:41:18.999Z</time></trkpt><trkpt lat="45.6759148651967" lon="11.334119009731145"><ele>442.6</ele><time>2026-04-10T12:41:19.999Z</time></trkpt><trkpt lat="45.67588291286398" lon="11.334231624933977"><ele>439.0</ele><time>2026-04-10T12:41:20.999Z</time></trkpt><trkpt lat="45.6758874590028" lon="11.334340487078917"><ele>439.0</ele><time>2026-04-10T12:41:21.999Z</time></trkpt><trkpt lat="45.675876732710215" lon="11.334477166398568"><ele>439.0</ele><time>2026-04-10T12:41:22.999Z</time></trkpt><trkpt lat="45.67591744038325" lon="11.334648351814616"><ele>439.0</ele><time>2026-04-10T12:41:23.999Z</time></trkpt><trkpt lat="45.675984533945964" lon="11.334794013178394"><ele>439.0</ele><time>2026-04-10T12:41:24.999Z</time></trkpt><trkpt lat="45.676056293666825" lon="11.33492344716627"><ele>438.0</ele><time>2026-04-10T12:41:25.999Z</time></trkpt><trkpt lat="45.67616072968768" lon="11.335004460667154"><ele>437.0</ele><time>2026-04-10T12:41:26.999Z</time></trkpt><trkpt lat="45.6762964342876" lon="11.33508044868882"><ele>436.0</ele><time>2026-04-10T12:41:27.999Z</time></trkpt><trkpt lat="45.67642964976543" lon="11.335143854505501"><ele>435.0</ele><time>2026-04-10T12:41:28.999Z</time></trkpt><trkpt lat="45.67651534943606" lon="11.33515558807678"><ele>435.0</ele><time>2026-04-10T12:41:29.999Z</time></trkpt><trkpt lat="45.676621414522344" lon="11.335126858072616"><ele>435.0</ele><time>2026-04-10T12:41:30.999Z</time></trkpt><trkpt lat="45.676711256608" lon="11.335006132324779"><ele>435.0</ele><time>2026-04-10T12:41:31.999Z</time></trkpt><trkpt lat="45.67677741654509" lon="11.334864040458871"><ele>435.0</ele><time>2026-04-10T12:41:32.999Z</time></trkpt><trkpt lat="45.67687247208914" lon="11.334721219946651"><ele>435.66666666666663</ele><time>2026-04-10T12:41:33.999Z</time></trkpt><trkpt lat="45.676980335630006" lon="11.334590026200077"><ele>436.3333333333333</ele><time>2026-04-10T12:41:34.999Z</time></trkpt><trkpt lat="45.677230621101295" lon="11.33437332843289"><ele>437.0</ele><time>2026-04-10T12:41:36.999Z</time></trkpt><trkpt lat="45.677322972364976" lon="11.33423780606979"><ele>437.0</ele><time>2026-04-10T12:41:37.999Z</time></trkpt><trkpt lat="45.67739371338926" lon="11.334088786567248"><ele>437.00000000000006</ele><time>2026-04-10T12:41:38.999Z</time></trkpt><trkpt lat="45.677447911958666" lon="11.333970310407036"><ele>437.00000000000006</ele><time>2026-04-10T12:41:39.999Z</time></trkpt><trkpt lat="45.67752027231274" lon="11.333903621413256"><ele>437.0</ele><time>2026-04-10T12:41:40.999Z</time></trkpt><trkpt lat="45.677588484800424" lon="11.333870904452908"><ele>437.0</ele><time>2026-04-10T12:41:41.999Z</time></trkpt><trkpt lat="45.67766531385492" lon="11.33386464086306"><ele>437.0</ele><time>2026-04-10T12:41:42.999Z</time></trkpt><trkpt lat="45.67773810392414" lon="11.333958783987924"><ele>437.0</ele><time>2026-04-10T12:41:43.999Z</time></trkpt><trkpt lat="45.677855736613004" lon="11.334038319677061"><ele>437.0</ele><time>2026-04-10T12:41:44.999Z</time></trkpt><trkpt lat="45.677966073928445" lon="11.334098570219904"><ele>437.0</ele><time>2026-04-10T12:41:45.999Z</time></trkpt><trkpt lat="45.67812723375093" lon="11.334180552355418"><ele>435.75</ele><time>2026-04-10T12:41:46.999Z</time></trkpt><trkpt lat="45.67822405612379" lon="11.334263446453514"><ele>434.5</ele><time>2026-04-10T12:41:47.999Z</time></trkpt><trkpt lat="45.67834872714146" lon="11.33432880172924"><ele>433.25</ele><time>2026-04-10T12:41:48.999Z</time></trkpt><trkpt lat="45.6784551256497" lon="11.334327401597497"><ele>432.0</ele><time>2026-04-10T12:41:49.999Z</time></trkpt><trkpt lat="45.67854779322674" lon="11.334222364527403"><ele>433.5</ele><time>2026-04-10T12:41:50.999Z</time></trkpt><trkpt lat="45.67863387134395" lon="11.334087261964532"><ele>435.0</ele><time>2026-04-10T12:41:51.999Z</time></trkpt><trkpt lat="45.67872977589162" lon="11.333941211356906"><ele>436.5</ele><time>2026-04-10T12:41:52.999Z</time></trkpt><trkpt lat="45.67886900880565" lon="11.333799177183439"><ele>438.0</ele><time>2026-04-10T12:41:53.999Z</time></trkpt><trkpt lat="45.678980860770764" lon="11.333711337308424"><ele>438.0</ele><time>2026-04-10T12:41:54.999Z</time></trkpt><trkpt lat="45.67910993111885" lon="11.333644370240185"><ele>438.0</ele><time>2026-04-10T12:41:55.999Z</time></trkpt><trkpt lat="45.67920620296681" lon="11.333513325157712"><ele>438.0</ele><time>2026-04-10T12:41:56.998Z</time></trkpt><trkpt lat="45.67929734364775" lon="11.333369930519623"><ele>438.0</ele><time>2026-04-10T12:41:57.998Z</time></trkpt><trkpt lat="45.67941040320834" lon="11.333258069764167"><ele>436.25</ele><time>2026-04-10T12:41:58.998Z</time></trkpt><trkpt lat="45.67950433709524" lon="11.333231432489033"><ele>434.5</ele><time>2026-04-10T12:41:59.998Z</time></trkpt><trkpt lat="45.67960542440059" lon="11.333272020576063"><ele>432.75</ele><time>2026-04-10T12:42:00.998Z</time></trkpt><trkpt lat="45.67973605192495" lon="11.333296669932121"><ele>431.0</ele><time>2026-04-10T12:42:01.998Z</time></trkpt><trkpt lat="45.6799150909618" lon="11.33331391765132"><ele>431.0</ele><time>2026-04-10T12:42:02.998Z</time></trkpt><trkpt lat="45.680063278506005" lon="11.333365660626416"><ele>431.0</ele><time>2026-04-10T12:42:03.998Z</time></trkpt><trkpt lat="45.68017197040933" lon="11.333375544327327"><ele>431.0</ele><time>2026-04-10T12:42:04.998Z</time></trkpt><trkpt lat="45.680288282242" lon="11.333332316658742"><ele>431.0</ele><time>2026-04-10T12:42:05.998Z</time></trkpt><trkpt lat="45.6803680296842" lon="11.333320219487675"><ele>430.6</ele><time>2026-04-10T12:42:06.998Z</time></trkpt><trkpt lat="45.68041753510683" lon="11.333403691617166"><ele>430.20000000000005</ele><time>2026-04-10T12:42:07.998Z</time></trkpt><trkpt lat="45.680419569271265" lon="11.333503520093583"><ele>429.79999999999995</ele><time>2026-04-10T12:42:08.998Z</time></trkpt><trkpt lat="45.68038590070477" lon="11.333628278716393"><ele>429.4</ele><time>2026-04-10T12:42:09.998Z</time></trkpt><trkpt lat="45.68047390234859" lon="11.333797384465335"><ele>429.0</ele><time>2026-04-10T12:42:10.998Z</time></trkpt><trkpt lat="45.680568305120836" lon="11.333933543695629"><ele>429.0</ele><time>2026-04-10T12:42:11.998Z</time></trkpt><trkpt lat="45.68067473366239" lon="11.334097772340252"><ele>429.0</ele><time>2026-04-10T12:42:12.998Z</time></trkpt><trkpt lat="45.68072975392267" lon="11.334243037826074"><ele>429.0</ele><time>2026-04-10T12:42:13.998Z</time></trkpt><trkpt lat="45.680749388020466" lon="11.334351273829046"><ele>429.0</ele><time>2026-04-10T12:42:15Z</time></trkpt><trkpt lat="45.68078040211879" lon="11.334471671646245"><ele>429.0</ele><time>2026-04-10T12:42:16Z</time></trkpt><trkpt lat="45.680835930988444" lon="11.334547287102856"><ele>429.0</ele><time>2026-04-10T12:42:17Z</time></trkpt><trkpt lat="45.68091574965845" lon="11.334616431175105"><ele>429.0</ele><time>2026-04-10T12:42:18Z</time></trkpt><trkpt lat="45.681018997824346" lon="11.334636279200312"><ele>429.0</ele><time>2026-04-10T12:42:19Z</time></trkpt><trkpt lat="45.68110125229584" lon="11.334702936495063"><ele>429.0</ele><time>2026-04-10T12:42:20Z</time></trkpt><trkpt lat="45.68116038416713" lon="11.334813892415012"><ele>429.0</ele><time>2026-04-10T12:42:21Z</time></trkpt><trkpt lat="45.681149191423316" lon="11.33494851239914"><ele>428.4</ele><time>2026-04-10T12:42:22Z</time></trkpt><trkpt lat="45.681178562292594" lon="11.335075433982349"><ele>427.79999999999995</ele><time>2026-04-10T12:42:23Z</time></trkpt><trkpt lat="45.68123648443551" lon="11.335195901660661"><ele>427.20000000000005</ele><time>2026-04-10T12:42:24Z</time></trkpt><trkpt lat="45.681304441503336" lon="11.33532588432923"><ele>426.6</ele><time>2026-04-10T12:42:25Z</time></trkpt><trkpt lat="45.681384424109005" lon="11.335471825101633"><ele>426.0</ele><time>2026-04-10T12:42:26Z</time></trkpt><trkpt lat="45.68146860876488" lon="11.335636799613559"><ele>423.5</ele><time>2026-04-10T12:42:27Z</time></trkpt><trkpt lat="45.68154651010117" lon="11.335798608784287"><ele>421.0</ele><time>2026-04-10T12:42:28Z</time></trkpt><trkpt lat="45.681597007029325" lon="11.335986038312523"><ele>418.5</ele><time>2026-04-10T12:42:29Z</time></trkpt><trkpt lat="45.68165920507963" lon="11.336175617440361"><ele>416.0</ele><time>2026-04-10T12:42:30Z</time></trkpt><trkpt lat="45.68173770375495" lon="11.33636322532171"><ele>415.6</ele><time>2026-04-10T12:42:31Z</time></trkpt><trkpt lat="45.681786545605114" lon="11.336539440118619"><ele>415.20000000000005</ele><time>2026-04-10T12:42:32Z</time></trkpt><trkpt lat="45.681828807366315" lon="11.336698306330463"><ele>414.79999999999995</ele><time>2026-04-10T12:42:33Z</time></trkpt><trkpt lat="45.68187354591972" lon="11.33683196252009"><ele>414.4</ele><time>2026-04-10T12:42:34Z</time></trkpt><trkpt lat="45.681936847756404" lon="11.336929864026438"><ele>414.0</ele><time>2026-04-10T12:42:35Z</time></trkpt><trkpt lat="45.68200350451821" lon="11.33698069819427"><ele>414.0</ele><time>2026-04-10T12:42:36Z</time></trkpt><trkpt lat="45.68211244771257" lon="11.337085460759411"><ele>414.0</ele><time>2026-04-10T12:42:37Z</time></trkpt><trkpt lat="45.68220347661045" lon="11.337172996956085"><ele>414.0</ele><time>2026-04-10T12:42:38Z</time></trkpt><trkpt lat="45.6822745879953" lon="11.337252966633834"><ele>414.0</ele><time>2026-04-10T12:42:39Z</time></trkpt><trkpt lat="45.682349426125825" lon="11.337325877170475"><ele>414.0</ele><time>2026-04-10T12:42:40Z</time></trkpt><trkpt lat="45.682426939448" lon="11.337354566737789"><ele>413.2</ele><time>2026-04-10T12:42:41Z</time></trkpt><trkpt lat="45.68248889162846" lon="11.337398757590607"><ele>412.4</ele><time>2026-04-10T12:42:42Z</time></trkpt><trkpt lat="45.6824699075478" lon="11.337584407521819"><ele>411.6</ele><time>2026-04-10T12:42:43Z</time></trkpt><trkpt lat="45.682499100356054" lon="11.337708599080178"><ele>410.8</ele><time>2026-04-10T12:42:44Z</time></trkpt><trkpt lat="45.68252447640113" lon="11.337850136124402"><ele>410.0</ele><time>2026-04-10T12:42:44.999Z</time></trkpt><trkpt lat="45.682553384646184" lon="11.337993020695464"><ele>409.2</ele><time>2026-04-10T12:42:45.999Z</time></trkpt><trkpt lat="45.68257535313464" lon="11.338132643931727"><ele>408.4</ele><time>2026-04-10T12:42:46.999Z</time></trkpt><trkpt lat="45.68260634144975" lon="11.33826918223323"><ele>407.6</ele><time>2026-04-10T12:42:47.999Z</time></trkpt><trkpt lat="45.68261673766805" lon="11.338414996942177"><ele>406.8</ele><time>2026-04-10T12:42:48.999Z</time></trkpt><trkpt lat="45.682641125856165" lon="11.338551588243112"><ele>406.0</ele><time>2026-04-10T12:42:49.999Z</time></trkpt><trkpt lat="45.682677737466506" lon="11.338690509500077"><ele>406.0</ele><time>2026-04-10T12:42:50.999Z</time></trkpt><trkpt lat="45.682709245046176" lon="11.338831348594463"><ele>406.0</ele><time>2026-04-10T12:42:51.999Z</time></trkpt><trkpt lat="45.6827396199455" lon="11.338972554175056"><ele>406.0</ele><time>2026-04-10T12:42:52.999Z</time></trkpt><trkpt lat="45.6827608018586" lon="11.33911043651845"><ele>406.0</ele><time>2026-04-10T12:42:53.999Z</time></trkpt><trkpt lat="45.682749353453545" lon="11.339245207677155"><ele>406.0</ele><time>2026-04-10T12:42:54.999Z</time></trkpt><trkpt lat="45.682739396140924" lon="11.339391418594198"><ele>406.0</ele><time>2026-04-10T12:42:55.999Z</time></trkpt><trkpt lat="45.68272939205456" lon="11.339538316503734"><ele>406.0</ele><time>2026-04-10T12:42:56.999Z</time></trkpt><trkpt lat="45.68271802182918" lon="11.33968714214618"><ele>406.0</ele><time>2026-04-10T12:42:57.999Z</time></trkpt><trkpt lat="45.6827070417967" lon="11.339836407890314"><ele>406.0</ele><time>2026-04-10T12:42:58.999Z</time></trkpt><trkpt lat="45.68268772483019" lon="11.339980394618907"><ele>406.0</ele><time>2026-04-10T12:42:59.999Z</time></trkpt><trkpt lat="45.682654251015926" lon="11.340124298774674"><ele>404.6</ele><time>2026-04-10T12:43:00.999Z</time></trkpt><trkpt lat="45.68260981753453" lon="11.340262016935167"><ele>403.20000000000005</ele><time>2026-04-10T12:43:01.999Z</time></trkpt><trkpt lat="45.68254846877621" lon="11.34039037633654"><ele>401.79999999999995</ele><time>2026-04-10T12:43:02.999Z</time></trkpt><trkpt lat="45.68247327503299" lon="11.340500687239317"><ele>400.4</ele><time>2026-04-10T12:43:03.999Z</time></trkpt><trkpt lat="45.68237828473568" lon="11.340594820183613"><ele>399.0</ele><time>2026-04-10T12:43:04.999Z</time></trkpt><trkpt lat="45.68225690024909" lon="11.340712470782092"><ele>392.6666666666667</ele><time>2026-04-10T12:43:05.999Z</time></trkpt><trkpt lat="45.682122279700316" lon="11.340842123550685"><ele>386.33333333333337</ele><time>2026-04-10T12:43:06.999Z</time></trkpt><trkpt lat="45.68198706793976" lon="11.340972906119656"><ele>380.0</ele><time>2026-04-10T12:43:07.999Z</time></trkpt><trkpt lat="45.68183770622201" lon="11.341121075066502"><ele>380.0</ele><time>2026-04-10T12:43:08.999Z</time></trkpt><trkpt lat="45.681682281865655" lon="11.341295164022146"><ele>380.0</ele><time>2026-04-10T12:43:09.999Z</time></trkpt><trkpt lat="45.68154118984694" lon="11.341511523594356"><ele>380.0</ele><time>2026-04-10T12:43:10.999Z</time></trkpt><trkpt lat="45.68140999723797" lon="11.341719342393494"><ele>375.33333333333337</ele><time>2026-04-10T12:43:11.999Z</time></trkpt><trkpt lat="45.68129167998531" lon="11.341955789446509"><ele>370.6666666666667</ele><time>2026-04-10T12:43:12.999Z</time></trkpt><trkpt lat="45.68118514416873" lon="11.342198037480461"><ele>366.0</ele><time>2026-04-10T12:43:13.999Z</time></trkpt><trkpt lat="45.68108038821803" lon="11.342440736478556"><ele>366.0</ele><time>2026-04-10T12:43:14.999Z</time></trkpt><trkpt lat="45.68097960098081" lon="11.342678658393112"><ele>366.0</ele><time>2026-04-10T12:43:15.999Z</time></trkpt><trkpt lat="45.6808834204012" lon="11.342909035903764"><ele>366.0</ele><time>2026-04-10T12:43:16.999Z</time></trkpt><trkpt lat="45.6807960645141" lon="11.343123795359492"><ele>365.0</ele><time>2026-04-10T12:43:17.999Z</time></trkpt><trkpt lat="45.68070811831666" lon="11.343326009123166"><ele>364.0</ele><time>2026-04-10T12:43:18.999Z</time></trkpt><trkpt lat="45.680615308810275" lon="11.343513220081713"><ele>363.0</ele><time>2026-04-10T12:43:19.999Z</time></trkpt><trkpt lat="45.680502284249755" lon="11.343663522454069"><ele>363.0</ele><time>2026-04-10T12:43:20.999Z</time></trkpt><trkpt lat="45.6804144141174" lon="11.343811875905534"><ele>363.0</ele><time>2026-04-10T12:43:21.999Z</time></trkpt><trkpt lat="45.68032748736859" lon="11.343937505585105"><ele>363.0</ele><time>2026-04-10T12:43:22.999Z</time></trkpt><trkpt lat="45.68027620695375" lon="11.344084841264351"><ele>363.0</ele><time>2026-04-10T12:43:23.999Z</time></trkpt><trkpt lat="45.680263623765924" lon="11.344259530413936"><ele>361.25</ele><time>2026-04-10T12:43:24.999Z</time></trkpt><trkpt lat="45.680340750670176" lon="11.34443141065932"><ele>359.5</ele><time>2026-04-10T12:43:25.999Z</time></trkpt><trkpt lat="45.68036766724607" lon="11.344612600439127"><ele>357.75</ele><time>2026-04-10T12:43:26.999Z</time></trkpt><trkpt lat="45.68037531681848" lon="11.34478035050265"><ele>356.0</ele><time>2026-04-10T12:43:27.999Z</time></trkpt><trkpt lat="45.68033813405489" lon="11.344934347451234"><ele>354.6666666666667</ele><time>2026-04-10T12:43:28.999Z</time></trkpt><trkpt lat="45.68030764025404" lon="11.345089480451701"><ele>353.33333333333337</ele><time>2026-04-10T12:43:29.999Z</time></trkpt><trkpt lat="45.68029497609464" lon="11.345214567644511"><ele>352.0</ele><time>2026-04-10T12:43:30.999Z</time></trkpt><trkpt lat="45.68028717327546" lon="11.345315377760432"><ele>350.6666666666667</ele><time>2026-04-10T12:43:31.999Z</time></trkpt><trkpt lat="45.68032131733229" lon="11.345391277340301"><ele>349.3333333333333</ele><time>2026-04-10T12:43:32.999Z</time></trkpt><trkpt lat="45.68039157022407" lon="11.345406572599481"><ele>348.0</ele><time>2026-04-10T12:43:33.999Z</time></trkpt><trkpt lat="45.680466453086474" lon="11.345327490581083"><ele>348.0</ele><time>2026-04-10T12:43:34.999Z</time></trkpt><trkpt lat="45.68052004926396" lon="11.345180283905671"><ele>348.0</ele><time>2026-04-10T12:43:35.999Z</time></trkpt><trkpt lat="45.680557237708776" lon="11.34500860448833"><ele>348.0</ele><time>2026-04-10T12:43:36.999Z</time></trkpt><trkpt lat="45.680601487328325" lon="11.344859478986347"><ele>348.0</ele><time>2026-04-10T12:43:37.999Z</time></trkpt><trkpt lat="45.680694542615484" lon="11.344767010493495"><ele>348.0</ele><time>2026-04-10T12:43:38.999Z</time></trkpt><trkpt lat="45.680810010645345" lon="11.344782090002377"><ele>348.0</ele><time>2026-04-10T12:43:39.999Z</time></trkpt><trkpt lat="45.68090927153685" lon="11.344864765777736"><ele>348.0</ele><time>2026-04-10T12:43:40.999Z</time></trkpt><trkpt lat="45.68100652483512" lon="11.344985456374971"><ele>348.0</ele><time>2026-04-10T12:43:41.999Z</time></trkpt><trkpt lat="45.681114783740654" lon="11.345156803051022"><ele>344.3333333333333</ele><time>2026-04-10T12:43:42.999Z</time></trkpt><trkpt lat="45.681224601163734" lon="11.345338597584464"><ele>340.66666666666663</ele><time>2026-04-10T12:43:43.999Z</time></trkpt><trkpt lat="45.68135064248019" lon="11.345549320687878"><ele>337.0</ele><time>2026-04-10T12:43:44.999Z</time></trkpt><trkpt lat="45.68147092537461" lon="11.345746958249425"><ele>336.3333333333333</ele><time>2026-04-10T12:43:45.999Z</time></trkpt><trkpt lat="45.681578405299916" lon="11.345919861406339"><ele>335.6666666666667</ele><time>2026-04-10T12:43:46.999Z</time></trkpt><trkpt lat="45.68167798166839" lon="11.346089381073101"><ele>335.0</ele><time>2026-04-10T12:43:47.999Z</time></trkpt><trkpt lat="45.681769364264966" lon="11.346251649121283"><ele>335.0</ele><time>2026-04-10T12:43:48.999Z</time></trkpt><trkpt lat="45.68185728123733" lon="11.34641343871366"><ele>335.0</ele><time>2026-04-10T12:43:49.999Z</time></trkpt><trkpt lat="45.681924146353246" lon="11.346581385929882"><ele>335.0</ele><time>2026-04-10T12:43:50.999Z</time></trkpt><trkpt lat="45.681980080226204" lon="11.346778583593224"><ele>335.0</ele><time>2026-04-10T12:43:51.999Z</time></trkpt><trkpt lat="45.682036285129" lon="11.346977905036292"><ele>328.0</ele><time>2026-04-10T12:43:52.999Z</time></trkpt><trkpt lat="45.68210253590058" lon="11.347174986963413"><ele>321.0</ele><time>2026-04-10T12:43:53.999Z</time></trkpt><trkpt lat="45.68215991403849" lon="11.347397303403152"><ele>314.0</ele><time>2026-04-10T12:43:54.999Z</time></trkpt><trkpt lat="45.6822218409334" lon="11.347624740078865"><ele>314.0</ele><time>2026-04-10T12:43:55.999Z</time></trkpt><trkpt lat="45.68229266048326" lon="11.347841421224517"><ele>314.0</ele><time>2026-04-10T12:43:56.999Z</time></trkpt><trkpt lat="45.682335071050865" lon="11.348070287528083"><ele>314.0</ele><time>2026-04-10T12:43:57.999Z</time></trkpt><trkpt lat="45.682378550985526" lon="11.348293685236536"><ele>311.33333333333337</ele><time>2026-04-10T12:43:58.999Z</time></trkpt><trkpt lat="45.682379893868635" lon="11.348514313936887"><ele>308.6666666666667</ele><time>2026-04-10T12:43:59.999Z</time></trkpt><trkpt lat="45.68235983596921" lon="11.348731182791484"><ele>306.0</ele><time>2026-04-10T12:44:00.999Z</time></trkpt><trkpt lat="45.68233857458745" lon="11.34894563024438"><ele>304.2</ele><time>2026-04-10T12:44:01.999Z</time></trkpt><trkpt lat="45.68233043757931" lon="11.349134534292213"><ele>302.40000000000003</ele><time>2026-04-10T12:44:02.999Z</time></trkpt><trkpt lat="45.682303368147025" lon="11.349294289442142"><ele>300.6</ele><time>2026-04-10T12:44:03.999Z</time></trkpt><trkpt lat="45.682277418317945" lon="11.349442389900467"><ele>298.8</ele><time>2026-04-10T12:44:04.999Z</time></trkpt><trkpt lat="45.682272617558134" lon="11.349577807600605"><ele>297.0</ele><time>2026-04-10T12:44:05.999Z</time></trkpt><trkpt lat="45.68228668375208" lon="11.349691771412765"><ele>295.2</ele><time>2026-04-10T12:44:06.999Z</time></trkpt><trkpt lat="45.68235802083626" lon="11.349763812248922"><ele>293.4</ele><time>2026-04-10T12:44:07.999Z</time></trkpt><trkpt lat="45.68244274325307" lon="11.349817687839801"><ele>291.6</ele><time>2026-04-10T12:44:08.999Z</time></trkpt><trkpt lat="45.682560011550926" lon="11.34980176611967"><ele>289.8</ele><time>2026-04-10T12:44:09.999Z</time></trkpt><trkpt lat="45.682668625050134" lon="11.34978761789178"><ele>288.0</ele><time>2026-04-10T12:44:10.999Z</time></trkpt><trkpt lat="45.68276626767692" lon="11.349820537508078"><ele>288.0</ele><time>2026-04-10T12:44:11.999Z</time></trkpt><trkpt lat="45.68284140580067" lon="11.349914645767115"><ele>288.0</ele><time>2026-04-10T12:44:12.999Z</time></trkpt><trkpt lat="45.68283089142257" lon="11.350071492999556"><ele>288.0</ele><time>2026-04-10T12:44:13.999Z</time></trkpt><trkpt lat="45.68278994115618" lon="11.350195854845543"><ele>288.0</ele><time>2026-04-10T12:44:14.999Z</time></trkpt><trkpt lat="45.68275781539775" lon="11.350369488221425"><ele>288.0</ele><time>2026-04-10T12:44:15.999Z</time></trkpt><trkpt lat="45.682733488767425" lon="11.3505645401135"><ele>284.3333333333333</ele><time>2026-04-10T12:44:16.999Z</time></trkpt><trkpt lat="45.68269088285745" lon="11.350787005943115"><ele>280.66666666666663</ele><time>2026-04-10T12:44:17.999Z</time></trkpt><trkpt lat="45.682642556468046" lon="11.351006051326738"><ele>277.0</ele><time>2026-04-10T12:44:18.998Z</time></trkpt><trkpt lat="45.68260384498369" lon="11.351236466547808"><ele>273.66666666666663</ele><time>2026-04-10T12:44:19.998Z</time></trkpt><trkpt lat="45.6825581546132" lon="11.351479998120674"><ele>270.3333333333333</ele><time>2026-04-10T12:44:21Z</time></trkpt><trkpt lat="45.682507645974454" lon="11.351734532408434"><ele>267.0</ele><time>2026-04-10T12:44:22Z</time></trkpt><trkpt lat="45.68245513346896" lon="11.351991206276344"><ele>266.0</ele><time>2026-04-10T12:44:23Z</time></trkpt><trkpt lat="45.68239585641597" lon="11.352244334189017"><ele>265.0</ele><time>2026-04-10T12:44:24Z</time></trkpt><trkpt lat="45.68231269413536" lon="11.352470443378683"><ele>264.0</ele><time>2026-04-10T12:44:25Z</time></trkpt><trkpt lat="45.682245715865236" lon="11.352700969053586"><ele>264.0</ele><time>2026-04-10T12:44:26Z</time></trkpt><trkpt lat="45.682193010746765" lon="11.352932979031158"><ele>264.0</ele><time>2026-04-10T12:44:27Z</time></trkpt><trkpt lat="45.68211193970281" lon="11.353144250177726"><ele>264.0</ele><time>2026-04-10T12:44:28Z</time></trkpt><trkpt lat="45.682037230321015" lon="11.353363567646111"><ele>263.6666666666667</ele><time>2026-04-10T12:44:29Z</time></trkpt><trkpt lat="45.681972794191395" lon="11.353591668730495"><ele>263.33333333333337</ele><time>2026-04-10T12:44:30Z</time></trkpt><trkpt lat="45.68188875505931" lon="11.353801604810329"><ele>263.0</ele><time>2026-04-10T12:44:31Z</time></trkpt><trkpt lat="45.6818071559906" lon="11.354009316755713"><ele>258.25</ele><time>2026-04-10T12:44:32Z</time></trkpt><trkpt lat="45.681740899732944" lon="11.354217357974818"><ele>253.5</ele><time>2026-04-10T12:44:33Z</time></trkpt><trkpt lat="45.68171463799624" lon="11.354382962814755"><ele>248.75</ele><time>2026-04-10T12:44:34Z</time></trkpt><trkpt lat="45.68172701978749" lon="11.354541611554126"><ele>244.0</ele><time>2026-04-10T12:44:35Z</time></trkpt><trkpt lat="45.68180619979328" lon="11.354702478927866"><ele>243.25</ele><time>2026-04-10T12:44:36Z</time></trkpt><trkpt lat="45.6818680068631" lon="11.354880887241565"><ele>242.5</ele><time>2026-04-10T12:44:37Z</time></trkpt><trkpt lat="45.68194682161922" lon="11.355041656307804"><ele>241.75</ele><time>2026-04-10T12:44:38Z</time></trkpt><trkpt lat="45.682050741585606" lon="11.355209078623728"><ele>241.0</ele><time>2026-04-10T12:44:39Z</time></trkpt><trkpt lat="45.682177341183454" lon="11.355352210936523"><ele>241.25</ele><time>2026-04-10T12:44:40Z</time></trkpt><trkpt lat="45.68231668732166" lon="11.355461420918624"><ele>241.5</ele><time>2026-04-10T12:44:41Z</time></trkpt><trkpt lat="45.68245685974916" lon="11.355498190213032"><ele>241.75</ele><time>2026-04-10T12:44:42Z</time></trkpt><trkpt lat="45.68258435601664" lon="11.355549840089209"><ele>242.0</ele><time>2026-04-10T12:44:43Z</time></trkpt><trkpt lat="45.68269603748711" lon="11.35557214786998"><ele>240.8</ele><time>2026-04-10T12:44:44Z</time></trkpt><trkpt lat="45.68278257936598" lon="11.355609511213714"><ele>239.6</ele><time>2026-04-10T12:44:45Z</time></trkpt><trkpt lat="45.682851519103515" lon="11.355677754219828"><ele>238.40000000000003</ele><time>2026-04-10T12:44:46Z</time></trkpt><trkpt lat="45.682887863073496" lon="11.355798795557797"><ele>237.20000000000002</ele><time>2026-04-10T12:44:47Z</time></trkpt><trkpt lat="45.682866387063626" lon="11.355916800157795"><ele>236.0</ele><time>2026-04-10T12:44:48Z</time></trkpt><trkpt lat="45.68288562408379" lon="11.35606975022383"><ele>236.0</ele><time>2026-04-10T12:44:49Z</time></trkpt><trkpt lat="45.68291005194058" lon="11.356249235151859"><ele>236.0</ele><time>2026-04-10T12:44:50Z</time></trkpt><trkpt lat="45.682937398641485" lon="11.356455362048418"><ele>236.0</ele><time>2026-04-10T12:44:51Z</time></trkpt><trkpt lat="45.68296770323537" lon="11.35668793980836"><ele>236.0</ele><time>2026-04-10T12:44:52Z</time></trkpt><trkpt lat="45.68301464512838" lon="11.356931060477917"><ele>235.0</ele><time>2026-04-10T12:44:53Z</time></trkpt><trkpt lat="45.68305288666147" lon="11.357170128612708"><ele>234.0</ele><time>2026-04-10T12:44:54Z</time></trkpt><trkpt lat="45.6830969697602" lon="11.357383017906379"><ele>233.0</ele><time>2026-04-10T12:44:55Z</time></trkpt><trkpt lat="45.683143062231146" lon="11.35757331630353"><ele>232.5</ele><time>2026-04-10T12:44:56Z</time></trkpt><trkpt lat="45.683191257249355" lon="11.357761171710802"><ele>232.0</ele><time>2026-04-10T12:44:57Z</time></trkpt><trkpt lat="45.68326330605385" lon="11.357932402113388"><ele>231.5</ele><time>2026-04-10T12:44:58Z</time></trkpt><trkpt lat="45.68334309144933" lon="11.358098432728916"><ele>231.0</ele><time>2026-04-10T12:44:59Z</time></trkpt><trkpt lat="45.68340588072454" lon="11.358265171224513"><ele>230.25</ele><time>2026-04-10T12:45:00Z</time></trkpt><trkpt lat="45.68340901075101" lon="11.358443314124115"><ele>229.5</ele><time>2026-04-10T12:45:01Z</time></trkpt><trkpt lat="45.683398736828075" lon="11.358624685053044"><ele>228.75</ele><time>2026-04-10T12:45:02Z</time></trkpt><trkpt lat="45.683370074955704" lon="11.35882066871372"><ele>228.0</ele><time>2026-04-10T12:45:03Z</time></trkpt><trkpt lat="45.68334906088068" lon="11.359037695137161"><ele>225.5</ele><time>2026-04-10T12:45:04Z</time></trkpt><trkpt lat="45.68333609245182" lon="11.35925169308898"><ele>223.0</ele><time>2026-04-10T12:45:05Z</time></trkpt><trkpt lat="45.68332874977852" lon="11.359466011977188"><ele>220.5</ele><time>2026-04-10T12:45:06Z</time></trkpt><trkpt lat="45.68332213118356" lon="11.35967660944715"><ele>218.0</ele><time>2026-04-10T12:45:07Z</time></trkpt><trkpt lat="45.68330553105014" lon="11.359886915634425"><ele>216.25</ele><time>2026-04-10T12:45:07.999Z</time></trkpt><trkpt lat="45.68327545173403" lon="11.36008575097177"><ele>214.5</ele><time>2026-04-10T12:45:08.999Z</time></trkpt><trkpt lat="45.683232581586964" lon="11.360285536198079"><ele>212.75</ele><time>2026-04-10T12:45:09.999Z</time></trkpt><trkpt lat="45.68321388670051" lon="11.360486707857026"><ele>211.0</ele><time>2026-04-10T12:45:10.999Z</time></trkpt><trkpt lat="45.68319580460362" lon="11.36068880988337"><ele>209.25</ele><time>2026-04-10T12:45:11.999Z</time></trkpt><trkpt lat="45.68319820509163" lon="11.36087888682717"><ele>207.5</ele><time>2026-04-10T12:45:12.999Z</time></trkpt><trkpt lat="45.683221405720005" lon="11.361062912378605"><ele>205.75</ele><time>2026-04-10T12:45:13.999Z</time></trkpt><trkpt lat="45.68327074943656" lon="11.361249981718547"><ele>204.0</ele><time>2026-04-10T12:45:14.999Z</time></trkpt><trkpt lat="45.68333462714591" lon="11.361421828980946"><ele>202.0</ele><time>2026-04-10T12:45:15.999Z</time></trkpt><trkpt lat="45.68341222737669" lon="11.36158088103512"><ele>200.0</ele><time>2026-04-10T12:45:16.999Z</time></trkpt><trkpt lat="45.68349615464179" lon="11.361725939118172"><ele>198.0</ele><time>2026-04-10T12:45:17.999Z</time></trkpt><trkpt lat="45.6835851768136" lon="11.361856924073292"><ele>196.0</ele><time>2026-04-10T12:45:18.999Z</time></trkpt><trkpt lat="45.68369174266277" lon="11.36197071008178"><ele>196.0</ele><time>2026-04-10T12:45:19.999Z</time></trkpt><trkpt lat="45.68381751133372" lon="11.36207121855566"><ele>196.0</ele><time>2026-04-10T12:45:20.999Z</time></trkpt><trkpt lat="45.68394992134493" lon="11.36216432462914"><ele>196.0</ele><time>2026-04-10T12:45:21.999Z</time></trkpt><trkpt lat="45.68407469870154" lon="11.362246722416852"><ele>196.0</ele><time>2026-04-10T12:45:22.999Z</time></trkpt><trkpt lat="45.684193557110596" lon="11.362328338532958"><ele>194.5</ele><time>2026-04-10T12:45:23.999Z</time></trkpt><trkpt lat="45.68430599635337" lon="11.362412010873873"><ele>193.0</ele><time>2026-04-10T12:45:24.999Z</time></trkpt><trkpt lat="45.684414033446856" lon="11.362500539592332"><ele>191.5</ele><time>2026-04-10T12:45:25.999Z</time></trkpt><trkpt lat="45.68448599214762" lon="11.362621450401264"><ele>190.0</ele><time>2026-04-10T12:45:26.999Z</time></trkpt><trkpt lat="45.684533087243764" lon="11.362769939099536"><ele>188.4</ele><time>2026-04-10T12:45:27.999Z</time></trkpt><trkpt lat="45.684555727773265" lon="11.362915157508892"><ele>186.8</ele><time>2026-04-10T12:45:28.999Z</time></trkpt><trkpt lat="45.68459219010385" lon="11.363067176060316"><ele>185.2</ele><time>2026-04-10T12:45:29.999Z</time></trkpt><trkpt lat="45.68465535225396" lon="11.363211556186338"><ele>183.6</ele><time>2026-04-10T12:45:30.999Z</time></trkpt><trkpt lat="45.68472125567865" lon="11.363276945519706"><ele>182.0</ele><time>2026-04-10T12:45:31.999Z</time></trkpt><trkpt lat="45.68478100210268" lon="11.363340448369714"><ele>182.0</ele><time>2026-04-10T12:45:32.999Z</time></trkpt><trkpt lat="45.68484703325354" lon="11.363383144419412"><ele>182.0</ele><time>2026-04-10T12:45:33.999Z</time></trkpt><trkpt lat="45.68485742687062" lon="11.363479618629638"><ele>182.0</ele><time>2026-04-10T12:45:36.999Z</time></trkpt><trkpt lat="45.684755705149485" lon="11.363452645949836"><ele>182.0</ele><time>2026-04-10T12:45:38.999Z</time></trkpt><trkpt lat="45.6847018584866" lon="11.363363707301696"><ele>182.0</ele><time>2026-04-10T12:45:39.999Z</time></trkpt><trkpt lat="45.68462475643624" lon="11.363317272983751"><ele>182.0</ele><time>2026-04-10T12:45:40.999Z</time></trkpt><trkpt lat="45.68454114648805" lon="11.363246289927575"><ele>182.0</ele><time>2026-04-10T12:45:41.999Z</time></trkpt><trkpt lat="45.68445089342219" lon="11.36318597378911"><ele>182.0</ele><time>2026-04-10T12:45:42.999Z</time></trkpt><trkpt lat="45.684356235935915" lon="11.363110913178332"><ele>182.0</ele><time>2026-04-10T12:45:43.999Z</time></trkpt><trkpt lat="45.68426084681401" lon="11.363024997409253"><ele>182.0</ele><time>2026-04-10T12:45:44.999Z</time></trkpt><trkpt lat="45.68417165386796" lon="11.362929480321045"><ele>182.0</ele><time>2026-04-10T12:45:45.999Z</time></trkpt><trkpt lat="45.68408240292647" lon="11.36281381893231"><ele>183.33333333333331</ele><time>2026-04-10T12:45:46.999Z</time></trkpt><trkpt lat="45.68400751770996" lon="11.362699534788499"><ele>184.66666666666666</ele><time>2026-04-10T12:45:47.999Z</time></trkpt><trkpt lat="45.68395429852857" lon="11.362598869148487"><ele>186.0</ele><time>2026-04-10T12:45:48.999Z</time></trkpt><trkpt lat="45.68390845010086" lon="11.362509116372022"><ele>187.33333333333334</ele><time>2026-04-10T12:45:49.999Z</time></trkpt><trkpt lat="45.683830071854445" lon="11.362401458542518"><ele>188.66666666666669</ele><time>2026-04-10T12:45:51.999Z</time></trkpt><trkpt lat="45.68376789943748" lon="11.36241698580419"><ele>190.0</ele><time>2026-04-10T12:45:52.999Z</time></trkpt><trkpt lat="45.68370583696819" lon="11.362473088209535"><ele>190.0</ele><time>2026-04-10T12:45:53.999Z</time></trkpt><trkpt lat="45.68363430538933" lon="11.362546687223025"><ele>190.0</ele><time>2026-04-10T12:45:54.999Z</time></trkpt><trkpt lat="45.68354123797351" lon="11.362504789522477"><ele>190.0</ele><time>2026-04-10T12:45:55.999Z</time></trkpt><trkpt lat="45.68346410734055" lon="11.362392803734432"><ele>190.0</ele><time>2026-04-10T12:45:56.999Z</time></trkpt><trkpt lat="45.683352782908436" lon="11.362356378980095"><ele>190.0</ele><time>2026-04-10T12:45:57.999Z</time></trkpt><trkpt lat="45.683236564754026" lon="11.362298240004577"><ele>189.75</ele><time>2026-04-10T12:45:58.999Z</time></trkpt><trkpt lat="45.683123625307395" lon="11.36221261311512"><ele>189.5</ele><time>2026-04-10T12:45:59.999Z</time></trkpt><trkpt lat="45.68302243007495" lon="11.362079705419218"><ele>189.25</ele><time>2026-04-10T12:46:00.999Z</time></trkpt><trkpt lat="45.68295869719084" lon="11.36189770513855"><ele>189.0</ele><time>2026-04-10T12:46:01.999Z</time></trkpt><trkpt lat="45.682891641347226" lon="11.361716596424674"><ele>190.5</ele><time>2026-04-10T12:46:02.999Z</time></trkpt><trkpt lat="45.682828204588894" lon="11.361543768203859"><ele>192.0</ele><time>2026-04-10T12:46:03.999Z</time></trkpt><trkpt lat="45.68279175786173" lon="11.361386836961472"><ele>193.5</ele><time>2026-04-10T12:46:04.999Z</time></trkpt><trkpt lat="45.68272881979482" lon="11.36126496891455"><ele>195.0</ele><time>2026-04-10T12:46:05.999Z</time></trkpt><trkpt lat="45.6826458203118" lon="11.361138129758027"><ele>195.5</ele><time>2026-04-10T12:46:06.999Z</time></trkpt><trkpt lat="45.682531679201766" lon="11.36103564504999"><ele>196.0</ele><time>2026-04-10T12:46:07.999Z</time></trkpt><trkpt lat="45.6823996310317" lon="11.360969203315497"><ele>196.5</ele><time>2026-04-10T12:46:08.999Z</time></trkpt><trkpt lat="45.68226765988804" lon="11.360901578645066"><ele>197.0</ele><time>2026-04-10T12:46:09.999Z</time></trkpt><trkpt lat="45.682162996630765" lon="11.36080431663733"><ele>197.0</ele><time>2026-04-10T12:46:10.999Z</time></trkpt><trkpt lat="45.68211564849229" lon="11.360653316231009"><ele>197.0</ele><time>2026-04-10T12:46:11.999Z</time></trkpt><trkpt lat="45.682066378787056" lon="11.360492465262105"><ele>197.0</ele><time>2026-04-10T12:46:12.999Z</time></trkpt><trkpt lat="45.68202702332396" lon="11.360337909601986"><ele>197.0</ele><time>2026-04-10T12:46:13.999Z</time></trkpt><trkpt lat="45.68196815219831" lon="11.360119206422313"><ele>198.0</ele><time>2026-04-10T12:46:14.999Z</time></trkpt><trkpt lat="45.681921281877834" lon="11.359909113596885"><ele>199.0</ele><time>2026-04-10T12:46:15.999Z</time></trkpt><trkpt lat="45.68186735824412" lon="11.3596946974916"><ele>200.0</ele><time>2026-04-10T12:46:16.999Z</time></trkpt><trkpt lat="45.681790601115544" lon="11.35948489506415"><ele>200.33333333333334</ele><time>2026-04-10T12:46:17.999Z</time></trkpt><trkpt lat="45.68170780872643" lon="11.35926493130173"><ele>200.66666666666669</ele><time>2026-04-10T12:46:18.999Z</time></trkpt><trkpt lat="45.681631834900536" lon="11.359035305270796"><ele>201.0</ele><time>2026-04-10T12:46:19.999Z</time></trkpt><trkpt lat="45.68156947576635" lon="11.358795922389158"><ele>202.25</ele><time>2026-04-10T12:46:20.999Z</time></trkpt><trkpt lat="45.68151481412705" lon="11.358591966975936"><ele>203.5</ele><time>2026-04-10T12:46:21.999Z</time></trkpt><trkpt lat="45.68144467656699" lon="11.358412333955437"><ele>204.75</ele><time>2026-04-10T12:46:22.999Z</time></trkpt><trkpt lat="45.681386698731245" lon="11.358269144520818"><ele>206.0</ele><time>2026-04-10T12:46:23.999Z</time></trkpt><trkpt lat="45.681345331851695" lon="11.358174141326701"><ele>206.0</ele><time>2026-04-10T12:46:24.999Z</time></trkpt><trkpt lat="45.68128469411454" lon="11.358118452534578"><ele>206.0</ele><time>2026-04-10T12:46:25.999Z</time></trkpt><trkpt lat="45.68118730594702" lon="11.358125964726016"><ele>206.0</ele><time>2026-04-10T12:46:27Z</time></trkpt><trkpt lat="45.68108085615469" lon="11.358194466756528"><ele>206.0</ele><time>2026-04-10T12:46:28Z</time></trkpt><trkpt lat="45.68094191582189" lon="11.358267772332585"><ele>206.0</ele><time>2026-04-10T12:46:29Z</time></trkpt><trkpt lat="45.680803578271906" lon="11.358357099149826"><ele>206.0</ele><time>2026-04-10T12:46:30Z</time></trkpt><trkpt lat="45.68064625711866" lon="11.358396786868282"><ele>206.0</ele><time>2026-04-10T12:46:31Z</time></trkpt><trkpt lat="45.680486605118126" lon="11.358419390008626"><ele>206.0</ele><time>2026-04-10T12:46:32Z</time></trkpt><trkpt lat="45.68033793619516" lon="11.358398309093937"><ele>207.33333333333334</ele><time>2026-04-10T12:46:33Z</time></trkpt><trkpt lat="45.6801870802614" lon="11.35837066740362"><ele>208.66666666666669</ele><time>2026-04-10T12:46:34Z</time></trkpt><trkpt lat="45.68001925506432" lon="11.358333161739758"><ele>210.0</ele><time>2026-04-10T12:46:35Z</time></trkpt><trkpt lat="45.67986067023219" lon="11.358316055276864"><ele>210.0</ele><time>2026-04-10T12:46:36Z</time></trkpt><trkpt lat="45.67972763061157" lon="11.358308025266435"><ele>210.0</ele><time>2026-04-10T12:46:37Z</time></trkpt><trkpt lat="45.67959997125473" lon="11.35835369854446"><ele>210.0</ele><time>2026-04-10T12:46:38Z</time></trkpt><trkpt lat="45.6794869536313" lon="11.358435289512608"><ele>210.0</ele><time>2026-04-10T12:46:39Z</time></trkpt><trkpt lat="45.67936550086246" lon="11.358524161060098"><ele>213.75</ele><time>2026-04-10T12:46:40Z</time></trkpt><trkpt lat="45.67928153642849" lon="11.358629828913363"><ele>217.5</ele><time>2026-04-10T12:46:41Z</time></trkpt><trkpt lat="45.67920846224322" lon="11.358746820006477"><ele>221.25</ele><time>2026-04-10T12:46:42Z</time></trkpt><trkpt lat="45.67917697962629" lon="11.358908783205207"><ele>225.0</ele><time>2026-04-10T12:46:43Z</time></trkpt><trkpt lat="45.67918233475084" lon="11.35907301704647"><ele>225.0</ele><time>2026-04-10T12:46:44Z</time></trkpt><trkpt lat="45.67921225670514" lon="11.359245158667655"><ele>225.0</ele><time>2026-04-10T12:46:45Z</time></trkpt><trkpt lat="45.67921470232387" lon="11.359478291550175"><ele>225.0</ele><time>2026-04-10T12:46:46Z</time></trkpt><trkpt lat="45.67918853999048" lon="11.359609308012013"><ele>225.0</ele><time>2026-04-10T12:46:48Z</time></trkpt><trkpt lat="45.67911458266294" lon="11.35959209952464"><ele>225.0</ele><time>2026-04-10T12:46:49Z</time></trkpt><trkpt lat="45.67903522751673" lon="11.359459774717896"><ele>225.0</ele><time>2026-04-10T12:46:51Z</time></trkpt><trkpt lat="45.678996890248875" lon="11.359347539336719"><ele>225.0</ele><time>2026-04-10T12:46:52Z</time></trkpt><trkpt lat="45.678924875039556" lon="11.359201732169247"><ele>225.0</ele><time>2026-04-10T12:46:53Z</time></trkpt><trkpt lat="45.678829914969796" lon="11.359077194239655"><ele>225.0</ele><time>2026-04-10T12:46:54Z</time></trkpt><trkpt lat="45.67872439820007" lon="11.358997102915131"><ele>225.0</ele><time>2026-04-10T12:46:55Z</time></trkpt><trkpt lat="45.67861339568889" lon="11.358967303113278"><ele>225.0</ele><time>2026-04-10T12:46:56Z</time></trkpt><trkpt lat="45.67848978039403" lon="11.358930136444632"><ele>225.0</ele><time>2026-04-10T12:46:58Z</time></trkpt><trkpt lat="45.67845283904293" lon="11.358822096685952"><ele>225.0</ele><time>2026-04-10T12:46:59Z</time></trkpt><trkpt lat="45.67840754499532" lon="11.35872291382127"><ele>228.2</ele><time>2026-04-10T12:47:00Z</time></trkpt><trkpt lat="45.67834311175205" lon="11.358618748353708"><ele>231.4</ele><time>2026-04-10T12:47:01Z</time></trkpt><trkpt lat="45.67829054027419" lon="11.358534550076087"><ele>234.60000000000002</ele><time>2026-04-10T12:47:02Z</time></trkpt><trkpt lat="45.67819118565571" lon="11.35840205044913"><ele>237.8</ele><time>2026-04-10T12:47:04Z</time></trkpt><trkpt lat="45.678118290833666" lon="11.358281294810071"><ele>241.0</ele><time>2026-04-10T12:47:06Z</time></trkpt><trkpt lat="45.67803189704496" lon="11.358182521035216"><ele>240.99999999999997</ele><time>2026-04-10T12:47:08Z</time></trkpt><trkpt lat="45.67797559631728" lon="11.358140665017405"><ele>241.0</ele><time>2026-04-10T12:47:09Z</time></trkpt><trkpt lat="45.67787588629058" lon="11.358080774056297"><ele>241.0</ele><time>2026-04-10T12:47:11Z</time></trkpt><trkpt lat="45.67781150608146" lon="11.358046509916965"><ele>241.0</ele><time>2026-04-10T12:47:12Z</time></trkpt><trkpt lat="45.677745063893916" lon="11.358019231371632"><ele>240.99999999999997</ele><time>2026-04-10T12:47:13Z</time></trkpt><trkpt lat="45.67767389982506" lon="11.35798916024039"><ele>241.0</ele><time>2026-04-10T12:47:14Z</time></trkpt><trkpt lat="45.67760992508143" lon="11.357961000160774"><ele>242.66666666666666</ele><time>2026-04-10T12:47:15Z</time></trkpt><trkpt lat="45.67754004873493" lon="11.357928992921872"><ele>244.33333333333331</ele><time>2026-04-10T12:47:16Z</time></trkpt><trkpt lat="45.677413089607356" lon="11.357876490285362"><ele>246.0</ele><time>2026-04-10T12:47:18Z</time></trkpt><trkpt lat="45.67734653288536" lon="11.357834543906801"><ele>247.66666666666669</ele><time>2026-04-10T12:47:19Z</time></trkpt><trkpt lat="45.67727931705214" lon="11.357791097022615"><ele>249.33333333333334</ele><time>2026-04-10T12:47:20Z</time></trkpt><trkpt lat="45.67721070762619" lon="11.357751560951778"><ele>251.0</ele><time>2026-04-10T12:47:21Z</time></trkpt><trkpt lat="45.67715210632851" lon="11.357704201923829"><ele>251.0</ele><time>2026-04-10T12:47:22Z</time></trkpt><trkpt lat="45.677109170619836" lon="11.357628819414852"><ele>251.0</ele><time>2026-04-10T12:47:23Z</time></trkpt><trkpt lat="45.67692006573789" lon="11.357703335724283"><ele>251.0</ele><time>2026-04-10T12:47:25Z</time></trkpt><trkpt lat="45.67680500207663" lon="11.357720194791066"><ele>251.0</ele><time>2026-04-10T12:47:26Z</time></trkpt><trkpt lat="45.67667860205653" lon="11.357727757723355"><ele>252.00000000000003</ele><time>2026-04-10T12:47:27Z</time></trkpt><trkpt lat="45.67657050108722" lon="11.35773361618618"><ele>253.0</ele><time>2026-04-10T12:47:28Z</time></trkpt><trkpt lat="45.6764772741526" lon="11.357675165908784"><ele>254.0</ele><time>2026-04-10T12:47:28.999Z</time></trkpt><trkpt lat="45.6764006978666" lon="11.357665118092369"><ele>255.0</ele><time>2026-04-10T12:47:29.999Z</time></trkpt><trkpt lat="45.67633439291791" lon="11.357640365789203"><ele>256.0</ele><time>2026-04-10T12:47:30.999Z</time></trkpt><trkpt lat="45.67627450794253" lon="11.357676875938907"><ele>257.0</ele><time>2026-04-10T12:47:31.999Z</time></trkpt><trkpt lat="45.67625633925916" lon="11.357882795581693"><ele>257.0</ele><time>2026-04-10T12:47:33.999Z</time></trkpt><trkpt lat="45.67628971393775" lon="11.358027447423765"><ele>257.0</ele><time>2026-04-10T12:47:34.999Z</time></trkpt><trkpt lat="45.67631869864936" lon="11.358200737578244"><ele>257.0</ele><time>2026-04-10T12:47:35.999Z</time></trkpt><trkpt lat="45.67633413628415" lon="11.358360014944568"><ele>257.0</ele><time>2026-04-10T12:47:36.999Z</time></trkpt><trkpt lat="45.676322625074114" lon="11.358476388651255"><ele>257.0</ele><time>2026-04-10T12:47:37.999Z</time></trkpt><trkpt lat="45.676257433227605" lon="11.35861700121794"><ele>256.0</ele><time>2026-04-10T12:47:39.999Z</time></trkpt><trkpt lat="45.67622153101272" lon="11.358708382977484"><ele>255.0</ele><time>2026-04-10T12:47:40.999Z</time></trkpt><trkpt lat="45.67618842287689" lon="11.358824176284523"><ele>254.0</ele><time>2026-04-10T12:47:41.999Z</time></trkpt><trkpt lat="45.67612363906247" lon="11.358912018943062"><ele>253.0</ele><time>2026-04-10T12:47:42.999Z</time></trkpt><trkpt lat="45.6760299406358" lon="11.358958503229516"><ele>252.0</ele><time>2026-04-10T12:47:43.999Z</time></trkpt><trkpt lat="45.67592226734128" lon="11.359023341804752"><ele>254.5</ele><time>2026-04-10T12:47:44.999Z</time></trkpt><trkpt lat="45.67581648559159" lon="11.359117547325965"><ele>257.0</ele><time>2026-04-10T12:47:45.999Z</time></trkpt><trkpt lat="45.67570749001135" lon="11.359217926369698"><ele>259.5</ele><time>2026-04-10T12:47:46.999Z</time></trkpt><trkpt lat="45.67560955772823" lon="11.359343233799446"><ele>262.0</ele><time>2026-04-10T12:47:47.999Z</time></trkpt><trkpt lat="45.67552511833671" lon="11.359443256812863"><ele>262.0</ele><time>2026-04-10T12:47:48.999Z</time></trkpt><trkpt lat="45.67547525314578" lon="11.359556083170304"><ele>262.0</ele><time>2026-04-10T12:47:49.999Z</time></trkpt><trkpt lat="45.675477452235256" lon="11.35968593259504"><ele>262.0</ele><time>2026-04-10T12:47:50.999Z</time></trkpt><trkpt lat="45.67553176489346" lon="11.359812598189595"><ele>262.0</ele><time>2026-04-10T12:47:51.999Z</time></trkpt><trkpt lat="45.67564285778102" lon="11.35991266345173"><ele>262.0</ele><time>2026-04-10T12:47:52.999Z</time></trkpt><trkpt lat="45.67571869931252" lon="11.360074644208156"><ele>261.5</ele><time>2026-04-10T12:47:53.999Z</time></trkpt><trkpt lat="45.67577901380873" lon="11.360266351684594"><ele>261.0</ele><time>2026-04-10T12:47:54.999Z</time></trkpt><trkpt lat="45.675824800320335" lon="11.360470801901474"><ele>260.5</ele><time>2026-04-10T12:47:55.999Z</time></trkpt><trkpt lat="45.6758798746415" lon="11.360672316950318"><ele>260.0</ele><time>2026-04-10T12:47:56.999Z</time></trkpt><trkpt lat="45.675977515353026" lon="11.36085432210687"><ele>254.33333333333334</ele><time>2026-04-10T12:47:57.999Z</time></trkpt><trkpt lat="45.67610639306214" lon="11.361026650206258"><ele>248.66666666666669</ele><time>2026-04-10T12:47:58.999Z</time></trkpt><trkpt lat="45.676268569204574" lon="11.361166065323637"><ele>243.0</ele><time>2026-04-10T12:47:59.999Z</time></trkpt><trkpt lat="45.67644222938624" lon="11.361296345457935"><ele>246.0</ele><time>2026-04-10T12:48:00.999Z</time></trkpt><trkpt lat="45.676607755508805" lon="11.361445628250314"><ele>249.0</ele><time>2026-04-10T12:48:01.999Z</time></trkpt><trkpt lat="45.67675704284078" lon="11.361617114701806"><ele>252.0</ele><time>2026-04-10T12:48:02.999Z</time></trkpt><trkpt lat="45.676893592235885" lon="11.361789440192606"><ele>245.66666666666669</ele><time>2026-04-10T12:48:03.999Z</time></trkpt><trkpt lat="45.677018995562996" lon="11.361958896875635"><ele>239.33333333333334</ele><time>2026-04-10T12:48:04.999Z</time></trkpt><trkpt lat="45.67712778637562" lon="11.362134625083106"><ele>233.0</ele><time>2026-04-10T12:48:05.999Z</time></trkpt><trkpt lat="45.67720176671493" lon="11.362335334749678"><ele>233.0</ele><time>2026-04-10T12:48:06.999Z</time></trkpt><trkpt lat="45.67728405315109" lon="11.362524710148325"><ele>233.0</ele><time>2026-04-10T12:48:07.999Z</time></trkpt><trkpt lat="45.67737998332132" lon="11.362694682709199"><ele>233.0</ele><time>2026-04-10T12:48:08.999Z</time></trkpt><trkpt lat="45.67749778448193" lon="11.362866847498887"><ele>233.0</ele><time>2026-04-10T12:48:09.999Z</time></trkpt><trkpt lat="45.67762882623902" lon="11.363028639541279"><ele>233.0</ele><time>2026-04-10T12:48:10.999Z</time></trkpt><trkpt lat="45.67775310036513" lon="11.363201807864689"><ele>233.0</ele><time>2026-04-10T12:48:11.999Z</time></trkpt><trkpt lat="45.67786615930434" lon="11.363378466125564"><ele>229.0</ele><time>2026-04-10T12:48:12.999Z</time></trkpt><trkpt lat="45.677944528074995" lon="11.363590749555483"><ele>225.0</ele><time>2026-04-10T12:48:13.999Z</time></trkpt><trkpt lat="45.6780306822095" lon="11.36379218567183"><ele>221.0</ele><time>2026-04-10T12:48:14.999Z</time></trkpt><trkpt lat="45.678131616570006" lon="11.363999555609771"><ele>221.0</ele><time>2026-04-10T12:48:15.999Z</time></trkpt><trkpt lat="45.67822779994613" lon="11.364221808945693"><ele>221.0</ele><time>2026-04-10T12:48:16.999Z</time></trkpt><trkpt lat="45.67832264458943" lon="11.364459030584342"><ele>221.0</ele><time>2026-04-10T12:48:17.999Z</time></trkpt><trkpt lat="45.67840176681164" lon="11.364720960127828"><ele>222.66666666666669</ele><time>2026-04-10T12:48:18.999Z</time></trkpt><trkpt lat="45.67850002462811" lon="11.364980055001213"><ele>224.33333333333331</ele><time>2026-04-10T12:48:19.999Z</time></trkpt><trkpt lat="45.67859923784779" lon="11.365224139651266"><ele>226.0</ele><time>2026-04-10T12:48:20.999Z</time></trkpt><trkpt lat="45.6786799614751" lon="11.365462315318398"><ele>218.0</ele><time>2026-04-10T12:48:21.999Z</time></trkpt><trkpt lat="45.67875151014082" lon="11.36570190790804"><ele>210.0</ele><time>2026-04-10T12:48:22.999Z</time></trkpt><trkpt lat="45.67884882534005" lon="11.36590714793735"><ele>202.0</ele><time>2026-04-10T12:48:23.999Z</time></trkpt><trkpt lat="45.678939573876505" lon="11.36610980592764"><ele>202.0</ele><time>2026-04-10T12:48:24.999Z</time></trkpt><trkpt lat="45.67903400954146" lon="11.366271610332644"><ele>202.0</ele><time>2026-04-10T12:48:25.999Z</time></trkpt><trkpt lat="45.67906338642667" lon="11.366456329512324"><ele>202.0</ele><time>2026-04-10T12:48:26.999Z</time></trkpt><trkpt lat="45.67909724861251" lon="11.366636509875256"><ele>202.0</ele><time>2026-04-10T12:48:27.999Z</time></trkpt><trkpt lat="45.679158972905675" lon="11.366786569393916"><ele>202.25</ele><time>2026-04-10T12:48:28.999Z</time></trkpt><trkpt lat="45.67922307913821" lon="11.366918145365155"><ele>202.5</ele><time>2026-04-10T12:48:29.999Z</time></trkpt><trkpt lat="45.67933506995228" lon="11.367013708697066"><ele>202.75</ele><time>2026-04-10T12:48:30.999Z</time></trkpt><trkpt lat="45.67946601576895" lon="11.36708241254586"><ele>203.0</ele><time>2026-04-10T12:48:31.999Z</time></trkpt><trkpt lat="45.6795946371163" lon="11.367171818130545"><ele>202.75</ele><time>2026-04-10T12:48:33Z</time></trkpt><trkpt lat="45.679690259923746" lon="11.367319924607006"><ele>202.5</ele><time>2026-04-10T12:48:34Z</time></trkpt><trkpt lat="45.67976758190784" lon="11.367467543673945"><ele>202.25</ele><time>2026-04-10T12:48:35Z</time></trkpt><trkpt lat="45.67982548133361" lon="11.367590788515399"><ele>202.0</ele><time>2026-04-10T12:48:36Z</time></trkpt><trkpt lat="45.679872077742615" lon="11.367703308831821"><ele>202.0</ele><time>2026-04-10T12:48:37Z</time></trkpt><trkpt lat="45.67991412340627" lon="11.367827694179896"><ele>202.0</ele><time>2026-04-10T12:48:38Z</time></trkpt><trkpt lat="45.67996035124587" lon="11.367984216068336"><ele>202.0</ele><time>2026-04-10T12:48:39Z</time></trkpt><trkpt lat="45.68000398280737" lon="11.368159534933378"><ele>202.0</ele><time>2026-04-10T12:48:40Z</time></trkpt><trkpt lat="45.680030191073875" lon="11.368349421576468"><ele>200.75</ele><time>2026-04-10T12:48:41Z</time></trkpt><trkpt lat="45.68000035560619" lon="11.368537918903353"><ele>199.5</ele><time>2026-04-10T12:48:42Z</time></trkpt><trkpt lat="45.680002717282875" lon="11.36872387165529"><ele>198.25</ele><time>2026-04-10T12:48:43Z</time></trkpt><trkpt lat="45.68003337756733" lon="11.36890107463077"><ele>197.0</ele><time>2026-04-10T12:48:44Z</time></trkpt><trkpt lat="45.68007169171587" lon="11.369091186724757"><ele>194.66666666666669</ele><time>2026-04-10T12:48:45Z</time></trkpt><trkpt lat="45.680140208906934" lon="11.369277110958281"><ele>192.33333333333334</ele><time>2026-04-10T12:48:46Z</time></trkpt><trkpt lat="45.680210591801035" lon="11.369472353953434"><ele>190.0</ele><time>2026-04-10T12:48:47Z</time></trkpt><trkpt lat="45.68027488381428" lon="11.369691944429391"><ele>188.0</ele><time>2026-04-10T12:48:48Z</time></trkpt><trkpt lat="45.68029535027436" lon="11.369930267677603"><ele>186.0</ele><time>2026-04-10T12:48:49Z</time></trkpt><trkpt lat="45.68034553039339" lon="11.370156554959067"><ele>184.0</ele><time>2026-04-10T12:48:50Z</time></trkpt><trkpt lat="45.68037394876061" lon="11.370369105795973"><ele>183.0</ele><time>2026-04-10T12:48:51Z</time></trkpt><trkpt lat="45.680407227391214" lon="11.370571301422693"><ele>182.0</ele><time>2026-04-10T12:48:52Z</time></trkpt><trkpt lat="45.68044749159384" lon="11.370755010644785"><ele>181.0</ele><time>2026-04-10T12:48:53Z</time></trkpt><trkpt lat="45.680517639084464" lon="11.370918954126813"><ele>180.0</ele><time>2026-04-10T12:48:54Z</time></trkpt><trkpt lat="45.68061933812482" lon="11.37104886898372"><ele>180.0</ele><time>2026-04-10T12:48:55Z</time></trkpt><trkpt lat="45.680739554592996" lon="11.37115643548687"><ele>180.0</ele><time>2026-04-10T12:48:56Z</time></trkpt><trkpt lat="45.680858694936525" lon="11.371263859590714"><ele>180.0</ele><time>2026-04-10T12:48:57Z</time></trkpt><trkpt lat="45.68096108459849" lon="11.371389484429008"><ele>180.0</ele><time>2026-04-10T12:48:58Z</time></trkpt><trkpt lat="45.68099562209598" lon="11.371569886807142"><ele>180.0</ele><time>2026-04-10T12:48:59Z</time></trkpt><trkpt lat="45.681029922576265" lon="11.371739766797074"><ele>180.0</ele><time>2026-04-10T12:49:00Z</time></trkpt><trkpt lat="45.68103869208761" lon="11.371911905236667"><ele>180.0</ele><time>2026-04-10T12:49:01Z</time></trkpt><trkpt lat="45.68101079447803" lon="11.372065847994023"><ele>180.0</ele><time>2026-04-10T12:49:02Z</time></trkpt><trkpt lat="45.68097274460263" lon="11.372212056255286"><ele>179.16666666666666</ele><time>2026-04-10T12:49:03Z</time></trkpt><trkpt lat="45.68091485922056" lon="11.372316572455135"><ele>178.33333333333334</ele><time>2026-04-10T12:49:04Z</time></trkpt><trkpt lat="45.680851390304525" lon="11.372393844621717"><ele>177.5</ele><time>2026-04-10T12:49:05Z</time></trkpt><trkpt lat="45.68077850687987" lon="11.37246430407387"><ele>176.66666666666669</ele><time>2026-04-10T12:49:06Z</time></trkpt><trkpt lat="45.6807077239518" lon="11.372499356186301"><ele>175.83333333333334</ele><time>2026-04-10T12:49:07Z</time></trkpt><trkpt lat="45.680649311376165" lon="11.372557013436573"><ele>175.0</ele><time>2026-04-10T12:49:08Z</time></trkpt><trkpt lat="45.68059355808101" lon="11.37261820189457"><ele>175.0</ele><time>2026-04-10T12:49:09Z</time></trkpt><trkpt lat="45.68058130594347" lon="11.372720430433507"><ele>175.0</ele><time>2026-04-10T12:49:10Z</time></trkpt><trkpt lat="45.680594025671596" lon="11.372824686989293"><ele>175.0</ele><time>2026-04-10T12:49:11Z</time></trkpt><trkpt lat="45.6806007972196" lon="11.372919726961074"><ele>175.0</ele><time>2026-04-10T12:49:12Z</time></trkpt><trkpt lat="45.68059890404415" lon="11.373043525047736"><ele>175.0</ele><time>2026-04-10T12:49:14Z</time></trkpt><trkpt lat="45.680491684113385" lon="11.372982024646662"><ele>175.0</ele><time>2026-04-10T12:49:17Z</time></trkpt><trkpt lat="45.680405338676934" lon="11.37291973383522"><ele>175.0</ele><time>2026-04-10T12:49:18Z</time></trkpt><trkpt lat="45.68032280244978" lon="11.372852032145115"><ele>175.0</ele><time>2026-04-10T12:49:19Z</time></trkpt><trkpt lat="45.68022413234864" lon="11.372792240258104"><ele>175.0</ele><time>2026-04-10T12:49:20Z</time></trkpt><trkpt lat="45.68012761305931" lon="11.372739161078355"><ele>175.0</ele><time>2026-04-10T12:49:21Z</time></trkpt><trkpt lat="45.68002574005097" lon="11.37268017166706"><ele>175.0</ele><time>2026-04-10T12:49:22Z</time></trkpt><trkpt lat="45.67991771120465" lon="11.372617812008416"><ele>175.0</ele><time>2026-04-10T12:49:23Z</time></trkpt><trkpt lat="45.679774689230356" lon="11.37254162873072"><ele>175.0</ele><time>2026-04-10T12:49:24Z</time></trkpt><trkpt lat="45.679607485448834" lon="11.372461268568182"><ele>175.0</ele><time>2026-04-10T12:49:25Z</time></trkpt><trkpt lat="45.679441083299324" lon="11.372374224422078"><ele>175.66666666666669</ele><time>2026-04-10T12:49:26Z</time></trkpt><trkpt lat="45.67928693353517" lon="11.37227717810122"><ele>176.33333333333334</ele><time>2026-04-10T12:49:27Z</time></trkpt><trkpt lat="45.67912756361829" lon="11.372200584586356"><ele>177.0</ele><time>2026-04-10T12:49:28Z</time></trkpt><trkpt lat="45.678972691604315" lon="11.372123978915642"><ele>177.0</ele><time>2026-04-10T12:49:29Z</time></trkpt><trkpt lat="45.67881239923933" lon="11.372077749514315"><ele>177.0</ele><time>2026-04-10T12:49:30Z</time></trkpt><trkpt lat="45.678651046441665" lon="11.372051781992042"><ele>177.0</ele><time>2026-04-10T12:49:31Z</time></trkpt><trkpt lat="45.67850186126229" lon="11.37203332552076"><ele>179.0</ele><time>2026-04-10T12:49:32Z</time></trkpt><trkpt lat="45.678346146603026" lon="11.371999149235538"><ele>181.0</ele><time>2026-04-10T12:49:33Z</time></trkpt><trkpt lat="45.67818242908072" lon="11.371965097100757"><ele>183.0</ele><time>2026-04-10T12:49:34Z</time></trkpt><trkpt lat="45.67801816101219" lon="11.371924143978799"><ele>183.0</ele><time>2026-04-10T12:49:35Z</time></trkpt><trkpt lat="45.67784951059791" lon="11.371883972636255"><ele>183.0</ele><time>2026-04-10T12:49:36Z</time></trkpt><trkpt lat="45.677675060834055" lon="11.37183870120921"><ele>183.0</ele><time>2026-04-10T12:49:37Z</time></trkpt><trkpt lat="45.677495627165406" lon="11.371788018217863"><ele>184.0</ele><time>2026-04-10T12:49:38Z</time></trkpt><trkpt lat="45.67733413517249" lon="11.371672678623678"><ele>185.0</ele><time>2026-04-10T12:49:39Z</time></trkpt><trkpt lat="45.677158257144136" lon="11.37158520611725"><ele>186.0</ele><time>2026-04-10T12:49:40Z</time></trkpt><trkpt lat="45.676995606271255" lon="11.371449670067303"><ele>188.0</ele><time>2026-04-10T12:49:41Z</time></trkpt><trkpt lat="45.67683084879949" lon="11.37132267165132"><ele>190.0</ele><time>2026-04-10T12:49:42Z</time></trkpt><trkpt lat="45.67666840005006" lon="11.371172928388933"><ele>192.0</ele><time>2026-04-10T12:49:43Z</time></trkpt><trkpt lat="45.676522070237766" lon="11.37098126792844"><ele>192.0</ele><time>2026-04-10T12:49:44Z</time></trkpt><trkpt lat="45.67639984862728" lon="11.370755177769507"><ele>192.0</ele><time>2026-04-10T12:49:45Z</time></trkpt><trkpt lat="45.67623796219237" lon="11.370597449790367"><ele>192.0</ele><time>2026-04-10T12:49:46Z</time></trkpt><trkpt lat="45.676045425099744" lon="11.370447734555407"><ele>200.0</ele><time>2026-04-10T12:49:47Z</time></trkpt><trkpt lat="45.67581108087662" lon="11.370333319617085"><ele>208.0</ele><time>2026-04-10T12:49:48Z</time></trkpt><trkpt lat="45.67559495199195" lon="11.370259263449173"><ele>208.0</ele><time>2026-04-10T12:49:49Z</time></trkpt><trkpt lat="45.67542764730061" lon="11.37021065082853"><ele>208.0</ele><time>2026-04-10T12:49:50Z</time></trkpt><trkpt lat="45.67529496145569" lon="11.370173087732729"><ele>208.0</ele><time>2026-04-10T12:49:51Z</time></trkpt><trkpt lat="45.675184897945314" lon="11.370145248811845"><ele>208.0</ele><time>2026-04-10T12:49:52Z</time></trkpt><trkpt lat="45.67509062810499" lon="11.370177654166149"><ele>207.75</ele><time>2026-04-10T12:49:53Z</time></trkpt><trkpt lat="45.675031001362335" lon="11.37031537672883"><ele>207.5</ele><time>2026-04-10T12:49:54Z</time></trkpt><trkpt lat="45.67500674444863" lon="11.37046241179839"><ele>207.25</ele><time>2026-04-10T12:49:55Z</time></trkpt><trkpt lat="45.67501926652151" lon="11.370633950232403"><ele>207.0</ele><time>2026-04-10T12:49:56Z</time></trkpt><trkpt lat="45.67507975789701" lon="11.370789719962959"><ele>207.0</ele><time>2026-04-10T12:49:56.999Z</time></trkpt><trkpt lat="45.67515558303321" lon="11.370845466169072"><ele>207.0</ele><time>2026-04-10T12:49:57.999Z</time></trkpt><trkpt lat="45.675266873639146" lon="11.37085735600105"><ele>207.0</ele><time>2026-04-10T12:49:58.999Z</time></trkpt><trkpt lat="45.675401431509826" lon="11.370936471692195"><ele>207.0</ele><time>2026-04-10T12:49:59.999Z</time></trkpt><trkpt lat="45.67550916603856" lon="11.371046133799616"><ele>201.66666666666666</ele><time>2026-04-10T12:50:00.999Z</time></trkpt><trkpt lat="45.67551865023651" lon="11.371304531917172"><ele>196.33333333333331</ele><time>2026-04-10T12:50:01.999Z</time></trkpt><trkpt lat="45.675500036474794" lon="11.37150216865149"><ele>191.0</ele><time>2026-04-10T12:50:02.999Z</time></trkpt><trkpt lat="45.67546969243883" lon="11.371729900383576"><ele>189.75</ele><time>2026-04-10T12:50:03.999Z</time></trkpt><trkpt lat="45.675427018315254" lon="11.371916782091917"><ele>188.5</ele><time>2026-04-10T12:50:04.999Z</time></trkpt><trkpt lat="45.67534953464676" lon="11.372079539757765"><ele>187.25</ele><time>2026-04-10T12:50:05.999Z</time></trkpt><trkpt lat="45.67523657773298" lon="11.372189844060358"><ele>186.0</ele><time>2026-04-10T12:50:06.999Z</time></trkpt><trkpt lat="45.67511863371773" lon="11.372300669802451"><ele>191.66666666666669</ele><time>2026-04-10T12:50:07.999Z</time></trkpt><trkpt lat="45.674981849848066" lon="11.372456820045299"><ele>197.33333333333334</ele><time>2026-04-10T12:50:08.999Z</time></trkpt><trkpt lat="45.674844014477706" lon="11.372579172621554"><ele>203.0</ele><time>2026-04-10T12:50:09.999Z</time></trkpt><trkpt lat="45.67471338098203" lon="11.372714777640688"><ele>203.0</ele><time>2026-04-10T12:50:10.999Z</time></trkpt><trkpt lat="45.674583991357515" lon="11.372857484845614"><ele>203.0</ele><time>2026-04-10T12:50:11.999Z</time></trkpt><trkpt lat="45.674472802660524" lon="11.373046999721225"><ele>203.0</ele><time>2026-04-10T12:50:12.999Z</time></trkpt><trkpt lat="45.67433583106287" lon="11.373247196161461"><ele>204.0</ele><time>2026-04-10T12:50:13.999Z</time></trkpt><trkpt lat="45.674211508175745" lon="11.373438455072241"><ele>205.0</ele><time>2026-04-10T12:50:14.999Z</time></trkpt><trkpt lat="45.674094765476504" lon="11.3736296799619"><ele>206.0</ele><time>2026-04-10T12:50:15.999Z</time></trkpt><trkpt lat="45.673961921703" lon="11.373855772675347"><ele>206.0</ele><time>2026-04-10T12:50:16.999Z</time></trkpt><trkpt lat="45.673852856723364" lon="11.374102145570482"><ele>206.0</ele><time>2026-04-10T12:50:17.999Z</time></trkpt><trkpt lat="45.673759342309594" lon="11.374311734406136"><ele>206.0</ele><time>2026-04-10T12:50:18.999Z</time></trkpt><trkpt lat="45.6736445190892" lon="11.374453405012515"><ele>208.20000000000002</ele><time>2026-04-10T12:50:19.999Z</time></trkpt><trkpt lat="45.67355757465675" lon="11.374536262158808"><ele>210.4</ele><time>2026-04-10T12:50:20.999Z</time></trkpt><trkpt lat="45.67344859696133" lon="11.374579100618107"><ele>212.6</ele><time>2026-04-10T12:50:21.999Z</time></trkpt><trkpt lat="45.6733576525304" lon="11.37459794413167"><ele>214.8</ele><time>2026-04-10T12:50:22.999Z</time></trkpt><trkpt lat="45.67327369200495" lon="11.374601175017135"><ele>217.0</ele><time>2026-04-10T12:50:23.999Z</time></trkpt><trkpt lat="45.67321427402337" lon="11.3745539256053"><ele>217.0</ele><time>2026-04-10T12:50:24.999Z</time></trkpt><trkpt lat="45.67315343248581" lon="11.374477528493701"><ele>217.0</ele><time>2026-04-10T12:50:25.999Z</time></trkpt><trkpt lat="45.673073680755316" lon="11.374358200547784"><ele>217.0</ele><time>2026-04-10T12:50:26.999Z</time></trkpt><trkpt lat="45.672953703378816" lon="11.37423094845879"><ele>217.0</ele><time>2026-04-10T12:50:27.999Z</time></trkpt><trkpt lat="45.67284176942559" lon="11.374076543748622"><ele>217.5</ele><time>2026-04-10T12:50:28.999Z</time></trkpt><trkpt lat="45.67274172193373" lon="11.373942148712612"><ele>218.0</ele><time>2026-04-10T12:50:29.999Z</time></trkpt><trkpt lat="45.67263130497952" lon="11.373796977051109"><ele>218.5</ele><time>2026-04-10T12:50:30.999Z</time></trkpt><trkpt lat="45.672517130925556" lon="11.373641070204096"><ele>219.0</ele><time>2026-04-10T12:50:31.999Z</time></trkpt><trkpt lat="45.67239891842542" lon="11.373470535750283"><ele>219.0</ele><time>2026-04-10T12:50:32.999Z</time></trkpt><trkpt lat="45.67227934049779" lon="11.373298498239144"><ele>219.0</ele><time>2026-04-10T12:50:33.999Z</time></trkpt><trkpt lat="45.67216121849444" lon="11.373113744250816"><ele>219.0</ele><time>2026-04-10T12:50:34.999Z</time></trkpt><trkpt lat="45.67206489974381" lon="11.372901054508397"><ele>217.33333333333331</ele><time>2026-04-10T12:50:35.999Z</time></trkpt><trkpt lat="45.671971819852914" lon="11.372712207951594"><ele>215.66666666666666</ele><time>2026-04-10T12:50:36.998Z</time></trkpt><trkpt lat="45.67190644372326" lon="11.372505093471027"><ele>214.0</ele><time>2026-04-10T12:50:37.998Z</time></trkpt><trkpt lat="45.67184644012375" lon="11.37228366089786"><ele>216.0</ele><time>2026-04-10T12:50:38.999Z</time></trkpt><trkpt lat="45.67179581337106" lon="11.372090350579795"><ele>218.0</ele><time>2026-04-10T12:50:39.999Z</time></trkpt><trkpt lat="45.67174689960741" lon="11.371945300921514"><ele>220.0</ele><time>2026-04-10T12:50:40.999Z</time></trkpt><trkpt lat="45.67166549415139" lon="11.371833874944494"><ele>222.0</ele><time>2026-04-10T12:50:41.999Z</time></trkpt><trkpt lat="45.67154236533209" lon="11.371775155438746"><ele>222.0</ele><time>2026-04-10T12:50:42.999Z</time></trkpt><trkpt lat="45.67142566966194" lon="11.37170148445384"><ele>222.0</ele><time>2026-04-10T12:50:43.999Z</time></trkpt><trkpt lat="45.67132365684092" lon="11.371626654994792"><ele>222.0</ele><time>2026-04-10T12:50:44.999Z</time></trkpt><trkpt lat="45.67123553866088" lon="11.371500091505872"><ele>222.0</ele><time>2026-04-10T12:50:45.999Z</time></trkpt><trkpt lat="45.671176962425584" lon="11.371305599905538"><ele>221.0</ele><time>2026-04-10T12:50:46.999Z</time></trkpt><trkpt lat="45.67111486849235" lon="11.371090642961382"><ele>220.0</ele><time>2026-04-10T12:50:47.999Z</time></trkpt><trkpt lat="45.671038578023285" lon="11.370901672901537"><ele>219.0</ele><time>2026-04-10T12:50:48.999Z</time></trkpt><trkpt lat="45.67102042698041" lon="11.370767766552946"><ele>218.0</ele><time>2026-04-10T12:50:49.999Z</time></trkpt><trkpt lat="45.67098711458114" lon="11.37063957284969"><ele>218.0</ele><time>2026-04-10T12:50:51.999Z</time></trkpt><trkpt lat="45.67096140279544" lon="11.370551045496933"><ele>218.0</ele><time>2026-04-10T12:50:53.999Z</time></trkpt><trkpt lat="45.67096324242775" lon="11.370393126051706"><ele>218.0</ele><time>2026-04-10T12:50:55.999Z</time></trkpt><trkpt lat="45.67093617000127" lon="11.370232819891942"><ele>218.0</ele><time>2026-04-10T12:50:57.999Z</time></trkpt><trkpt lat="45.67089866161" lon="11.370075494782995"><ele>218.0</ele><time>2026-04-10T12:50:59.999Z</time></trkpt><trkpt lat="45.67087166120503" lon="11.369940097966895"><ele>220.2</ele><time>2026-04-10T12:51:01.999Z</time></trkpt><trkpt lat="45.670856144689274" lon="11.369828039953168"><ele>222.4</ele><time>2026-04-10T12:51:21.999Z</time></trkpt><trkpt lat="45.67082812397414" lon="11.369726187755933"><ele>224.59999999999997</ele><time>2026-04-10T12:51:22.999Z</time></trkpt><trkpt lat="45.67079897118726" lon="11.369602855207438"><ele>226.79999999999998</ele><time>2026-04-10T12:51:23.999Z</time></trkpt><trkpt lat="45.67079124747226" lon="11.36946457117278"><ele>229.0</ele><time>2026-04-10T12:51:24.999Z</time></trkpt><trkpt lat="45.670807651439084" lon="11.369301273162685"><ele>230.0</ele><time>2026-04-10T12:51:25.999Z</time></trkpt><trkpt lat="45.670871340815175" lon="11.3691574376392"><ele>231.0</ele><time>2026-04-10T12:51:26.999Z</time></trkpt><trkpt lat="45.67094028597128" lon="11.369022124973773"><ele>232.0</ele><time>2026-04-10T12:51:27.999Z</time></trkpt><trkpt lat="45.67101388929091" lon="11.368898151351726"><ele>233.0</ele><time>2026-04-10T12:51:28.999Z</time></trkpt><trkpt lat="45.67109149562625" lon="11.368774847444767"><ele>236.60000000000002</ele><time>2026-04-10T12:51:29.999Z</time></trkpt><trkpt lat="45.67118764351471" lon="11.368663626339906"><ele>240.20000000000002</ele><time>2026-04-10T12:51:30.999Z</time></trkpt><trkpt lat="45.67128203064801" lon="11.368553257601029"><ele>243.8</ele><time>2026-04-10T12:51:31.999Z</time></trkpt><trkpt lat="45.67135686720634" lon="11.368462338439782"><ele>247.4</ele><time>2026-04-10T12:51:32.999Z</time></trkpt><trkpt lat="45.6714078000725" lon="11.368356510202641"><ele>251.0</ele><time>2026-04-10T12:51:33.999Z</time></trkpt><trkpt lat="45.67143700294416" lon="11.368230458788641"><ele>251.0</ele><time>2026-04-10T12:51:34.999Z</time></trkpt><trkpt lat="45.67146628341066" lon="11.368100958817822"><ele>251.00000000000003</ele><time>2026-04-10T12:51:35.999Z</time></trkpt><trkpt lat="45.67151111773402" lon="11.368032622181412"><ele>251.00000000000003</ele><time>2026-04-10T12:51:36.999Z</time></trkpt><trkpt lat="45.67164974475008" lon="11.368055521685827"><ele>251.0</ele><time>2026-04-10T12:51:38.999Z</time></trkpt><trkpt lat="45.671737388022684" lon="11.36808065016408"><ele>251.0</ele><time>2026-04-10T12:51:39.999Z</time></trkpt><trkpt lat="45.67183354497086" lon="11.368081412577405"><ele>251.0</ele><time>2026-04-10T12:51:40.999Z</time></trkpt><trkpt lat="45.67192949927568" lon="11.368073266411889"><ele>251.00000000000003</ele><time>2026-04-10T12:51:41.999Z</time></trkpt><trkpt lat="45.672026744117765" lon="11.368044698514762"><ele>251.00000000000003</ele><time>2026-04-10T12:51:42.999Z</time></trkpt><trkpt lat="45.67211320401447" lon="11.367993845457963"><ele>251.0</ele><time>2026-04-10T12:51:43.999Z</time></trkpt><trkpt lat="45.67217666428675" lon="11.367907671261763"><ele>251.0</ele><time>2026-04-10T12:51:44.999Z</time></trkpt><trkpt lat="45.67221727053448" lon="11.367764298103015"><ele>252.5</ele><time>2026-04-10T12:51:45.999Z</time></trkpt><trkpt lat="45.67223254042442" lon="11.367585629140311"><ele>254.0</ele><time>2026-04-10T12:51:46.999Z</time></trkpt><trkpt lat="45.67224963907893" lon="11.367401862405279"><ele>255.5</ele><time>2026-04-10T12:51:47.999Z</time></trkpt><trkpt lat="45.67229023813568" lon="11.367223741903185"><ele>257.0</ele><time>2026-04-10T12:51:48.999Z</time></trkpt><trkpt lat="45.67234467524799" lon="11.367054793223854"><ele>258.1666666666667</ele><time>2026-04-10T12:51:49.999Z</time></trkpt><trkpt lat="45.672418632072" lon="11.366962909031873"><ele>259.33333333333337</ele><time>2026-04-10T12:51:50.999Z</time></trkpt><trkpt lat="45.67252006069413" lon="11.36693746722041"><ele>260.5</ele><time>2026-04-10T12:51:51.999Z</time></trkpt><trkpt lat="45.672601879276826" lon="11.36685925602109"><ele>261.6666666666667</ele><time>2026-04-10T12:51:52.999Z</time></trkpt><trkpt lat="45.67266198521811" lon="11.366799914255212"><ele>262.8333333333333</ele><time>2026-04-10T12:51:53.999Z</time></trkpt><trkpt lat="45.67267216946126" lon="11.366704083663977"><ele>264.0</ele><time>2026-04-10T12:51:54.999Z</time></trkpt><trkpt lat="45.67255177559629" lon="11.366607967927608"><ele>264.0</ele><time>2026-04-10T12:51:56.999Z</time></trkpt><trkpt lat="45.67245417596217" lon="11.366600338306904"><ele>264.0</ele><time>2026-04-10T12:51:57.999Z</time></trkpt><trkpt lat="45.672359813468" lon="11.366546959211107"><ele>264.0</ele><time>2026-04-10T12:51:58.999Z</time></trkpt><trkpt lat="45.672277589910586" lon="11.366440681466772"><ele>264.0</ele><time>2026-04-10T12:51:59.999Z</time></trkpt><trkpt lat="45.67218062114393" lon="11.366317978651457"><ele>264.0</ele><time>2026-04-10T12:52:00.999Z</time></trkpt><trkpt lat="45.672079920992736" lon="11.366235106069283"><ele>265.5</ele><time>2026-04-10T12:52:01.999Z</time></trkpt><trkpt lat="45.67196160867411" lon="11.366184517845662"><ele>267.0</ele><time>2026-04-10T12:52:02.999Z</time></trkpt><trkpt lat="45.671832384420426" lon="11.366150771180045"><ele>268.5</ele><time>2026-04-10T12:52:03.999Z</time></trkpt><trkpt lat="45.67170174843848" lon="11.366094139043438"><ele>270.0</ele><time>2026-04-10T12:52:04.999Z</time></trkpt><trkpt lat="45.67156204319664" lon="11.366006049996779"><ele>271.3333333333333</ele><time>2026-04-10T12:52:05.999Z</time></trkpt><trkpt lat="45.6714192629389" lon="11.365896702517146"><ele>272.66666666666663</ele><time>2026-04-10T12:52:06.999Z</time></trkpt><trkpt lat="45.67127333773856" lon="11.36578966941369"><ele>274.0</ele><time>2026-04-10T12:52:07.999Z</time></trkpt><trkpt lat="45.671153574497744" lon="11.36571217294236"><ele>274.4</ele><time>2026-04-10T12:52:08.999Z</time></trkpt><trkpt lat="45.67109282972893" lon="11.365631064540079"><ele>274.79999999999995</ele><time>2026-04-10T12:52:09.999Z</time></trkpt><trkpt lat="45.671080185417445" lon="11.365463385652514"><ele>275.20000000000005</ele><time>2026-04-10T12:52:11.999Z</time></trkpt><trkpt lat="45.671153113709195" lon="11.365358728406896"><ele>275.6</ele><time>2026-04-10T12:52:12.999Z</time></trkpt><trkpt lat="45.67118469146624" lon="11.365186817285698"><ele>276.0</ele><time>2026-04-10T12:52:13.999Z</time></trkpt><trkpt lat="45.671178635033804" lon="11.364996333647586"><ele>277.5</ele><time>2026-04-10T12:52:14.999Z</time></trkpt><trkpt lat="45.67115421137151" lon="11.364796406734472"><ele>279.0</ele><time>2026-04-10T12:52:15.999Z</time></trkpt><trkpt lat="45.6711060429723" lon="11.364596736567487"><ele>280.5</ele><time>2026-04-10T12:52:16.999Z</time></trkpt><trkpt lat="45.67103403889693" lon="11.364414750594133"><ele>282.0</ele><time>2026-04-10T12:52:17.999Z</time></trkpt><trkpt lat="45.6709451055998" lon="11.364223245484208"><ele>284.5</ele><time>2026-04-10T12:52:18.999Z</time></trkpt><trkpt lat="45.67084968231066" lon="11.364052582479355"><ele>287.0</ele><time>2026-04-10T12:52:19.999Z</time></trkpt><trkpt lat="45.67075192803123" lon="11.363901679850526"><ele>289.5</ele><time>2026-04-10T12:52:20.999Z</time></trkpt><trkpt lat="45.67065074256461" lon="11.363790211091954"><ele>292.0</ele><time>2026-04-10T12:52:21.999Z</time></trkpt><trkpt lat="45.67053028819233" lon="11.36371659623661"><ele>294.5</ele><time>2026-04-10T12:52:22.999Z</time></trkpt><trkpt lat="45.67039040171619" lon="11.36372514372563"><ele>297.0</ele><time>2026-04-10T12:52:23.999Z</time></trkpt><trkpt lat="45.67023830640782" lon="11.363708744343697"><ele>299.5</ele><time>2026-04-10T12:52:24.999Z</time></trkpt><trkpt lat="45.67008426869574" lon="11.363706060752023"><ele>302.0</ele><time>2026-04-10T12:52:25.999Z</time></trkpt><trkpt lat="45.66993685818769" lon="11.363682899520498"><ele>302.1666666666667</ele><time>2026-04-10T12:52:26.999Z</time></trkpt><trkpt lat="45.669817906975396" lon="11.363662710540973"><ele>302.33333333333337</ele><time>2026-04-10T12:52:27.999Z</time></trkpt><trkpt lat="45.6697336455468" lon="11.36360615060927"><ele>302.5</ele><time>2026-04-10T12:52:28.999Z</time></trkpt><trkpt lat="45.66966646639508" lon="11.363537204671971"><ele>302.6666666666667</ele><time>2026-04-10T12:52:29.999Z</time></trkpt><trkpt lat="45.66963582771493" lon="11.363440057776025"><ele>302.8333333333333</ele><time>2026-04-10T12:52:30.999Z</time></trkpt><trkpt lat="45.66963317171143" lon="11.363341203526785"><ele>303.0</ele><time>2026-04-10T12:52:31.999Z</time></trkpt><trkpt lat="45.66965863774282" lon="11.36322815084151"><ele>303.0</ele><time>2026-04-10T12:52:32.999Z</time></trkpt><trkpt lat="45.6696959049251" lon="11.36312999631966"><ele>303.0</ele><time>2026-04-10T12:52:33.999Z</time></trkpt><trkpt lat="45.669740976024386" lon="11.363010253352304"><ele>303.0</ele><time>2026-04-10T12:52:34.999Z</time></trkpt><trkpt lat="45.6698455967159" lon="11.362927662430659"><ele>303.0</ele><time>2026-04-10T12:52:35.999Z</time></trkpt><trkpt lat="45.66992582313937" lon="11.362806409229792"><ele>303.0</ele><time>2026-04-10T12:52:36.999Z</time></trkpt><trkpt lat="45.670002636806" lon="11.362701159461492"><ele>305.2</ele><time>2026-04-10T12:52:37.999Z</time></trkpt><trkpt lat="45.67004524198689" lon="11.362602535859223"><ele>307.4</ele><time>2026-04-10T12:52:38.999Z</time></trkpt><trkpt lat="45.67005312486857" lon="11.362492590050136"><ele>309.59999999999997</ele><time>2026-04-10T12:52:39.999Z</time></trkpt><trkpt lat="45.67003579463305" lon="11.362351788977449"><ele>311.8</ele><time>2026-04-10T12:52:40.998Z</time></trkpt><trkpt lat="45.670020241946105" lon="11.362192752992692"><ele>314.0</ele><time>2026-04-10T12:52:41.998Z</time></trkpt><trkpt lat="45.67003420695336" lon="11.362024260058135"><ele>315.75</ele><time>2026-04-10T12:52:42.998Z</time></trkpt><trkpt lat="45.67005077262547" lon="11.361840746260834"><ele>317.5</ele><time>2026-04-10T12:52:44Z</time></trkpt><trkpt lat="45.67006225813621" lon="11.361619780671466"><ele>319.25</ele><time>2026-04-10T12:52:45Z</time></trkpt><trkpt lat="45.67007177976807" lon="11.361394750452508"><ele>321.0</ele><time>2026-04-10T12:52:46Z</time></trkpt><trkpt lat="45.67007516333483" lon="11.361196955265354"><ele>321.5</ele><time>2026-04-10T12:52:47Z</time></trkpt><trkpt lat="45.67006392298091" lon="11.361018673955082"><ele>322.0</ele><time>2026-04-10T12:52:48Z</time></trkpt><trkpt lat="45.67003494462547" lon="11.36083111362364"><ele>322.5</ele><time>2026-04-10T12:52:49Z</time></trkpt><trkpt lat="45.66999047932577" lon="11.360629411742451"><ele>323.0</ele><time>2026-04-10T12:52:50Z</time></trkpt><trkpt lat="45.66995786477389" lon="11.360411862708112"><ele>325.2</ele><time>2026-04-10T12:52:51Z</time></trkpt><trkpt lat="45.66994946596575" lon="11.360228095388765"><ele>327.4</ele><time>2026-04-10T12:52:52Z</time></trkpt><trkpt lat="45.66994465139515" lon="11.360069392564366"><ele>329.59999999999997</ele><time>2026-04-10T12:52:53Z</time></trkpt><trkpt lat="45.66992459496948" lon="11.359965535791174"><ele>331.79999999999995</ele><time>2026-04-10T12:52:54Z</time></trkpt><trkpt lat="45.669862080187606" lon="11.359890749049027"><ele>334.0</ele><time>2026-04-10T12:52:55Z</time></trkpt><trkpt lat="45.66975588739919" lon="11.359892540824523"><ele>334.0</ele><time>2026-04-10T12:52:56Z</time></trkpt><trkpt lat="45.66963270893323" lon="11.35985753812597"><ele>334.0</ele><time>2026-04-10T12:52:57Z</time></trkpt><trkpt lat="45.669498325931954" lon="11.359839044122502"><ele>334.0</ele><time>2026-04-10T12:52:58Z</time></trkpt><trkpt lat="45.669385142449755" lon="11.359753253880806"><ele>334.0</ele><time>2026-04-10T12:52:59Z</time></trkpt><trkpt lat="45.66929948491961" lon="11.35965060444526"><ele>334.25</ele><time>2026-04-10T12:53:00Z</time></trkpt><trkpt lat="45.669224109949404" lon="11.359510560753753"><ele>334.5</ele><time>2026-04-10T12:53:01Z</time></trkpt><trkpt lat="45.66913881336843" lon="11.35935756796615"><ele>334.75</ele><time>2026-04-10T12:53:02Z</time></trkpt><trkpt lat="45.66904392896009" lon="11.359210324128972"><ele>335.0</ele><time>2026-04-10T12:53:03Z</time></trkpt><trkpt lat="45.66897136880143" lon="11.359067707464062"><ele>335.0</ele><time>2026-04-10T12:53:04Z</time></trkpt><trkpt lat="45.66891636692004" lon="11.358945633803568"><ele>335.0</ele><time>2026-04-10T12:53:05Z</time></trkpt><trkpt lat="45.6688503219641" lon="11.358855742273885"><ele>335.0</ele><time>2026-04-10T12:53:06Z</time></trkpt><trkpt lat="45.668761965294" lon="11.358789617190004"><ele>335.0</ele><time>2026-04-10T12:53:06.999Z</time></trkpt><trkpt lat="45.66866321786373" lon="11.358756793923504"><ele>335.0</ele><time>2026-04-10T12:53:07.999Z</time></trkpt><trkpt lat="45.668562161907374" lon="11.358734286586603"><ele>335.5</ele><time>2026-04-10T12:53:08.999Z</time></trkpt><trkpt lat="45.6684802404279" lon="11.358694842692481"><ele>336.0</ele><time>2026-04-10T12:53:09.999Z</time></trkpt><trkpt lat="45.66841415124072" lon="11.35865091999417"><ele>336.5</ele><time>2026-04-10T12:53:10.999Z</time></trkpt><trkpt lat="45.668337039381875" lon="11.358587961329391"><ele>337.0</ele><time>2026-04-10T12:53:12.999Z</time></trkpt><trkpt lat="45.668368344061" lon="11.358470475292622"><ele>337.5</ele><time>2026-04-10T12:53:14.999Z</time></trkpt><trkpt lat="45.668442854794755" lon="11.358360702578977"><ele>338.0</ele><time>2026-04-10T12:53:16.999Z</time></trkpt><trkpt lat="45.66840145997842" lon="11.358170598608481"><ele>338.0</ele><time>2026-04-10T12:53:18.999Z</time></trkpt><trkpt lat="45.668358195552756" lon="11.358098169758383"><ele>338.0</ele><time>2026-04-10T12:53:19.999Z</time></trkpt><trkpt lat="45.66830512862972" lon="11.358005928267426"><ele>338.0</ele><time>2026-04-10T12:53:20.999Z</time></trkpt><trkpt lat="45.66825899418207" lon="11.357916116133552"><ele>338.0</ele><time>2026-04-10T12:53:21.999Z</time></trkpt><trkpt lat="45.66818451379971" lon="11.357802388212857"><ele>338.0</ele><time>2026-04-10T12:53:22.999Z</time></trkpt><trkpt lat="45.668091709735165" lon="11.357676135187708"><ele>343.25</ele><time>2026-04-10T12:53:23.999Z</time></trkpt><trkpt lat="45.667988260627396" lon="11.35755508774638"><ele>348.5</ele><time>2026-04-10T12:53:24.999Z</time></trkpt><trkpt lat="45.66789764797329" lon="11.357439459126303"><ele>353.75</ele><time>2026-04-10T12:53:25.999Z</time></trkpt><trkpt lat="45.66782033798842" lon="11.35730669832282"><ele>359.0</ele><time>2026-04-10T12:53:26.999Z</time></trkpt><trkpt lat="45.66778343497624" lon="11.357144499512577"><ele>357.5</ele><time>2026-04-10T12:53:27.999Z</time></trkpt><trkpt lat="45.667745059303115" lon="11.35699088292744"><ele>356.0</ele><time>2026-04-10T12:53:28.999Z</time></trkpt><trkpt lat="45.66771937384862" lon="11.356832961431122"><ele>354.5</ele><time>2026-04-10T12:53:29.999Z</time></trkpt><trkpt lat="45.66771200107772" lon="11.35665761907881"><ele>353.0</ele><time>2026-04-10T12:53:30.999Z</time></trkpt><trkpt lat="45.667705721228884" lon="11.356474884529247"><ele>355.5</ele><time>2026-04-10T12:53:31.999Z</time></trkpt><trkpt lat="45.66768680189755" lon="11.356287470819776"><ele>358.0</ele><time>2026-04-10T12:53:32.999Z</time></trkpt><trkpt lat="45.66766985316227" lon="11.356118445138613"><ele>360.5</ele><time>2026-04-10T12:53:33.999Z</time></trkpt><trkpt lat="45.6676209164715" lon="11.355954743871859"><ele>363.0</ele><time>2026-04-10T12:53:34.999Z</time></trkpt><trkpt lat="45.66755227669138" lon="11.355829157150456"><ele>363.0</ele><time>2026-04-10T12:53:35.999Z</time></trkpt><trkpt lat="45.66746473031119" lon="11.355755061184786"><ele>363.0</ele><time>2026-04-10T12:53:36.999Z</time></trkpt><trkpt lat="45.66734870178185" lon="11.355714083653764"><ele>363.0</ele><time>2026-04-10T12:53:37.999Z</time></trkpt><trkpt lat="45.66722583005489" lon="11.355682364404638"><ele>363.0</ele><time>2026-04-10T12:53:38.999Z</time></trkpt><trkpt lat="45.667106037756795" lon="11.35564569317479"><ele>363.0</ele><time>2026-04-10T12:53:39.999Z</time></trkpt><trkpt lat="45.66700514901718" lon="11.35556036121624"><ele>363.0</ele><time>2026-04-10T12:53:40.999Z</time></trkpt><trkpt lat="45.666901487645674" lon="11.35546692008239"><ele>363.0</ele><time>2026-04-10T12:53:41.999Z</time></trkpt><trkpt lat="45.66680971808302" lon="11.355374424290254"><ele>363.0</ele><time>2026-04-10T12:53:42.999Z</time></trkpt><trkpt lat="45.666716246078884" lon="11.355301233883543"><ele>364.4</ele><time>2026-04-10T12:53:43.999Z</time></trkpt><trkpt lat="45.66662137279907" lon="11.355298172112278"><ele>365.79999999999995</ele><time>2026-04-10T12:53:44.999Z</time></trkpt><trkpt lat="45.66653809018927" lon="11.35531922090092"><ele>367.2</ele><time>2026-04-10T12:53:45.999Z</time></trkpt><trkpt lat="45.66645902323013" lon="11.355393471098706"><ele>368.6</ele><time>2026-04-10T12:53:46.999Z</time></trkpt><trkpt lat="45.666384115132075" lon="11.355490783150387"><ele>370.0</ele><time>2026-04-10T12:53:47.999Z</time></trkpt><trkpt lat="45.66629877371006" lon="11.355489526858422"><ele>370.0</ele><time>2026-04-10T12:53:48.999Z</time></trkpt><trkpt lat="45.66618704592426" lon="11.355474959755067"><ele>370.0</ele><time>2026-04-10T12:53:49.999Z</time></trkpt><trkpt lat="45.66604500918639" lon="11.355481616418231"><ele>370.0</ele><time>2026-04-10T12:53:50.999Z</time></trkpt><trkpt lat="45.66590081495945" lon="11.35544283374872"><ele>370.0</ele><time>2026-04-10T12:53:51.999Z</time></trkpt><trkpt lat="45.665774294729204" lon="11.355429674092269"><ele>367.66666666666663</ele><time>2026-04-10T12:53:52.999Z</time></trkpt><trkpt lat="45.665593963189366" lon="11.355433361070196"><ele>365.3333333333333</ele><time>2026-04-10T12:53:53.999Z</time></trkpt><trkpt lat="45.66543252373661" lon="11.355428073356565"><ele>363.0</ele><time>2026-04-10T12:53:54.999Z</time></trkpt><trkpt lat="45.66530127517687" lon="11.355402912589831"><ele>363.0</ele><time>2026-04-10T12:53:55.999Z</time></trkpt><trkpt lat="45.66520547285983" lon="11.35534167881964"><ele>363.0</ele><time>2026-04-10T12:53:56.999Z</time></trkpt><trkpt lat="45.66509731666851" lon="11.355257484382873"><ele>363.0</ele><time>2026-04-10T12:53:57.999Z</time></trkpt><trkpt lat="45.66496919769649" lon="11.355183959766402"><ele>363.0</ele><time>2026-04-10T12:53:58.999Z</time></trkpt><trkpt lat="45.66487185303425" lon="11.35510881165041"><ele>363.0</ele><time>2026-04-10T12:53:59.999Z</time></trkpt><trkpt lat="45.66480231793767" lon="11.355028590662101"><ele>363.0</ele><time>2026-04-10T12:54:00.999Z</time></trkpt><trkpt lat="45.664799369820386" lon="11.354887707368778"><ele>363.0</ele><time>2026-04-10T12:54:01.999Z</time></trkpt><trkpt lat="45.66477635436574" lon="11.354760358218044"><ele>363.0</ele><time>2026-04-10T12:54:02.999Z</time></trkpt><trkpt lat="45.66478124400307" lon="11.354646712697313"><ele>363.0</ele><time>2026-04-10T12:54:03.999Z</time></trkpt><trkpt lat="45.664833741509845" lon="11.354544851071555"><ele>363.0</ele><time>2026-04-10T12:54:04.999Z</time></trkpt><trkpt lat="45.664848786424855" lon="11.354454317091578"><ele>365.2</ele><time>2026-04-10T12:54:05.999Z</time></trkpt><trkpt lat="45.66483844399976" lon="11.354360861236547"><ele>367.4</ele><time>2026-04-10T12:54:06.999Z</time></trkpt><trkpt lat="45.66475921335864" lon="11.35428624255043"><ele>369.59999999999997</ele><time>2026-04-10T12:54:07.999Z</time></trkpt><trkpt lat="45.664666506889404" lon="11.354301767755532"><ele>371.79999999999995</ele><time>2026-04-10T12:54:08.999Z</time></trkpt><trkpt lat="45.66458215871992" lon="11.354345636397628"><ele>374.0</ele><time>2026-04-10T12:54:09.999Z</time></trkpt><trkpt lat="45.664492190528165" lon="11.35443992089075"><ele>377.2</ele><time>2026-04-10T12:54:10.999Z</time></trkpt><trkpt lat="45.66440140589827" lon="11.354569344099696"><ele>380.4</ele><time>2026-04-10T12:54:11.999Z</time></trkpt><trkpt lat="45.66434984463696" lon="11.354699429152383"><ele>383.6</ele><time>2026-04-10T12:54:12.999Z</time></trkpt><trkpt lat="45.66433318211682" lon="11.354826386098491"><ele>386.8</ele><time>2026-04-10T12:54:13.999Z</time></trkpt><trkpt lat="45.664350032092905" lon="11.35496170009772"><ele>390.0</ele><time>2026-04-10T12:54:14.999Z</time></trkpt><trkpt lat="45.66440236066704" lon="11.355109410631215"><ele>390.25</ele><time>2026-04-10T12:54:15.999Z</time></trkpt><trkpt lat="45.66444399087134" lon="11.355259113967149"><ele>390.5</ele><time>2026-04-10T12:54:16.999Z</time></trkpt><trkpt lat="45.66442582133946" lon="11.355409646627477"><ele>390.75</ele><time>2026-04-10T12:54:17.999Z</time></trkpt><trkpt lat="45.66439950543466" lon="11.355575950648765"><ele>391.0</ele><time>2026-04-10T12:54:18.999Z</time></trkpt><trkpt lat="45.664399653219824" lon="11.355784749288702"><ele>391.25</ele><time>2026-04-10T12:54:19.999Z</time></trkpt><trkpt lat="45.66440429902013" lon="11.355985705663684"><ele>391.5</ele><time>2026-04-10T12:54:20.999Z</time></trkpt><trkpt lat="45.66444307704899" lon="11.356154093134878"><ele>391.75</ele><time>2026-04-10T12:54:21.999Z</time></trkpt><trkpt lat="45.66448570960904" lon="11.356302955640933"><ele>392.0</ele><time>2026-04-10T12:54:22.999Z</time></trkpt><trkpt lat="45.66446579335485" lon="11.35643869980133"><ele>389.75</ele><time>2026-04-10T12:54:23.999Z</time></trkpt><trkpt lat="45.664434553389" lon="11.356576556205585"><ele>387.5</ele><time>2026-04-10T12:54:24.999Z</time></trkpt><trkpt lat="45.66437977177833" lon="11.356735048359027"><ele>385.25</ele><time>2026-04-10T12:54:25.999Z</time></trkpt><trkpt lat="45.66429668856557" lon="11.356894017933953"><ele>383.0</ele><time>2026-04-10T12:54:26.999Z</time></trkpt><trkpt lat="45.6642043406394" lon="11.3570855428613"><ele>380.6666666666667</ele><time>2026-04-10T12:54:27.999Z</time></trkpt><trkpt lat="45.66410642482971" lon="11.357280678917071"><ele>378.3333333333333</ele><time>2026-04-10T12:54:28.999Z</time></trkpt><trkpt lat="45.66401376836189" lon="11.357467276463133"><ele>376.0</ele><time>2026-04-10T12:54:29.999Z</time></trkpt><trkpt lat="45.66392011610767" lon="11.357658504942581"><ele>376.0</ele><time>2026-04-10T12:54:30.999Z</time></trkpt><trkpt lat="45.66384287271894" lon="11.357818254589667"><ele>376.0</ele><time>2026-04-10T12:54:31.999Z</time></trkpt><trkpt lat="45.663775992415786" lon="11.357970291693757"><ele>376.0</ele><time>2026-04-10T12:54:32.999Z</time></trkpt><trkpt lat="45.66373516033245" lon="11.358109239616898"><ele>376.0</ele><time>2026-04-10T12:54:33.999Z</time></trkpt><trkpt lat="45.66370495985061" lon="11.358218527270482"><ele>376.0</ele><time>2026-04-10T12:54:34.999Z</time></trkpt><trkpt lat="45.66373259807265" lon="11.358363866542893"><ele>375.6</ele><time>2026-04-10T12:54:35.999Z</time></trkpt><trkpt lat="45.663744803967745" lon="11.358513537937347"><ele>375.20000000000005</ele><time>2026-04-10T12:54:36.999Z</time></trkpt><trkpt lat="45.66374375729862" lon="11.358676170916356"><ele>374.79999999999995</ele><time>2026-04-10T12:54:37.999Z</time></trkpt><trkpt lat="45.663761298199525" lon="11.358836164223662"><ele>374.4</ele><time>2026-04-10T12:54:38.999Z</time></trkpt><trkpt lat="45.66376966098972" lon="11.358980091699662"><ele>374.0</ele><time>2026-04-10T12:54:39.999Z</time></trkpt><trkpt lat="45.663754733010755" lon="11.35914270133152"><ele>373.4</ele><time>2026-04-10T12:54:40.999Z</time></trkpt><trkpt lat="45.66370445178106" lon="11.359299330131375"><ele>372.79999999999995</ele><time>2026-04-10T12:54:41.999Z</time></trkpt><trkpt lat="45.663657625097" lon="11.35943399819583"><ele>372.20000000000005</ele><time>2026-04-10T12:54:42.999Z</time></trkpt><trkpt lat="45.663598678339405" lon="11.359526621504582"><ele>371.6</ele><time>2026-04-10T12:54:43.999Z</time></trkpt><trkpt lat="45.66351641077032" lon="11.359583547503048"><ele>371.0</ele><time>2026-04-10T12:54:44.999Z</time></trkpt><trkpt lat="45.66341571473654" lon="11.359633922612948"><ele>371.25</ele><time>2026-04-10T12:54:45.999Z</time></trkpt><trkpt lat="45.663297453488035" lon="11.359706629145919"><ele>371.5</ele><time>2026-04-10T12:54:46.999Z</time></trkpt><trkpt lat="45.66316905699705" lon="11.359818285438813"><ele>371.75</ele><time>2026-04-10T12:54:47.999Z</time></trkpt><trkpt lat="45.663052448249424" lon="11.359929654744155"><ele>372.0</ele><time>2026-04-10T12:54:48.999Z</time></trkpt><trkpt lat="45.66292509112555" lon="11.360053313985295"><ele>372.0</ele><time>2026-04-10T12:54:50Z</time></trkpt><trkpt lat="45.66279530531639" lon="11.36017688562899"><ele>372.0</ele><time>2026-04-10T12:54:51Z</time></trkpt><trkpt lat="45.66266566169716" lon="11.360292629829189"><ele>372.0</ele><time>2026-04-10T12:54:52Z</time></trkpt><trkpt lat="45.66253826407499" lon="11.36040256573427"><ele>372.5</ele><time>2026-04-10T12:54:53Z</time></trkpt><trkpt lat="45.66241591902814" lon="11.360509063964775"><ele>373.0</ele><time>2026-04-10T12:54:54Z</time></trkpt><trkpt lat="45.662311613468624" lon="11.360601560325213"><ele>373.5</ele><time>2026-04-10T12:54:55Z</time></trkpt><trkpt lat="45.662228367551926" lon="11.360702497040155"><ele>374.0</ele><time>2026-04-10T12:54:56Z</time></trkpt><trkpt lat="45.66213870180466" lon="11.360751727028092"><ele>374.0</ele><time>2026-04-10T12:54:57Z</time></trkpt><trkpt lat="45.66206011713095" lon="11.360773976514624"><ele>374.0</ele><time>2026-04-10T12:54:58Z</time></trkpt><trkpt lat="45.66198837822268" lon="11.360776949018053"><ele>374.0</ele><time>2026-04-10T12:54:59Z</time></trkpt><trkpt lat="45.66192505204636" lon="11.360806453477663"><ele>374.0</ele><time>2026-04-10T12:55:00Z</time></trkpt><trkpt lat="45.6618239860237" lon="11.360753742798996"><ele>374.0</ele><time>2026-04-10T12:55:01Z</time></trkpt><trkpt lat="45.661710709483536" lon="11.360743775806426"><ele>374.0</ele><time>2026-04-10T12:55:02Z</time></trkpt><trkpt lat="45.66158215224264" lon="11.360732169484828"><ele>375.0</ele><time>2026-04-10T12:55:03Z</time></trkpt><trkpt lat="45.661445929020935" lon="11.360712880869976"><ele>376.0</ele><time>2026-04-10T12:55:04Z</time></trkpt><trkpt lat="45.661300832849236" lon="11.360673819900416"><ele>377.0</ele><time>2026-04-10T12:55:05Z</time></trkpt><trkpt lat="45.661171030201814" lon="11.360606629463287"><ele>378.0</ele><time>2026-04-10T12:55:06Z</time></trkpt><trkpt lat="45.66106207990493" lon="11.36055635501934"><ele>379.2</ele><time>2026-04-10T12:55:07Z</time></trkpt><trkpt lat="45.6609828707017" lon="11.360514775592339"><ele>380.4</ele><time>2026-04-10T12:55:08Z</time></trkpt><trkpt lat="45.66089621725837" lon="11.360399658788724"><ele>381.59999999999997</ele><time>2026-04-10T12:55:10Z</time></trkpt><trkpt lat="45.66090780451762" lon="11.360310572930464"><ele>382.79999999999995</ele><time>2026-04-10T12:55:11Z</time></trkpt><trkpt lat="45.66098593195317" lon="11.360240044889489"><ele>384.0</ele><time>2026-04-10T12:55:12Z</time></trkpt><trkpt lat="45.661061146688475" lon="11.360132524808828"><ele>384.5</ele><time>2026-04-10T12:55:13Z</time></trkpt><trkpt lat="45.66113887830112" lon="11.35999270560673"><ele>385.0</ele><time>2026-04-10T12:55:14Z</time></trkpt><trkpt lat="45.661199375189945" lon="11.359823320458748"><ele>385.5</ele><time>2026-04-10T12:55:15Z</time></trkpt><trkpt lat="45.66124323971772" lon="11.35966252710645"><ele>386.0</ele><time>2026-04-10T12:55:16Z</time></trkpt><trkpt lat="45.661261519601524" lon="11.359476388602907"><ele>388.0</ele><time>2026-04-10T12:55:17Z</time></trkpt><trkpt lat="45.66126701991078" lon="11.359276895615404"><ele>390.0</ele><time>2026-04-10T12:55:18Z</time></trkpt><trkpt lat="45.66128062283043" lon="11.359087243774695"><ele>392.0</ele><time>2026-04-10T12:55:19Z</time></trkpt><trkpt lat="45.66129089480566" lon="11.358907912588501"><ele>394.0</ele><time>2026-04-10T12:55:20Z</time></trkpt><trkpt lat="45.661281821387625" lon="11.35870519765506"><ele>394.75</ele><time>2026-04-10T12:55:21Z</time></trkpt><trkpt lat="45.661249845106575" lon="11.358502348530184"><ele>395.5</ele><time>2026-04-10T12:55:22Z</time></trkpt><trkpt lat="45.66121379734628" lon="11.358286315525106"><ele>396.25</ele><time>2026-04-10T12:55:23Z</time></trkpt><trkpt lat="45.66119339098572" lon="11.358086381477179"><ele>397.0</ele><time>2026-04-10T12:55:24Z</time></trkpt><trkpt lat="45.66117826908029" lon="11.3578964039126"><ele>397.33333333333337</ele><time>2026-04-10T12:55:25Z</time></trkpt><trkpt lat="45.661157627235326" lon="11.35770236714749"><ele>397.66666666666663</ele><time>2026-04-10T12:55:26Z</time></trkpt><trkpt lat="45.66108599817522" lon="11.357513610432843"><ele>398.0</ele><time>2026-04-10T12:55:27Z</time></trkpt><trkpt lat="45.66097160188234" lon="11.357335279254775"><ele>399.3333333333333</ele><time>2026-04-10T12:55:28Z</time></trkpt><trkpt lat="45.66084019732973" lon="11.357164637029287"><ele>400.66666666666663</ele><time>2026-04-10T12:55:29Z</time></trkpt><trkpt lat="45.66070336334356" lon="11.35698366652382"><ele>402.0</ele><time>2026-04-10T12:55:30Z</time></trkpt><trkpt lat="45.660576569296296" lon="11.356787915863853"><ele>402.0</ele><time>2026-04-10T12:55:31Z</time></trkpt><trkpt lat="45.66046772491301" lon="11.356586480699615"><ele>402.0</ele><time>2026-04-10T12:55:32Z</time></trkpt><trkpt lat="45.6603824013242" lon="11.356403444268896"><ele>402.0</ele><time>2026-04-10T12:55:33Z</time></trkpt><trkpt lat="45.660305284038145" lon="11.356249559972724"><ele>402.5</ele><time>2026-04-10T12:55:34Z</time></trkpt><trkpt lat="45.66028873281578" lon="11.356070139525283"><ele>403.0</ele><time>2026-04-10T12:55:35Z</time></trkpt><trkpt lat="45.66023987528318" lon="11.35589251574107"><ele>403.5</ele><time>2026-04-10T12:55:36Z</time></trkpt><trkpt lat="45.660183186346046" lon="11.355722044604915"><ele>404.0</ele><time>2026-04-10T12:55:37Z</time></trkpt><trkpt lat="45.66015429650922" lon="11.355561189214468"><ele>404.5</ele><time>2026-04-10T12:55:38Z</time></trkpt><trkpt lat="45.66014398246996" lon="11.35542757261568"><ele>405.0</ele><time>2026-04-10T12:55:39Z</time></trkpt><trkpt lat="45.66014072180974" lon="11.355292373032684"><ele>405.5</ele><time>2026-04-10T12:55:40Z</time></trkpt><trkpt lat="45.66024330056785" lon="11.355185225582888"><ele>406.0</ele><time>2026-04-10T12:55:41Z</time></trkpt><trkpt lat="45.660330152293376" lon="11.355021511243844"><ele>406.33333333333337</ele><time>2026-04-10T12:55:42Z</time></trkpt><trkpt lat="45.66040409255406" lon="11.354822315351077"><ele>406.66666666666663</ele><time>2026-04-10T12:55:43Z</time></trkpt><trkpt lat="45.66045832702336" lon="11.354609453645866"><ele>407.0</ele><time>2026-04-10T12:55:44Z</time></trkpt><trkpt lat="45.660447933427285" lon="11.354384863539519"><ele>407.3333333333333</ele><time>2026-04-10T12:55:45Z</time></trkpt><trkpt lat="45.66040928870148" lon="11.354178688199344"><ele>407.66666666666663</ele><time>2026-04-10T12:55:46Z</time></trkpt><trkpt lat="45.660366862863" lon="11.35396399819419"><ele>408.0</ele><time>2026-04-10T12:55:46.999Z</time></trkpt><trkpt lat="45.66033407170865" lon="11.35373999057934"><ele>410.0</ele><time>2026-04-10T12:55:47.999Z</time></trkpt><trkpt lat="45.66031705601036" lon="11.353511963980765"><ele>412.0</ele><time>2026-04-10T12:55:48.999Z</time></trkpt><trkpt lat="45.66031151396164" lon="11.353281948227295"><ele>414.0</ele><time>2026-04-10T12:55:49.999Z</time></trkpt><trkpt lat="45.66030999509342" lon="11.353051731133617"><ele>415.25</ele><time>2026-04-10T12:55:50.999Z</time></trkpt><trkpt lat="45.66028942983159" lon="11.352831725284668"><ele>416.5</ele><time>2026-04-10T12:55:51.999Z</time></trkpt><trkpt lat="45.6602376688279" lon="11.352631031969576"><ele>417.75</ele><time>2026-04-10T12:55:52.999Z</time></trkpt><trkpt lat="45.66019604404131" lon="11.35246193740271"><ele>419.0</ele><time>2026-04-10T12:55:53.999Z</time></trkpt><trkpt lat="45.66017636803643" lon="11.35230814855333"><ele>419.75</ele><time>2026-04-10T12:55:54.999Z</time></trkpt><trkpt lat="45.66019819749426" lon="11.352152174103626"><ele>420.5</ele><time>2026-04-10T12:55:55.999Z</time></trkpt><trkpt lat="45.66022583591061" lon="11.351985696266329"><ele>421.25</ele><time>2026-04-10T12:55:56.999Z</time></trkpt><trkpt lat="45.66024463592869" lon="11.35179907798501"><ele>422.0</ele><time>2026-04-10T12:55:57.999Z</time></trkpt><trkpt lat="45.660282162484954" lon="11.351612369256712"><ele>423.0</ele><time>2026-04-10T12:55:58.999Z</time></trkpt><trkpt lat="45.660324007305725" lon="11.351426649124898"><ele>424.0</ele><time>2026-04-10T12:55:59.999Z</time></trkpt><trkpt lat="45.66035910090439" lon="11.351263875713304"><ele>425.0</ele><time>2026-04-10T12:56:00.999Z</time></trkpt><trkpt lat="45.6603752645263" lon="11.351087814195811"><ele>426.0</ele><time>2026-04-10T12:56:01.999Z</time></trkpt><trkpt lat="45.66035957736494" lon="11.350901505715782"><ele>425.75</ele><time>2026-04-10T12:56:02.999Z</time></trkpt><trkpt lat="45.6603002862107" lon="11.350730144757877"><ele>425.5</ele><time>2026-04-10T12:56:03.999Z</time></trkpt><trkpt lat="45.66022378406604" lon="11.350559576942569"><ele>425.25</ele><time>2026-04-10T12:56:04.999Z</time></trkpt><trkpt lat="45.66013326658718" lon="11.350385166654654"><ele>425.0</ele><time>2026-04-10T12:56:05.999Z</time></trkpt><trkpt lat="45.66005080087165" lon="11.350203206043393"><ele>427.66666666666663</ele><time>2026-04-10T12:56:06.999Z</time></trkpt><trkpt lat="45.65995481412068" lon="11.350022308755035"><ele>430.33333333333337</ele><time>2026-04-10T12:56:07.999Z</time></trkpt><trkpt lat="45.6598503896399" lon="11.349849705694457"><ele>433.0</ele><time>2026-04-10T12:56:08.999Z</time></trkpt><trkpt lat="45.659735815063385" lon="11.34968955261159"><ele>435.6666666666667</ele><time>2026-04-10T12:56:09.999Z</time></trkpt><trkpt lat="45.65961345888291" lon="11.349536785713067"><ele>438.33333333333337</ele><time>2026-04-10T12:56:10.999Z</time></trkpt><trkpt lat="45.659493442472474" lon="11.349386140937177"><ele>441.0</ele><time>2026-04-10T12:56:11.999Z</time></trkpt><trkpt lat="45.65938442650216" lon="11.349231665560847"><ele>441.75</ele><time>2026-04-10T12:56:12.999Z</time></trkpt><trkpt lat="45.659310430767825" lon="11.349047346063598"><ele>442.5</ele><time>2026-04-10T12:56:13.999Z</time></trkpt><trkpt lat="45.659267194254156" lon="11.348868500036016"><ele>443.25</ele><time>2026-04-10T12:56:14.999Z</time></trkpt><trkpt lat="45.659305534079515" lon="11.348717463436577"><ele>444.0</ele><time>2026-04-10T12:56:15.999Z</time></trkpt><trkpt lat="45.6593274945015" lon="11.348553829309681"><ele>446.1666666666667</ele><time>2026-04-10T12:56:16.999Z</time></trkpt><trkpt lat="45.65935132543131" lon="11.348397247373756"><ele>448.33333333333337</ele><time>2026-04-10T12:56:17.999Z</time></trkpt><trkpt lat="45.65935536042714" lon="11.348288737728314"><ele>450.5</ele><time>2026-04-10T12:56:18.999Z</time></trkpt><trkpt lat="45.65933485425069" lon="11.3481959242194"><ele>452.6666666666667</ele><time>2026-04-10T12:56:19.999Z</time></trkpt><trkpt lat="45.659328015708454" lon="11.348077452966812"><ele>454.83333333333337</ele><time>2026-04-10T12:56:20.999Z</time></trkpt><trkpt lat="45.65935511781913" lon="11.347938956072666"><ele>457.0</ele><time>2026-04-10T12:56:21.999Z</time></trkpt><trkpt lat="45.65939503449201" lon="11.347796563769538"><ele>457.75</ele><time>2026-04-10T12:56:22.999Z</time></trkpt><trkpt lat="45.65944681482447" lon="11.347653415438897"><ele>458.5</ele><time>2026-04-10T12:56:23.999Z</time></trkpt><trkpt lat="45.65950201813746" lon="11.347485581778301"><ele>459.25</ele><time>2026-04-10T12:56:24.999Z</time></trkpt><trkpt lat="45.65954035054762" lon="11.347314232062539"><ele>460.0</ele><time>2026-04-10T12:56:25.999Z</time></trkpt><trkpt lat="45.65958953590551" lon="11.34716147720704"><ele>462.4</ele><time>2026-04-10T12:56:26.999Z</time></trkpt><trkpt lat="45.65962215927374" lon="11.347051702053133"><ele>464.8</ele><time>2026-04-10T12:56:27.999Z</time></trkpt><trkpt lat="45.65966312761084" lon="11.346972409358473"><ele>467.20000000000005</ele><time>2026-04-10T12:56:28.999Z</time></trkpt><trkpt lat="45.65972687423821" lon="11.346869624680378"><ele>469.6</ele><time>2026-04-10T12:56:30.999Z</time></trkpt><trkpt lat="45.659849305671685" lon="11.346918052860511"><ele>472.0</ele><time>2026-04-10T12:56:32.999Z</time></trkpt><trkpt lat="45.65994413318343" lon="11.346922029439396"><ele>472.0</ele><time>2026-04-10T12:56:33.999Z</time></trkpt><trkpt lat="45.66004818410301" lon="11.346882583461179"><ele>472.00000000000006</ele><time>2026-04-10T12:56:34.999Z</time></trkpt><trkpt lat="45.66012380538075" lon="11.346829831118825"><ele>472.00000000000006</ele><time>2026-04-10T12:56:35.999Z</time></trkpt><trkpt lat="45.66018507178194" lon="11.346727382052986"><ele>472.0</ele><time>2026-04-10T12:56:36.999Z</time></trkpt><trkpt lat="45.66021558018481" lon="11.346591279333575"><ele>472.0</ele><time>2026-04-10T12:56:37.999Z</time></trkpt><trkpt lat="45.66022908214799" lon="11.346442543199988"><ele>473.6</ele><time>2026-04-10T12:56:38.999Z</time></trkpt><trkpt lat="45.66018200095221" lon="11.346240521446312"><ele>475.20000000000005</ele><time>2026-04-10T12:56:39.999Z</time></trkpt><trkpt lat="45.66020391256828" lon="11.346103120250604"><ele>476.8</ele><time>2026-04-10T12:56:41.999Z</time></trkpt><trkpt lat="45.6602985594952" lon="11.34605853484497"><ele>478.4</ele><time>2026-04-10T12:56:43.999Z</time></trkpt><trkpt lat="45.660362956483375" lon="11.346076215864635"><ele>480.0</ele><time>2026-04-10T12:56:44.999Z</time></trkpt><trkpt lat="45.66046391266007" lon="11.346023238697445"><ele>480.0</ele><time>2026-04-10T12:56:45.999Z</time></trkpt><trkpt lat="45.660574628740484" lon="11.346023779077317"><ele>480.0</ele><time>2026-04-10T12:56:46.999Z</time></trkpt><trkpt lat="45.660686542397016" lon="11.346035371258937"><ele>480.0</ele><time>2026-04-10T12:56:47.999Z</time></trkpt><trkpt lat="45.660764106415876" lon="11.34602502941909"><ele>480.0</ele><time>2026-04-10T12:56:48.999Z</time></trkpt><trkpt lat="45.66082424634012" lon="11.345979760318285"><ele>480.0</ele><time>2026-04-10T12:56:49.999Z</time></trkpt><trkpt lat="45.66085455446844" lon="11.345842097314886"><ele>480.0</ele><time>2026-04-10T12:56:51.999Z</time></trkpt><trkpt lat="45.66067052807857" lon="11.345716458782032"><ele>480.0</ele><time>2026-04-10T12:56:54.999Z</time></trkpt><trkpt lat="45.660618437649696" lon="11.345629460492935"><ele>480.0</ele><time>2026-04-10T12:56:56Z</time></trkpt><trkpt lat="45.66057743964723" lon="11.34553086854271"><ele>480.0</ele><time>2026-04-10T12:56:57Z</time></trkpt><trkpt lat="45.660514626048844" lon="11.345452026520315"><ele>480.0</ele><time>2026-04-10T12:56:58Z</time></trkpt><trkpt lat="45.66045165979988" lon="11.345372045162996"><ele>483.0</ele><time>2026-04-10T12:56:59Z</time></trkpt><trkpt lat="45.66038126157554" lon="11.345294107906431"><ele>486.0</ele><time>2026-04-10T12:57:00Z</time></trkpt><trkpt lat="45.660230142044874" lon="11.345112953925259"><ele>489.0</ele><time>2026-04-10T12:57:02Z</time></trkpt><trkpt lat="45.66013443232214" lon="11.344999656958802"><ele>492.0</ele><time>2026-04-10T12:57:03Z</time></trkpt><trkpt lat="45.660041971234854" lon="11.344894113334457"><ele>492.40000000000003</ele><time>2026-04-10T12:57:04Z</time></trkpt><trkpt lat="45.65994445958477" lon="11.344786784540442"><ele>492.80000000000007</ele><time>2026-04-10T12:57:05Z</time></trkpt><trkpt lat="45.65985544881954" lon="11.3447020520102"><ele>493.2</ele><time>2026-04-10T12:57:06Z</time></trkpt><trkpt lat="45.659772932775596" lon="11.344662237701838"><ele>493.6</ele><time>2026-04-10T12:57:07Z</time></trkpt><trkpt lat="45.65968458555363" lon="11.344680241044701"><ele>494.0</ele><time>2026-04-10T12:57:08Z</time></trkpt><trkpt lat="45.6595888323051" lon="11.344727177803291"><ele>494.0</ele><time>2026-04-10T12:57:09Z</time></trkpt><trkpt lat="45.659495398597706" lon="11.344780702732328"><ele>494.0</ele><time>2026-04-10T12:57:10Z</time></trkpt><trkpt lat="45.659419969463734" lon="11.344771407919007"><ele>494.0</ele><time>2026-04-10T12:57:11Z</time></trkpt><trkpt lat="45.65932008928886" lon="11.3446538107575"><ele>494.0</ele><time>2026-04-10T12:57:13Z</time></trkpt><trkpt lat="45.65925645171415" lon="11.34456448313717"><ele>494.0</ele><time>2026-04-10T12:57:14Z</time></trkpt><trkpt lat="45.659178562373086" lon="11.344515834436258"><ele>495.79999999999995</ele><time>2026-04-10T12:57:15Z</time></trkpt><trkpt lat="45.65910168489382" lon="11.344490890707148"><ele>497.59999999999997</ele><time>2026-04-10T12:57:16Z</time></trkpt><trkpt lat="45.65902419436386" lon="11.344526625211786"><ele>499.4</ele><time>2026-04-10T12:57:17Z</time></trkpt><trkpt lat="45.658941505776916" lon="11.344586027431545"><ele>501.2</ele><time>2026-04-10T12:57:18Z</time></trkpt><trkpt lat="45.65886473159082" lon="11.344671985942975"><ele>503.0</ele><time>2026-04-10T12:57:19Z</time></trkpt><trkpt lat="45.65880116518767" lon="11.344794497093773"><ele>502.99999999999994</ele><time>2026-04-10T12:57:20Z</time></trkpt><trkpt lat="45.65876149100232" lon="11.344924008395678"><ele>503.0</ele><time>2026-04-10T12:57:21Z</time></trkpt><trkpt lat="45.65874789083374" lon="11.345052376392632"><ele>503.0</ele><time>2026-04-10T12:57:22Z</time></trkpt><trkpt lat="45.65872140508996" lon="11.345186869017141"><ele>503.0</ele><time>2026-04-10T12:57:24Z</time></trkpt><trkpt lat="45.65865107902421" lon="11.345185164875723"><ele>502.99999999999994</ele><time>2026-04-10T12:57:25Z</time></trkpt><trkpt lat="45.65856956759351" lon="11.345151327588189"><ele>503.0</ele><time>2026-04-10T12:57:26Z</time></trkpt><trkpt lat="45.65846425592415" lon="11.345154624305604"><ele>507.5</ele><time>2026-04-10T12:57:27Z</time></trkpt><trkpt lat="45.658339657072354" lon="11.345166500583556"><ele>512.0</ele><time>2026-04-10T12:57:28Z</time></trkpt><trkpt lat="45.65821092805386" lon="11.345098114600418"><ele>516.5</ele><time>2026-04-10T12:57:29Z</time></trkpt><trkpt lat="45.65809496130987" lon="11.345043028218658"><ele>521.0</ele><time>2026-04-10T12:57:30Z</time></trkpt><trkpt lat="45.65796543975931" lon="11.345007880685788"><ele>521.0</ele><time>2026-04-10T12:57:31Z</time></trkpt><trkpt lat="45.657835903498686" lon="11.344954990568752"><ele>521.0</ele><time>2026-04-10T12:57:32Z</time></trkpt><trkpt lat="45.65772053011579" lon="11.344905917639217"><ele>521.0</ele><time>2026-04-10T12:57:33Z</time></trkpt><trkpt lat="45.65762812575091" lon="11.344851761133576"><ele>521.0</ele><time>2026-04-10T12:57:34Z</time></trkpt><trkpt lat="45.65756939702878" lon="11.344790772001907"><ele>521.0</ele><time>2026-04-10T12:57:35Z</time></trkpt><trkpt lat="45.65747887991402" lon="11.344768636434935"><ele>523.6666666666666</ele><time>2026-04-10T12:57:37Z</time></trkpt><trkpt lat="45.65740809208238" lon="11.344762622133818"><ele>526.3333333333333</ele><time>2026-04-10T12:57:41Z</time></trkpt><trkpt lat="45.65732580009409" lon="11.344843234898747"><ele>529.0</ele><time>2026-04-10T12:57:43Z</time></trkpt><trkpt lat="45.65726937906306" lon="11.344947231938741"><ele>531.6666666666666</ele><time>2026-04-10T12:57:45Z</time></trkpt><trkpt lat="45.65722214450052" lon="11.345056283903563"><ele>534.3333333333334</ele><time>2026-04-10T12:57:48Z</time></trkpt><trkpt lat="45.657197838344466" lon="11.345170595456196"><ele>537.0</ele><time>2026-04-10T12:57:54Z</time></trkpt><trkpt lat="45.65719054564654" lon="11.345309723501389"><ele>537.0</ele><time>2026-04-10T12:57:56Z</time></trkpt><trkpt lat="45.657172339666694" lon="11.345485460500742"><ele>537.0</ele><time>2026-04-10T12:57:58Z</time></trkpt><trkpt lat="45.65707578352184" lon="11.345546717845442"><ele>537.0</ele><time>2026-04-10T12:58:00Z</time></trkpt><trkpt lat="45.65693578073237" lon="11.34553389851108"><ele>537.0</ele><time>2026-04-10T12:58:02Z</time></trkpt><trkpt lat="45.656809372974216" lon="11.34551628377631"><ele>539.3333333333334</ele><time>2026-04-10T12:58:04Z</time></trkpt><trkpt lat="45.656744016796885" lon="11.345490352099452"><ele>541.6666666666666</ele><time>2026-04-10T12:58:05Z</time></trkpt><trkpt lat="45.6566814924746" lon="11.34545437499091"><ele>544.0</ele><time>2026-04-10T12:58:06Z</time></trkpt><trkpt lat="45.65662124116046" lon="11.345409468357555"><ele>546.3333333333333</ele><time>2026-04-10T12:58:07Z</time></trkpt><trkpt lat="45.656566278224965" lon="11.345361529207144"><ele>548.6666666666666</ele><time>2026-04-10T12:58:08Z</time></trkpt><trkpt lat="45.656517484139755" lon="11.345303531424552"><ele>551.0</ele><time>2026-04-10T12:58:09Z</time></trkpt><trkpt lat="45.656424842821416" lon="11.3451846350811"><ele>551.0</ele><time>2026-04-10T12:58:11Z</time></trkpt><trkpt lat="45.656370784351694" lon="11.345110204264243"><ele>551.0</ele><time>2026-04-10T12:58:12Z</time></trkpt><trkpt lat="45.65629824414891" lon="11.345045168099926"><ele>551.0</ele><time>2026-04-10T12:58:12.999Z</time></trkpt><trkpt lat="45.65620938178973" lon="11.345009314700015"><ele>551.0</ele><time>2026-04-10T12:58:13.999Z</time></trkpt><trkpt lat="45.656112317100835" lon="11.344994689553864"><ele>551.0</ele><time>2026-04-10T12:58:14.999Z</time></trkpt><trkpt lat="45.65601318760561" lon="11.344993020393137"><ele>552.3333333333333</ele><time>2026-04-10T12:58:15.999Z</time></trkpt><trkpt lat="45.65591835597289" lon="11.344972800488959"><ele>553.6666666666666</ele><time>2026-04-10T12:58:16.999Z</time></trkpt><trkpt lat="45.65584176062313" lon="11.344959023680161"><ele>555.0</ele><time>2026-04-10T12:58:17.999Z</time></trkpt><trkpt lat="45.65576459981687" lon="11.344981336127121"><ele>556.3333333333334</ele><time>2026-04-10T12:58:18.999Z</time></trkpt><trkpt lat="45.655701772626195" lon="11.34503640665055"><ele>557.6666666666667</ele><time>2026-04-10T12:58:19.999Z</time></trkpt><trkpt lat="45.655646977761684" lon="11.345115407662108"><ele>559.0</ele><time>2026-04-10T12:58:20.999Z</time></trkpt><trkpt lat="45.65560759751956" lon="11.34520047910337"><ele>559.0</ele><time>2026-04-10T12:58:21.999Z</time></trkpt><trkpt lat="45.655570541779056" lon="11.345288126881409"><ele>559.0</ele><time>2026-04-10T12:58:22.999Z</time></trkpt><trkpt lat="45.65551424611279" lon="11.345366762018854"><ele>559.0</ele><time>2026-04-10T12:58:23.999Z</time></trkpt><trkpt lat="45.65544389184131" lon="11.345434537032643"><ele>559.0</ele><time>2026-04-10T12:58:24.999Z</time></trkpt><trkpt lat="45.65537408614361" lon="11.345524117425677"><ele>559.0</ele><time>2026-04-10T12:58:25.999Z</time></trkpt><trkpt lat="45.655314262786824" lon="11.3456243158036"><ele>559.0</ele><time>2026-04-10T12:58:26.999Z</time></trkpt><trkpt lat="45.655261179678035" lon="11.345686550674584"><ele>561.4</ele><time>2026-04-10T12:58:27.999Z</time></trkpt><trkpt lat="45.65519705430146" lon="11.34564640493419"><ele>563.8</ele><time>2026-04-10T12:58:28.999Z</time></trkpt><trkpt lat="45.65512514434728" lon="11.345563278482254"><ele>566.2</ele><time>2026-04-10T12:58:30.999Z</time></trkpt><trkpt lat="45.65504946158674" lon="11.345427042554789"><ele>568.6</ele><time>2026-04-10T12:58:32.999Z</time></trkpt><trkpt lat="45.65498588137945" lon="11.345321841609941"><ele>571.0</ele><time>2026-04-10T12:58:33.999Z</time></trkpt><trkpt lat="45.65490951336645" lon="11.345223519808304"><ele>571.0</ele><time>2026-04-10T12:58:34.999Z</time></trkpt><trkpt lat="45.654840781130076" lon="11.345090739470097"><ele>571.0</ele><time>2026-04-10T12:58:35.999Z</time></trkpt><trkpt lat="45.65478134458303" lon="11.344978262982103"><ele>571.0</ele><time>2026-04-10T12:58:36.999Z</time></trkpt><trkpt lat="45.65473778584599" lon="11.344868122848414"><ele>571.0</ele><time>2026-04-10T12:58:37.999Z</time></trkpt><trkpt lat="45.654673532362565" lon="11.344797795892635"><ele>571.0</ele><time>2026-04-10T12:58:38.999Z</time></trkpt><trkpt lat="45.65461347152439" lon="11.344722130430494"><ele>574.1666666666667</ele><time>2026-04-10T12:58:39.999Z</time></trkpt><trkpt lat="45.654533550834" lon="11.344664971576032"><ele>577.3333333333334</ele><time>2026-04-10T12:58:40.999Z</time></trkpt><trkpt lat="45.654455429385166" lon="11.344639276836691"><ele>580.5</ele><time>2026-04-10T12:58:41.999Z</time></trkpt><trkpt lat="45.65437118132454" lon="11.344611656091878"><ele>583.6666666666666</ele><time>2026-04-10T12:58:42.999Z</time></trkpt><trkpt lat="45.65430592367382" lon="11.344542678761764"><ele>586.8333333333333</ele><time>2026-04-10T12:58:43.999Z</time></trkpt><trkpt lat="45.65421984572859" lon="11.34448340656339"><ele>590.0</ele><time>2026-04-10T12:58:44.999Z</time></trkpt><trkpt lat="45.65413190199972" lon="11.344429985492436"><ele>590.0</ele><time>2026-04-10T12:58:45.999Z</time></trkpt><trkpt lat="45.6540405118646" lon="11.344370073719237"><ele>590.0</ele><time>2026-04-10T12:58:46.999Z</time></trkpt><trkpt lat="45.65395928043042" lon="11.344325749413779"><ele>590.0</ele><time>2026-04-10T12:58:47.999Z</time></trkpt><trkpt lat="45.653883435198864" lon="11.34427681552661"><ele>590.0</ele><time>2026-04-10T12:58:48.999Z</time></trkpt><trkpt lat="45.653814582923786" lon="11.344221713524673"><ele>590.0</ele><time>2026-04-10T12:58:49.999Z</time></trkpt><trkpt lat="45.65374536353459" lon="11.34417488097666"><ele>590.0</ele><time>2026-04-10T12:58:50.999Z</time></trkpt><trkpt lat="45.65368506480406" lon="11.344124867379609"><ele>592.5</ele><time>2026-04-10T12:58:51.999Z</time></trkpt><trkpt lat="45.65360042353542" lon="11.344135144294635"><ele>595.0</ele><time>2026-04-10T12:58:52.999Z</time></trkpt><trkpt lat="45.6535150593507" lon="11.344144821711724"><ele>597.5</ele><time>2026-04-10T12:58:53.999Z</time></trkpt><trkpt lat="45.65344034627301" lon="11.34416026670656"><ele>600.0</ele><time>2026-04-10T12:58:54.999Z</time></trkpt><trkpt lat="45.653371571425815" lon="11.344116108246412"><ele>602.5</ele><time>2026-04-10T12:58:55.999Z</time></trkpt><trkpt lat="45.65332516723588" lon="11.344051209353111"><ele>605.0</ele><time>2026-04-10T12:58:56.999Z</time></trkpt><trkpt lat="45.65334721572651" lon="11.343949575276977"><ele>603.8333333333333</ele><time>2026-04-10T12:58:57.999Z</time></trkpt><trkpt lat="45.653309289741976" lon="11.343790840406044"><ele>602.6666666666666</ele><time>2026-04-10T12:58:59.999Z</time></trkpt><trkpt lat="45.65327991390496" lon="11.34370326738587"><ele>601.5</ele><time>2026-04-10T12:59:00.999Z</time></trkpt><trkpt lat="45.653217727284165" lon="11.343603271955812"><ele>600.3333333333334</ele><time>2026-04-10T12:59:02Z</time></trkpt><trkpt lat="45.653165822597224" lon="11.343537256306448"><ele>599.1666666666667</ele><time>2026-04-10T12:59:03Z</time></trkpt><trkpt lat="45.65312763991864" lon="11.3434381507623"><ele>598.0</ele><time>2026-04-10T12:59:04Z</time></trkpt><trkpt lat="45.65308645693615" lon="11.343351191148045"><ele>598.0</ele><time>2026-04-10T12:59:05Z</time></trkpt><trkpt lat="45.65303820812798" lon="11.34327362076001"><ele>598.0</ele><time>2026-04-10T12:59:06Z</time></trkpt><trkpt lat="45.652965336951134" lon="11.343204723492704"><ele>598.0</ele><time>2026-04-10T12:59:07Z</time></trkpt><trkpt lat="45.65289586398458" lon="11.343129262523247"><ele>598.0</ele><time>2026-04-10T12:59:08Z</time></trkpt><trkpt lat="45.65282158348491" lon="11.34306959394538"><ele>598.0</ele><time>2026-04-10T12:59:09Z</time></trkpt><trkpt lat="45.652741686932146" lon="11.34301387951867"><ele>598.0</ele><time>2026-04-10T12:59:10Z</time></trkpt><trkpt lat="45.65264205438833" lon="11.342976479534999"><ele>601.1999999999999</ele><time>2026-04-10T12:59:11Z</time></trkpt><trkpt lat="45.65255428389692" lon="11.342904822517054"><ele>604.4</ele><time>2026-04-10T12:59:12Z</time></trkpt><trkpt lat="45.652463986904216" lon="11.342825774610194"><ele>607.5999999999999</ele><time>2026-04-10T12:59:13Z</time></trkpt><trkpt lat="45.65237356857682" lon="11.342745522597175"><ele>610.8</ele><time>2026-04-10T12:59:14Z</time></trkpt><trkpt lat="45.652292548121686" lon="11.34266616236266"><ele>614.0</ele><time>2026-04-10T12:59:15Z</time></trkpt><trkpt lat="45.65220406780415" lon="11.342589959121005"><ele>614.0</ele><time>2026-04-10T12:59:16Z</time></trkpt><trkpt lat="45.65211773598587" lon="11.342497204830876"><ele>614.0</ele><time>2026-04-10T12:59:17Z</time></trkpt><trkpt lat="45.6520508001253" lon="11.342411128978226"><ele>614.0</ele><time>2026-04-10T12:59:18Z</time></trkpt><trkpt lat="45.65199197485487" lon="11.34232755749911"><ele>614.0</ele><time>2026-04-10T12:59:19Z</time></trkpt><trkpt lat="45.651944262063644" lon="11.342208276238297"><ele>614.0</ele><time>2026-04-10T12:59:20Z</time></trkpt><trkpt lat="45.65191342356049" lon="11.34207696042101"><ele>618.1666666666666</ele><time>2026-04-10T12:59:21Z</time></trkpt><trkpt lat="45.65187839250774" lon="11.341964327798706"><ele>622.3333333333333</ele><time>2026-04-10T12:59:22Z</time></trkpt><trkpt lat="45.65182797227177" lon="11.341880034736283"><ele>626.5</ele><time>2026-04-10T12:59:23Z</time></trkpt><trkpt lat="45.6517709459089" lon="11.341816759839896"><ele>630.6666666666666</ele><time>2026-04-10T12:59:24Z</time></trkpt><trkpt lat="45.65168555776532" lon="11.341776993307414"><ele>634.8333333333334</ele><time>2026-04-10T12:59:25Z</time></trkpt><trkpt lat="45.65158869065411" lon="11.341767106758656"><ele>639.0</ele><time>2026-04-10T12:59:26Z</time></trkpt><trkpt lat="45.65148097064625" lon="11.341745112029432"><ele>639.0</ele><time>2026-04-10T12:59:27Z</time></trkpt><trkpt lat="45.65137726497503" lon="11.341727881775727"><ele>639.0</ele><time>2026-04-10T12:59:28Z</time></trkpt><trkpt lat="45.65126854585195" lon="11.341733440307404"><ele>639.0</ele><time>2026-04-10T12:59:29Z</time></trkpt><trkpt lat="45.65116202083275" lon="11.34172914422791"><ele>639.0</ele><time>2026-04-10T12:59:30Z</time></trkpt><trkpt lat="45.65106369556231" lon="11.341718388122027"><ele>639.0</ele><time>2026-04-10T12:59:31Z</time></trkpt><trkpt lat="45.650972311926" lon="11.341699449490578"><ele>641.4</ele><time>2026-04-10T12:59:32Z</time></trkpt><trkpt lat="45.65089665885635" lon="11.341631696927776"><ele>643.8</ele><time>2026-04-10T12:59:33Z</time></trkpt><trkpt lat="45.65079740909245" lon="11.34159419401981"><ele>646.1999999999999</ele><time>2026-04-10T12:59:34Z</time></trkpt><trkpt lat="45.65071091443598" lon="11.341548546346644"><ele>648.5999999999999</ele><time>2026-04-10T12:59:35Z</time></trkpt><trkpt lat="45.650647803122624" lon="11.341532507994632"><ele>651.0</ele><time>2026-04-10T12:59:36Z</time></trkpt><trkpt lat="45.65052853257682" lon="11.341553737655598"><ele>651.0</ele><time>2026-04-10T12:59:38Z</time></trkpt><trkpt lat="45.650461398078114" lon="11.341602541856496"><ele>651.0</ele><time>2026-04-10T12:59:39Z</time></trkpt><trkpt lat="45.650389407722365" lon="11.341627164786763"><ele>651.0</ele><time>2026-04-10T12:59:40Z</time></trkpt><trkpt lat="45.65032264380407" lon="11.341610608513951"><ele>651.0</ele><time>2026-04-10T12:59:41Z</time></trkpt><trkpt lat="45.65025598668067" lon="11.341584171395638"><ele>651.0</ele><time>2026-04-10T12:59:42Z</time></trkpt><trkpt lat="45.6501555012323" lon="11.341496950431095"><ele>651.0</ele><time>2026-04-10T12:59:44Z</time></trkpt><trkpt lat="45.65005387936417" lon="11.341417425493038"><ele>653.1999999999999</ele><time>2026-04-10T12:59:46Z</time></trkpt><trkpt lat="45.64998378487741" lon="11.341405075068572"><ele>655.4</ele><time>2026-04-10T12:59:47Z</time></trkpt><trkpt lat="45.64992081172876" lon="11.341391081324767"><ele>657.6</ele><time>2026-04-10T12:59:48Z</time></trkpt><trkpt lat="45.64982544701126" lon="11.341419795081856"><ele>659.8</ele><time>2026-04-10T12:59:49Z</time></trkpt><trkpt lat="45.64967358642792" lon="11.341420102778574"><ele>662.0</ele><time>2026-04-10T12:59:50Z</time></trkpt><trkpt lat="45.64959468607328" lon="11.341391424827822"><ele>662.0</ele><time>2026-04-10T12:59:52Z</time></trkpt><trkpt lat="45.649515304741456" lon="11.341384997701597"><ele>662.0</ele><time>2026-04-10T12:59:53Z</time></trkpt><trkpt lat="45.64945207957699" lon="11.341343986398224"><ele>662.0</ele><time>2026-04-10T12:59:54Z</time></trkpt><trkpt lat="45.649354938320876" lon="11.34129252869519"><ele>662.0</ele><time>2026-04-10T12:59:55Z</time></trkpt><trkpt lat="45.64924528090098" lon="11.341257209687955"><ele>662.0</ele><time>2026-04-10T12:59:56Z</time></trkpt><trkpt lat="45.64914355144704" lon="11.341183100587804"><ele>661.8</ele><time>2026-04-10T12:59:57Z</time></trkpt><trkpt lat="45.6490355233289" lon="11.341149133553543"><ele>661.6</ele><time>2026-04-10T12:59:58Z</time></trkpt><trkpt lat="45.64892481448722" lon="11.341073812659891"><ele>661.4</ele><time>2026-04-10T12:59:59Z</time></trkpt><trkpt lat="45.64883338898324" lon="11.341065424021416"><ele>661.1999999999999</ele><time>2026-04-10T13:00:00Z</time></trkpt><trkpt lat="45.6487111019709" lon="11.341041371643835"><ele>661.0</ele><time>2026-04-10T13:00:01Z</time></trkpt><trkpt lat="45.64860782321655" lon="11.341036060468285"><ele>661.0</ele><time>2026-04-10T13:00:02Z</time></trkpt><trkpt lat="45.64848149498846" lon="11.341060764323139"><ele>661.0</ele><time>2026-04-10T13:00:03Z</time></trkpt><trkpt lat="45.648363188852244" lon="11.341080048370998"><ele>661.0</ele><time>2026-04-10T13:00:04Z</time></trkpt><trkpt lat="45.64825469493103" lon="11.341091116167517"><ele>661.0</ele><time>2026-04-10T13:00:05Z</time></trkpt><trkpt lat="45.648161408148205" lon="11.341104559069223"><ele>661.0</ele><time>2026-04-10T13:00:06Z</time></trkpt><trkpt lat="45.64806448133529" lon="11.341139051595933"><ele>661.0</ele><time>2026-04-10T13:00:07Z</time></trkpt><trkpt lat="45.64796268980391" lon="11.341181541850018"><ele>661.0</ele><time>2026-04-10T13:00:08Z</time></trkpt><trkpt lat="45.64786267889754" lon="11.341239540642531"><ele>661.0</ele><time>2026-04-10T13:00:09Z</time></trkpt><trkpt lat="45.647782964704945" lon="11.34129744576556"><ele>661.0</ele><time>2026-04-10T13:00:10Z</time></trkpt><trkpt lat="45.64769872252592" lon="11.341361663155752"><ele>661.0</ele><time>2026-04-10T13:00:11Z</time></trkpt><trkpt lat="45.64761229801817" lon="11.341437451553878"><ele>662.5</ele><time>2026-04-10T13:00:12Z</time></trkpt><trkpt lat="45.647530868803024" lon="11.341526497513655"><ele>664.0</ele><time>2026-04-10T13:00:13Z</time></trkpt><trkpt lat="45.647483866083576" lon="11.341633977283118"><ele>665.5</ele><time>2026-04-10T13:00:14Z</time></trkpt><trkpt lat="45.64742895251465" lon="11.341739211762274"><ele>667.0</ele><time>2026-04-10T13:00:15Z</time></trkpt><trkpt lat="45.64739259054835" lon="11.341843207272937"><ele>668.5</ele><time>2026-04-10T13:00:16Z</time></trkpt><trkpt lat="45.647363977675816" lon="11.341945147828122"><ele>670.0</ele><time>2026-04-10T13:00:17Z</time></trkpt><trkpt lat="45.647344367877686" lon="11.3420431070026"><ele>671.2</ele><time>2026-04-10T13:00:18Z</time></trkpt><trkpt lat="45.64733478909016" lon="11.342221382688045"><ele>672.4</ele><time>2026-04-10T13:00:20Z</time></trkpt><trkpt lat="45.64737369423658" lon="11.342353665742793"><ele>673.5999999999999</ele><time>2026-04-10T13:00:22Z</time></trkpt><trkpt lat="45.64744436052756" lon="11.34242143146421"><ele>674.8</ele><time>2026-04-10T13:00:23Z</time></trkpt><trkpt lat="45.64751313039446" lon="11.342473405022087"><ele>676.0</ele><time>2026-04-10T13:00:24Z</time></trkpt><trkpt lat="45.647579475778706" lon="11.342511461064284"><ele>676.0</ele><time>2026-04-10T13:00:25Z</time></trkpt><trkpt lat="45.64764642214016" lon="11.342504961320177"><ele>676.0</ele><time>2026-04-10T13:00:26Z</time></trkpt><trkpt lat="45.64771883116512" lon="11.342524680070916"><ele>676.0</ele><time>2026-04-10T13:00:27Z</time></trkpt><trkpt lat="45.64779603714561" lon="11.342530046566639"><ele>676.0</ele><time>2026-04-10T13:00:28Z</time></trkpt><trkpt lat="45.64786383685967" lon="11.342549875733905"><ele>676.0</ele><time>2026-04-10T13:00:29Z</time></trkpt><trkpt lat="45.64792321384437" lon="11.342585511808977"><ele>676.0</ele><time>2026-04-10T13:00:30Z</time></trkpt><trkpt lat="45.64794619967786" lon="11.342694721767911"><ele>676.0</ele><time>2026-04-10T13:00:31Z</time></trkpt><trkpt lat="45.64800757806217" lon="11.34277449285087"><ele>677.0</ele><time>2026-04-10T13:00:32Z</time></trkpt><trkpt lat="45.648045922184615" lon="11.342910974729747"><ele>678.0</ele><time>2026-04-10T13:00:33Z</time></trkpt><trkpt lat="45.648087138897495" lon="11.343032984929664"><ele>679.0</ele><time>2026-04-10T13:00:34Z</time></trkpt><trkpt lat="45.64809885480918" lon="11.34317808403065"><ele>680.0</ele><time>2026-04-10T13:00:35Z</time></trkpt><trkpt lat="45.648089640077394" lon="11.34330308195155"><ele>681.0</ele><time>2026-04-10T13:00:36Z</time></trkpt><trkpt lat="45.648084760451184" lon="11.34339942944746"><ele>681.0</ele><time>2026-04-10T13:00:37Z</time></trkpt><trkpt lat="45.64807407683218" lon="11.343523717581261"><ele>681.0</ele><time>2026-04-10T13:00:38Z</time></trkpt><trkpt lat="45.64805351772829" lon="11.343655723674075"><ele>681.0</ele><time>2026-04-10T13:00:39Z</time></trkpt><trkpt lat="45.64803846414215" lon="11.343790553574959"><ele>681.0</ele><time>2026-04-10T13:00:40Z</time></trkpt><trkpt lat="45.64800933041924" lon="11.343888275055818"><ele>681.0</ele><time>2026-04-10T13:00:41Z</time></trkpt><trkpt lat="45.64798738582202" lon="11.34399572124688"><ele>681.0</ele><time>2026-04-10T13:00:42Z</time></trkpt><trkpt lat="45.647967509399805" lon="11.344091369070279"><ele>681.0</ele><time>2026-04-10T13:00:43Z</time></trkpt><trkpt lat="45.647945029527875" lon="11.344199382688476"><ele>681.0</ele><time>2026-04-10T13:00:44Z</time></trkpt><trkpt lat="45.64793607896357" lon="11.344297617804159"><ele>681.0</ele><time>2026-04-10T13:00:45Z</time></trkpt><trkpt lat="45.6478741639612" lon="11.34438122914882"><ele>681.0</ele><time>2026-04-10T13:00:46Z</time></trkpt><trkpt lat="45.647867850925465" lon="11.344487125731131"><ele>681.0</ele><time>2026-04-10T13:00:47Z</time></trkpt><trkpt lat="45.64784661132936" lon="11.344589975722258"><ele>681.0</ele><time>2026-04-10T13:00:48Z</time></trkpt><trkpt lat="45.6478272216505" lon="11.344683867746209"><ele>679.8333333333334</ele><time>2026-04-10T13:00:49Z</time></trkpt><trkpt lat="45.64780410412633" lon="11.344790308410595"><ele>678.6666666666666</ele><time>2026-04-10T13:00:50Z</time></trkpt><trkpt lat="45.647780731549716" lon="11.344894126499783"><ele>677.5</ele><time>2026-04-10T13:00:51Z</time></trkpt><trkpt lat="45.64775476443016" lon="11.344997385762857"><ele>676.3333333333333</ele><time>2026-04-10T13:00:52Z</time></trkpt><trkpt lat="45.647740943346214" lon="11.345090083697382"><ele>675.1666666666666</ele><time>2026-04-10T13:00:53Z</time></trkpt><trkpt lat="45.647694896145616" lon="11.345208765141605"><ele>674.0</ele><time>2026-04-10T13:00:55Z</time></trkpt><trkpt lat="45.6475793042568" lon="11.34515144010848"><ele>674.0</ele><time>2026-04-10T13:00:57Z</time></trkpt><trkpt lat="45.64748527988315" lon="11.345181494717234"><ele>674.0</ele><time>2026-04-10T13:00:58Z</time></trkpt><trkpt lat="45.64740664446002" lon="11.345218928270683"><ele>674.0</ele><time>2026-04-10T13:00:59Z</time></trkpt><trkpt lat="45.64732676390522" lon="11.345259593419232"><ele>674.0</ele><time>2026-04-10T13:00:59.999Z</time></trkpt><trkpt lat="45.64725494401557" lon="11.34527804592875"><ele>674.0</ele><time>2026-04-10T13:01:00.999Z</time></trkpt><trkpt lat="45.647185217498766" lon="11.345271383199577"><ele>674.0</ele><time>2026-04-10T13:01:01.999Z</time></trkpt><trkpt lat="45.64710669306716" lon="11.345265245791701"><ele>674.0</ele><time>2026-04-10T13:01:02.999Z</time></trkpt><trkpt lat="45.647027475951525" lon="11.345274215182272"><ele>674.0</ele><time>2026-04-10T13:01:03.999Z</time></trkpt><trkpt lat="45.646966744447354" lon="11.345245497569177"><ele>674.0</ele><time>2026-04-10T13:01:04.999Z</time></trkpt><trkpt lat="45.64689020011735" lon="11.345227762873785"><ele>674.0</ele><time>2026-04-10T13:01:05.999Z</time></trkpt><trkpt lat="45.64682834418022" lon="11.345209061961791"><ele>674.0</ele><time>2026-04-10T13:01:07.001Z</time></trkpt><trkpt lat="45.646728274254436" lon="11.345216265129315"><ele>674.0</ele><time>2026-04-10T13:01:09.001Z</time></trkpt><trkpt lat="45.64666684116031" lon="11.34535978827451"><ele>674.6666666666666</ele><time>2026-04-10T13:01:11.001Z</time></trkpt><trkpt lat="45.64664624945192" lon="11.345463923317215"><ele>675.3333333333333</ele><time>2026-04-10T13:01:12.001Z</time></trkpt><trkpt lat="45.64661755478453" lon="11.345579281738933"><ele>676.0</ele><time>2026-04-10T13:01:13.001Z</time></trkpt><trkpt lat="45.64658035088842" lon="11.345687621736968"><ele>676.6666666666666</ele><time>2026-04-10T13:01:14.001Z</time></trkpt><trkpt lat="45.646521835396484" lon="11.34576178078088"><ele>677.3333333333334</ele><time>2026-04-10T13:01:15.001Z</time></trkpt><trkpt lat="45.64644356240357" lon="11.345838202498712"><ele>678.0</ele><time>2026-04-10T13:01:16.001Z</time></trkpt><trkpt lat="45.64637767447852" lon="11.345945552005439"><ele>674.5999999999999</ele><time>2026-04-10T13:01:17.001Z</time></trkpt><trkpt lat="45.64632716110654" lon="11.346084569091559"><ele>671.1999999999999</ele><time>2026-04-10T13:01:18.001Z</time></trkpt><trkpt lat="45.646325894742795" lon="11.346275359220927"><ele>667.8</ele><time>2026-04-10T13:01:19.001Z</time></trkpt><trkpt lat="45.64631233408264" lon="11.346431825091516"><ele>664.4</ele><time>2026-04-10T13:01:20.001Z</time></trkpt><trkpt lat="45.64629476598295" lon="11.346562656872099"><ele>661.0</ele><time>2026-04-10T13:01:21.001Z</time></trkpt><trkpt lat="45.646272223473524" lon="11.34666601640378"><ele>661.1999999999999</ele><time>2026-04-10T13:01:22.001Z</time></trkpt><trkpt lat="45.64624474448857" lon="11.346759345367138"><ele>661.4</ele><time>2026-04-10T13:01:23.001Z</time></trkpt><trkpt lat="45.64616203804792" lon="11.346847798566301"><ele>661.6</ele><time>2026-04-10T13:01:25.001Z</time></trkpt><trkpt lat="45.646086024949085" lon="11.346857471713072"><ele>661.8</ele><time>2026-04-10T13:01:26.001Z</time></trkpt><trkpt lat="45.64594788581264" lon="11.346991230172545"><ele>662.0</ele><time>2026-04-10T13:01:28Z</time></trkpt><trkpt lat="45.64588195532277" lon="11.347114509254466"><ele>659.8</ele><time>2026-04-10T13:01:29Z</time></trkpt><trkpt lat="45.64584551947389" lon="11.34722761923653"><ele>657.6</ele><time>2026-04-10T13:01:30Z</time></trkpt><trkpt lat="45.64583480363261" lon="11.347348076956285"><ele>655.4</ele><time>2026-04-10T13:01:31Z</time></trkpt><trkpt lat="45.64581596898559" lon="11.347467883935725"><ele>653.1999999999999</ele><time>2026-04-10T13:01:32Z</time></trkpt><trkpt lat="45.64582699573649" lon="11.347586237693738"><ele>651.0</ele><time>2026-04-10T13:01:33Z</time></trkpt><trkpt lat="45.64580554054231" lon="11.34775019575128"><ele>651.0</ele><time>2026-04-10T13:01:35Z</time></trkpt><trkpt lat="45.64570319184163" lon="11.34788674910346"><ele>651.0</ele><time>2026-04-10T13:01:37Z</time></trkpt><trkpt lat="45.645668929447396" lon="11.348004504543388"><ele>651.0</ele><time>2026-04-10T13:01:38Z</time></trkpt><trkpt lat="45.645516747613634" lon="11.34805835777713"><ele>651.0</ele><time>2026-04-10T13:01:39Z</time></trkpt><trkpt lat="45.645440295679315" lon="11.348163948962474"><ele>649.6666666666666</ele><time>2026-04-10T13:01:40Z</time></trkpt><trkpt lat="45.64538531481205" lon="11.348272518773477"><ele>648.3333333333334</ele><time>2026-04-10T13:01:41Z</time></trkpt><trkpt lat="45.6453372605508" lon="11.348385054131779"><ele>647.0</ele><time>2026-04-10T13:01:42Z</time></trkpt><trkpt lat="45.645298193027564" lon="11.34850049165778"><ele>645.6666666666667</ele><time>2026-04-10T13:01:43Z</time></trkpt><trkpt lat="45.64525760731855" lon="11.348609856192892"><ele>644.3333333333334</ele><time>2026-04-10T13:01:44Z</time></trkpt><trkpt lat="45.64521564159171" lon="11.348713148805134"><ele>643.0</ele><time>2026-04-10T13:01:45Z</time></trkpt><trkpt lat="45.64516595462213" lon="11.348809693530217"><ele>641.3333333333334</ele><time>2026-04-10T13:01:46Z</time></trkpt><trkpt lat="45.64511261344378" lon="11.348890489026994"><ele>639.6666666666667</ele><time>2026-04-10T13:01:47Z</time></trkpt><trkpt lat="45.645051668159276" lon="11.348954307781245"><ele>638.0</ele><time>2026-04-10T13:01:48Z</time></trkpt><trkpt lat="45.64499299057663" lon="11.349009888812738"><ele>636.3333333333334</ele><time>2026-04-10T13:01:49Z</time></trkpt><trkpt lat="45.64493544732545" lon="11.349053697574952"><ele>634.6666666666666</ele><time>2026-04-10T13:01:49.999Z</time></trkpt><trkpt lat="45.644860521540615" lon="11.34907955563575"><ele>633.0</ele><time>2026-04-10T13:01:50.999Z</time></trkpt><trkpt lat="45.64476878323877" lon="11.349111456450238"><ele>633.0</ele><time>2026-04-10T13:01:51.999Z</time></trkpt><trkpt lat="45.644683372588496" lon="11.349161937811115"><ele>633.0</ele><time>2026-04-10T13:01:52.999Z</time></trkpt><trkpt lat="45.64461298820064" lon="11.349213327952096"><ele>633.0</ele><time>2026-04-10T13:01:53.999Z</time></trkpt><trkpt lat="45.64455144027942" lon="11.349255425540038"><ele>633.0</ele><time>2026-04-10T13:01:54.999Z</time></trkpt><trkpt lat="45.644451702851455" lon="11.349275145348763"><ele>633.0</ele><time>2026-04-10T13:01:56.999Z</time></trkpt><trkpt lat="45.64434200796172" lon="11.349216197929202"><ele>631.6</ele><time>2026-04-10T13:01:58.999Z</time></trkpt><trkpt lat="45.64423359470589" lon="11.349144694072201"><ele>630.1999999999999</ele><time>2026-04-10T13:02:00.999Z</time></trkpt><trkpt lat="45.64411672071711" lon="11.349123843852112"><ele>628.8</ele><time>2026-04-10T13:02:02.999Z</time></trkpt><trkpt lat="45.643996575047275" lon="11.349187360302718"><ele>627.4</ele><time>2026-04-10T13:02:04.999Z</time></trkpt><trkpt lat="45.643931515956034" lon="11.349221580725024"><ele>626.0</ele><time>2026-04-10T13:02:05.999Z</time></trkpt><trkpt lat="45.64386712748093" lon="11.349250691884633"><ele>626.0</ele><time>2026-04-10T13:02:06.999Z</time></trkpt><trkpt lat="45.643771131074864" lon="11.349269825563312"><ele>626.0</ele><time>2026-04-10T13:02:08.999Z</time></trkpt><trkpt lat="45.6437221772863" lon="11.349200934004688"><ele>626.0</ele><time>2026-04-10T13:02:21.999Z</time></trkpt><trkpt lat="45.64375407222823" lon="11.349078729938626"><ele>626.0</ele><time>2026-04-10T13:02:23.999Z</time></trkpt><trkpt lat="45.64379186196987" lon="11.348999892478252"><ele>626.0</ele><time>2026-04-10T13:02:24.999Z</time></trkpt><trkpt lat="45.64383918615225" lon="11.348904587293562"><ele>626.0</ele><time>2026-04-10T13:02:25.999Z</time></trkpt><trkpt lat="45.64388798392339" lon="11.348794349963828"><ele>628.0</ele><time>2026-04-10T13:02:26.999Z</time></trkpt><trkpt lat="45.6439237118603" lon="11.348657110769413"><ele>630.0</ele><time>2026-04-10T13:02:27.999Z</time></trkpt><trkpt lat="45.64393298784446" lon="11.348503919893554"><ele>632.0</ele><time>2026-04-10T13:02:28.999Z</time></trkpt><trkpt lat="45.64389748769376" lon="11.348346647375918"><ele>634.0</ele><time>2026-04-10T13:02:29.999Z</time></trkpt><trkpt lat="45.64384151489388" lon="11.348189323573449"><ele>636.0</ele><time>2026-04-10T13:02:30.999Z</time></trkpt><trkpt lat="45.64379382441671" lon="11.34802534219657"><ele>635.75</ele><time>2026-04-10T13:02:31.999Z</time></trkpt><trkpt lat="45.64375032808069" lon="11.347852368015056"><ele>635.5</ele><time>2026-04-10T13:02:32.999Z</time></trkpt><trkpt lat="45.643693541347695" lon="11.347700610662951"><ele>635.25</ele><time>2026-04-10T13:02:33.999Z</time></trkpt><trkpt lat="45.6436104777647" lon="11.347567687978785"><ele>635.0</ele><time>2026-04-10T13:02:34.999Z</time></trkpt><trkpt lat="45.64350935546686" lon="11.347459086311902"><ele>635.0</ele><time>2026-04-10T13:02:35.999Z</time></trkpt><trkpt lat="45.64340596666473" lon="11.347355074161724"><ele>635.0</ele><time>2026-04-10T13:02:36.999Z</time></trkpt><trkpt lat="45.64331613769682" lon="11.347238302603872"><ele>635.0</ele><time>2026-04-10T13:02:37.999Z</time></trkpt><trkpt lat="45.643249162195886" lon="11.347103871052296"><ele>635.0</ele><time>2026-04-10T13:02:38.999Z</time></trkpt><trkpt lat="45.64320677866261" lon="11.346947692171934"><ele>637.4</ele><time>2026-04-10T13:02:39.999Z</time></trkpt><trkpt lat="45.643175113428626" lon="11.346782711629448"><ele>639.8</ele><time>2026-04-10T13:02:40.999Z</time></trkpt><trkpt lat="45.64315227905206" lon="11.34663685433412"><ele>642.2</ele><time>2026-04-10T13:02:41.999Z</time></trkpt><trkpt lat="45.64314282186569" lon="11.346511685058365"><ele>644.6</ele><time>2026-04-10T13:02:42.999Z</time></trkpt><trkpt lat="45.6431560126534" lon="11.346378834513699"><ele>647.0</ele><time>2026-04-10T13:02:43.999Z</time></trkpt><trkpt lat="45.643202423076076" lon="11.346243123049122"><ele>649.0</ele><time>2026-04-10T13:02:44.999Z</time></trkpt><trkpt lat="45.643251033094195" lon="11.346093832383943"><ele>651.0</ele><time>2026-04-10T13:02:45.999Z</time></trkpt><trkpt lat="45.64328977270953" lon="11.345919247154427"><ele>653.0</ele><time>2026-04-10T13:02:46.999Z</time></trkpt><trkpt lat="45.643307452662626" lon="11.345733315245736"><ele>655.0</ele><time>2026-04-10T13:02:47.999Z</time></trkpt><trkpt lat="45.6432888538909" lon="11.345527297955568"><ele>657.25</ele><time>2026-04-10T13:02:48.999Z</time></trkpt><trkpt lat="45.64324607962686" lon="11.3453185684665"><ele>659.5</ele><time>2026-04-10T13:02:49.999Z</time></trkpt><trkpt lat="45.64319564867001" lon="11.345141578250248"><ele>661.75</ele><time>2026-04-10T13:02:50.999Z</time></trkpt><trkpt lat="45.6431208272946" lon="11.34500697751063"><ele>664.0</ele><time>2026-04-10T13:02:51.999Z</time></trkpt><trkpt lat="45.64303299608226" lon="11.344904173198312"><ele>664.0</ele><time>2026-04-10T13:02:52.999Z</time></trkpt><trkpt lat="45.64295917645951" lon="11.344792023622777"><ele>664.0</ele><time>2026-04-10T13:02:53.999Z</time></trkpt><trkpt lat="45.64292527478248" lon="11.344661485039524"><ele>664.0</ele><time>2026-04-10T13:02:54.999Z</time></trkpt><trkpt lat="45.64295151348461" lon="11.344545520485168"><ele>664.0</ele><time>2026-04-10T13:02:55.999Z</time></trkpt><trkpt lat="45.643019764431386" lon="11.344462640349306"><ele>664.0</ele><time>2026-04-10T13:02:56.999Z</time></trkpt><trkpt lat="45.643115876181845" lon="11.344366214864628"><ele>665.0</ele><time>2026-04-10T13:02:57.999Z</time></trkpt><trkpt lat="45.64322273109955" lon="11.344254290636902"><ele>666.0</ele><time>2026-04-10T13:02:58.999Z</time></trkpt><trkpt lat="45.643329307863276" lon="11.344118972056172"><ele>667.0</ele><time>2026-04-10T13:02:59.999Z</time></trkpt><trkpt lat="45.6434238078858" lon="11.343986550545697"><ele>668.0</ele><time>2026-04-10T13:03:00.999Z</time></trkpt><trkpt lat="45.64350377048864" lon="11.343884612114259"><ele>669.8</ele><time>2026-04-10T13:03:01.999Z</time></trkpt><trkpt lat="45.643568376927526" lon="11.343795599168216"><ele>671.5999999999999</ele><time>2026-04-10T13:03:02.999Z</time></trkpt><trkpt lat="45.64360448382206" lon="11.343680773862474"><ele>673.4000000000001</ele><time>2026-04-10T13:03:03.999Z</time></trkpt><trkpt lat="45.6435927989407" lon="11.343537721909154"><ele>675.2</ele><time>2026-04-10T13:03:04.999Z</time></trkpt><trkpt lat="45.64354875425434" lon="11.343396955922321"><ele>677.0</ele><time>2026-04-10T13:03:05.999Z</time></trkpt><trkpt lat="45.643467904107126" lon="11.343287418371425"><ele>677.0</ele><time>2026-04-10T13:03:06.999Z</time></trkpt><trkpt lat="45.64336092797476" lon="11.343217839018989"><ele>677.0</ele><time>2026-04-10T13:03:07.999Z</time></trkpt><trkpt lat="45.64324019300214" lon="11.343184822875502"><ele>677.0</ele><time>2026-04-10T13:03:08.999Z</time></trkpt><trkpt lat="45.643109934805686" lon="11.343166586378027"><ele>677.0</ele><time>2026-04-10T13:03:09.999Z</time></trkpt><trkpt lat="45.64297852077216" lon="11.343138887101249"><ele>677.0</ele><time>2026-04-10T13:03:10.999Z</time></trkpt><trkpt lat="45.64284536851978" lon="11.34309687613869"><ele>677.0</ele><time>2026-04-10T13:03:11.999Z</time></trkpt><trkpt lat="45.64271439509988" lon="11.343047743104611"><ele>677.0</ele><time>2026-04-10T13:03:13Z</time></trkpt><trkpt lat="45.64261120522006" lon="11.343018638083347"><ele>677.0</ele><time>2026-04-10T13:03:14Z</time></trkpt><trkpt lat="45.64253002341594" lon="11.343036260360725"><ele>677.6</ele><time>2026-04-10T13:03:15Z</time></trkpt><trkpt lat="45.64246115416881" lon="11.343128688847207"><ele>678.2</ele><time>2026-04-10T13:03:16Z</time></trkpt><trkpt lat="45.642400824634365" lon="11.343235581870221"><ele>678.8</ele><time>2026-04-10T13:03:17Z</time></trkpt><trkpt lat="45.64232914267515" lon="11.343322469114456"><ele>679.4</ele><time>2026-04-10T13:03:18Z</time></trkpt><trkpt lat="45.64224180370195" lon="11.343313419034295"><ele>680.0</ele><time>2026-04-10T13:03:19Z</time></trkpt><trkpt lat="45.64215956275072" lon="11.343291453866176"><ele>680.0</ele><time>2026-04-10T13:03:20Z</time></trkpt><trkpt lat="45.642071958697606" lon="11.343174180210182"><ele>680.0</ele><time>2026-04-10T13:03:21Z</time></trkpt><trkpt lat="45.641970380711356" lon="11.343024325662721"><ele>680.0</ele><time>2026-04-10T13:03:22Z</time></trkpt><trkpt lat="45.641851844715845" lon="11.342938142595958"><ele>680.0</ele><time>2026-04-10T13:03:23Z</time></trkpt><trkpt lat="45.64174107474284" lon="11.342801766291961"><ele>683.0</ele><time>2026-04-10T13:03:24Z</time></trkpt><trkpt lat="45.64165586819709" lon="11.342631922101852"><ele>686.0</ele><time>2026-04-10T13:03:25Z</time></trkpt><trkpt lat="45.64155769194883" lon="11.342488220049562"><ele>689.0</ele><time>2026-04-10T13:03:26Z</time></trkpt><trkpt lat="45.64148556575356" lon="11.342358326071572"><ele>692.0</ele><time>2026-04-10T13:03:27Z</time></trkpt><trkpt lat="45.64141544174198" lon="11.342264283923488"><ele>691.3333333333333</ele><time>2026-04-10T13:03:28Z</time></trkpt><trkpt lat="45.64135811893268" lon="11.34218632908275"><ele>690.6666666666666</ele><time>2026-04-10T13:03:29Z</time></trkpt><trkpt lat="45.64131038810579" lon="11.342110318841373"><ele>690.0</ele><time>2026-04-10T13:03:30Z</time></trkpt><trkpt lat="45.64121427527521" lon="11.341998196426832"><ele>689.3333333333334</ele><time>2026-04-10T13:03:32Z</time></trkpt><trkpt lat="45.64114515941055" lon="11.34199298781714"><ele>688.6666666666667</ele><time>2026-04-10T13:03:33Z</time></trkpt><trkpt lat="45.641051535406405" lon="11.342024667808191"><ele>688.0</ele><time>2026-04-10T13:03:34Z</time></trkpt><trkpt lat="45.64094675053322" lon="11.34206626014477"><ele>689.0</ele><time>2026-04-10T13:03:35Z</time></trkpt><trkpt lat="45.64084055098917" lon="11.342083999009791"><ele>690.0</ele><time>2026-04-10T13:03:36Z</time></trkpt><trkpt lat="45.64072928049455" lon="11.342122288478263"><ele>691.0</ele><time>2026-04-10T13:03:37Z</time></trkpt><trkpt lat="45.64059380386102" lon="11.342183671230066"><ele>692.0</ele><time>2026-04-10T13:03:38Z</time></trkpt><trkpt lat="45.64047667150308" lon="11.342224181778672"><ele>692.0</ele><time>2026-04-10T13:03:39Z</time></trkpt><trkpt lat="45.640354004715924" lon="11.34224830828564"><ele>692.0</ele><time>2026-04-10T13:03:40Z</time></trkpt><trkpt lat="45.64022153610244" lon="11.34225286103873"><ele>692.0</ele><time>2026-04-10T13:03:41Z</time></trkpt><trkpt lat="45.640090411601385" lon="11.34222401582207"><ele>692.0</ele><time>2026-04-10T13:03:42Z</time></trkpt><trkpt lat="45.63996967887584" lon="11.342174788811814"><ele>684.2</ele><time>2026-04-10T13:03:43Z</time></trkpt><trkpt lat="45.63985975392278" lon="11.34212529500902"><ele>676.4000000000001</ele><time>2026-04-10T13:03:44Z</time></trkpt><trkpt lat="45.63977077627287" lon="11.342110363067308"><ele>668.5999999999999</ele><time>2026-04-10T13:03:45Z</time></trkpt><trkpt lat="45.639690012075164" lon="11.342119565899903"><ele>660.8</ele><time>2026-04-10T13:03:46Z</time></trkpt><trkpt lat="45.63960116439756" lon="11.342105097835912"><ele>653.0</ele><time>2026-04-10T13:03:48Z</time></trkpt><trkpt lat="45.63964015337137" lon="11.341955933909277"><ele>653.0</ele><time>2026-04-10T13:03:50Z</time></trkpt><trkpt lat="45.63970924596925" lon="11.341941475609808"><ele>653.0</ele><time>2026-04-10T13:03:51Z</time></trkpt><trkpt lat="45.639809758604066" lon="11.341982088267104"><ele>653.0</ele><time>2026-04-10T13:03:52Z</time></trkpt><trkpt lat="45.639930532044076" lon="11.34202635320487"><ele>653.0</ele><time>2026-04-10T13:03:53Z</time></trkpt><trkpt lat="45.64007421982181" lon="11.34203457683377"><ele>653.0</ele><time>2026-04-10T13:03:54Z</time></trkpt><trkpt lat="45.64021508139773" lon="11.342022178236894"><ele>656.5</ele><time>2026-04-10T13:03:55Z</time></trkpt><trkpt lat="45.64034923986877" lon="11.341986509930667"><ele>660.0</ele><time>2026-04-10T13:03:56Z</time></trkpt><trkpt lat="45.64046864391311" lon="11.341918950391845"><ele>663.5</ele><time>2026-04-10T13:03:57Z</time></trkpt><trkpt lat="45.6405792349009" lon="11.341783661131057"><ele>667.0</ele><time>2026-04-10T13:03:58Z</time></trkpt><trkpt lat="45.64069400073134" lon="11.341642457441774"><ele>667.0</ele><time>2026-04-10T13:03:59Z</time></trkpt><trkpt lat="45.64083153921438" lon="11.341547625054593"><ele>667.0</ele><time>2026-04-10T13:04:00Z</time></trkpt><trkpt lat="45.64096380257461" lon="11.341478876340888"><ele>667.0</ele><time>2026-04-10T13:04:01Z</time></trkpt><trkpt lat="45.641094251704786" lon="11.341416926852323"><ele>667.0</ele><time>2026-04-10T13:04:02Z</time></trkpt><trkpt lat="45.641218444464705" lon="11.341321611878746"><ele>664.75</ele><time>2026-04-10T13:04:03Z</time></trkpt><trkpt lat="45.64133203973322" lon="11.341202082322502"><ele>662.5</ele><time>2026-04-10T13:04:04Z</time></trkpt><trkpt lat="45.641425263618174" lon="11.341033761232506"><ele>660.25</ele><time>2026-04-10T13:04:05Z</time></trkpt><trkpt lat="45.64151185687752" lon="11.340865456773765"><ele>658.0</ele><time>2026-04-10T13:04:06Z</time></trkpt><trkpt lat="45.64160682568893" lon="11.34071802465244"><ele>658.0</ele><time>2026-04-10T13:04:07Z</time></trkpt><trkpt lat="45.641708559624064" lon="11.340574856823103"><ele>658.0</ele><time>2026-04-10T13:04:08Z</time></trkpt><trkpt lat="45.641811200882756" lon="11.340469249350027"><ele>658.0</ele><time>2026-04-10T13:04:09Z</time></trkpt><trkpt lat="45.64190926515381" lon="11.340385055166454"><ele>658.0</ele><time>2026-04-10T13:04:10Z</time></trkpt><trkpt lat="45.641984485149706" lon="11.3402957090189"><ele>659.75</ele><time>2026-04-10T13:04:11Z</time></trkpt><trkpt lat="45.64203542766273" lon="11.340159464088561"><ele>661.5</ele><time>2026-04-10T13:04:12Z</time></trkpt><trkpt lat="45.64203561014733" lon="11.339997978469759"><ele>663.25</ele><time>2026-04-10T13:04:13Z</time></trkpt><trkpt lat="45.64199102201782" lon="11.339821151892505"><ele>665.0</ele><time>2026-04-10T13:04:14Z</time></trkpt><trkpt lat="45.64191445334676" lon="11.33964961638878"><ele>656.5</ele><time>2026-04-10T13:04:15Z</time></trkpt><trkpt lat="45.641827652870205" lon="11.339484029789329"><ele>648.0</ele><time>2026-04-10T13:04:16Z</time></trkpt><trkpt lat="45.641738142464845" lon="11.339329562149537"><ele>639.5</ele><time>2026-04-10T13:04:17Z</time></trkpt><trkpt lat="45.64163758844466" lon="11.339207384091827"><ele>631.0</ele><time>2026-04-10T13:04:18Z</time></trkpt><trkpt lat="45.64155469487395" lon="11.339108289539565"><ele>631.0</ele><time>2026-04-10T13:04:19Z</time></trkpt><trkpt lat="45.64151441575516" lon="11.338986221980011"><ele>631.0</ele><time>2026-04-10T13:04:20Z</time></trkpt><trkpt lat="45.64149779817657" lon="11.338839713507417"><ele>631.0</ele><time>2026-04-10T13:04:21Z</time></trkpt><trkpt lat="45.64144496852063" lon="11.33871308805832"><ele>631.0</ele><time>2026-04-10T13:04:22Z</time></trkpt><trkpt lat="45.64134154511723" lon="11.338630908647724"><ele>631.0</ele><time>2026-04-10T13:04:23Z</time></trkpt><trkpt lat="45.64119923422401" lon="11.338596109888579"><ele>632.75</ele><time>2026-04-10T13:04:24Z</time></trkpt><trkpt lat="45.64104922906345" lon="11.338618110213744"><ele>634.5</ele><time>2026-04-10T13:04:24.999Z</time></trkpt><trkpt lat="45.64091107228519" lon="11.338655418462348"><ele>636.25</ele><time>2026-04-10T13:04:25.999Z</time></trkpt><trkpt lat="45.64077765099146" lon="11.338700413180112"><ele>638.0</ele><time>2026-04-10T13:04:26.999Z</time></trkpt><trkpt lat="45.6406405966875" lon="11.338737402970299"><ele>638.0</ele><time>2026-04-10T13:04:27.999Z</time></trkpt><trkpt lat="45.64052661837783" lon="11.338732052482166"><ele>638.0</ele><time>2026-04-10T13:04:28.999Z</time></trkpt><trkpt lat="45.64041081907551" lon="11.33866881850604"><ele>638.0</ele><time>2026-04-10T13:04:29.999Z</time></trkpt><trkpt lat="45.64029460805734" lon="11.338584228852199"><ele>638.0</ele><time>2026-04-10T13:04:30.999Z</time></trkpt><trkpt lat="45.640185710140955" lon="11.338443940935568"><ele>632.75</ele><time>2026-04-10T13:04:31.999Z</time></trkpt><trkpt lat="45.640066043719564" lon="11.338334553166813"><ele>627.5</ele><time>2026-04-10T13:04:32.999Z</time></trkpt><trkpt lat="45.63997046022801" lon="11.338217966695757"><ele>622.25</ele><time>2026-04-10T13:04:33.999Z</time></trkpt><trkpt lat="45.63990794348941" lon="11.33807399210029"><ele>617.0</ele><time>2026-04-10T13:04:34.999Z</time></trkpt><trkpt lat="45.63986759683716" lon="11.337902700598052"><ele>617.0</ele><time>2026-04-10T13:04:35.999Z</time></trkpt><trkpt lat="45.639823571564314" lon="11.337749154240372"><ele>617.0</ele><time>2026-04-10T13:04:36.999Z</time></trkpt><trkpt lat="45.639778810083705" lon="11.337583729833046"><ele>617.0</ele><time>2026-04-10T13:04:37.999Z</time></trkpt><trkpt lat="45.639751435913645" lon="11.337414527390619"><ele>617.0</ele><time>2026-04-10T13:04:38.999Z</time></trkpt><trkpt lat="45.63972357842552" lon="11.33725013231782"><ele>614.75</ele><time>2026-04-10T13:04:39.999Z</time></trkpt><trkpt lat="45.63969076485542" lon="11.337087355071146"><ele>612.5</ele><time>2026-04-10T13:04:40.999Z</time></trkpt><trkpt lat="45.63967988297652" lon="11.336902642847825"><ele>610.25</ele><time>2026-04-10T13:04:41.999Z</time></trkpt><trkpt lat="45.63968783000993" lon="11.336701680068458"><ele>608.0</ele><time>2026-04-10T13:04:42.999Z</time></trkpt><trkpt lat="45.63968187098382" lon="11.336494316615005"><ele>608.5</ele><time>2026-04-10T13:04:43.999Z</time></trkpt><trkpt lat="45.63964979170982" lon="11.33629053655971"><ele>609.0</ele><time>2026-04-10T13:04:44.999Z</time></trkpt><trkpt lat="45.63960276814822" lon="11.336086547845763"><ele>609.5</ele><time>2026-04-10T13:04:45.999Z</time></trkpt><trkpt lat="45.639553590652596" lon="11.335879923669754"><ele>610.0</ele><time>2026-04-10T13:04:46.999Z</time></trkpt><trkpt lat="45.639528221780715" lon="11.33566130915639"><ele>609.0</ele><time>2026-04-10T13:04:47.999Z</time></trkpt><trkpt lat="45.63951444276205" lon="11.335448816586412"><ele>608.0</ele><time>2026-04-10T13:04:48.999Z</time></trkpt><trkpt lat="45.639501558841374" lon="11.33524259447693"><ele>607.0</ele><time>2026-04-10T13:04:49.999Z</time></trkpt><trkpt lat="45.63948368446331" lon="11.335061739820631"><ele>606.0</ele><time>2026-04-10T13:04:50.999Z</time></trkpt><trkpt lat="45.6394672345944" lon="11.334908202556576"><ele>605.2</ele><time>2026-04-10T13:04:51.999Z</time></trkpt><trkpt lat="45.63945773283704" lon="11.33478767331229"><ele>604.4000000000001</ele><time>2026-04-10T13:04:52.999Z</time></trkpt><trkpt lat="45.63946361207588" lon="11.334678853596142"><ele>603.6</ele><time>2026-04-10T13:04:53.999Z</time></trkpt><trkpt lat="45.6394799810902" lon="11.334564418034603"><ele>602.8000000000001</ele><time>2026-04-10T13:04:54.999Z</time></trkpt><trkpt lat="45.63951349358032" lon="11.334430669119643"><ele>602.0</ele><time>2026-04-10T13:04:55.999Z</time></trkpt><trkpt lat="45.6395460466347" lon="11.33428029280821"><ele>602.0</ele><time>2026-04-10T13:04:56.999Z</time></trkpt><trkpt lat="45.6395626247229" lon="11.334109150098348"><ele>602.0</ele><time>2026-04-10T13:04:57.999Z</time></trkpt><trkpt lat="45.63956821306078" lon="11.333953796797497"><ele>602.0</ele><time>2026-04-10T13:04:58.999Z</time></trkpt><trkpt lat="45.63956392550676" lon="11.333826968924187"><ele>602.0</ele><time>2026-04-10T13:04:59.999Z</time></trkpt><trkpt lat="45.63954829487586" lon="11.333699024110441"><ele>602.0</ele><time>2026-04-10T13:05:00.999Z</time></trkpt><trkpt lat="45.63951032924866" lon="11.33356721581513"><ele>599.25</ele><time>2026-04-10T13:05:01.999Z</time></trkpt><trkpt lat="45.639456405310646" lon="11.33343889592838"><ele>596.5</ele><time>2026-04-10T13:05:02.999Z</time></trkpt><trkpt lat="45.63940636309773" lon="11.333298551357545"><ele>593.75</ele><time>2026-04-10T13:05:03.999Z</time></trkpt><trkpt lat="45.63936732858335" lon="11.333129564221844"><ele>591.0</ele><time>2026-04-10T13:05:04.999Z</time></trkpt><trkpt lat="45.63934318676656" lon="11.332937352917575"><ele>591.0</ele><time>2026-04-10T13:05:05.999Z</time></trkpt><trkpt lat="45.6393268604997" lon="11.332754815119797"><ele>591.0</ele><time>2026-04-10T13:05:06.999Z</time></trkpt><trkpt lat="45.63929555337286" lon="11.332591397076389"><ele>591.0</ele><time>2026-04-10T13:05:07.999Z</time></trkpt><trkpt lat="45.63923468051168" lon="11.332438500804662"><ele>591.0</ele><time>2026-04-10T13:05:08.999Z</time></trkpt><trkpt lat="45.6391565749928" lon="11.332278101810715"><ele>594.0</ele><time>2026-04-10T13:05:09.999Z</time></trkpt><trkpt lat="45.63908662662637" lon="11.33210732973725"><ele>597.0</ele><time>2026-04-10T13:05:10.999Z</time></trkpt><trkpt lat="45.63903066566291" lon="11.331914263804189"><ele>600.0</ele><time>2026-04-10T13:05:11.999Z</time></trkpt><trkpt lat="45.63897955921736" lon="11.331724986545783"><ele>603.0</ele><time>2026-04-10T13:05:12.999Z</time></trkpt><trkpt lat="45.63891814371402" lon="11.331559904014538"><ele>603.0</ele><time>2026-04-10T13:05:13.999Z</time></trkpt><trkpt lat="45.63882891940668" lon="11.331418729466964"><ele>603.0</ele><time>2026-04-10T13:05:14.999Z</time></trkpt><trkpt lat="45.63871914359397" lon="11.331305265885591"><ele>603.0</ele><time>2026-04-10T13:05:15.999Z</time></trkpt><trkpt lat="45.63861985886624" lon="11.331206211310082"><ele>603.0</ele><time>2026-04-10T13:05:16.999Z</time></trkpt><trkpt lat="45.63853976990428" lon="11.331143596863953"><ele>604.1666666666666</ele><time>2026-04-10T13:05:17.999Z</time></trkpt><trkpt lat="45.638467627709105" lon="11.331114612043748"><ele>605.3333333333334</ele><time>2026-04-10T13:05:19Z</time></trkpt><trkpt lat="45.638400327320575" lon="11.331107978832653"><ele>606.5</ele><time>2026-04-10T13:05:20.001Z</time></trkpt><trkpt lat="45.638313800828925" lon="11.331028802115089"><ele>607.6666666666667</ele><time>2026-04-10T13:05:22Z</time></trkpt><trkpt lat="45.63835208487382" lon="11.330882215547637"><ele>608.8333333333334</ele><time>2026-04-10T13:05:24Z</time></trkpt><trkpt lat="45.63841854545384" lon="11.330879410354342"><ele>610.0</ele><time>2026-04-10T13:05:25Z</time></trkpt><trkpt lat="45.6384938048174" lon="11.330904097584575"><ele>610.0</ele><time>2026-04-10T13:05:26Z</time></trkpt><trkpt lat="45.63858061104275" lon="11.330956408180619"><ele>610.0</ele><time>2026-04-10T13:05:27Z</time></trkpt><trkpt lat="45.63868424575688" lon="11.330977982447935"><ele>610.0</ele><time>2026-04-10T13:05:28Z</time></trkpt><trkpt lat="45.638802682722776" lon="11.33094650434702"><ele>610.0</ele><time>2026-04-10T13:05:29Z</time></trkpt><trkpt lat="45.63891209412571" lon="11.330892713906668"><ele>610.0</ele><time>2026-04-10T13:05:30Z</time></trkpt><trkpt lat="45.638999086439014" lon="11.330826318410418"><ele>610.2</ele><time>2026-04-10T13:05:31Z</time></trkpt><trkpt lat="45.63905562223391" lon="11.330728731825152"><ele>610.4</ele><time>2026-04-10T13:05:32Z</time></trkpt><trkpt lat="45.63911282229136" lon="11.330624190075168"><ele>610.6</ele><time>2026-04-10T13:05:33Z</time></trkpt><trkpt lat="45.639198360044695" lon="11.330527173068925"><ele>610.8</ele><time>2026-04-10T13:05:34Z</time></trkpt><trkpt lat="45.639311513138765" lon="11.330449862639789"><ele>611.0</ele><time>2026-04-10T13:05:35Z</time></trkpt><trkpt lat="45.639433613656806" lon="11.330385373323098"><ele>610.75</ele><time>2026-04-10T13:05:36Z</time></trkpt><trkpt lat="45.6395583235838" lon="11.330328741006886"><ele>610.5</ele><time>2026-04-10T13:05:37Z</time></trkpt><trkpt lat="45.63967523158302" lon="11.330243866692628"><ele>610.25</ele><time>2026-04-10T13:05:38Z</time></trkpt><trkpt lat="45.63977810053867" lon="11.330124920059854"><ele>610.0</ele><time>2026-04-10T13:05:39Z</time></trkpt><trkpt lat="45.63987305025272" lon="11.32998382177884"><ele>610.0</ele><time>2026-04-10T13:05:40Z</time></trkpt><trkpt lat="45.63996209953843" lon="11.329851045490265"><ele>610.0</ele><time>2026-04-10T13:05:41Z</time></trkpt><trkpt lat="45.64004864315909" lon="11.329721541623273"><ele>610.0</ele><time>2026-04-10T13:05:42Z</time></trkpt><trkpt lat="45.640147035481405" lon="11.329638473723975"><ele>610.0</ele><time>2026-04-10T13:05:43Z</time></trkpt><trkpt lat="45.64025099665853" lon="11.329599737106104"><ele>610.75</ele><time>2026-04-10T13:05:44Z</time></trkpt><trkpt lat="45.64034015491938" lon="11.329510077362329"><ele>611.5</ele><time>2026-04-10T13:05:45Z</time></trkpt><trkpt lat="45.640425675130466" lon="11.32938612933482"><ele>612.25</ele><time>2026-04-10T13:05:46Z</time></trkpt><trkpt lat="45.64048978898069" lon="11.32923206689659"><ele>613.0</ele><time>2026-04-10T13:05:47Z</time></trkpt><trkpt lat="45.64057159566607" lon="11.3290923320171"><ele>613.0</ele><time>2026-04-10T13:05:48Z</time></trkpt><trkpt lat="45.64066053986531" lon="11.328965682601538"><ele>613.0</ele><time>2026-04-10T13:05:49Z</time></trkpt><trkpt lat="45.640742297172736" lon="11.328842456245823"><ele>613.0</ele><time>2026-04-10T13:05:50Z</time></trkpt><trkpt lat="45.64081161086482" lon="11.328704589008817"><ele>613.0</ele><time>2026-04-10T13:05:51Z</time></trkpt><trkpt lat="45.640859895630285" lon="11.328555530593267"><ele>608.0</ele><time>2026-04-10T13:05:52Z</time></trkpt><trkpt lat="45.64092064751725" lon="11.32842849983838"><ele>603.0</ele><time>2026-04-10T13:05:53Z</time></trkpt><trkpt lat="45.641004956836994" lon="11.328373461783373"><ele>598.0</ele><time>2026-04-10T13:05:54Z</time></trkpt><trkpt lat="45.641096463372754" lon="11.328351539573188"><ele>593.0</ele><time>2026-04-10T13:05:55Z</time></trkpt><trkpt lat="45.641184053142354" lon="11.328383097859852"><ele>588.0</ele><time>2026-04-10T13:05:56Z</time></trkpt><trkpt lat="45.64127861821927" lon="11.328399079191572"><ele>587.25</ele><time>2026-04-10T13:05:57Z</time></trkpt><trkpt lat="45.641388393303366" lon="11.328419214422583"><ele>586.5</ele><time>2026-04-10T13:05:58Z</time></trkpt><trkpt lat="45.64150699410429" lon="11.328443943310438"><ele>585.75</ele><time>2026-04-10T13:05:59Z</time></trkpt><trkpt lat="45.64163272204481" lon="11.328470158256646"><ele>585.0</ele><time>2026-04-10T13:06:00Z</time></trkpt><trkpt lat="45.64176500950441" lon="11.328505701559964"><ele>585.0</ele><time>2026-04-10T13:06:01Z</time></trkpt><trkpt lat="45.64188724820814" lon="11.328556990459195"><ele>585.0</ele><time>2026-04-10T13:06:02Z</time></trkpt><trkpt lat="45.64200098748836" lon="11.32861598827399"><ele>585.0</ele><time>2026-04-10T13:06:03Z</time></trkpt><trkpt lat="45.642105594932474" lon="11.32866859941111"><ele>585.0</ele><time>2026-04-10T13:06:04Z</time></trkpt><trkpt lat="45.64220689470588" lon="11.328687645289707"><ele>583.1666666666666</ele><time>2026-04-10T13:06:05Z</time></trkpt><trkpt lat="45.64229298638777" lon="11.328699967125852"><ele>581.3333333333334</ele><time>2026-04-10T13:06:06Z</time></trkpt><trkpt lat="45.64236582133006" lon="11.328702555526576"><ele>579.5</ele><time>2026-04-10T13:06:07Z</time></trkpt><trkpt lat="45.642442864736914" lon="11.328681189202761"><ele>577.6666666666667</ele><time>2026-04-10T13:06:08Z</time></trkpt><trkpt lat="45.642517485330345" lon="11.32864651472257"><ele>575.8333333333334</ele><time>2026-04-10T13:06:09Z</time></trkpt><trkpt lat="45.64259973046712" lon="11.328607330773153"><ele>574.0</ele><time>2026-04-10T13:06:10Z</time></trkpt><trkpt lat="45.64270005679872" lon="11.328560495982892"><ele>575.0</ele><time>2026-04-10T13:06:11Z</time></trkpt><trkpt lat="45.642803946004086" lon="11.328510216178717"><ele>576.0</ele><time>2026-04-10T13:06:12Z</time></trkpt><trkpt lat="45.64291085398394" lon="11.328469805121179"><ele>577.0</ele><time>2026-04-10T13:06:13Z</time></trkpt><trkpt lat="45.64302240375539" lon="11.328426407497359"><ele>578.0</ele><time>2026-04-10T13:06:14Z</time></trkpt><trkpt lat="45.643131402097424" lon="11.328381907317853"><ele>579.0</ele><time>2026-04-10T13:06:15Z</time></trkpt><trkpt lat="45.64324374411864" lon="11.328357895566702"><ele>579.0</ele><time>2026-04-10T13:06:16Z</time></trkpt><trkpt lat="45.64336153224007" lon="11.328350694198237"><ele>579.0</ele><time>2026-04-10T13:06:17Z</time></trkpt><trkpt lat="45.643467639601546" lon="11.328357392255738"><ele>579.0</ele><time>2026-04-10T13:06:18Z</time></trkpt><trkpt lat="45.64355597387879" lon="11.328359554880116"><ele>579.0</ele><time>2026-04-10T13:06:19Z</time></trkpt><trkpt lat="45.64366373517971" lon="11.328357851407917"><ele>579.0</ele><time>2026-04-10T13:06:20Z</time></trkpt><trkpt lat="45.64378530408169" lon="11.32835718547915"><ele>579.75</ele><time>2026-04-10T13:06:21Z</time></trkpt><trkpt lat="45.643905196661464" lon="11.328351518523647"><ele>580.5</ele><time>2026-04-10T13:06:22Z</time></trkpt><trkpt lat="45.6440214927564" lon="11.328341808575832"><ele>581.25</ele><time>2026-04-10T13:06:23Z</time></trkpt><trkpt lat="45.64413211644238" lon="11.328344130214996"><ele>582.0</ele><time>2026-04-10T13:06:24Z</time></trkpt><trkpt lat="45.64424329234833" lon="11.328383939190884"><ele>582.0</ele><time>2026-04-10T13:06:25Z</time></trkpt><trkpt lat="45.64434900786571" lon="11.328414986766843"><ele>582.0</ele><time>2026-04-10T13:06:26Z</time></trkpt><trkpt lat="45.64445875700172" lon="11.32843874230106"><ele>582.0</ele><time>2026-04-10T13:06:27Z</time></trkpt><trkpt lat="45.6445645680066" lon="11.328508406162603"><ele>582.0</ele><time>2026-04-10T13:06:28Z</time></trkpt><trkpt lat="45.64467295699951" lon="11.328522170378928"><ele>582.0</ele><time>2026-04-10T13:06:29Z</time></trkpt><trkpt lat="45.644763981564616" lon="11.328545559296426"><ele>582.8000000000001</ele><time>2026-04-10T13:06:30Z</time></trkpt><trkpt lat="45.64485137021471" lon="11.3285529085884"><ele>583.6</ele><time>2026-04-10T13:06:31Z</time></trkpt><trkpt lat="45.64494321910824" lon="11.328529728313738"><ele>584.4000000000001</ele><time>2026-04-10T13:06:32Z</time></trkpt><trkpt lat="45.6450362195761" lon="11.328472164640774"><ele>585.2</ele><time>2026-04-10T13:06:33Z</time></trkpt><trkpt lat="45.6451281111097" lon="11.328393949001542"><ele>586.0</ele><time>2026-04-10T13:06:34Z</time></trkpt><trkpt lat="45.64520744973833" lon="11.32832248229297"><ele>586.0</ele><time>2026-04-10T13:06:35Z</time></trkpt><trkpt lat="45.64527996543203" lon="11.328267153646275"><ele>586.0</ele><time>2026-04-10T13:06:36Z</time></trkpt><trkpt lat="45.645338017374854" lon="11.328215198720967"><ele>586.0</ele><time>2026-04-10T13:06:37Z</time></trkpt><trkpt lat="45.6453755562135" lon="11.328126573592401"><ele>586.0</ele><time>2026-04-10T13:06:38Z</time></trkpt><trkpt lat="45.645386346593405" lon="11.32802521615176"><ele>586.0</ele><time>2026-04-10T13:06:39Z</time></trkpt><trkpt lat="45.64537625867286" lon="11.327889874416377"><ele>586.0</ele><time>2026-04-10T13:06:39.999Z</time></trkpt><trkpt lat="45.64536469258247" lon="11.32773625608172"><ele>585.8333333333334</ele><time>2026-04-10T13:06:40.999Z</time></trkpt><trkpt lat="45.645363019719845" lon="11.327614702467066"><ele>585.6666666666667</ele><time>2026-04-10T13:06:41.999Z</time></trkpt><trkpt lat="45.64537988720815" lon="11.327506791051974"><ele>585.5</ele><time>2026-04-10T13:06:42.999Z</time></trkpt><trkpt lat="45.64541528948579" lon="11.327397787907557"><ele>585.3333333333334</ele><time>2026-04-10T13:06:43.999Z</time></trkpt><trkpt lat="45.64550042338625" lon="11.327335772540371"><ele>585.1666666666666</ele><time>2026-04-10T13:06:44.999Z</time></trkpt><trkpt lat="45.64558275009348" lon="11.32726176586365"><ele>585.0</ele><time>2026-04-10T13:06:45.999Z</time></trkpt><trkpt lat="45.645672423484875" lon="11.327164174446175"><ele>583.8</ele><time>2026-04-10T13:06:46.999Z</time></trkpt><trkpt lat="45.645780203188664" lon="11.327088508206117"><ele>582.6</ele><time>2026-04-10T13:06:47.999Z</time></trkpt><trkpt lat="45.64588281094899" lon="11.327021930836787"><ele>581.4</ele><time>2026-04-10T13:06:48.999Z</time></trkpt><trkpt lat="45.64598285351794" lon="11.32699986593797"><ele>580.2</ele><time>2026-04-10T13:06:49.999Z</time></trkpt><trkpt lat="45.646082648342336" lon="11.326979888843368"><ele>579.0</ele><time>2026-04-10T13:06:50.999Z</time></trkpt><trkpt lat="45.64618670734072" lon="11.326983497786125"><ele>579.0</ele><time>2026-04-10T13:06:51.999Z</time></trkpt><trkpt lat="45.64628397044194" lon="11.32700395110923"><ele>579.0</ele><time>2026-04-10T13:06:52.999Z</time></trkpt><trkpt lat="45.64636795264953" lon="11.327038818870873"><ele>579.0</ele><time>2026-04-10T13:06:53.999Z</time></trkpt><trkpt lat="45.646440464286236" lon="11.327094418411077"><ele>579.0</ele><time>2026-04-10T13:06:54.999Z</time></trkpt><trkpt lat="45.64651122358236" lon="11.327198437357206"><ele>579.0</ele><time>2026-04-10T13:06:55.999Z</time></trkpt><trkpt lat="45.6465979547638" lon="11.327240051248829"><ele>579.0</ele><time>2026-04-10T13:06:56.999Z</time></trkpt><trkpt lat="45.64666850698019" lon="11.327286311485505"><ele>579.0</ele><time>2026-04-10T13:06:57.999Z</time></trkpt><trkpt lat="45.646735392218126" lon="11.327287422882355"><ele>579.0</ele><time>2026-04-10T13:06:58.999Z</time></trkpt><trkpt lat="45.64681875826303" lon="11.327260352758504"><ele>579.0</ele><time>2026-04-10T13:06:59.999Z</time></trkpt><trkpt lat="45.646921817357004" lon="11.327184742060178"><ele>579.0</ele><time>2026-04-10T13:07:00.999Z</time></trkpt><trkpt lat="45.6470205079527" lon="11.32709240392145"><ele>580.25</ele><time>2026-04-10T13:07:01.999Z</time></trkpt><trkpt lat="45.64712951288837" lon="11.326990908361145"><ele>581.5</ele><time>2026-04-10T13:07:02.999Z</time></trkpt><trkpt lat="45.64722921993616" lon="11.326865792325469"><ele>582.75</ele><time>2026-04-10T13:07:03.999Z</time></trkpt><trkpt lat="45.64730833363211" lon="11.326739023012209"><ele>584.0</ele><time>2026-04-10T13:07:04.999Z</time></trkpt><trkpt lat="45.647363765453065" lon="11.32663316446183"><ele>584.0</ele><time>2026-04-10T13:07:05.999Z</time></trkpt><trkpt lat="45.64740604715558" lon="11.326546546350547"><ele>584.0</ele><time>2026-04-10T13:07:06.999Z</time></trkpt><trkpt lat="45.647416426932544" lon="11.326454516232875"><ele>584.0</ele><time>2026-04-10T13:07:07.999Z</time></trkpt><trkpt lat="45.64731680242511" lon="11.326356636864372"><ele>584.0</ele><time>2026-04-10T13:07:09.999Z</time></trkpt><trkpt lat="45.647230522576436" lon="11.326364436012463"><ele>584.0</ele><time>2026-04-10T13:07:10.999Z</time></trkpt><trkpt lat="45.647134220967" lon="11.326404045685441"><ele>584.0</ele><time>2026-04-10T13:07:11.999Z</time></trkpt><trkpt lat="45.647028543931405" lon="11.32644571057884"><ele>583.4</ele><time>2026-04-10T13:07:12.999Z</time></trkpt><trkpt lat="45.646918546266605" lon="11.326423171823716"><ele>582.8</ele><time>2026-04-10T13:07:13.999Z</time></trkpt><trkpt lat="45.6468111768262" lon="11.326443161998622"><ele>582.2</ele><time>2026-04-10T13:07:14.999Z</time></trkpt><trkpt lat="45.646716082044136" lon="11.32642227358259"><ele>581.6</ele><time>2026-04-10T13:07:15.999Z</time></trkpt><trkpt lat="45.646637426438566" lon="11.326369244361631"><ele>581.0</ele><time>2026-04-10T13:07:16.999Z</time></trkpt><trkpt lat="45.64657365869216" lon="11.3262653012438"><ele>581.0</ele><time>2026-04-10T13:07:17.999Z</time></trkpt><trkpt lat="45.64650730945921" lon="11.326170203457401"><ele>581.0</ele><time>2026-04-10T13:07:18.999Z</time></trkpt><trkpt lat="45.64645974576715" lon="11.326083166078936"><ele>581.0</ele><time>2026-04-10T13:07:19.999Z</time></trkpt><trkpt lat="45.646406434990425" lon="11.325946355136947"><ele>581.0</ele><time>2026-04-10T13:07:21.999Z</time></trkpt><trkpt lat="45.6465005072766" lon="11.325825483217393"><ele>581.0</ele><time>2026-04-10T13:07:22.999Z</time></trkpt><trkpt lat="45.64653770638575" lon="11.325720500502312"><ele>581.0</ele><time>2026-04-10T13:07:23.999Z</time></trkpt><trkpt lat="45.646571327196" lon="11.325595278671306"><ele>581.0</ele><time>2026-04-10T13:07:25Z</time></trkpt><trkpt lat="45.64659017825732" lon="11.325467822150925"><ele>581.0</ele><time>2026-04-10T13:07:26Z</time></trkpt><trkpt lat="45.64661560507903" lon="11.325376372266785"><ele>581.0</ele><time>2026-04-10T13:07:27Z</time></trkpt><trkpt lat="45.64663371574537" lon="11.325284793855158"><ele>581.0</ele><time>2026-04-10T13:07:29Z</time></trkpt><trkpt lat="45.64656318311421" lon="11.325201407423494"><ele>581.0</ele><time>2026-04-10T13:07:31Z</time></trkpt><trkpt lat="45.646484754721996" lon="11.325183634765978"><ele>581.8</ele><time>2026-04-10T13:07:32Z</time></trkpt><trkpt lat="45.64639796546498" lon="11.325148189690239"><ele>582.6</ele><time>2026-04-10T13:07:33Z</time></trkpt><trkpt lat="45.64630362148471" lon="11.325071838993395"><ele>583.4</ele><time>2026-04-10T13:07:34Z</time></trkpt><trkpt lat="45.64624809821033" lon="11.324946672088842"><ele>584.2</ele><time>2026-04-10T13:07:35Z</time></trkpt><trkpt lat="45.64618362483458" lon="11.324840402139737"><ele>585.0</ele><time>2026-04-10T13:07:36Z</time></trkpt><trkpt lat="45.64612801501938" lon="11.324740898001318"><ele>581.5</ele><time>2026-04-10T13:07:37Z</time></trkpt><trkpt lat="45.646066197521876" lon="11.32463280200907"><ele>578.0</ele><time>2026-04-10T13:07:38Z</time></trkpt><trkpt lat="45.64598221719905" lon="11.324529136044655"><ele>574.5</ele><time>2026-04-10T13:07:39Z</time></trkpt><trkpt lat="45.645869132382394" lon="11.324450741819852"><ele>571.0</ele><time>2026-04-10T13:07:40Z</time></trkpt><trkpt lat="45.645727674092996" lon="11.324401873375523"><ele>571.0</ele><time>2026-04-10T13:07:41Z</time></trkpt><trkpt lat="45.64558263254386" lon="11.32434228687559"><ele>571.0</ele><time>2026-04-10T13:07:42Z</time></trkpt><trkpt lat="45.64544730525097" lon="11.324267981024393"><ele>571.0</ele><time>2026-04-10T13:07:43Z</time></trkpt><trkpt lat="45.645298889951" lon="11.324236380411895"><ele>571.0</ele><time>2026-04-10T13:07:44Z</time></trkpt><trkpt lat="45.64515479472404" lon="11.324226780676325"><ele>569.0</ele><time>2026-04-10T13:07:45Z</time></trkpt><trkpt lat="45.64503392409276" lon="11.32415858403568"><ele>567.0</ele><time>2026-04-10T13:07:46Z</time></trkpt><trkpt lat="45.64491301476094" lon="11.324097115940672"><ele>565.0</ele><time>2026-04-10T13:07:47Z</time></trkpt><trkpt lat="45.64480871561405" lon="11.324044399652179"><ele>563.0</ele><time>2026-04-10T13:07:48Z</time></trkpt><trkpt lat="45.64473197108489" lon="11.323984366614557"><ele>563.0</ele><time>2026-04-10T13:07:49Z</time></trkpt><trkpt lat="45.644680079640885" lon="11.323909595341442"><ele>563.0</ele><time>2026-04-10T13:07:50Z</time></trkpt><trkpt lat="45.64464590618322" lon="11.323795263925156"><ele>563.0</ele><time>2026-04-10T13:07:51Z</time></trkpt><trkpt lat="45.64463000149506" lon="11.323649686030524"><ele>563.0</ele><time>2026-04-10T13:07:52Z</time></trkpt><trkpt lat="45.64461233468855" lon="11.323482050141953"><ele>563.0</ele><time>2026-04-10T13:07:53Z</time></trkpt><trkpt lat="45.64459848851088" lon="11.323315654864626"><ele>562.0</ele><time>2026-04-10T13:07:54Z</time></trkpt><trkpt lat="45.644590123925234" lon="11.323150083517016"><ele>561.0</ele><time>2026-04-10T13:07:55Z</time></trkpt><trkpt lat="45.644593371848046" lon="11.323003175618648"><ele>560.0</ele><time>2026-04-10T13:07:56Z</time></trkpt><trkpt lat="45.64463051766255" lon="11.322861527692293"><ele>559.0</ele><time>2026-04-10T13:07:57Z</time></trkpt><trkpt lat="45.644714032993946" lon="11.32276426973597"><ele>558.0</ele><time>2026-04-10T13:07:58Z</time></trkpt><trkpt lat="45.64479120191838" lon="11.322653848407645"><ele>556.5</ele><time>2026-04-10T13:07:59Z</time></trkpt><trkpt lat="45.64485604618954" lon="11.322547393743632"><ele>555.0</ele><time>2026-04-10T13:08:00Z</time></trkpt><trkpt lat="45.644914596133404" lon="11.322473681804684"><ele>553.5</ele><time>2026-04-10T13:08:01Z</time></trkpt><trkpt lat="45.64495125723018" lon="11.322400381276832"><ele>552.0</ele><time>2026-04-10T13:08:02Z</time></trkpt><trkpt lat="45.64495996841829" lon="11.322310102757553"><ele>550.5</ele><time>2026-04-10T13:08:03Z</time></trkpt><trkpt lat="45.64491618727452" lon="11.322218388503174"><ele>549.0</ele><time>2026-04-10T13:08:04Z</time></trkpt><trkpt lat="45.644827380695276" lon="11.322166130502973"><ele>545.0</ele><time>2026-04-10T13:08:05Z</time></trkpt><trkpt lat="45.644705629346824" lon="11.322173279575184"><ele>541.0</ele><time>2026-04-10T13:08:06Z</time></trkpt><trkpt lat="45.64458101136912" lon="11.32220080125187"><ele>537.0</ele><time>2026-04-10T13:08:07Z</time></trkpt><trkpt lat="45.644458370123765" lon="11.32215538965263"><ele>533.0</ele><time>2026-04-10T13:08:08Z</time></trkpt><trkpt lat="45.64435582883997" lon="11.322055479998458"><ele>532.5</ele><time>2026-04-10T13:08:09Z</time></trkpt><trkpt lat="45.64425426265672" lon="11.321963082940872"><ele>532.0</ele><time>2026-04-10T13:08:10Z</time></trkpt><trkpt lat="45.64415223234751" lon="11.321901917137053"><ele>531.5</ele><time>2026-04-10T13:08:11Z</time></trkpt><trkpt lat="45.644048579375735" lon="11.321867485165484"><ele>531.0</ele><time>2026-04-10T13:08:12Z</time></trkpt><trkpt lat="45.643932554383" lon="11.32186937708087"><ele>531.0</ele><time>2026-04-10T13:08:13Z</time></trkpt><trkpt lat="45.64381905065785" lon="11.321868057449132"><ele>531.0</ele><time>2026-04-10T13:08:14Z</time></trkpt><trkpt lat="45.643717008158525" lon="11.321863338028326"><ele>531.0</ele><time>2026-04-10T13:08:15Z</time></trkpt><trkpt lat="45.64362795205284" lon="11.321799600426184"><ele>531.0</ele><time>2026-04-10T13:08:16Z</time></trkpt><trkpt lat="45.64354437413291" lon="11.321725485691328"><ele>531.0</ele><time>2026-04-10T13:08:17Z</time></trkpt><trkpt lat="45.64347634412376" lon="11.321635989964888"><ele>529.6666666666666</ele><time>2026-04-10T13:08:18Z</time></trkpt><trkpt lat="45.6434148471359" lon="11.321581512576447"><ele>528.3333333333334</ele><time>2026-04-10T13:08:19Z</time></trkpt><trkpt lat="45.64335175230041" lon="11.321564326146724"><ele>527.0</ele><time>2026-04-10T13:08:20Z</time></trkpt><trkpt lat="45.64328655821238" lon="11.321625696999433"><ele>525.6666666666667</ele><time>2026-04-10T13:08:21Z</time></trkpt><trkpt lat="45.64325510900173" lon="11.321739615411511"><ele>524.3333333333334</ele><time>2026-04-10T13:08:22Z</time></trkpt><trkpt lat="45.64325177847536" lon="11.321887075260332"><ele>523.0</ele><time>2026-04-10T13:08:23Z</time></trkpt><trkpt lat="45.64326895324562" lon="11.32201429155945"><ele>523.0</ele><time>2026-04-10T13:08:24Z</time></trkpt><trkpt lat="45.643238606879294" lon="11.322112148802418"><ele>523.0</ele><time>2026-04-10T13:08:25Z</time></trkpt><trkpt lat="45.643173015182484" lon="11.322141027337546"><ele>523.0</ele><time>2026-04-10T13:08:26Z</time></trkpt><trkpt lat="45.64310365726787" lon="11.32207842471035"><ele>523.0</ele><time>2026-04-10T13:08:27Z</time></trkpt><trkpt lat="45.643059275497336" lon="11.321988979815783"><ele>523.0</ele><time>2026-04-10T13:08:28Z</time></trkpt><trkpt lat="45.643046646820466" lon="11.321885477025742"><ele>523.0</ele><time>2026-04-10T13:08:29Z</time></trkpt><trkpt lat="45.64305401196897" lon="11.32173463040101"><ele>523.0</ele><time>2026-04-10T13:08:30Z</time></trkpt><trkpt lat="45.6430764331574" lon="11.321579921690162"><ele>523.0</ele><time>2026-04-10T13:08:31Z</time></trkpt><trkpt lat="45.64308466970428" lon="11.321404593637453"><ele>523.0</ele><time>2026-04-10T13:08:32Z</time></trkpt><trkpt lat="45.64310511981558" lon="11.321261270889698"><ele>523.0</ele><time>2026-04-10T13:08:33Z</time></trkpt><trkpt lat="45.64312920388236" lon="11.321124404609472"><ele>523.0</ele><time>2026-04-10T13:08:34Z</time></trkpt><trkpt lat="45.64314934653843" lon="11.321003188283939"><ele>521.75</ele><time>2026-04-10T13:08:35Z</time></trkpt><trkpt lat="45.6431852205834" lon="11.320913073730255"><ele>520.5</ele><time>2026-04-10T13:08:36Z</time></trkpt><trkpt lat="45.64311972129543" lon="11.32081162972873"><ele>519.25</ele><time>2026-04-10T13:08:37.999Z</time></trkpt><trkpt lat="45.64300472383029" lon="11.321003501893905"><ele>518.0</ele><time>2026-04-10T13:08:39.999Z</time></trkpt><trkpt lat="45.64294673588194" lon="11.321145744270254"><ele>518.0</ele><time>2026-04-10T13:08:40.999Z</time></trkpt><trkpt lat="45.64287284371363" lon="11.321243616393929"><ele>518.0</ele><time>2026-04-10T13:08:41.999Z</time></trkpt><trkpt lat="45.64279078033371" lon="11.321347289888065"><ele>518.0</ele><time>2026-04-10T13:08:42.999Z</time></trkpt><trkpt lat="45.64272254649176" lon="11.321489070983688"><ele>518.0</ele><time>2026-04-10T13:08:43.999Z</time></trkpt><trkpt lat="45.642653794061545" lon="11.321642569323974"><ele>515.0</ele><time>2026-04-10T13:08:44.999Z</time></trkpt><trkpt lat="45.64259180640031" lon="11.32179497343309"><ele>512.0</ele><time>2026-04-10T13:08:45.999Z</time></trkpt><trkpt lat="45.642530694426824" lon="11.321930853533502"><ele>509.0</ele><time>2026-04-10T13:08:46.999Z</time></trkpt><trkpt lat="45.64247051486359" lon="11.322067052868398"><ele>506.0</ele><time>2026-04-10T13:08:47.999Z</time></trkpt><trkpt lat="45.6424270837621" lon="11.322207855859796"><ele>506.0</ele><time>2026-04-10T13:08:48.999Z</time></trkpt><trkpt lat="45.6423814237465" lon="11.322304357398183"><ele>506.0</ele><time>2026-04-10T13:08:49.999Z</time></trkpt><trkpt lat="45.64229883825845" lon="11.322399414029109"><ele>506.0</ele><time>2026-04-10T13:08:51.999Z</time></trkpt><trkpt lat="45.64224395228058" lon="11.322279257375556"><ele>506.0</ele><time>2026-04-10T13:08:52.999Z</time></trkpt><trkpt lat="45.642197089726544" lon="11.322153557090983"><ele>506.0</ele><time>2026-04-10T13:08:53.999Z</time></trkpt><trkpt lat="45.64210048859557" lon="11.322024375746194"><ele>506.0</ele><time>2026-04-10T13:08:54.999Z</time></trkpt><trkpt lat="45.641985764369494" lon="11.321921234241579"><ele>506.0</ele><time>2026-04-10T13:08:55.999Z</time></trkpt><trkpt lat="45.641879800725455" lon="11.321826267990337"><ele>506.0</ele><time>2026-04-10T13:08:56.999Z</time></trkpt><trkpt lat="45.641777231449595" lon="11.321754669037638"><ele>506.0</ele><time>2026-04-10T13:08:57.999Z</time></trkpt><trkpt lat="45.641676713091385" lon="11.321722090667627"><ele>503.20000000000005</ele><time>2026-04-10T13:08:58.999Z</time></trkpt><trkpt lat="45.641596796093516" lon="11.32173626197801"><ele>500.40000000000003</ele><time>2026-04-10T13:08:59.999Z</time></trkpt><trkpt lat="45.641559936446015" lon="11.32160424499195"><ele>497.6</ele><time>2026-04-10T13:09:01.999Z</time></trkpt><trkpt lat="45.6416086223015" lon="11.321513779110202"><ele>494.8</ele><time>2026-04-10T13:09:02.999Z</time></trkpt><trkpt lat="45.64172038346569" lon="11.321528988400186"><ele>492.0</ele><time>2026-04-10T13:09:03.999Z</time></trkpt><trkpt lat="45.64181974526734" lon="11.321460938447418"><ele>488.0</ele><time>2026-04-10T13:09:04.999Z</time></trkpt><trkpt lat="45.64189610662912" lon="11.32135941723962"><ele>484.0</ele><time>2026-04-10T13:09:05.999Z</time></trkpt><trkpt lat="45.64191818466468" lon="11.321196453728884"><ele>480.0</ele><time>2026-04-10T13:09:06.999Z</time></trkpt><trkpt lat="45.64189402320724" lon="11.321010748229867"><ele>476.0</ele><time>2026-04-10T13:09:07.999Z</time></trkpt><trkpt lat="45.64187275424789" lon="11.320844535728869"><ele>476.0</ele><time>2026-04-10T13:09:08.999Z</time></trkpt><trkpt lat="45.64190009567731" lon="11.320701701194476"><ele>476.0</ele><time>2026-04-10T13:09:09.999Z</time></trkpt><trkpt lat="45.64200964250593" lon="11.320626398799236"><ele>476.0</ele><time>2026-04-10T13:09:10.999Z</time></trkpt><trkpt lat="45.64206039200856" lon="11.320505646752084"><ele>476.0</ele><time>2026-04-10T13:09:11.999Z</time></trkpt><trkpt lat="45.642117056224606" lon="11.320356073021845"><ele>476.0</ele><time>2026-04-10T13:09:12.999Z</time></trkpt><trkpt lat="45.642124433794045" lon="11.320167450798364"><ele>477.6</ele><time>2026-04-10T13:09:13.999Z</time></trkpt><trkpt lat="45.6421180011895" lon="11.3199978709941"><ele>479.20000000000005</ele><time>2026-04-10T13:09:14.999Z</time></trkpt><trkpt lat="45.642126649503005" lon="11.319874086678228"><ele>480.79999999999995</ele><time>2026-04-10T13:09:15.999Z</time></trkpt><trkpt lat="45.64216319865806" lon="11.31978697319951"><ele>482.4</ele><time>2026-04-10T13:09:16.999Z</time></trkpt><trkpt lat="45.64225708076415" lon="11.319789629208133"><ele>484.0</ele><time>2026-04-10T13:09:17.999Z</time></trkpt><trkpt lat="45.64236118639311" lon="11.31973582404575"><ele>480.0</ele><time>2026-04-10T13:09:18.999Z</time></trkpt><trkpt lat="45.64246139712199" lon="11.319643350570711"><ele>476.0</ele><time>2026-04-10T13:09:19.999Z</time></trkpt><trkpt lat="45.64254093086964" lon="11.319503018179816"><ele>472.0</ele><time>2026-04-10T13:09:20.999Z</time></trkpt><trkpt lat="45.642610425501736" lon="11.319342645973016"><ele>468.0</ele><time>2026-04-10T13:09:21.999Z</time></trkpt><trkpt lat="45.64267660056627" lon="11.319205781473821"><ele>468.0</ele><time>2026-04-10T13:09:22.999Z</time></trkpt><trkpt lat="45.642745561941446" lon="11.319072440466215"><ele>467.99999999999994</ele><time>2026-04-10T13:09:23.999Z</time></trkpt><trkpt lat="45.64280504957191" lon="11.318958975036898"><ele>467.99999999999994</ele><time>2026-04-10T13:09:24.999Z</time></trkpt><trkpt lat="45.642863704997005" lon="11.318846555776963"><ele>468.0</ele><time>2026-04-10T13:09:25.999Z</time></trkpt><trkpt lat="45.64290151972469" lon="11.318761998953198"><ele>468.0</ele><time>2026-04-10T13:09:26.999Z</time></trkpt><trkpt lat="45.64289160940779" lon="11.318605734568509"><ele>464.75</ele><time>2026-04-10T13:09:28.999Z</time></trkpt><trkpt lat="45.642777146542976" lon="11.318555009621948"><ele>461.5</ele><time>2026-04-10T13:09:29.999Z</time></trkpt><trkpt lat="45.64265396284323" lon="11.318564768337808"><ele>458.25</ele><time>2026-04-10T13:09:31Z</time></trkpt><trkpt lat="45.642518891542444" lon="11.318614343964539"><ele>455.0</ele><time>2026-04-10T13:09:32Z</time></trkpt><trkpt lat="45.642407286769185" lon="11.318698793710276"><ele>455.0</ele><time>2026-04-10T13:09:33Z</time></trkpt><trkpt lat="45.642323970245194" lon="11.318827578012842"><ele>455.0</ele><time>2026-04-10T13:09:34Z</time></trkpt><trkpt lat="45.64227697548231" lon="11.318980816618208"><ele>455.0</ele><time>2026-04-10T13:09:35Z</time></trkpt><trkpt lat="45.64220963455135" lon="11.319100162362538"><ele>455.0</ele><time>2026-04-10T13:09:36Z</time></trkpt><trkpt lat="45.642095006997515" lon="11.319083794928451"><ele>456.75</ele><time>2026-04-10T13:09:37Z</time></trkpt><trkpt lat="45.64199055928439" lon="11.319018295584671"><ele>458.5</ele><time>2026-04-10T13:09:38Z</time></trkpt><trkpt lat="45.64185744669575" lon="11.31899056653021"><ele>460.25</ele><time>2026-04-10T13:09:39Z</time></trkpt><trkpt lat="45.64171866464443" lon="11.318985921579051"><ele>462.0</ele><time>2026-04-10T13:09:40Z</time></trkpt><trkpt lat="45.64157201882997" lon="11.318968520349799"><ele>462.0</ele><time>2026-04-10T13:09:41Z</time></trkpt><trkpt lat="45.641427505383035" lon="11.318965176466232"><ele>462.0</ele><time>2026-04-10T13:09:42Z</time></trkpt><trkpt lat="45.641277811649736" lon="11.318969478068247"><ele>462.0</ele><time>2026-04-10T13:09:43Z</time></trkpt><trkpt lat="45.64109265528724" lon="11.31900718782446"><ele>456.66666666666663</ele><time>2026-04-10T13:09:44Z</time></trkpt><trkpt lat="45.640944473522" lon="11.31907381623979"><ele>451.3333333333333</ele><time>2026-04-10T13:09:45Z</time></trkpt><trkpt lat="45.640800088582424" lon="11.319131946010344"><ele>446.0</ele><time>2026-04-10T13:09:46Z</time></trkpt><trkpt lat="45.64065688942125" lon="11.319186386178442"><ele>446.0</ele><time>2026-04-10T13:09:47Z</time></trkpt><trkpt lat="45.64056087236356" lon="11.319229505607213"><ele>446.0</ele><time>2026-04-10T13:09:48Z</time></trkpt><trkpt lat="45.64048954720342" lon="11.319292505861585"><ele>446.0</ele><time>2026-04-10T13:09:49Z</time></trkpt><trkpt lat="45.64042925280862" lon="11.31940389194359"><ele>446.0</ele><time>2026-04-10T13:09:50Z</time></trkpt><trkpt lat="45.640399249688784" lon="11.319581339199795"><ele>446.0</ele><time>2026-04-10T13:09:51Z</time></trkpt><trkpt lat="45.64036358719409" lon="11.319769216806444"><ele>444.0</ele><time>2026-04-10T13:09:52Z</time></trkpt><trkpt lat="45.64034279535411" lon="11.319931463819591"><ele>442.0</ele><time>2026-04-10T13:09:53Z</time></trkpt><trkpt lat="45.64032696988252" lon="11.320049733037271"><ele>440.0</ele><time>2026-04-10T13:09:54Z</time></trkpt><trkpt lat="45.640268710635624" lon="11.320136413415062"><ele>438.0</ele><time>2026-04-10T13:09:56Z</time></trkpt><trkpt lat="45.64023235328255" lon="11.31995518582501"><ele>436.0</ele><time>2026-04-10T13:09:58Z</time></trkpt><trkpt lat="45.64029111484347" lon="11.319811041257813"><ele>438.5</ele><time>2026-04-10T13:09:59Z</time></trkpt><trkpt lat="45.64032458966891" lon="11.319630157638654"><ele>441.0</ele><time>2026-04-10T13:10:00Z</time></trkpt><trkpt lat="45.64033716922809" lon="11.31944711624086"><ele>443.5</ele><time>2026-04-10T13:10:01Z</time></trkpt><trkpt lat="45.64032502753648" lon="11.319253354019278"><ele>446.0</ele><time>2026-04-10T13:10:02Z</time></trkpt><trkpt lat="45.640336188503525" lon="11.319115110584544"><ele>446.0</ele><time>2026-04-10T13:10:03Z</time></trkpt><trkpt lat="45.64040082566429" lon="11.319042895357326"><ele>446.0</ele><time>2026-04-10T13:10:04Z</time></trkpt><trkpt lat="45.64048937175432" lon="11.318981265370095"><ele>446.0</ele><time>2026-04-10T13:10:05Z</time></trkpt><trkpt lat="45.64058619684603" lon="11.318873800793034"><ele>446.0</ele><time>2026-04-10T13:10:06Z</time></trkpt><trkpt lat="45.64069172279261" lon="11.318763114665556"><ele>446.0</ele><time>2026-04-10T13:10:07Z</time></trkpt><trkpt lat="45.640775683146714" lon="11.318584295500555"><ele>441.0</ele><time>2026-04-10T13:10:08Z</time></trkpt><trkpt lat="45.64082503763676" lon="11.318375203553597"><ele>436.0</ele><time>2026-04-10T13:10:09Z</time></trkpt><trkpt lat="45.64084472365054" lon="11.318173129395294"><ele>431.0</ele><time>2026-04-10T13:10:10Z</time></trkpt><trkpt lat="45.64086715827771" lon="11.31800517127242"><ele>426.0</ele><time>2026-04-10T13:10:11Z</time></trkpt><trkpt lat="45.64091560350639" lon="11.317892894415065"><ele>424.25</ele><time>2026-04-10T13:10:12Z</time></trkpt><trkpt lat="45.64102822934435" lon="11.31786313057467"><ele>422.5</ele><time>2026-04-10T13:10:13Z</time></trkpt><trkpt lat="45.64116107548689" lon="11.31781735615491"><ele>420.75</ele><time>2026-04-10T13:10:14Z</time></trkpt><trkpt lat="45.64131554488768" lon="11.317753809062177"><ele>419.0</ele><time>2026-04-10T13:10:15Z</time></trkpt><trkpt lat="45.64147722162731" lon="11.317691889926273"><ele>419.0</ele><time>2026-04-10T13:10:16Z</time></trkpt><trkpt lat="45.64162454946324" lon="11.317605717001546"><ele>419.0</ele><time>2026-04-10T13:10:17Z</time></trkpt><trkpt lat="45.64173402024174" lon="11.317447783646577"><ele>419.0</ele><time>2026-04-10T13:10:18Z</time></trkpt><trkpt lat="45.641850111180354" lon="11.317329386702523"><ele>420.25</ele><time>2026-04-10T13:10:19Z</time></trkpt><trkpt lat="45.641966467317665" lon="11.31722117186185"><ele>421.5</ele><time>2026-04-10T13:10:20Z</time></trkpt><trkpt lat="45.64210307523643" lon="11.31724222963467"><ele>422.75</ele><time>2026-04-10T13:10:21Z</time></trkpt><trkpt lat="45.64223244503133" lon="11.317278792299392"><ele>424.0</ele><time>2026-04-10T13:10:22Z</time></trkpt><trkpt lat="45.642327324725585" lon="11.31731347527156"><ele>424.0</ele><time>2026-04-10T13:10:23Z</time></trkpt><trkpt lat="45.6423910819162" lon="11.317337343612463"><ele>424.0</ele><time>2026-04-10T13:10:24Z</time></trkpt><trkpt lat="45.642439723471625" lon="11.317213313098595"><ele>424.0</ele><time>2026-04-10T13:10:26Z</time></trkpt><trkpt lat="45.64231767876998" lon="11.317081039675399"><ele>424.0</ele><time>2026-04-10T13:10:28Z</time></trkpt><trkpt lat="45.64218517648422" lon="11.317041517972694"><ele>417.5</ele><time>2026-04-10T13:10:29Z</time></trkpt><trkpt lat="45.642049277714634" lon="11.31700013671779"><ele>411.0</ele><time>2026-04-10T13:10:30Z</time></trkpt><trkpt lat="45.64191166194005" lon="11.316950440536612"><ele>404.5</ele><time>2026-04-10T13:10:31Z</time></trkpt><trkpt lat="45.641793490601444" lon="11.316913733787239"><ele>398.0</ele><time>2026-04-10T13:10:32Z</time></trkpt><trkpt lat="45.64166727493034" lon="11.316915567504672"><ele>396.0</ele><time>2026-04-10T13:10:33Z</time></trkpt><trkpt lat="45.641522189484604" lon="11.316967025910914"><ele>394.0</ele><time>2026-04-10T13:10:34Z</time></trkpt><trkpt lat="45.641379016892536" lon="11.317061657329644"><ele>392.0</ele><time>2026-04-10T13:10:35Z</time></trkpt><trkpt lat="45.6412493655373" lon="11.317177465793536"><ele>390.0</ele><time>2026-04-10T13:10:36Z</time></trkpt><trkpt lat="45.64113676723857" lon="11.317277660517483"><ele>388.0</ele><time>2026-04-10T13:10:37Z</time></trkpt><trkpt lat="45.64100535571116" lon="11.317279985485412"><ele>386.0</ele><time>2026-04-10T13:10:38Z</time></trkpt><trkpt lat="45.640891025683274" lon="11.31728492605922"><ele>384.0</ele><time>2026-04-10T13:10:39Z</time></trkpt><trkpt lat="45.64075615899799" lon="11.317183883957327"><ele>384.0</ele><time>2026-04-10T13:10:40Z</time></trkpt><trkpt lat="45.640653547889826" lon="11.317200772885185"><ele>384.0</ele><time>2026-04-10T13:10:41Z</time></trkpt><trkpt lat="45.6405328333349" lon="11.317229923611942"><ele>384.0</ele><time>2026-04-10T13:10:42Z</time></trkpt><trkpt lat="45.64040603231217" lon="11.317238899318896"><ele>384.0</ele><time>2026-04-10T13:10:43Z</time></trkpt><trkpt lat="45.64027292612531" lon="11.317273329240637"><ele>384.0</ele><time>2026-04-10T13:10:44Z</time></trkpt><trkpt lat="45.64014910082658" lon="11.317304721828405"><ele>384.0</ele><time>2026-04-10T13:10:45Z</time></trkpt><trkpt lat="45.64004494465896" lon="11.317361654817889"><ele>384.0</ele><time>2026-04-10T13:10:46Z</time></trkpt><trkpt lat="45.63998586328323" lon="11.317455917994497"><ele>384.0</ele><time>2026-04-10T13:10:47Z</time></trkpt><trkpt lat="45.639964806609946" lon="11.317600648701847"><ele>384.0</ele><time>2026-04-10T13:10:48Z</time></trkpt><trkpt lat="45.639958303489436" lon="11.31775689237068"><ele>384.0</ele><time>2026-04-10T13:10:49Z</time></trkpt><trkpt lat="45.63991937677166" lon="11.31792914638499"><ele>384.0</ele><time>2026-04-10T13:10:50Z</time></trkpt><trkpt lat="45.6398106168387" lon="11.31800405936931"><ele>384.0</ele><time>2026-04-10T13:10:51Z</time></trkpt><trkpt lat="45.63970109830969" lon="11.318095245378045"><ele>384.0</ele><time>2026-04-10T13:10:52Z</time></trkpt><trkpt lat="45.6395845272359" lon="11.318197305893424"><ele>381.75</ele><time>2026-04-10T13:10:53Z</time></trkpt><trkpt lat="45.63945564033189" lon="11.31829352440843"><ele>379.5</ele><time>2026-04-10T13:10:54Z</time></trkpt><trkpt lat="45.63931701768287" lon="11.31835585964751"><ele>377.25</ele><time>2026-04-10T13:10:55Z</time></trkpt><trkpt lat="45.63919228430558" lon="11.31843059703689"><ele>375.0</ele><time>2026-04-10T13:10:56Z</time></trkpt><trkpt lat="45.63908061726863" lon="11.318477778161196"><ele>375.0</ele><time>2026-04-10T13:10:56.999Z</time></trkpt><trkpt lat="45.638979260223905" lon="11.318552394073063"><ele>375.0</ele><time>2026-04-10T13:10:57.999Z</time></trkpt><trkpt lat="45.63888004705409" lon="11.318597343664953"><ele>375.0</ele><time>2026-04-10T13:10:58.999Z</time></trkpt><trkpt lat="45.63878539798537" lon="11.318684811861706"><ele>375.0</ele><time>2026-04-10T13:11:00.999Z</time></trkpt><trkpt lat="45.63871551162351" lon="11.318738004191824"><ele>375.0</ele><time>2026-04-10T13:11:02.999Z</time></trkpt><trkpt lat="45.638643416504635" lon="11.318750291568557"><ele>375.0</ele><time>2026-04-10T13:11:04.999Z</time></trkpt><trkpt lat="45.63861294733072" lon="11.318636735223071"><ele>375.0</ele><time>2026-04-10T13:11:06.999Z</time></trkpt><trkpt lat="45.638717789583026" lon="11.318528315024498"><ele>375.0</ele><time>2026-04-10T13:11:08.999Z</time></trkpt><trkpt lat="45.638802608961015" lon="11.318444652959347"><ele>375.0</ele><time>2026-04-10T13:11:09.999Z</time></trkpt><trkpt lat="45.63886795738836" lon="11.318311861521687"><ele>375.0</ele><time>2026-04-10T13:11:10.999Z</time></trkpt><trkpt lat="45.63895459216992" lon="11.31816666437517"><ele>372.0</ele><time>2026-04-10T13:11:11.999Z</time></trkpt><trkpt lat="45.63901744137604" lon="11.317974993655112"><ele>369.0</ele><time>2026-04-10T13:11:12.999Z</time></trkpt><trkpt lat="45.63906319004659" lon="11.317761894874842"><ele>366.0</ele><time>2026-04-10T13:11:13.999Z</time></trkpt><trkpt lat="45.639100779755765" lon="11.317542826530072"><ele>366.0</ele><time>2026-04-10T13:11:14.999Z</time></trkpt><trkpt lat="45.639134757301726" lon="11.317316416363232"><ele>366.0</ele><time>2026-04-10T13:11:15.999Z</time></trkpt><trkpt lat="45.639171296647135" lon="11.31711371860466"><ele>366.0</ele><time>2026-04-10T13:11:16.999Z</time></trkpt><trkpt lat="45.639202976288054" lon="11.316907079300252"><ele>365.0</ele><time>2026-04-10T13:11:17.999Z</time></trkpt><trkpt lat="45.639238076770006" lon="11.316718274752402"><ele>364.0</ele><time>2026-04-10T13:11:18.999Z</time></trkpt><trkpt lat="45.639306346377666" lon="11.316556116045863"><ele>363.0</ele><time>2026-04-10T13:11:19.999Z</time></trkpt><trkpt lat="45.639385757327155" lon="11.316401407196237"><ele>362.0</ele><time>2026-04-10T13:11:20.999Z</time></trkpt><trkpt lat="45.639490772525825" lon="11.316320418237865"><ele>362.0</ele><time>2026-04-10T13:11:21.999Z</time></trkpt><trkpt lat="45.639597680495086" lon="11.316237915674893"><ele>362.0</ele><time>2026-04-10T13:11:22.999Z</time></trkpt><trkpt lat="45.63967850402776" lon="11.316158613600342"><ele>362.0</ele><time>2026-04-10T13:11:23.999Z</time></trkpt><trkpt lat="45.63973163814729" lon="11.316090860466707"><ele>362.0</ele><time>2026-04-10T13:11:24.999Z</time></trkpt><trkpt lat="45.639735794245084" lon="11.315975414546356"><ele>362.0</ele><time>2026-04-10T13:11:25.999Z</time></trkpt><trkpt lat="45.63968172851965" lon="11.31583191669245"><ele>362.0</ele><time>2026-04-10T13:11:26.999Z</time></trkpt><trkpt lat="45.63958407535486" lon="11.315689070217273"><ele>362.0</ele><time>2026-04-10T13:11:27.999Z</time></trkpt><trkpt lat="45.639471102396605" lon="11.315532024702419"><ele>362.0</ele><time>2026-04-10T13:11:28.999Z</time></trkpt><trkpt lat="45.639349370779094" lon="11.315366782683421"><ele>356.6666666666667</ele><time>2026-04-10T13:11:29.999Z</time></trkpt><trkpt lat="45.63922607726082" lon="11.315204149559433"><ele>351.3333333333333</ele><time>2026-04-10T13:11:30.999Z</time></trkpt><trkpt lat="45.6391064688725" lon="11.315078254660886"><ele>346.0</ele><time>2026-04-10T13:11:31.999Z</time></trkpt><trkpt lat="45.6389930945022" lon="11.314963082846935"><ele>346.0</ele><time>2026-04-10T13:11:32.999Z</time></trkpt><trkpt lat="45.63890675509461" lon="11.314848226471007"><ele>346.0</ele><time>2026-04-10T13:11:33.999Z</time></trkpt><trkpt lat="45.63885715192264" lon="11.314746317937342"><ele>346.0</ele><time>2026-04-10T13:11:34.999Z</time></trkpt><trkpt lat="45.63883706744068" lon="11.31465187114364"><ele>346.0</ele><time>2026-04-10T13:11:35.999Z</time></trkpt><trkpt lat="45.638884743071735" lon="11.314547975901638"><ele>346.0</ele><time>2026-04-10T13:11:37Z</time></trkpt><trkpt lat="45.63899052307296" lon="11.314466122269497"><ele>344.75</ele><time>2026-04-10T13:11:38Z</time></trkpt><trkpt lat="45.63906144081822" lon="11.314308914642778"><ele>343.5</ele><time>2026-04-10T13:11:39Z</time></trkpt><trkpt lat="45.63912039468819" lon="11.314157660791539"><ele>342.25</ele><time>2026-04-10T13:11:40Z</time></trkpt><trkpt lat="45.63914882535902" lon="11.31400076309093"><ele>341.0</ele><time>2026-04-10T13:11:41Z</time></trkpt><trkpt lat="45.63911405130958" lon="11.313853057440797"><ele>339.5</ele><time>2026-04-10T13:11:42Z</time></trkpt><trkpt lat="45.639010959595055" lon="11.313751244261793"><ele>338.0</ele><time>2026-04-10T13:11:43Z</time></trkpt><trkpt lat="45.63889618272757" lon="11.313615800674402"><ele>336.5</ele><time>2026-04-10T13:11:44Z</time></trkpt><trkpt lat="45.63875929244163" lon="11.313499329503147"><ele>335.0</ele><time>2026-04-10T13:11:45Z</time></trkpt><trkpt lat="45.6386377187187" lon="11.3133963493065"><ele>332.0</ele><time>2026-04-10T13:11:46Z</time></trkpt><trkpt lat="45.63851554256916" lon="11.313317026910843"><ele>329.0</ele><time>2026-04-10T13:11:47Z</time></trkpt><trkpt lat="45.63838088937771" lon="11.313302911927506"><ele>326.0</ele><time>2026-04-10T13:11:48Z</time></trkpt><trkpt lat="45.638246547886204" lon="11.313355354416665"><ele>323.0</ele><time>2026-04-10T13:11:49Z</time></trkpt><trkpt lat="45.63811191609082" lon="11.313438319381548"><ele>323.0</ele><time>2026-04-10T13:11:50Z</time></trkpt><trkpt lat="45.63798988568705" lon="11.313515042303246"><ele>323.0</ele><time>2026-04-10T13:11:51Z</time></trkpt><trkpt lat="45.6378684427266" lon="11.313523825662191"><ele>323.0</ele><time>2026-04-10T13:11:52Z</time></trkpt><trkpt lat="45.63775536119791" lon="11.313519952925239"><ele>323.0</ele><time>2026-04-10T13:11:53Z</time></trkpt><trkpt lat="45.63763774068934" lon="11.31353246717845"><ele>321.75</ele><time>2026-04-10T13:11:54Z</time></trkpt><trkpt lat="45.63753002539393" lon="11.313434600160432"><ele>320.5</ele><time>2026-04-10T13:11:55Z</time></trkpt><trkpt lat="45.63741980732611" lon="11.31334431427536"><ele>319.25</ele><time>2026-04-10T13:11:56Z</time></trkpt><trkpt lat="45.637295622755666" lon="11.313254570592653"><ele>318.0</ele><time>2026-04-10T13:11:57Z</time></trkpt><trkpt lat="45.63716558188682" lon="11.313173227730191"><ele>318.0</ele><time>2026-04-10T13:11:58Z</time></trkpt><trkpt lat="45.63702365181046" lon="11.3131326817169"><ele>318.0</ele><time>2026-04-10T13:11:59Z</time></trkpt><trkpt lat="45.63688946242108" lon="11.313096098163562"><ele>318.0</ele><time>2026-04-10T13:12:00Z</time></trkpt><trkpt lat="45.63675565681969" lon="11.313066806808612"><ele>318.0</ele><time>2026-04-10T13:12:01Z</time></trkpt><trkpt lat="45.63662849853684" lon="11.313036484010054"><ele>314.5</ele><time>2026-04-10T13:12:02Z</time></trkpt><trkpt lat="45.63650809183667" lon="11.313008950452547"><ele>311.0</ele><time>2026-04-10T13:12:03Z</time></trkpt><trkpt lat="45.63640274219563" lon="11.312943695958772"><ele>307.5</ele><time>2026-04-10T13:12:04Z</time></trkpt><trkpt lat="45.636288010690116" lon="11.312879490332785"><ele>304.0</ele><time>2026-04-10T13:12:05Z</time></trkpt><trkpt lat="45.63617992102126" lon="11.312816006493934"><ele>302.0</ele><time>2026-04-10T13:12:06Z</time></trkpt><trkpt lat="45.63609922641497" lon="11.312768373012549"><ele>300.0</ele><time>2026-04-10T13:12:07Z</time></trkpt><trkpt lat="45.63604260405662" lon="11.312727505954498"><ele>298.0</ele><time>2026-04-10T13:12:08Z</time></trkpt><trkpt lat="45.63599321920356" lon="11.312580708670497"><ele>296.0</ele><time>2026-04-10T13:12:10Z</time></trkpt><trkpt lat="45.636059660841894" lon="11.312486228876079"><ele>294.0</ele><time>2026-04-10T13:12:11Z</time></trkpt><trkpt lat="45.63611903269337" lon="11.312380825769257"><ele>296.59999999999997</ele><time>2026-04-10T13:12:12Z</time></trkpt><trkpt lat="45.63618083422794" lon="11.312239723029435"><ele>299.2</ele><time>2026-04-10T13:12:13Z</time></trkpt><trkpt lat="45.6362294546793" lon="11.312122430106475"><ele>301.79999999999995</ele><time>2026-04-10T13:12:14Z</time></trkpt><trkpt lat="45.63625759549626" lon="11.311998929978829"><ele>304.4</ele><time>2026-04-10T13:12:15Z</time></trkpt><trkpt lat="45.63626803531145" lon="11.311898898101303"><ele>307.0</ele><time>2026-04-10T13:12:16Z</time></trkpt><trkpt lat="45.63621955555869" lon="11.311811222554129"><ele>304.25</ele><time>2026-04-10T13:12:17Z</time></trkpt><trkpt lat="45.636121852494846" lon="11.311757063632628"><ele>301.5</ele><time>2026-04-10T13:12:18Z</time></trkpt><trkpt lat="45.635999398640706" lon="11.311734301715706"><ele>298.75</ele><time>2026-04-10T13:12:19Z</time></trkpt><trkpt lat="45.63586909472845" lon="11.311716701275937"><ele>296.0</ele><time>2026-04-10T13:12:20Z</time></trkpt><trkpt lat="45.63575154646855" lon="11.311678614066869"><ele>296.0</ele><time>2026-04-10T13:12:20.999Z</time></trkpt><trkpt lat="45.63564155022153" lon="11.311618277948938"><ele>296.0</ele><time>2026-04-10T13:12:21.999Z</time></trkpt><trkpt lat="45.63554584776973" lon="11.311500878227234"><ele>296.0</ele><time>2026-04-10T13:12:22.999Z</time></trkpt><trkpt lat="45.63542859989036" lon="11.3113689568759"><ele>296.0</ele><time>2026-04-10T13:12:23.999Z</time></trkpt><trkpt lat="45.635320553638785" lon="11.311247264772318"><ele>291.5</ele><time>2026-04-10T13:12:24.999Z</time></trkpt><trkpt lat="45.63520823653912" lon="11.311154674938285"><ele>287.0</ele><time>2026-04-10T13:12:25.999Z</time></trkpt><trkpt lat="45.635109852031015" lon="11.311044983885868"><ele>282.5</ele><time>2026-04-10T13:12:26.999Z</time></trkpt><trkpt lat="45.63503308941248" lon="11.310910816272997"><ele>278.0</ele><time>2026-04-10T13:12:27.999Z</time></trkpt><trkpt lat="45.634977360879944" lon="11.310788468966697"><ele>278.0</ele><time>2026-04-10T13:12:28.999Z</time></trkpt><trkpt lat="45.63493187448268" lon="11.310666434239154"><ele>278.0</ele><time>2026-04-10T13:12:29.999Z</time></trkpt><trkpt lat="45.63489835207385" lon="11.310583559734676"><ele>278.0</ele><time>2026-04-10T13:12:30.999Z</time></trkpt><trkpt lat="45.634835336507265" lon="11.310497243739613"><ele>278.0</ele><time>2026-04-10T13:12:32.999Z</time></trkpt><trkpt lat="45.63478415683994" lon="11.310554915313245"><ele>278.0</ele><time>2026-04-10T13:12:33.999Z</time></trkpt><trkpt lat="45.63477163514171" lon="11.310667504935164"><ele>278.0</ele><time>2026-04-10T13:12:34.999Z</time></trkpt><trkpt lat="45.63479946515968" lon="11.310812647829838"><ele>278.0</ele><time>2026-04-10T13:12:35.999Z</time></trkpt><trkpt lat="45.63483733921766" lon="11.310971963460426"><ele>278.0</ele><time>2026-04-10T13:12:36.999Z</time></trkpt><trkpt lat="45.634905625465926" lon="11.311142880976815"><ele>278.0</ele><time>2026-04-10T13:12:37.999Z</time></trkpt><trkpt lat="45.634938307738835" lon="11.311298614835795"><ele>278.0</ele><time>2026-04-10T13:12:38.999Z</time></trkpt><trkpt lat="45.63498077621658" lon="11.311436837489532"><ele>278.2</ele><time>2026-04-10T13:12:39.999Z</time></trkpt><trkpt lat="45.6350171375914" lon="11.311561777420355"><ele>278.4</ele><time>2026-04-10T13:12:40.999Z</time></trkpt><trkpt lat="45.635041445999185" lon="11.31169819485479"><ele>278.59999999999997</ele><time>2026-04-10T13:12:41.999Z</time></trkpt><trkpt lat="45.634959364818144" lon="11.311831275751645"><ele>278.8</ele><time>2026-04-10T13:12:43.999Z</time></trkpt><trkpt lat="45.634882400730845" lon="11.311819406470171"><ele>279.0</ele><time>2026-04-10T13:12:44.999Z</time></trkpt><trkpt lat="45.63478884194974" lon="11.3117922494139"><ele>279.0</ele><time>2026-04-10T13:12:45.999Z</time></trkpt><trkpt lat="45.634677309679056" lon="11.311732349973493"><ele>279.0</ele><time>2026-04-10T13:12:46.999Z</time></trkpt><trkpt lat="45.63456275898129" lon="11.311685380926232"><ele>279.0</ele><time>2026-04-10T13:12:47.999Z</time></trkpt><trkpt lat="45.63443880380944" lon="11.31163542599858"><ele>279.0</ele><time>2026-04-10T13:12:48.999Z</time></trkpt><trkpt lat="45.634305558197454" lon="11.311566512237318"><ele>277.25</ele><time>2026-04-10T13:12:49.999Z</time></trkpt><trkpt lat="45.63417510162648" lon="11.311481561262358"><ele>275.5</ele><time>2026-04-10T13:12:50.999Z</time></trkpt><trkpt lat="45.634061233008254" lon="11.311397467120976"><ele>273.75</ele><time>2026-04-10T13:12:51.999Z</time></trkpt><trkpt lat="45.633955040891856" lon="11.311315065166717"><ele>272.0</ele><time>2026-04-10T13:12:52.999Z</time></trkpt><trkpt lat="45.63384232396419" lon="11.311233959351961"><ele>269.6</ele><time>2026-04-10T13:12:53.999Z</time></trkpt><trkpt lat="45.63373978899408" lon="11.311145548226056"><ele>267.2</ele><time>2026-04-10T13:12:54.999Z</time></trkpt><trkpt lat="45.63364858395937" lon="11.311066814335383"><ele>264.8</ele><time>2026-04-10T13:12:55.999Z</time></trkpt><trkpt lat="45.633556648827735" lon="11.311010980414332"><ele>262.4</ele><time>2026-04-10T13:12:56.998Z</time></trkpt><trkpt lat="45.63346532096841" lon="11.310958835808739"><ele>260.0</ele><time>2026-04-10T13:12:57.998Z</time></trkpt><trkpt lat="45.63337516613962" lon="11.310914728578462"><ele>258.6</ele><time>2026-04-10T13:12:58.998Z</time></trkpt><trkpt lat="45.63328163314914" lon="11.310899560803229"><ele>257.2</ele><time>2026-04-10T13:12:59.998Z</time></trkpt><trkpt lat="45.63318931824937" lon="11.310922486742912"><ele>255.8</ele><time>2026-04-10T13:13:00.998Z</time></trkpt><trkpt lat="45.63308022557396" lon="11.310969664612912"><ele>254.4</ele><time>2026-04-10T13:13:01.998Z</time></trkpt><trkpt lat="45.63296500879714" lon="11.311042140754301"><ele>253.0</ele><time>2026-04-10T13:13:02.998Z</time></trkpt><trkpt lat="45.63283473095861" lon="11.311093927747368"><ele>250.5</ele><time>2026-04-10T13:13:03.998Z</time></trkpt><trkpt lat="45.63271745377355" lon="11.31114092448974"><ele>248.0</ele><time>2026-04-10T13:13:04.998Z</time></trkpt><trkpt lat="45.63260293129392" lon="11.311177216910494"><ele>245.5</ele><time>2026-04-10T13:13:05.998Z</time></trkpt><trkpt lat="45.63249800512408" lon="11.311220734737663"><ele>243.0</ele><time>2026-04-10T13:13:06.998Z</time></trkpt><trkpt lat="45.632396322861766" lon="11.31127231530274"><ele>243.0</ele><time>2026-04-10T13:13:07.998Z</time></trkpt><trkpt lat="45.63230358659749" lon="11.311339813642432"><ele>243.0</ele><time>2026-04-10T13:13:08.998Z</time></trkpt><trkpt lat="45.63221539138489" lon="11.311418689037591"><ele>243.0</ele><time>2026-04-10T13:13:09.998Z</time></trkpt><trkpt lat="45.63216007373455" lon="11.311484833245624"><ele>243.0</ele><time>2026-04-10T13:13:10.998Z</time></trkpt><trkpt lat="45.63215106904906" lon="11.311609550333245"><ele>243.0</ele><time>2026-04-10T13:13:11.998Z</time></trkpt><trkpt lat="45.63210991031921" lon="11.311713344966337"><ele>243.2</ele><time>2026-04-10T13:13:12.998Z</time></trkpt><trkpt lat="45.63205745025258" lon="11.31182633307074"><ele>243.4</ele><time>2026-04-10T13:13:14.998Z</time></trkpt><trkpt lat="45.6319328906274" lon="11.311709883416228"><ele>243.59999999999997</ele><time>2026-04-10T13:13:16.998Z</time></trkpt><trkpt lat="45.6318668247083" lon="11.31162778680716"><ele>243.79999999999998</ele><time>2026-04-10T13:13:17.998Z</time></trkpt><trkpt lat="45.6318089119741" lon="11.311537292578336"><ele>244.0</ele><time>2026-04-10T13:13:18.998Z</time></trkpt><trkpt lat="45.63174408023641" lon="11.311409998330857"><ele>242.5</ele><time>2026-04-10T13:13:19.998Z</time></trkpt><trkpt lat="45.63172228896573" lon="11.311234962004772"><ele>241.0</ele><time>2026-04-10T13:13:20.998Z</time></trkpt><trkpt lat="45.631685318970966" lon="11.31105492358741"><ele>239.5</ele><time>2026-04-10T13:13:21.998Z</time></trkpt><trkpt lat="45.63163978084177" lon="11.310852720803872"><ele>238.0</ele><time>2026-04-10T13:13:22.998Z</time></trkpt><trkpt lat="45.63161208769112" lon="11.310641333063993"><ele>236.5</ele><time>2026-04-10T13:13:23.998Z</time></trkpt><trkpt lat="45.63158561526682" lon="11.310452362972795"><ele>235.0</ele><time>2026-04-10T13:13:24.998Z</time></trkpt><trkpt lat="45.63158253791706" lon="11.310277529675867"><ele>233.5</ele><time>2026-04-10T13:13:25.998Z</time></trkpt><trkpt lat="45.631548103137845" lon="11.31011664293144"><ele>232.0</ele><time>2026-04-10T13:13:26.998Z</time></trkpt><trkpt lat="45.631527295736056" lon="11.309961380528527"><ele>232.0</ele><time>2026-04-10T13:13:27.998Z</time></trkpt><trkpt lat="45.63151243495162" lon="11.309809958350417"><ele>232.0</ele><time>2026-04-10T13:13:28.998Z</time></trkpt><trkpt lat="45.63149168728099" lon="11.309663915861139"><ele>232.0</ele><time>2026-04-10T13:13:29.998Z</time></trkpt><trkpt lat="45.63147373880489" lon="11.309531973828921"><ele>232.0</ele><time>2026-04-10T13:13:30.998Z</time></trkpt><trkpt lat="45.631462225317804" lon="11.30943270284923"><ele>232.0</ele><time>2026-04-10T13:13:31.998Z</time></trkpt><trkpt lat="45.631440486299006" lon="11.309277274204046"><ele>231.25</ele><time>2026-04-10T13:13:33.998Z</time></trkpt><trkpt lat="45.63142539754586" lon="11.30916316721689"><ele>230.5</ele><time>2026-04-10T13:13:35.998Z</time></trkpt><trkpt lat="45.63131102989576" lon="11.309175885263569"><ele>229.75</ele><time>2026-04-10T13:13:43.999Z</time></trkpt><trkpt lat="45.63123925569864" lon="11.309231834853634"><ele>229.0</ele><time>2026-04-10T13:13:44.999Z</time></trkpt><trkpt lat="45.631289735269036" lon="11.309520241514186"><ele>229.0</ele><time>2026-04-10T13:13:46.999Z</time></trkpt><trkpt lat="45.63132667226992" lon="11.309654002623946"><ele>228.99999999999997</ele><time>2026-04-10T13:13:47.999Z</time></trkpt><trkpt lat="45.631348157808446" lon="11.309806938619055"><ele>228.99999999999997</ele><time>2026-04-10T13:13:48.999Z</time></trkpt><trkpt lat="45.631359300391104" lon="11.309974031373702"><ele>229.0</ele><time>2026-04-10T13:13:49.999Z</time></trkpt><trkpt lat="45.63136851282713" lon="11.31013274489556"><ele>229.0</ele><time>2026-04-10T13:13:50.999Z</time></trkpt><trkpt lat="45.631381631640494" lon="11.31031799274989"><ele>229.75</ele><time>2026-04-10T13:13:51.999Z</time></trkpt><trkpt lat="45.631392888669986" lon="11.310519211480567"><ele>230.5</ele><time>2026-04-10T13:13:52.999Z</time></trkpt><trkpt lat="45.63140501568702" lon="11.310733031492598"><ele>231.25</ele><time>2026-04-10T13:13:53.999Z</time></trkpt><trkpt lat="45.63143716942417" lon="11.31094738032082"><ele>232.0</ele><time>2026-04-10T13:13:54.999Z</time></trkpt><trkpt lat="45.631468099727414" lon="11.311165275837048"><ele>234.0</ele><time>2026-04-10T13:13:55.999Z</time></trkpt><trkpt lat="45.63151211678804" lon="11.311377566976661"><ele>236.0</ele><time>2026-04-10T13:13:56.999Z</time></trkpt><trkpt lat="45.631549721719075" lon="11.311599239889391"><ele>238.0</ele><time>2026-04-10T13:13:57.999Z</time></trkpt><trkpt lat="45.63162860376075" lon="11.311781572668599"><ele>239.5</ele><time>2026-04-10T13:13:58.999Z</time></trkpt><trkpt lat="45.631681461160674" lon="11.311942980780534"><ele>241.0</ele><time>2026-04-10T13:13:59.999Z</time></trkpt><trkpt lat="45.631679226059305" lon="11.312113634734308"><ele>242.5</ele><time>2026-04-10T13:14:00.999Z</time></trkpt><trkpt lat="45.631690427992694" lon="11.31229802563195"><ele>244.0</ele><time>2026-04-10T13:14:01.999Z</time></trkpt><trkpt lat="45.63164279294264" lon="11.312484376059981"><ele>244.39999999999998</ele><time>2026-04-10T13:14:02.999Z</time></trkpt><trkpt lat="45.63158837512243" lon="11.312624856851885"><ele>244.79999999999998</ele><time>2026-04-10T13:14:03.999Z</time></trkpt><trkpt lat="45.631553678855035" lon="11.31274720089581"><ele>245.20000000000002</ele><time>2026-04-10T13:14:04.999Z</time></trkpt><trkpt lat="45.63156480562829" lon="11.31286564331928"><ele>245.60000000000002</ele><time>2026-04-10T13:14:05.999Z</time></trkpt><trkpt lat="45.6316254762646" lon="11.312963173694007"><ele>246.0</ele><time>2026-04-10T13:14:06.999Z</time></trkpt><trkpt lat="45.63173337620151" lon="11.312987882332642"><ele>246.0</ele><time>2026-04-10T13:14:07.999Z</time></trkpt><trkpt lat="45.6318516027145" lon="11.313043857431119"><ele>246.0</ele><time>2026-04-10T13:14:08.999Z</time></trkpt><trkpt lat="45.63196502893293" lon="11.313074447943736"><ele>246.0</ele><time>2026-04-10T13:14:09.999Z</time></trkpt><trkpt lat="45.63206602653713" lon="11.31311900328207"><ele>246.0</ele><time>2026-04-10T13:14:10.999Z</time></trkpt><trkpt lat="45.632176878848064" lon="11.313152970667819"><ele>249.0</ele><time>2026-04-10T13:14:11.999Z</time></trkpt><trkpt lat="45.63230614078981" lon="11.313216433814187"><ele>252.0</ele><time>2026-04-10T13:14:12.999Z</time></trkpt><trkpt lat="45.63241422924326" lon="11.313335631616345"><ele>255.0</ele><time>2026-04-10T13:14:13.999Z</time></trkpt><trkpt lat="45.63254662417074" lon="11.313429825421185"><ele>258.0</ele><time>2026-04-10T13:14:14.999Z</time></trkpt><trkpt lat="45.63267610910531" lon="11.313541766361984"><ele>258.0</ele><time>2026-04-10T13:14:15.999Z</time></trkpt><trkpt lat="45.63279996355577" lon="11.313675807940458"><ele>258.0</ele><time>2026-04-10T13:14:16.999Z</time></trkpt><trkpt lat="45.63293804511928" lon="11.313774856367782"><ele>258.0</ele><time>2026-04-10T13:14:17.999Z</time></trkpt><trkpt lat="45.633072788757495" lon="11.31389460071642"><ele>264.3333333333333</ele><time>2026-04-10T13:14:18.999Z</time></trkpt><trkpt lat="45.6332002360146" lon="11.314014694673515"><ele>270.66666666666663</ele><time>2026-04-10T13:14:19.999Z</time></trkpt><trkpt lat="45.63333043680356" lon="11.314123837325468"><ele>277.0</ele><time>2026-04-10T13:14:20.999Z</time></trkpt><trkpt lat="45.633454603626056" lon="11.314239448850975"><ele>277.0</ele><time>2026-04-10T13:14:21.999Z</time></trkpt><trkpt lat="45.63358134856224" lon="11.314357969702527"><ele>277.0</ele><time>2026-04-10T13:14:22.999Z</time></trkpt><trkpt lat="45.63371286545604" lon="11.314474433607858"><ele>277.0</ele><time>2026-04-10T13:14:23.999Z</time></trkpt><trkpt lat="45.63384705176001" lon="11.31458956044126"><ele>279.3333333333333</ele><time>2026-04-10T13:14:24.999Z</time></trkpt><trkpt lat="45.633979933110055" lon="11.3146833508502"><ele>281.6666666666667</ele><time>2026-04-10T13:14:25.999Z</time></trkpt><trkpt lat="45.63411717567127" lon="11.314779416775094"><ele>284.0</ele><time>2026-04-10T13:14:26.999Z</time></trkpt><trkpt lat="45.6342569439372" lon="11.314868515370549"><ele>287.0</ele><time>2026-04-10T13:14:27.999Z</time></trkpt><trkpt lat="45.63439405825378" lon="11.31494895001638"><ele>290.0</ele><time>2026-04-10T13:14:28.999Z</time></trkpt><trkpt lat="45.634538218864634" lon="11.315016269955693"><ele>293.0</ele><time>2026-04-10T13:14:29.999Z</time></trkpt><trkpt lat="45.63468833722588" lon="11.315061176933161"><ele>295.25</ele><time>2026-04-10T13:14:30.999Z</time></trkpt><trkpt lat="45.63483966473068" lon="11.315098617754542"><ele>297.5</ele><time>2026-04-10T13:14:31.999Z</time></trkpt><trkpt lat="45.63496810826767" lon="11.315150244051802"><ele>299.75</ele><time>2026-04-10T13:14:32.999Z</time></trkpt><trkpt lat="45.63505576376892" lon="11.315235765013778"><ele>302.0</ele><time>2026-04-10T13:14:33.999Z</time></trkpt><trkpt lat="45.63515835171535" lon="11.315302104959063"><ele>302.0</ele><time>2026-04-10T13:14:34.999Z</time></trkpt><trkpt lat="45.6352546785485" lon="11.315406788886076"><ele>302.0</ele><time>2026-04-10T13:14:35.999Z</time></trkpt><trkpt lat="45.635310378443904" lon="11.315509651623923"><ele>302.0</ele><time>2026-04-10T13:14:36.999Z</time></trkpt><trkpt lat="45.6353642268604" lon="11.31557952843648"><ele>302.0</ele><time>2026-04-10T13:14:37.999Z</time></trkpt><trkpt lat="45.63537057107061" lon="11.315720262936962"><ele>302.0</ele><time>2026-04-10T13:14:38.999Z</time></trkpt><trkpt lat="45.6353330329162" lon="11.315875185508544"><ele>305.0</ele><time>2026-04-10T13:14:39.999Z</time></trkpt><trkpt lat="45.63531687472181" lon="11.316060805830451"><ele>308.0</ele><time>2026-04-10T13:14:40.999Z</time></trkpt><trkpt lat="45.63528080904139" lon="11.316241635104232"><ele>311.0</ele><time>2026-04-10T13:14:41.999Z</time></trkpt><trkpt lat="45.63521236696734" lon="11.316399185388317"><ele>314.0</ele><time>2026-04-10T13:14:42.999Z</time></trkpt><trkpt lat="45.63512551258574" lon="11.316531156594737"><ele>316.0</ele><time>2026-04-10T13:14:43.999Z</time></trkpt><trkpt lat="45.63503331464609" lon="11.316655051089956"><ele>318.0</ele><time>2026-04-10T13:14:44.999Z</time></trkpt><trkpt lat="45.63496616754609" lon="11.316794432445509"><ele>320.0</ele><time>2026-04-10T13:14:45.999Z</time></trkpt><trkpt lat="45.63493321842421" lon="11.316918668524206"><ele>322.0</ele><time>2026-04-10T13:14:46.999Z</time></trkpt><trkpt lat="45.63494423989282" lon="11.317077959027529"><ele>324.20000000000005</ele><time>2026-04-10T13:14:47.999Z</time></trkpt><trkpt lat="45.63498945010584" lon="11.317257207647353"><ele>326.4</ele><time>2026-04-10T13:14:48.999Z</time></trkpt><trkpt lat="45.63503588562292" lon="11.317439415528055"><ele>328.6</ele><time>2026-04-10T13:14:49.999Z</time></trkpt><trkpt lat="45.63506657512329" lon="11.317576799742296"><ele>330.79999999999995</ele><time>2026-04-10T13:14:50.999Z</time></trkpt><trkpt lat="45.635090254452344" lon="11.317672804785156"><ele>333.0</ele><time>2026-04-10T13:14:51.999Z</time></trkpt><trkpt lat="45.63504146105935" lon="11.317787962918052"><ele>333.0</ele><time>2026-04-10T13:14:53.999Z</time></trkpt><trkpt lat="45.634901101105775" lon="11.317817500791106"><ele>333.0</ele><time>2026-04-10T13:14:55.999Z</time></trkpt><trkpt lat="45.63481680136889" lon="11.317867820679357"><ele>333.0</ele><time>2026-04-10T13:14:56.999Z</time></trkpt><trkpt lat="45.63472753607492" lon="11.317932916198663"><ele>333.0</ele><time>2026-04-10T13:14:57.999Z</time></trkpt><trkpt lat="45.63462772012679" lon="11.317997611342797"><ele>333.0</ele><time>2026-04-10T13:14:58.999Z</time></trkpt><trkpt lat="45.63452234844982" lon="11.318060678140709"><ele>333.0</ele><time>2026-04-10T13:14:59.999Z</time></trkpt><trkpt lat="45.634434112243966" lon="11.318150171692102"><ele>333.0</ele><time>2026-04-10T13:15:00.999Z</time></trkpt><trkpt lat="45.634368593737214" lon="11.318256717189382"><ele>333.0</ele><time>2026-04-10T13:15:01.999Z</time></trkpt><trkpt lat="45.63432143893016" lon="11.318360498546914"><ele>333.0</ele><time>2026-04-10T13:15:02.999Z</time></trkpt><trkpt lat="45.634347876080085" lon="11.31853182607656"><ele>333.0</ele><time>2026-04-10T13:15:04.999Z</time></trkpt><trkpt lat="45.634417122900004" lon="11.318594933377227"><ele>334.5</ele><time>2026-04-10T13:15:05.999Z</time></trkpt><trkpt lat="45.634512473341665" lon="11.31861492114319"><ele>336.0</ele><time>2026-04-10T13:15:06.999Z</time></trkpt><trkpt lat="45.63463035814904" lon="11.318652583294034"><ele>337.5</ele><time>2026-04-10T13:15:07.999Z</time></trkpt><trkpt lat="45.634763773216015" lon="11.318703749768744"><ele>339.0</ele><time>2026-04-10T13:15:08.999Z</time></trkpt><trkpt lat="45.63489695073555" lon="11.318763959207873"><ele>339.0</ele><time>2026-04-10T13:15:09.999Z</time></trkpt><trkpt lat="45.63502831097623" lon="11.318825731011456"><ele>339.0</ele><time>2026-04-10T13:15:10.999Z</time></trkpt><trkpt lat="45.63516823263085" lon="11.318889072154342"><ele>339.0</ele><time>2026-04-10T13:15:11.999Z</time></trkpt><trkpt lat="45.6353003578478" lon="11.318951535552518"><ele>339.0</ele><time>2026-04-10T13:15:12.999Z</time></trkpt><trkpt lat="45.63540022181709" lon="11.31903635198416"><ele>341.4</ele><time>2026-04-10T13:15:13.999Z</time></trkpt><trkpt lat="45.63548052175877" lon="11.319100044456254"><ele>343.79999999999995</ele><time>2026-04-10T13:15:14.999Z</time></trkpt><trkpt lat="45.63551208826765" lon="11.319181284977153"><ele>346.20000000000005</ele><time>2026-04-10T13:15:15.999Z</time></trkpt><trkpt lat="45.63548630000999" lon="11.319289787855581"><ele>348.6</ele><time>2026-04-10T13:15:16.999Z</time></trkpt><trkpt lat="45.63548641301725" lon="11.31944646100589"><ele>351.0</ele><time>2026-04-10T13:15:17.999Z</time></trkpt><trkpt lat="45.635490232483214" lon="11.319627040307749"><ele>352.0</ele><time>2026-04-10T13:15:18.999Z</time></trkpt><trkpt lat="45.635508710043084" lon="11.319836329123063"><ele>353.0</ele><time>2026-04-10T13:15:19.999Z</time></trkpt><trkpt lat="45.63551017540515" lon="11.32006503066794"><ele>354.0</ele><time>2026-04-10T13:15:20.999Z</time></trkpt><trkpt lat="45.63551186006231" lon="11.320301970372538"><ele>354.0</ele><time>2026-04-10T13:15:21.999Z</time></trkpt><trkpt lat="45.63551349409023" lon="11.320523929191568"><ele>354.0</ele><time>2026-04-10T13:15:22.999Z</time></trkpt><trkpt lat="45.635501281899465" lon="11.320680540914797"><ele>354.0</ele><time>2026-04-10T13:15:23.999Z</time></trkpt><trkpt lat="45.63550850740251" lon="11.320792937984281"><ele>354.0</ele><time>2026-04-10T13:15:24.999Z</time></trkpt><trkpt lat="45.63545673153348" lon="11.32085344820124"><ele>354.0</ele><time>2026-04-10T13:15:25.999Z</time></trkpt><trkpt lat="45.635357544000236" lon="11.320892816503582"><ele>355.5</ele><time>2026-04-10T13:15:26.999Z</time></trkpt><trkpt lat="45.63527098082768" lon="11.321004330514688"><ele>357.0</ele><time>2026-04-10T13:15:27.999Z</time></trkpt><trkpt lat="45.63516559656874" lon="11.321118658223748"><ele>358.5</ele><time>2026-04-10T13:15:28.999Z</time></trkpt><trkpt lat="45.63503133956989" lon="11.321184170445937"><ele>360.0</ele><time>2026-04-10T13:15:29.999Z</time></trkpt><trkpt lat="45.63491728496978" lon="11.321251667758409"><ele>360.0</ele><time>2026-04-10T13:15:30.999Z</time></trkpt><trkpt lat="45.634785687589485" lon="11.321324712101301"><ele>360.0</ele><time>2026-04-10T13:15:31.999Z</time></trkpt><trkpt lat="45.6346510020528" lon="11.32138137384664"><ele>360.0</ele><time>2026-04-10T13:15:32.999Z</time></trkpt><trkpt lat="45.63447135545481" lon="11.321423847596847"><ele>365.0</ele><time>2026-04-10T13:15:33.999Z</time></trkpt><trkpt lat="45.634358842430906" lon="11.321426180032855"><ele>370.0</ele><time>2026-04-10T13:15:34.999Z</time></trkpt><trkpt lat="45.63424388325689" lon="11.321423409939825"><ele>375.0</ele><time>2026-04-10T13:15:35.999Z</time></trkpt><trkpt lat="45.634134727866254" lon="11.321424187107649"><ele>380.0</ele><time>2026-04-10T13:15:36.999Z</time></trkpt><trkpt lat="45.63402836191627" lon="11.321433408282148"><ele>385.0</ele><time>2026-04-10T13:15:37.999Z</time></trkpt><trkpt lat="45.6339160350927" lon="11.321460355410693"><ele>385.0</ele><time>2026-04-10T13:15:38.999Z</time></trkpt><trkpt lat="45.63380237587962" lon="11.321528913867818"><ele>385.0</ele><time>2026-04-10T13:15:39.999Z</time></trkpt><trkpt lat="45.633701715636406" lon="11.32162676547285"><ele>385.0</ele><time>2026-04-10T13:15:40.999Z</time></trkpt><trkpt lat="45.633618677962104" lon="11.321728297806402"><ele>385.0</ele><time>2026-04-10T13:15:41.999Z</time></trkpt><trkpt lat="45.63356405724202" lon="11.321862205786818"><ele>382.75</ele><time>2026-04-10T13:15:42.999Z</time></trkpt><trkpt lat="45.633530584073185" lon="11.32202167200841"><ele>380.5</ele><time>2026-04-10T13:15:43.999Z</time></trkpt><trkpt lat="45.63350094976427" lon="11.32216950591989"><ele>378.25</ele><time>2026-04-10T13:15:44.998Z</time></trkpt><trkpt lat="45.63347954936344" lon="11.32232717224315"><ele>376.0</ele><time>2026-04-10T13:15:45.998Z</time></trkpt><trkpt lat="45.63348259163042" lon="11.322511828958147"><ele>376.0</ele><time>2026-04-10T13:15:46.998Z</time></trkpt><trkpt lat="45.633503810116025" lon="11.322693539162511"><ele>376.0</ele><time>2026-04-10T13:15:47.998Z</time></trkpt><trkpt lat="45.633532645987884" lon="11.322851119025655"><ele>376.0</ele><time>2026-04-10T13:15:48.999Z</time></trkpt><trkpt lat="45.63356669056251" lon="11.322987622076695"><ele>376.0</ele><time>2026-04-10T13:15:49.999Z</time></trkpt><trkpt lat="45.633567215116" lon="11.323106731203518"><ele>376.0</ele><time>2026-04-10T13:15:50.999Z</time></trkpt><trkpt lat="45.63352086525392" lon="11.323205156419116"><ele>378.20000000000005</ele><time>2026-04-10T13:15:51.999Z</time></trkpt><trkpt lat="45.633422942437164" lon="11.323216272794207"><ele>380.40000000000003</ele><time>2026-04-10T13:15:52.999Z</time></trkpt><trkpt lat="45.63332728073381" lon="11.323192982461963"><ele>382.6</ele><time>2026-04-10T13:15:53.999Z</time></trkpt><trkpt lat="45.63321448029119" lon="11.323214526276008"><ele>384.8</ele><time>2026-04-10T13:15:54.999Z</time></trkpt><trkpt lat="45.63310441960089" lon="11.32322377827396"><ele>387.0</ele><time>2026-04-10T13:15:55.999Z</time></trkpt><trkpt lat="45.633020342283764" lon="11.323278645075074"><ele>387.0</ele><time>2026-04-10T13:15:56.999Z</time></trkpt><trkpt lat="45.63296443114572" lon="11.323346816774437"><ele>387.0</ele><time>2026-04-10T13:15:57.999Z</time></trkpt><trkpt lat="45.63292318323737" lon="11.323430880417531"><ele>387.0</ele><time>2026-04-10T13:15:59.999Z</time></trkpt><trkpt lat="45.6328820195543" lon="11.32323266825805"><ele>387.0</ele><time>2026-04-10T13:16:01.999Z</time></trkpt><trkpt lat="45.632827751140475" lon="11.323135072232246"><ele>387.0</ele><time>2026-04-10T13:16:02.999Z</time></trkpt><trkpt lat="45.632775465357106" lon="11.323007869827425"><ele>382.6666666666667</ele><time>2026-04-10T13:16:03.999Z</time></trkpt><trkpt lat="45.63270525275032" lon="11.322911907590216"><ele>378.3333333333333</ele><time>2026-04-10T13:16:04.999Z</time></trkpt><trkpt lat="45.63262549254758" lon="11.322855600078796"><ele>374.0</ele><time>2026-04-10T13:16:05.999Z</time></trkpt><trkpt lat="45.632542580493116" lon="11.322829162600453"><ele>369.66666666666663</ele><time>2026-04-10T13:16:06.999Z</time></trkpt><trkpt lat="45.632461560723996" lon="11.322832731009566"><ele>365.3333333333333</ele><time>2026-04-10T13:16:07.999Z</time></trkpt><trkpt lat="45.63237492310562" lon="11.322835859504963"><ele>361.0</ele><time>2026-04-10T13:16:08.999Z</time></trkpt><trkpt lat="45.63229411402366" lon="11.322835594030575"><ele>361.0</ele><time>2026-04-10T13:16:09.999Z</time></trkpt><trkpt lat="45.63221454795161" lon="11.322850764413763"><ele>361.0</ele><time>2026-04-10T13:16:10.999Z</time></trkpt><trkpt lat="45.63215134936394" lon="11.322857432241696"><ele>361.0</ele><time>2026-04-10T13:16:11.999Z</time></trkpt><trkpt lat="45.63204019349158" lon="11.32284391839433"><ele>361.0</ele><time>2026-04-10T13:16:13.999Z</time></trkpt><trkpt lat="45.631971062261805" lon="11.322835211470778"><ele>361.0</ele><time>2026-04-10T13:16:15.999Z</time></trkpt><trkpt lat="45.63185801960779" lon="11.322852041743245"><ele>361.0</ele><time>2026-04-10T13:16:17.999Z</time></trkpt><trkpt lat="45.63182227822978" lon="11.3229410822809"><ele>361.8333333333333</ele><time>2026-04-10T13:16:18.999Z</time></trkpt><trkpt lat="45.631794376710694" lon="11.32305392205672"><ele>362.66666666666663</ele><time>2026-04-10T13:16:19.999Z</time></trkpt><trkpt lat="45.63173973442834" lon="11.323127840719161"><ele>363.5</ele><time>2026-04-10T13:16:20.999Z</time></trkpt><trkpt lat="45.631696130085594" lon="11.32321931776453"><ele>364.3333333333333</ele><time>2026-04-10T13:16:21.999Z</time></trkpt><trkpt lat="45.63164744403203" lon="11.323313240403458"><ele>365.1666666666667</ele><time>2026-04-10T13:16:22.999Z</time></trkpt><trkpt lat="45.63158669358432" lon="11.323383440162058"><ele>366.0</ele><time>2026-04-10T13:16:23.999Z</time></trkpt><trkpt lat="45.63150625134962" lon="11.323427185616154"><ele>366.0</ele><time>2026-04-10T13:16:24.999Z</time></trkpt><trkpt lat="45.63143925306243" lon="11.323505814708133"><ele>366.0</ele><time>2026-04-10T13:16:25.999Z</time></trkpt><trkpt lat="45.63135702570517" lon="11.323567417767746"><ele>366.0</ele><time>2026-04-10T13:16:26.999Z</time></trkpt><trkpt lat="45.63127351887908" lon="11.323627787219241"><ele>366.0</ele><time>2026-04-10T13:16:27.999Z</time></trkpt><trkpt lat="45.63119920772159" lon="11.323659578777681"><ele>366.0</ele><time>2026-04-10T13:16:28.999Z</time></trkpt><trkpt lat="45.631131197312996" lon="11.323663349142253"><ele>366.0</ele><time>2026-04-10T13:16:29.999Z</time></trkpt><trkpt lat="45.631046130199" lon="11.32357210898285"><ele>364.4</ele><time>2026-04-10T13:16:30.999Z</time></trkpt><trkpt lat="45.630954728910275" lon="11.323580635325355"><ele>362.8</ele><time>2026-04-10T13:16:31.999Z</time></trkpt><trkpt lat="45.6308445730207" lon="11.323581716053551"><ele>361.2</ele><time>2026-04-10T13:16:32.999Z</time></trkpt><trkpt lat="45.63073754234591" lon="11.32359374572787"><ele>359.59999999999997</ele><time>2026-04-10T13:16:33.999Z</time></trkpt><trkpt lat="45.630632454169145" lon="11.32359876925966"><ele>358.0</ele><time>2026-04-10T13:16:34.999Z</time></trkpt><trkpt lat="45.630520380433985" lon="11.323565846336166"><ele>358.0</ele><time>2026-04-10T13:16:35.999Z</time></trkpt><trkpt lat="45.63039413273918" lon="11.323618037242465"><ele>358.0</ele><time>2026-04-10T13:16:36.999Z</time></trkpt><trkpt lat="45.63027777969762" lon="11.323633305389084"><ele>358.0</ele><time>2026-04-10T13:16:37.999Z</time></trkpt><trkpt lat="45.63015878823486" lon="11.323642823860963"><ele>358.0</ele><time>2026-04-10T13:16:38.999Z</time></trkpt><trkpt lat="45.630030938229154" lon="11.323651372093257"><ele>358.0</ele><time>2026-04-10T13:16:39.999Z</time></trkpt><trkpt lat="45.62989551912924" lon="11.32364059484224"><ele>358.0</ele><time>2026-04-10T13:16:40.999Z</time></trkpt><trkpt lat="45.62976732335617" lon="11.323670632011632"><ele>358.0</ele><time>2026-04-10T13:16:41.999Z</time></trkpt><trkpt lat="45.62964291216978" lon="11.323673973505496"><ele>358.0</ele><time>2026-04-10T13:16:42.999Z</time></trkpt><trkpt lat="45.62953685771238" lon="11.32368029644351"><ele>358.59999999999997</ele><time>2026-04-10T13:16:43.999Z</time></trkpt><trkpt lat="45.62942914569633" lon="11.323684419242166"><ele>359.2</ele><time>2026-04-10T13:16:44.999Z</time></trkpt><trkpt lat="45.62932824737215" lon="11.32370667787464"><ele>359.8</ele><time>2026-04-10T13:16:45.999Z</time></trkpt><trkpt lat="45.629224829440766" lon="11.32371228932051"><ele>360.4</ele><time>2026-04-10T13:16:46.999Z</time></trkpt><trkpt lat="45.62915393355355" lon="11.323715483304527"><ele>361.0</ele><time>2026-04-10T13:16:47.999Z</time></trkpt><trkpt lat="45.62905470730867" lon="11.323746766288638"><ele>361.0</ele><time>2026-04-10T13:16:49.999Z</time></trkpt><trkpt lat="45.628994257927374" lon="11.32383226139566"><ele>361.0</ele><time>2026-04-10T13:16:51.999Z</time></trkpt><trkpt lat="45.62891673391384" lon="11.323950867864056"><ele>361.0</ele><time>2026-04-10T13:16:53.999Z</time></trkpt><trkpt lat="45.628860158428594" lon="11.324024356144644"><ele>361.0</ele><time>2026-04-10T13:16:54.999Z</time></trkpt><trkpt lat="45.628800231963794" lon="11.324102647770227"><ele>361.0</ele><time>2026-04-10T13:16:55.999Z</time></trkpt><trkpt lat="45.628722755084716" lon="11.324197864470717"><ele>360.6</ele><time>2026-04-10T13:16:56.999Z</time></trkpt><trkpt lat="45.628640846165986" lon="11.324291919336476"><ele>360.20000000000005</ele><time>2026-04-10T13:16:57.999Z</time></trkpt><trkpt lat="45.628559383369186" lon="11.324379583804225"><ele>359.79999999999995</ele><time>2026-04-10T13:16:58.999Z</time></trkpt><trkpt lat="45.628479083842095" lon="11.324458625100712"><ele>359.4</ele><time>2026-04-10T13:16:59.999Z</time></trkpt><trkpt lat="45.62840565266896" lon="11.32453618248312"><ele>359.0</ele><time>2026-04-10T13:17:00.999Z</time></trkpt><trkpt lat="45.62833288901571" lon="11.324606115423798"><ele>359.0</ele><time>2026-04-10T13:17:01.999Z</time></trkpt><trkpt lat="45.62826536487513" lon="11.324669281682445"><ele>359.0</ele><time>2026-04-10T13:17:02.999Z</time></trkpt><trkpt lat="45.62818961320477" lon="11.324691558669425"><ele>359.0</ele><time>2026-04-10T13:17:03.999Z</time></trkpt><trkpt lat="45.628108387104" lon="11.324696554949991"><ele>359.0</ele><time>2026-04-10T13:17:04.999Z</time></trkpt><trkpt lat="45.62799860642296" lon="11.324710174025816"><ele>359.0</ele><time>2026-04-10T13:17:05.999Z</time></trkpt><trkpt lat="45.62787608920683" lon="11.32474164493083"><ele>358.5</ele><time>2026-04-10T13:17:06.999Z</time></trkpt><trkpt lat="45.627755299883255" lon="11.324762478791465"><ele>358.0</ele><time>2026-04-10T13:17:07.999Z</time></trkpt><trkpt lat="45.62763212172482" lon="11.324787448340128"><ele>357.5</ele><time>2026-04-10T13:17:08.999Z</time></trkpt><trkpt lat="45.62752700280463" lon="11.324814217150616"><ele>357.0</ele><time>2026-04-10T13:17:09.999Z</time></trkpt><trkpt lat="45.62742837395533" lon="11.324838575647675"><ele>357.0</ele><time>2026-04-10T13:17:10.999Z</time></trkpt><trkpt lat="45.627343476421544" lon="11.324875066274451"><ele>357.0</ele><time>2026-04-10T13:17:11.999Z</time></trkpt><trkpt lat="45.6272809134531" lon="11.324921331166745"><ele>357.0</ele><time>2026-04-10T13:17:12.999Z</time></trkpt><trkpt lat="45.62723003713485" lon="11.324993295204193"><ele>357.0</ele><time>2026-04-10T13:17:13.999Z</time></trkpt><trkpt lat="45.62717069012365" lon="11.325091285614015"><ele>357.0</ele><time>2026-04-10T13:17:14.999Z</time></trkpt><trkpt lat="45.62709249365232" lon="11.325186163677229"><ele>357.0</ele><time>2026-04-10T13:17:15.999Z</time></trkpt><trkpt lat="45.62699069382716" lon="11.32526650918611"><ele>358.25</ele><time>2026-04-10T13:17:16.999Z</time></trkpt><trkpt lat="45.62687355605867" lon="11.325334874022918"><ele>359.5</ele><time>2026-04-10T13:17:17.999Z</time></trkpt><trkpt lat="45.626765389815525" lon="11.32539804518428"><ele>360.75</ele><time>2026-04-10T13:17:18.999Z</time></trkpt><trkpt lat="45.62667288486063" lon="11.325473618118547"><ele>362.0</ele><time>2026-04-10T13:17:19.999Z</time></trkpt><trkpt lat="45.62659527067796" lon="11.325581226129898"><ele>362.0</ele><time>2026-04-10T13:17:20.999Z</time></trkpt><trkpt lat="45.62652257778135" lon="11.325696730865555"><ele>362.0</ele><time>2026-04-10T13:17:21.999Z</time></trkpt><trkpt lat="45.62641622315124" lon="11.325756002062741"><ele>362.0</ele><time>2026-04-10T13:17:22.999Z</time></trkpt><trkpt lat="45.62631267917137" lon="11.325819678066749"><ele>362.0</ele><time>2026-04-10T13:17:23.999Z</time></trkpt><trkpt lat="45.626211076798164" lon="11.325895428085515"><ele>358.8</ele><time>2026-04-10T13:17:24.999Z</time></trkpt><trkpt lat="45.6261072737269" lon="11.325948603422187"><ele>355.6</ele><time>2026-04-10T13:17:25.999Z</time></trkpt><trkpt lat="45.62601692282682" lon="11.325974669463788"><ele>352.40000000000003</ele><time>2026-04-10T13:17:26.999Z</time></trkpt><trkpt lat="45.625937035977145" lon="11.326014719551699"><ele>349.20000000000005</ele><time>2026-04-10T13:17:27.999Z</time></trkpt><trkpt lat="45.62585066958014" lon="11.326066115431553"><ele>346.0</ele><time>2026-04-10T13:17:28.999Z</time></trkpt><trkpt lat="45.62575134104855" lon="11.326045041424159"><ele>346.0</ele><time>2026-04-10T13:17:29.999Z</time></trkpt><trkpt lat="45.62564304092081" lon="11.326029388416895"><ele>346.0</ele><time>2026-04-10T13:17:30.999Z</time></trkpt><trkpt lat="45.625543201720966" lon="11.32598985716849"><ele>346.0</ele><time>2026-04-10T13:17:31.999Z</time></trkpt><trkpt lat="45.62545617727126" lon="11.325956029470492"><ele>346.0</ele><time>2026-04-10T13:17:32.999Z</time></trkpt><trkpt lat="45.62538553479903" lon="11.325933031125482"><ele>346.0</ele><time>2026-04-10T13:17:33.999Z</time></trkpt><trkpt lat="45.62529100406142" lon="11.325886172572078"><ele>345.6</ele><time>2026-04-10T13:17:35.999Z</time></trkpt><trkpt lat="45.62520046344324" lon="11.326016772386769"><ele>345.20000000000005</ele><time>2026-04-10T13:17:37.999Z</time></trkpt><trkpt lat="45.625155737155204" lon="11.326119630219852"><ele>344.79999999999995</ele><time>2026-04-10T13:17:38.999Z</time></trkpt><trkpt lat="45.62508857587642" lon="11.326205313721584"><ele>344.4</ele><time>2026-04-10T13:17:39.999Z</time></trkpt><trkpt lat="45.62500545401968" lon="11.326290245044914"><ele>344.0</ele><time>2026-04-10T13:17:40.999Z</time></trkpt><trkpt lat="45.62489807924786" lon="11.326341619084854"><ele>345.75</ele><time>2026-04-10T13:17:41.999Z</time></trkpt><trkpt lat="45.62478840809891" lon="11.326437177696397"><ele>347.5</ele><time>2026-04-10T13:17:42.999Z</time></trkpt><trkpt lat="45.6246715306811" lon="11.326512659790845"><ele>349.25</ele><time>2026-04-10T13:17:43.999Z</time></trkpt><trkpt lat="45.62455815241903" lon="11.32658512988048"><ele>351.0</ele><time>2026-04-10T13:17:44.999Z</time></trkpt><trkpt lat="45.62446713382577" lon="11.32664276319368"><ele>351.0</ele><time>2026-04-10T13:17:45.999Z</time></trkpt><trkpt lat="45.624404134754016" lon="11.326690344360447"><ele>351.0</ele><time>2026-04-10T13:17:46.999Z</time></trkpt><trkpt lat="45.624341978732865" lon="11.326742843813125"><ele>351.0</ele><time>2026-04-10T13:17:47.999Z</time></trkpt><trkpt lat="45.62428247892509" lon="11.326801419025106"><ele>351.0</ele><time>2026-04-10T13:17:48.999Z</time></trkpt><trkpt lat="45.62422363523928" lon="11.326868683684372"><ele>351.0</ele><time>2026-04-10T13:17:49.999Z</time></trkpt><trkpt lat="45.624159667820095" lon="11.326947505373505"><ele>351.0</ele><time>2026-04-10T13:17:50.999Z</time></trkpt><trkpt lat="45.624090697510944" lon="11.327039546249129"><ele>351.0</ele><time>2026-04-10T13:17:51.999Z</time></trkpt><trkpt lat="45.62402727153647" lon="11.327122793804763"><ele>351.0</ele><time>2026-04-10T13:17:52.999Z</time></trkpt><trkpt lat="45.62397255983687" lon="11.327201548356157"><ele>351.0</ele><time>2026-04-10T13:17:53.999Z</time></trkpt><trkpt lat="45.623926264927086" lon="11.327327637212722"><ele>351.0</ele><time>2026-04-10T13:17:56Z</time></trkpt><trkpt lat="45.62397601548684" lon="11.327414173743936"><ele>351.0</ele><time>2026-04-10T13:17:59Z</time></trkpt><trkpt lat="45.62409359142882" lon="11.32736488880343"><ele>352.20000000000005</ele><time>2026-04-10T13:18:01Z</time></trkpt><trkpt lat="45.62417491805833" lon="11.327331437064583"><ele>353.40000000000003</ele><time>2026-04-10T13:18:02Z</time></trkpt><trkpt lat="45.62425796986011" lon="11.327305554988348"><ele>354.6</ele><time>2026-04-10T13:18:03Z</time></trkpt><trkpt lat="45.62436219921014" lon="11.327283206513549"><ele>355.8</ele><time>2026-04-10T13:18:04Z</time></trkpt><trkpt lat="45.62448997105167" lon="11.327249866582397"><ele>357.0</ele><time>2026-04-10T13:18:05Z</time></trkpt><trkpt lat="45.62462323339971" lon="11.327209474495513"><ele>357.5</ele><time>2026-04-10T13:18:06Z</time></trkpt><trkpt lat="45.62475443072342" lon="11.327173588608481"><ele>358.0</ele><time>2026-04-10T13:18:07Z</time></trkpt><trkpt lat="45.624890129280985" lon="11.327131081465236"><ele>358.5</ele><time>2026-04-10T13:18:08Z</time></trkpt><trkpt lat="45.625030478736925" lon="11.327088538911962"><ele>359.0</ele><time>2026-04-10T13:18:09Z</time></trkpt><trkpt lat="45.62517373562078" lon="11.327043491761295"><ele>362.33333333333337</ele><time>2026-04-10T13:18:10Z</time></trkpt><trkpt lat="45.62532031609461" lon="11.327006919691435"><ele>365.6666666666667</ele><time>2026-04-10T13:18:11Z</time></trkpt><trkpt lat="45.62547621617099" lon="11.32702052072123"><ele>369.0</ele><time>2026-04-10T13:18:12Z</time></trkpt><trkpt lat="45.62563007949118" lon="11.327014391087904"><ele>369.0</ele><time>2026-04-10T13:18:13Z</time></trkpt><trkpt lat="45.62575124670875" lon="11.327047562856182"><ele>369.0</ele><time>2026-04-10T13:18:14Z</time></trkpt><trkpt lat="45.62583276068286" lon="11.327102613252267"><ele>369.0</ele><time>2026-04-10T13:18:15Z</time></trkpt><trkpt lat="45.625820627064776" lon="11.327252066111834"><ele>369.0</ele><time>2026-04-10T13:18:16Z</time></trkpt><trkpt lat="45.62587183781494" lon="11.327393869984428"><ele>369.0</ele><time>2026-04-10T13:18:17Z</time></trkpt><trkpt lat="45.62592744548088" lon="11.327555315534578"><ele>372.25</ele><time>2026-04-10T13:18:18Z</time></trkpt><trkpt lat="45.62599437658124" lon="11.32771178754108"><ele>375.5</ele><time>2026-04-10T13:18:19Z</time></trkpt><trkpt lat="45.62605863129117" lon="11.327871973732694"><ele>378.75</ele><time>2026-04-10T13:18:20Z</time></trkpt><trkpt lat="45.62611657048071" lon="11.327984314479096"><ele>382.0</ele><time>2026-04-10T13:18:21Z</time></trkpt><trkpt lat="45.62620557548479" lon="11.328074951976706"><ele>386.25</ele><time>2026-04-10T13:18:22Z</time></trkpt><trkpt lat="45.62632281240707" lon="11.328129357558554"><ele>390.5</ele><time>2026-04-10T13:18:23Z</time></trkpt><trkpt lat="45.626461182013365" lon="11.328167776302521"><ele>394.75</ele><time>2026-04-10T13:18:24Z</time></trkpt><trkpt lat="45.62659531119356" lon="11.328215407795867"><ele>399.0</ele><time>2026-04-10T13:18:25Z</time></trkpt><trkpt lat="45.62673778974048" lon="11.328278206254836"><ele>399.0</ele><time>2026-04-10T13:18:26Z</time></trkpt><trkpt lat="45.62687575596454" lon="11.328323247839934"><ele>399.0</ele><time>2026-04-10T13:18:27Z</time></trkpt><trkpt lat="45.62701256659531" lon="11.328339609484521"><ele>399.0</ele><time>2026-04-10T13:18:28Z</time></trkpt><trkpt lat="45.62715848827909" lon="11.328299875640687"><ele>399.0</ele><time>2026-04-10T13:18:29Z</time></trkpt><trkpt lat="45.62730579785735" lon="11.328222440176498"><ele>401.0</ele><time>2026-04-10T13:18:30Z</time></trkpt><trkpt lat="45.62744677765128" lon="11.32813388496621"><ele>403.0</ele><time>2026-04-10T13:18:31Z</time></trkpt><trkpt lat="45.62758422386765" lon="11.32803062567948"><ele>405.0</ele><time>2026-04-10T13:18:32Z</time></trkpt><trkpt lat="45.627712172120084" lon="11.327936400908447"><ele>408.75</ele><time>2026-04-10T13:18:33Z</time></trkpt><trkpt lat="45.62783673677192" lon="11.327858175724883"><ele>412.5</ele><time>2026-04-10T13:18:34Z</time></trkpt><trkpt lat="45.627967270692764" lon="11.327762366233067"><ele>416.25</ele><time>2026-04-10T13:18:35Z</time></trkpt><trkpt lat="45.628102085350086" lon="11.327663651062606"><ele>420.0</ele><time>2026-04-10T13:18:36Z</time></trkpt><trkpt lat="45.628237979900184" lon="11.327567289000774"><ele>420.0</ele><time>2026-04-10T13:18:37Z</time></trkpt><trkpt lat="45.62837667822142" lon="11.32746901429708"><ele>420.0</ele><time>2026-04-10T13:18:38Z</time></trkpt><trkpt lat="45.628517758400925" lon="11.327391208466729"><ele>420.0</ele><time>2026-04-10T13:18:39Z</time></trkpt><trkpt lat="45.628633312264675" lon="11.327355557300992"><ele>420.0</ele><time>2026-04-10T13:18:40Z</time></trkpt><trkpt lat="45.62873968230598" lon="11.327375371986655"><ele>422.75</ele><time>2026-04-10T13:18:41Z</time></trkpt><trkpt lat="45.62885124628059" lon="11.32739885842167"><ele>425.5</ele><time>2026-04-10T13:18:42Z</time></trkpt><trkpt lat="45.62894413973882" lon="11.327529237177002"><ele>428.25</ele><time>2026-04-10T13:18:43Z</time></trkpt><trkpt lat="45.6290587914234" lon="11.327616523489603"><ele>431.0</ele><time>2026-04-10T13:18:44Z</time></trkpt><trkpt lat="45.62917075581771" lon="11.32773100571563"><ele>431.0</ele><time>2026-04-10T13:18:45Z</time></trkpt><trkpt lat="45.629299882967" lon="11.327818311759776"><ele>431.0</ele><time>2026-04-10T13:18:46Z</time></trkpt><trkpt lat="45.62943909369459" lon="11.327875983639412"><ele>431.0</ele><time>2026-04-10T13:18:47Z</time></trkpt><trkpt lat="45.62958669862426" lon="11.327900227899264"><ele>431.0</ele><time>2026-04-10T13:18:48Z</time></trkpt><trkpt lat="45.62969745705021" lon="11.327951162992969"><ele>433.49999999999994</ele><time>2026-04-10T13:18:49Z</time></trkpt><trkpt lat="45.629770378119396" lon="11.328033794519936"><ele>436.0</ele><time>2026-04-10T13:18:50Z</time></trkpt><trkpt lat="45.62976817815902" lon="11.328145148895754"><ele>438.5</ele><time>2026-04-10T13:18:51Z</time></trkpt><trkpt lat="45.62973815611435" lon="11.328237933533629"><ele>441.0</ele><time>2026-04-10T13:18:52Z</time></trkpt><trkpt lat="45.62969335290795" lon="11.328394609266393"><ele>443.49999999999994</ele><time>2026-04-10T13:18:53.999Z</time></trkpt><trkpt lat="45.62966418194106" lon="11.328499183699302"><ele>446.0</ele><time>2026-04-10T13:18:54.999Z</time></trkpt><trkpt lat="45.629599292864626" lon="11.328659677989648"><ele>445.8</ele><time>2026-04-10T13:18:56.999Z</time></trkpt><trkpt lat="45.629571127833344" lon="11.328797701604993"><ele>445.6</ele><time>2026-04-10T13:18:57.999Z</time></trkpt><trkpt lat="45.6295814561092" lon="11.328931417049533"><ele>445.4</ele><time>2026-04-10T13:18:58.999Z</time></trkpt><trkpt lat="45.62963034051572" lon="11.329057601438262"><ele>445.2</ele><time>2026-04-10T13:18:59.999Z</time></trkpt><trkpt lat="45.62973642144106" lon="11.32917172137806"><ele>445.0</ele><time>2026-04-10T13:19:00.999Z</time></trkpt><trkpt lat="45.62982929497491" lon="11.329293458617663"><ele>445.0</ele><time>2026-04-10T13:19:01.999Z</time></trkpt><trkpt lat="45.629909222687075" lon="11.329424598292889"><ele>445.0</ele><time>2026-04-10T13:19:02.999Z</time></trkpt><trkpt lat="45.62997395499357" lon="11.329552923103943"><ele>445.0</ele><time>2026-04-10T13:19:03.999Z</time></trkpt><trkpt lat="45.6300489514956" lon="11.329671418518977"><ele>445.0</ele><time>2026-04-10T13:19:04.999Z</time></trkpt><trkpt lat="45.630132858657504" lon="11.329776181963842"><ele>444.4</ele><time>2026-04-10T13:19:05.999Z</time></trkpt><trkpt lat="45.63023950933391" lon="11.329838095240245"><ele>443.8</ele><time>2026-04-10T13:19:06.999Z</time></trkpt><trkpt lat="45.63033925068585" lon="11.329904794913668"><ele>443.20000000000005</ele><time>2026-04-10T13:19:07.999Z</time></trkpt><trkpt lat="45.63042392942836" lon="11.329992800376361"><ele>442.6</ele><time>2026-04-10T13:19:08.999Z</time></trkpt><trkpt lat="45.63047680079918" lon="11.330129009358199"><ele>442.0</ele><time>2026-04-10T13:19:09.999Z</time></trkpt><trkpt lat="45.63055154916076" lon="11.33026280890162"><ele>442.0</ele><time>2026-04-10T13:19:10.999Z</time></trkpt><trkpt lat="45.630623310652844" lon="11.33041020887643"><ele>442.0</ele><time>2026-04-10T13:19:11.999Z</time></trkpt><trkpt lat="45.630696772629136" lon="11.33055727771408"><ele>442.0</ele><time>2026-04-10T13:19:12.999Z</time></trkpt><trkpt lat="45.63077195486773" lon="11.330691009620047"><ele>442.0</ele><time>2026-04-10T13:19:13.999Z</time></trkpt><trkpt lat="45.63083346136128" lon="11.330817601583721"><ele>439.6</ele><time>2026-04-10T13:19:14.999Z</time></trkpt><trkpt lat="45.6309030803833" lon="11.330940025139832"><ele>437.20000000000005</ele><time>2026-04-10T13:19:15.999Z</time></trkpt><trkpt lat="45.63097325477727" lon="11.331042398336729"><ele>434.8</ele><time>2026-04-10T13:19:16.999Z</time></trkpt><trkpt lat="45.63101420667133" lon="11.331155154882463"><ele>432.4</ele><time>2026-04-10T13:19:17.999Z</time></trkpt><trkpt lat="45.63104387967841" lon="11.331276752025902"><ele>430.0</ele><time>2026-04-10T13:19:18.999Z</time></trkpt><trkpt lat="45.63109734791831" lon="11.331385256673848"><ele>431.0</ele><time>2026-04-10T13:19:19.999Z</time></trkpt><trkpt lat="45.631147262400475" lon="11.331486507547506"><ele>432.0</ele><time>2026-04-10T13:19:20.999Z</time></trkpt><trkpt lat="45.63122836076411" lon="11.331568175105671"><ele>433.0</ele><time>2026-04-10T13:19:21.999Z</time></trkpt><trkpt lat="45.63132630228794" lon="11.331626174980032"><ele>434.0</ele><time>2026-04-10T13:19:22.999Z</time></trkpt><trkpt lat="45.631441317393" lon="11.331671317080026"><ele>435.0</ele><time>2026-04-10T13:19:23.999Z</time></trkpt><trkpt lat="45.63154555757513" lon="11.331729153701495"><ele>435.0</ele><time>2026-04-10T13:19:24.999Z</time></trkpt><trkpt lat="45.63163522618342" lon="11.331759799176455"><ele>435.0</ele><time>2026-04-10T13:19:25.999Z</time></trkpt><trkpt lat="45.6317013644103" lon="11.33179252549851"><ele>435.0</ele><time>2026-04-10T13:19:26.999Z</time></trkpt><trkpt lat="45.631722688733035" lon="11.331891415924114"><ele>435.0</ele><time>2026-04-10T13:19:27.999Z</time></trkpt><trkpt lat="45.63173299301508" lon="11.33199894640269"><ele>435.0</ele><time>2026-04-10T13:19:28.999Z</time></trkpt><trkpt lat="45.63168980247639" lon="11.332135421475636"><ele>435.0</ele><time>2026-04-10T13:19:29.999Z</time></trkpt><trkpt lat="45.63170400588521" lon="11.332314132595933"><ele>433.5</ele><time>2026-04-10T13:19:31.999Z</time></trkpt><trkpt lat="45.63174671326771" lon="11.332386223522937"><ele>432.0</ele><time>2026-04-10T13:19:32.999Z</time></trkpt><trkpt lat="45.63180352123027" lon="11.33244850896768"><ele>430.5</ele><time>2026-04-10T13:19:33.999Z</time></trkpt><trkpt lat="45.631868069833956" lon="11.332533698053792"><ele>429.0</ele><time>2026-04-10T13:19:34.999Z</time></trkpt><trkpt lat="45.63194016845278" lon="11.332624709220102"><ele>427.5</ele><time>2026-04-10T13:19:35.999Z</time></trkpt><trkpt lat="45.6320265054924" lon="11.332710113241802"><ele>426.0</ele><time>2026-04-10T13:19:36.999Z</time></trkpt><trkpt lat="45.63211055655789" lon="11.33278216359374"><ele>429.0</ele><time>2026-04-10T13:19:37.999Z</time></trkpt><trkpt lat="45.63217966094492" lon="11.332858112561196"><ele>432.0</ele><time>2026-04-10T13:19:38.999Z</time></trkpt><trkpt lat="45.632264035003665" lon="11.332929483330423"><ele>435.0</ele><time>2026-04-10T13:19:39.999Z</time></trkpt><trkpt lat="45.63235532269875" lon="11.332984675540127"><ele>438.0</ele><time>2026-04-10T13:19:40.999Z</time></trkpt><trkpt lat="45.63240316775527" lon="11.333095470403897"><ele>441.0</ele><time>2026-04-10T13:19:41.999Z</time></trkpt><trkpt lat="45.63248500873238" lon="11.333203395966894"><ele>441.0</ele><time>2026-04-10T13:19:42.999Z</time></trkpt><trkpt lat="45.632555673772785" lon="11.333300919192073"><ele>441.0</ele><time>2026-04-10T13:19:43.999Z</time></trkpt><trkpt lat="45.63261668837863" lon="11.333406705264938"><ele>441.0</ele><time>2026-04-10T13:19:44.999Z</time></trkpt><trkpt lat="45.632610141161386" lon="11.333530544725456"><ele>441.0</ele><time>2026-04-10T13:19:45.999Z</time></trkpt><trkpt lat="45.63260890390785" lon="11.333688069668364"><ele>441.0</ele><time>2026-04-10T13:19:46.999Z</time></trkpt><trkpt lat="45.63262151620399" lon="11.333858274966317"><ele>440.5</ele><time>2026-04-10T13:19:47.999Z</time></trkpt><trkpt lat="45.63262685609504" lon="11.3340420321174"><ele>440.0</ele><time>2026-04-10T13:19:48.999Z</time></trkpt><trkpt lat="45.63262410159159" lon="11.334241094418106"><ele>439.5</ele><time>2026-04-10T13:19:49.999Z</time></trkpt><trkpt lat="45.63261631123589" lon="11.334434515983075"><ele>439.0</ele><time>2026-04-10T13:19:50.999Z</time></trkpt><trkpt lat="45.63260300668802" lon="11.334609667566548"><ele>440.0</ele><time>2026-04-10T13:19:51.999Z</time></trkpt><trkpt lat="45.63257252218" lon="11.334766481959013"><ele>441.0</ele><time>2026-04-10T13:19:52.999Z</time></trkpt><trkpt lat="45.632515654844774" lon="11.334906669946877"><ele>442.0</ele><time>2026-04-10T13:19:53.999Z</time></trkpt><trkpt lat="45.63249306273906" lon="11.335010492203612"><ele>443.0</ele><time>2026-04-10T13:19:54.999Z</time></trkpt><trkpt lat="45.632500994685394" lon="11.335164911995802"><ele>444.0</ele><time>2026-04-10T13:19:56.999Z</time></trkpt><trkpt lat="45.63257754000851" lon="11.335232350543459"><ele>444.0</ele><time>2026-04-10T13:19:57.999Z</time></trkpt><trkpt lat="45.6326496671015" lon="11.335299472347105"><ele>444.0</ele><time>2026-04-10T13:19:58.999Z</time></trkpt><trkpt lat="45.63270926713959" lon="11.335392562881282"><ele>444.0</ele><time>2026-04-10T13:19:59.999Z</time></trkpt><trkpt lat="45.63270727539965" lon="11.335521916470693"><ele>444.0</ele><time>2026-04-10T13:20:01Z</time></trkpt><trkpt lat="45.632732349807746" lon="11.335619916601733"><ele>444.0</ele><time>2026-04-10T13:20:02Z</time></trkpt><trkpt lat="45.632798281238635" lon="11.335685731714268"><ele>444.0</ele><time>2026-04-10T13:20:03Z</time></trkpt><trkpt lat="45.63288660895435" lon="11.335731525270461"><ele>446.2</ele><time>2026-04-10T13:20:04Z</time></trkpt><trkpt lat="45.63298659085461" lon="11.335780597651848"><ele>448.4</ele><time>2026-04-10T13:20:05Z</time></trkpt><trkpt lat="45.63307172986875" lon="11.335843608131173"><ele>450.6</ele><time>2026-04-10T13:20:06Z</time></trkpt><trkpt lat="45.63316010468573" lon="11.335907128493586"><ele>452.8</ele><time>2026-04-10T13:20:07Z</time></trkpt><trkpt lat="45.63326180634736" lon="11.335981470947678"><ele>455.0</ele><time>2026-04-10T13:20:08Z</time></trkpt><trkpt lat="45.63337338327042" lon="11.336058049175247"><ele>455.0</ele><time>2026-04-10T13:20:09Z</time></trkpt><trkpt lat="45.6334776204591" lon="11.336153121713233"><ele>455.0</ele><time>2026-04-10T13:20:10Z</time></trkpt><trkpt lat="45.633567483542116" lon="11.336240074694338"><ele>455.0</ele><time>2026-04-10T13:20:11Z</time></trkpt><trkpt lat="45.63363356343202" lon="11.336307705005082"><ele>455.0</ele><time>2026-04-10T13:20:12Z</time></trkpt><trkpt lat="45.63367160201377" lon="11.336396249018687"><ele>455.0</ele><time>2026-04-10T13:20:13Z</time></trkpt><trkpt lat="45.63369070472826" lon="11.336531983881672"><ele>451.66666666666663</ele><time>2026-04-10T13:20:15Z</time></trkpt><trkpt lat="45.63358913416428" lon="11.336586345411401"><ele>448.3333333333333</ele><time>2026-04-10T13:20:17Z</time></trkpt><trkpt lat="45.633513338490175" lon="11.336609058713632"><ele>445.0</ele><time>2026-04-10T13:20:18Z</time></trkpt><trkpt lat="45.63344718565644" lon="11.336656450151063"><ele>441.66666666666663</ele><time>2026-04-10T13:20:19Z</time></trkpt><trkpt lat="45.63339590503773" lon="11.336734195759663"><ele>438.3333333333333</ele><time>2026-04-10T13:20:20Z</time></trkpt><trkpt lat="45.63339663813663" lon="11.336847595970102"><ele>435.0</ele><time>2026-04-10T13:20:21Z</time></trkpt><trkpt lat="45.63343124080902" lon="11.33695046426655"><ele>435.0</ele><time>2026-04-10T13:20:22Z</time></trkpt><trkpt lat="45.6334895619783" lon="11.337068216178496"><ele>435.0</ele><time>2026-04-10T13:20:23Z</time></trkpt><trkpt lat="45.63357414662563" lon="11.337169841925375"><ele>435.0</ele><time>2026-04-10T13:20:24Z</time></trkpt><trkpt lat="45.63367757044093" lon="11.337255535676817"><ele>435.0</ele><time>2026-04-10T13:20:25Z</time></trkpt><trkpt lat="45.63377760418214" lon="11.337320433748705"><ele>435.0</ele><time>2026-04-10T13:20:26Z</time></trkpt><trkpt lat="45.63385223207018" lon="11.33738238089771"><ele>436.2</ele><time>2026-04-10T13:20:27Z</time></trkpt><trkpt lat="45.63391672995117" lon="11.337464322216812"><ele>437.4</ele><time>2026-04-10T13:20:28Z</time></trkpt><trkpt lat="45.63391566066778" lon="11.337596897221703"><ele>438.6</ele><time>2026-04-10T13:20:29Z</time></trkpt><trkpt lat="45.63393859613697" lon="11.337728473520643"><ele>439.8</ele><time>2026-04-10T13:20:30Z</time></trkpt><trkpt lat="45.633937156095904" lon="11.337875961110504"><ele>441.0</ele><time>2026-04-10T13:20:31Z</time></trkpt><trkpt lat="45.6339371560984" lon="11.338027493684587"><ele>442.1666666666667</ele><time>2026-04-10T13:20:32Z</time></trkpt><trkpt lat="45.63394575982093" lon="11.33815473499365"><ele>443.33333333333337</ele><time>2026-04-10T13:20:33Z</time></trkpt><trkpt lat="45.633997721111896" lon="11.3382488544819"><ele>444.5</ele><time>2026-04-10T13:20:34Z</time></trkpt><trkpt lat="45.634072131905455" lon="11.338305093209835"><ele>445.6666666666667</ele><time>2026-04-10T13:20:35Z</time></trkpt><trkpt lat="45.634156748898775" lon="11.338317045239435"><ele>446.83333333333337</ele><time>2026-04-10T13:20:36Z</time></trkpt><trkpt lat="45.634256011627194" lon="11.338326542806557"><ele>448.0</ele><time>2026-04-10T13:20:37Z</time></trkpt><trkpt lat="45.63438596758265" lon="11.338330826281744"><ele>450.2</ele><time>2026-04-10T13:20:38Z</time></trkpt><trkpt lat="45.63450091489882" lon="11.338335681390497"><ele>452.4</ele><time>2026-04-10T13:20:39Z</time></trkpt><trkpt lat="45.634579676989375" lon="11.338381450111743"><ele>454.59999999999997</ele><time>2026-04-10T13:20:40Z</time></trkpt><trkpt lat="45.634631587273894" lon="11.338509078472326"><ele>456.79999999999995</ele><time>2026-04-10T13:20:42Z</time></trkpt><trkpt lat="45.63458350666436" lon="11.338653504768747"><ele>459.0</ele><time>2026-04-10T13:20:44Z</time></trkpt><trkpt lat="45.63453836343828" lon="11.338754423020236"><ele>459.0</ele><time>2026-04-10T13:20:45Z</time></trkpt><trkpt lat="45.63450125149099" lon="11.338874597379087"><ele>459.0</ele><time>2026-04-10T13:20:46Z</time></trkpt><trkpt lat="45.634463505595434" lon="11.33896548692479"><ele>459.0</ele><time>2026-04-10T13:20:47Z</time></trkpt><trkpt lat="45.634417898420324" lon="11.339048973990803"><ele>459.0</ele><time>2026-04-10T13:20:48Z</time></trkpt><trkpt lat="45.634357977728364" lon="11.339100255342986"><ele>459.0</ele><time>2026-04-10T13:20:49Z</time></trkpt><trkpt lat="45.63431411707923" lon="11.339175745749857"><ele>459.0</ele><time>2026-04-10T13:20:50Z</time></trkpt><trkpt lat="45.63431353582004" lon="11.339277716438053"><ele>458.1666666666667</ele><time>2026-04-10T13:20:51Z</time></trkpt><trkpt lat="45.63435184175631" lon="11.339393269327175"><ele>457.33333333333337</ele><time>2026-04-10T13:20:52Z</time></trkpt><trkpt lat="45.634408534477664" lon="11.339485536852145"><ele>456.5</ele><time>2026-04-10T13:20:53Z</time></trkpt><trkpt lat="45.63445368920081" lon="11.339610618787066"><ele>455.6666666666667</ele><time>2026-04-10T13:20:55Z</time></trkpt><trkpt lat="45.6343994528921" lon="11.339671321276303"><ele>454.83333333333337</ele><time>2026-04-10T13:20:57Z</time></trkpt><trkpt lat="45.63432557199617" lon="11.339650224378442"><ele>454.0</ele><time>2026-04-10T13:20:59Z</time></trkpt><trkpt lat="45.63419446195441" lon="11.339668144708895"><ele>454.0</ele><time>2026-04-10T13:21:01Z</time></trkpt><trkpt lat="45.63411585936088" lon="11.339676575761152"><ele>454.0</ele><time>2026-04-10T13:21:02Z</time></trkpt><trkpt lat="45.634029980029716" lon="11.339685440823628"><ele>454.0</ele><time>2026-04-10T13:21:03Z</time></trkpt><trkpt lat="45.63393503569446" lon="11.339705953865304"><ele>454.0</ele><time>2026-04-10T13:21:04Z</time></trkpt><trkpt lat="45.63382770855607" lon="11.339715313776006"><ele>454.0</ele><time>2026-04-10T13:21:05Z</time></trkpt><trkpt lat="45.63371733024231" lon="11.339741005601004"><ele>454.4</ele><time>2026-04-10T13:21:06Z</time></trkpt><trkpt lat="45.6336217351313" lon="11.339771860455468"><ele>454.79999999999995</ele><time>2026-04-10T13:21:07Z</time></trkpt><trkpt lat="45.63352742924278" lon="11.33977588966869"><ele>455.20000000000005</ele><time>2026-04-10T13:21:08Z</time></trkpt><trkpt lat="45.63343788642198" lon="11.3397781754862"><ele>455.6</ele><time>2026-04-10T13:21:09Z</time></trkpt><trkpt lat="45.633343168984275" lon="11.339772815234006"><ele>456.0</ele><time>2026-04-10T13:21:10Z</time></trkpt><trkpt lat="45.63324913892781" lon="11.339768775490617"><ele>456.0</ele><time>2026-04-10T13:21:11Z</time></trkpt><trkpt lat="45.6331564948041" lon="11.339792820073859"><ele>456.0</ele><time>2026-04-10T13:21:12Z</time></trkpt><trkpt lat="45.63305860524401" lon="11.339784295136035"><ele>456.0</ele><time>2026-04-10T13:21:13Z</time></trkpt><trkpt lat="45.632945025723856" lon="11.339802197500832"><ele>456.0</ele><time>2026-04-10T13:21:14Z</time></trkpt><trkpt lat="45.63282603320868" lon="11.339830467587307"><ele>456.0</ele><time>2026-04-10T13:21:15Z</time></trkpt><trkpt lat="45.63270405171484" lon="11.33987726252263"><ele>455.0</ele><time>2026-04-10T13:21:16Z</time></trkpt><trkpt lat="45.632596307850186" lon="11.339937147943509"><ele>454.0</ele><time>2026-04-10T13:21:17Z</time></trkpt><trkpt lat="45.63252011031603" lon="11.340019557226608"><ele>453.0</ele><time>2026-04-10T13:21:18Z</time></trkpt><trkpt lat="45.632410617655715" lon="11.340115199938381"><ele>452.0</ele><time>2026-04-10T13:21:20Z</time></trkpt><trkpt lat="45.63235831544357" lon="11.340196576746187"><ele>451.0</ele><time>2026-04-10T13:21:21Z</time></trkpt><trkpt lat="45.63230635822188" lon="11.340300955408884"><ele>451.0</ele><time>2026-04-10T13:21:22Z</time></trkpt><trkpt lat="45.63225428100203" lon="11.340422790859831"><ele>451.0</ele><time>2026-04-10T13:21:23Z</time></trkpt><trkpt lat="45.632182334847535" lon="11.340522179001429"><ele>451.0</ele><time>2026-04-10T13:21:24Z</time></trkpt><trkpt lat="45.632118079192665" lon="11.340640124717725"><ele>451.0</ele><time>2026-04-10T13:21:25Z</time></trkpt><trkpt lat="45.63204173744866" lon="11.340733259386303"><ele>451.0</ele><time>2026-04-10T13:21:26Z</time></trkpt><trkpt lat="45.63197138488255" lon="11.340834423128374"><ele>450.4</ele><time>2026-04-10T13:21:27Z</time></trkpt><trkpt lat="45.631908593819134" lon="11.340948604101216"><ele>449.8</ele><time>2026-04-10T13:21:28Z</time></trkpt><trkpt lat="45.63183274349692" lon="11.341042486940106"><ele>449.19999999999993</ele><time>2026-04-10T13:21:29Z</time></trkpt><trkpt lat="45.63173481211339" lon="11.341096641814163"><ele>448.59999999999997</ele><time>2026-04-10T13:21:30Z</time></trkpt><trkpt lat="45.63165962978454" lon="11.341204315848552"><ele>448.0</ele><time>2026-04-10T13:21:31Z</time></trkpt><trkpt lat="45.63156724937359" lon="11.341304237963262"><ele>453.5</ele><time>2026-04-10T13:21:31.999Z</time></trkpt><trkpt lat="45.63147073092798" lon="11.341409198232078"><ele>459.0</ele><time>2026-04-10T13:21:32.999Z</time></trkpt><trkpt lat="45.63135430699783" lon="11.341442391966929"><ele>464.5</ele><time>2026-04-10T13:21:33.999Z</time></trkpt><trkpt lat="45.63126381900232" lon="11.34154104888933"><ele>470.0</ele><time>2026-04-10T13:21:34.999Z</time></trkpt><trkpt lat="45.631169786036224" lon="11.341643557559113"><ele>467.8</ele><time>2026-04-10T13:21:35.999Z</time></trkpt><trkpt lat="45.631081186710226" lon="11.341764245771387"><ele>465.6</ele><time>2026-04-10T13:21:36.999Z</time></trkpt><trkpt lat="45.63097493046303" lon="11.341853610908926"><ele>463.4</ele><time>2026-04-10T13:21:37.999Z</time></trkpt><trkpt lat="45.630890501436596" lon="11.341937787598681"><ele>461.2</ele><time>2026-04-10T13:21:38.999Z</time></trkpt><trkpt lat="45.630824085633805" lon="11.342002810387626"><ele>459.0</ele><time>2026-04-10T13:21:39.999Z</time></trkpt><trkpt lat="45.63077386124826" lon="11.342075381049883"><ele>459.0</ele><time>2026-04-10T13:21:41.999Z</time></trkpt><trkpt lat="45.63070808965195" lon="11.342206569553706"><ele>459.0</ele><time>2026-04-10T13:21:43.999Z</time></trkpt><trkpt lat="45.6306570864126" lon="11.34230147205667"><ele>459.0</ele><time>2026-04-10T13:21:44.999Z</time></trkpt><trkpt lat="45.63060968772253" lon="11.342384175654738"><ele>459.0</ele><time>2026-04-10T13:21:45.999Z</time></trkpt><trkpt lat="45.63052938290237" lon="11.34249701967629"><ele>459.0</ele><time>2026-04-10T13:21:47.999Z</time></trkpt><trkpt lat="45.63046613861105" lon="11.342449638778854"><ele>459.0</ele><time>2026-04-10T13:21:50.999Z</time></trkpt><trkpt lat="45.63046644383954" lon="11.342304222536509"><ele>459.0</ele><time>2026-04-10T13:21:53.999Z</time></trkpt><trkpt lat="45.630454113950414" lon="11.342138709648347"><ele>459.0</ele><time>2026-04-10T13:21:55.999Z</time></trkpt><trkpt lat="45.63038656829508" lon="11.342017426968004"><ele>459.0</ele><time>2026-04-10T13:21:57.999Z</time></trkpt><trkpt lat="45.63033805334566" lon="11.34195578636527"><ele>459.0</ele><time>2026-04-10T13:21:58.999Z</time></trkpt><trkpt lat="45.630272037752334" lon="11.341920058074987"><ele>456.1666666666667</ele><time>2026-04-10T13:21:59.999Z</time></trkpt><trkpt lat="45.630196529822705" lon="11.341888708085504"><ele>453.33333333333337</ele><time>2026-04-10T13:22:00.999Z</time></trkpt><trkpt lat="45.63010661984181" lon="11.341880822926061"><ele>450.5</ele><time>2026-04-10T13:22:01.999Z</time></trkpt><trkpt lat="45.630020851007444" lon="11.341894318853324"><ele>447.6666666666667</ele><time>2026-04-10T13:22:02.999Z</time></trkpt><trkpt lat="45.62994039595764" lon="11.341929134298429"><ele>444.83333333333337</ele><time>2026-04-10T13:22:03.999Z</time></trkpt><trkpt lat="45.62987292280873" lon="11.341981121747237"><ele>442.0</ele><time>2026-04-10T13:22:04.999Z</time></trkpt><trkpt lat="45.62982531974487" lon="11.342071401675481"><ele>442.00000000000006</ele><time>2026-04-10T13:22:05.999Z</time></trkpt><trkpt lat="45.629793343613066" lon="11.34217779490123"><ele>442.0</ele><time>2026-04-10T13:22:07Z</time></trkpt><trkpt lat="45.62976645275745" lon="11.342286065975081"><ele>442.0</ele><time>2026-04-10T13:22:08Z</time></trkpt><trkpt lat="45.62973898754228" lon="11.342410358678107"><ele>442.0</ele><time>2026-04-10T13:22:09Z</time></trkpt><trkpt lat="45.62970859445562" lon="11.342521630004066"><ele>442.00000000000006</ele><time>2026-04-10T13:22:10Z</time></trkpt><trkpt lat="45.629672066829485" lon="11.342630884396693"><ele>442.0</ele><time>2026-04-10T13:22:11Z</time></trkpt><trkpt lat="45.62963410456872" lon="11.34274264745151"><ele>441.6</ele><time>2026-04-10T13:22:12Z</time></trkpt><trkpt lat="45.629576862287834" lon="11.342832486529076"><ele>441.20000000000005</ele><time>2026-04-10T13:22:13Z</time></trkpt><trkpt lat="45.6295005130997" lon="11.34291794648127"><ele>440.8</ele><time>2026-04-10T13:22:14Z</time></trkpt><trkpt lat="45.62940010175199" lon="11.342948449740318"><ele>440.4</ele><time>2026-04-10T13:22:15Z</time></trkpt><trkpt lat="45.62930404957767" lon="11.343001888506363"><ele>440.0</ele><time>2026-04-10T13:22:16Z</time></trkpt><trkpt lat="45.6292047210315" lon="11.343056437760273"><ele>440.0</ele><time>2026-04-10T13:22:17Z</time></trkpt><trkpt lat="45.62910813568947" lon="11.343126741997573"><ele>440.0</ele><time>2026-04-10T13:22:18Z</time></trkpt><trkpt lat="45.628997961865394" lon="11.34315061325173"><ele>440.0</ele><time>2026-04-10T13:22:19Z</time></trkpt><trkpt lat="45.62889353503287" lon="11.34317805122682"><ele>440.0</ele><time>2026-04-10T13:22:20Z</time></trkpt><trkpt lat="45.628794704817416" lon="11.343209949278858"><ele>440.0</ele><time>2026-04-10T13:22:21Z</time></trkpt><trkpt lat="45.628688517155055" lon="11.343197214159426"><ele>439.0</ele><time>2026-04-10T13:22:22Z</time></trkpt><trkpt lat="45.628586167618025" lon="11.34323276626535"><ele>438.0</ele><time>2026-04-10T13:22:23Z</time></trkpt><trkpt lat="45.6284902368678" lon="11.343251268982982"><ele>437.0</ele><time>2026-04-10T13:22:24Z</time></trkpt><trkpt lat="45.62840255901326" lon="11.343276538352754"><ele>436.0</ele><time>2026-04-10T13:22:25Z</time></trkpt><trkpt lat="45.62831368307179" lon="11.343290846641095"><ele>435.0</ele><time>2026-04-10T13:22:26Z</time></trkpt><trkpt lat="45.62823149617702" lon="11.343218960230843"><ele>435.0</ele><time>2026-04-10T13:22:27Z</time></trkpt><trkpt lat="45.62819381743935" lon="11.343093176052994"><ele>435.0</ele><time>2026-04-10T13:22:28Z</time></trkpt><trkpt lat="45.62814228289635" lon="11.342969751261839"><ele>435.0</ele><time>2026-04-10T13:22:29Z</time></trkpt><trkpt lat="45.62808428905957" lon="11.342855632679466"><ele>435.0</ele><time>2026-04-10T13:22:30Z</time></trkpt><trkpt lat="45.62800027817579" lon="11.342763667037657"><ele>435.0</ele><time>2026-04-10T13:22:31Z</time></trkpt><trkpt lat="45.627899987599356" lon="11.342674516833554"><ele>434.6</ele><time>2026-04-10T13:22:32Z</time></trkpt><trkpt lat="45.62783757797315" lon="11.342574911557442"><ele>434.2</ele><time>2026-04-10T13:22:33Z</time></trkpt><trkpt lat="45.62774802046308" lon="11.342467819769952"><ele>433.79999999999995</ele><time>2026-04-10T13:22:34Z</time></trkpt><trkpt lat="45.62768745910404" lon="11.342360597217457"><ele>433.4</ele><time>2026-04-10T13:22:35Z</time></trkpt><trkpt lat="45.62759229419912" lon="11.342273973275077"><ele>433.0</ele><time>2026-04-10T13:22:36Z</time></trkpt><trkpt lat="45.62749922839322" lon="11.342183198022866"><ele>429.4</ele><time>2026-04-10T13:22:37Z</time></trkpt><trkpt lat="45.62739677115229" lon="11.342122085243739"><ele>425.79999999999995</ele><time>2026-04-10T13:22:38Z</time></trkpt><trkpt lat="45.62732471867807" lon="11.342007851567793"><ele>422.2</ele><time>2026-04-10T13:22:39Z</time></trkpt><trkpt lat="45.62725121630449" lon="11.341896480000234"><ele>418.6</ele><time>2026-04-10T13:22:40Z</time></trkpt><trkpt lat="45.62718274958883" lon="11.341776867366388"><ele>415.0</ele><time>2026-04-10T13:22:41Z</time></trkpt><trkpt lat="45.62713703044004" lon="11.341634224738389"><ele>415.0</ele><time>2026-04-10T13:22:42Z</time></trkpt><trkpt lat="45.62707418485365" lon="11.341518221808045"><ele>415.0</ele><time>2026-04-10T13:22:43Z</time></trkpt><trkpt lat="45.627023901445675" lon="11.341397262323285"><ele>415.0</ele><time>2026-04-10T13:22:44Z</time></trkpt><trkpt lat="45.62696832847542" lon="11.341279029030908"><ele>415.0</ele><time>2026-04-10T13:22:45Z</time></trkpt><trkpt lat="45.62690380579174" lon="11.341145329663489"><ele>415.0</ele><time>2026-04-10T13:22:46Z</time></trkpt><trkpt lat="45.62677026053955" lon="11.341132815866512"><ele>410.8</ele><time>2026-04-10T13:22:48Z</time></trkpt><trkpt lat="45.626684767163454" lon="11.341192293196016"><ele>406.6</ele><time>2026-04-10T13:22:49Z</time></trkpt><trkpt lat="45.62659212833743" lon="11.341259774817981"><ele>402.4</ele><time>2026-04-10T13:22:50Z</time></trkpt><trkpt lat="45.62648868541196" lon="11.341272871225781"><ele>398.2</ele><time>2026-04-10T13:22:51Z</time></trkpt><trkpt lat="45.626405431283416" lon="11.341197617284488"><ele>394.0</ele><time>2026-04-10T13:22:52Z</time></trkpt><trkpt lat="45.62632604320041" lon="11.341121502780638"><ele>394.0</ele><time>2026-04-10T13:22:53Z</time></trkpt><trkpt lat="45.626246441014835" lon="11.341039724859412"><ele>394.0</ele><time>2026-04-10T13:22:54Z</time></trkpt><trkpt lat="45.62616110678127" lon="11.340965818832725"><ele>394.0</ele><time>2026-04-10T13:22:55Z</time></trkpt><trkpt lat="45.626078415685825" lon="11.340900421388282"><ele>394.0</ele><time>2026-04-10T13:22:56Z</time></trkpt><trkpt lat="45.625982175463704" lon="11.340872090726622"><ele>394.0</ele><time>2026-04-10T13:22:57Z</time></trkpt><trkpt lat="45.62588102000196" lon="11.340878798982756"><ele>392.0</ele><time>2026-04-10T13:22:58Z</time></trkpt><trkpt lat="45.625769298354896" lon="11.340908797642555"><ele>390.0</ele><time>2026-04-10T13:22:59Z</time></trkpt><trkpt lat="45.625657382304986" lon="11.340955472126721"><ele>388.0</ele><time>2026-04-10T13:23:00Z</time></trkpt><trkpt lat="45.625544026693056" lon="11.341031312269054"><ele>386.0</ele><time>2026-04-10T13:23:01Z</time></trkpt><trkpt lat="45.62542172031469" lon="11.341101627600851"><ele>381.25</ele><time>2026-04-10T13:23:02Z</time></trkpt><trkpt lat="45.6253102469557" lon="11.341159178475365"><ele>376.5</ele><time>2026-04-10T13:23:03Z</time></trkpt><trkpt lat="45.62520078541066" lon="11.341224269007993"><ele>371.75</ele><time>2026-04-10T13:23:04Z</time></trkpt><trkpt lat="45.62509431150739" lon="11.34129367617192"><ele>367.0</ele><time>2026-04-10T13:23:05Z</time></trkpt><trkpt lat="45.624996596747366" lon="11.341360481407762"><ele>370.20000000000005</ele><time>2026-04-10T13:23:06Z</time></trkpt><trkpt lat="45.62492138883647" lon="11.34146939873974"><ele>373.4</ele><time>2026-04-10T13:23:07Z</time></trkpt><trkpt lat="45.6248545573559" lon="11.341589608000204"><ele>376.6</ele><time>2026-04-10T13:23:08Z</time></trkpt><trkpt lat="45.624767478601704" lon="11.341642630979127"><ele>379.79999999999995</ele><time>2026-04-10T13:23:09Z</time></trkpt><trkpt lat="45.62468827176109" lon="11.341652457255401"><ele>383.0</ele><time>2026-04-10T13:23:10Z</time></trkpt><trkpt lat="45.624620253903615" lon="11.341552807962788"><ele>383.0</ele><time>2026-04-10T13:23:10.999Z</time></trkpt><trkpt lat="45.62453625917858" lon="11.34146058152197"><ele>383.0</ele><time>2026-04-10T13:23:11.999Z</time></trkpt><trkpt lat="45.62444364358766" lon="11.341397185657648"><ele>383.0</ele><time>2026-04-10T13:23:12.999Z</time></trkpt><trkpt lat="45.62434948230743" lon="11.341339109558787"><ele>383.0</ele><time>2026-04-10T13:23:13.999Z</time></trkpt><trkpt lat="45.62423080274594" lon="11.341338387379556"><ele>383.0</ele><time>2026-04-10T13:23:14.999Z</time></trkpt><trkpt lat="45.624115805697905" lon="11.341357290156497"><ele>379.25</ele><time>2026-04-10T13:23:15.999Z</time></trkpt><trkpt lat="45.62400343623476" lon="11.341417482193156"><ele>375.5</ele><time>2026-04-10T13:23:16.999Z</time></trkpt><trkpt lat="45.62391424445798" lon="11.341457805094585"><ele>371.75</ele><time>2026-04-10T13:23:17.999Z</time></trkpt><trkpt lat="45.623791056863176" lon="11.341508942396676"><ele>368.0</ele><time>2026-04-10T13:23:18.999Z</time></trkpt><trkpt lat="45.62366640407222" lon="11.341551404826442"><ele>365.25</ele><time>2026-04-10T13:23:19.999Z</time></trkpt><trkpt lat="45.623531591653226" lon="11.34156347982615"><ele>362.5</ele><time>2026-04-10T13:23:20.999Z</time></trkpt><trkpt lat="45.62339922483063" lon="11.341577189239265"><ele>359.75</ele><time>2026-04-10T13:23:21.999Z</time></trkpt><trkpt lat="45.6232812903506" lon="11.34156300445291"><ele>357.0</ele><time>2026-04-10T13:23:22.999Z</time></trkpt><trkpt lat="45.62316509629516" lon="11.341525054005405"><ele>357.0</ele><time>2026-04-10T13:23:23.999Z</time></trkpt><trkpt lat="45.62305055277947" lon="11.341479561162066"><ele>357.0</ele><time>2026-04-10T13:23:24.999Z</time></trkpt><trkpt lat="45.622937777858276" lon="11.341451112495703"><ele>357.0</ele><time>2026-04-10T13:23:25.999Z</time></trkpt><trkpt lat="45.62283281674018" lon="11.34140322983206"><ele>357.0</ele><time>2026-04-10T13:23:26.999Z</time></trkpt><trkpt lat="45.62272786075082" lon="11.3413524645513"><ele>355.0</ele><time>2026-04-10T13:23:27.999Z</time></trkpt><trkpt lat="45.62262125504708" lon="11.34131884388017"><ele>353.0</ele><time>2026-04-10T13:23:28.999Z</time></trkpt><trkpt lat="45.62253053283869" lon="11.341304898961262"><ele>351.0</ele><time>2026-04-10T13:23:29.999Z</time></trkpt><trkpt lat="45.62244603646244" lon="11.3413107417697"><ele>349.0</ele><time>2026-04-10T13:23:30.999Z</time></trkpt><trkpt lat="45.62236592069911" lon="11.341325606407054"><ele>347.0</ele><time>2026-04-10T13:23:31.999Z</time></trkpt><trkpt lat="45.622293007951306" lon="11.341364445726521"><ele>345.0</ele><time>2026-04-10T13:23:32.999Z</time></trkpt><trkpt lat="45.622209805332" lon="11.34144433087506"><ele>345.0</ele><time>2026-04-10T13:23:33.999Z</time></trkpt><trkpt lat="45.62212516577845" lon="11.34154920986864"><ele>345.0</ele><time>2026-04-10T13:23:34.999Z</time></trkpt><trkpt lat="45.62204732159715" lon="11.341703791911726"><ele>345.0</ele><time>2026-04-10T13:23:35.999Z</time></trkpt><trkpt lat="45.621976079755925" lon="11.341850493000003"><ele>345.0</ele><time>2026-04-10T13:23:36.999Z</time></trkpt><trkpt lat="45.621901795573876" lon="11.341996809448021"><ele>341.5</ele><time>2026-04-10T13:23:37.999Z</time></trkpt><trkpt lat="45.62182250883228" lon="11.34213526714944"><ele>338.0</ele><time>2026-04-10T13:23:38.999Z</time></trkpt><trkpt lat="45.621724822476956" lon="11.342250888348865"><ele>334.5</ele><time>2026-04-10T13:23:39.999Z</time></trkpt><trkpt lat="45.621629037554975" lon="11.342368438645147"><ele>331.0</ele><time>2026-04-10T13:23:40.999Z</time></trkpt><trkpt lat="45.621539674424525" lon="11.342493782135467"><ele>331.0</ele><time>2026-04-10T13:23:41.999Z</time></trkpt><trkpt lat="45.62146439748343" lon="11.342620642430735"><ele>331.0</ele><time>2026-04-10T13:23:42.999Z</time></trkpt><trkpt lat="45.621401468617634" lon="11.342741154835862"><ele>331.0</ele><time>2026-04-10T13:23:43.999Z</time></trkpt><trkpt lat="45.62135328361544" lon="11.342842581855454"><ele>331.0</ele><time>2026-04-10T13:23:44.999Z</time></trkpt><trkpt lat="45.62128579500229" lon="11.342897834468177"><ele>331.0</ele><time>2026-04-10T13:23:45.999Z</time></trkpt><trkpt lat="45.62120552084776" lon="11.3429331814832"><ele>326.8333333333333</ele><time>2026-04-10T13:23:46.999Z</time></trkpt><trkpt lat="45.621123313947706" lon="11.342875240387247"><ele>322.66666666666663</ele><time>2026-04-10T13:23:47.999Z</time></trkpt><trkpt lat="45.62107503354031" lon="11.342794954565575"><ele>318.5</ele><time>2026-04-10T13:23:48.999Z</time></trkpt><trkpt lat="45.621067975990236" lon="11.342700614366773"><ele>314.3333333333333</ele><time>2026-04-10T13:23:49.999Z</time></trkpt><trkpt lat="45.621094964305605" lon="11.342596162031313"><ele>310.1666666666667</ele><time>2026-04-10T13:23:50.999Z</time></trkpt><trkpt lat="45.621114471895616" lon="11.342465509419565"><ele>306.0</ele><time>2026-04-10T13:23:51.999Z</time></trkpt><trkpt lat="45.62112432158057" lon="11.342295848974535"><ele>310.0</ele><time>2026-04-10T13:23:52.999Z</time></trkpt><trkpt lat="45.62116727557802" lon="11.342118699734918"><ele>314.0</ele><time>2026-04-10T13:23:53.999Z</time></trkpt><trkpt lat="45.62119513768511" lon="11.341938165129706"><ele>318.0</ele><time>2026-04-10T13:23:54.999Z</time></trkpt><trkpt lat="45.62122668280704" lon="11.341777712467756"><ele>322.0</ele><time>2026-04-10T13:23:55.999Z</time></trkpt><trkpt lat="45.621282876725665" lon="11.341630887173112"><ele>322.0</ele><time>2026-04-10T13:23:56.999Z</time></trkpt><trkpt lat="45.621364486420994" lon="11.341487852649959"><ele>322.0</ele><time>2026-04-10T13:23:57.999Z</time></trkpt><trkpt lat="45.62145514653332" lon="11.34133264010499"><ele>322.0</ele><time>2026-04-10T13:23:58.999Z</time></trkpt><trkpt lat="45.6215452042439" lon="11.34120402600974"><ele>322.0</ele><time>2026-04-10T13:23:59.999Z</time></trkpt><trkpt lat="45.62163371698589" lon="11.341079915228105"><ele>318.8</ele><time>2026-04-10T13:24:00.999Z</time></trkpt><trkpt lat="45.62170424392437" lon="11.340945818184972"><ele>315.6</ele><time>2026-04-10T13:24:01.999Z</time></trkpt><trkpt lat="45.621771446778034" lon="11.340824628391914"><ele>312.40000000000003</ele><time>2026-04-10T13:24:02.999Z</time></trkpt><trkpt lat="45.621822985383766" lon="11.34071157738849"><ele>309.20000000000005</ele><time>2026-04-10T13:24:03.999Z</time></trkpt><trkpt lat="45.62185996725342" lon="11.340605239370804"><ele>306.0</ele><time>2026-04-10T13:24:04.999Z</time></trkpt><trkpt lat="45.62188769083051" lon="11.340491851739738"><ele>304.6</ele><time>2026-04-10T13:24:05.999Z</time></trkpt><trkpt lat="45.6218968134777" lon="11.340374583930746"><ele>303.20000000000005</ele><time>2026-04-10T13:24:06.999Z</time></trkpt><trkpt lat="45.62187735800722" lon="11.340278937048359"><ele>301.79999999999995</ele><time>2026-04-10T13:24:07.999Z</time></trkpt><trkpt lat="45.62186889764134" lon="11.340161860417865"><ele>300.4</ele><time>2026-04-10T13:24:09.999Z</time></trkpt><trkpt lat="45.6217211327418" lon="11.340178519802938"><ele>299.0</ele><time>2026-04-10T13:24:11.999Z</time></trkpt><trkpt lat="45.621617583897255" lon="11.34020582452284"><ele>299.0</ele><time>2026-04-10T13:24:13Z</time></trkpt><trkpt lat="45.62149128262641" lon="11.340219090665334"><ele>299.0</ele><time>2026-04-10T13:24:14Z</time></trkpt><trkpt lat="45.621370712421786" lon="11.34023157862202"><ele>299.0</ele><time>2026-04-10T13:24:15Z</time></trkpt><trkpt lat="45.62127013581667" lon="11.340262875833782"><ele>299.0</ele><time>2026-04-10T13:24:16Z</time></trkpt><trkpt lat="45.62113878885042" lon="11.340350541592267"><ele>296.25</ele><time>2026-04-10T13:24:17Z</time></trkpt><trkpt lat="45.62105499028421" lon="11.340481117372665"><ele>293.5</ele><time>2026-04-10T13:24:18Z</time></trkpt><trkpt lat="45.62098966432372" lon="11.340661284243367"><ele>290.75</ele><time>2026-04-10T13:24:19Z</time></trkpt><trkpt lat="45.62093405061784" lon="11.340848183234748"><ele>288.0</ele><time>2026-04-10T13:24:20Z</time></trkpt><trkpt lat="45.62085895198626" lon="11.341016218672094"><ele>288.0</ele><time>2026-04-10T13:24:21Z</time></trkpt><trkpt lat="45.62078408395644" lon="11.341170352883156"><ele>288.0</ele><time>2026-04-10T13:24:22Z</time></trkpt><trkpt lat="45.620718462096" lon="11.341325266438707"><ele>288.0</ele><time>2026-04-10T13:24:23Z</time></trkpt><trkpt lat="45.620662514625536" lon="11.341495031463882"><ele>288.0</ele><time>2026-04-10T13:24:24Z</time></trkpt><trkpt lat="45.62061847657147" lon="11.34166335800138"><ele>286.25</ele><time>2026-04-10T13:24:25Z</time></trkpt><trkpt lat="45.62054666637241" lon="11.341803088435919"><ele>284.5</ele><time>2026-04-10T13:24:26Z</time></trkpt><trkpt lat="45.62046622370366" lon="11.341961164293924"><ele>282.75</ele><time>2026-04-10T13:24:27Z</time></trkpt><trkpt lat="45.62036925167616" lon="11.342118028637062"><ele>281.0</ele><time>2026-04-10T13:24:28Z</time></trkpt><trkpt lat="45.62027813845296" lon="11.342258910444999"><ele>281.0</ele><time>2026-04-10T13:24:29Z</time></trkpt><trkpt lat="45.620207273831014" lon="11.342377855383194"><ele>281.0</ele><time>2026-04-10T13:24:30Z</time></trkpt><trkpt lat="45.62014575320081" lon="11.34246576219093"><ele>281.0</ele><time>2026-04-10T13:24:31Z</time></trkpt><trkpt lat="45.62010121034285" lon="11.34254165425178"><ele>281.0</ele><time>2026-04-10T13:24:32Z</time></trkpt><trkpt lat="45.62001185265021" lon="11.342554064240046"><ele>281.0</ele><time>2026-04-10T13:24:34Z</time></trkpt><trkpt lat="45.619966334125195" lon="11.342459342398609"><ele>281.0</ele><time>2026-04-10T13:24:35Z</time></trkpt><trkpt lat="45.61996628511833" lon="11.342294747548921"><ele>279.2</ele><time>2026-04-10T13:24:36Z</time></trkpt><trkpt lat="45.61993864438225" lon="11.34217077141123"><ele>277.40000000000003</ele><time>2026-04-10T13:24:37Z</time></trkpt><trkpt lat="45.61991653145945" lon="11.342031928642042"><ele>275.6</ele><time>2026-04-10T13:24:38Z</time></trkpt><trkpt lat="45.61988280120131" lon="11.341938126101866"><ele>273.8</ele><time>2026-04-10T13:24:39Z</time></trkpt><trkpt lat="45.61979072242775" lon="11.341834640917808"><ele>272.0</ele><time>2026-04-10T13:24:41Z</time></trkpt><trkpt lat="45.6197110605268" lon="11.34187559219674"><ele>272.0</ele><time>2026-04-10T13:24:42Z</time></trkpt><trkpt lat="45.61961510432734" lon="11.341965200830577"><ele>272.0</ele><time>2026-04-10T13:24:43Z</time></trkpt><trkpt lat="45.6195020667449" lon="11.342051549144683"><ele>272.0</ele><time>2026-04-10T13:24:44Z</time></trkpt><trkpt lat="45.619394568285834" lon="11.34212254228423"><ele>272.0</ele><time>2026-04-10T13:24:44.999Z</time></trkpt><trkpt lat="45.619297989826684" lon="11.342190813446487"><ele>269.5</ele><time>2026-04-10T13:24:45.999Z</time></trkpt><trkpt lat="45.61919861650074" lon="11.342337785408025"><ele>267.0</ele><time>2026-04-10T13:24:46.999Z</time></trkpt><trkpt lat="45.61910532644009" lon="11.34246363007469"><ele>264.5</ele><time>2026-04-10T13:24:47.999Z</time></trkpt><trkpt lat="45.61901419349054" lon="11.342590599263048"><ele>262.0</ele><time>2026-04-10T13:24:48.999Z</time></trkpt><trkpt lat="45.61892010701338" lon="11.342711946105226"><ele>262.0</ele><time>2026-04-10T13:24:49.999Z</time></trkpt><trkpt lat="45.61884600831308" lon="11.342856125192409"><ele>262.0</ele><time>2026-04-10T13:24:50.999Z</time></trkpt><trkpt lat="45.6187882454313" lon="11.343029852948645"><ele>262.0</ele><time>2026-04-10T13:24:51.999Z</time></trkpt><trkpt lat="45.61872200953766" lon="11.343180203618132"><ele>262.0</ele><time>2026-04-10T13:24:52.999Z</time></trkpt><trkpt lat="45.618616496590974" lon="11.34327105873992"><ele>258.0</ele><time>2026-04-10T13:24:53.999Z</time></trkpt><trkpt lat="45.61852360862342" lon="11.343378362430528"><ele>254.0</ele><time>2026-04-10T13:24:54.999Z</time></trkpt><trkpt lat="45.61842511044389" lon="11.343474348703284"><ele>250.0</ele><time>2026-04-10T13:24:55.999Z</time></trkpt><trkpt lat="45.61831694593711" lon="11.343528567569441"><ele>246.0</ele><time>2026-04-10T13:24:56.999Z</time></trkpt><trkpt lat="45.61820771082009" lon="11.343581477624108"><ele>246.0</ele><time>2026-04-10T13:24:57.999Z</time></trkpt><trkpt lat="45.6180866367381" lon="11.343585802352026"><ele>246.00000000000003</ele><time>2026-04-10T13:24:58.999Z</time></trkpt><trkpt lat="45.617985428643614" lon="11.343643256153065"><ele>246.00000000000003</ele><time>2026-04-10T13:24:59.999Z</time></trkpt><trkpt lat="45.61789744834795" lon="11.343667863291307"><ele>246.0</ele><time>2026-04-10T13:25:00.999Z</time></trkpt><trkpt lat="45.61784923364219" lon="11.343767206490224"><ele>246.0</ele><time>2026-04-10T13:25:01.999Z</time></trkpt><trkpt lat="45.617844802607515" lon="11.343931194300756"><ele>247.0</ele><time>2026-04-10T13:25:02.999Z</time></trkpt><trkpt lat="45.61785972976595" lon="11.344098934290676"><ele>248.00000000000003</ele><time>2026-04-10T13:25:03.999Z</time></trkpt><trkpt lat="45.617857638287646" lon="11.344218035794693"><ele>249.00000000000003</ele><time>2026-04-10T13:25:04.999Z</time></trkpt><trkpt lat="45.617814699843564" lon="11.344319515615725"><ele>250.0</ele><time>2026-04-10T13:25:06.999Z</time></trkpt><trkpt lat="45.61790499295073" lon="11.34442750171265"><ele>251.0</ele><time>2026-04-10T13:25:18.999Z</time></trkpt><trkpt lat="45.617971044724406" lon="11.344452659598412"><ele>250.99999999999997</ele><time>2026-04-10T13:25:19.999Z</time></trkpt><trkpt lat="45.618035907115875" lon="11.34447181420442"><ele>251.0</ele><time>2026-04-10T13:25:20.999Z</time></trkpt><trkpt lat="45.618021118731264" lon="11.34457806477446"><ele>250.99999999999997</ele><time>2026-04-10T13:25:22.999Z</time></trkpt><trkpt lat="45.617960284079494" lon="11.344615817695528"><ele>250.99999999999997</ele><time>2026-04-10T13:25:23.999Z</time></trkpt><trkpt lat="45.61788026840796" lon="11.344584021107018"><ele>251.0</ele><time>2026-04-10T13:25:24.999Z</time></trkpt><trkpt lat="45.617804150177896" lon="11.344582756066753"><ele>250.99999999999997</ele><time>2026-04-10T13:25:25.999Z</time></trkpt><trkpt lat="45.617739276214756" lon="11.344596231580756"><ele>250.99999999999997</ele><time>2026-04-10T13:25:26.999Z</time></trkpt><trkpt lat="45.61765735208317" lon="11.344676008761798"><ele>250.4</ele><time>2026-04-10T13:25:28.999Z</time></trkpt><trkpt lat="45.617658854840066" lon="11.344795865067626"><ele>249.8</ele><time>2026-04-10T13:25:29.999Z</time></trkpt><trkpt lat="45.617674711967815" lon="11.344938254425609"><ele>249.20000000000002</ele><time>2026-04-10T13:25:30.999Z</time></trkpt><trkpt lat="45.61769113142699" lon="11.345094719154938"><ele>248.60000000000002</ele><time>2026-04-10T13:25:31.999Z</time></trkpt><trkpt lat="45.617715482427265" lon="11.345257979952045"><ele>248.0</ele><time>2026-04-10T13:25:32.999Z</time></trkpt><trkpt lat="45.61773456383035" lon="11.34542684044863"><ele>250.25</ele><time>2026-04-10T13:25:33.999Z</time></trkpt><trkpt lat="45.61774949083174" lon="11.345584182254573"><ele>252.5</ele><time>2026-04-10T13:25:34.999Z</time></trkpt><trkpt lat="45.61776886422354" lon="11.345756115962745"><ele>254.75</ele><time>2026-04-10T13:25:35.999Z</time></trkpt><trkpt lat="45.61778594973631" lon="11.34593960400758"><ele>257.0</ele><time>2026-04-10T13:25:36.999Z</time></trkpt><trkpt lat="45.61780750317595" lon="11.346104014640357"><ele>262.0</ele><time>2026-04-10T13:25:37.999Z</time></trkpt><trkpt lat="45.61782526996855" lon="11.346230290811626"><ele>267.0</ele><time>2026-04-10T13:25:38.999Z</time></trkpt><trkpt lat="45.61785519680847" lon="11.346360302629813"><ele>272.0</ele><time>2026-04-10T13:25:39.999Z</time></trkpt><trkpt lat="45.61789327263621" lon="11.346489280757817"><ele>277.0</ele><time>2026-04-10T13:25:40.999Z</time></trkpt><trkpt lat="45.617930194493326" lon="11.346607150577848"><ele>282.0</ele><time>2026-04-10T13:25:41.999Z</time></trkpt><trkpt lat="45.61797404327916" lon="11.346719118928226"><ele>282.8333333333333</ele><time>2026-04-10T13:25:42.999Z</time></trkpt><trkpt lat="45.61804388346961" lon="11.346853553843202"><ele>283.6666666666667</ele><time>2026-04-10T13:25:44.999Z</time></trkpt><trkpt lat="45.618111388495606" lon="11.346865111245934"><ele>284.5</ele><time>2026-04-10T13:25:45.999Z</time></trkpt><trkpt lat="45.61816564319853" lon="11.346799303829545"><ele>285.33333333333337</ele><time>2026-04-10T13:25:46.999Z</time></trkpt><trkpt lat="45.61819264203754" lon="11.346697806799375"><ele>286.1666666666667</ele><time>2026-04-10T13:25:47.999Z</time></trkpt><trkpt lat="45.61818489802378" lon="11.34659143741776"><ele>287.0</ele><time>2026-04-10T13:25:48.999Z</time></trkpt><trkpt lat="45.61817210670855" lon="11.346467453267604"><ele>286.1666666666667</ele><time>2026-04-10T13:25:49.999Z</time></trkpt><trkpt lat="45.61814575283576" lon="11.346325946867902"><ele>285.33333333333337</ele><time>2026-04-10T13:25:50.999Z</time></trkpt><trkpt lat="45.61813324850327" lon="11.346193708979513"><ele>284.5</ele><time>2026-04-10T13:25:51.999Z</time></trkpt><trkpt lat="45.61815892934603" lon="11.346068739111896"><ele>283.6666666666667</ele><time>2026-04-10T13:25:52.999Z</time></trkpt><trkpt lat="45.61820054334286" lon="11.345981571626067"><ele>282.8333333333333</ele><time>2026-04-10T13:25:53.999Z</time></trkpt><trkpt lat="45.61825861869158" lon="11.345896916926266"><ele>282.0</ele><time>2026-04-10T13:25:54.999Z</time></trkpt><trkpt lat="45.61833242062615" lon="11.345837632761803"><ele>282.0</ele><time>2026-04-10T13:25:55.999Z</time></trkpt><trkpt lat="45.61839867637848" lon="11.345857685409896"><ele>282.0</ele><time>2026-04-10T13:25:56.999Z</time></trkpt><trkpt lat="45.618530353081795" lon="11.34599246506308"><ele>282.0</ele><time>2026-04-10T13:25:58.999Z</time></trkpt><trkpt lat="45.618627411141155" lon="11.34607863750662"><ele>282.0</ele><time>2026-04-10T13:25:59.999Z</time></trkpt><trkpt lat="45.6186796486739" lon="11.346226954267934"><ele>288.25</ele><time>2026-04-10T13:26:00.999Z</time></trkpt><trkpt lat="45.618748531020344" lon="11.346385501581066"><ele>294.5</ele><time>2026-04-10T13:26:01.999Z</time></trkpt><trkpt lat="45.61884432239528" lon="11.346508624379881"><ele>300.75</ele><time>2026-04-10T13:26:02.999Z</time></trkpt><trkpt lat="45.61895591225389" lon="11.346557557854975"><ele>307.0</ele><time>2026-04-10T13:26:03.999Z</time></trkpt><trkpt lat="45.61905738070119" lon="11.346579221947138"><ele>307.0</ele><time>2026-04-10T13:26:04.999Z</time></trkpt><trkpt lat="45.619127771888884" lon="11.346717655943795"><ele>307.0</ele><time>2026-04-10T13:26:06.999Z</time></trkpt><trkpt lat="45.61903318074642" lon="11.346809301387593"><ele>307.0</ele><time>2026-04-10T13:26:07.999Z</time></trkpt><trkpt lat="45.619022896509556" lon="11.346909649031444"><ele>307.0</ele><time>2026-04-10T13:26:08.999Z</time></trkpt><trkpt lat="45.61901329294378" lon="11.347033303212772"><ele>307.0</ele><time>2026-04-10T13:26:09.999Z</time></trkpt><trkpt lat="45.61905876657784" lon="11.347147585173667"><ele>308.2</ele><time>2026-04-10T13:26:10.999Z</time></trkpt><trkpt lat="45.61912290834359" lon="11.347228489075"><ele>309.4</ele><time>2026-04-10T13:26:11.999Z</time></trkpt><trkpt lat="45.61920812810494" lon="11.347282160684596"><ele>310.6</ele><time>2026-04-10T13:26:12.999Z</time></trkpt><trkpt lat="45.61931481537556" lon="11.347294652745662"><ele>311.8</ele><time>2026-04-10T13:26:13.999Z</time></trkpt><trkpt lat="45.61942622928179" lon="11.34726067124972"><ele>313.0</ele><time>2026-04-10T13:26:14.999Z</time></trkpt><trkpt lat="45.6195388971936" lon="11.347207262247725"><ele>318.5</ele><time>2026-04-10T13:26:15.999Z</time></trkpt><trkpt lat="45.61966435953642" lon="11.347216292930717"><ele>324.0</ele><time>2026-04-10T13:26:16.999Z</time></trkpt><trkpt lat="45.6197846721634" lon="11.347223357098155"><ele>329.5</ele><time>2026-04-10T13:26:17.999Z</time></trkpt><trkpt lat="45.61991494036688" lon="11.34726578435307"><ele>335.0</ele><time>2026-04-10T13:26:19Z</time></trkpt><trkpt lat="45.620053393218456" lon="11.34730036578287"><ele>335.0</ele><time>2026-04-10T13:26:20Z</time></trkpt><trkpt lat="45.6202030052868" lon="11.347331643271145"><ele>335.0</ele><time>2026-04-10T13:26:21Z</time></trkpt><trkpt lat="45.620324443243774" lon="11.347341867733522"><ele>335.0</ele><time>2026-04-10T13:26:22Z</time></trkpt><trkpt lat="45.620406685298654" lon="11.347379140264314"><ele>335.0</ele><time>2026-04-10T13:26:23Z</time></trkpt><trkpt lat="45.6204798776069" lon="11.347509662258542"><ele>337.25</ele><time>2026-04-10T13:26:25Z</time></trkpt><trkpt lat="45.620467858285046" lon="11.347636338545323"><ele>339.5</ele><time>2026-04-10T13:26:26Z</time></trkpt><trkpt lat="45.62049792011788" lon="11.347796345665195"><ele>341.75</ele><time>2026-04-10T13:26:27Z</time></trkpt><trkpt lat="45.620523708736414" lon="11.347990183705509"><ele>344.0</ele><time>2026-04-10T13:26:28Z</time></trkpt><trkpt lat="45.62055715176531" lon="11.348173070929668"><ele>346.0</ele><time>2026-04-10T13:26:29Z</time></trkpt><trkpt lat="45.62060489468505" lon="11.3483467399107"><ele>348.0</ele><time>2026-04-10T13:26:30Z</time></trkpt><trkpt lat="45.62067775280114" lon="11.348534307105593"><ele>350.0</ele><time>2026-04-10T13:26:31Z</time></trkpt><trkpt lat="45.62077248534811" lon="11.348715589177266"><ele>352.0</ele><time>2026-04-10T13:26:32Z</time></trkpt><trkpt lat="45.62088190910367" lon="11.348891234322744"><ele>353.0</ele><time>2026-04-10T13:26:33Z</time></trkpt><trkpt lat="45.62100075463708" lon="11.349061624381813"><ele>354.0</ele><time>2026-04-10T13:26:34Z</time></trkpt><trkpt lat="45.621101142055466" lon="11.349228633741292"><ele>355.0</ele><time>2026-04-10T13:26:35Z</time></trkpt><trkpt lat="45.621154430780535" lon="11.349417972223115"><ele>357.16666666666663</ele><time>2026-04-10T13:26:36Z</time></trkpt><trkpt lat="45.62121631553771" lon="11.34955021397903"><ele>359.3333333333333</ele><time>2026-04-10T13:26:37Z</time></trkpt><trkpt lat="45.6212559105344" lon="11.349652706220086"><ele>361.5</ele><time>2026-04-10T13:26:38Z</time></trkpt><trkpt lat="45.621291810456114" lon="11.349746677049318"><ele>363.6666666666667</ele><time>2026-04-10T13:26:39Z</time></trkpt><trkpt lat="45.62132890537617" lon="11.349849239459534"><ele>365.83333333333337</ele><time>2026-04-10T13:26:40Z</time></trkpt><trkpt lat="45.62137208350942" lon="11.34995295061059"><ele>368.0</ele><time>2026-04-10T13:26:41Z</time></trkpt><trkpt lat="45.621426977755306" lon="11.350047725360094"><ele>368.5</ele><time>2026-04-10T13:26:42Z</time></trkpt><trkpt lat="45.62148675796134" lon="11.350136490442345"><ele>369.0</ele><time>2026-04-10T13:26:43Z</time></trkpt><trkpt lat="45.62153788199518" lon="11.350197138236116"><ele>369.5</ele><time>2026-04-10T13:26:44Z</time></trkpt><trkpt lat="45.62159903813628" lon="11.350257574878874"><ele>370.0</ele><time>2026-04-10T13:26:46Z</time></trkpt><trkpt lat="45.62164633448524" lon="11.350334444348693"><ele>370.5</ele><time>2026-04-10T13:26:49Z</time></trkpt><trkpt lat="45.62163897181781" lon="11.350425436905784"><ele>371.0</ele><time>2026-04-10T13:26:51Z</time></trkpt><trkpt lat="45.621660095836205" lon="11.350605191806144"><ele>371.1666666666667</ele><time>2026-04-10T13:26:53Z</time></trkpt><trkpt lat="45.621668991329386" lon="11.350708402533082"><ele>371.33333333333337</ele><time>2026-04-10T13:26:54Z</time></trkpt><trkpt lat="45.6216788534193" lon="11.35082282847618"><ele>371.5</ele><time>2026-04-10T13:26:55Z</time></trkpt><trkpt lat="45.62169277700848" lon="11.350943454056319"><ele>371.6666666666667</ele><time>2026-04-10T13:26:56Z</time></trkpt><trkpt lat="45.621704634177505" lon="11.351061589219725"><ele>371.8333333333333</ele><time>2026-04-10T13:26:57Z</time></trkpt><trkpt lat="45.621717016086144" lon="11.351181405365436"><ele>372.0</ele><time>2026-04-10T13:26:58Z</time></trkpt><trkpt lat="45.62172263905499" lon="11.351289794378896"><ele>371.6666666666667</ele><time>2026-04-10T13:26:59Z</time></trkpt><trkpt lat="45.621730460096394" lon="11.351390144172962"><ele>371.3333333333333</ele><time>2026-04-10T13:27:00Z</time></trkpt><trkpt lat="45.62171109097027" lon="11.351481455043402"><ele>371.0</ele><time>2026-04-10T13:27:01Z</time></trkpt><trkpt lat="45.621691730212916" lon="11.351603722877735"><ele>370.66666666666663</ele><time>2026-04-10T13:27:03Z</time></trkpt><trkpt lat="45.6217191532462" lon="11.351734108345358"><ele>370.3333333333333</ele><time>2026-04-10T13:27:06Z</time></trkpt><trkpt lat="45.6217931808174" lon="11.35187936750759"><ele>370.0</ele><time>2026-04-10T13:27:08Z</time></trkpt><trkpt lat="45.621845166849276" lon="11.351968338409293"><ele>370.0</ele><time>2026-04-10T13:27:09Z</time></trkpt><trkpt lat="45.62190513374393" lon="11.352054605634565"><ele>370.0</ele><time>2026-04-10T13:27:10Z</time></trkpt><trkpt lat="45.621982773990354" lon="11.35214204826707"><ele>370.0</ele><time>2026-04-10T13:27:11Z</time></trkpt><trkpt lat="45.62206583115478" lon="11.352237422879265"><ele>370.0</ele><time>2026-04-10T13:27:12Z</time></trkpt><trkpt lat="45.62212515342219" lon="11.352354855226888"><ele>370.0</ele><time>2026-04-10T13:27:13Z</time></trkpt><trkpt lat="45.62219471122694" lon="11.352449060299932"><ele>371.0</ele><time>2026-04-10T13:27:14Z</time></trkpt><trkpt lat="45.62224002625593" lon="11.352551895150137"><ele>372.0</ele><time>2026-04-10T13:27:15Z</time></trkpt><trkpt lat="45.62226728279269" lon="11.352645112201301"><ele>373.0</ele><time>2026-04-10T13:27:16Z</time></trkpt><trkpt lat="45.6222916364803" lon="11.352729666020531"><ele>374.0</ele><time>2026-04-10T13:27:17Z</time></trkpt><trkpt lat="45.622256074399345" lon="11.352849153291421"><ele>375.0</ele><time>2026-04-10T13:27:19Z</time></trkpt><trkpt lat="45.62219423782981" lon="11.35286714656932"><ele>376.0</ele><time>2026-04-10T13:27:20Z</time></trkpt><trkpt lat="45.622100405947116" lon="11.352848075225975"><ele>376.0</ele><time>2026-04-10T13:27:21Z</time></trkpt><trkpt lat="45.622010311493526" lon="11.352878539366696"><ele>376.0</ele><time>2026-04-10T13:27:22Z</time></trkpt><trkpt lat="45.62193413142019" lon="11.352924661744444"><ele>376.0</ele><time>2026-04-10T13:27:23Z</time></trkpt><trkpt lat="45.62185907702565" lon="11.353016229948047"><ele>376.0</ele><time>2026-04-10T13:27:24Z</time></trkpt><trkpt lat="45.62178683467528" lon="11.353129284091699"><ele>376.0</ele><time>2026-04-10T13:27:25Z</time></trkpt><trkpt lat="45.6217120310355" lon="11.353234348574484"><ele>373.0</ele><time>2026-04-10T13:27:26Z</time></trkpt><trkpt lat="45.62162938573162" lon="11.353336916483656"><ele>370.0</ele><time>2026-04-10T13:27:26.999Z</time></trkpt><trkpt lat="45.621522505357355" lon="11.353433373920495"><ele>367.0</ele><time>2026-04-10T13:27:27.999Z</time></trkpt><trkpt lat="45.62143652822388" lon="11.353448569140324"><ele>364.0</ele><time>2026-04-10T13:27:28.999Z</time></trkpt><trkpt lat="45.62134282886962" lon="11.353455889032634"><ele>361.0</ele><time>2026-04-10T13:27:29.999Z</time></trkpt><trkpt lat="45.62126050509626" lon="11.353494605525007"><ele>361.0</ele><time>2026-04-10T13:27:30.999Z</time></trkpt><trkpt lat="45.62119050937278" lon="11.353505263914592"><ele>361.0</ele><time>2026-04-10T13:27:31.999Z</time></trkpt><trkpt lat="45.62111739378919" lon="11.353522624741638"><ele>361.0</ele><time>2026-04-10T13:27:32.999Z</time></trkpt><trkpt lat="45.62101376193535" lon="11.353547518621415"><ele>361.0</ele><time>2026-04-10T13:27:33.999Z</time></trkpt><trkpt lat="45.62091190238644" lon="11.353570106932253"><ele>361.0</ele><time>2026-04-10T13:27:34.999Z</time></trkpt><trkpt lat="45.62080479332296" lon="11.353569658531216"><ele>360.4</ele><time>2026-04-10T13:27:35.999Z</time></trkpt><trkpt lat="45.620701966683725" lon="11.353571979975476"><ele>359.8</ele><time>2026-04-10T13:27:36.999Z</time></trkpt><trkpt lat="45.62061203377408" lon="11.353594757683435"><ele>359.2</ele><time>2026-04-10T13:27:37.999Z</time></trkpt><trkpt lat="45.62054076298346" lon="11.353659058059742"><ele>358.59999999999997</ele><time>2026-04-10T13:27:38.999Z</time></trkpt><trkpt lat="45.62047395820743" lon="11.353750597376573"><ele>358.0</ele><time>2026-04-10T13:27:39.999Z</time></trkpt><trkpt lat="45.62041800896305" lon="11.353873627322768"><ele>358.5</ele><time>2026-04-10T13:27:40.999Z</time></trkpt><trkpt lat="45.62034002327233" lon="11.354007145930971"><ele>359.0</ele><time>2026-04-10T13:27:41.999Z</time></trkpt><trkpt lat="45.620274602215815" lon="11.354145977674044"><ele>359.5</ele><time>2026-04-10T13:27:42.999Z</time></trkpt><trkpt lat="45.62020328221294" lon="11.354291874701179"><ele>360.0</ele><time>2026-04-10T13:27:43.999Z</time></trkpt><trkpt lat="45.62013834430504" lon="11.354428573275474"><ele>360.0</ele><time>2026-04-10T13:27:44.999Z</time></trkpt><trkpt lat="45.6200690753156" lon="11.354561385303468"><ele>360.0</ele><time>2026-04-10T13:27:45.999Z</time></trkpt><trkpt lat="45.62001054308846" lon="11.354679128041635"><ele>360.0</ele><time>2026-04-10T13:27:46.999Z</time></trkpt><trkpt lat="45.619958364561036" lon="11.354790318167455"><ele>360.0</ele><time>2026-04-10T13:27:47.999Z</time></trkpt><trkpt lat="45.61991570146863" lon="11.354910959880979"><ele>360.0</ele><time>2026-04-10T13:27:48.999Z</time></trkpt><trkpt lat="45.61988393455679" lon="11.355048489696507"><ele>360.3333333333333</ele><time>2026-04-10T13:27:49.999Z</time></trkpt><trkpt lat="45.619864212571784" lon="11.35519508046019"><ele>360.6666666666667</ele><time>2026-04-10T13:27:50.999Z</time></trkpt><trkpt lat="45.619865429890986" lon="11.355328613493695"><ele>361.0</ele><time>2026-04-10T13:27:51.999Z</time></trkpt><trkpt lat="45.61985141302137" lon="11.355433624724405"><ele>361.33333333333337</ele><time>2026-04-10T13:27:52.999Z</time></trkpt><trkpt lat="45.61977131210508" lon="11.355503132144126"><ele>361.6666666666667</ele><time>2026-04-10T13:27:54.999Z</time></trkpt><trkpt lat="45.61970103367" lon="11.35551643603864"><ele>362.0</ele><time>2026-04-10T13:27:55.999Z</time></trkpt><trkpt lat="45.61961352051364" lon="11.355570636998323"><ele>363.20000000000005</ele><time>2026-04-10T13:27:56.999Z</time></trkpt><trkpt lat="45.61952769006964" lon="11.355638455164437"><ele>364.4</ele><time>2026-04-10T13:27:57.999Z</time></trkpt><trkpt lat="45.61944108279387" lon="11.355706424416134"><ele>365.6</ele><time>2026-04-10T13:27:58.999Z</time></trkpt><trkpt lat="45.619355234377295" lon="11.355774257808676"><ele>366.79999999999995</ele><time>2026-04-10T13:27:59.999Z</time></trkpt><trkpt lat="45.6192821086818" lon="11.355827149379405"><ele>368.0</ele><time>2026-04-10T13:28:00.999Z</time></trkpt><trkpt lat="45.619208455404376" lon="11.355860971627816"><ele>368.0</ele><time>2026-04-10T13:28:01.999Z</time></trkpt><trkpt lat="45.61913199563206" lon="11.355871773189557"><ele>368.0</ele><time>2026-04-10T13:28:02.999Z</time></trkpt><trkpt lat="45.61905415757852" lon="11.355858267057485"><ele>368.0</ele><time>2026-04-10T13:28:03.999Z</time></trkpt><trkpt lat="45.61896090625031" lon="11.35584145626185"><ele>368.0</ele><time>2026-04-10T13:28:04.999Z</time></trkpt><trkpt lat="45.61886920429823" lon="11.355831996799418"><ele>368.0</ele><time>2026-04-10T13:28:05.999Z</time></trkpt><trkpt lat="45.61875364757021" lon="11.355826863435825"><ele>367.75</ele><time>2026-04-10T13:28:06.999Z</time></trkpt><trkpt lat="45.618640363634846" lon="11.35585776966855"><ele>367.5</ele><time>2026-04-10T13:28:07.999Z</time></trkpt><trkpt lat="45.61852388771622" lon="11.355896138590087"><ele>367.25</ele><time>2026-04-10T13:28:08.999Z</time></trkpt><trkpt lat="45.6184025474846" lon="11.355970261803613"><ele>367.0</ele><time>2026-04-10T13:28:09.999Z</time></trkpt><trkpt lat="45.6182800296155" lon="11.356027685733324"><ele>367.0</ele><time>2026-04-10T13:28:10.999Z</time></trkpt><trkpt lat="45.618171825809405" lon="11.356063587801097"><ele>367.0</ele><time>2026-04-10T13:28:11.999Z</time></trkpt><trkpt lat="45.61807291822929" lon="11.356063644288522"><ele>367.0</ele><time>2026-04-10T13:28:12.999Z</time></trkpt><trkpt lat="45.617999872467806" lon="11.355962787478212"><ele>367.0</ele><time>2026-04-10T13:28:13.999Z</time></trkpt><trkpt lat="45.6178980125408" lon="11.35588596202763"><ele>367.0</ele><time>2026-04-10T13:28:14.999Z</time></trkpt><trkpt lat="45.61777814968582" lon="11.355815100147312"><ele>369.5</ele><time>2026-04-10T13:28:15.999Z</time></trkpt><trkpt lat="45.61766403672925" lon="11.355724088690751"><ele>372.0</ele><time>2026-04-10T13:28:16.999Z</time></trkpt><trkpt lat="45.617547617707785" lon="11.355643838276011"><ele>374.5</ele><time>2026-04-10T13:28:17.999Z</time></trkpt><trkpt lat="45.61744497146609" lon="11.355569074271282"><ele>377.0</ele><time>2026-04-10T13:28:18.999Z</time></trkpt><trkpt lat="45.617339282063746" lon="11.355491800632214"><ele>371.75</ele><time>2026-04-10T13:28:19.999Z</time></trkpt><trkpt lat="45.61723960298893" lon="11.355410489924632"><ele>366.5</ele><time>2026-04-10T13:28:20.999Z</time></trkpt><trkpt lat="45.61714087099052" lon="11.35532368695644"><ele>361.25</ele><time>2026-04-10T13:28:21.999Z</time></trkpt><trkpt lat="45.61704103378304" lon="11.355234645577307"><ele>356.0</ele><time>2026-04-10T13:28:22.999Z</time></trkpt><trkpt lat="45.61693800047439" lon="11.355145283691103"><ele>356.0</ele><time>2026-04-10T13:28:23.999Z</time></trkpt><trkpt lat="45.61683608819697" lon="11.355051886496815"><ele>356.0</ele><time>2026-04-10T13:28:25Z</time></trkpt><trkpt lat="45.61676243724172" lon="11.354922172965766"><ele>356.0</ele><time>2026-04-10T13:28:26Z</time></trkpt><trkpt lat="45.61668091737857" lon="11.354791551439257"><ele>356.0</ele><time>2026-04-10T13:28:27Z</time></trkpt><trkpt lat="45.61661093799203" lon="11.354658968324465"><ele>354.0</ele><time>2026-04-10T13:28:28Z</time></trkpt><trkpt lat="45.616567586394716" lon="11.354521358026318"><ele>352.0</ele><time>2026-04-10T13:28:29Z</time></trkpt><trkpt lat="45.61657611130389" lon="11.354372106047537"><ele>350.0</ele><time>2026-04-10T13:28:30Z</time></trkpt><trkpt lat="45.61656415817124" lon="11.354214015153513"><ele>348.0</ele><time>2026-04-10T13:28:31Z</time></trkpt><trkpt lat="45.616542082389756" lon="11.35406972960226"><ele>346.0</ele><time>2026-04-10T13:28:32Z</time></trkpt><trkpt lat="45.61646539263328" lon="11.353947917735148"><ele>345.0</ele><time>2026-04-10T13:28:33Z</time></trkpt><trkpt lat="45.61638074790218" lon="11.353818771541807"><ele>344.0</ele><time>2026-04-10T13:28:34Z</time></trkpt><trkpt lat="45.61628736622924" lon="11.35368925933736"><ele>343.0</ele><time>2026-04-10T13:28:35Z</time></trkpt><trkpt lat="45.61622416414732" lon="11.35354143432767"><ele>342.0</ele><time>2026-04-10T13:28:36Z</time></trkpt><trkpt lat="45.61614973130137" lon="11.353417922526454"><ele>342.0</ele><time>2026-04-10T13:28:37Z</time></trkpt><trkpt lat="45.616084721390784" lon="11.353288255038585"><ele>342.0</ele><time>2026-04-10T13:28:38Z</time></trkpt><trkpt lat="45.61599836702153" lon="11.353186904715685"><ele>342.0</ele><time>2026-04-10T13:28:39Z</time></trkpt><trkpt lat="45.6159219221988" lon="11.353060411987553"><ele>342.0</ele><time>2026-04-10T13:28:40Z</time></trkpt><trkpt lat="45.61589245377949" lon="11.352889621002742"><ele>339.25</ele><time>2026-04-10T13:28:41Z</time></trkpt><trkpt lat="45.615868233088335" lon="11.352720428004432"><ele>336.5</ele><time>2026-04-10T13:28:42Z</time></trkpt><trkpt lat="45.615840996008" lon="11.352549101064499"><ele>333.75</ele><time>2026-04-10T13:28:43Z</time></trkpt><trkpt lat="45.615866259837645" lon="11.352375557417178"><ele>331.0</ele><time>2026-04-10T13:28:44Z</time></trkpt><trkpt lat="45.615894086034714" lon="11.352198264257504"><ele>328.8</ele><time>2026-04-10T13:28:45Z</time></trkpt><trkpt lat="45.61593867513639" lon="11.352034225220558"><ele>326.6</ele><time>2026-04-10T13:28:46Z</time></trkpt><trkpt lat="45.61599133876094" lon="11.351883555322171"><ele>324.4</ele><time>2026-04-10T13:28:47Z</time></trkpt><trkpt lat="45.616010852109845" lon="11.351756915804764"><ele>322.2</ele><time>2026-04-10T13:28:48Z</time></trkpt><trkpt lat="45.61599128945808" lon="11.351620993248257"><ele>320.0</ele><time>2026-04-10T13:28:49Z</time></trkpt><trkpt lat="45.61594686636897" lon="11.351489686637493"><ele>317.0</ele><time>2026-04-10T13:28:50Z</time></trkpt><trkpt lat="45.615889103068106" lon="11.351348137149952"><ele>314.0</ele><time>2026-04-10T13:28:51Z</time></trkpt><trkpt lat="45.61582625524727" lon="11.35122917218151"><ele>311.0</ele><time>2026-04-10T13:28:52Z</time></trkpt><trkpt lat="45.61574688207042" lon="11.351120054490984"><ele>308.0</ele><time>2026-04-10T13:28:53Z</time></trkpt><trkpt lat="45.61564673264804" lon="11.351069250495952"><ele>305.0</ele><time>2026-04-10T13:28:54Z</time></trkpt><trkpt lat="45.61553926961647" lon="11.351012431467463"><ele>305.0</ele><time>2026-04-10T13:28:55Z</time></trkpt><trkpt lat="45.61544635401553" lon="11.350924025875177"><ele>305.0</ele><time>2026-04-10T13:28:56Z</time></trkpt><trkpt lat="45.61543630369613" lon="11.350775342896462"><ele>305.0</ele><time>2026-04-10T13:28:57Z</time></trkpt><trkpt lat="45.615377145922515" lon="11.350637042551861"><ele>305.0</ele><time>2026-04-10T13:28:58Z</time></trkpt><trkpt lat="45.615332543939594" lon="11.350489267925566"><ele>305.0</ele><time>2026-04-10T13:28:59Z</time></trkpt><trkpt lat="45.61524662389429" lon="11.350362031980136"><ele>301.75</ele><time>2026-04-10T13:29:00Z</time></trkpt><trkpt lat="45.61513879145441" lon="11.35026009538226"><ele>298.5</ele><time>2026-04-10T13:29:01Z</time></trkpt><trkpt lat="45.61505482114462" lon="11.350129889812312"><ele>295.25</ele><time>2026-04-10T13:29:02Z</time></trkpt><trkpt lat="45.614979153939046" lon="11.349981954732758"><ele>292.0</ele><time>2026-04-10T13:29:03Z</time></trkpt><trkpt lat="45.614867101545016" lon="11.349797096626087"><ele>292.0</ele><time>2026-04-10T13:29:04Z</time></trkpt><trkpt lat="45.6147975923655" lon="11.349732561738747"><ele>292.0</ele><time>2026-04-10T13:29:05Z</time></trkpt><trkpt lat="45.61471447031592" lon="11.349616511181948"><ele>292.0</ele><time>2026-04-10T13:29:06Z</time></trkpt><trkpt lat="45.61460858020464" lon="11.349544887410111"><ele>292.0</ele><time>2026-04-10T13:29:07Z</time></trkpt><trkpt lat="45.6145020350585" lon="11.349462558483838"><ele>292.0</ele><time>2026-04-10T13:29:08Z</time></trkpt><trkpt lat="45.6144058983542" lon="11.349377237416933"><ele>287.25</ele><time>2026-04-10T13:29:09Z</time></trkpt><trkpt lat="45.61431269631284" lon="11.349306234966411"><ele>282.5</ele><time>2026-04-10T13:29:10Z</time></trkpt><trkpt lat="45.61421065723108" lon="11.349261209408803"><ele>277.75</ele><time>2026-04-10T13:29:11Z</time></trkpt><trkpt lat="45.6140918101112" lon="11.349256946604095"><ele>273.0</ele><time>2026-04-10T13:29:12Z</time></trkpt><trkpt lat="45.61396764001073" lon="11.349272633601268"><ele>273.0</ele><time>2026-04-10T13:29:13Z</time></trkpt><trkpt lat="45.61386343962442" lon="11.349276146556734"><ele>273.0</ele><time>2026-04-10T13:29:14Z</time></trkpt><trkpt lat="45.61376625253645" lon="11.349274028037566"><ele>273.0</ele><time>2026-04-10T13:29:15Z</time></trkpt><trkpt lat="45.613675886377784" lon="11.349266465678333"><ele>273.0</ele><time>2026-04-10T13:29:16Z</time></trkpt><trkpt lat="45.61358104878813" lon="11.349231193331738"><ele>273.0</ele><time>2026-04-10T13:29:17Z</time></trkpt><trkpt lat="45.613465285298666" lon="11.34925459430216"><ele>270.25</ele><time>2026-04-10T13:29:18Z</time></trkpt><trkpt lat="45.613345089097585" lon="11.349259614976665"><ele>267.5</ele><time>2026-04-10T13:29:19Z</time></trkpt><trkpt lat="45.61322839428507" lon="11.34925139636134"><ele>264.75</ele><time>2026-04-10T13:29:20Z</time></trkpt><trkpt lat="45.61311546468155" lon="11.349221980907691"><ele>262.0</ele><time>2026-04-10T13:29:21Z</time></trkpt><trkpt lat="45.61302058724612" lon="11.349137849642581"><ele>262.0</ele><time>2026-04-10T13:29:22Z</time></trkpt><trkpt lat="45.612946072770505" lon="11.349062704121952"><ele>262.0</ele><time>2026-04-10T13:29:23Z</time></trkpt><trkpt lat="45.612860693192445" lon="11.348976644581482"><ele>262.0</ele><time>2026-04-10T13:29:25Z</time></trkpt><trkpt lat="45.61278135671821" lon="11.349123546340955"><ele>262.0</ele><time>2026-04-10T13:29:31Z</time></trkpt><trkpt lat="45.61278463266561" lon="11.349237929208238"><ele>262.0</ele><time>2026-04-10T13:29:32Z</time></trkpt><trkpt lat="45.61275594835846" lon="11.349373983910223"><ele>260.6</ele><time>2026-04-10T13:29:33Z</time></trkpt><trkpt lat="45.61269000776582" lon="11.349511554399717"><ele>259.2</ele><time>2026-04-10T13:29:34Z</time></trkpt><trkpt lat="45.612597788220555" lon="11.349608351055842"><ele>257.8</ele><time>2026-04-10T13:29:35Z</time></trkpt><trkpt lat="45.61250583173235" lon="11.349685124798308"><ele>256.4</ele><time>2026-04-10T13:29:36Z</time></trkpt><trkpt lat="45.61243025124422" lon="11.349784590883626"><ele>255.0</ele><time>2026-04-10T13:29:37Z</time></trkpt><trkpt lat="45.61237077690817" lon="11.34988993665684"><ele>255.0</ele><time>2026-04-10T13:29:38Z</time></trkpt><trkpt lat="45.61230483012079" lon="11.349982886010503"><ele>255.0</ele><time>2026-04-10T13:29:39Z</time></trkpt><trkpt lat="45.612223998181875" lon="11.350020755898578"><ele>255.0</ele><time>2026-04-10T13:29:40Z</time></trkpt><trkpt lat="45.61214907591517" lon="11.349962816893852"><ele>255.0</ele><time>2026-04-10T13:29:41Z</time></trkpt><trkpt lat="45.61205654816589" lon="11.349945035359747"><ele>255.0</ele><time>2026-04-10T13:29:42Z</time></trkpt><trkpt lat="45.61196378398075" lon="11.349924716942883"><ele>254.8</ele><time>2026-04-10T13:29:43Z</time></trkpt><trkpt lat="45.611860032103316" lon="11.349917531934747"><ele>254.6</ele><time>2026-04-10T13:29:44Z</time></trkpt><trkpt lat="45.61176335367973" lon="11.349915416795946"><ele>254.39999999999998</ele><time>2026-04-10T13:29:45Z</time></trkpt><trkpt lat="45.61167083038965" lon="11.349906955400343"><ele>254.2</ele><time>2026-04-10T13:29:46Z</time></trkpt><trkpt lat="45.611581827371005" lon="11.349900772326878"><ele>254.0</ele><time>2026-04-10T13:29:47Z</time></trkpt><trkpt lat="45.611492989878826" lon="11.349893016903742"><ele>254.0</ele><time>2026-04-10T13:29:48Z</time></trkpt><trkpt lat="45.6114019052107" lon="11.349892697134091"><ele>253.99999999999997</ele><time>2026-04-10T13:29:49Z</time></trkpt><trkpt lat="45.61129735857065" lon="11.349911443698963"><ele>253.99999999999997</ele><time>2026-04-10T13:29:50Z</time></trkpt><trkpt lat="45.61119101695672" lon="11.349962107155253"><ele>254.0</ele><time>2026-04-10T13:29:51Z</time></trkpt><trkpt lat="45.611088590559575" lon="11.350037872025945"><ele>254.0</ele><time>2026-04-10T13:29:52Z</time></trkpt><trkpt lat="45.610992951435996" lon="11.35013537074275"><ele>252.79999999999998</ele><time>2026-04-10T13:29:53Z</time></trkpt><trkpt lat="45.61091054251929" lon="11.350231648840165"><ele>251.59999999999997</ele><time>2026-04-10T13:29:54Z</time></trkpt><trkpt lat="45.610840401812084" lon="11.350319268886848"><ele>250.4</ele><time>2026-04-10T13:29:55Z</time></trkpt><trkpt lat="45.61078878319348" lon="11.350423947014141"><ele>249.2</ele><time>2026-04-10T13:29:56Z</time></trkpt><trkpt lat="45.61075395851297" lon="11.350534206997779"><ele>248.0</ele><time>2026-04-10T13:29:57Z</time></trkpt><trkpt lat="45.61074840755549" lon="11.350653522906574"><ele>248.0</ele><time>2026-04-10T13:29:58Z</time></trkpt><trkpt lat="45.61075301609476" lon="11.350771523962592"><ele>248.0</ele><time>2026-04-10T13:29:59Z</time></trkpt><trkpt lat="45.61076773796134" lon="11.350898882835047"><ele>248.0</ele><time>2026-04-10T13:30:00Z</time></trkpt><trkpt lat="45.61078038239881" lon="11.351024121975122"><ele>248.0</ele><time>2026-04-10T13:30:01Z</time></trkpt><trkpt lat="45.610786318775375" lon="11.35115870052477"><ele>248.0</ele><time>2026-04-10T13:30:02Z</time></trkpt><trkpt lat="45.61077740725833" lon="11.351295508243249"><ele>248.8</ele><time>2026-04-10T13:30:03Z</time></trkpt><trkpt lat="45.6107563386202" lon="11.351437953999508"><ele>249.60000000000002</ele><time>2026-04-10T13:30:04Z</time></trkpt><trkpt lat="45.61069602337711" lon="11.35157543830115"><ele>250.39999999999998</ele><time>2026-04-10T13:30:05Z</time></trkpt><trkpt lat="45.61067169275234" lon="11.351730815356193"><ele>251.2</ele><time>2026-04-10T13:30:06Z</time></trkpt><trkpt lat="45.61065194408021" lon="11.351891093031352"><ele>252.0</ele><time>2026-04-10T13:30:06.999Z</time></trkpt><trkpt lat="45.610640336272624" lon="11.352061966235027"><ele>252.75</ele><time>2026-04-10T13:30:07.999Z</time></trkpt><trkpt lat="45.61061192566573" lon="11.352218798535159"><ele>253.5</ele><time>2026-04-10T13:30:08.999Z</time></trkpt><trkpt lat="45.61055076391284" lon="11.352359209699902"><ele>254.25</ele><time>2026-04-10T13:30:09.999Z</time></trkpt><trkpt lat="45.610474490863844" lon="11.352494220862436"><ele>255.0</ele><time>2026-04-10T13:30:10.999Z</time></trkpt><trkpt lat="45.61039917104526" lon="11.35262958462516"><ele>255.0</ele><time>2026-04-10T13:30:11.999Z</time></trkpt><trkpt lat="45.610340104773876" lon="11.352745996036061"><ele>255.0</ele><time>2026-04-10T13:30:12.999Z</time></trkpt><trkpt lat="45.61028641739693" lon="11.3528398492332"><ele>255.0</ele><time>2026-04-10T13:30:13.999Z</time></trkpt><trkpt lat="45.61024326895017" lon="11.352924487909942"><ele>255.0</ele><time>2026-04-10T13:30:14.999Z</time></trkpt><trkpt lat="45.610208022774884" lon="11.353011105960828"><ele>255.0</ele><time>2026-04-10T13:30:15.999Z</time></trkpt><trkpt lat="45.61018477083675" lon="11.353113919469065"><ele>255.0</ele><time>2026-04-10T13:30:16.999Z</time></trkpt><trkpt lat="45.61017754326948" lon="11.353225206019962"><ele>256.0</ele><time>2026-04-10T13:30:17.999Z</time></trkpt><trkpt lat="45.61019657007628" lon="11.353332458245228"><ele>257.0</ele><time>2026-04-10T13:30:18.999Z</time></trkpt><trkpt lat="45.61022049028958" lon="11.353428499265457"><ele>258.0</ele><time>2026-04-10T13:30:19.999Z</time></trkpt><trkpt lat="45.61024787044972" lon="11.353523428920978"><ele>259.0</ele><time>2026-04-10T13:30:20.999Z</time></trkpt><trkpt lat="45.61026988058054" lon="11.353626878107367"><ele>260.0</ele><time>2026-04-10T13:30:21.999Z</time></trkpt><trkpt lat="45.61030757118599" lon="11.35373547993889"><ele>261.0</ele><time>2026-04-10T13:30:22.999Z</time></trkpt><trkpt lat="45.610361719262855" lon="11.353846221089311"><ele>260.40000000000003</ele><time>2026-04-10T13:30:23.999Z</time></trkpt><trkpt lat="45.610447174817985" lon="11.353928325513587"><ele>259.8</ele><time>2026-04-10T13:30:24.999Z</time></trkpt><trkpt lat="45.61054825897838" lon="11.353989153422027"><ele>259.20000000000005</ele><time>2026-04-10T13:30:25.999Z</time></trkpt><trkpt lat="45.61065265356681" lon="11.354034271643409"><ele>258.6</ele><time>2026-04-10T13:30:26.999Z</time></trkpt><trkpt lat="45.61073596269639" lon="11.354084895112635"><ele>258.0</ele><time>2026-04-10T13:30:27.999Z</time></trkpt><trkpt lat="45.61080290520741" lon="11.354178388203518"><ele>258.0</ele><time>2026-04-10T13:30:28.999Z</time></trkpt><trkpt lat="45.61087667597029" lon="11.3543023795594"><ele>258.0</ele><time>2026-04-10T13:30:29.999Z</time></trkpt><trkpt lat="45.610958883354215" lon="11.35444007132364"><ele>258.0</ele><time>2026-04-10T13:30:31Z</time></trkpt><trkpt lat="45.61102598973441" lon="11.35460868511808"><ele>258.0</ele><time>2026-04-10T13:30:32Z</time></trkpt><trkpt lat="45.611095388440454" lon="11.354759305456"><ele>256.4</ele><time>2026-04-10T13:30:33Z</time></trkpt><trkpt lat="45.6111459850404" lon="11.354885650238943"><ele>254.8</ele><time>2026-04-10T13:30:34Z</time></trkpt><trkpt lat="45.611156965686895" lon="11.355010839456153"><ele>253.2</ele><time>2026-04-10T13:30:35Z</time></trkpt><trkpt lat="45.61113976355188" lon="11.35514972474979"><ele>251.6</ele><time>2026-04-10T13:30:36Z</time></trkpt><trkpt lat="45.611102896134646" lon="11.355293150444592"><ele>250.0</ele><time>2026-04-10T13:30:37Z</time></trkpt><trkpt lat="45.611048179127714" lon="11.355444552804357"><ele>250.4</ele><time>2026-04-10T13:30:38Z</time></trkpt><trkpt lat="45.61101551185157" lon="11.355603329917813"><ele>250.8</ele><time>2026-04-10T13:30:39Z</time></trkpt><trkpt lat="45.61098234335485" lon="11.355733588444526"><ele>251.2</ele><time>2026-04-10T13:30:40Z</time></trkpt><trkpt lat="45.61098686344537" lon="11.355859830498451"><ele>251.6</ele><time>2026-04-10T13:30:41Z</time></trkpt><trkpt lat="45.61102144545739" lon="11.356000644651324"><ele>252.0</ele><time>2026-04-10T13:30:42Z</time></trkpt><trkpt lat="45.61106010580305" lon="11.3561208154302"><ele>252.0</ele><time>2026-04-10T13:30:43Z</time></trkpt><trkpt lat="45.611097875409854" lon="11.356231025465954"><ele>252.0</ele><time>2026-04-10T13:30:44Z</time></trkpt><trkpt lat="45.61113717774809" lon="11.3563539530856"><ele>252.0</ele><time>2026-04-10T13:30:45Z</time></trkpt><trkpt lat="45.61117849722259" lon="11.356479807180275"><ele>252.0</ele><time>2026-04-10T13:30:46Z</time></trkpt><trkpt lat="45.61123105405754" lon="11.356605002595344"><ele>252.0</ele><time>2026-04-10T13:30:47Z</time></trkpt><trkpt lat="45.61130150227528" lon="11.35670921751573"><ele>258.0</ele><time>2026-04-10T13:30:48Z</time></trkpt><trkpt lat="45.611366831491594" lon="11.356777931438344"><ele>264.0</ele><time>2026-04-10T13:30:49Z</time></trkpt><trkpt lat="45.611439957440275" lon="11.356948060360256"><ele>270.0</ele><time>2026-04-10T13:30:51Z</time></trkpt><trkpt lat="45.61141155215279" lon="11.357089790498291"><ele>276.0</ele><time>2026-04-10T13:30:52Z</time></trkpt><trkpt lat="45.611361303111416" lon="11.35720511627438"><ele>282.0</ele><time>2026-04-10T13:30:53Z</time></trkpt><trkpt lat="45.61129381636309" lon="11.357326115697097"><ele>282.75</ele><time>2026-04-10T13:30:54Z</time></trkpt><trkpt lat="45.61123509248833" lon="11.35745749744069"><ele>283.5</ele><time>2026-04-10T13:30:55Z</time></trkpt><trkpt lat="45.61116975523919" lon="11.357600629601862"><ele>284.25</ele><time>2026-04-10T13:30:56Z</time></trkpt><trkpt lat="45.61111614664359" lon="11.35774816850047"><ele>285.0</ele><time>2026-04-10T13:30:57Z</time></trkpt><trkpt lat="45.611087141219876" lon="11.35791758270943"><ele>285.75</ele><time>2026-04-10T13:30:58Z</time></trkpt><trkpt lat="45.61112168575091" lon="11.358101519826967"><ele>286.5</ele><time>2026-04-10T13:30:59Z</time></trkpt><trkpt lat="45.61116746597327" lon="11.358292139055026"><ele>287.25</ele><time>2026-04-10T13:31:00Z</time></trkpt><trkpt lat="45.611214805333695" lon="11.35849345265715"><ele>288.0</ele><time>2026-04-10T13:31:01Z</time></trkpt><trkpt lat="45.61127538961072" lon="11.358676273547122"><ele>287.25</ele><time>2026-04-10T13:31:02Z</time></trkpt><trkpt lat="45.61131017161941" lon="11.358870256336182"><ele>286.5</ele><time>2026-04-10T13:31:03Z</time></trkpt><trkpt lat="45.61131041259193" lon="11.359068264647362"><ele>285.75</ele><time>2026-04-10T13:31:04Z</time></trkpt><trkpt lat="45.61128765846252" lon="11.359261898517284"><ele>285.0</ele><time>2026-04-10T13:31:05Z</time></trkpt><trkpt lat="45.61128653801413" lon="11.359456526720868"><ele>285.0</ele><time>2026-04-10T13:31:06Z</time></trkpt><trkpt lat="45.611306462541954" lon="11.359644401259402"><ele>285.0</ele><time>2026-04-10T13:31:07Z</time></trkpt><trkpt lat="45.61127484002358" lon="11.359824928660203"><ele>285.0</ele><time>2026-04-10T13:31:08Z</time></trkpt><trkpt lat="45.6112269773696" lon="11.360014587464297"><ele>285.0</ele><time>2026-04-10T13:31:09Z</time></trkpt><trkpt lat="45.611186797981205" lon="11.360206847059365"><ele>280.75</ele><time>2026-04-10T13:31:10Z</time></trkpt><trkpt lat="45.611155963923764" lon="11.36040951107845"><ele>276.5</ele><time>2026-04-10T13:31:11Z</time></trkpt><trkpt lat="45.61110982794494" lon="11.36059226876099"><ele>272.25</ele><time>2026-04-10T13:31:12Z</time></trkpt><trkpt lat="45.61107795160153" lon="11.360745415584573"><ele>268.0</ele><time>2026-04-10T13:31:13Z</time></trkpt><trkpt lat="45.61108565370841" lon="11.360855955365913"><ele>268.0</ele><time>2026-04-10T13:31:14Z</time></trkpt><trkpt lat="45.61114907522673" lon="11.360937224111359"><ele>268.0</ele><time>2026-04-10T13:31:15Z</time></trkpt><trkpt lat="45.61125492132802" lon="11.360987169625352"><ele>268.0</ele><time>2026-04-10T13:31:16Z</time></trkpt><trkpt lat="45.61136861280375" lon="11.36103743469906"><ele>268.0</ele><time>2026-04-10T13:31:17Z</time></trkpt><trkpt lat="45.61148347789754" lon="11.361126965959283"><ele>268.0</ele><time>2026-04-10T13:31:18Z</time></trkpt><trkpt lat="45.61156340104887" lon="11.361251136290553"><ele>272.0</ele><time>2026-04-10T13:31:19Z</time></trkpt><trkpt lat="45.61159215114835" lon="11.361373430756982"><ele>276.0</ele><time>2026-04-10T13:31:20Z</time></trkpt><trkpt lat="45.61153922623844" lon="11.361497816864025"><ele>280.0</ele><time>2026-04-10T13:31:21Z</time></trkpt><trkpt lat="45.61154405372073" lon="11.361670622595712"><ele>284.0</ele><time>2026-04-10T13:31:22Z</time></trkpt><trkpt lat="45.61156244591648" lon="11.361859850216492"><ele>288.0</ele><time>2026-04-10T13:31:23Z</time></trkpt><trkpt lat="45.61161801194262" lon="11.36205459764074"><ele>288.75</ele><time>2026-04-10T13:31:24Z</time></trkpt><trkpt lat="45.611671791385795" lon="11.362264759082704"><ele>289.5</ele><time>2026-04-10T13:31:25Z</time></trkpt><trkpt lat="45.611717254835966" lon="11.362440316692597"><ele>290.25</ele><time>2026-04-10T13:31:26Z</time></trkpt><trkpt lat="45.61173727399128" lon="11.362568718722986"><ele>291.0</ele><time>2026-04-10T13:31:27Z</time></trkpt><trkpt lat="45.61169140771389" lon="11.36266788058295"><ele>291.0</ele><time>2026-04-10T13:31:28Z</time></trkpt><trkpt lat="45.61163238667796" lon="11.362764383178943"><ele>291.0</ele><time>2026-04-10T13:31:29Z</time></trkpt><trkpt lat="45.61157706461658" lon="11.362907707940282"><ele>291.0</ele><time>2026-04-10T13:31:30Z</time></trkpt><trkpt lat="45.61154351783115" lon="11.363065673076218"><ele>291.0</ele><time>2026-04-10T13:31:31Z</time></trkpt><trkpt lat="45.61150874477814" lon="11.36322996777869"><ele>291.0</ele><time>2026-04-10T13:31:32Z</time></trkpt><trkpt lat="45.61148197625264" lon="11.36341307590867"><ele>292.0</ele><time>2026-04-10T13:31:33Z</time></trkpt><trkpt lat="45.611449092937626" lon="11.363615210420978"><ele>293.0</ele><time>2026-04-10T13:31:34Z</time></trkpt><trkpt lat="45.61140717591887" lon="11.363827908100317"><ele>294.0</ele><time>2026-04-10T13:31:35Z</time></trkpt><trkpt lat="45.6113670480258" lon="11.364035134122382"><ele>294.0</ele><time>2026-04-10T13:31:36Z</time></trkpt><trkpt lat="45.61132257066892" lon="11.36422690235713"><ele>294.0</ele><time>2026-04-10T13:31:37Z</time></trkpt><trkpt lat="45.611284276350005" lon="11.364410154318238"><ele>294.0</ele><time>2026-04-10T13:31:38Z</time></trkpt><trkpt lat="45.61125892055418" lon="11.364612293188033"><ele>294.0</ele><time>2026-04-10T13:31:39Z</time></trkpt><trkpt lat="45.61125734139585" lon="11.364818864588376"><ele>293.0</ele><time>2026-04-10T13:31:40Z</time></trkpt><trkpt lat="45.61127455193978" lon="11.365025829332138"><ele>292.0</ele><time>2026-04-10T13:31:41Z</time></trkpt><trkpt lat="45.6112974666729" lon="11.365217031436492"><ele>291.0</ele><time>2026-04-10T13:31:42Z</time></trkpt><trkpt lat="45.61131237187949" lon="11.365373333798662"><ele>290.0</ele><time>2026-04-10T13:31:43Z</time></trkpt><trkpt lat="45.6113322777791" lon="11.365514150321655"><ele>289.6</ele><time>2026-04-10T13:31:44Z</time></trkpt><trkpt lat="45.61133189698061" lon="11.365659380716677"><ele>289.2</ele><time>2026-04-10T13:31:45Z</time></trkpt><trkpt lat="45.611247907407545" lon="11.365743822775034"><ele>288.8</ele><time>2026-04-10T13:31:46Z</time></trkpt><trkpt lat="45.61117311945058" lon="11.365836955605879"><ele>288.4</ele><time>2026-04-10T13:31:47Z</time></trkpt><trkpt lat="45.611127351652215" lon="11.365938689028784"><ele>288.0</ele><time>2026-04-10T13:31:48Z</time></trkpt><trkpt lat="45.61111928376614" lon="11.366086390229558"><ele>288.0</ele><time>2026-04-10T13:31:49Z</time></trkpt><trkpt lat="45.611166523863226" lon="11.36626180206543"><ele>288.0</ele><time>2026-04-10T13:31:50Z</time></trkpt><trkpt lat="45.61121382860677" lon="11.36644190118337"><ele>288.0</ele><time>2026-04-10T13:31:51Z</time></trkpt><trkpt lat="45.611272217144666" lon="11.366624481342823"><ele>288.0</ele><time>2026-04-10T13:31:52Z</time></trkpt><trkpt lat="45.611346566618536" lon="11.366777011069162"><ele>286.2</ele><time>2026-04-10T13:31:53Z</time></trkpt><trkpt lat="45.61141296173457" lon="11.366895969741392"><ele>284.4</ele><time>2026-04-10T13:31:54Z</time></trkpt><trkpt lat="45.61145702696095" lon="11.366991232154513"><ele>282.59999999999997</ele><time>2026-04-10T13:31:55Z</time></trkpt><trkpt lat="45.61150431706652" lon="11.36713220166559"><ele>280.8</ele><time>2026-04-10T13:31:57Z</time></trkpt><trkpt lat="45.61160557948197" lon="11.367273339906584"><ele>279.0</ele><time>2026-04-10T13:32:01Z</time></trkpt><trkpt lat="45.61167963048012" lon="11.3673475492373"><ele>278.3333333333333</ele><time>2026-04-10T13:32:02Z</time></trkpt><trkpt lat="45.61176130252018" lon="11.367440314192203"><ele>277.6666666666667</ele><time>2026-04-10T13:32:03Z</time></trkpt><trkpt lat="45.611849659857214" lon="11.367533481206943"><ele>277.0</ele><time>2026-04-10T13:32:04Z</time></trkpt><trkpt lat="45.611917340386114" lon="11.367606159775947"><ele>276.33333333333337</ele><time>2026-04-10T13:32:05Z</time></trkpt><trkpt lat="45.61197954951759" lon="11.367667658396543"><ele>275.6666666666667</ele><time>2026-04-10T13:32:06Z</time></trkpt><trkpt lat="45.61203561804067" lon="11.36773051009195"><ele>275.0</ele><time>2026-04-10T13:32:07Z</time></trkpt><trkpt lat="45.61208887069105" lon="11.367779806171916"><ele>275.0</ele><time>2026-04-10T13:32:08Z</time></trkpt><trkpt lat="45.61220813199165" lon="11.367773510044044"><ele>275.0</ele><time>2026-04-10T13:32:10Z</time></trkpt><trkpt lat="45.612252472553976" lon="11.367619868049921"><ele>275.0</ele><time>2026-04-10T13:32:12Z</time></trkpt><trkpt lat="45.612294302258405" lon="11.367476081467517"><ele>275.0</ele><time>2026-04-10T13:32:14Z</time></trkpt><trkpt lat="45.6123639656096" lon="11.36744721138516"><ele>275.0</ele><time>2026-04-10T13:32:15Z</time></trkpt><trkpt lat="45.612432662035125" lon="11.367490332471768"><ele>275.0</ele><time>2026-04-10T13:32:16Z</time></trkpt><trkpt lat="45.612469213829364" lon="11.36760199476393"><ele>275.0</ele><time>2026-04-10T13:32:17Z</time></trkpt><trkpt lat="45.61251354699521" lon="11.367711983722007"><ele>275.0</ele><time>2026-04-10T13:32:18Z</time></trkpt><trkpt lat="45.61256186972817" lon="11.36782613256275"><ele>275.0</ele><time>2026-04-10T13:32:19Z</time></trkpt><trkpt lat="45.61259536006604" lon="11.367928811883926"><ele>275.0</ele><time>2026-04-10T13:32:20Z</time></trkpt><trkpt lat="45.612637406008616" lon="11.368121058420886"><ele>275.2</ele><time>2026-04-10T13:32:22Z</time></trkpt><trkpt lat="45.61266380706803" lon="11.368233858420044"><ele>275.4</ele><time>2026-04-10T13:32:23Z</time></trkpt><trkpt lat="45.61271760873562" lon="11.36834397871682"><ele>275.6</ele><time>2026-04-10T13:32:24Z</time></trkpt><trkpt lat="45.61278678530674" lon="11.36842724820362"><ele>275.8</ele><time>2026-04-10T13:32:25Z</time></trkpt><trkpt lat="45.612879584266764" lon="11.368518251566451"><ele>276.0</ele><time>2026-04-10T13:32:26Z</time></trkpt><trkpt lat="45.61295371141251" lon="11.368594532744659"><ele>276.0</ele><time>2026-04-10T13:32:27Z</time></trkpt><trkpt lat="45.61302375205435" lon="11.368663945286764"><ele>276.0</ele><time>2026-04-10T13:32:28Z</time></trkpt><trkpt lat="45.61309959654827" lon="11.368739164159312"><ele>276.0</ele><time>2026-04-10T13:32:29Z</time></trkpt><trkpt lat="45.61317628550975" lon="11.368812951838908"><ele>276.0</ele><time>2026-04-10T13:32:30Z</time></trkpt><trkpt lat="45.61325621420407" lon="11.368892806213017"><ele>276.0</ele><time>2026-04-10T13:32:31Z</time></trkpt><trkpt lat="45.61332542545076" lon="11.368996141337217"><ele>274.0</ele><time>2026-04-10T13:32:32Z</time></trkpt><trkpt lat="45.61337761865595" lon="11.369089084806161"><ele>272.0</ele><time>2026-04-10T13:32:33Z</time></trkpt><trkpt lat="45.61341319585886" lon="11.36921017222696"><ele>270.0</ele><time>2026-04-10T13:32:34Z</time></trkpt><trkpt lat="45.613449502434186" lon="11.369381079864654"><ele>268.0</ele><time>2026-04-10T13:32:35Z</time></trkpt><trkpt lat="45.61345095631523" lon="11.369601771709128"><ele>265.66666666666663</ele><time>2026-04-10T13:32:36Z</time></trkpt><trkpt lat="45.61346158811757" lon="11.369861255205464"><ele>263.3333333333333</ele><time>2026-04-10T13:32:37Z</time></trkpt><trkpt lat="45.61347101077265" lon="11.370133242683371"><ele>261.0</ele><time>2026-04-10T13:32:38Z</time></trkpt><trkpt lat="45.61348790576724" lon="11.37038694434128"><ele>258.3333333333333</ele><time>2026-04-10T13:32:39Z</time></trkpt><trkpt lat="45.61349345344434" lon="11.370611754541462"><ele>255.66666666666666</ele><time>2026-04-10T13:32:40Z</time></trkpt><trkpt lat="45.6135156879838" lon="11.370815508392354"><ele>253.0</ele><time>2026-04-10T13:32:41Z</time></trkpt><trkpt lat="45.61355808265089" lon="11.371028831376243"><ele>253.0</ele><time>2026-04-10T13:32:42Z</time></trkpt><trkpt lat="45.61361048814572" lon="11.371232947837154"><ele>253.0</ele><time>2026-04-10T13:32:43Z</time></trkpt><trkpt lat="45.61366444610767" lon="11.37145092123629"><ele>253.0</ele><time>2026-04-10T13:32:44Z</time></trkpt><trkpt lat="45.613715931160975" lon="11.371657299525177"><ele>252.75</ele><time>2026-04-10T13:32:45Z</time></trkpt><trkpt lat="45.61376461921231" lon="11.371846398293664"><ele>252.5</ele><time>2026-04-10T13:32:46Z</time></trkpt><trkpt lat="45.613813598279805" lon="11.37202229569513"><ele>252.25</ele><time>2026-04-10T13:32:47Z</time></trkpt><trkpt lat="45.61385134080244" lon="11.372198161061275"><ele>252.0</ele><time>2026-04-10T13:32:48Z</time></trkpt><trkpt lat="45.61387971556076" lon="11.372356837222654"><ele>252.0</ele><time>2026-04-10T13:32:49Z</time></trkpt><trkpt lat="45.613859445660026" lon="11.372490589924192"><ele>252.0</ele><time>2026-04-10T13:32:50Z</time></trkpt><trkpt lat="45.61383621391041" lon="11.372587312570099"><ele>252.0</ele><time>2026-04-10T13:32:51Z</time></trkpt><trkpt lat="45.6138204252245" lon="11.372681064642817"><ele>252.0</ele><time>2026-04-10T13:32:53Z</time></trkpt><trkpt lat="45.61398069758785" lon="11.372721264018578"><ele>252.0</ele><time>2026-04-10T13:32:54Z</time></trkpt><trkpt lat="45.61404868680243" lon="11.372681222472991"><ele>252.0</ele><time>2026-04-10T13:32:55Z</time></trkpt><trkpt lat="45.61412018849954" lon="11.372614442652985"><ele>252.0</ele><time>2026-04-10T13:32:56Z</time></trkpt><trkpt lat="45.61421922944272" lon="11.372579839226582"><ele>252.0</ele><time>2026-04-10T13:32:57Z</time></trkpt><trkpt lat="45.614308826498785" lon="11.372624132858787"><ele>252.0</ele><time>2026-04-10T13:32:58Z</time></trkpt><trkpt lat="45.61436701174882" lon="11.372692496923072"><ele>252.0</ele><time>2026-04-10T13:32:59Z</time></trkpt><trkpt lat="45.61440803420657" lon="11.372787284795239"><ele>252.0</ele><time>2026-04-10T13:33:00Z</time></trkpt><trkpt lat="45.6144530485226" lon="11.372897655777773"><ele>253.8</ele><time>2026-04-10T13:33:01Z</time></trkpt><trkpt lat="45.61450023341615" lon="11.37303096767062"><ele>255.6</ele><time>2026-04-10T13:33:02Z</time></trkpt><trkpt lat="45.61454862585058" lon="11.373142480334167"><ele>257.40000000000003</ele><time>2026-04-10T13:33:03Z</time></trkpt><trkpt lat="45.61461696105483" lon="11.373255276700705"><ele>259.2</ele><time>2026-04-10T13:33:04Z</time></trkpt><trkpt lat="45.61469706859063" lon="11.373380615331973"><ele>261.0</ele><time>2026-04-10T13:33:05Z</time></trkpt><trkpt lat="45.614791028910524" lon="11.373495225447266"><ele>261.0</ele><time>2026-04-10T13:33:06Z</time></trkpt><trkpt lat="45.61489085411566" lon="11.373573318181476"><ele>261.0</ele><time>2026-04-10T13:33:07Z</time></trkpt><trkpt lat="45.61498635462765" lon="11.373611022820079"><ele>261.0</ele><time>2026-04-10T13:33:08Z</time></trkpt><trkpt lat="45.61510281796487" lon="11.373623208561035"><ele>261.0</ele><time>2026-04-10T13:33:09Z</time></trkpt><trkpt lat="45.615231704117654" lon="11.373641077924061"><ele>260.75</ele><time>2026-04-10T13:33:10Z</time></trkpt><trkpt lat="45.615353315995165" lon="11.37371131393998"><ele>260.5</ele><time>2026-04-10T13:33:11Z</time></trkpt><trkpt lat="45.61547519857601" lon="11.37379067673985"><ele>260.25</ele><time>2026-04-10T13:33:12Z</time></trkpt><trkpt lat="45.61558910582211" lon="11.373876071598797"><ele>260.0</ele><time>2026-04-10T13:33:13Z</time></trkpt><trkpt lat="45.61569615224506" lon="11.373947636792249"><ele>260.0</ele><time>2026-04-10T13:33:14Z</time></trkpt><trkpt lat="45.61579982371789" lon="11.373989710650944"><ele>260.0</ele><time>2026-04-10T13:33:15Z</time></trkpt><trkpt lat="45.61591305407405" lon="11.37400028113913"><ele>260.0</ele><time>2026-04-10T13:33:16Z</time></trkpt><trkpt lat="45.616021323791145" lon="11.373985350186638"><ele>260.0</ele><time>2026-04-10T13:33:17Z</time></trkpt><trkpt lat="45.616134838971625" lon="11.373969773982967"><ele>260.0</ele><time>2026-04-10T13:33:18Z</time></trkpt><trkpt lat="45.61624512080122" lon="11.373997053194138"><ele>260.0</ele><time>2026-04-10T13:33:19Z</time></trkpt><trkpt lat="45.6163532135334" lon="11.374022962408151"><ele>260.0</ele><time>2026-04-10T13:33:20Z</time></trkpt><trkpt lat="45.61646515418193" lon="11.374035104704971"><ele>260.0</ele><time>2026-04-10T13:33:21Z</time></trkpt><trkpt lat="45.61658504390184" lon="11.374026414173485"><ele>260.0</ele><time>2026-04-10T13:33:22Z</time></trkpt><trkpt lat="45.61670184794304" lon="11.37400932643643"><ele>260.0</ele><time>2026-04-10T13:33:23Z</time></trkpt><trkpt lat="45.61680872459155" lon="11.373994007781492"><ele>260.0</ele><time>2026-04-10T13:33:24Z</time></trkpt><trkpt lat="45.61692485912442" lon="11.37396623215545"><ele>260.0</ele><time>2026-04-10T13:33:25Z</time></trkpt><trkpt lat="45.61702552292123" lon="11.373910680961178"><ele>260.0</ele><time>2026-04-10T13:33:26Z</time></trkpt><trkpt lat="45.61711311987282" lon="11.373830116411133"><ele>260.0</ele><time>2026-04-10T13:33:27Z</time></trkpt><trkpt lat="45.61719477236164" lon="11.373761309763935"><ele>259.6</ele><time>2026-04-10T13:33:28Z</time></trkpt><trkpt lat="45.61728814221478" lon="11.373747911171977"><ele>259.2</ele><time>2026-04-10T13:33:29Z</time></trkpt><trkpt lat="45.61738470891507" lon="11.373802387244542"><ele>258.8</ele><time>2026-04-10T13:33:30Z</time></trkpt><trkpt lat="45.61748013263257" lon="11.373828738431483"><ele>258.4</ele><time>2026-04-10T13:33:31Z</time></trkpt><trkpt lat="45.61754542812229" lon="11.373898718472423"><ele>258.0</ele><time>2026-04-10T13:33:32Z</time></trkpt><trkpt lat="45.61757364140642" lon="11.374054387217635"><ele>258.0</ele><time>2026-04-10T13:33:34Z</time></trkpt><trkpt lat="45.617538955581416" lon="11.374165054904081"><ele>258.0</ele><time>2026-04-10T13:33:35Z</time></trkpt><trkpt lat="45.61754243963016" lon="11.374291561915124"><ele>258.0</ele><time>2026-04-10T13:33:36Z</time></trkpt><trkpt lat="45.61755132723334" lon="11.374408720603988"><ele>258.0</ele><time>2026-04-10T13:33:37Z</time></trkpt><trkpt lat="45.6176048009629" lon="11.374515007259998"><ele>258.0</ele><time>2026-04-10T13:33:38Z</time></trkpt><trkpt lat="45.61766267235958" lon="11.37461121986745"><ele>258.0</ele><time>2026-04-10T13:33:39Z</time></trkpt><trkpt lat="45.61771029494197" lon="11.37468320638113"><ele>257.1666666666667</ele><time>2026-04-10T13:33:40Z</time></trkpt><trkpt lat="45.617777853126555" lon="11.37476497944767"><ele>256.3333333333333</ele><time>2026-04-10T13:33:41Z</time></trkpt><trkpt lat="45.61784470271068" lon="11.374852961242016"><ele>255.5</ele><time>2026-04-10T13:33:42Z</time></trkpt><trkpt lat="45.61790694705012" lon="11.374938851913159"><ele>254.66666666666666</ele><time>2026-04-10T13:33:43Z</time></trkpt><trkpt lat="45.617970395218045" lon="11.375030890240746"><ele>253.83333333333331</ele><time>2026-04-10T13:33:44Z</time></trkpt><trkpt lat="45.618039398874515" lon="11.375103479836353"><ele>253.0</ele><time>2026-04-10T13:33:45Z</time></trkpt><trkpt lat="45.61812569267369" lon="11.375165800937005"><ele>255.4</ele><time>2026-04-10T13:33:46Z</time></trkpt><trkpt lat="45.61823108617274" lon="11.375218994982506"><ele>257.8</ele><time>2026-04-10T13:33:47Z</time></trkpt><trkpt lat="45.618338801075375" lon="11.375278471717714"><ele>260.2</ele><time>2026-04-10T13:33:48Z</time></trkpt><trkpt lat="45.61843745422765" lon="11.37533362647937"><ele>262.6</ele><time>2026-04-10T13:33:49Z</time></trkpt><trkpt lat="45.61854264513102" lon="11.375382479537231"><ele>265.0</ele><time>2026-04-10T13:33:50Z</time></trkpt><trkpt lat="45.6186559584045" lon="11.375406088367468"><ele>266.5</ele><time>2026-04-10T13:33:51Z</time></trkpt><trkpt lat="45.61877312666485" lon="11.375410854904374"><ele>268.0</ele><time>2026-04-10T13:33:52Z</time></trkpt><trkpt lat="45.618899414198026" lon="11.375392124585693"><ele>269.5</ele><time>2026-04-10T13:33:53Z</time></trkpt><trkpt lat="45.61903230185583" lon="11.375380457625125"><ele>271.0</ele><time>2026-04-10T13:33:54Z</time></trkpt><trkpt lat="45.619164802591385" lon="11.375375440305294"><ele>271.0</ele><time>2026-04-10T13:33:55Z</time></trkpt><trkpt lat="45.61927797412453" lon="11.375384132996599"><ele>271.0</ele><time>2026-04-10T13:33:56Z</time></trkpt><trkpt lat="45.619364306792484" lon="11.375384677683561"><ele>271.0</ele><time>2026-04-10T13:33:57Z</time></trkpt><trkpt lat="45.61946626537845" lon="11.375365762366544"><ele>271.0</ele><time>2026-04-10T13:33:59Z</time></trkpt><trkpt lat="45.619534240043585" lon="11.375330742298232"><ele>271.0</ele><time>2026-04-10T13:34:00.999Z</time></trkpt><trkpt lat="45.61960765565291" lon="11.375310722764047"><ele>271.0</ele><time>2026-04-10T13:34:03.999Z</time></trkpt><trkpt lat="45.61966870716885" lon="11.375279203268352"><ele>272.16666666666663</ele><time>2026-04-10T13:34:06.999Z</time></trkpt><trkpt lat="45.61973235246418" lon="11.375256442046755"><ele>273.3333333333333</ele><time>2026-04-10T13:34:07.999Z</time></trkpt><trkpt lat="45.61979610968369" lon="11.375235202584609"><ele>274.5</ele><time>2026-04-10T13:34:08.999Z</time></trkpt><trkpt lat="45.61986074989965" lon="11.375220999790246"><ele>275.6666666666667</ele><time>2026-04-10T13:34:09.999Z</time></trkpt><trkpt lat="45.61998340639154" lon="11.375217368606345"><ele>276.83333333333337</ele><time>2026-04-10T13:34:11.999Z</time></trkpt><trkpt lat="45.62010354718159" lon="11.375241235157196"><ele>278.0</ele><time>2026-04-10T13:34:13.999Z</time></trkpt><trkpt lat="45.62016742513119" lon="11.37526723737214"><ele>278.0</ele><time>2026-04-10T13:34:14.999Z</time></trkpt><trkpt lat="45.6202286858081" lon="11.375304533776024"><ele>278.0</ele><time>2026-04-10T13:34:15.999Z</time></trkpt><trkpt lat="45.620290907448975" lon="11.37534473311713"><ele>278.0</ele><time>2026-04-10T13:34:16.999Z</time></trkpt><trkpt lat="45.62034953610114" lon="11.375383506269264"><ele>278.0</ele><time>2026-04-10T13:34:17.999Z</time></trkpt><trkpt lat="45.6204107459794" lon="11.37541163624052"><ele>278.0</ele><time>2026-04-10T13:34:18.999Z</time></trkpt><trkpt lat="45.620517524102375" lon="11.375471336646488"><ele>278.0</ele><time>2026-04-10T13:34:20.999Z</time></trkpt><trkpt lat="45.620575122453815" lon="11.375513052452566"><ele>278.0</ele><time>2026-04-10T13:34:21.999Z</time></trkpt><trkpt lat="45.62068189292274" lon="11.375592155045249"><ele>280.6</ele><time>2026-04-10T13:34:23.999Z</time></trkpt><trkpt lat="45.62077959196071" lon="11.375650967626742"><ele>283.20000000000005</ele><time>2026-04-10T13:34:25.999Z</time></trkpt><trkpt lat="45.620840419340325" lon="11.375708412139447"><ele>285.8</ele><time>2026-04-10T13:34:32.999Z</time></trkpt><trkpt lat="45.62094467753798" lon="11.37582336878037"><ele>288.40000000000003</ele><time>2026-04-10T13:34:34.999Z</time></trkpt><trkpt lat="45.62100609019716" lon="11.375899410424301"><ele>291.0</ele><time>2026-04-10T13:34:35.999Z</time></trkpt><trkpt lat="45.621065186125726" lon="11.375961445502188"><ele>291.0</ele><time>2026-04-10T13:34:36.999Z</time></trkpt><trkpt lat="45.62113214992542" lon="11.376025233672491"><ele>291.0</ele><time>2026-04-10T13:34:37.999Z</time></trkpt><trkpt lat="45.621198416753174" lon="11.376082037380769"><ele>291.0</ele><time>2026-04-10T13:34:38.999Z</time></trkpt><trkpt lat="45.62129946877048" lon="11.37613539893136"><ele>291.0</ele><time>2026-04-10T13:34:40.999Z</time></trkpt><trkpt lat="45.62142200630046" lon="11.376156365344462"><ele>291.0</ele><time>2026-04-10T13:34:43Z</time></trkpt><trkpt lat="45.62149518870998" lon="11.376144457686452"><ele>293.3333333333333</ele><time>2026-04-10T13:34:44Z</time></trkpt><trkpt lat="45.6215642175373" lon="11.376127900373094"><ele>295.6666666666667</ele><time>2026-04-10T13:34:45Z</time></trkpt><trkpt lat="45.6216410791511" lon="11.376083074133142"><ele>298.0</ele><time>2026-04-10T13:34:46Z</time></trkpt><trkpt lat="45.62172519432032" lon="11.376006091703134"><ele>300.33333333333337</ele><time>2026-04-10T13:34:47Z</time></trkpt><trkpt lat="45.62180235004433" lon="11.375937513931818"><ele>302.6666666666667</ele><time>2026-04-10T13:34:48Z</time></trkpt><trkpt lat="45.621884337337896" lon="11.375880807098659"><ele>305.0</ele><time>2026-04-10T13:34:49Z</time></trkpt><trkpt lat="45.62197952876437" lon="11.375831743529796"><ele>306.8</ele><time>2026-04-10T13:34:50Z</time></trkpt><trkpt lat="45.62208837266755" lon="11.37579475021104"><ele>308.6</ele><time>2026-04-10T13:34:51Z</time></trkpt><trkpt lat="45.62219421709033" lon="11.375772698648635"><ele>310.4</ele><time>2026-04-10T13:34:52Z</time></trkpt><trkpt lat="45.622293369986984" lon="11.375731418547593"><ele>312.2</ele><time>2026-04-10T13:34:53Z</time></trkpt><trkpt lat="45.622371928488825" lon="11.375644532636569"><ele>314.0</ele><time>2026-04-10T13:34:54Z</time></trkpt><trkpt lat="45.62243088373372" lon="11.375522514751497"><ele>315.75</ele><time>2026-04-10T13:34:55Z</time></trkpt><trkpt lat="45.62248401366548" lon="11.375397539921044"><ele>317.5</ele><time>2026-04-10T13:34:56Z</time></trkpt><trkpt lat="45.622585382861345" lon="11.37520187396587"><ele>319.25</ele><time>2026-04-10T13:34:58Z</time></trkpt><trkpt lat="45.62265163578293" lon="11.375109008651766"><ele>321.0</ele><time>2026-04-10T13:34:59Z</time></trkpt><trkpt lat="45.62270806671553" lon="11.375000819712847"><ele>321.0</ele><time>2026-04-10T13:35:00Z</time></trkpt><trkpt lat="45.62274748464718" lon="11.374895350524163"><ele>321.0</ele><time>2026-04-10T13:35:01Z</time></trkpt><trkpt lat="45.62279524576449" lon="11.374811703480415"><ele>321.0</ele><time>2026-04-10T13:35:02Z</time></trkpt><trkpt lat="45.62284579744939" lon="11.374700858747213"><ele>321.0</ele><time>2026-04-10T13:35:04Z</time></trkpt><trkpt lat="45.62285059562521" lon="11.37454222620473"><ele>321.0</ele><time>2026-04-10T13:41:04.001Z</time></trkpt><trkpt lat="45.62285893656372" lon="11.37444530863487"><ele>321.0</ele><time>2026-04-10T13:41:05.001Z</time></trkpt><trkpt lat="45.62285544195129" lon="11.374272614818114"><ele>321.71428571428567</ele><time>2026-04-10T13:41:07.001Z</time></trkpt><trkpt lat="45.62287875493873" lon="11.37418165336105"><ele>322.42857142857144</ele><time>2026-04-10T13:41:08.001Z</time></trkpt><trkpt lat="45.62289785897616" lon="11.374093654826963"><ele>323.1428571428571</ele><time>2026-04-10T13:41:09.001Z</time></trkpt><trkpt lat="45.62292745365054" lon="11.374000776950234"><ele>323.85714285714283</ele><time>2026-04-10T13:41:10.001Z</time></trkpt><trkpt lat="45.62295741373114" lon="11.37390355014619"><ele>324.57142857142856</ele><time>2026-04-10T13:41:11.001Z</time></trkpt><trkpt lat="45.62298897197953" lon="11.373802821592188"><ele>325.2857142857143</ele><time>2026-04-10T13:41:12.001Z</time></trkpt><trkpt lat="45.62302222388825" lon="11.373702092032058"><ele>326.0</ele><time>2026-04-10T13:41:13.001Z</time></trkpt><trkpt lat="45.6230583791205" lon="11.373603612153904"><ele>326.0</ele><time>2026-04-10T13:41:14.001Z</time></trkpt><trkpt lat="45.62310297286574" lon="11.373494288825059"><ele>326.0</ele><time>2026-04-10T13:41:15.001Z</time></trkpt><trkpt lat="45.6231552400958" lon="11.373376033768963"><ele>326.0</ele><time>2026-04-10T13:41:16.001Z</time></trkpt><trkpt lat="45.62321296166744" lon="11.373272294292791"><ele>326.0</ele><time>2026-04-10T13:41:17.001Z</time></trkpt><trkpt lat="45.623287588555556" lon="11.373177554177389"><ele>326.0</ele><time>2026-04-10T13:41:18.001Z</time></trkpt><trkpt lat="45.62336172180999" lon="11.373075805867098"><ele>326.83333333333337</ele><time>2026-04-10T13:41:19.001Z</time></trkpt><trkpt lat="45.62341602208898" lon="11.37295826566118"><ele>327.6666666666667</ele><time>2026-04-10T13:41:20.001Z</time></trkpt><trkpt lat="45.62347185822813" lon="11.3728766706883"><ele>328.5</ele><time>2026-04-10T13:41:21.001Z</time></trkpt><trkpt lat="45.62352469873636" lon="11.372805612325173"><ele>329.3333333333333</ele><time>2026-04-10T13:41:22.001Z</time></trkpt><trkpt lat="45.62359278110191" lon="11.372746252314128"><ele>330.16666666666663</ele><time>2026-04-10T13:41:23.001Z</time></trkpt><trkpt lat="45.62366632009576" lon="11.372776504200681"><ele>331.0</ele><time>2026-04-10T13:41:24.001Z</time></trkpt><trkpt lat="45.62373917050272" lon="11.372754366603775"><ele>331.0</ele><time>2026-04-10T13:41:25.001Z</time></trkpt><trkpt lat="45.6238071886429" lon="11.37272953470017"><ele>331.0</ele><time>2026-04-10T13:41:26.001Z</time></trkpt><trkpt lat="45.62388218621601" lon="11.372632175572184"><ele>331.0</ele><time>2026-04-10T13:41:28.001Z</time></trkpt><trkpt lat="45.62393455681393" lon="11.372487133407134"><ele>331.0</ele><time>2026-04-10T13:41:30.001Z</time></trkpt><trkpt lat="45.623951800367706" lon="11.37238076006715"><ele>331.0</ele><time>2026-04-10T13:41:31.001Z</time></trkpt><trkpt lat="45.623974743427034" lon="11.37225904887484"><ele>333.0</ele><time>2026-04-10T13:41:32.001Z</time></trkpt><trkpt lat="45.623993806537214" lon="11.372135198765905"><ele>335.0</ele><time>2026-04-10T13:41:33.001Z</time></trkpt><trkpt lat="45.624023073363766" lon="11.372018339321562"><ele>337.0</ele><time>2026-04-10T13:41:34.001Z</time></trkpt><trkpt lat="45.6240542445064" lon="11.371906845043034"><ele>339.0</ele><time>2026-04-10T13:41:35.001Z</time></trkpt><trkpt lat="45.624098694806165" lon="11.371805215861984"><ele>341.0</ele><time>2026-04-10T13:41:36.001Z</time></trkpt><trkpt lat="45.62416257328965" lon="11.37174420493699"><ele>343.0</ele><time>2026-04-10T13:41:37Z</time></trkpt><trkpt lat="45.624225592361775" lon="11.37167403306164"><ele>343.0</ele><time>2026-04-10T13:41:38Z</time></trkpt><trkpt lat="45.62428780711977" lon="11.371591775089687"><ele>343.0</ele><time>2026-04-10T13:41:39Z</time></trkpt><trkpt lat="45.624350611343864" lon="11.371527632732997"><ele>343.0</ele><time>2026-04-10T13:41:40Z</time></trkpt><trkpt lat="45.62440278679931" lon="11.371469536153635"><ele>343.0</ele><time>2026-04-10T13:41:42Z</time></trkpt><trkpt lat="45.62448153990084" lon="11.371343133649727"><ele>343.0</ele><time>2026-04-10T13:41:46Z</time></trkpt><trkpt lat="45.62457797300299" lon="11.371217068576694"><ele>343.79999999999995</ele><time>2026-04-10T13:41:48Z</time></trkpt><trkpt lat="45.62467091644976" lon="11.371176148845622"><ele>344.6</ele><time>2026-04-10T13:41:49Z</time></trkpt><trkpt lat="45.62476467551504" lon="11.371111818661907"><ele>345.4</ele><time>2026-04-10T13:41:50Z</time></trkpt><trkpt lat="45.62484489429964" lon="11.371028839437233"><ele>346.20000000000005</ele><time>2026-04-10T13:41:51Z</time></trkpt><trkpt lat="45.62493955916097" lon="11.370964808699854"><ele>347.0</ele><time>2026-04-10T13:41:52Z</time></trkpt><trkpt lat="45.62503815127377" lon="11.370873536930565"><ele>347.0</ele><time>2026-04-10T13:41:53Z</time></trkpt><trkpt lat="45.625136192420634" lon="11.370756291175002"><ele>347.0</ele><time>2026-04-10T13:41:54Z</time></trkpt><trkpt lat="45.625217595526436" lon="11.370639442331976"><ele>347.0</ele><time>2026-04-10T13:41:55Z</time></trkpt><trkpt lat="45.625286616094854" lon="11.370520134515736"><ele>347.0</ele><time>2026-04-10T13:41:56Z</time></trkpt><trkpt lat="45.62534076885691" lon="11.370397141684304"><ele>350.8</ele><time>2026-04-10T13:41:57Z</time></trkpt><trkpt lat="45.6253871265859" lon="11.370270017003591"><ele>354.6</ele><time>2026-04-10T13:41:58Z</time></trkpt><trkpt lat="45.62542524348934" lon="11.370138774003454"><ele>358.40000000000003</ele><time>2026-04-10T13:41:59Z</time></trkpt><trkpt lat="45.62545745051804" lon="11.369996931560596"><ele>362.20000000000005</ele><time>2026-04-10T13:42:00Z</time></trkpt><trkpt lat="45.625491153436066" lon="11.36987169890329"><ele>366.0</ele><time>2026-04-10T13:42:01Z</time></trkpt><trkpt lat="45.625515186728705" lon="11.369769305514847"><ele>364.20000000000005</ele><time>2026-04-10T13:42:02Z</time></trkpt><trkpt lat="45.625562870315875" lon="11.369623845415331"><ele>362.40000000000003</ele><time>2026-04-10T13:42:04Z</time></trkpt><trkpt lat="45.625623786704075" lon="11.369539275452361"><ele>360.6</ele><time>2026-04-10T13:42:06Z</time></trkpt><trkpt lat="45.625706794839566" lon="11.369485588378994"><ele>358.8</ele><time>2026-04-10T13:42:08Z</time></trkpt><trkpt lat="45.62582169946422" lon="11.369426775179459"><ele>357.0</ele><time>2026-04-10T13:42:10Z</time></trkpt><trkpt lat="45.625893328258435" lon="11.369399062239838"><ele>357.0</ele><time>2026-04-10T13:42:11Z</time></trkpt><trkpt lat="45.62598215437188" lon="11.369358947092694"><ele>357.0</ele><time>2026-04-10T13:42:12Z</time></trkpt><trkpt lat="45.626064851197384" lon="11.369310831817685"><ele>357.0</ele><time>2026-04-10T13:42:13Z</time></trkpt><trkpt lat="45.62613457530957" lon="11.369275040221773"><ele>357.0</ele><time>2026-04-10T13:42:14Z</time></trkpt><trkpt lat="45.626200291374566" lon="11.369283581299413"><ele>357.0</ele><time>2026-04-10T13:42:15Z</time></trkpt><trkpt lat="45.62632211091363" lon="11.369262575143356"><ele>357.0</ele><time>2026-04-10T13:42:17Z</time></trkpt><trkpt lat="45.626398053135226" lon="11.369274253994032"><ele>357.8333333333333</ele><time>2026-04-10T13:42:18Z</time></trkpt><trkpt lat="45.62647767873085" lon="11.369305788428319"><ele>358.6666666666667</ele><time>2026-04-10T13:42:19Z</time></trkpt><trkpt lat="45.626551155018404" lon="11.369318892932995"><ele>359.5</ele><time>2026-04-10T13:42:20Z</time></trkpt><trkpt lat="45.62662435019791" lon="11.36933236438003"><ele>360.33333333333337</ele><time>2026-04-10T13:42:21Z</time></trkpt><trkpt lat="45.62669631467894" lon="11.369332543927028"><ele>361.1666666666667</ele><time>2026-04-10T13:42:22Z</time></trkpt><trkpt lat="45.626809873778875" lon="11.369354994095811"><ele>362.0</ele><time>2026-04-10T13:42:24Z</time></trkpt><trkpt lat="45.62692834214461" lon="11.369395762975469"><ele>362.42857142857144</ele><time>2026-04-10T13:42:26Z</time></trkpt><trkpt lat="45.626995666572114" lon="11.369407977121528"><ele>362.85714285714283</ele><time>2026-04-10T13:42:27Z</time></trkpt><trkpt lat="45.62706851663799" lon="11.369416614087"><ele>363.28571428571433</ele><time>2026-04-10T13:42:28Z</time></trkpt><trkpt lat="45.62713775069585" lon="11.369452181271505"><ele>363.7142857142857</ele><time>2026-04-10T13:42:29Z</time></trkpt><trkpt lat="45.62721216211452" lon="11.36946208235474"><ele>364.14285714285717</ele><time>2026-04-10T13:42:30Z</time></trkpt><trkpt lat="45.62728213615144" lon="11.369469703783349"><ele>364.5714285714286</ele><time>2026-04-10T13:42:31Z</time></trkpt><trkpt lat="45.62735406202945" lon="11.369473833041978"><ele>365.0</ele><time>2026-04-10T13:42:32Z</time></trkpt><trkpt lat="45.627430301571074" lon="11.369475630832207"><ele>365.0</ele><time>2026-04-10T13:42:33Z</time></trkpt><trkpt lat="45.62750432818282" lon="11.369475721872957"><ele>365.0</ele><time>2026-04-10T13:42:34Z</time></trkpt><trkpt lat="45.627578139163134" lon="11.36946568288375"><ele>365.0</ele><time>2026-04-10T13:42:35Z</time></trkpt><trkpt lat="45.6276461564341" lon="11.36945099661981"><ele>365.0</ele><time>2026-04-10T13:42:36Z</time></trkpt><trkpt lat="45.627705158749784" lon="11.369401277709592"><ele>365.0</ele><time>2026-04-10T13:42:37Z</time></trkpt><trkpt lat="45.627818712141234" lon="11.369314709065284"><ele>365.0</ele><time>2026-04-10T13:42:39Z</time></trkpt><trkpt lat="45.62787622403953" lon="11.369258080906425"><ele>365.1666666666667</ele><time>2026-04-10T13:42:40Z</time></trkpt><trkpt lat="45.62792921982868" lon="11.369197591751377"><ele>365.33333333333337</ele><time>2026-04-10T13:42:41Z</time></trkpt><trkpt lat="45.62797906306664" lon="11.36914139640159"><ele>365.5</ele><time>2026-04-10T13:42:42Z</time></trkpt><trkpt lat="45.628029791232166" lon="11.369084738166595"><ele>365.6666666666667</ele><time>2026-04-10T13:42:43Z</time></trkpt><trkpt lat="45.628108643429655" lon="11.368967513410059"><ele>365.8333333333333</ele><time>2026-04-10T13:42:45Z</time></trkpt><trkpt lat="45.628189470435835" lon="11.368875295302288"><ele>366.0</ele><time>2026-04-10T13:42:47Z</time></trkpt><trkpt lat="45.62828168404263" lon="11.368759349520491"><ele>366.20000000000005</ele><time>2026-04-10T13:42:49Z</time></trkpt><trkpt lat="45.62837083344188" lon="11.368678238085325"><ele>366.40000000000003</ele><time>2026-04-10T13:42:51Z</time></trkpt><trkpt lat="45.628483199419286" lon="11.3686246911267"><ele>366.6</ele><time>2026-04-10T13:42:53Z</time></trkpt><trkpt lat="45.62860345255424" lon="11.368610191186901"><ele>366.8</ele><time>2026-04-10T13:42:55Z</time></trkpt><trkpt lat="45.628669082057506" lon="11.3685978896075"><ele>367.0</ele><time>2026-04-10T13:42:56Z</time></trkpt><trkpt lat="45.62878207469262" lon="11.368504695466466"><ele>367.0</ele><time>2026-04-10T13:42:58Z</time></trkpt><trkpt lat="45.628831929124246" lon="11.368424140777456"><ele>367.0</ele><time>2026-04-10T13:42:59Z</time></trkpt><trkpt lat="45.628890067356274" lon="11.368329129302277"><ele>367.0</ele><time>2026-04-10T13:43:00Z</time></trkpt><trkpt lat="45.62894533572746" lon="11.368224755219957"><ele>367.0</ele><time>2026-04-10T13:43:01Z</time></trkpt><trkpt lat="45.62899088056499" lon="11.368129433697689"><ele>367.0</ele><time>2026-04-10T13:43:02Z</time></trkpt><trkpt lat="45.62905009557507" lon="11.36800244216523"><ele>367.0</ele><time>2026-04-10T13:43:04Z</time></trkpt><trkpt lat="45.62909853930522" lon="11.36789214751588"><ele>371.16666666666663</ele><time>2026-04-10T13:43:06Z</time></trkpt><trkpt lat="45.62912260821167" lon="11.367799002290747"><ele>375.3333333333333</ele><time>2026-04-10T13:43:10.001Z</time></trkpt><trkpt lat="45.629061172409244" lon="11.367711441528698"><ele>379.5</ele><time>2026-04-10T13:44:01Z</time></trkpt><trkpt lat="45.62900826475367" lon="11.367642886750932"><ele>383.66666666666663</ele><time>2026-04-10T13:44:03Z</time></trkpt><trkpt lat="45.62898321801884" lon="11.36752212654298"><ele>387.8333333333333</ele><time>2026-04-10T13:44:05Z</time></trkpt><trkpt lat="45.629020636024954" lon="11.367411178333438"><ele>392.0</ele><time>2026-04-10T13:44:07Z</time></trkpt><trkpt lat="45.629112465980995" lon="11.367284510267998"><ele>391.99999999999994</ele><time>2026-04-10T13:44:09Z</time></trkpt><trkpt lat="45.62918243099611" lon="11.367218559450071"><ele>392.0</ele><time>2026-04-10T13:44:10Z</time></trkpt><trkpt lat="45.629264850293495" lon="11.367154502752102"><ele>392.0</ele><time>2026-04-10T13:44:11Z</time></trkpt><trkpt lat="45.62933734487857" lon="11.367083675279915"><ele>392.0</ele><time>2026-04-10T13:44:12Z</time></trkpt><trkpt lat="45.629407655575456" lon="11.367025101776113"><ele>391.99999999999994</ele><time>2026-04-10T13:44:13Z</time></trkpt><trkpt lat="45.62948233676736" lon="11.366946834474765"><ele>392.0</ele><time>2026-04-10T13:44:14Z</time></trkpt><trkpt lat="45.62957036807356" lon="11.36689613850513"><ele>391.16666666666663</ele><time>2026-04-10T13:44:15Z</time></trkpt><trkpt lat="45.62965096572052" lon="11.36685521647787"><ele>390.3333333333333</ele><time>2026-04-10T13:44:16Z</time></trkpt><trkpt lat="45.62972174308674" lon="11.366811561775634"><ele>389.5</ele><time>2026-04-10T13:44:17Z</time></trkpt><trkpt lat="45.629789007661856" lon="11.366767857301754"><ele>388.66666666666663</ele><time>2026-04-10T13:44:18Z</time></trkpt><trkpt lat="45.629870078851795" lon="11.366675121328887"><ele>387.8333333333333</ele><time>2026-04-10T13:44:20Z</time></trkpt><trkpt lat="45.629884153992826" lon="11.366531163116315"><ele>387.0</ele><time>2026-04-10T13:44:22Z</time></trkpt><trkpt lat="45.62986419080162" lon="11.366423721904926"><ele>388.7142857142857</ele><time>2026-04-10T13:44:23Z</time></trkpt><trkpt lat="45.62985685046323" lon="11.366310093792135"><ele>390.42857142857144</ele><time>2026-04-10T13:44:24Z</time></trkpt><trkpt lat="45.62986241189471" lon="11.366212399008017"><ele>392.1428571428571</ele><time>2026-04-10T13:44:25Z</time></trkpt><trkpt lat="45.62988413049246" lon="11.366118567606597"><ele>393.8571428571429</ele><time>2026-04-10T13:44:26Z</time></trkpt><trkpt lat="45.62992310312676" lon="11.366033775061867"><ele>395.57142857142856</ele><time>2026-04-10T13:44:27Z</time></trkpt><trkpt lat="45.62996954817808" lon="11.365965251249076"><ele>397.2857142857143</ele><time>2026-04-10T13:44:28Z</time></trkpt><trkpt lat="45.630021635473035" lon="11.365905128690397"><ele>399.0</ele><time>2026-04-10T13:44:29Z</time></trkpt><trkpt lat="45.6300862787834" lon="11.365850521918315"><ele>399.0</ele><time>2026-04-10T13:44:30Z</time></trkpt><trkpt lat="45.63015263335593" lon="11.365792243583613"><ele>399.0</ele><time>2026-04-10T13:44:31Z</time></trkpt><trkpt lat="45.63022351091601" lon="11.36572225886013"><ele>399.0</ele><time>2026-04-10T13:44:32Z</time></trkpt><trkpt lat="45.630298539906775" lon="11.365647718678002"><ele>399.0</ele><time>2026-04-10T13:44:33Z</time></trkpt><trkpt lat="45.63036405931758" lon="11.365572309079615"><ele>399.0</ele><time>2026-04-10T13:44:34Z</time></trkpt><trkpt lat="45.63041938450953" lon="11.365504549362813"><ele>399.0</ele><time>2026-04-10T13:44:35Z</time></trkpt><trkpt lat="45.63045588371143" lon="11.3654309338003"><ele>401.14285714285717</ele><time>2026-04-10T13:44:36Z</time></trkpt><trkpt lat="45.63047853585975" lon="11.365341781141778"><ele>403.2857142857143</ele><time>2026-04-10T13:44:37Z</time></trkpt><trkpt lat="45.63048745217226" lon="11.36524704561717"><ele>405.42857142857144</ele><time>2026-04-10T13:44:38Z</time></trkpt><trkpt lat="45.63048257226301" lon="11.365152842526646"><ele>407.57142857142856</ele><time>2026-04-10T13:44:39Z</time></trkpt><trkpt lat="45.630475476548476" lon="11.365051165622337"><ele>409.7142857142857</ele><time>2026-04-10T13:44:40Z</time></trkpt><trkpt lat="45.630466924318895" lon="11.36493744810172"><ele>411.8571428571429</ele><time>2026-04-10T13:44:41Z</time></trkpt><trkpt lat="45.63044609847365" lon="11.36480867656607"><ele>414.0</ele><time>2026-04-10T13:44:42Z</time></trkpt><trkpt lat="45.63041304683944" lon="11.364657826424436"><ele>415.0</ele><time>2026-04-10T13:44:43Z</time></trkpt><trkpt lat="45.63038268324588" lon="11.364537559419082"><ele>416.0</ele><time>2026-04-10T13:44:44Z</time></trkpt><trkpt lat="45.630372213102895" lon="11.364439470063582"><ele>417.0</ele><time>2026-04-10T13:44:45Z</time></trkpt><trkpt lat="45.6303819104213" lon="11.364338932588696"><ele>418.0</ele><time>2026-04-10T13:44:46Z</time></trkpt><trkpt lat="45.63041110810678" lon="11.36424772136545"><ele>419.0</ele><time>2026-04-10T13:44:47Z</time></trkpt><trkpt lat="45.630449448766534" lon="11.364146518071896"><ele>420.0</ele><time>2026-04-10T13:44:48Z</time></trkpt><trkpt lat="45.63048582288925" lon="11.364049739148033"><ele>420.0</ele><time>2026-04-10T13:44:49Z</time></trkpt><trkpt lat="45.63051861820788" lon="11.36395888708559"><ele>420.0</ele><time>2026-04-10T13:44:50Z</time></trkpt><trkpt lat="45.63052636836561" lon="11.36386333984173"><ele>420.0</ele><time>2026-04-10T13:44:51Z</time></trkpt><trkpt lat="45.63049842664953" lon="11.3637782140202"><ele>420.0</ele><time>2026-04-10T13:44:52Z</time></trkpt><trkpt lat="45.63044107669201" lon="11.363701227244636"><ele>420.0</ele><time>2026-04-10T13:44:52.999Z</time></trkpt><trkpt lat="45.63038720203967" lon="11.36362352824654"><ele>420.0</ele><time>2026-04-10T13:44:53.999Z</time></trkpt><trkpt lat="45.63036573578021" lon="11.363522387595836"><ele>420.0</ele><time>2026-04-10T13:44:54.999Z</time></trkpt><trkpt lat="45.63037277599857" lon="11.363429721625247"><ele>421.1666666666667</ele><time>2026-04-10T13:44:55.999Z</time></trkpt><trkpt lat="45.630430785468484" lon="11.363309142583711"><ele>422.33333333333337</ele><time>2026-04-10T13:44:57.999Z</time></trkpt><trkpt lat="45.630540948947704" lon="11.363290038240057"><ele>423.5</ele><time>2026-04-10T13:44:59.999Z</time></trkpt><trkpt lat="45.630603164204175" lon="11.36323499527853"><ele>424.6666666666667</ele><time>2026-04-10T13:45:00.999Z</time></trkpt><trkpt lat="45.630670583009184" lon="11.363189899823618"><ele>425.83333333333337</ele><time>2026-04-10T13:45:01.999Z</time></trkpt><trkpt lat="45.63071783791025" lon="11.363111752434166"><ele>427.0</ele><time>2026-04-10T13:45:02.999Z</time></trkpt><trkpt lat="45.630746077988825" lon="11.363030033221172"><ele>430.20000000000005</ele><time>2026-04-10T13:45:03.999Z</time></trkpt><trkpt lat="45.630749383651455" lon="11.362899631047748"><ele>433.40000000000003</ele><time>2026-04-10T13:45:05.999Z</time></trkpt><trkpt lat="45.6306762085429" lon="11.36283375574247"><ele>436.59999999999997</ele><time>2026-04-10T13:45:07.999Z</time></trkpt><trkpt lat="45.63055266267428" lon="11.362871201748872"><ele>439.79999999999995</ele><time>2026-04-10T13:45:09.999Z</time></trkpt><trkpt lat="45.63048073925571" lon="11.36292020774116"><ele>443.0</ele><time>2026-04-10T13:45:10.999Z</time></trkpt><trkpt lat="45.63039545117979" lon="11.362975359005532"><ele>444.49999999999994</ele><time>2026-04-10T13:45:11.998Z</time></trkpt><trkpt lat="45.63030585279578" lon="11.363033093656263"><ele>446.0</ele><time>2026-04-10T13:45:12.999Z</time></trkpt><trkpt lat="45.63023388309756" lon="11.363095642344167"><ele>447.5</ele><time>2026-04-10T13:45:13.999Z</time></trkpt><trkpt lat="45.6301796078985" lon="11.363186033236921"><ele>449.0</ele><time>2026-04-10T13:45:14.999Z</time></trkpt><trkpt lat="45.63013513790887" lon="11.363278926402378"><ele>450.49999999999994</ele><time>2026-04-10T13:45:15.999Z</time></trkpt><trkpt lat="45.63009717576271" lon="11.36339783388902"><ele>452.0</ele><time>2026-04-10T13:45:16.999Z</time></trkpt><trkpt lat="45.630062331348924" lon="11.363552652156997"><ele>452.0</ele><time>2026-04-10T13:45:17.999Z</time></trkpt><trkpt lat="45.63002859508823" lon="11.363708819934908"><ele>452.00000000000006</ele><time>2026-04-10T13:45:18.999Z</time></trkpt><trkpt lat="45.62999441590896" lon="11.363786932626455"><ele>452.00000000000006</ele><time>2026-04-10T13:45:19.999Z</time></trkpt><trkpt lat="45.62992969693326" lon="11.363789249261922"><ele>452.0</ele><time>2026-04-10T13:45:26.999Z</time></trkpt><trkpt lat="45.629968288576045" lon="11.363679102028124"><ele>452.0</ele><time>2026-04-10T13:45:29.999Z</time></trkpt><trkpt lat="45.629984322934654" lon="11.3635065330393"><ele>452.0</ele><time>2026-04-10T13:45:31.999Z</time></trkpt><trkpt lat="45.629982106694506" lon="11.363362216621931"><ele>452.0</ele><time>2026-04-10T13:45:32.999Z</time></trkpt><trkpt lat="45.62999342309243" lon="11.363177438646892"><ele>452.0</ele><time>2026-04-10T13:45:33.999Z</time></trkpt><trkpt lat="45.630026328683826" lon="11.362995932484539"><ele>452.0</ele><time>2026-04-10T13:45:34.999Z</time></trkpt><trkpt lat="45.63004050611413" lon="11.362828311521875"><ele>450.20000000000005</ele><time>2026-04-10T13:45:35.999Z</time></trkpt><trkpt lat="45.63004976609626" lon="11.362703560764242"><ele>448.40000000000003</ele><time>2026-04-10T13:45:36.999Z</time></trkpt><trkpt lat="45.63005575105363" lon="11.362601378344975"><ele>446.59999999999997</ele><time>2026-04-10T13:45:37.999Z</time></trkpt><trkpt lat="45.63015450570049" lon="11.362498204632685"><ele>444.79999999999995</ele><time>2026-04-10T13:45:39.999Z</time></trkpt><trkpt lat="45.63022118695962" lon="11.362447605514884"><ele>443.0</ele><time>2026-04-10T13:45:40.999Z</time></trkpt><trkpt lat="45.630311569199655" lon="11.36237472779403"><ele>443.0</ele><time>2026-04-10T13:45:41.999Z</time></trkpt><trkpt lat="45.63042033480949" lon="11.362261886808092"><ele>443.0</ele><time>2026-04-10T13:45:42.999Z</time></trkpt><trkpt lat="45.630530234777275" lon="11.36214068338028"><ele>443.0</ele><time>2026-04-10T13:45:43.999Z</time></trkpt><trkpt lat="45.63065007573101" lon="11.36200049467986"><ele>443.0</ele><time>2026-04-10T13:45:44.999Z</time></trkpt><trkpt lat="45.630749899708064" lon="11.361848099200543"><ele>447.16666666666663</ele><time>2026-04-10T13:45:45.999Z</time></trkpt><trkpt lat="45.63084098368734" lon="11.36173683767553"><ele>451.3333333333333</ele><time>2026-04-10T13:45:46.999Z</time></trkpt><trkpt lat="45.63090797585658" lon="11.361646417875548"><ele>455.5</ele><time>2026-04-10T13:45:47.999Z</time></trkpt><trkpt lat="45.6309559671866" lon="11.361559237046627"><ele>459.66666666666663</ele><time>2026-04-10T13:45:48.999Z</time></trkpt><trkpt lat="45.630985303856626" lon="11.361476012753075"><ele>463.8333333333333</ele><time>2026-04-10T13:45:49.999Z</time></trkpt><trkpt lat="45.63101144592519" lon="11.361352724507752"><ele>468.0</ele><time>2026-04-10T13:45:50.999Z</time></trkpt><trkpt lat="45.631035852950355" lon="11.361205531364735"><ele>470.0</ele><time>2026-04-10T13:45:51.999Z</time></trkpt><trkpt lat="45.63105670778711" lon="11.361062664949806"><ele>471.99999999999994</ele><time>2026-04-10T13:45:52.999Z</time></trkpt><trkpt lat="45.63108515046345" lon="11.36094444901611"><ele>473.99999999999994</ele><time>2026-04-10T13:45:53.999Z</time></trkpt><trkpt lat="45.63111651502468" lon="11.360855477490619"><ele>476.0</ele><time>2026-04-10T13:45:54.999Z</time></trkpt><trkpt lat="45.63122188595096" lon="11.360747019510114"><ele>478.0</ele><time>2026-04-10T13:45:56.999Z</time></trkpt><trkpt lat="45.63129228409552" lon="11.360733818936787"><ele>478.0</ele><time>2026-04-10T13:45:57.999Z</time></trkpt><trkpt lat="45.63138426886978" lon="11.36065741321655"><ele>477.99999999999994</ele><time>2026-04-10T13:45:58.999Z</time></trkpt><trkpt lat="45.63148775255402" lon="11.360602125344508"><ele>477.99999999999994</ele><time>2026-04-10T13:45:59.999Z</time></trkpt><trkpt lat="45.63155743332177" lon="11.360549738014598"><ele>478.0</ele><time>2026-04-10T13:46:00.999Z</time></trkpt><trkpt lat="45.63164774094004" lon="11.360518993080175"><ele>478.0</ele><time>2026-04-10T13:46:01.999Z</time></trkpt><trkpt lat="45.63171839821174" lon="11.3604214126245"><ele>480.5</ele><time>2026-04-10T13:46:02.999Z</time></trkpt><trkpt lat="45.63164582938597" lon="11.360301233043495"><ele>483.0</ele><time>2026-04-10T13:46:04.999Z</time></trkpt><trkpt lat="45.631525087590035" lon="11.360198590879934"><ele>485.5</ele><time>2026-04-10T13:46:06.999Z</time></trkpt><trkpt lat="45.631538692477314" lon="11.360023939068169"><ele>488.0</ele><time>2026-04-10T13:46:08.999Z</time></trkpt><trkpt lat="45.63154689933914" lon="11.359884866570571"><ele>488.0</ele><time>2026-04-10T13:46:10.999Z</time></trkpt><trkpt lat="45.631483809004585" lon="11.359709806624547"><ele>487.99999999999994</ele><time>2026-04-10T13:46:12.999Z</time></trkpt><trkpt lat="45.63141012890148" lon="11.359578714923327"><ele>487.99999999999994</ele><time>2026-04-10T13:46:14.999Z</time></trkpt><trkpt lat="45.631415543749604" lon="11.359465734545436"><ele>488.0</ele><time>2026-04-10T13:46:15.999Z</time></trkpt><trkpt lat="45.631482459534695" lon="11.359473966865648"><ele>488.0</ele><time>2026-04-10T13:46:16.999Z</time></trkpt><trkpt lat="45.63151413348017" lon="11.359560879483146"><ele>489.8571428571428</ele><time>2026-04-10T13:46:17.999Z</time></trkpt><trkpt lat="45.63159501901666" lon="11.359664950318558"><ele>491.71428571428567</ele><time>2026-04-10T13:46:19.999Z</time></trkpt><trkpt lat="45.63165788351945" lon="11.359658115820217"><ele>493.57142857142856</ele><time>2026-04-10T13:46:20.999Z</time></trkpt><trkpt lat="45.63171325759477" lon="11.359593824925195"><ele>495.4285714285714</ele><time>2026-04-10T13:46:21.999Z</time></trkpt><trkpt lat="45.631743989013366" lon="11.35951357210612"><ele>497.2857142857142</ele><time>2026-04-10T13:46:22.999Z</time></trkpt><trkpt lat="45.63177770886988" lon="11.359428978847856"><ele>499.14285714285717</ele><time>2026-04-10T13:46:23.999Z</time></trkpt><trkpt lat="45.63181740253588" lon="11.359344272092024"><ele>501.0</ele><time>2026-04-10T13:46:24.999Z</time></trkpt><trkpt lat="45.631850818742656" lon="11.359265877514586"><ele>501.0</ele><time>2026-04-10T13:46:25.999Z</time></trkpt><trkpt lat="45.63190420902961" lon="11.359195894706833"><ele>501.0</ele><time>2026-04-10T13:46:26.999Z</time></trkpt><trkpt lat="45.631945428415015" lon="11.3591172332054"><ele>501.0</ele><time>2026-04-10T13:46:27.999Z</time></trkpt><trkpt lat="45.63199557959164" lon="11.359045207889237"><ele>501.0</ele><time>2026-04-10T13:46:28.999Z</time></trkpt><trkpt lat="45.63205375287622" lon="11.358973823487474"><ele>501.0</ele><time>2026-04-10T13:46:29.999Z</time></trkpt><trkpt lat="45.63211559515105" lon="11.358902287726268"><ele>501.0</ele><time>2026-04-10T13:46:30.999Z</time></trkpt><trkpt lat="45.63217500005477" lon="11.358849948099394"><ele>501.0</ele><time>2026-04-10T13:46:31.999Z</time></trkpt><trkpt lat="45.6322441578125" lon="11.358825774992399"><ele>502.7142857142857</ele><time>2026-04-10T13:46:32.999Z</time></trkpt><trkpt lat="45.63230005275429" lon="11.358769615266354"><ele>504.42857142857144</ele><time>2026-04-10T13:46:33.999Z</time></trkpt><trkpt lat="45.63236711308458" lon="11.358724693827373"><ele>506.14285714285717</ele><time>2026-04-10T13:46:34.999Z</time></trkpt><trkpt lat="45.63242477914918" lon="11.358682263436554"><ele>507.8571428571429</ele><time>2026-04-10T13:46:35.999Z</time></trkpt><trkpt lat="45.63249380422192" lon="11.358672832210415"><ele>509.57142857142856</ele><time>2026-04-10T13:46:36.999Z</time></trkpt><trkpt lat="45.632558620246904" lon="11.358650928374812"><ele>511.28571428571433</ele><time>2026-04-10T13:46:37.999Z</time></trkpt><trkpt lat="45.632637048096555" lon="11.358624756784769"><ele>513.0</ele><time>2026-04-10T13:46:38.999Z</time></trkpt><trkpt lat="45.63271408204478" lon="11.358599197865717"><ele>513.0</ele><time>2026-04-10T13:46:39.999Z</time></trkpt><trkpt lat="45.63278580010106" lon="11.35857361696886"><ele>513.0</ele><time>2026-04-10T13:46:40.999Z</time></trkpt><trkpt lat="45.632863223790984" lon="11.35854128759139"><ele>513.0</ele><time>2026-04-10T13:46:41.999Z</time></trkpt><trkpt lat="45.63294572169942" lon="11.358502251131364"><ele>513.0</ele><time>2026-04-10T13:46:42.999Z</time></trkpt><trkpt lat="45.63302220451939" lon="11.358440001934191"><ele>513.0</ele><time>2026-04-10T13:46:43.999Z</time></trkpt><trkpt lat="45.6331074974102" lon="11.358408774865694"><ele>513.0</ele><time>2026-04-10T13:46:44.999Z</time></trkpt><trkpt lat="45.63318713582511" lon="11.358368275320869"><ele>515.8333333333334</ele><time>2026-04-10T13:46:45.999Z</time></trkpt><trkpt lat="45.63327232822519" lon="11.358323751723008"><ele>518.6666666666666</ele><time>2026-04-10T13:46:46.999Z</time></trkpt><trkpt lat="45.63334934017869" lon="11.358288433197215"><ele>521.5</ele><time>2026-04-10T13:46:47.999Z</time></trkpt><trkpt lat="45.633427456569684" lon="11.35825275112675"><ele>524.3333333333333</ele><time>2026-04-10T13:46:48.999Z</time></trkpt><trkpt lat="45.63350759980134" lon="11.358209144816326"><ele>527.1666666666666</ele><time>2026-04-10T13:46:49.999Z</time></trkpt><trkpt lat="45.63358243830273" lon="11.358169144637364"><ele>530.0</ele><time>2026-04-10T13:46:50.999Z</time></trkpt><trkpt lat="45.63365142235103" lon="11.358141685015642"><ele>533.6</ele><time>2026-04-10T13:46:51.999Z</time></trkpt><trkpt lat="45.63371571588802" lon="11.35811279810956"><ele>537.2</ele><time>2026-04-10T13:46:52.999Z</time></trkpt><trkpt lat="45.63381707045527" lon="11.358062188809603"><ele>540.8</ele><time>2026-04-10T13:46:54.999Z</time></trkpt><trkpt lat="45.633887809885394" lon="11.35797706119513"><ele>544.4</ele><time>2026-04-10T13:46:56.999Z</time></trkpt><trkpt lat="45.63387800533251" lon="11.357863324484155"><ele>548.0</ele><time>2026-04-10T13:46:58.999Z</time></trkpt><trkpt lat="45.63378279936391" lon="11.35780012271205"><ele>548.0</ele><time>2026-04-10T13:47:00.999Z</time></trkpt><trkpt lat="45.63371739641663" lon="11.357798140336092"><ele>548.0</ele><time>2026-04-10T13:47:01.999Z</time></trkpt><trkpt lat="45.633623425752106" lon="11.35780442395529"><ele>548.0</ele><time>2026-04-10T13:47:02.999Z</time></trkpt><trkpt lat="45.633517738780554" lon="11.357801653536317"><ele>548.0</ele><time>2026-04-10T13:47:03.998Z</time></trkpt><trkpt lat="45.63344754443447" lon="11.357788813544447"><ele>548.0</ele><time>2026-04-10T13:47:04.998Z</time></trkpt><trkpt lat="45.63335592231251" lon="11.357748123084127"><ele>548.0</ele><time>2026-04-10T13:47:06.998Z</time></trkpt><trkpt lat="45.633343766009055" lon="11.357645780933801"><ele>548.0</ele><time>2026-04-10T13:47:09.998Z</time></trkpt><trkpt lat="45.633407911917914" lon="11.357631410772195"><ele>548.0</ele><time>2026-04-10T13:47:11.998Z</time></trkpt><trkpt lat="45.633530987512145" lon="11.357658237687659"><ele>548.0</ele><time>2026-04-10T13:47:13.998Z</time></trkpt><trkpt lat="45.63360427198775" lon="11.357659188493368"><ele>548.0</ele><time>2026-04-10T13:47:14.998Z</time></trkpt><trkpt lat="45.63368959264798" lon="11.35764388392163"><ele>548.0</ele><time>2026-04-10T13:47:15.998Z</time></trkpt><trkpt lat="45.63378023210217" lon="11.357602285531884"><ele>548.0</ele><time>2026-04-10T13:47:16.998Z</time></trkpt><trkpt lat="45.633876341303896" lon="11.357596149063772"><ele>548.0</ele><time>2026-04-10T13:47:17.998Z</time></trkpt><trkpt lat="45.63394751732511" lon="11.357560666938559"><ele>548.0</ele><time>2026-04-10T13:47:19Z</time></trkpt><trkpt lat="45.634014007331764" lon="11.357580726470038"><ele>548.0</ele><time>2026-04-10T13:47:20Z</time></trkpt><trkpt lat="45.63409192761917" lon="11.35761183172265"><ele>548.0</ele><time>2026-04-10T13:47:21Z</time></trkpt><trkpt lat="45.634177201558906" lon="11.357658913174744"><ele>548.0</ele><time>2026-04-10T13:47:22Z</time></trkpt><trkpt lat="45.634274774742515" lon="11.357719917055974"><ele>548.0</ele><time>2026-04-10T13:47:23Z</time></trkpt><trkpt lat="45.63437565509464" lon="11.357796383513108"><ele>550.4</ele><time>2026-04-10T13:47:24Z</time></trkpt><trkpt lat="45.6344715216356" lon="11.357824553738203"><ele>552.8</ele><time>2026-04-10T13:47:25Z</time></trkpt><trkpt lat="45.63456528360939" lon="11.3577913960944"><ele>555.2</ele><time>2026-04-10T13:47:26Z</time></trkpt><trkpt lat="45.63465937250646" lon="11.357769279083909"><ele>557.6</ele><time>2026-04-10T13:47:27Z</time></trkpt><trkpt lat="45.63476560480455" lon="11.35774013360057"><ele>560.0</ele><time>2026-04-10T13:47:28Z</time></trkpt><trkpt lat="45.63489399579233" lon="11.357721264675146"><ele>560.0</ele><time>2026-04-10T13:47:29Z</time></trkpt><trkpt lat="45.63501916053775" lon="11.357705459926697"><ele>560.0</ele><time>2026-04-10T13:47:30Z</time></trkpt><trkpt lat="45.635146195022" lon="11.357681572377897"><ele>560.0</ele><time>2026-04-10T13:47:31Z</time></trkpt><trkpt lat="45.63526327945935" lon="11.357655807418388"><ele>560.0</ele><time>2026-04-10T13:47:32Z</time></trkpt><trkpt lat="45.63536706467061" lon="11.357644429085632"><ele>560.8</ele><time>2026-04-10T13:47:33Z</time></trkpt><trkpt lat="45.635462333916976" lon="11.35769397617164"><ele>561.6</ele><time>2026-04-10T13:47:34Z</time></trkpt><trkpt lat="45.63553456467054" lon="11.357738617757665"><ele>562.4</ele><time>2026-04-10T13:47:35Z</time></trkpt><trkpt lat="45.63561976531179" lon="11.357791406526717"><ele>563.2</ele><time>2026-04-10T13:47:36Z</time></trkpt><trkpt lat="45.635714860095455" lon="11.35785110457379"><ele>564.0</ele><time>2026-04-10T13:47:37Z</time></trkpt><trkpt lat="45.635827442405144" lon="11.357878168642811"><ele>564.0</ele><time>2026-04-10T13:47:38Z</time></trkpt><trkpt lat="45.63591597658777" lon="11.35786590260497"><ele>564.0</ele><time>2026-04-10T13:47:39Z</time></trkpt><trkpt lat="45.63598472564996" lon="11.357850899985591"><ele>564.0</ele><time>2026-04-10T13:47:40Z</time></trkpt><trkpt lat="45.636052568085205" lon="11.35781223608699"><ele>564.0</ele><time>2026-04-10T13:47:41Z</time></trkpt><trkpt lat="45.636112734101246" lon="11.357757682669515"><ele>564.0</ele><time>2026-04-10T13:47:42Z</time></trkpt><trkpt lat="45.636184076035335" lon="11.357681193224611"><ele>564.0</ele><time>2026-04-10T13:47:43Z</time></trkpt><trkpt lat="45.636276359483226" lon="11.35757533658927"><ele>565.5</ele><time>2026-04-10T13:47:44Z</time></trkpt><trkpt lat="45.636382531427834" lon="11.357472537520346"><ele>567.0</ele><time>2026-04-10T13:47:45Z</time></trkpt><trkpt lat="45.636480677941975" lon="11.357386976789995"><ele>568.5</ele><time>2026-04-10T13:47:46Z</time></trkpt><trkpt lat="45.63658695990031" lon="11.35732175723711"><ele>570.0</ele><time>2026-04-10T13:47:47Z</time></trkpt><trkpt lat="45.636694966497636" lon="11.357248981537401"><ele>572.0</ele><time>2026-04-10T13:47:48Z</time></trkpt><trkpt lat="45.63680913664847" lon="11.357161479851724"><ele>574.0</ele><time>2026-04-10T13:47:49Z</time></trkpt><trkpt lat="45.63691522801221" lon="11.357078371016303"><ele>576.0</ele><time>2026-04-10T13:47:50Z</time></trkpt><trkpt lat="45.637012842976105" lon="11.356931729803884"><ele>578.0</ele><time>2026-04-10T13:47:51Z</time></trkpt><trkpt lat="45.63710689201451" lon="11.356832197543788"><ele>578.0</ele><time>2026-04-10T13:47:52Z</time></trkpt><trkpt lat="45.637193050244655" lon="11.356745040558028"><ele>578.0</ele><time>2026-04-10T13:47:53Z</time></trkpt><trkpt lat="45.63727406372886" lon="11.356704243975956"><ele>578.0</ele><time>2026-04-10T13:47:54Z</time></trkpt><trkpt lat="45.6373054952543" lon="11.356586915021857"><ele>578.0</ele><time>2026-04-10T13:47:55Z</time></trkpt><trkpt lat="45.637343710493376" lon="11.356494608034122"><ele>578.0</ele><time>2026-04-10T13:47:56Z</time></trkpt><trkpt lat="45.63739138200794" lon="11.356419859176283"><ele>578.0</ele><time>2026-04-10T13:47:57Z</time></trkpt><trkpt lat="45.6374483336427" lon="11.356377101812422"><ele>578.0</ele><time>2026-04-10T13:47:58Z</time></trkpt><trkpt lat="45.63751202528071" lon="11.356361224162077"><ele>578.0</ele><time>2026-04-10T13:47:59Z</time></trkpt><trkpt lat="45.63759022100359" lon="11.356367787419902"><ele>578.0</ele><time>2026-04-10T13:48:00Z</time></trkpt><trkpt lat="45.637659923080975" lon="11.356391378082519"><ele>578.0</ele><time>2026-04-10T13:48:01Z</time></trkpt><trkpt lat="45.63773994655277" lon="11.356412752072703"><ele>578.0</ele><time>2026-04-10T13:48:02Z</time></trkpt><trkpt lat="45.637814605867355" lon="11.356408371326523"><ele>578.0</ele><time>2026-04-10T13:48:03Z</time></trkpt><trkpt lat="45.63787256826986" lon="11.356330167976054"><ele>579.0</ele><time>2026-04-10T13:48:04Z</time></trkpt><trkpt lat="45.63792676001612" lon="11.356206928294656"><ele>580.0</ele><time>2026-04-10T13:48:05Z</time></trkpt><trkpt lat="45.63799438455947" lon="11.356034756074225"><ele>581.0</ele><time>2026-04-10T13:48:05.999Z</time></trkpt><trkpt lat="45.6380681985236" lon="11.355846097772773"><ele>582.0</ele><time>2026-04-10T13:48:06.999Z</time></trkpt><trkpt lat="45.6381536236436" lon="11.355641115008504"><ele>584.6</ele><time>2026-04-10T13:48:07.999Z</time></trkpt><trkpt lat="45.638217058756915" lon="11.355493722467463"><ele>587.2</ele><time>2026-04-10T13:48:08.999Z</time></trkpt><trkpt lat="45.63825733267889" lon="11.355343826345925"><ele>589.8</ele><time>2026-04-10T13:48:09.999Z</time></trkpt><trkpt lat="45.63826217315737" lon="11.355230281613588"><ele>592.4</ele><time>2026-04-10T13:48:10.999Z</time></trkpt><trkpt lat="45.638258339869644" lon="11.355129640697395"><ele>595.0</ele><time>2026-04-10T13:48:11.999Z</time></trkpt><trkpt lat="45.63827596215334" lon="11.354980753873342"><ele>595.0</ele><time>2026-04-10T13:48:13.999Z</time></trkpt><trkpt lat="45.6383524378908" lon="11.354898980624482"><ele>595.0</ele><time>2026-04-10T13:48:15.999Z</time></trkpt><trkpt lat="45.638442140853414" lon="11.354839337121403"><ele>595.0</ele><time>2026-04-10T13:48:16.999Z</time></trkpt><trkpt lat="45.638557240755596" lon="11.35478193939822"><ele>595.0</ele><time>2026-04-10T13:48:17.999Z</time></trkpt><trkpt lat="45.63868212280508" lon="11.354725401301781"><ele>595.0</ele><time>2026-04-10T13:48:18.999Z</time></trkpt><trkpt lat="45.63879009660078" lon="11.354712145113574"><ele>593.25</ele><time>2026-04-10T13:48:19.999Z</time></trkpt><trkpt lat="45.63891783011989" lon="11.354738795537463"><ele>591.5</ele><time>2026-04-10T13:48:20.999Z</time></trkpt><trkpt lat="45.639048413770176" lon="11.354819240740444"><ele>589.75</ele><time>2026-04-10T13:48:21.999Z</time></trkpt><trkpt lat="45.639160296072454" lon="11.354938769903656"><ele>588.0</ele><time>2026-04-10T13:48:22.999Z</time></trkpt><trkpt lat="45.639283202517525" lon="11.355036041785432"><ele>588.0</ele><time>2026-04-10T13:48:23.999Z</time></trkpt><trkpt lat="45.639458973349136" lon="11.355095359869951"><ele>588.0</ele><time>2026-04-10T13:48:24.999Z</time></trkpt><trkpt lat="45.63965990082632" lon="11.3551196868597"><ele>588.0</ele><time>2026-04-10T13:48:25.999Z</time></trkpt><trkpt lat="45.63984194378489" lon="11.355124200072181"><ele>589.3333333333334</ele><time>2026-04-10T13:48:26.999Z</time></trkpt><trkpt lat="45.64002852673971" lon="11.35510219638243"><ele>590.6666666666667</ele><time>2026-04-10T13:48:27.999Z</time></trkpt><trkpt lat="45.64017831539114" lon="11.355079051774817"><ele>592.0</ele><time>2026-04-10T13:48:28.999Z</time></trkpt><trkpt lat="45.64030467549545" lon="11.355056931567091"><ele>596.0</ele><time>2026-04-10T13:48:29.999Z</time></trkpt><trkpt lat="45.64041825154352" lon="11.355015905618822"><ele>600.0</ele><time>2026-04-10T13:48:30.999Z</time></trkpt><trkpt lat="45.640496154415374" lon="11.354965570332832"><ele>604.0</ele><time>2026-04-10T13:48:31.999Z</time></trkpt><trkpt lat="45.64056202906201" lon="11.35487435179969"><ele>608.0</ele><time>2026-04-10T13:48:33.999Z</time></trkpt><trkpt lat="45.64064175100153" lon="11.35488297285739"><ele>612.0</ele><time>2026-04-10T13:48:36.999Z</time></trkpt><trkpt lat="45.6406178278113" lon="11.355028619098384"><ele>612.0</ele><time>2026-04-10T13:48:38.999Z</time></trkpt><trkpt lat="45.64055836264303" lon="11.355103503928198"><ele>612.0</ele><time>2026-04-10T13:48:39.999Z</time></trkpt><trkpt lat="45.640470304813014" lon="11.355211908419188"><ele>612.0</ele><time>2026-04-10T13:48:40.999Z</time></trkpt><trkpt lat="45.64037024197415" lon="11.355323776964742"><ele>612.0</ele><time>2026-04-10T13:48:41.999Z</time></trkpt><trkpt lat="45.64027541042849" lon="11.355445310941672"><ele>611.0</ele><time>2026-04-10T13:48:42.999Z</time></trkpt><trkpt lat="45.64018825287252" lon="11.355578873067666"><ele>610.0</ele><time>2026-04-10T13:48:43.999Z</time></trkpt><trkpt lat="45.64010620810238" lon="11.35571100690885"><ele>609.0</ele><time>2026-04-10T13:48:44.999Z</time></trkpt><trkpt lat="45.64002373537343" lon="11.355848143191274"><ele>608.0</ele><time>2026-04-10T13:48:45.999Z</time></trkpt><trkpt lat="45.639944482560935" lon="11.35598482116499"><ele>608.0</ele><time>2026-04-10T13:48:46.999Z</time></trkpt><trkpt lat="45.63988707744726" lon="11.356118787010605"><ele>608.0</ele><time>2026-04-10T13:48:47.999Z</time></trkpt><trkpt lat="45.63985638383912" lon="11.356242370433963"><ele>608.0</ele><time>2026-04-10T13:48:48.999Z</time></trkpt><trkpt lat="45.63984419995772" lon="11.35640314226955"><ele>608.0</ele><time>2026-04-10T13:48:49.999Z</time></trkpt><trkpt lat="45.63980221963121" lon="11.356547330902796"><ele>608.0</ele><time>2026-04-10T13:48:50.999Z</time></trkpt><trkpt lat="45.639773592537445" lon="11.356691217281432"><ele>610.5</ele><time>2026-04-10T13:48:51.999Z</time></trkpt><trkpt lat="45.63977343009583" lon="11.35687966058533"><ele>613.0</ele><time>2026-04-10T13:48:52.999Z</time></trkpt><trkpt lat="45.63971448330584" lon="11.357019118160085"><ele>615.5</ele><time>2026-04-10T13:48:53.999Z</time></trkpt><trkpt lat="45.63961518872285" lon="11.357179930809314"><ele>618.0</ele><time>2026-04-10T13:48:54.999Z</time></trkpt><trkpt lat="45.639556235981054" lon="11.35732664059946"><ele>619.6</ele><time>2026-04-10T13:48:55.999Z</time></trkpt><trkpt lat="45.63949267892652" lon="11.357413199387222"><ele>621.1999999999999</ele><time>2026-04-10T13:48:56.999Z</time></trkpt><trkpt lat="45.639462669698155" lon="11.357530338760165"><ele>622.8</ele><time>2026-04-10T13:48:58.999Z</time></trkpt><trkpt lat="45.639567663794296" lon="11.357576861418408"><ele>624.4</ele><time>2026-04-10T13:49:00.999Z</time></trkpt><trkpt lat="45.63968111040299" lon="11.357455201582766"><ele>626.0</ele><time>2026-04-10T13:49:02.999Z</time></trkpt><trkpt lat="45.639750351557446" lon="11.3573297328552"><ele>623.3333333333333</ele><time>2026-04-10T13:49:03.999Z</time></trkpt><trkpt lat="45.639864424661965" lon="11.357179747318304"><ele>620.6666666666666</ele><time>2026-04-10T13:49:04.999Z</time></trkpt><trkpt lat="45.6399840360326" lon="11.357030909245855"><ele>618.0</ele><time>2026-04-10T13:49:05.999Z</time></trkpt><trkpt lat="45.64012688728968" lon="11.356876353871861"><ele>618.0</ele><time>2026-04-10T13:49:06.999Z</time></trkpt><trkpt lat="45.640260444586836" lon="11.356740415052137"><ele>618.0</ele><time>2026-04-10T13:49:07.999Z</time></trkpt><trkpt lat="45.64040078315781" lon="11.356633003807698"><ele>618.0</ele><time>2026-04-10T13:49:08.999Z</time></trkpt><trkpt lat="45.64055273273332" lon="11.356549353217623"><ele>621.0</ele><time>2026-04-10T13:49:09.999Z</time></trkpt><trkpt lat="45.64070175822974" lon="11.356504721607944"><ele>624.0</ele><time>2026-04-10T13:49:10.999Z</time></trkpt><trkpt lat="45.64083986202239" lon="11.356503277598925"><ele>627.0</ele><time>2026-04-10T13:49:11.999Z</time></trkpt><trkpt lat="45.64097932703476" lon="11.356549627305805"><ele>630.0</ele><time>2026-04-10T13:49:12.999Z</time></trkpt><trkpt lat="45.641118769026605" lon="11.356613051649587"><ele>630.25</ele><time>2026-04-10T13:49:13.999Z</time></trkpt><trkpt lat="45.641237934781344" lon="11.356640044070803"><ele>630.5</ele><time>2026-04-10T13:49:14.999Z</time></trkpt><trkpt lat="45.64135346709743" lon="11.356612017489867"><ele>630.75</ele><time>2026-04-10T13:49:15.999Z</time></trkpt><trkpt lat="45.64148407051432" lon="11.356512494230957"><ele>631.0</ele><time>2026-04-10T13:49:16.999Z</time></trkpt><trkpt lat="45.64163662345877" lon="11.356398761066592"><ele>632.0</ele><time>2026-04-10T13:49:17.999Z</time></trkpt><trkpt lat="45.64178153234516" lon="11.356351777765122"><ele>633.0</ele><time>2026-04-10T13:49:18.999Z</time></trkpt><trkpt lat="45.64192551354197" lon="11.356343945156679"><ele>634.0</ele><time>2026-04-10T13:49:19.999Z</time></trkpt><trkpt lat="45.64205041252654" lon="11.356364575489682"><ele>635.0</ele><time>2026-04-10T13:49:20.999Z</time></trkpt><trkpt lat="45.642181292964864" lon="11.35642767298508"><ele>636.0</ele><time>2026-04-10T13:49:21.999Z</time></trkpt><trkpt lat="45.64229769069936" lon="11.356524677445256"><ele>637.0</ele><time>2026-04-10T13:49:22.999Z</time></trkpt><trkpt lat="45.64239517848031" lon="11.35666020526884"><ele>638.0</ele><time>2026-04-10T13:49:23.999Z</time></trkpt><trkpt lat="45.642488197638535" lon="11.356822238229167"><ele>639.0</ele><time>2026-04-10T13:49:25Z</time></trkpt><trkpt lat="45.64261868258523" lon="11.356958868361767"><ele>639.0</ele><time>2026-04-10T13:49:26Z</time></trkpt><trkpt lat="45.64274286955802" lon="11.35714945116285"><ele>639.0</ele><time>2026-04-10T13:49:27Z</time></trkpt><trkpt lat="45.64288477034205" lon="11.357197508577263"><ele>639.0</ele><time>2026-04-10T13:49:28Z</time></trkpt><trkpt lat="45.643022549708945" lon="11.357221063471508"><ele>638.3333333333334</ele><time>2026-04-10T13:49:29Z</time></trkpt><trkpt lat="45.64319354592951" lon="11.357242699541942"><ele>637.6666666666667</ele><time>2026-04-10T13:49:30Z</time></trkpt><trkpt lat="45.64335452705463" lon="11.35726865823448"><ele>637.0</ele><time>2026-04-10T13:49:31Z</time></trkpt><trkpt lat="45.64349279883545" lon="11.35730524031365"><ele>637.0</ele><time>2026-04-10T13:49:32Z</time></trkpt><trkpt lat="45.643604792910395" lon="11.357392724924727"><ele>637.0</ele><time>2026-04-10T13:49:33Z</time></trkpt><trkpt lat="45.64370412426393" lon="11.357397206774193"><ele>637.0</ele><time>2026-04-10T13:49:34Z</time></trkpt><trkpt lat="45.64377718139606" lon="11.357479115191225"><ele>637.0</ele><time>2026-04-10T13:49:35Z</time></trkpt><trkpt lat="45.64382182569047" lon="11.3576001947798"><ele>637.0</ele><time>2026-04-10T13:49:36Z</time></trkpt><trkpt lat="45.64383793280597" lon="11.357724763080126"><ele>639.8</ele><time>2026-04-10T13:49:37Z</time></trkpt><trkpt lat="45.643894027809935" lon="11.357820076962177"><ele>642.6</ele><time>2026-04-10T13:49:38Z</time></trkpt><trkpt lat="45.643988620369136" lon="11.357872255469287"><ele>645.4</ele><time>2026-04-10T13:49:39Z</time></trkpt><trkpt lat="45.64409729548076" lon="11.357912172792831"><ele>648.1999999999999</ele><time>2026-04-10T13:49:40Z</time></trkpt><trkpt lat="45.64422302590007" lon="11.35788950009971"><ele>651.0</ele><time>2026-04-10T13:49:41Z</time></trkpt><trkpt lat="45.644351551580506" lon="11.35784339284314"><ele>650.0</ele><time>2026-04-10T13:49:42Z</time></trkpt><trkpt lat="45.64447845833169" lon="11.357857934378464"><ele>649.0</ele><time>2026-04-10T13:49:43Z</time></trkpt><trkpt lat="45.64460414213621" lon="11.357882303099462"><ele>648.0</ele><time>2026-04-10T13:49:44Z</time></trkpt><trkpt lat="45.64472922546004" lon="11.357896688163407"><ele>647.0</ele><time>2026-04-10T13:49:45Z</time></trkpt><trkpt lat="45.64485062490894" lon="11.357892428192464"><ele>647.0</ele><time>2026-04-10T13:49:46Z</time></trkpt><trkpt lat="45.64498181724292" lon="11.357837893822717"><ele>647.0</ele><time>2026-04-10T13:49:47Z</time></trkpt><trkpt lat="45.645102996824846" lon="11.357795035054169"><ele>647.0</ele><time>2026-04-10T13:49:48Z</time></trkpt><trkpt lat="45.64521777439856" lon="11.357774857711336"><ele>647.0</ele><time>2026-04-10T13:49:49Z</time></trkpt><trkpt lat="45.64533587494805" lon="11.357767443652115"><ele>644.5</ele><time>2026-04-10T13:49:50Z</time></trkpt><trkpt lat="45.64544787074777" lon="11.357762364577818"><ele>642.0</ele><time>2026-04-10T13:49:51Z</time></trkpt><trkpt lat="45.64555974263294" lon="11.357748297061208"><ele>639.5</ele><time>2026-04-10T13:49:52Z</time></trkpt><trkpt lat="45.64567934433854" lon="11.35771754527651"><ele>637.0</ele><time>2026-04-10T13:49:53Z</time></trkpt><trkpt lat="45.64579250552114" lon="11.357666399856608"><ele>637.0</ele><time>2026-04-10T13:49:54Z</time></trkpt><trkpt lat="45.64590132697331" lon="11.35759977955399"><ele>637.0</ele><time>2026-04-10T13:49:55Z</time></trkpt><trkpt lat="45.64600383648654" lon="11.357523579623349"><ele>637.0</ele><time>2026-04-10T13:49:56Z</time></trkpt><trkpt lat="45.64609447380263" lon="11.357441743333478"><ele>637.0</ele><time>2026-04-10T13:49:57Z</time></trkpt><trkpt lat="45.64618078213847" lon="11.35733313198652"><ele>636.0</ele><time>2026-04-10T13:49:58Z</time></trkpt><trkpt lat="45.64625570882585" lon="11.35722290285777"><ele>635.0</ele><time>2026-04-10T13:49:59Z</time></trkpt><trkpt lat="45.646326995300115" lon="11.357118352493355"><ele>634.0</ele><time>2026-04-10T13:50:00Z</time></trkpt><trkpt lat="45.6463925221949" lon="11.357024976768573"><ele>633.0</ele><time>2026-04-10T13:50:01Z</time></trkpt><trkpt lat="45.6464588288304" lon="11.356927074177879"><ele>632.0</ele><time>2026-04-10T13:50:02Z</time></trkpt><trkpt lat="45.64652414063104" lon="11.356820514045541"><ele>632.0</ele><time>2026-04-10T13:50:03Z</time></trkpt><trkpt lat="45.64659691761023" lon="11.356709884327056"><ele>632.0</ele><time>2026-04-10T13:50:04Z</time></trkpt><trkpt lat="45.64667777713111" lon="11.356589105804174"><ele>632.0</ele><time>2026-04-10T13:50:05Z</time></trkpt><trkpt lat="45.64676989812663" lon="11.35646851901095"><ele>632.0</ele><time>2026-04-10T13:50:06Z</time></trkpt><trkpt lat="45.64687261056532" lon="11.35636102269162"><ele>629.75</ele><time>2026-04-10T13:50:07Z</time></trkpt><trkpt lat="45.64697661920459" lon="11.356279710201685"><ele>627.5</ele><time>2026-04-10T13:50:08Z</time></trkpt><trkpt lat="45.64708843032355" lon="11.356205424333702"><ele>625.25</ele><time>2026-04-10T13:50:09Z</time></trkpt><trkpt lat="45.6472024340306" lon="11.356142508792622"><ele>623.0</ele><time>2026-04-10T13:50:10Z</time></trkpt><trkpt lat="45.64730477867503" lon="11.356073373823268"><ele>623.0</ele><time>2026-04-10T13:50:11Z</time></trkpt><trkpt lat="45.64740838771471" lon="11.355989035844694"><ele>623.0</ele><time>2026-04-10T13:50:12Z</time></trkpt><trkpt lat="45.64749947510983" lon="11.355876852657321"><ele>623.0</ele><time>2026-04-10T13:50:13Z</time></trkpt><trkpt lat="45.64758488623353" lon="11.355753654855366"><ele>623.0</ele><time>2026-04-10T13:50:14Z</time></trkpt><trkpt lat="45.647661526242004" lon="11.35560650110101"><ele>626.6666666666666</ele><time>2026-04-10T13:50:15Z</time></trkpt><trkpt lat="45.6477417253634" lon="11.355441921475801"><ele>630.3333333333334</ele><time>2026-04-10T13:50:16Z</time></trkpt><trkpt lat="45.64783859447908" lon="11.355223557202269"><ele>634.0</ele><time>2026-04-10T13:50:17Z</time></trkpt><trkpt lat="45.64793163022117" lon="11.355020222803596"><ele>630.0</ele><time>2026-04-10T13:50:18Z</time></trkpt><trkpt lat="45.64802682617605" lon="11.354841428995147"><ele>626.0</ele><time>2026-04-10T13:50:19Z</time></trkpt><trkpt lat="45.64812242252167" lon="11.354688489092917"><ele>622.0</ele><time>2026-04-10T13:50:20Z</time></trkpt><trkpt lat="45.64822919758511" lon="11.354571265425317"><ele>618.0</ele><time>2026-04-10T13:50:21Z</time></trkpt><trkpt lat="45.64836573778033" lon="11.354474112601382"><ele>618.0</ele><time>2026-04-10T13:50:22Z</time></trkpt><trkpt lat="45.6485394819304" lon="11.354392185993984"><ele>618.0</ele><time>2026-04-10T13:50:23Z</time></trkpt><trkpt lat="45.64869939459425" lon="11.354330889016696"><ele>618.0</ele><time>2026-04-10T13:50:24Z</time></trkpt><trkpt lat="45.648836721821354" lon="11.354285325768746"><ele>615.25</ele><time>2026-04-10T13:50:25Z</time></trkpt><trkpt lat="45.64897682414486" lon="11.354269185399383"><ele>612.5</ele><time>2026-04-10T13:50:26Z</time></trkpt><trkpt lat="45.64911150677649" lon="11.354292981512653"><ele>609.75</ele><time>2026-04-10T13:50:27Z</time></trkpt><trkpt lat="45.64923537803184" lon="11.35432706793523"><ele>607.0</ele><time>2026-04-10T13:50:28Z</time></trkpt><trkpt lat="45.649350945670406" lon="11.35432272505031"><ele>604.25</ele><time>2026-04-10T13:50:29Z</time></trkpt><trkpt lat="45.649459721689055" lon="11.354283142643398"><ele>601.5</ele><time>2026-04-10T13:50:30Z</time></trkpt><trkpt lat="45.64956398803524" lon="11.354211007658204"><ele>598.75</ele><time>2026-04-10T13:50:31Z</time></trkpt><trkpt lat="45.649651770942924" lon="11.354092166712057"><ele>596.0</ele><time>2026-04-10T13:50:32Z</time></trkpt><trkpt lat="45.649718943453856" lon="11.35393874858859"><ele>596.5</ele><time>2026-04-10T13:50:33Z</time></trkpt><trkpt lat="45.64977696184714" lon="11.353790635726591"><ele>597.0</ele><time>2026-04-10T13:50:34Z</time></trkpt><trkpt lat="45.64986331508543" lon="11.353693499425916"><ele>597.5</ele><time>2026-04-10T13:50:35Z</time></trkpt><trkpt lat="45.64996850173803" lon="11.35366273086206"><ele>598.0</ele><time>2026-04-10T13:50:36Z</time></trkpt><trkpt lat="45.65009681003269" lon="11.353628973571395"><ele>598.0</ele><time>2026-04-10T13:50:37Z</time></trkpt><trkpt lat="45.65022622735657" lon="11.353536628344136"><ele>598.0</ele><time>2026-04-10T13:50:38Z</time></trkpt><trkpt lat="45.650368059981204" lon="11.353363263296703"><ele>598.0</ele><time>2026-04-10T13:50:39Z</time></trkpt><trkpt lat="45.65052942923828" lon="11.35322350657054"><ele>596.5</ele><time>2026-04-10T13:50:40Z</time></trkpt><trkpt lat="45.65068057001342" lon="11.353127796103074"><ele>595.0</ele><time>2026-04-10T13:50:40.999Z</time></trkpt><trkpt lat="45.65082343914451" lon="11.353059762800196"><ele>593.5</ele><time>2026-04-10T13:50:41.999Z</time></trkpt><trkpt lat="45.65091709104244" lon="11.352961747762595"><ele>592.0</ele><time>2026-04-10T13:50:42.999Z</time></trkpt><trkpt lat="45.65103034292236" lon="11.352852136287853"><ele>592.0</ele><time>2026-04-10T13:50:43.999Z</time></trkpt><trkpt lat="45.65108992017804" lon="11.352713051998592"><ele>592.0</ele><time>2026-04-10T13:50:44.999Z</time></trkpt><trkpt lat="45.65116211790715" lon="11.35251857496145"><ele>592.0</ele><time>2026-04-10T13:50:45.999Z</time></trkpt><trkpt lat="45.65121491649774" lon="11.352357368375467"><ele>592.0</ele><time>2026-04-10T13:50:46.999Z</time></trkpt><trkpt lat="45.65124531442619" lon="11.352212697968831"><ele>587.5</ele><time>2026-04-10T13:50:47.999Z</time></trkpt><trkpt lat="45.65126016013198" lon="11.352015668005077"><ele>583.0</ele><time>2026-04-10T13:50:48.999Z</time></trkpt><trkpt lat="45.65126006452763" lon="11.351813901982549"><ele>578.5</ele><time>2026-04-10T13:50:49.999Z</time></trkpt><trkpt lat="45.65128627696386" lon="11.351635641440652"><ele>574.0</ele><time>2026-04-10T13:50:50.999Z</time></trkpt><trkpt lat="45.65136047963822" lon="11.351501069262897"><ele>574.0</ele><time>2026-04-10T13:50:51.999Z</time></trkpt><trkpt lat="45.651478849915804" lon="11.351492644860835"><ele>574.0</ele><time>2026-04-10T13:50:52.999Z</time></trkpt><trkpt lat="45.65161699033473" lon="11.351461603483589"><ele>574.0</ele><time>2026-04-10T13:50:53.999Z</time></trkpt><trkpt lat="45.65176502868274" lon="11.351412704191956"><ele>574.0</ele><time>2026-04-10T13:50:54.999Z</time></trkpt><trkpt lat="45.65188809440659" lon="11.351392816800068"><ele>572.5</ele><time>2026-04-10T13:50:55.999Z</time></trkpt><trkpt lat="45.65199991639052" lon="11.351464799257734"><ele>571.0</ele><time>2026-04-10T13:50:56.999Z</time></trkpt><trkpt lat="45.65211355785838" lon="11.35155567436316"><ele>569.5</ele><time>2026-04-10T13:50:57.999Z</time></trkpt><trkpt lat="45.65222270319043" lon="11.351637196732028"><ele>568.0</ele><time>2026-04-10T13:50:58.999Z</time></trkpt><trkpt lat="45.65233330156675" lon="11.351670861462292"><ele>568.0</ele><time>2026-04-10T13:50:59.999Z</time></trkpt><trkpt lat="45.65243905035411" lon="11.351686068522032"><ele>568.0</ele><time>2026-04-10T13:51:00.999Z</time></trkpt><trkpt lat="45.65258571573942" lon="11.35162416218172"><ele>568.0</ele><time>2026-04-10T13:51:01.999Z</time></trkpt><trkpt lat="45.652743449078166" lon="11.351542563245154"><ele>568.0</ele><time>2026-04-10T13:51:02.999Z</time></trkpt><trkpt lat="45.65291107816333" lon="11.351403447254791"><ele>567.3333333333334</ele><time>2026-04-10T13:51:03.999Z</time></trkpt><trkpt lat="45.65306513778019" lon="11.351264743011921"><ele>566.6666666666666</ele><time>2026-04-10T13:51:04.999Z</time></trkpt><trkpt lat="45.65321385678599" lon="11.351159965393746"><ele>566.0</ele><time>2026-04-10T13:51:05.999Z</time></trkpt><trkpt lat="45.65335362283798" lon="11.351072274755985"><ele>566.0</ele><time>2026-04-10T13:51:06.999Z</time></trkpt><trkpt lat="45.653487409387914" lon="11.35093385973142"><ele>566.0</ele><time>2026-04-10T13:51:07.999Z</time></trkpt><trkpt lat="45.653615469617684" lon="11.350731286995039"><ele>566.0</ele><time>2026-04-10T13:51:08.999Z</time></trkpt><trkpt lat="45.65374101862035" lon="11.350558732287627"><ele>564.25</ele><time>2026-04-10T13:51:09.999Z</time></trkpt><trkpt lat="45.65382868817205" lon="11.350449413401606"><ele>562.5</ele><time>2026-04-10T13:51:10.999Z</time></trkpt><trkpt lat="45.65390743554142" lon="11.35033391005592"><ele>560.75</ele><time>2026-04-10T13:51:11.999Z</time></trkpt><trkpt lat="45.654021335244785" lon="11.35026883028511"><ele>559.0</ele><time>2026-04-10T13:51:12.999Z</time></trkpt><trkpt lat="45.654164189459074" lon="11.350253708798784"><ele>559.0</ele><time>2026-04-10T13:51:13.999Z</time></trkpt><trkpt lat="45.65432757513736" lon="11.350246401814546"><ele>559.0</ele><time>2026-04-10T13:51:14.999Z</time></trkpt><trkpt lat="45.65446668552134" lon="11.350255204828123"><ele>559.0</ele><time>2026-04-10T13:51:15.999Z</time></trkpt><trkpt lat="45.65457789647193" lon="11.350301211849992"><ele>559.0</ele><time>2026-04-10T13:51:16.999Z</time></trkpt><trkpt lat="45.65465094838182" lon="11.350414150266786"><ele>555.0</ele><time>2026-04-10T13:51:17.999Z</time></trkpt><trkpt lat="45.654708698317776" lon="11.350558886701917"><ele>551.0</ele><time>2026-04-10T13:51:18.999Z</time></trkpt><trkpt lat="45.65477468878724" lon="11.35070311317356"><ele>547.0</ele><time>2026-04-10T13:51:19.999Z</time></trkpt><trkpt lat="45.65485280479027" lon="11.350816672278068"><ele>543.0</ele><time>2026-04-10T13:51:20.999Z</time></trkpt><trkpt lat="45.65494813101633" lon="11.350883842979632"><ele>543.0</ele><time>2026-04-10T13:51:21.999Z</time></trkpt><trkpt lat="45.65507229971433" lon="11.350872676996365"><ele>543.0</ele><time>2026-04-10T13:51:22.999Z</time></trkpt><trkpt lat="45.65521670083651" lon="11.350807227640113"><ele>543.0</ele><time>2026-04-10T13:51:23.999Z</time></trkpt><trkpt lat="45.65536068266611" lon="11.350768899369525"><ele>543.0</ele><time>2026-04-10T13:51:24.999Z</time></trkpt><trkpt lat="45.65548037144478" lon="11.35074627516249"><ele>542.75</ele><time>2026-04-10T13:51:25.999Z</time></trkpt><trkpt lat="45.655615688383314" lon="11.35075565983901"><ele>542.5</ele><time>2026-04-10T13:51:26.999Z</time></trkpt><trkpt lat="45.65577712133042" lon="11.350754466972724"><ele>542.25</ele><time>2026-04-10T13:51:27.999Z</time></trkpt><trkpt lat="45.65592126670353" lon="11.350749194817572"><ele>542.0</ele><time>2026-04-10T13:51:28.999Z</time></trkpt><trkpt lat="45.65604130820681" lon="11.350803887626585"><ele>539.6</ele><time>2026-04-10T13:51:29.999Z</time></trkpt><trkpt lat="45.656158304965764" lon="11.350902221798403"><ele>537.2</ele><time>2026-04-10T13:51:31.001Z</time></trkpt><trkpt lat="45.656250688398934" lon="11.350978080626298"><ele>534.8</ele><time>2026-04-10T13:51:32.001Z</time></trkpt><trkpt lat="45.65635239944092" lon="11.351051848814363"><ele>532.4</ele><time>2026-04-10T13:51:34.001Z</time></trkpt><trkpt lat="45.65634039251953" lon="11.351183187676055"><ele>530.0</ele><time>2026-04-10T13:51:36.001Z</time></trkpt><trkpt lat="45.65626537124528" lon="11.351205790063373"><ele>530.0</ele><time>2026-04-10T13:51:37.001Z</time></trkpt><trkpt lat="45.656166375673365" lon="11.351190860883571"><ele>530.0</ele><time>2026-04-10T13:51:38.001Z</time></trkpt><trkpt lat="45.656029376837935" lon="11.351220666683732"><ele>530.0</ele><time>2026-04-10T13:51:39.001Z</time></trkpt><trkpt lat="45.65589062977204" lon="11.351249707697825"><ele>530.0</ele><time>2026-04-10T13:51:40.001Z</time></trkpt><trkpt lat="45.65574750145913" lon="11.351279890422054"><ele>528.25</ele><time>2026-04-10T13:51:41.001Z</time></trkpt><trkpt lat="45.655607588109305" lon="11.35131052787119"><ele>526.5</ele><time>2026-04-10T13:51:42.001Z</time></trkpt><trkpt lat="45.65547611047017" lon="11.351343676141969"><ele>524.75</ele><time>2026-04-10T13:51:43.001Z</time></trkpt><trkpt lat="45.655354391988894" lon="11.351408323706124"><ele>523.0</ele><time>2026-04-10T13:51:44.001Z</time></trkpt><trkpt lat="45.655243004202" lon="11.351461112178928"><ele>523.0</ele><time>2026-04-10T13:51:45.001Z</time></trkpt><trkpt lat="45.65512493128509" lon="11.351593990214463"><ele>523.0</ele><time>2026-04-10T13:51:46Z</time></trkpt><trkpt lat="45.655046824251144" lon="11.351734685886683"><ele>523.0</ele><time>2026-04-10T13:51:47Z</time></trkpt><trkpt lat="45.654932863463635" lon="11.35186675206567"><ele>523.0</ele><time>2026-04-10T13:51:48Z</time></trkpt><trkpt lat="45.654802129710745" lon="11.351932104973413"><ele>523.0</ele><time>2026-04-10T13:51:49Z</time></trkpt><trkpt lat="45.654674820055384" lon="11.351977351083324"><ele>523.0</ele><time>2026-04-10T13:51:50Z</time></trkpt><trkpt lat="45.654555681472445" lon="11.351989119881322"><ele>523.0</ele><time>2026-04-10T13:51:51Z</time></trkpt><trkpt lat="45.65443550134354" lon="11.351933806612292"><ele>523.0</ele><time>2026-04-10T13:51:52Z</time></trkpt><trkpt lat="45.654301995131725" lon="11.351896933614254"><ele>524.4</ele><time>2026-04-10T13:51:53Z</time></trkpt><trkpt lat="45.65417531008181" lon="11.35189919302146"><ele>525.8</ele><time>2026-04-10T13:51:54Z</time></trkpt><trkpt lat="45.65407443633987" lon="11.3519637215391"><ele>527.2</ele><time>2026-04-10T13:51:55Z</time></trkpt><trkpt lat="45.65398557184523" lon="11.352044228827044"><ele>528.6</ele><time>2026-04-10T13:51:56Z</time></trkpt><trkpt lat="45.65393406807077" lon="11.352157535977849"><ele>530.0</ele><time>2026-04-10T13:51:57Z</time></trkpt><trkpt lat="45.65391561205244" lon="11.352267050782084"><ele>525.5</ele><time>2026-04-10T13:51:58Z</time></trkpt><trkpt lat="45.65392998857054" lon="11.352383657360985"><ele>521.0</ele><time>2026-04-10T13:51:59Z</time></trkpt><trkpt lat="45.653923331209484" lon="11.35248702877789"><ele>516.5</ele><time>2026-04-10T13:52:00Z</time></trkpt><trkpt lat="45.65417171539331" lon="11.352563820638833"><ele>512.0</ele><time>2026-04-10T13:52:01Z</time></trkpt><trkpt lat="45.65429546498924" lon="11.352597372055993"><ele>512.0</ele><time>2026-04-10T13:52:02Z</time></trkpt><trkpt lat="45.65444334178777" lon="11.352647343930931"><ele>512.0</ele><time>2026-04-10T13:52:03Z</time></trkpt><trkpt lat="45.654551398845655" lon="11.352768590538679"><ele>512.0</ele><time>2026-04-10T13:52:04Z</time></trkpt><trkpt lat="45.65461510953673" lon="11.352922024263973"><ele>512.0</ele><time>2026-04-10T13:52:05Z</time></trkpt><trkpt lat="45.65469487087201" lon="11.353006524437674"><ele>508.25</ele><time>2026-04-10T13:52:06Z</time></trkpt><trkpt lat="45.654779396470374" lon="11.353080376864016"><ele>504.5</ele><time>2026-04-10T13:52:07Z</time></trkpt><trkpt lat="45.65489726948714" lon="11.353092022193955"><ele>500.75</ele><time>2026-04-10T13:52:08Z</time></trkpt><trkpt lat="45.65502613652591" lon="11.353101529918229"><ele>497.0</ele><time>2026-04-10T13:52:09Z</time></trkpt><trkpt lat="45.65516930344377" lon="11.353094469089491"><ele>498.25</ele><time>2026-04-10T13:52:10Z</time></trkpt><trkpt lat="45.655295053389544" lon="11.353075061357302"><ele>499.5</ele><time>2026-04-10T13:52:11Z</time></trkpt><trkpt lat="45.65541872825526" lon="11.35303096979952"><ele>500.75</ele><time>2026-04-10T13:52:12Z</time></trkpt><trkpt lat="45.65553866913528" lon="11.352980061250204"><ele>502.0</ele><time>2026-04-10T13:52:13Z</time></trkpt><trkpt lat="45.65562866789072" lon="11.352859911138086"><ele>502.0</ele><time>2026-04-10T13:52:14Z</time></trkpt><trkpt lat="45.655712430597426" lon="11.35275194634026"><ele>502.00000000000006</ele><time>2026-04-10T13:52:15Z</time></trkpt><trkpt lat="45.65578431147797" lon="11.352639586939413"><ele>502.00000000000006</ele><time>2026-04-10T13:52:16Z</time></trkpt><trkpt lat="45.65586765328533" lon="11.352606881914125"><ele>502.0</ele><time>2026-04-10T13:52:17Z</time></trkpt><trkpt lat="45.65596686071918" lon="11.352605630296912"><ele>502.0</ele><time>2026-04-10T13:52:18Z</time></trkpt><trkpt lat="45.65602757415557" lon="11.35276967963103"><ele>500.25</ele><time>2026-04-10T13:52:19Z</time></trkpt><trkpt lat="45.65612641809279" lon="11.352897929104815"><ele>498.5</ele><time>2026-04-10T13:52:20Z</time></trkpt><trkpt lat="45.65623146217774" lon="11.353057148473841"><ele>496.75</ele><time>2026-04-10T13:52:21Z</time></trkpt><trkpt lat="45.65630038883809" lon="11.353129602760932"><ele>495.0</ele><time>2026-04-10T13:52:22Z</time></trkpt><trkpt lat="45.65638748586553" lon="11.353195937273428"><ele>495.0</ele><time>2026-04-10T13:52:23Z</time></trkpt><trkpt lat="45.65649245599431" lon="11.35309634660057"><ele>495.0</ele><time>2026-04-10T13:52:24Z</time></trkpt><trkpt lat="45.65656598866806" lon="11.352966620247368"><ele>495.0</ele><time>2026-04-10T13:52:25Z</time></trkpt><trkpt lat="45.65662965547684" lon="11.352782105602616"><ele>495.0</ele><time>2026-04-10T13:52:26Z</time></trkpt><trkpt lat="45.656741839960105" lon="11.352558721543748"><ele>495.0</ele><time>2026-04-10T13:52:27Z</time></trkpt><trkpt lat="45.65683669412855" lon="11.352360198591764"><ele>495.0</ele><time>2026-04-10T13:52:28Z</time></trkpt><trkpt lat="45.656943532231566" lon="11.352190550145298"><ele>495.0</ele><time>2026-04-10T13:52:29Z</time></trkpt><trkpt lat="45.657045904734325" lon="11.35202426108831"><ele>490.0</ele><time>2026-04-10T13:52:30Z</time></trkpt><trkpt lat="45.657158480681595" lon="11.351874181841863"><ele>485.0</ele><time>2026-04-10T13:52:31Z</time></trkpt><trkpt lat="45.65730522940063" lon="11.351806958336569"><ele>480.0</ele><time>2026-04-10T13:52:32Z</time></trkpt><trkpt lat="45.65757662471014" lon="11.3515775992449"><ele>480.0</ele><time>2026-04-10T13:52:34Z</time></trkpt><trkpt lat="45.6576984738995" lon="11.351448413292013"><ele>480.0</ele><time>2026-04-10T13:52:35Z</time></trkpt><trkpt lat="45.657801770797114" lon="11.35130263431393"><ele>480.0</ele><time>2026-04-10T13:52:36Z</time></trkpt><trkpt lat="45.65790600008687" lon="11.351096809871127"><ele>476.66666666666663</ele><time>2026-04-10T13:52:37Z</time></trkpt><trkpt lat="45.658008620756426" lon="11.350833039070485"><ele>473.3333333333333</ele><time>2026-04-10T13:52:38Z</time></trkpt><trkpt lat="45.658102547649" lon="11.350584270016968"><ele>470.0</ele><time>2026-04-10T13:52:39Z</time></trkpt><trkpt lat="45.65821904001233" lon="11.350355603950831"><ele>470.0</ele><time>2026-04-10T13:52:40Z</time></trkpt><trkpt lat="45.658308369835524" lon="11.350122323488902"><ele>470.0</ele><time>2026-04-10T13:52:41Z</time></trkpt><trkpt lat="45.65839073142701" lon="11.349901362592556"><ele>470.0</ele><time>2026-04-10T13:52:42Z</time></trkpt><trkpt lat="45.6584665835775" lon="11.349674812518002"><ele>474.66666666666663</ele><time>2026-04-10T13:52:43Z</time></trkpt><trkpt lat="45.65852957161471" lon="11.349460049555827"><ele>479.33333333333337</ele><time>2026-04-10T13:52:44Z</time></trkpt><trkpt lat="45.65857584429018" lon="11.349238646769383"><ele>484.0</ele><time>2026-04-10T13:52:45Z</time></trkpt><trkpt lat="45.658614260874955" lon="11.349028415538877"><ele>477.25</ele><time>2026-04-10T13:52:46Z</time></trkpt><trkpt lat="45.6586529335286" lon="11.348857825456589"><ele>470.5</ele><time>2026-04-10T13:52:47Z</time></trkpt><trkpt lat="45.65874458477578" lon="11.3487239143294"><ele>463.75</ele><time>2026-04-10T13:52:48Z</time></trkpt><trkpt lat="45.65884944968211" lon="11.348626528891922"><ele>457.0</ele><time>2026-04-10T13:52:49Z</time></trkpt><trkpt lat="45.658971546510095" lon="11.348512078477953"><ele>457.0</ele><time>2026-04-10T13:52:50Z</time></trkpt><trkpt lat="45.65907666660685" lon="11.348410632853247"><ele>457.00000000000006</ele><time>2026-04-10T13:52:51Z</time></trkpt><trkpt lat="45.65916189148145" lon="11.348326208730978"><ele>457.00000000000006</ele><time>2026-04-10T13:52:52Z</time></trkpt><trkpt lat="45.65925490098638" lon="11.348244077284434"><ele>457.0</ele><time>2026-04-10T13:52:53Z</time></trkpt><trkpt lat="45.65934776972919" lon="11.34825843115867"><ele>457.0</ele><time>2026-04-10T13:52:55Z</time></trkpt><trkpt lat="45.659374558568885" lon="11.348351880242177"><ele>457.0</ele><time>2026-04-10T13:52:56Z</time></trkpt><trkpt lat="45.65931811166701" lon="11.348479357590664"><ele>457.0</ele><time>2026-04-10T13:52:57Z</time></trkpt><trkpt lat="45.65928346964202" lon="11.348630221085685"><ele>457.0</ele><time>2026-04-10T13:52:58Z</time></trkpt><trkpt lat="45.6592768212807" lon="11.348810986045935"><ele>457.0</ele><time>2026-04-10T13:52:59Z</time></trkpt><trkpt lat="45.65926289872575" lon="11.34898787879745"><ele>453.75</ele><time>2026-04-10T13:53:00Z</time></trkpt><trkpt lat="45.659292442810596" lon="11.349165632262103"><ele>450.5</ele><time>2026-04-10T13:53:01Z</time></trkpt><trkpt lat="45.65938415045369" lon="11.349304610179702"><ele>447.25</ele><time>2026-04-10T13:53:02Z</time></trkpt><trkpt lat="45.65948237455848" lon="11.349461239818206"><ele>444.0</ele><time>2026-04-10T13:53:03Z</time></trkpt><trkpt lat="45.65960101667463" lon="11.349604339322891"><ele>440.33333333333337</ele><time>2026-04-10T13:53:04Z</time></trkpt><trkpt lat="45.65973262753654" lon="11.349764150046248"><ele>436.6666666666667</ele><time>2026-04-10T13:53:05Z</time></trkpt><trkpt lat="45.659866706978306" lon="11.349942227140094"><ele>433.0</ele><time>2026-04-10T13:53:06Z</time></trkpt><trkpt lat="45.65998444767765" lon="11.350120850087944"><ele>433.0</ele><time>2026-04-10T13:53:07Z</time></trkpt><trkpt lat="45.660073968966046" lon="11.350336370700271"><ele>433.0</ele><time>2026-04-10T13:53:08Z</time></trkpt><trkpt lat="45.66016094837434" lon="11.350538059179799"><ele>433.0</ele><time>2026-04-10T13:53:09Z</time></trkpt><trkpt lat="45.66023763838407" lon="11.350733575318854"><ele>432.25</ele><time>2026-04-10T13:53:10Z</time></trkpt><trkpt lat="45.660298331349026" lon="11.350923605600656"><ele>431.5</ele><time>2026-04-10T13:53:11Z</time></trkpt><trkpt lat="45.6603353905622" lon="11.351116234986867"><ele>430.75</ele><time>2026-04-10T13:53:12Z</time></trkpt><trkpt lat="45.66032410410805" lon="11.351297367207842"><ele>430.0</ele><time>2026-04-10T13:53:13Z</time></trkpt><trkpt lat="45.66028955683778" lon="11.351472286870797"><ele>428.0</ele><time>2026-04-10T13:53:14Z</time></trkpt><trkpt lat="45.6602497074281" lon="11.351677943389095"><ele>426.0</ele><time>2026-04-10T13:53:15Z</time></trkpt><trkpt lat="45.66021261822863" lon="11.351862306735049"><ele>424.0</ele><time>2026-04-10T13:53:16Z</time></trkpt><trkpt lat="45.66019038367323" lon="11.352034124488945"><ele>422.0</ele><time>2026-04-10T13:53:17Z</time></trkpt><trkpt lat="45.66016154535994" lon="11.35219666789597"><ele>421.25</ele><time>2026-04-10T13:53:18Z</time></trkpt><trkpt lat="45.660147451319915" lon="11.352359294044733"><ele>420.5</ele><time>2026-04-10T13:53:19Z</time></trkpt><trkpt lat="45.66016040737017" lon="11.352524871748978"><ele>419.75</ele><time>2026-04-10T13:53:20Z</time></trkpt><trkpt lat="45.66019688261832" lon="11.352685606748103"><ele>419.0</ele><time>2026-04-10T13:53:21Z</time></trkpt><trkpt lat="45.660238926485896" lon="11.352859391651785"><ele>419.0</ele><time>2026-04-10T13:53:22Z</time></trkpt><trkpt lat="45.66027259443281" lon="11.353036848004466"><ele>419.0</ele><time>2026-04-10T13:53:23Z</time></trkpt><trkpt lat="45.66029811580625" lon="11.353212688016457"><ele>419.0</ele><time>2026-04-10T13:53:24Z</time></trkpt><trkpt lat="45.66030485705418" lon="11.353392021721906"><ele>419.0</ele><time>2026-04-10T13:53:25Z</time></trkpt><trkpt lat="45.66030216327009" lon="11.353568190637143"><ele>417.75</ele><time>2026-04-10T13:53:26Z</time></trkpt><trkpt lat="45.660300512165016" lon="11.353741680523445"><ele>416.5</ele><time>2026-04-10T13:53:26.999Z</time></trkpt><trkpt lat="45.66030814031697" lon="11.353905823709558"><ele>415.25</ele><time>2026-04-10T13:53:27.999Z</time></trkpt><trkpt lat="45.660333723676956" lon="11.354069167045601"><ele>414.0</ele><time>2026-04-10T13:53:28.999Z</time></trkpt><trkpt lat="45.66036360323584" lon="11.354238643335966"><ele>412.5</ele><time>2026-04-10T13:53:29.999Z</time></trkpt><trkpt lat="45.66038722926299" lon="11.354409376197838"><ele>411.0</ele><time>2026-04-10T13:53:30.999Z</time></trkpt><trkpt lat="45.66040397364098" lon="11.35457186250363"><ele>409.5</ele><time>2026-04-10T13:53:31.999Z</time></trkpt><trkpt lat="45.66041471913233" lon="11.354729354862894"><ele>408.0</ele><time>2026-04-10T13:53:32.999Z</time></trkpt><trkpt lat="45.660376846634435" lon="11.3548840154258"><ele>407.79999999999995</ele><time>2026-04-10T13:53:33.999Z</time></trkpt><trkpt lat="45.660297577922954" lon="11.35500517284508"><ele>407.6</ele><time>2026-04-10T13:53:34.999Z</time></trkpt><trkpt lat="45.660232945623605" lon="11.355127775364446"><ele>407.4</ele><time>2026-04-10T13:53:35.999Z</time></trkpt><trkpt lat="45.66017509038173" lon="11.355252169727004"><ele>407.20000000000005</ele><time>2026-04-10T13:53:37.001Z</time></trkpt><trkpt lat="45.660120185054964" lon="11.355369196852033"><ele>407.0</ele><time>2026-04-10T13:53:38.001Z</time></trkpt><trkpt lat="45.66009636811111" lon="11.355495571723436"><ele>406.75</ele><time>2026-04-10T13:53:39.001Z</time></trkpt><trkpt lat="45.660109855035074" lon="11.355636207460755"><ele>406.5</ele><time>2026-04-10T13:53:40.001Z</time></trkpt><trkpt lat="45.660154213993195" lon="11.355786026640263"><ele>406.25</ele><time>2026-04-10T13:53:41.001Z</time></trkpt><trkpt lat="45.66020499153071" lon="11.355941740520826"><ele>406.0</ele><time>2026-04-10T13:53:42.001Z</time></trkpt><trkpt lat="45.660255145854805" lon="11.356099442973731"><ele>405.5</ele><time>2026-04-10T13:53:43.001Z</time></trkpt><trkpt lat="45.66030131679009" lon="11.356269364601554"><ele>405.0</ele><time>2026-04-10T13:53:44.001Z</time></trkpt><trkpt lat="45.6603588516187" lon="11.356428972177772"><ele>404.5</ele><time>2026-04-10T13:53:45.001Z</time></trkpt><trkpt lat="45.660438548825894" lon="11.356593771017227"><ele>404.0</ele><time>2026-04-10T13:53:46.001Z</time></trkpt><trkpt lat="45.6605271473051" lon="11.35674455592694"><ele>403.5</ele><time>2026-04-10T13:53:47.001Z</time></trkpt><trkpt lat="45.66061350286364" lon="11.356892785423154"><ele>403.0</ele><time>2026-04-10T13:53:48.001Z</time></trkpt><trkpt lat="45.66069921796812" lon="11.35704841486901"><ele>402.5</ele><time>2026-04-10T13:53:49.001Z</time></trkpt><trkpt lat="45.660785653916506" lon="11.357194238691116"><ele>402.0</ele><time>2026-04-10T13:53:50.001Z</time></trkpt><trkpt lat="45.66087448909326" lon="11.35731946634262"><ele>402.25</ele><time>2026-04-10T13:53:51.001Z</time></trkpt><trkpt lat="45.66096320000129" lon="11.357439440764427"><ele>402.5</ele><time>2026-04-10T13:53:52.001Z</time></trkpt><trkpt lat="45.661040350258915" lon="11.357553626890748"><ele>402.75</ele><time>2026-04-10T13:53:53.001Z</time></trkpt><trkpt lat="45.661102502962535" lon="11.357680642018401"><ele>403.0</ele><time>2026-04-10T13:53:54.001Z</time></trkpt><trkpt lat="45.66115487166876" lon="11.357830458812526"><ele>403.0</ele><time>2026-04-10T13:53:55.001Z</time></trkpt><trkpt lat="45.66118236947393" lon="11.358014282488286"><ele>403.0</ele><time>2026-04-10T13:53:56.001Z</time></trkpt><trkpt lat="45.66116964302493" lon="11.358216554049067"><ele>403.0</ele><time>2026-04-10T13:53:57.001Z</time></trkpt><trkpt lat="45.661196317242634" lon="11.358421458827502"><ele>403.0</ele><time>2026-04-10T13:53:58.001Z</time></trkpt><trkpt lat="45.66122294308049" lon="11.358618218391232"><ele>401.5</ele><time>2026-04-10T13:53:59.001Z</time></trkpt><trkpt lat="45.661242098845364" lon="11.358788311623181"><ele>400.0</ele><time>2026-04-10T13:54:00.001Z</time></trkpt><trkpt lat="45.66125788973117" lon="11.358970174939223"><ele>398.5</ele><time>2026-04-10T13:54:01.001Z</time></trkpt><trkpt lat="45.661256110271964" lon="11.359173157168591"><ele>397.0</ele><time>2026-04-10T13:54:02.001Z</time></trkpt><trkpt lat="45.6612194265172" lon="11.359365962111653"><ele>396.25</ele><time>2026-04-10T13:54:03.001Z</time></trkpt><trkpt lat="45.66120240780658" lon="11.35955571773785"><ele>395.5</ele><time>2026-04-10T13:54:04.001Z</time></trkpt><trkpt lat="45.66117942721814" lon="11.359726632409592"><ele>394.75</ele><time>2026-04-10T13:54:05.001Z</time></trkpt><trkpt lat="45.66114078492624" lon="11.359886296956576"><ele>394.0</ele><time>2026-04-10T13:54:06.001Z</time></trkpt><trkpt lat="45.6610810900171" lon="11.360020584034737"><ele>392.0</ele><time>2026-04-10T13:54:07.001Z</time></trkpt><trkpt lat="45.66101819417302" lon="11.360133827254264"><ele>390.0</ele><time>2026-04-10T13:54:08.001Z</time></trkpt><trkpt lat="45.660961550766885" lon="11.360233828237792"><ele>388.0</ele><time>2026-04-10T13:54:09Z</time></trkpt><trkpt lat="45.66092012873255" lon="11.360338679928683"><ele>386.0</ele><time>2026-04-10T13:54:10Z</time></trkpt><trkpt lat="45.660869439995736" lon="11.360461060601006"><ele>384.0</ele><time>2026-04-10T13:54:12Z</time></trkpt><trkpt lat="45.66097963961534" lon="11.360602277650361"><ele>383.25</ele><time>2026-04-10T13:54:14Z</time></trkpt><trkpt lat="45.66109937508788" lon="11.36065727508405"><ele>382.5</ele><time>2026-04-10T13:54:15Z</time></trkpt><trkpt lat="45.661233725698175" lon="11.360694705462574"><ele>381.75</ele><time>2026-04-10T13:54:16Z</time></trkpt><trkpt lat="45.661376467126274" lon="11.360720815941503"><ele>381.0</ele><time>2026-04-10T13:54:17Z</time></trkpt><trkpt lat="45.66153009870375" lon="11.360740372654428"><ele>380.25</ele><time>2026-04-10T13:54:18Z</time></trkpt><trkpt lat="45.661670725984166" lon="11.360757709896033"><ele>379.5</ele><time>2026-04-10T13:54:19Z</time></trkpt><trkpt lat="45.66180340827482" lon="11.360769368828707"><ele>378.75</ele><time>2026-04-10T13:54:20Z</time></trkpt><trkpt lat="45.661921645584904" lon="11.360794569293208"><ele>378.0</ele><time>2026-04-10T13:54:21Z</time></trkpt><trkpt lat="45.66202169295426" lon="11.360868353547364"><ele>376.6666666666667</ele><time>2026-04-10T13:54:22Z</time></trkpt><trkpt lat="45.662080254297614" lon="11.361035533140711"><ele>375.33333333333337</ele><time>2026-04-10T13:54:23Z</time></trkpt><trkpt lat="45.662188433330265" lon="11.361191335410885"><ele>374.0</ele><time>2026-04-10T13:54:24Z</time></trkpt><trkpt lat="45.662285329349906" lon="11.36138690003171"><ele>373.5</ele><time>2026-04-10T13:54:25Z</time></trkpt><trkpt lat="45.66237822535586" lon="11.36155081964244"><ele>373.0</ele><time>2026-04-10T13:54:26Z</time></trkpt><trkpt lat="45.662472329783704" lon="11.361685960651997"><ele>372.5</ele><time>2026-04-10T13:54:27Z</time></trkpt><trkpt lat="45.66257178579351" lon="11.361805345316016"><ele>372.0</ele><time>2026-04-10T13:54:28Z</time></trkpt><trkpt lat="45.662655134899026" lon="11.36190029328137"><ele>372.0</ele><time>2026-04-10T13:54:29Z</time></trkpt><trkpt lat="45.66269476348838" lon="11.361997753951814"><ele>372.0</ele><time>2026-04-10T13:54:30Z</time></trkpt><trkpt lat="45.66265406923674" lon="11.362172808658409"><ele>372.0</ele><time>2026-04-10T13:54:32Z</time></trkpt><trkpt lat="45.66256962096159" lon="11.362228804349714"><ele>372.0</ele><time>2026-04-10T13:54:33Z</time></trkpt><trkpt lat="45.66246801364119" lon="11.362311077609759"><ele>372.0</ele><time>2026-04-10T13:54:34Z</time></trkpt><trkpt lat="45.66234015520261" lon="11.36239866439325"><ele>372.0</ele><time>2026-04-10T13:54:35Z</time></trkpt><trkpt lat="45.66219747777003" lon="11.362481540154034"><ele>372.0</ele><time>2026-04-10T13:54:36Z</time></trkpt><trkpt lat="45.662063468064716" lon="11.362537626483874"><ele>372.0</ele><time>2026-04-10T13:54:37Z</time></trkpt><trkpt lat="45.66193219908671" lon="11.362549332297343"><ele>372.0</ele><time>2026-04-10T13:54:38Z</time></trkpt><trkpt lat="45.66178311263109" lon="11.362549174499414"><ele>372.5</ele><time>2026-04-10T13:54:39Z</time></trkpt><trkpt lat="45.661641607193694" lon="11.362545802924533"><ele>373.0</ele><time>2026-04-10T13:54:40Z</time></trkpt><trkpt lat="45.66150672256287" lon="11.362561489366048"><ele>373.5</ele><time>2026-04-10T13:54:41Z</time></trkpt><trkpt lat="45.66136591985199" lon="11.362553334210162"><ele>374.0</ele><time>2026-04-10T13:54:42Z</time></trkpt><trkpt lat="45.661236578178254" lon="11.362549685318129"><ele>373.75</ele><time>2026-04-10T13:54:43Z</time></trkpt><trkpt lat="45.66110240186024" lon="11.362548021690882"><ele>373.5</ele><time>2026-04-10T13:54:44Z</time></trkpt><trkpt lat="45.66098023090449" lon="11.362547239642408"><ele>373.25</ele><time>2026-04-10T13:54:45Z</time></trkpt><trkpt lat="45.660859118382234" lon="11.362534069383464"><ele>373.0</ele><time>2026-04-10T13:54:46Z</time></trkpt><trkpt lat="45.660739042967684" lon="11.362523126298896"><ele>373.0</ele><time>2026-04-10T13:54:47Z</time></trkpt><trkpt lat="45.66064580844527" lon="11.362517360133769"><ele>373.0</ele><time>2026-04-10T13:54:48Z</time></trkpt><trkpt lat="45.66057947563812" lon="11.362505161383496"><ele>373.0</ele><time>2026-04-10T13:54:49Z</time></trkpt><trkpt lat="45.660479937843284" lon="11.362504472850953"><ele>373.0</ele><time>2026-04-10T13:54:51Z</time></trkpt><trkpt lat="45.66039806106135" lon="11.362496122928997"><ele>373.0</ele><time>2026-04-10T13:54:53Z</time></trkpt><trkpt lat="45.66033780229825" lon="11.362539069951184"><ele>373.0</ele><time>2026-04-10T13:55:16Z</time></trkpt><trkpt lat="45.66028561864847" lon="11.362435782665194"><ele>372.79999999999995</ele><time>2026-04-10T13:55:18Z</time></trkpt><trkpt lat="45.66023228187679" lon="11.362356775686195"><ele>372.6</ele><time>2026-04-10T13:55:20Z</time></trkpt><trkpt lat="45.66015331878767" lon="11.362257884582181"><ele>372.4</ele><time>2026-04-10T13:55:32Z</time></trkpt><trkpt lat="45.66007356313258" lon="11.362204803536413"><ele>372.20000000000005</ele><time>2026-04-10T13:55:33Z</time></trkpt><trkpt lat="45.659980872334835" lon="11.362145860657682"><ele>372.0</ele><time>2026-04-10T13:55:34Z</time></trkpt><trkpt lat="45.659885577745065" lon="11.362049242220891"><ele>373.25</ele><time>2026-04-10T13:55:35Z</time></trkpt><trkpt lat="45.65974974928902" lon="11.362048288788328"><ele>374.5</ele><time>2026-04-10T13:55:36Z</time></trkpt><trkpt lat="45.65962163893559" lon="11.36204649726296"><ele>375.75</ele><time>2026-04-10T13:55:37Z</time></trkpt><trkpt lat="45.65946643300066" lon="11.362074886994144"><ele>377.0</ele><time>2026-04-10T13:55:37.999Z</time></trkpt><trkpt lat="45.65932715779868" lon="11.362083272232756"><ele>374.25</ele><time>2026-04-10T13:55:38.999Z</time></trkpt><trkpt lat="45.659190431395736" lon="11.362029522407228"><ele>371.5</ele><time>2026-04-10T13:55:39.999Z</time></trkpt><trkpt lat="45.659048712680224" lon="11.361988328662958"><ele>368.75</ele><time>2026-04-10T13:55:40.999Z</time></trkpt><trkpt lat="45.65889885795483" lon="11.36194481559141"><ele>366.0</ele><time>2026-04-10T13:55:41.999Z</time></trkpt><trkpt lat="45.65875270043526" lon="11.36192655932461"><ele>363.6666666666667</ele><time>2026-04-10T13:55:43.001Z</time></trkpt><trkpt lat="45.65849216096979" lon="11.36185042455694"><ele>361.33333333333337</ele><time>2026-04-10T13:55:45.001Z</time></trkpt><trkpt lat="45.658358000952084" lon="11.361790527900032"><ele>359.0</ele><time>2026-04-10T13:55:46Z</time></trkpt><trkpt lat="45.658208497683674" lon="11.361787699055284"><ele>359.0</ele><time>2026-04-10T13:55:47Z</time></trkpt><trkpt lat="45.658047093365646" lon="11.361751006682363"><ele>359.0</ele><time>2026-04-10T13:55:48Z</time></trkpt><trkpt lat="45.65787764316299" lon="11.361726396155705"><ele>359.0</ele><time>2026-04-10T13:55:49Z</time></trkpt><trkpt lat="45.65774378418389" lon="11.361675832301065"><ele>357.6666666666667</ele><time>2026-04-10T13:55:50Z</time></trkpt><trkpt lat="45.65756067985317" lon="11.361733648298728"><ele>356.3333333333333</ele><time>2026-04-10T13:55:51Z</time></trkpt><trkpt lat="45.65741148712955" lon="11.361769798429416"><ele>355.0</ele><time>2026-04-10T13:55:52Z</time></trkpt><trkpt lat="45.657273417212906" lon="11.361767075469565"><ele>355.0</ele><time>2026-04-10T13:55:53Z</time></trkpt><trkpt lat="45.657141067110636" lon="11.36174041156029"><ele>355.0</ele><time>2026-04-10T13:55:54Z</time></trkpt><trkpt lat="45.65701146586365" lon="11.361668566031327"><ele>355.0</ele><time>2026-04-10T13:55:55Z</time></trkpt><trkpt lat="45.65689478206572" lon="11.361549335267814"><ele>355.0</ele><time>2026-04-10T13:55:56Z</time></trkpt><trkpt lat="45.65675818589094" lon="11.361408709698267"><ele>353.66666666666663</ele><time>2026-04-10T13:55:57Z</time></trkpt><trkpt lat="45.656617870947926" lon="11.361267144010029"><ele>352.3333333333333</ele><time>2026-04-10T13:55:58Z</time></trkpt><trkpt lat="45.65647704183908" lon="11.361144115311285"><ele>351.0</ele><time>2026-04-10T13:55:59Z</time></trkpt><trkpt lat="45.65634981655474" lon="11.361038391797512"><ele>351.0</ele><time>2026-04-10T13:56:00Z</time></trkpt><trkpt lat="45.6562025250734" lon="11.361007831392774"><ele>351.0</ele><time>2026-04-10T13:56:01Z</time></trkpt><trkpt lat="45.656044242816506" lon="11.361045931633932"><ele>351.0</ele><time>2026-04-10T13:56:02Z</time></trkpt><trkpt lat="45.65589223569996" lon="11.36115607347058"><ele>350.6666666666667</ele><time>2026-04-10T13:56:03Z</time></trkpt><trkpt lat="45.65579676422466" lon="11.361327638726053"><ele>350.33333333333337</ele><time>2026-04-10T13:56:04Z</time></trkpt><trkpt lat="45.655674553945396" lon="11.361544535182661"><ele>350.0</ele><time>2026-04-10T13:56:05Z</time></trkpt><trkpt lat="45.65554788512312" lon="11.361764526808072"><ele>350.0</ele><time>2026-04-10T13:56:06Z</time></trkpt><trkpt lat="45.65544349080127" lon="11.361992842578758"><ele>350.0</ele><time>2026-04-10T13:56:07Z</time></trkpt><trkpt lat="45.6553064444686" lon="11.362223322042272"><ele>350.0</ele><time>2026-04-10T13:56:08Z</time></trkpt><trkpt lat="45.6552070428955" lon="11.36238913495864"><ele>350.0</ele><time>2026-04-10T13:56:09Z</time></trkpt><trkpt lat="45.6550673234634" lon="11.362520940916092"><ele>350.0</ele><time>2026-04-10T13:56:10Z</time></trkpt><trkpt lat="45.65497839032114" lon="11.362636141548668"><ele>350.0</ele><time>2026-04-10T13:56:11Z</time></trkpt><trkpt lat="45.65497640634201" lon="11.36282548159229"><ele>350.0</ele><time>2026-04-10T13:56:12Z</time></trkpt><trkpt lat="45.65497263084337" lon="11.363039073017882"><ele>350.0</ele><time>2026-04-10T13:56:13Z</time></trkpt><trkpt lat="45.654939941164166" lon="11.363272363671785"><ele>350.0</ele><time>2026-04-10T13:56:14Z</time></trkpt><trkpt lat="45.65492511306841" lon="11.363471160813589"><ele>350.0</ele><time>2026-04-10T13:56:15Z</time></trkpt><trkpt lat="45.654862026740446" lon="11.36363183808047"><ele>350.0</ele><time>2026-04-10T13:56:16Z</time></trkpt><trkpt lat="45.65476148069817" lon="11.363747689391047"><ele>350.0</ele><time>2026-04-10T13:56:17Z</time></trkpt><trkpt lat="45.6546498993715" lon="11.363794076388471"><ele>350.0</ele><time>2026-04-10T13:56:18Z</time></trkpt><trkpt lat="45.65452257422938" lon="11.363862646358792"><ele>350.0</ele><time>2026-04-10T13:56:19Z</time></trkpt><trkpt lat="45.65436358546181" lon="11.363915945236716"><ele>350.0</ele><time>2026-04-10T13:56:20Z</time></trkpt><trkpt lat="45.654179018767444" lon="11.364002164118808"><ele>349.0</ele><time>2026-04-10T13:56:21Z</time></trkpt><trkpt lat="45.65396979133527" lon="11.364150858317952"><ele>348.0</ele><time>2026-04-10T13:56:22Z</time></trkpt><trkpt lat="45.65378757460594" lon="11.364265821278021"><ele>347.0</ele><time>2026-04-10T13:56:23Z</time></trkpt><trkpt lat="45.65358961106542" lon="11.36442268710974"><ele>346.5</ele><time>2026-04-10T13:56:23.999Z</time></trkpt><trkpt lat="45.653413376835225" lon="11.364616336796868"><ele>346.0</ele><time>2026-04-10T13:56:24.999Z</time></trkpt><trkpt lat="45.65322731044363" lon="11.364861229696919"><ele>346.0</ele><time>2026-04-10T13:56:25.999Z</time></trkpt><trkpt lat="45.65303982341579" lon="11.365133790982943"><ele>346.0</ele><time>2026-04-10T13:56:26.999Z</time></trkpt><trkpt lat="45.652876672302085" lon="11.365360750959816"><ele>346.0</ele><time>2026-04-10T13:56:27.999Z</time></trkpt><trkpt lat="45.65273821181678" lon="11.36555880959339"><ele>346.0</ele><time>2026-04-10T13:56:28.999Z</time></trkpt><trkpt lat="45.65261068366056" lon="11.365727945652068"><ele>346.0</ele><time>2026-04-10T13:56:29.999Z</time></trkpt><trkpt lat="45.65248901047739" lon="11.365899639194279"><ele>346.0</ele><time>2026-04-10T13:56:30.999Z</time></trkpt><trkpt lat="45.65236678500386" lon="11.366057718244553"><ele>346.0</ele><time>2026-04-10T13:56:31.999Z</time></trkpt><trkpt lat="45.652233700422386" lon="11.366233265970202"><ele>346.0</ele><time>2026-04-10T13:56:32.999Z</time></trkpt><trkpt lat="45.652123427478784" lon="11.366374439010443"><ele>343.75</ele><time>2026-04-10T13:56:33.999Z</time></trkpt><trkpt lat="45.65201481847635" lon="11.366515407012702"><ele>341.5</ele><time>2026-04-10T13:56:34.999Z</time></trkpt><trkpt lat="45.65191940378829" lon="11.366630077829344"><ele>339.25</ele><time>2026-04-10T13:56:35.999Z</time></trkpt><trkpt lat="45.65183276077253" lon="11.366726987231948"><ele>337.0</ele><time>2026-04-10T13:56:36.999Z</time></trkpt><trkpt lat="45.65175904127588" lon="11.366772529742374"><ele>337.20000000000005</ele><time>2026-04-10T13:56:37.999Z</time></trkpt><trkpt lat="45.651691339787334" lon="11.366702378774747"><ele>337.4</ele><time>2026-04-10T13:56:38.999Z</time></trkpt><trkpt lat="45.65164066350779" lon="11.366619995027586"><ele>337.6</ele><time>2026-04-10T13:56:39.999Z</time></trkpt><trkpt lat="45.6516358215553" lon="11.366488443848315"><ele>337.79999999999995</ele><time>2026-04-10T13:56:40.999Z</time></trkpt><trkpt lat="45.65167415275443" lon="11.366360445100996"><ele>338.0</ele><time>2026-04-10T13:56:41.999Z</time></trkpt><trkpt lat="45.651703495558756" lon="11.366193268440371"><ele>338.0</ele><time>2026-04-10T13:56:42.999Z</time></trkpt><trkpt lat="45.65172448937984" lon="11.366003065572027"><ele>338.0</ele><time>2026-04-10T13:56:43.999Z</time></trkpt><trkpt lat="45.651709325459315" lon="11.365799071795331"><ele>338.0</ele><time>2026-04-10T13:56:44.999Z</time></trkpt><trkpt lat="45.6516737582178" lon="11.365575413076579"><ele>338.0</ele><time>2026-04-10T13:56:45.999Z</time></trkpt><trkpt lat="45.651617282952074" lon="11.365346926146243"><ele>340.0</ele><time>2026-04-10T13:56:46.999Z</time></trkpt><trkpt lat="45.65158381334693" lon="11.365113115833054"><ele>342.0</ele><time>2026-04-10T13:56:47.999Z</time></trkpt><trkpt lat="45.651557940179686" lon="11.364880463379189"><ele>344.0</ele><time>2026-04-10T13:56:48.999Z</time></trkpt><trkpt lat="45.65154682891103" lon="11.364682234363627"><ele>346.5</ele><time>2026-04-10T13:56:49.999Z</time></trkpt><trkpt lat="45.65149539712447" lon="11.36450751517951"><ele>349.0</ele><time>2026-04-10T13:56:50.999Z</time></trkpt><trkpt lat="45.651410704403226" lon="11.364359904925035"><ele>351.5</ele><time>2026-04-10T13:56:51.999Z</time></trkpt><trkpt lat="45.65128848533592" lon="11.36428048572707"><ele>354.0</ele><time>2026-04-10T13:56:52.999Z</time></trkpt><trkpt lat="45.65116058929168" lon="11.364216634696758"><ele>349.0</ele><time>2026-04-10T13:56:53.999Z</time></trkpt><trkpt lat="45.651010068448436" lon="11.364270703286088"><ele>344.0</ele><time>2026-04-10T13:56:54.999Z</time></trkpt><trkpt lat="45.650831533700554" lon="11.364316060828063"><ele>339.0</ele><time>2026-04-10T13:56:55.999Z</time></trkpt><trkpt lat="45.650682394524964" lon="11.364381209065922"><ele>339.0</ele><time>2026-04-10T13:56:56.999Z</time></trkpt><trkpt lat="45.65058000412291" lon="11.36431688955366"><ele>339.0</ele><time>2026-04-10T13:56:57.999Z</time></trkpt><trkpt lat="45.65048735818526" lon="11.364216540883932"><ele>339.0</ele><time>2026-04-10T13:56:58.999Z</time></trkpt><trkpt lat="45.65034593949691" lon="11.364090416353207"><ele>339.0</ele><time>2026-04-10T13:56:59.999Z</time></trkpt><trkpt lat="45.65017205748641" lon="11.363945127902529"><ele>336.5</ele><time>2026-04-10T13:57:00.999Z</time></trkpt><trkpt lat="45.65005150507072" lon="11.363810911641234"><ele>334.0</ele><time>2026-04-10T13:57:01.999Z</time></trkpt><trkpt lat="45.64997774391446" lon="11.363677433991784"><ele>331.5</ele><time>2026-04-10T13:57:02.999Z</time></trkpt><trkpt lat="45.65002376079048" lon="11.36348728194676"><ele>329.0</ele><time>2026-04-10T13:57:04.999Z</time></trkpt><trkpt lat="45.65007570813742" lon="11.363330384815319"><ele>329.0</ele><time>2026-04-10T13:57:05.999Z</time></trkpt><trkpt lat="45.65011277892008" lon="11.363148204054434"><ele>329.0</ele><time>2026-04-10T13:57:06.999Z</time></trkpt><trkpt lat="45.65009617286734" lon="11.362980091607962"><ele>329.0</ele><time>2026-04-10T13:57:07.999Z</time></trkpt><trkpt lat="45.650034402957104" lon="11.362805163738635"><ele>329.0</ele><time>2026-04-10T13:57:08.999Z</time></trkpt><trkpt lat="45.64994059516005" lon="11.36264842087854"><ele>333.25</ele><time>2026-04-10T13:57:09.999Z</time></trkpt><trkpt lat="45.64983307166722" lon="11.362551708197621"><ele>337.5</ele><time>2026-04-10T13:57:10.999Z</time></trkpt><trkpt lat="45.649694618280854" lon="11.3625367912652"><ele>341.75</ele><time>2026-04-10T13:57:11.999Z</time></trkpt><trkpt lat="45.64952601166855" lon="11.362571999404869"><ele>346.0</ele><time>2026-04-10T13:57:12.999Z</time></trkpt><trkpt lat="45.64939167691354" lon="11.362633569237977"><ele>349.5</ele><time>2026-04-10T13:57:13.999Z</time></trkpt><trkpt lat="45.649062872763594" lon="11.362771997448709"><ele>353.0</ele><time>2026-04-10T13:57:14.999Z</time></trkpt><trkpt lat="45.64883004667903" lon="11.362889401948042"><ele>353.0</ele><time>2026-04-10T13:57:15.999Z</time></trkpt><trkpt lat="45.64863554473999" lon="11.363027172653275"><ele>353.0</ele><time>2026-04-10T13:57:16.999Z</time></trkpt><trkpt lat="45.6484423162999" lon="11.363178169188165"><ele>353.0</ele><time>2026-04-10T13:57:17.999Z</time></trkpt><trkpt lat="45.64825558053345" lon="11.363252273054389"><ele>349.33333333333337</ele><time>2026-04-10T13:57:18.999Z</time></trkpt><trkpt lat="45.648085707899725" lon="11.363315334541994"><ele>345.6666666666667</ele><time>2026-04-10T13:57:19.999Z</time></trkpt><trkpt lat="45.6478584439031" lon="11.3633498154811"><ele>342.0</ele><time>2026-04-10T13:57:20.999Z</time></trkpt><trkpt lat="45.64762876117308" lon="11.363403387945517"><ele>342.0</ele><time>2026-04-10T13:57:21.999Z</time></trkpt><trkpt lat="45.64740456542384" lon="11.363471605518237"><ele>342.0</ele><time>2026-04-10T13:57:22.999Z</time></trkpt><trkpt lat="45.64721114802431" lon="11.363603011682804"><ele>342.0</ele><time>2026-04-10T13:57:23.999Z</time></trkpt><trkpt lat="45.64700093748347" lon="11.363772888230155"><ele>334.0</ele><time>2026-04-10T13:57:24.999Z</time></trkpt><trkpt lat="45.64678395529891" lon="11.363952354312401"><ele>326.0</ele><time>2026-04-10T13:57:25.999Z</time></trkpt><trkpt lat="45.646589938560204" lon="11.364097109101419"><ele>326.0</ele><time>2026-04-10T13:57:26.999Z</time></trkpt><trkpt lat="45.64642571874918" lon="11.364209084140644"><ele>326.0</ele><time>2026-04-10T13:57:27.999Z</time></trkpt><trkpt lat="45.646316184247624" lon="11.364294507823653"><ele>326.0</ele><time>2026-04-10T13:57:28.999Z</time></trkpt><trkpt lat="45.64624009986555" lon="11.36433765786716"><ele>326.0</ele><time>2026-04-10T13:57:29.999Z</time></trkpt><trkpt lat="45.6461326477433" lon="11.3643594789728"><ele>326.5</ele><time>2026-04-10T13:57:30.999Z</time></trkpt><trkpt lat="45.64605065109166" lon="11.36437839128809"><ele>327.0</ele><time>2026-04-10T13:57:31.999Z</time></trkpt><trkpt lat="45.64595716367456" lon="11.36425527910366"><ele>327.5</ele><time>2026-04-10T13:57:32.999Z</time></trkpt><trkpt lat="45.64584037161854" lon="11.364162125552564"><ele>328.0</ele><time>2026-04-10T13:57:33.999Z</time></trkpt><trkpt lat="45.645673092650696" lon="11.364033709861634"><ele>328.0</ele><time>2026-04-10T13:57:34.999Z</time></trkpt><trkpt lat="45.645515911606125" lon="11.363941302859212"><ele>328.0</ele><time>2026-04-10T13:57:35.999Z</time></trkpt><trkpt lat="45.64535512344633" lon="11.36388048969121"><ele>328.0</ele><time>2026-04-10T13:57:36.999Z</time></trkpt><trkpt lat="45.645213683946686" lon="11.363806691520677"><ele>326.25</ele><time>2026-04-10T13:57:37.999Z</time></trkpt><trkpt lat="45.6450988834238" lon="11.363754337762245"><ele>324.5</ele><time>2026-04-10T13:57:38.999Z</time></trkpt><trkpt lat="45.64496300915155" lon="11.363715829946361"><ele>322.75</ele><time>2026-04-10T13:57:39.999Z</time></trkpt><trkpt lat="45.644872918922644" lon="11.3638489018255"><ele>321.0</ele><time>2026-04-10T13:57:40.999Z</time></trkpt><trkpt lat="45.64476969737006" lon="11.364024076678888"><ele>321.0</ele><time>2026-04-10T13:57:41.999Z</time></trkpt><trkpt lat="45.644697850179924" lon="11.364221559231616"><ele>321.0</ele><time>2026-04-10T13:57:42.999Z</time></trkpt><trkpt lat="45.64460137426347" lon="11.36444712112643"><ele>321.0</ele><time>2026-04-10T13:57:43.999Z</time></trkpt><trkpt lat="45.644464737054925" lon="11.36470284922623"><ele>318.6666666666667</ele><time>2026-04-10T13:57:44.999Z</time></trkpt><trkpt lat="45.64435194676798" lon="11.364927496718126"><ele>316.33333333333337</ele><time>2026-04-10T13:57:45.999Z</time></trkpt><trkpt lat="45.644252904562585" lon="11.36512423047855"><ele>314.0</ele><time>2026-04-10T13:57:46.999Z</time></trkpt><trkpt lat="45.644153187498624" lon="11.365288581281293"><ele>314.0</ele><time>2026-04-10T13:57:47.999Z</time></trkpt><trkpt lat="45.64403732758807" lon="11.365393786590966"><ele>314.0</ele><time>2026-04-10T13:57:49Z</time></trkpt><trkpt lat="45.64390913898162" lon="11.365461134578139"><ele>314.0</ele><time>2026-04-10T13:57:50Z</time></trkpt><trkpt lat="45.643755502098394" lon="11.365522939616726"><ele>314.0</ele><time>2026-04-10T13:57:51Z</time></trkpt><trkpt lat="45.643598478386636" lon="11.3655254335069"><ele>314.6666666666667</ele><time>2026-04-10T13:57:52Z</time></trkpt><trkpt lat="45.64344949412685" lon="11.365472964936433"><ele>315.3333333333333</ele><time>2026-04-10T13:57:53Z</time></trkpt><trkpt lat="45.64330310517845" lon="11.365373355203555"><ele>316.0</ele><time>2026-04-10T13:57:54Z</time></trkpt><trkpt lat="45.64312447437646" lon="11.365261379771944"><ele>316.0</ele><time>2026-04-10T13:57:55Z</time></trkpt><trkpt lat="45.64293383993738" lon="11.36517911343989"><ele>316.0</ele><time>2026-04-10T13:57:56Z</time></trkpt><trkpt lat="45.642722182087034" lon="11.365132654354008"><ele>316.0</ele><time>2026-04-10T13:57:57Z</time></trkpt><trkpt lat="45.64254019186822" lon="11.36505571809654"><ele>314.66666666666663</ele><time>2026-04-10T13:57:58Z</time></trkpt><trkpt lat="45.642393992439665" lon="11.364958610213623"><ele>313.3333333333333</ele><time>2026-04-10T13:57:59Z</time></trkpt><trkpt lat="45.64223961214839" lon="11.364893284950977"><ele>312.0</ele><time>2026-04-10T13:58:00Z</time></trkpt><trkpt lat="45.64208160187173" lon="11.364907623885642"><ele>315.3333333333333</ele><time>2026-04-10T13:58:01Z</time></trkpt><trkpt lat="45.641934308299405" lon="11.36492478032969"><ele>318.66666666666663</ele><time>2026-04-10T13:58:02Z</time></trkpt><trkpt lat="45.64180619312736" lon="11.365076468865873"><ele>322.0</ele><time>2026-04-10T13:58:03Z</time></trkpt><trkpt lat="45.64166838886945" lon="11.3652655507994"><ele>322.0</ele><time>2026-04-10T13:58:04Z</time></trkpt><trkpt lat="45.64152482520692" lon="11.365445360986614"><ele>322.0</ele><time>2026-04-10T13:58:05Z</time></trkpt><trkpt lat="45.64138176753997" lon="11.36552536047484"><ele>322.0</ele><time>2026-04-10T13:58:06Z</time></trkpt><trkpt lat="45.64123085304603" lon="11.365542412184888"><ele>315.3333333333333</ele><time>2026-04-10T13:58:07Z</time></trkpt><trkpt lat="45.64102430602837" lon="11.365571496359165"><ele>308.6666666666667</ele><time>2026-04-10T13:58:08Z</time></trkpt><trkpt lat="45.64079521404209" lon="11.36560500619201"><ele>302.0</ele><time>2026-04-10T13:58:09Z</time></trkpt><trkpt lat="45.64059585367054" lon="11.365651327434614"><ele>302.0</ele><time>2026-04-10T13:58:10Z</time></trkpt><trkpt lat="45.640414062435106" lon="11.365789880817317"><ele>302.0</ele><time>2026-04-10T13:58:11Z</time></trkpt><trkpt lat="45.64023818895541" lon="11.365973200373714"><ele>302.0</ele><time>2026-04-10T13:58:12Z</time></trkpt><trkpt lat="45.64005207094787" lon="11.366206664868711"><ele>295.0</ele><time>2026-04-10T13:58:13Z</time></trkpt><trkpt lat="45.639855386711794" lon="11.366462572507215"><ele>288.0</ele><time>2026-04-10T13:58:14Z</time></trkpt><trkpt lat="45.639672031147505" lon="11.366708994019305"><ele>288.0</ele><time>2026-04-10T13:58:15Z</time></trkpt><trkpt lat="45.63950288200645" lon="11.36691209144351"><ele>288.0</ele><time>2026-04-10T13:58:16Z</time></trkpt><trkpt lat="45.639358351029315" lon="11.36714602339561"><ele>288.0</ele><time>2026-04-10T13:58:17Z</time></trkpt><trkpt lat="45.63922907166942" lon="11.367449332216395"><ele>289.0</ele><time>2026-04-10T13:58:18Z</time></trkpt><trkpt lat="45.63911592769338" lon="11.367826711671475"><ele>290.0</ele><time>2026-04-10T13:58:19Z</time></trkpt><trkpt lat="45.639018498667944" lon="11.36822607661854"><ele>286.33333333333337</ele><time>2026-04-10T13:58:20Z</time></trkpt><trkpt lat="45.638933554108824" lon="11.368561311231392"><ele>282.6666666666667</ele><time>2026-04-10T13:58:21Z</time></trkpt><trkpt lat="45.638870611734305" lon="11.368807659213857"><ele>279.0</ele><time>2026-04-10T13:58:22Z</time></trkpt><trkpt lat="45.6388116029818" lon="11.36901319168539"><ele>278.25</ele><time>2026-04-10T13:58:23Z</time></trkpt><trkpt lat="45.63876203405987" lon="11.369219150036272"><ele>277.5</ele><time>2026-04-10T13:58:24Z</time></trkpt><trkpt lat="45.63869991016276" lon="11.369397642857177"><ele>276.75</ele><time>2026-04-10T13:58:25Z</time></trkpt><trkpt lat="45.63861828964265" lon="11.369548939492583"><ele>276.0</ele><time>2026-04-10T13:58:26Z</time></trkpt><trkpt lat="45.638486807445844" lon="11.369649112826032"><ele>277.6666666666667</ele><time>2026-04-10T13:58:27Z</time></trkpt><trkpt lat="45.638366029428134" lon="11.369787804528515"><ele>279.33333333333337</ele><time>2026-04-10T13:58:28Z</time></trkpt><trkpt lat="45.63824902293873" lon="11.369952800790893"><ele>281.0</ele><time>2026-04-10T13:58:29Z</time></trkpt><trkpt lat="45.63813374765369" lon="11.370073756322224"><ele>281.0</ele><time>2026-04-10T13:58:30Z</time></trkpt><trkpt lat="45.63803882299918" lon="11.370188352818296"><ele>281.0</ele><time>2026-04-10T13:58:31Z</time></trkpt><trkpt lat="45.637940584556524" lon="11.370245456717862"><ele>281.0</ele><time>2026-04-10T13:58:32Z</time></trkpt><trkpt lat="45.63784609856352" lon="11.370246973470909"><ele>281.0</ele><time>2026-04-10T13:58:33Z</time></trkpt><trkpt lat="45.637740902530425" lon="11.370223886014932"><ele>281.0</ele><time>2026-04-10T13:58:34Z</time></trkpt><trkpt lat="45.63758469531899" lon="11.370216264202453"><ele>282.6666666666667</ele><time>2026-04-10T13:58:35Z</time></trkpt><trkpt lat="45.63739813447056" lon="11.370228553000242"><ele>284.3333333333333</ele><time>2026-04-10T13:58:36Z</time></trkpt><trkpt lat="45.637224746162886" lon="11.370187284861736"><ele>286.0</ele><time>2026-04-10T13:58:37Z</time></trkpt><trkpt lat="45.63705572806393" lon="11.370149453620392"><ele>286.66666666666663</ele><time>2026-04-10T13:58:37.999Z</time></trkpt><trkpt lat="45.636886898932886" lon="11.370091696250396"><ele>287.3333333333333</ele><time>2026-04-10T13:58:38.999Z</time></trkpt><trkpt lat="45.636720971860484" lon="11.37003408103877"><ele>288.0</ele><time>2026-04-10T13:58:39.999Z</time></trkpt><trkpt lat="45.636549849465894" lon="11.37002394844726"><ele>288.0</ele><time>2026-04-10T13:58:40.999Z</time></trkpt><trkpt lat="45.6363604219199" lon="11.370032459869993"><ele>288.0</ele><time>2026-04-10T13:58:41.999Z</time></trkpt><trkpt lat="45.63614693973569" lon="11.370084500330035"><ele>288.0</ele><time>2026-04-10T13:58:42.999Z</time></trkpt><trkpt lat="45.63599215296301" lon="11.370155903959681"><ele>287.3333333333333</ele><time>2026-04-10T13:58:43.999Z</time></trkpt><trkpt lat="45.635839103532696" lon="11.37018000690211"><ele>286.66666666666663</ele><time>2026-04-10T13:58:44.999Z</time></trkpt><trkpt lat="45.63569933543173" lon="11.370242069784299"><ele>286.0</ele><time>2026-04-10T13:58:45.999Z</time></trkpt><trkpt lat="45.63557034328143" lon="11.370378954702712"><ele>288.3333333333333</ele><time>2026-04-10T13:58:46.999Z</time></trkpt><trkpt lat="45.635471510985425" lon="11.370603825838785"><ele>290.6666666666667</ele><time>2026-04-10T13:58:47.999Z</time></trkpt><trkpt lat="45.635351718172416" lon="11.370816355818839"><ele>293.0</ele><time>2026-04-10T13:58:48.999Z</time></trkpt><trkpt lat="45.63527593850181" lon="11.371062888611743"><ele>293.0</ele><time>2026-04-10T13:58:49.999Z</time></trkpt><trkpt lat="45.63523208288028" lon="11.371297937733685"><ele>293.0</ele><time>2026-04-10T13:58:50.999Z</time></trkpt><trkpt lat="45.63519850869483" lon="11.371506136559239"><ele>293.0</ele><time>2026-04-10T13:58:51.999Z</time></trkpt><trkpt lat="45.63517129282905" lon="11.371673338542042"><ele>293.0</ele><time>2026-04-10T13:58:52.999Z</time></trkpt><trkpt lat="45.63512668963047" lon="11.371813071831744"><ele>288.25</ele><time>2026-04-10T13:58:53.999Z</time></trkpt><trkpt lat="45.63502623638558" lon="11.371899524132917"><ele>283.5</ele><time>2026-04-10T13:58:54.999Z</time></trkpt><trkpt lat="45.63491653838171" lon="11.372017699748294"><ele>278.75</ele><time>2026-04-10T13:58:55.999Z</time></trkpt><trkpt lat="45.63481015676969" lon="11.372142402157513"><ele>274.0</ele><time>2026-04-10T13:58:56.999Z</time></trkpt><trkpt lat="45.63471043472866" lon="11.372279470359448"><ele>267.25</ele><time>2026-04-10T13:58:57.999Z</time></trkpt><trkpt lat="45.63463569299913" lon="11.372435110498175"><ele>260.5</ele><time>2026-04-10T13:58:58.999Z</time></trkpt><trkpt lat="45.63460960372245" lon="11.372622866225205"><ele>253.75</ele><time>2026-04-10T13:58:59.999Z</time></trkpt><trkpt lat="45.63459329080139" lon="11.372808962869238"><ele>247.0</ele><time>2026-04-10T13:59:00.999Z</time></trkpt><trkpt lat="45.634637062012686" lon="11.372981608198087"><ele>246.5</ele><time>2026-04-10T13:59:01.999Z</time></trkpt><trkpt lat="45.634682106914674" lon="11.373154629157462"><ele>246.0</ele><time>2026-04-10T13:59:02.999Z</time></trkpt><trkpt lat="45.63472374112308" lon="11.373330594593572"><ele>245.5</ele><time>2026-04-10T13:59:03.999Z</time></trkpt><trkpt lat="45.63472573568716" lon="11.373461437892892"><ele>245.0</ele><time>2026-04-10T13:59:04.999Z</time></trkpt><trkpt lat="45.634736022451925" lon="11.373608084171227"><ele>245.0</ele><time>2026-04-10T13:59:06.999Z</time></trkpt><trkpt lat="45.6347224802552" lon="11.373700913834638"><ele>245.0</ele><time>2026-04-10T13:59:08.999Z</time></trkpt><trkpt lat="45.63454866755401" lon="11.373642316769898"><ele>245.0</ele><time>2026-04-10T13:59:09.999Z</time></trkpt><trkpt lat="45.63446008520995" lon="11.373619822018714"><ele>245.0</ele><time>2026-04-10T13:59:10.999Z</time></trkpt><trkpt lat="45.63435196612586" lon="11.373574708946299"><ele>245.0</ele><time>2026-04-10T13:59:11.999Z</time></trkpt><trkpt lat="45.63425546025096" lon="11.373523171061896"><ele>247.33333333333334</ele><time>2026-04-10T13:59:12.999Z</time></trkpt><trkpt lat="45.634156290098524" lon="11.373467671884388"><ele>249.66666666666669</ele><time>2026-04-10T13:59:13.999Z</time></trkpt><trkpt lat="45.63408366906614" lon="11.373450992210952"><ele>252.0</ele><time>2026-04-10T13:59:14.999Z</time></trkpt><trkpt lat="45.634021120831996" lon="11.373410133760066"><ele>254.33333333333331</ele><time>2026-04-10T13:59:15.999Z</time></trkpt><trkpt lat="45.63394510311076" lon="11.373369501852036"><ele>256.66666666666663</ele><time>2026-04-10T13:59:16.999Z</time></trkpt><trkpt lat="45.63386624165537" lon="11.373322522317805"><ele>259.0</ele><time>2026-04-10T13:59:17.999Z</time></trkpt><trkpt lat="45.63377936879112" lon="11.373271809644438"><ele>259.0</ele><time>2026-04-10T13:59:18.999Z</time></trkpt><trkpt lat="45.633682476582685" lon="11.373224695402543"><ele>259.0</ele><time>2026-04-10T13:59:19.999Z</time></trkpt><trkpt lat="45.633588884663766" lon="11.373166936573163"><ele>259.0</ele><time>2026-04-10T13:59:20.999Z</time></trkpt><trkpt lat="45.633481824398814" lon="11.373104458351522"><ele>259.0</ele><time>2026-04-10T13:59:21.999Z</time></trkpt><trkpt lat="45.63335828276737" lon="11.373038814181472"><ele>258.5</ele><time>2026-04-10T13:59:22.999Z</time></trkpt><trkpt lat="45.63324486554413" lon="11.372977763062654"><ele>258.0</ele><time>2026-04-10T13:59:23.999Z</time></trkpt><trkpt lat="45.63313088601107" lon="11.372907761070275"><ele>257.5</ele><time>2026-04-10T13:59:24.999Z</time></trkpt><trkpt lat="45.63301341204525" lon="11.372841970027956"><ele>257.0</ele><time>2026-04-10T13:59:25.999Z</time></trkpt><trkpt lat="45.6329013832954" lon="11.372775265715203"><ele>255.5</ele><time>2026-04-10T13:59:26.999Z</time></trkpt><trkpt lat="45.632786787060844" lon="11.3726971060069"><ele>254.0</ele><time>2026-04-10T13:59:27.999Z</time></trkpt><trkpt lat="45.63266979180026" lon="11.372616026388783"><ele>252.5</ele><time>2026-04-10T13:59:28.999Z</time></trkpt><trkpt lat="45.63255256513296" lon="11.3725342483761"><ele>251.0</ele><time>2026-04-10T13:59:29.999Z</time></trkpt><trkpt lat="45.63243999099992" lon="11.372464547180662"><ele>251.0</ele><time>2026-04-10T13:59:30.999Z</time></trkpt><trkpt lat="45.63231917840766" lon="11.3724119993905"><ele>251.0</ele><time>2026-04-10T13:59:31.999Z</time></trkpt><trkpt lat="45.63219013525388" lon="11.372385900573809"><ele>251.0</ele><time>2026-04-10T13:59:32.999Z</time></trkpt><trkpt lat="45.63206207299333" lon="11.372384845914281"><ele>251.0</ele><time>2026-04-10T13:59:33.999Z</time></trkpt><trkpt lat="45.631944428308" lon="11.372443705932694"><ele>250.75</ele><time>2026-04-10T13:59:34.999Z</time></trkpt><trkpt lat="45.631830175675766" lon="11.37253007148682"><ele>250.5</ele><time>2026-04-10T13:59:35.999Z</time></trkpt><trkpt lat="45.631726721323226" lon="11.372618095455994"><ele>250.25</ele><time>2026-04-10T13:59:36.999Z</time></trkpt><trkpt lat="45.631629830179435" lon="11.372740204908453"><ele>250.0</ele><time>2026-04-10T13:59:37.999Z</time></trkpt><trkpt lat="45.63153399757895" lon="11.37286455455879"><ele>250.0</ele><time>2026-04-10T13:59:38.999Z</time></trkpt><trkpt lat="45.631443477421755" lon="11.372970225850064"><ele>250.0</ele><time>2026-04-10T13:59:39.999Z</time></trkpt><trkpt lat="45.63135775987262" lon="11.373064798564062"><ele>250.0</ele><time>2026-04-10T13:59:40.999Z</time></trkpt><trkpt lat="45.63128731343537" lon="11.373149548009346"><ele>250.0</ele><time>2026-04-10T13:59:41.999Z</time></trkpt><trkpt lat="45.6312383747334" lon="11.37321459335937"><ele>250.0</ele><time>2026-04-10T13:59:42.999Z</time></trkpt><trkpt lat="45.63117594592059" lon="11.373267266886392"><ele>249.0</ele><time>2026-04-10T13:59:50.999Z</time></trkpt><trkpt lat="45.63128952156914" lon="11.373504274306368"><ele>248.0</ele><time>2026-04-10T13:59:53.999Z</time></trkpt><trkpt lat="45.63138150272607" lon="11.373573075503154"><ele>247.0</ele><time>2026-04-10T13:59:55Z</time></trkpt><trkpt lat="45.63147708804014" lon="11.373632242131343"><ele>246.0</ele><time>2026-04-10T13:59:56Z</time></trkpt><trkpt lat="45.63157893732405" lon="11.373696135283259"><ele>246.0</ele><time>2026-04-10T13:59:57Z</time></trkpt><trkpt lat="45.63168800954627" lon="11.373773189890343"><ele>246.0</ele><time>2026-04-10T13:59:58Z</time></trkpt><trkpt lat="45.63180028666466" lon="11.373855984647923"><ele>246.0</ele><time>2026-04-10T13:59:59Z</time></trkpt><trkpt lat="45.63190766108537" lon="11.373951489056351"><ele>246.0</ele><time>2026-04-10T14:00:00Z</time></trkpt><trkpt lat="45.632010957472204" lon="11.37406184618031"><ele>245.75</ele><time>2026-04-10T14:00:01Z</time></trkpt><trkpt lat="45.6321170859058" lon="11.374174237411085"><ele>245.5</ele><time>2026-04-10T14:00:02Z</time></trkpt><trkpt lat="45.632226939513544" lon="11.374283729171271"><ele>245.25</ele><time>2026-04-10T14:00:03Z</time></trkpt><trkpt lat="45.63233572272657" lon="11.374392809009617"><ele>245.0</ele><time>2026-04-10T14:00:04Z</time></trkpt><trkpt lat="45.632448681160874" lon="11.374504489364757"><ele>245.0</ele><time>2026-04-10T14:00:05Z</time></trkpt><trkpt lat="45.63254441205081" lon="11.374647918134603"><ele>245.0</ele><time>2026-04-10T14:00:06Z</time></trkpt><trkpt lat="45.63264295160511" lon="11.374777135479375"><ele>245.0</ele><time>2026-04-10T14:00:07Z</time></trkpt><trkpt lat="45.6327413187871" lon="11.374909502968551"><ele>245.0</ele><time>2026-04-10T14:00:08Z</time></trkpt><trkpt lat="45.63282005293291" lon="11.375070237186762"><ele>247.25</ele><time>2026-04-10T14:00:09Z</time></trkpt><trkpt lat="45.63286965008428" lon="11.375258270416035"><ele>249.5</ele><time>2026-04-10T14:00:10Z</time></trkpt><trkpt lat="45.632918202024264" lon="11.375440078690843"><ele>251.75</ele><time>2026-04-10T14:00:11Z</time></trkpt><trkpt lat="45.63296077430336" lon="11.37563439513161"><ele>254.0</ele><time>2026-04-10T14:00:12Z</time></trkpt><trkpt lat="45.63300440632234" lon="11.375840077255415"><ele>254.75</ele><time>2026-04-10T14:00:13Z</time></trkpt><trkpt lat="45.633044550509005" lon="11.376046675964654"><ele>255.5</ele><time>2026-04-10T14:00:14Z</time></trkpt><trkpt lat="45.633074136480225" lon="11.376249536264865"><ele>256.25</ele><time>2026-04-10T14:00:15Z</time></trkpt><trkpt lat="45.6330885256998" lon="11.376453750451915"><ele>257.0</ele><time>2026-04-10T14:00:16Z</time></trkpt><trkpt lat="45.6330684592662" lon="11.376655298468636"><ele>258.6666666666667</ele><time>2026-04-10T14:00:17Z</time></trkpt><trkpt lat="45.63304234698198" lon="11.37687285193482"><ele>260.3333333333333</ele><time>2026-04-10T14:00:18Z</time></trkpt><trkpt lat="45.633014116540465" lon="11.377111001007542"><ele>262.0</ele><time>2026-04-10T14:00:19Z</time></trkpt><trkpt lat="45.63298528000319" lon="11.377354263119145"><ele>266.3333333333333</ele><time>2026-04-10T14:00:20Z</time></trkpt><trkpt lat="45.63295319982817" lon="11.3776102139149"><ele>270.6666666666667</ele><time>2026-04-10T14:00:21Z</time></trkpt><trkpt lat="45.63292351027956" lon="11.377842269644058"><ele>275.0</ele><time>2026-04-10T14:00:22Z</time></trkpt><trkpt lat="45.63289269460157" lon="11.378093725530208"><ele>281.6666666666667</ele><time>2026-04-10T14:00:23Z</time></trkpt><trkpt lat="45.632860887808405" lon="11.378357177777913"><ele>288.3333333333333</ele><time>2026-04-10T14:00:24Z</time></trkpt><trkpt lat="45.63283296337029" lon="11.378612281764259"><ele>295.0</ele><time>2026-04-10T14:00:25Z</time></trkpt><trkpt lat="45.63280847321167" lon="11.37886748926827"><ele>286.66666666666663</ele><time>2026-04-10T14:00:26Z</time></trkpt><trkpt lat="45.63278677095444" lon="11.379120200682904"><ele>278.3333333333333</ele><time>2026-04-10T14:00:27Z</time></trkpt><trkpt lat="45.632779762320034" lon="11.379367262398583"><ele>270.0</ele><time>2026-04-10T14:00:28Z</time></trkpt><trkpt lat="45.6327611528837" lon="11.37961865734066"><ele>272.0</ele><time>2026-04-10T14:00:29Z</time></trkpt><trkpt lat="45.63274538639915" lon="11.379875987397993"><ele>274.0</ele><time>2026-04-10T14:00:30Z</time></trkpt><trkpt lat="45.63270168373964" lon="11.38013350359534"><ele>276.0</ele><time>2026-04-10T14:00:31Z</time></trkpt><trkpt lat="45.63264740513196" lon="11.380408379043164"><ele>279.3333333333333</ele><time>2026-04-10T14:00:32Z</time></trkpt><trkpt lat="45.63258768690358" lon="11.380687287028886"><ele>282.66666666666663</ele><time>2026-04-10T14:00:33Z</time></trkpt><trkpt lat="45.632535001247014" lon="11.38094868486994"><ele>286.0</ele><time>2026-04-10T14:00:34Z</time></trkpt><trkpt lat="45.63249575065096" lon="11.381223594350777"><ele>288.3333333333333</ele><time>2026-04-10T14:00:35Z</time></trkpt><trkpt lat="45.63243907177999" lon="11.381482984605864"><ele>290.6666666666667</ele><time>2026-04-10T14:00:36Z</time></trkpt><trkpt lat="45.632386292364714" lon="11.381723083517633"><ele>293.0</ele><time>2026-04-10T14:00:37Z</time></trkpt><trkpt lat="45.63230416873059" lon="11.381948375123965"><ele>293.0</ele><time>2026-04-10T14:00:38Z</time></trkpt><trkpt lat="45.63223377445119" lon="11.38215135613992"><ele>293.0</ele><time>2026-04-10T14:00:39Z</time></trkpt><trkpt lat="45.63219967753468" lon="11.38234756789123"><ele>293.0</ele><time>2026-04-10T14:00:40Z</time></trkpt><trkpt lat="45.63217360113241" lon="11.382546016697102"><ele>293.0</ele><time>2026-04-10T14:00:41Z</time></trkpt><trkpt lat="45.632150086107" lon="11.382745877685416"><ele>293.25</ele><time>2026-04-10T14:00:42Z</time></trkpt><trkpt lat="45.63207630470055" lon="11.38291677647558"><ele>293.5</ele><time>2026-04-10T14:00:43Z</time></trkpt><trkpt lat="45.63198933930354" lon="11.383075385432669"><ele>293.75</ele><time>2026-04-10T14:00:44Z</time></trkpt><trkpt lat="45.63191460804871" lon="11.383226545652914"><ele>294.0</ele><time>2026-04-10T14:00:45Z</time></trkpt><trkpt lat="45.63185065309555" lon="11.383380272266173"><ele>294.0</ele><time>2026-04-10T14:00:46Z</time></trkpt><trkpt lat="45.63179642889992" lon="11.383548436542547"><ele>294.0</ele><time>2026-04-10T14:00:47Z</time></trkpt><trkpt lat="45.63172958786567" lon="11.383700121274089"><ele>294.0</ele><time>2026-04-10T14:00:48Z</time></trkpt><trkpt lat="45.631661960615006" lon="11.383845630888999"><ele>294.0</ele><time>2026-04-10T14:00:49Z</time></trkpt><trkpt lat="45.63159276121033" lon="11.383969084941715"><ele>295.75</ele><time>2026-04-10T14:00:50Z</time></trkpt><trkpt lat="45.63150176714482" lon="11.384056344071466"><ele>297.5</ele><time>2026-04-10T14:00:51Z</time></trkpt><trkpt lat="45.6313846945987" lon="11.384109421805707"><ele>299.25</ele><time>2026-04-10T14:00:52Z</time></trkpt><trkpt lat="45.63125375034417" lon="11.384130273770413"><ele>301.0</ele><time>2026-04-10T14:00:53Z</time></trkpt><trkpt lat="45.631114309304486" lon="11.384174071702297"><ele>302.0</ele><time>2026-04-10T14:00:54Z</time></trkpt><trkpt lat="45.630982158154374" lon="11.38426897096241"><ele>303.0</ele><time>2026-04-10T14:00:54.999Z</time></trkpt><trkpt lat="45.63086952782193" lon="11.384391082690223"><ele>304.0</ele><time>2026-04-10T14:00:55.999Z</time></trkpt><trkpt lat="45.630762784507866" lon="11.384546250907354"><ele>305.0</ele><time>2026-04-10T14:00:56.999Z</time></trkpt><trkpt lat="45.630659177306775" lon="11.384715301600993"><ele>305.0</ele><time>2026-04-10T14:00:57.999Z</time></trkpt><trkpt lat="45.6305594496961" lon="11.384887992496218"><ele>305.0</ele><time>2026-04-10T14:00:58.999Z</time></trkpt><trkpt lat="45.630445707609574" lon="11.38504106876793"><ele>305.0</ele><time>2026-04-10T14:00:59.999Z</time></trkpt><trkpt lat="45.63032165308313" lon="11.385177366881084"><ele>315.33333333333337</ele><time>2026-04-10T14:01:00.999Z</time></trkpt><trkpt lat="45.630208097271435" lon="11.385319377664858"><ele>325.6666666666667</ele><time>2026-04-10T14:01:01.999Z</time></trkpt><trkpt lat="45.63012198318009" lon="11.385495335028736"><ele>336.0</ele><time>2026-04-10T14:01:02.999Z</time></trkpt><trkpt lat="45.630061339718885" lon="11.38571531747392"><ele>336.0</ele><time>2026-04-10T14:01:03.999Z</time></trkpt><trkpt lat="45.62999873851257" lon="11.385937554007795"><ele>336.0</ele><time>2026-04-10T14:01:04.999Z</time></trkpt><trkpt lat="45.629910076513376" lon="11.386126745993899"><ele>336.0</ele><time>2026-04-10T14:01:05.999Z</time></trkpt><trkpt lat="45.629825253557726" lon="11.386332180398608"><ele>328.3333333333333</ele><time>2026-04-10T14:01:06.999Z</time></trkpt><trkpt lat="45.629734849841924" lon="11.386535668073263"><ele>320.66666666666663</ele><time>2026-04-10T14:01:07.999Z</time></trkpt><trkpt lat="45.629623942651754" lon="11.386706912484907"><ele>313.0</ele><time>2026-04-10T14:01:08.999Z</time></trkpt><trkpt lat="45.629500979543344" lon="11.386869816462067"><ele>318.3333333333333</ele><time>2026-04-10T14:01:09.999Z</time></trkpt><trkpt lat="45.62937991662294" lon="11.387024517161407"><ele>323.6666666666667</ele><time>2026-04-10T14:01:10.999Z</time></trkpt><trkpt lat="45.62925522294551" lon="11.387170236631356"><ele>329.0</ele><time>2026-04-10T14:01:11.999Z</time></trkpt><trkpt lat="45.62910977695879" lon="11.387288064737255"><ele>329.0</ele><time>2026-04-10T14:01:12.999Z</time></trkpt><trkpt lat="45.628948608948015" lon="11.387401085107468"><ele>329.0</ele><time>2026-04-10T14:01:13.999Z</time></trkpt><trkpt lat="45.628795445108466" lon="11.387518475531506"><ele>329.0</ele><time>2026-04-10T14:01:14.999Z</time></trkpt><trkpt lat="45.6286502560564" lon="11.387634353966677"><ele>338.6666666666667</ele><time>2026-04-10T14:01:15.999Z</time></trkpt><trkpt lat="45.62850805778891" lon="11.387745821987407"><ele>348.3333333333333</ele><time>2026-04-10T14:01:16.999Z</time></trkpt><trkpt lat="45.6283597440764" lon="11.387809250855806"><ele>358.0</ele><time>2026-04-10T14:01:17.999Z</time></trkpt><trkpt lat="45.628197853721375" lon="11.387858345372651"><ele>358.0</ele><time>2026-04-10T14:01:18.999Z</time></trkpt><trkpt lat="45.62802619613769" lon="11.387900889865541"><ele>358.0</ele><time>2026-04-10T14:01:19.999Z</time></trkpt><trkpt lat="45.62785878993003" lon="11.387941820293225"><ele>358.0</ele><time>2026-04-10T14:01:20.999Z</time></trkpt><trkpt lat="45.62771283048666" lon="11.387992483352374"><ele>356.25</ele><time>2026-04-10T14:01:21.999Z</time></trkpt><trkpt lat="45.62759536892306" lon="11.38807123291784"><ele>354.5</ele><time>2026-04-10T14:01:22.999Z</time></trkpt><trkpt lat="45.62747848513448" lon="11.388150651689198"><ele>352.75</ele><time>2026-04-10T14:01:23.999Z</time></trkpt><trkpt lat="45.62735868974269" lon="11.388269804520935"><ele>351.0</ele><time>2026-04-10T14:01:24.999Z</time></trkpt><trkpt lat="45.627248624476046" lon="11.388421526071664"><ele>351.0</ele><time>2026-04-10T14:01:25.999Z</time></trkpt><trkpt lat="45.6271423940665" lon="11.388565415028452"><ele>351.0</ele><time>2026-04-10T14:01:26.999Z</time></trkpt><trkpt lat="45.62704017468309" lon="11.388698363608253"><ele>351.0</ele><time>2026-04-10T14:01:27.999Z</time></trkpt><trkpt lat="45.626949739536755" lon="11.388815960463859"><ele>351.0</ele><time>2026-04-10T14:01:28.999Z</time></trkpt><trkpt lat="45.62686319166464" lon="11.38889822770662"><ele>348.5</ele><time>2026-04-10T14:01:29.999Z</time></trkpt><trkpt lat="45.62677137620611" lon="11.38895808716546"><ele>346.0</ele><time>2026-04-10T14:01:30.999Z</time></trkpt><trkpt lat="45.62666301592917" lon="11.388913120846349"><ele>343.5</ele><time>2026-04-10T14:01:31.999Z</time></trkpt><trkpt lat="45.62652430991964" lon="11.38889689292521"><ele>341.0</ele><time>2026-04-10T14:01:32.999Z</time></trkpt><trkpt lat="45.62637640750168" lon="11.388877190406618"><ele>341.0</ele><time>2026-04-10T14:01:33.999Z</time></trkpt><trkpt lat="45.62622830068431" lon="11.388859461749533"><ele>341.0</ele><time>2026-04-10T14:01:34.999Z</time></trkpt><trkpt lat="45.62609383592436" lon="11.388852516865631"><ele>341.0</ele><time>2026-04-10T14:01:35.999Z</time></trkpt><trkpt lat="45.62595580918832" lon="11.388831699478185"><ele>341.0</ele><time>2026-04-10T14:01:36.999Z</time></trkpt><trkpt lat="45.625820776259204" lon="11.388798369535651"><ele>354.33333333333337</ele><time>2026-04-10T14:01:37.999Z</time></trkpt><trkpt lat="45.62567275737251" lon="11.38874727729326"><ele>367.6666666666667</ele><time>2026-04-10T14:01:38.999Z</time></trkpt><trkpt lat="45.625526593250534" lon="11.388683568071338"><ele>381.0</ele><time>2026-04-10T14:01:39.999Z</time></trkpt><trkpt lat="45.62537976594574" lon="11.38862263150084"><ele>381.25</ele><time>2026-04-10T14:01:40.999Z</time></trkpt><trkpt lat="45.62523955644543" lon="11.388576615872728"><ele>381.5</ele><time>2026-04-10T14:01:41.999Z</time></trkpt><trkpt lat="45.62508697446585" lon="11.388559626974534"><ele>381.75</ele><time>2026-04-10T14:01:42.999Z</time></trkpt><trkpt lat="45.624983050827396" lon="11.388606378034321"><ele>382.0</ele><time>2026-04-10T14:01:43.999Z</time></trkpt><trkpt lat="45.6248578630352" lon="11.388685091581959"><ele>382.0</ele><time>2026-04-10T14:01:44.999Z</time></trkpt><trkpt lat="45.62473627596845" lon="11.388769769479584"><ele>382.0</ele><time>2026-04-10T14:01:45.999Z</time></trkpt><trkpt lat="45.624613439206605" lon="11.388880823494462"><ele>382.0</ele><time>2026-04-10T14:01:46.999Z</time></trkpt><trkpt lat="45.62449682110958" lon="11.388983953939784"><ele>382.0</ele><time>2026-04-10T14:01:47.999Z</time></trkpt><trkpt lat="45.624378698079795" lon="11.389092544039341"><ele>381.5</ele><time>2026-04-10T14:01:48.999Z</time></trkpt><trkpt lat="45.62426752796755" lon="11.389211582061755"><ele>381.0</ele><time>2026-04-10T14:01:49.999Z</time></trkpt><trkpt lat="45.62415911687526" lon="11.389352912389016"><ele>380.5</ele><time>2026-04-10T14:01:50.999Z</time></trkpt><trkpt lat="45.62404968894492" lon="11.389518819718594"><ele>380.0</ele><time>2026-04-10T14:01:51.999Z</time></trkpt><trkpt lat="45.62393439531695" lon="11.389689317499794"><ele>371.0</ele><time>2026-04-10T14:01:52.999Z</time></trkpt><trkpt lat="45.62381895734912" lon="11.389847829946422"><ele>362.0</ele><time>2026-04-10T14:01:53.999Z</time></trkpt><trkpt lat="45.623703092198596" lon="11.390002350163556"><ele>353.0</ele><time>2026-04-10T14:01:54.999Z</time></trkpt><trkpt lat="45.62359016549589" lon="11.390154581751966"><ele>362.5</ele><time>2026-04-10T14:01:55.999Z</time></trkpt><trkpt lat="45.62349219704512" lon="11.390311796970167"><ele>372.0</ele><time>2026-04-10T14:01:56.999Z</time></trkpt><trkpt lat="45.62341205516934" lon="11.39048480015037"><ele>381.5</ele><time>2026-04-10T14:01:57.999Z</time></trkpt><trkpt lat="45.623358008615575" lon="11.390689711393344"><ele>391.0</ele><time>2026-04-10T14:01:58.999Z</time></trkpt><trkpt lat="45.623330074846564" lon="11.390905927614657"><ele>391.0</ele><time>2026-04-10T14:02:00Z</time></trkpt><trkpt lat="45.623321385133615" lon="11.391126442042555"><ele>391.0</ele><time>2026-04-10T14:02:01Z</time></trkpt><trkpt lat="45.62332088468481" lon="11.391338997313268"><ele>391.0</ele><time>2026-04-10T14:02:02Z</time></trkpt><trkpt lat="45.62331199131415" lon="11.391530731341389"><ele>391.0</ele><time>2026-04-10T14:02:03Z</time></trkpt><trkpt lat="45.62324345353273" lon="11.39167783066565"><ele>386.75</ele><time>2026-04-10T14:02:04Z</time></trkpt><trkpt lat="45.623161756514705" lon="11.391805323913877"><ele>382.5</ele><time>2026-04-10T14:02:05Z</time></trkpt><trkpt lat="45.623061039667746" lon="11.391926752400058"><ele>378.25</ele><time>2026-04-10T14:02:06Z</time></trkpt><trkpt lat="45.6229390694204" lon="11.39204409325742"><ele>374.0</ele><time>2026-04-10T14:02:07Z</time></trkpt><trkpt lat="45.622791888254646" lon="11.39217021540731"><ele>377.33333333333337</ele><time>2026-04-10T14:02:08Z</time></trkpt><trkpt lat="45.62263436808528" lon="11.392316536093427"><ele>380.6666666666667</ele><time>2026-04-10T14:02:09Z</time></trkpt><trkpt lat="45.62246665113426" lon="11.3924407940901"><ele>384.0</ele><time>2026-04-10T14:02:10Z</time></trkpt><trkpt lat="45.62229734934697" lon="11.392543169147366"><ele>384.0</ele><time>2026-04-10T14:02:11Z</time></trkpt><trkpt lat="45.62212377851809" lon="11.392641236304296"><ele>384.0</ele><time>2026-04-10T14:02:12Z</time></trkpt><trkpt lat="45.621968104622844" lon="11.392750705235393"><ele>384.0</ele><time>2026-04-10T14:02:13Z</time></trkpt><trkpt lat="45.62184720113276" lon="11.392847227027485"><ele>390.75</ele><time>2026-04-10T14:02:14Z</time></trkpt><trkpt lat="45.6217278506119" lon="11.39288544843104"><ele>397.5</ele><time>2026-04-10T14:02:15Z</time></trkpt><trkpt lat="45.62158674122991" lon="11.392901202291975"><ele>404.25</ele><time>2026-04-10T14:02:16Z</time></trkpt><trkpt lat="45.6214197112326" lon="11.392902915394306"><ele>411.0</ele><time>2026-04-10T14:02:17Z</time></trkpt><trkpt lat="45.62124947463849" lon="11.392908767680947"><ele>415.0</ele><time>2026-04-10T14:02:18Z</time></trkpt><trkpt lat="45.62106741960117" lon="11.392927853112072"><ele>419.0</ele><time>2026-04-10T14:02:19Z</time></trkpt><trkpt lat="45.620891810069246" lon="11.392958509238266"><ele>423.0</ele><time>2026-04-10T14:02:20Z</time></trkpt><trkpt lat="45.62069927765042" lon="11.392987625879861"><ele>417.0</ele><time>2026-04-10T14:02:21Z</time></trkpt><trkpt lat="45.620511260669204" lon="11.393009781812024"><ele>411.0</ele><time>2026-04-10T14:02:22Z</time></trkpt><trkpt lat="45.62035047050296" lon="11.393053131530715"><ele>405.0</ele><time>2026-04-10T14:02:23Z</time></trkpt><trkpt lat="45.62018398472453" lon="11.393096239269514"><ele>405.0</ele><time>2026-04-10T14:02:24Z</time></trkpt><trkpt lat="45.62001739817491" lon="11.393180136086036"><ele>405.0</ele><time>2026-04-10T14:02:25Z</time></trkpt><trkpt lat="45.61985615927691" lon="11.393311982306509"><ele>405.0</ele><time>2026-04-10T14:02:26Z</time></trkpt><trkpt lat="45.61969556512484" lon="11.393484987166248"><ele>405.0</ele><time>2026-04-10T14:02:27Z</time></trkpt><trkpt lat="45.61954142521578" lon="11.393677837303096"><ele>405.0</ele><time>2026-04-10T14:02:28Z</time></trkpt><trkpt lat="45.61939111237237" lon="11.393873628847523"><ele>405.0</ele><time>2026-04-10T14:02:29Z</time></trkpt><trkpt lat="45.61924615381828" lon="11.394049522866958"><ele>405.33333333333337</ele><time>2026-04-10T14:02:30Z</time></trkpt><trkpt lat="45.61911445614048" lon="11.394180936819156"><ele>405.6666666666667</ele><time>2026-04-10T14:02:31Z</time></trkpt><trkpt lat="45.61898749879084" lon="11.39430495036485"><ele>406.0</ele><time>2026-04-10T14:02:32Z</time></trkpt><trkpt lat="45.61884941144378" lon="11.394376349799971"><ele>406.00000000000006</ele><time>2026-04-10T14:02:33Z</time></trkpt><trkpt lat="45.61873668582454" lon="11.394443340672094"><ele>406.0</ele><time>2026-04-10T14:02:34Z</time></trkpt><trkpt lat="45.618648304699626" lon="11.394495604968235"><ele>406.0</ele><time>2026-04-10T14:02:35Z</time></trkpt><trkpt lat="45.618582832866004" lon="11.39452986591454"><ele>406.0</ele><time>2026-04-10T14:02:36Z</time></trkpt><trkpt lat="45.61851924916613" lon="11.394581669016992"><ele>406.00000000000006</ele><time>2026-04-10T14:02:38Z</time></trkpt><trkpt lat="45.61857979927309" lon="11.394491135619194"><ele>406.0</ele><time>2026-04-10T14:02:42Z</time></trkpt><trkpt lat="45.61854488515381" lon="11.394353902286399"><ele>406.00000000000006</ele><time>2026-04-10T14:02:43Z</time></trkpt><trkpt lat="45.618579326764944" lon="11.394228850892596"><ele>406.0</ele><time>2026-04-10T14:02:45Z</time></trkpt><trkpt lat="45.618609724976935" lon="11.394126293064781"><ele>406.0</ele><time>2026-04-10T14:02:47Z</time></trkpt><trkpt lat="45.61863260607971" lon="11.394028732178448"><ele>406.0</ele><time>2026-04-10T14:02:50Z</time></trkpt><trkpt lat="45.61860668406822" lon="11.393859797081666"><ele>406.00000000000006</ele><time>2026-04-10T14:03:42.999Z</time></trkpt><trkpt lat="45.6185909614165" lon="11.393770814950097"><ele>406.0</ele><time>2026-04-10T14:03:43.999Z</time></trkpt><trkpt lat="45.618567154630895" lon="11.393661841883793"><ele>404.6666666666667</ele><time>2026-04-10T14:03:44.999Z</time></trkpt><trkpt lat="45.6185582081211" lon="11.393523726426801"><ele>403.33333333333337</ele><time>2026-04-10T14:03:45.999Z</time></trkpt><trkpt lat="45.61855627621317" lon="11.393407999289806"><ele>402.0</ele><time>2026-04-10T14:03:46.999Z</time></trkpt><trkpt lat="45.61854340381191" lon="11.393299141178282"><ele>400.66666666666663</ele><time>2026-04-10T14:03:47.999Z</time></trkpt><trkpt lat="45.61853284809963" lon="11.393194311537"><ele>399.3333333333333</ele><time>2026-04-10T14:03:48.999Z</time></trkpt><trkpt lat="45.61852502967745" lon="11.393094623462972"><ele>398.0</ele><time>2026-04-10T14:03:49.999Z</time></trkpt><trkpt lat="45.61854401131195" lon="11.39300653401471"><ele>400.0</ele><time>2026-04-10T14:03:50.999Z</time></trkpt><trkpt lat="45.61861604575679" lon="11.392955795103703"><ele>402.0</ele><time>2026-04-10T14:03:51.999Z</time></trkpt><trkpt lat="45.618688015696684" lon="11.392876233766998"><ele>404.0</ele><time>2026-04-10T14:03:52.999Z</time></trkpt><trkpt lat="45.61875934492069" lon="11.39276461267246"><ele>406.0</ele><time>2026-04-10T14:03:53.999Z</time></trkpt><trkpt lat="45.61884428970046" lon="11.392661768681432"><ele>408.0</ele><time>2026-04-10T14:03:54.999Z</time></trkpt><trkpt lat="45.618908986620056" lon="11.392554362019911"><ele>408.0</ele><time>2026-04-10T14:03:55.999Z</time></trkpt><trkpt lat="45.61895069502402" lon="11.39241200013282"><ele>408.0</ele><time>2026-04-10T14:03:56.999Z</time></trkpt><trkpt lat="45.618951079849474" lon="11.39223845213936"><ele>408.0</ele><time>2026-04-10T14:03:57.999Z</time></trkpt><trkpt lat="45.61894008013475" lon="11.392040650864883"><ele>408.0</ele><time>2026-04-10T14:03:58.999Z</time></trkpt><trkpt lat="45.61891821023649" lon="11.391861302726815"><ele>409.0</ele><time>2026-04-10T14:03:59.999Z</time></trkpt><trkpt lat="45.618898515719856" lon="11.391689907761569"><ele>410.0</ele><time>2026-04-10T14:04:00.999Z</time></trkpt><trkpt lat="45.61884941573446" lon="11.391537890819441"><ele>411.0</ele><time>2026-04-10T14:04:01.999Z</time></trkpt><trkpt lat="45.61876604598292" lon="11.391404061896392"><ele>412.0</ele><time>2026-04-10T14:04:02.999Z</time></trkpt><trkpt lat="45.618678749999695" lon="11.3912917611872"><ele>407.20000000000005</ele><time>2026-04-10T14:04:03.999Z</time></trkpt><trkpt lat="45.61860314218679" lon="11.391179240985863"><ele>402.4</ele><time>2026-04-10T14:04:05.001Z</time></trkpt><trkpt lat="45.6185300962397" lon="11.391066446539453"><ele>397.6</ele><time>2026-04-10T14:04:06.001Z</time></trkpt><trkpt lat="45.61846101994858" lon="11.390965099537501"><ele>392.79999999999995</ele><time>2026-04-10T14:04:07.001Z</time></trkpt><trkpt lat="45.618393416052776" lon="11.390863266696178"><ele>388.0</ele><time>2026-04-10T14:04:08.001Z</time></trkpt><trkpt lat="45.61833174643258" lon="11.390757667841248"><ele>388.0</ele><time>2026-04-10T14:04:09.001Z</time></trkpt><trkpt lat="45.61827352388143" lon="11.390645977770648"><ele>388.0</ele><time>2026-04-10T14:04:10.001Z</time></trkpt><trkpt lat="45.6182528047863" lon="11.39050466131254"><ele>388.0</ele><time>2026-04-10T14:04:11Z</time></trkpt><trkpt lat="45.61823190760417" lon="11.390383074191655"><ele>388.0</ele><time>2026-04-10T14:04:12Z</time></trkpt><trkpt lat="45.618223170521695" lon="11.390257477831716"><ele>388.0</ele><time>2026-04-10T14:04:13Z</time></trkpt><trkpt lat="45.61821526530573" lon="11.390137381176714"><ele>389.1666666666667</ele><time>2026-04-10T14:04:14Z</time></trkpt><trkpt lat="45.61819189329675" lon="11.390043611457903"><ele>390.33333333333337</ele><time>2026-04-10T14:04:15Z</time></trkpt><trkpt lat="45.61815619759968" lon="11.38991270570513"><ele>391.5</ele><time>2026-04-10T14:04:17Z</time></trkpt><trkpt lat="45.61809031835958" lon="11.389941038471227"><ele>392.66666666666663</ele><time>2026-04-10T14:04:18Z</time></trkpt><trkpt lat="45.618015074187284" lon="11.39003161128264"><ele>393.8333333333333</ele><time>2026-04-10T14:04:19Z</time></trkpt><trkpt lat="45.61794676058617" lon="11.390156266445581"><ele>395.0</ele><time>2026-04-10T14:04:20Z</time></trkpt><trkpt lat="45.61789167105227" lon="11.39030181644485"><ele>395.0</ele><time>2026-04-10T14:04:21Z</time></trkpt><trkpt lat="45.617848350558255" lon="11.390456781385812"><ele>395.0</ele><time>2026-04-10T14:04:22Z</time></trkpt><trkpt lat="45.61782014593523" lon="11.390609313044937"><ele>395.0</ele><time>2026-04-10T14:04:23Z</time></trkpt><trkpt lat="45.61780558692003" lon="11.39076368725462"><ele>395.0</ele><time>2026-04-10T14:04:24Z</time></trkpt><trkpt lat="45.61779060382201" lon="11.390900821084285"><ele>395.0</ele><time>2026-04-10T14:04:25Z</time></trkpt><trkpt lat="45.61777911717345" lon="11.391028272592441"><ele>393.6</ele><time>2026-04-10T14:04:26Z</time></trkpt><trkpt lat="45.61779974262832" lon="11.391158918467305"><ele>392.2</ele><time>2026-04-10T14:04:27Z</time></trkpt><trkpt lat="45.617822684522636" lon="11.391271519098984"><ele>390.79999999999995</ele><time>2026-04-10T14:04:28Z</time></trkpt><trkpt lat="45.61794088017452" lon="11.391353175957013"><ele>389.4</ele><time>2026-04-10T14:04:29Z</time></trkpt><trkpt lat="45.618029657232256" lon="11.391464341260688"><ele>388.0</ele><time>2026-04-10T14:04:30Z</time></trkpt><trkpt lat="45.618121722343005" lon="11.391575542240115"><ele>386.79999999999995</ele><time>2026-04-10T14:04:31Z</time></trkpt><trkpt lat="45.61818494564185" lon="11.391725702420635"><ele>385.6</ele><time>2026-04-10T14:04:32Z</time></trkpt><trkpt lat="45.61821964877211" lon="11.3918804778021"><ele>384.4</ele><time>2026-04-10T14:04:33Z</time></trkpt><trkpt lat="45.61821084348598" lon="11.392034261848504"><ele>383.20000000000005</ele><time>2026-04-10T14:04:34Z</time></trkpt><trkpt lat="45.618193470243845" lon="11.392155211658592"><ele>382.0</ele><time>2026-04-10T14:04:35Z</time></trkpt><trkpt lat="45.618120785961196" lon="11.392230671470262"><ele>382.0</ele><time>2026-04-10T14:04:36Z</time></trkpt><trkpt lat="45.618037951587894" lon="11.392265504416265"><ele>382.0</ele><time>2026-04-10T14:04:37Z</time></trkpt><trkpt lat="45.61794030256363" lon="11.392221919434332"><ele>382.0</ele><time>2026-04-10T14:04:38Z</time></trkpt><trkpt lat="45.61783900795626" lon="11.392237252792084"><ele>382.0</ele><time>2026-04-10T14:04:39Z</time></trkpt><trkpt lat="45.61775942116475" lon="11.392300087301134"><ele>382.0</ele><time>2026-04-10T14:04:40Z</time></trkpt><trkpt lat="45.61766008245932" lon="11.392430763304285"><ele>377.5</ele><time>2026-04-10T14:04:41Z</time></trkpt><trkpt lat="45.6175740380893" lon="11.392564091161567"><ele>373.0</ele><time>2026-04-10T14:04:42Z</time></trkpt><trkpt lat="45.61752924781087" lon="11.392705856235775"><ele>368.5</ele><time>2026-04-10T14:04:43Z</time></trkpt><trkpt lat="45.61752740988" lon="11.392893128990684"><ele>364.0</ele><time>2026-04-10T14:04:44Z</time></trkpt><trkpt lat="45.61754753992977" lon="11.393049815157182"><ele>364.0</ele><time>2026-04-10T14:04:45Z</time></trkpt><trkpt lat="45.61750851896904" lon="11.393187929954886"><ele>364.0</ele><time>2026-04-10T14:04:46Z</time></trkpt><trkpt lat="45.61741825721333" lon="11.393254648961324"><ele>364.0</ele><time>2026-04-10T14:04:47Z</time></trkpt><trkpt lat="45.617315636421985" lon="11.393230133824954"><ele>364.0</ele><time>2026-04-10T14:04:48Z</time></trkpt><trkpt lat="45.61722614109674" lon="11.393243858720634"><ele>364.0</ele><time>2026-04-10T14:04:49Z</time></trkpt><trkpt lat="45.61711689116718" lon="11.393273462521146"><ele>364.0</ele><time>2026-04-10T14:04:50Z</time></trkpt><trkpt lat="45.61700050784887" lon="11.393340723702911"><ele>364.0</ele><time>2026-04-10T14:04:51Z</time></trkpt><trkpt lat="45.61690108555458" lon="11.393439692573274"><ele>364.0</ele><time>2026-04-10T14:04:52Z</time></trkpt><trkpt lat="45.61680304567278" lon="11.393517489185713"><ele>364.0</ele><time>2026-04-10T14:04:53Z</time></trkpt><trkpt lat="45.6166942663005" lon="11.39356660136876"><ele>360.0</ele><time>2026-04-10T14:04:54Z</time></trkpt><trkpt lat="45.61659846843471" lon="11.393572381583759"><ele>356.0</ele><time>2026-04-10T14:04:55Z</time></trkpt><trkpt lat="45.61655735911194" lon="11.393466335603257"><ele>352.0</ele><time>2026-04-10T14:04:56Z</time></trkpt><trkpt lat="45.616472438376995" lon="11.393374598619346"><ele>348.0</ele><time>2026-04-10T14:04:57Z</time></trkpt><trkpt lat="45.61633890332167" lon="11.393286443613249"><ele>344.0</ele><time>2026-04-10T14:04:58Z</time></trkpt><trkpt lat="45.61620300978034" lon="11.393268735289523"><ele>341.5</ele><time>2026-04-10T14:04:59Z</time></trkpt><trkpt lat="45.616091307440776" lon="11.393256209939148"><ele>339.0</ele><time>2026-04-10T14:05:00Z</time></trkpt><trkpt lat="45.615946403735464" lon="11.393304386270588"><ele>336.5</ele><time>2026-04-10T14:05:01Z</time></trkpt><trkpt lat="45.615825266593134" lon="11.393343654092794"><ele>334.0</ele><time>2026-04-10T14:05:02Z</time></trkpt><trkpt lat="45.61567414345749" lon="11.393393309595806"><ele>334.0</ele><time>2026-04-10T14:05:03Z</time></trkpt><trkpt lat="45.61558029578397" lon="11.393479200424038"><ele>334.0</ele><time>2026-04-10T14:05:04Z</time></trkpt><trkpt lat="45.615498414773874" lon="11.393590363802828"><ele>334.0</ele><time>2026-04-10T14:05:05Z</time></trkpt><trkpt lat="45.615424096086365" lon="11.393722412795517"><ele>334.0</ele><time>2026-04-10T14:05:06Z</time></trkpt><trkpt lat="45.61535509606379" lon="11.393872578324604"><ele>334.75</ele><time>2026-04-10T14:05:07Z</time></trkpt><trkpt lat="45.61527871982152" lon="11.39401518140024"><ele>335.5</ele><time>2026-04-10T14:05:08Z</time></trkpt><trkpt lat="45.6152224568217" lon="11.394172938200425"><ele>336.25</ele><time>2026-04-10T14:05:09Z</time></trkpt><trkpt lat="45.61516941410595" lon="11.394311386972316"><ele>337.0</ele><time>2026-04-10T14:05:10Z</time></trkpt><trkpt lat="45.61510371937563" lon="11.394403215150534"><ele>337.0</ele><time>2026-04-10T14:05:11Z</time></trkpt><trkpt lat="45.61502745385397" lon="11.39443003922059"><ele>337.0</ele><time>2026-04-10T14:05:12Z</time></trkpt><trkpt lat="45.61495847669895" lon="11.394345930011294"><ele>337.0</ele><time>2026-04-10T14:05:13Z</time></trkpt><trkpt lat="45.6149066734442" lon="11.394180940145832"><ele>337.0</ele><time>2026-04-10T14:05:14Z</time></trkpt><trkpt lat="45.61480402995976" lon="11.394091668388386"><ele>337.0</ele><time>2026-04-10T14:05:15Z</time></trkpt><trkpt lat="45.6147000510616" lon="11.3940214912654"><ele>337.0</ele><time>2026-04-10T14:05:16Z</time></trkpt><trkpt lat="45.61457863369363" lon="11.39402232435925"><ele>337.0</ele><time>2026-04-10T14:05:17Z</time></trkpt><trkpt lat="45.61444102014608" lon="11.39408170342999"><ele>337.0</ele><time>2026-04-10T14:05:18Z</time></trkpt><trkpt lat="45.61430583683425" lon="11.394137148002144"><ele>337.0</ele><time>2026-04-10T14:05:19Z</time></trkpt><trkpt lat="45.61421525110304" lon="11.394144013322036"><ele>336.5</ele><time>2026-04-10T14:05:20Z</time></trkpt><trkpt lat="45.61412553711713" lon="11.394144199964217"><ele>336.0</ele><time>2026-04-10T14:05:21Z</time></trkpt><trkpt lat="45.61408614539677" lon="11.394024907771106"><ele>335.5</ele><time>2026-04-10T14:05:22Z</time></trkpt><trkpt lat="45.61398770877059" lon="11.393878674545212"><ele>335.0</ele><time>2026-04-10T14:05:23Z</time></trkpt><trkpt lat="45.61388562094465" lon="11.393734241000868"><ele>331.0</ele><time>2026-04-10T14:05:24Z</time></trkpt><trkpt lat="45.61379646408381" lon="11.393590886577146"><ele>327.0</ele><time>2026-04-10T14:05:25Z</time></trkpt><trkpt lat="45.61374490831352" lon="11.393469709926567"><ele>323.0</ele><time>2026-04-10T14:05:26Z</time></trkpt><trkpt lat="45.61370519740744" lon="11.393309801017839"><ele>319.0</ele><time>2026-04-10T14:05:27Z</time></trkpt><trkpt lat="45.61368183733751" lon="11.3931418271732"><ele>315.25</ele><time>2026-04-10T14:05:28Z</time></trkpt><trkpt lat="45.613669977782244" lon="11.392947682339416"><ele>311.5</ele><time>2026-04-10T14:05:29Z</time></trkpt><trkpt lat="45.613658681493995" lon="11.392737697364078"><ele>307.75</ele><time>2026-04-10T14:05:30Z</time></trkpt><trkpt lat="45.61364972744272" lon="11.392557520755968"><ele>304.0</ele><time>2026-04-10T14:05:31Z</time></trkpt><trkpt lat="45.61363242624924" lon="11.39238886227442"><ele>306.75</ele><time>2026-04-10T14:05:32Z</time></trkpt><trkpt lat="45.61361281582413" lon="11.392224788930148"><ele>309.5</ele><time>2026-04-10T14:05:33Z</time></trkpt><trkpt lat="45.61355775887513" lon="11.392071999007928"><ele>312.25</ele><time>2026-04-10T14:05:34Z</time></trkpt><trkpt lat="45.61345541291715" lon="11.391927401455689"><ele>315.0</ele><time>2026-04-10T14:05:34.999Z</time></trkpt><trkpt lat="45.613339110611015" lon="11.391809473947053"><ele>315.0</ele><time>2026-04-10T14:05:35.999Z</time></trkpt><trkpt lat="45.61322651749337" lon="11.391693362454255"><ele>315.0</ele><time>2026-04-10T14:05:36.999Z</time></trkpt><trkpt lat="45.61310488963806" lon="11.391556917325216"><ele>315.0</ele><time>2026-04-10T14:05:37.999Z</time></trkpt><trkpt lat="45.61296965259704" lon="11.391411138073659"><ele>313.0</ele><time>2026-04-10T14:05:38.999Z</time></trkpt><trkpt lat="45.61285567587584" lon="11.39125485414189"><ele>311.0</ele><time>2026-04-10T14:05:39.999Z</time></trkpt><trkpt lat="45.61274436962147" lon="11.391107345970685"><ele>309.0</ele><time>2026-04-10T14:05:40.999Z</time></trkpt><trkpt lat="45.612650982721085" lon="11.390944667049165"><ele>309.0</ele><time>2026-04-10T14:05:41.999Z</time></trkpt><trkpt lat="45.612558707105826" lon="11.390784884972883"><ele>309.0</ele><time>2026-04-10T14:05:42.999Z</time></trkpt><trkpt lat="45.61253735937837" lon="11.390580112246834"><ele>309.0</ele><time>2026-04-10T14:05:43.999Z</time></trkpt><trkpt lat="45.61250704255314" lon="11.390371954358216"><ele>309.0</ele><time>2026-04-10T14:05:44.999Z</time></trkpt><trkpt lat="45.612462480885675" lon="11.390177775603117"><ele>306.2</ele><time>2026-04-10T14:05:45.999Z</time></trkpt><trkpt lat="45.612435092918645" lon="11.389984007922804"><ele>303.4</ele><time>2026-04-10T14:05:46.999Z</time></trkpt><trkpt lat="45.612400517061616" lon="11.389813185004467"><ele>300.6</ele><time>2026-04-10T14:05:47.999Z</time></trkpt><trkpt lat="45.6123546362385" lon="11.38969287422913"><ele>297.8</ele><time>2026-04-10T14:05:48.999Z</time></trkpt><trkpt lat="45.61229325927057" lon="11.389637628999655"><ele>295.0</ele><time>2026-04-10T14:05:49.999Z</time></trkpt><trkpt lat="45.612216217184624" lon="11.389644931775083"><ele>295.0</ele><time>2026-04-10T14:05:50.999Z</time></trkpt><trkpt lat="45.612128611421376" lon="11.38972805790761"><ele>295.0</ele><time>2026-04-10T14:05:51.999Z</time></trkpt><trkpt lat="45.61205592305417" lon="11.389866124475477"><ele>295.0</ele><time>2026-04-10T14:05:52.999Z</time></trkpt><trkpt lat="45.6120297323559" lon="11.390072257938247"><ele>295.0</ele><time>2026-04-10T14:05:53.999Z</time></trkpt><trkpt lat="45.61201534930977" lon="11.390294963714199"><ele>290.5</ele><time>2026-04-10T14:05:54.999Z</time></trkpt><trkpt lat="45.61198149862252" lon="11.390497908740059"><ele>286.0</ele><time>2026-04-10T14:05:55.999Z</time></trkpt><trkpt lat="45.61191125161269" lon="11.390690301586844"><ele>281.5</ele><time>2026-04-10T14:05:56.999Z</time></trkpt><trkpt lat="45.61183550677574" lon="11.390876099416182"><ele>277.0</ele><time>2026-04-10T14:05:57.999Z</time></trkpt><trkpt lat="45.611758541715076" lon="11.391061993015736"><ele>277.0</ele><time>2026-04-10T14:05:58.999Z</time></trkpt><trkpt lat="45.61168498015847" lon="11.39126782693698"><ele>277.0</ele><time>2026-04-10T14:05:59.999Z</time></trkpt><trkpt lat="45.61164852741012" lon="11.391484468728956"><ele>277.0</ele><time>2026-04-10T14:06:00.999Z</time></trkpt><trkpt lat="45.61161249229879" lon="11.391712593231892"><ele>280.3333333333333</ele><time>2026-04-10T14:06:01.999Z</time></trkpt><trkpt lat="45.611595330355755" lon="11.391945466755924"><ele>283.6666666666667</ele><time>2026-04-10T14:06:02.999Z</time></trkpt><trkpt lat="45.61156480406353" lon="11.392167837604454"><ele>287.0</ele><time>2026-04-10T14:06:03.999Z</time></trkpt><trkpt lat="45.61153088795559" lon="11.392382368893085"><ele>288.25</ele><time>2026-04-10T14:06:04.999Z</time></trkpt><trkpt lat="45.61149204707195" lon="11.392585527586649"><ele>289.5</ele><time>2026-04-10T14:06:05.999Z</time></trkpt><trkpt lat="45.61145674710465" lon="11.392765856551366"><ele>290.75</ele><time>2026-04-10T14:06:06.999Z</time></trkpt><trkpt lat="45.61141707620532" lon="11.392915211391227"><ele>292.0</ele><time>2026-04-10T14:06:07.999Z</time></trkpt><trkpt lat="45.61132475436647" lon="11.392964609304002"><ele>292.0</ele><time>2026-04-10T14:06:08.999Z</time></trkpt><trkpt lat="45.611249354449065" lon="11.39294425243683"><ele>292.0</ele><time>2026-04-10T14:06:09.999Z</time></trkpt><trkpt lat="45.61117876667695" lon="11.392928158764885"><ele>292.0</ele><time>2026-04-10T14:06:11.001Z</time></trkpt><trkpt lat="45.61118240545004" lon="11.392767077444978"><ele>292.0</ele><time>2026-04-10T14:06:12.001Z</time></trkpt><trkpt lat="45.61109411800132" lon="11.392597682890758"><ele>292.0</ele><time>2026-04-10T14:06:13.001Z</time></trkpt><trkpt lat="45.61100824006844" lon="11.392430072809864"><ele>287.3333333333333</ele><time>2026-04-10T14:06:14.001Z</time></trkpt><trkpt lat="45.61089739248823" lon="11.392259583880007"><ele>282.6666666666667</ele><time>2026-04-10T14:06:15.001Z</time></trkpt><trkpt lat="45.61075009242298" lon="11.392160498701044"><ele>278.0</ele><time>2026-04-10T14:06:16.001Z</time></trkpt><trkpt lat="45.61060544508985" lon="11.39206717693033"><ele>270.0</ele><time>2026-04-10T14:06:17.001Z</time></trkpt><trkpt lat="45.61045986300142" lon="11.391970905966934"><ele>262.0</ele><time>2026-04-10T14:06:18.001Z</time></trkpt><trkpt lat="45.61032051191441" lon="11.391848671070996"><ele>254.0</ele><time>2026-04-10T14:06:19.001Z</time></trkpt><trkpt lat="45.61019082549687" lon="11.391709659196552"><ele>254.0</ele><time>2026-04-10T14:06:20.001Z</time></trkpt><trkpt lat="45.61005774185621" lon="11.391573776062316"><ele>254.0</ele><time>2026-04-10T14:06:21.001Z</time></trkpt><trkpt lat="45.609936168506344" lon="11.391475815218085"><ele>254.0</ele><time>2026-04-10T14:06:22.001Z</time></trkpt><trkpt lat="45.609815031166534" lon="11.391500503365668"><ele>254.0</ele><time>2026-04-10T14:06:23.001Z</time></trkpt><trkpt lat="45.60973785165119" lon="11.39148931453931"><ele>254.0</ele><time>2026-04-10T14:06:24.001Z</time></trkpt><trkpt lat="45.609658723653034" lon="11.391455130407564"><ele>253.99999999999997</ele><time>2026-04-10T14:06:25.001Z</time></trkpt><trkpt lat="45.60970786559146" lon="11.3913639495424"><ele>253.99999999999997</ele><time>2026-04-10T14:06:28Z</time></trkpt><trkpt lat="45.60979443962518" lon="11.39136794849836"><ele>254.0</ele><time>2026-04-10T14:06:30Z</time></trkpt><trkpt lat="45.60992144815444" lon="11.391328977413297"><ele>254.0</ele><time>2026-04-10T14:06:31Z</time></trkpt><trkpt lat="45.61007383620205" lon="11.391366838481936"><ele>254.0</ele><time>2026-04-10T14:06:32Z</time></trkpt><trkpt lat="45.610219266741524" lon="11.39138375910486"><ele>254.0</ele><time>2026-04-10T14:06:33Z</time></trkpt><trkpt lat="45.61039344961414" lon="11.391406739884257"><ele>254.0</ele><time>2026-04-10T14:06:34Z</time></trkpt><trkpt lat="45.610544052155376" lon="11.391385426190862"><ele>253.2</ele><time>2026-04-10T14:06:35Z</time></trkpt><trkpt lat="45.61067092725067" lon="11.391366285967143"><ele>252.39999999999998</ele><time>2026-04-10T14:06:36Z</time></trkpt><trkpt lat="45.61079434482092" lon="11.391345224439624"><ele>251.6</ele><time>2026-04-10T14:06:37Z</time></trkpt><trkpt lat="45.61088268625664" lon="11.391309103556924"><ele>250.8</ele><time>2026-04-10T14:06:38Z</time></trkpt><trkpt lat="45.61095217000529" lon="11.391222139917364"><ele>250.0</ele><time>2026-04-10T14:06:39Z</time></trkpt><trkpt lat="45.61092989299019" lon="11.39099500908652"><ele>245.75</ele><time>2026-04-10T14:06:40Z</time></trkpt><trkpt lat="45.61092472807076" lon="11.390823590441455"><ele>241.5</ele><time>2026-04-10T14:06:40.999Z</time></trkpt><trkpt lat="45.610937917202776" lon="11.390667524011075"><ele>237.25</ele><time>2026-04-10T14:06:41.999Z</time></trkpt><trkpt lat="45.610973356749184" lon="11.39048839299837"><ele>233.0</ele><time>2026-04-10T14:06:42.999Z</time></trkpt><trkpt lat="45.611019426452" lon="11.390288865626145"><ele>229.66666666666669</ele><time>2026-04-10T14:06:43.999Z</time></trkpt><trkpt lat="45.61106029876329" lon="11.390067866099757"><ele>226.33333333333331</ele><time>2026-04-10T14:06:44.999Z</time></trkpt><trkpt lat="45.611070568089836" lon="11.38984492779498"><ele>223.0</ele><time>2026-04-10T14:06:45.999Z</time></trkpt><trkpt lat="45.611076996309826" lon="11.389647941225315"><ele>219.25</ele><time>2026-04-10T14:06:46.999Z</time></trkpt><trkpt lat="45.611089816344126" lon="11.389466116169872"><ele>215.5</ele><time>2026-04-10T14:06:47.999Z</time></trkpt><trkpt lat="45.61112603004818" lon="11.389313996212636"><ele>211.75</ele><time>2026-04-10T14:06:48.999Z</time></trkpt><trkpt lat="45.61119508819692" lon="11.389186326169806"><ele>208.0</ele><time>2026-04-10T14:06:49.999Z</time></trkpt><trkpt lat="45.61129142030388" lon="11.389026658435478"><ele>209.33333333333331</ele><time>2026-04-10T14:06:50.999Z</time></trkpt><trkpt lat="45.61140112502888" lon="11.388851991224094"><ele>210.66666666666669</ele><time>2026-04-10T14:06:51.999Z</time></trkpt><trkpt lat="45.61151463717858" lon="11.388675860943692"><ele>212.0</ele><time>2026-04-10T14:06:52.999Z</time></trkpt><trkpt lat="45.611617592362535" lon="11.38852002122231"><ele>212.0</ele><time>2026-04-10T14:06:53.999Z</time></trkpt><trkpt lat="45.611717963454936" lon="11.388378136308658"><ele>212.0</ele><time>2026-04-10T14:06:54.999Z</time></trkpt><trkpt lat="45.61182212971471" lon="11.388242586628222"><ele>212.0</ele><time>2026-04-10T14:06:55.999Z</time></trkpt><trkpt lat="45.61192510330703" lon="11.388143323115433"><ele>212.0</ele><time>2026-04-10T14:06:56.999Z</time></trkpt><trkpt lat="45.61204358360539" lon="11.388100898941845"><ele>213.25</ele><time>2026-04-10T14:06:57.999Z</time></trkpt><trkpt lat="45.61217540630266" lon="11.388059499924072"><ele>214.5</ele><time>2026-04-10T14:06:58.999Z</time></trkpt><trkpt lat="45.61232051184154" lon="11.388004293876213"><ele>215.75</ele><time>2026-04-10T14:06:59.999Z</time></trkpt><trkpt lat="45.61247580646832" lon="11.388011232209132"><ele>217.0</ele><time>2026-04-10T14:07:00.999Z</time></trkpt><trkpt lat="45.61262079398554" lon="11.38797435325242"><ele>210.75</ele><time>2026-04-10T14:07:01.999Z</time></trkpt><trkpt lat="45.61276398642784" lon="11.38796836057523"><ele>204.5</ele><time>2026-04-10T14:07:02.999Z</time></trkpt><trkpt lat="45.61291113259856" lon="11.387928896385302"><ele>198.25</ele><time>2026-04-10T14:07:03.999Z</time></trkpt><trkpt lat="45.61305676002406" lon="11.387874146853855"><ele>192.0</ele><time>2026-04-10T14:07:04.999Z</time></trkpt><trkpt lat="45.61318683306264" lon="11.387813735687585"><ele>192.0</ele><time>2026-04-10T14:07:05.999Z</time></trkpt><trkpt lat="45.613319176928215" lon="11.387724747205047"><ele>192.0</ele><time>2026-04-10T14:07:06.999Z</time></trkpt><trkpt lat="45.61344075516237" lon="11.387588685413313"><ele>192.0</ele><time>2026-04-10T14:07:07.999Z</time></trkpt><trkpt lat="45.61353948552655" lon="11.387439427085033"><ele>192.0</ele><time>2026-04-10T14:07:08.999Z</time></trkpt><trkpt lat="45.61359830029874" lon="11.38727567409023"><ele>192.0</ele><time>2026-04-10T14:07:09.999Z</time></trkpt><trkpt lat="45.6136544724222" lon="11.387143857968516"><ele>192.0</ele><time>2026-04-10T14:07:10.999Z</time></trkpt><trkpt lat="45.61366281271461" lon="11.386997960881253"><ele>192.0</ele><time>2026-04-10T14:07:11.999Z</time></trkpt><trkpt lat="45.61363115186468" lon="11.386840548986713"><ele>192.0</ele><time>2026-04-10T14:07:12.999Z</time></trkpt><trkpt lat="45.61356646772548" lon="11.386694980737582"><ele>192.0</ele><time>2026-04-10T14:07:13.999Z</time></trkpt><trkpt lat="45.61350394547767" lon="11.386555554293892"><ele>190.0</ele><time>2026-04-10T14:07:14.999Z</time></trkpt><trkpt lat="45.61346372571736" lon="11.386405732710443"><ele>188.0</ele><time>2026-04-10T14:07:15.999Z</time></trkpt><trkpt lat="45.6134490943484" lon="11.38625111713916"><ele>186.0</ele><time>2026-04-10T14:07:16.999Z</time></trkpt><trkpt lat="45.613442394606935" lon="11.38611686027851"><ele>184.0</ele><time>2026-04-10T14:07:17.999Z</time></trkpt><trkpt lat="45.613437144192865" lon="11.386021407573075"><ele>182.0</ele><time>2026-04-10T14:07:18.999Z</time></trkpt><trkpt lat="45.613428625936145" lon="11.385865044201294"><ele>180.6</ele><time>2026-04-10T14:07:20.999Z</time></trkpt><trkpt lat="45.61340350274889" lon="11.385730491810406"><ele>179.2</ele><time>2026-04-10T14:07:22.999Z</time></trkpt><trkpt lat="45.61335611972524" lon="11.385665176484471"><ele>177.8</ele><time>2026-04-10T14:07:23.999Z</time></trkpt><trkpt lat="45.61321760005937" lon="11.38559282967052"><ele>176.4</ele><time>2026-04-10T14:07:25.999Z</time></trkpt><trkpt lat="45.61312337082943" lon="11.385538451413838"><ele>175.0</ele><time>2026-04-10T14:07:26.999Z</time></trkpt><trkpt lat="45.61302010042726" lon="11.385446404016289"><ele>174.75</ele><time>2026-04-10T14:07:27.999Z</time></trkpt><trkpt lat="45.61293216669469" lon="11.385300292887607"><ele>174.5</ele><time>2026-04-10T14:07:28.999Z</time></trkpt><trkpt lat="45.612836175791465" lon="11.385166282334223"><ele>174.25</ele><time>2026-04-10T14:07:29.999Z</time></trkpt><trkpt lat="45.61271832449844" lon="11.385059276345816"><ele>174.0</ele><time>2026-04-10T14:07:30.999Z</time></trkpt><trkpt lat="45.61260560096593" lon="11.38497314900324"><ele>173.0</ele><time>2026-04-10T14:07:31.999Z</time></trkpt><trkpt lat="45.612487545524864" lon="11.384922295977024"><ele>172.0</ele><time>2026-04-10T14:07:32.999Z</time></trkpt><trkpt lat="45.612396971229835" lon="11.38480490742926"><ele>171.0</ele><time>2026-04-10T14:07:33.999Z</time></trkpt><trkpt lat="45.612311943981275" lon="11.384648065694893"><ele>170.0</ele><time>2026-04-10T14:07:34.999Z</time></trkpt><trkpt lat="45.61222582879573" lon="11.384479397884203"><ele>169.5</ele><time>2026-04-10T14:07:35.999Z</time></trkpt><trkpt lat="45.61213777172892" lon="11.384303410146043"><ele>169.0</ele><time>2026-04-10T14:07:36.999Z</time></trkpt><trkpt lat="45.61204661620392" lon="11.384119959550908"><ele>168.5</ele><time>2026-04-10T14:07:37.999Z</time></trkpt><trkpt lat="45.6119670595271" lon="11.383959845518401"><ele>168.0</ele><time>2026-04-10T14:07:38.999Z</time></trkpt><trkpt lat="45.611897720808074" lon="11.383806507480294"><ele>167.0</ele><time>2026-04-10T14:07:39.999Z</time></trkpt><trkpt lat="45.61183243528859" lon="11.38366889127567"><ele>166.0</ele><time>2026-04-10T14:07:40.999Z</time></trkpt><trkpt lat="45.61181768162399" lon="11.383520895482233"><ele>165.0</ele><time>2026-04-10T14:07:41.998Z</time></trkpt><trkpt lat="45.611812684719666" lon="11.383415054545"><ele>164.0</ele><time>2026-04-10T14:07:42.998Z</time></trkpt><trkpt lat="45.61160935461095" lon="11.383383980580364"><ele>164.0</ele><time>2026-04-10T14:07:43.998Z</time></trkpt><trkpt lat="45.611523880663086" lon="11.383328324510895"><ele>164.0</ele><time>2026-04-10T14:07:44.998Z</time></trkpt><trkpt lat="45.611441294314574" lon="11.383282319466803"><ele>164.0</ele><time>2026-04-10T14:07:45.998Z</time></trkpt><trkpt lat="45.61136168617931" lon="11.383251625742643"><ele>164.0</ele><time>2026-04-10T14:07:46.998Z</time></trkpt><trkpt lat="45.611287600840754" lon="11.383227587010406"><ele>164.0</ele><time>2026-04-10T14:07:47.998Z</time></trkpt><trkpt lat="45.61121367650976" lon="11.383213115791994"><ele>164.0</ele><time>2026-04-10T14:07:48.998Z</time></trkpt><trkpt lat="45.61114714828535" lon="11.383227278858541"><ele>163.5</ele><time>2026-04-10T14:07:49.998Z</time></trkpt><trkpt lat="45.61108339549982" lon="11.38324308514"><ele>163.0</ele><time>2026-04-10T14:07:50.998Z</time></trkpt><trkpt lat="45.6110161633509" lon="11.383264662231305"><ele>162.5</ele><time>2026-04-10T14:07:51.998Z</time></trkpt><trkpt lat="45.61095233237938" lon="11.383274337329597"><ele>162.0</ele><time>2026-04-10T14:07:52.998Z</time></trkpt><trkpt lat="45.61083135177547" lon="11.38330486084632"><ele>161.5</ele><time>2026-04-10T14:07:54.998Z</time></trkpt><trkpt lat="45.6107184385554" lon="11.383300053609569"><ele>161.0</ele><time>2026-04-10T14:07:56.998Z</time></trkpt><trkpt lat="45.61060604046418" lon="11.3833023829502"><ele>161.0</ele><time>2026-04-10T14:07:58.998Z</time></trkpt><trkpt lat="45.61050711703849" lon="11.383288697216658"><ele>161.0</ele><time>2026-04-10T14:08:00.998Z</time></trkpt><trkpt lat="45.610400735997295" lon="11.38326613241408"><ele>161.0</ele><time>2026-04-10T14:08:02.998Z</time></trkpt><trkpt lat="45.610323300497136" lon="11.383245423911736"><ele>161.0</ele><time>2026-04-10T14:08:03.998Z</time></trkpt><trkpt lat="45.61023809238654" lon="11.383219274871283"><ele>161.0</ele><time>2026-04-10T14:08:04.998Z</time></trkpt><trkpt lat="45.61016076683818" lon="11.383191467829421"><ele>160.5</ele><time>2026-04-10T14:08:05.998Z</time></trkpt><trkpt lat="45.610078095775904" lon="11.383160530080845"><ele>160.0</ele><time>2026-04-10T14:08:06.998Z</time></trkpt><trkpt lat="45.60999820580216" lon="11.383129502923788"><ele>159.5</ele><time>2026-04-10T14:08:07.998Z</time></trkpt><trkpt lat="45.609920709694435" lon="11.383098938263895"><ele>159.0</ele><time>2026-04-10T14:08:08.998Z</time></trkpt><trkpt lat="45.60984714010199" lon="11.383069922238551"><ele>158.5</ele><time>2026-04-10T14:08:09.998Z</time></trkpt><trkpt lat="45.60977171023903" lon="11.383040172588062"><ele>158.0</ele><time>2026-04-10T14:08:10.998Z</time></trkpt><trkpt lat="45.60969900326289" lon="11.383011462900699"><ele>158.0</ele><time>2026-04-10T14:08:11.998Z</time></trkpt><trkpt lat="45.609623736988745" lon="11.382980310126614"><ele>158.0</ele><time>2026-04-10T14:08:12.998Z</time></trkpt><trkpt lat="45.60954032964202" lon="11.38294578784271"><ele>158.0</ele><time>2026-04-10T14:08:13.998Z</time></trkpt><trkpt lat="45.6094483248492" lon="11.38290770701439"><ele>158.0</ele><time>2026-04-10T14:08:14.998Z</time></trkpt><trkpt lat="45.60936242975132" lon="11.38287215493421"><ele>158.0</ele><time>2026-04-10T14:08:16Z</time></trkpt><trkpt lat="45.60927412335458" lon="11.382835604996417"><ele>158.0</ele><time>2026-04-10T14:08:17Z</time></trkpt><trkpt lat="45.60918808637602" lon="11.382799994249769"><ele>158.0</ele><time>2026-04-10T14:08:18Z</time></trkpt><trkpt lat="45.60909897178942" lon="11.382768448216957"><ele>158.0</ele><time>2026-04-10T14:08:19Z</time></trkpt><trkpt lat="45.60901822061167" lon="11.382742478175613"><ele>158.0</ele><time>2026-04-10T14:08:20Z</time></trkpt><trkpt lat="45.60893701291297" lon="11.382721559051994"><ele>158.0</ele><time>2026-04-10T14:08:21Z</time></trkpt><trkpt lat="45.608860554193974" lon="11.382708025931933"><ele>158.0</ele><time>2026-04-10T14:08:22Z</time></trkpt><trkpt lat="45.608788757175226" lon="11.38269840530902"><ele>158.0</ele><time>2026-04-10T14:08:23Z</time></trkpt><trkpt lat="45.60872501357431" lon="11.382691971376655"><ele>157.8</ele><time>2026-04-10T14:08:24Z</time></trkpt><trkpt lat="45.608657785588676" lon="11.382687972779387"><ele>157.60000000000002</ele><time>2026-04-10T14:08:25Z</time></trkpt><trkpt lat="45.60854037394726" lon="11.382691429955205"><ele>157.39999999999998</ele><time>2026-04-10T14:08:27Z</time></trkpt><trkpt lat="45.60843291307159" lon="11.382705911383008"><ele>157.2</ele><time>2026-04-10T14:08:29Z</time></trkpt><trkpt lat="45.60833992590906" lon="11.382723710196467"><ele>157.0</ele><time>2026-04-10T14:08:31Z</time></trkpt><trkpt lat="45.60826627741687" lon="11.382739651420101"><ele>157.0</ele><time>2026-04-10T14:08:33Z</time></trkpt><trkpt lat="45.60823861873437" lon="11.382879327421797"><ele>157.0</ele><time>2026-04-10T14:08:35Z</time></trkpt><trkpt lat="45.6082530862849" lon="11.383032621129075"><ele>157.0</ele><time>2026-04-10T14:08:37Z</time></trkpt><trkpt lat="45.608261786428486" lon="11.383146211932829"><ele>157.0</ele><time>2026-04-10T14:08:38Z</time></trkpt><trkpt lat="45.60826440808427" lon="11.383285050055411"><ele>157.0</ele><time>2026-04-10T14:08:38.999Z</time></trkpt><trkpt lat="45.60823471527389" lon="11.383422222553303"><ele>157.0</ele><time>2026-04-10T14:08:39.999Z</time></trkpt><trkpt lat="45.60821376233012" lon="11.383572847632852"><ele>157.0</ele><time>2026-04-10T14:08:40.999Z</time></trkpt><trkpt lat="45.608198185180676" lon="11.383732712610303"><ele>157.0</ele><time>2026-04-10T14:08:41.999Z</time></trkpt><trkpt lat="45.60817841647899" lon="11.383875989006178"><ele>157.0</ele><time>2026-04-10T14:08:42.999Z</time></trkpt><trkpt lat="45.60816086678062" lon="11.38402415275891"><ele>157.0</ele><time>2026-04-10T14:08:43.999Z</time></trkpt><trkpt lat="45.60814983199587" lon="11.384175141753452"><ele>156.79999999999998</ele><time>2026-04-10T14:08:44.999Z</time></trkpt><trkpt lat="45.60815266133206" lon="11.384328242049694"><ele>156.6</ele><time>2026-04-10T14:08:45.999Z</time></trkpt><trkpt lat="45.60817431482518" lon="11.38447244819883"><ele>156.39999999999998</ele><time>2026-04-10T14:08:46.999Z</time></trkpt><trkpt lat="45.60819550820162" lon="11.384619975763437"><ele>156.2</ele><time>2026-04-10T14:08:47.999Z</time></trkpt><trkpt lat="45.60820770150976" lon="11.384779398071178"><ele>156.0</ele><time>2026-04-10T14:08:48.999Z</time></trkpt><trkpt lat="45.60821745855828" lon="11.38492392738974"><ele>156.2</ele><time>2026-04-10T14:08:49.999Z</time></trkpt><trkpt lat="45.608221114794105" lon="11.385064170049151"><ele>156.39999999999998</ele><time>2026-04-10T14:08:50.999Z</time></trkpt><trkpt lat="45.60823073373114" lon="11.385207071293499"><ele>156.6</ele><time>2026-04-10T14:08:51.999Z</time></trkpt><trkpt lat="45.60825214989916" lon="11.385347823185242"><ele>156.79999999999998</ele><time>2026-04-10T14:08:52.999Z</time></trkpt><trkpt lat="45.60827716739749" lon="11.385481208114253"><ele>157.0</ele><time>2026-04-10T14:08:53.999Z</time></trkpt><trkpt lat="45.60831220848802" lon="11.38561657252247"><ele>157.0</ele><time>2026-04-10T14:08:54.999Z</time></trkpt><trkpt lat="45.60834805530687" lon="11.385739339653528"><ele>157.0</ele><time>2026-04-10T14:08:55.999Z</time></trkpt><trkpt lat="45.60838765293212" lon="11.385855081151556"><ele>157.0</ele><time>2026-04-10T14:08:56.999Z</time></trkpt><trkpt lat="45.608425409692146" lon="11.38595469019019"><ele>157.0</ele><time>2026-04-10T14:08:57.999Z</time></trkpt><trkpt lat="45.60846724277643" lon="11.386035534307743"><ele>157.0</ele><time>2026-04-10T14:08:58.999Z</time></trkpt><trkpt lat="45.60858025528459" lon="11.386188642319265"><ele>157.4</ele><time>2026-04-10T14:09:01.999Z</time></trkpt><trkpt lat="45.60867008453117" lon="11.386302293916385"><ele>157.79999999999998</ele><time>2026-04-10T14:09:03.999Z</time></trkpt><trkpt lat="45.60873236452504" lon="11.386377232009803"><ele>158.2</ele><time>2026-04-10T14:09:05.999Z</time></trkpt><trkpt lat="45.608666573571476" lon="11.386439697921292"><ele>158.6</ele><time>2026-04-10T14:09:08.999Z</time></trkpt><trkpt lat="45.60852445401886" lon="11.38644727642665"><ele>159.0</ele><time>2026-04-10T14:09:10.999Z</time></trkpt><trkpt lat="45.60841072962454" lon="11.386486068253399"><ele>159.5</ele><time>2026-04-10T14:09:11.999Z</time></trkpt><trkpt lat="45.60831342713647" lon="11.386594779171654"><ele>160.0</ele><time>2026-04-10T14:09:12.999Z</time></trkpt><trkpt lat="45.60822380540121" lon="11.386711415140361"><ele>160.5</ele><time>2026-04-10T14:09:13.999Z</time></trkpt><trkpt lat="45.60816714335139" lon="11.386839639261357"><ele>161.0</ele><time>2026-04-10T14:09:14.999Z</time></trkpt><trkpt lat="45.60814302382461" lon="11.387002502429521"><ele>161.0</ele><time>2026-04-10T14:09:15.999Z</time></trkpt><trkpt lat="45.60814755749808" lon="11.387170397476051"><ele>161.0</ele><time>2026-04-10T14:09:16.999Z</time></trkpt><trkpt lat="45.608097692202605" lon="11.387283822286616"><ele>161.0</ele><time>2026-04-10T14:09:17.999Z</time></trkpt><trkpt lat="45.60803451551228" lon="11.38735516808468"><ele>161.0</ele><time>2026-04-10T14:09:18.999Z</time></trkpt><trkpt lat="45.607959931151186" lon="11.387367209956716"><ele>161.0</ele><time>2026-04-10T14:09:19.999Z</time></trkpt><trkpt lat="45.607887491837154" lon="11.387319826315316"><ele>161.0</ele><time>2026-04-10T14:09:20.999Z</time></trkpt><trkpt lat="45.60778293438929" lon="11.387324537167688"><ele>160.0</ele><time>2026-04-10T14:09:21.999Z</time></trkpt><trkpt lat="45.607651241628915" lon="11.3873371593487"><ele>159.0</ele><time>2026-04-10T14:09:22.999Z</time></trkpt><trkpt lat="45.607484180484796" lon="11.387361313258888"><ele>158.0</ele><time>2026-04-10T14:09:23.999Z</time></trkpt><trkpt lat="45.607296083889544" lon="11.38739084628094"><ele>158.0</ele><time>2026-04-10T14:09:24.999Z</time></trkpt><trkpt lat="45.60709062564146" lon="11.387408580629959"><ele>158.0</ele><time>2026-04-10T14:09:25.999Z</time></trkpt><trkpt lat="45.606887634468926" lon="11.387420093855647"><ele>158.0</ele><time>2026-04-10T14:09:26.999Z</time></trkpt><trkpt lat="45.60670248028913" lon="11.387437844489096"><ele>158.66666666666666</ele><time>2026-04-10T14:09:27.999Z</time></trkpt><trkpt lat="45.60653623005394" lon="11.38745378279945"><ele>159.33333333333334</ele><time>2026-04-10T14:09:28.999Z</time></trkpt><trkpt lat="45.60638171295626" lon="11.387500004607395"><ele>160.0</ele><time>2026-04-10T14:09:29.999Z</time></trkpt><trkpt lat="45.606234392789005" lon="11.387530366322334"><ele>159.0</ele><time>2026-04-10T14:09:30.999Z</time></trkpt><trkpt lat="45.606101101242665" lon="11.387565628435928"><ele>158.0</ele><time>2026-04-10T14:09:31.999Z</time></trkpt><trkpt lat="45.60597489922164" lon="11.38759834179982"><ele>157.0</ele><time>2026-04-10T14:09:32.999Z</time></trkpt><trkpt lat="45.60585870701929" lon="11.387647881952256"><ele>156.0</ele><time>2026-04-10T14:09:33.999Z</time></trkpt><trkpt lat="45.60574686764101" lon="11.387729118342168"><ele>156.0</ele><time>2026-04-10T14:09:34.999Z</time></trkpt><trkpt lat="45.60563785729522" lon="11.38784175395451"><ele>156.0</ele><time>2026-04-10T14:09:35.999Z</time></trkpt><trkpt lat="45.60553619491543" lon="11.387960917902058"><ele>156.0</ele><time>2026-04-10T14:09:36.999Z</time></trkpt><trkpt lat="45.60544730635542" lon="11.388077594689939"><ele>156.0</ele><time>2026-04-10T14:09:37.999Z</time></trkpt><trkpt lat="45.605348691585526" lon="11.388155902832573"><ele>158.25</ele><time>2026-04-10T14:09:38.999Z</time></trkpt><trkpt lat="45.605252081535625" lon="11.388154718252036"><ele>160.5</ele><time>2026-04-10T14:09:39.999Z</time></trkpt><trkpt lat="45.60514462012076" lon="11.388181898566488"><ele>162.75</ele><time>2026-04-10T14:09:40.999Z</time></trkpt><trkpt lat="45.60502548479429" lon="11.388204186228153"><ele>165.0</ele><time>2026-04-10T14:09:41.999Z</time></trkpt><trkpt lat="45.60489696253283" lon="11.388221693349296"><ele>165.0</ele><time>2026-04-10T14:09:42.999Z</time></trkpt><trkpt lat="45.60478025516916" lon="11.388197199780876"><ele>165.0</ele><time>2026-04-10T14:09:43.999Z</time></trkpt><trkpt lat="45.60467976264592" lon="11.388171959038651"><ele>165.0</ele><time>2026-04-10T14:09:44.999Z</time></trkpt><trkpt lat="45.60460537850278" lon="11.388150615380287"><ele>165.0</ele><time>2026-04-10T14:09:45.999Z</time></trkpt><trkpt lat="45.60453826910753" lon="11.388142020151221"><ele>165.0</ele><time>2026-04-10T14:09:46.999Z</time></trkpt><trkpt lat="45.60441339964907" lon="11.38818844841874"><ele>165.0</ele><time>2026-04-10T14:09:48.999Z</time></trkpt><trkpt lat="45.604353655062646" lon="11.388246799040349"><ele>165.0</ele><time>2026-04-10T14:09:49.999Z</time></trkpt><trkpt lat="45.60428454361631" lon="11.38829920191285"><ele>165.0</ele><time>2026-04-10T14:09:50.999Z</time></trkpt><trkpt lat="45.604200620449426" lon="11.38836104528648"><ele>165.0</ele><time>2026-04-10T14:09:51.999Z</time></trkpt><trkpt lat="45.60410678778816" lon="11.388429795091987"><ele>165.0</ele><time>2026-04-10T14:09:52.999Z</time></trkpt><trkpt lat="45.60400830946096" lon="11.38850730467672"><ele>165.0</ele><time>2026-04-10T14:09:53.999Z</time></trkpt><trkpt lat="45.60393349872849" lon="11.388582676143889"><ele>165.0</ele><time>2026-04-10T14:09:54.999Z</time></trkpt><trkpt lat="45.603864104296605" lon="11.388660068609513"><ele>165.0</ele><time>2026-04-10T14:09:55.999Z</time></trkpt><trkpt lat="45.60377741327405" lon="11.388746148442223"><ele>165.0</ele><time>2026-04-10T14:09:56.999Z</time></trkpt><trkpt lat="45.603688950292906" lon="11.388834563390601"><ele>165.0</ele><time>2026-04-10T14:09:57.999Z</time></trkpt><trkpt lat="45.60357589531646" lon="11.388939793102125"><ele>164.33333333333334</ele><time>2026-04-10T14:09:58.999Z</time></trkpt><trkpt lat="45.60349125823939" lon="11.389045415990486"><ele>163.66666666666666</ele><time>2026-04-10T14:09:59.999Z</time></trkpt><trkpt lat="45.60342997939189" lon="11.389153043045651"><ele>163.0</ele><time>2026-04-10T14:10:00.999Z</time></trkpt><trkpt lat="45.60336253938816" lon="11.389192114636506"><ele>162.33333333333331</ele><time>2026-04-10T14:10:01.998Z</time></trkpt><trkpt lat="45.60329391319053" lon="11.389237211353663"><ele>161.66666666666666</ele><time>2026-04-10T14:10:02.998Z</time></trkpt><trkpt lat="45.60322919325665" lon="11.389303759332137"><ele>161.0</ele><time>2026-04-10T14:10:03.998Z</time></trkpt><trkpt lat="45.60315014810455" lon="11.389335087749851"><ele>161.0</ele><time>2026-04-10T14:10:04.998Z</time></trkpt><trkpt lat="45.6030781011625" lon="11.389406581043445"><ele>161.0</ele><time>2026-04-10T14:10:05.998Z</time></trkpt><trkpt lat="45.603009612081415" lon="11.389552230980435"><ele>161.0</ele><time>2026-04-10T14:10:06.998Z</time></trkpt><trkpt lat="45.602929271804896" lon="11.389709770017168"><ele>161.0</ele><time>2026-04-10T14:10:07.998Z</time></trkpt><trkpt lat="45.60285561228878" lon="11.389838323650151"><ele>160.14285714285714</ele><time>2026-04-10T14:10:08.998Z</time></trkpt><trkpt lat="45.60280424724666" lon="11.389937118669831"><ele>159.28571428571428</ele><time>2026-04-10T14:10:09.998Z</time></trkpt><trkpt lat="45.602786993266946" lon="11.390030495048864"><ele>158.42857142857144</ele><time>2026-04-10T14:10:10.998Z</time></trkpt><trkpt lat="45.60283001056211" lon="11.390131548748043"><ele>157.57142857142856</ele><time>2026-04-10T14:10:11.998Z</time></trkpt><trkpt lat="45.6028343917236" lon="11.390239896865221"><ele>156.71428571428572</ele><time>2026-04-10T14:10:12.998Z</time></trkpt><trkpt lat="45.602851816117266" lon="11.390332592757934"><ele>155.85714285714286</ele><time>2026-04-10T14:10:13.998Z</time></trkpt><trkpt lat="45.60279815427348" lon="11.390391744945203"><ele>155.0</ele><time>2026-04-10T14:10:14.998Z</time></trkpt><trkpt lat="45.60272529806787" lon="11.390463946758777"><ele>155.5</ele><time>2026-04-10T14:10:15.998Z</time></trkpt><trkpt lat="45.60263078236699" lon="11.390606722731974"><ele>156.0</ele><time>2026-04-10T14:10:16.998Z</time></trkpt><trkpt lat="45.60253211917796" lon="11.390754012619317"><ele>156.5</ele><time>2026-04-10T14:10:17.998Z</time></trkpt><trkpt lat="45.6024265292739" lon="11.39091470074674"><ele>157.0</ele><time>2026-04-10T14:10:18.998Z</time></trkpt><trkpt lat="45.602312957511145" lon="11.391056361460121"><ele>157.0</ele><time>2026-04-10T14:10:19.998Z</time></trkpt><trkpt lat="45.60220553002705" lon="11.391172663395592"><ele>157.0</ele><time>2026-04-10T14:10:20.998Z</time></trkpt><trkpt lat="45.60211315917058" lon="11.391299764383213"><ele>157.0</ele><time>2026-04-10T14:10:22Z</time></trkpt><trkpt lat="45.60202601030167" lon="11.391442620813374"><ele>157.0</ele><time>2026-04-10T14:10:23Z</time></trkpt><trkpt lat="45.60191730029395" lon="11.39158833142441"><ele>156.4</ele><time>2026-04-10T14:10:24Z</time></trkpt><trkpt lat="45.60180697752165" lon="11.391685935885688"><ele>155.79999999999998</ele><time>2026-04-10T14:10:25Z</time></trkpt><trkpt lat="45.601710003798104" lon="11.391774857966043"><ele>155.2</ele><time>2026-04-10T14:10:26Z</time></trkpt><trkpt lat="45.60162001763074" lon="11.391857807080685"><ele>154.6</ele><time>2026-04-10T14:10:27Z</time></trkpt><trkpt lat="45.60153810976231" lon="11.391929267632365"><ele>154.0</ele><time>2026-04-10T14:10:28Z</time></trkpt><trkpt lat="45.60147681697263" lon="11.391977859618562"><ele>154.0</ele><time>2026-04-10T14:10:29Z</time></trkpt><trkpt lat="45.60141650326622" lon="11.39200824366623"><ele>154.0</ele><time>2026-04-10T14:10:30Z</time></trkpt><trkpt lat="45.6013085838379" lon="11.391998665585685"><ele>154.0</ele><time>2026-04-10T14:10:32Z</time></trkpt><trkpt lat="45.601246589960994" lon="11.391966582550397"><ele>154.0</ele><time>2026-04-10T14:10:33Z</time></trkpt><trkpt lat="45.601206238126125" lon="11.391849243929956"><ele>154.0</ele><time>2026-04-10T14:10:34Z</time></trkpt><trkpt lat="45.601119542407446" lon="11.391707927607351"><ele>154.8</ele><time>2026-04-10T14:10:35Z</time></trkpt><trkpt lat="45.601036198473196" lon="11.391596984932685"><ele>155.60000000000002</ele><time>2026-04-10T14:10:36Z</time></trkpt><trkpt lat="45.60096938069548" lon="11.39147890443843"><ele>156.4</ele><time>2026-04-10T14:10:37Z</time></trkpt><trkpt lat="45.60093043393291" lon="11.391346097672306"><ele>157.20000000000002</ele><time>2026-04-10T14:10:38Z</time></trkpt><trkpt lat="45.60087225824543" lon="11.391228089722217"><ele>158.0</ele><time>2026-04-10T14:10:39Z</time></trkpt><trkpt lat="45.600822142049" lon="11.391104054363847"><ele>158.0</ele><time>2026-04-10T14:10:40Z</time></trkpt><trkpt lat="45.60078822220504" lon="11.39097839483638"><ele>158.0</ele><time>2026-04-10T14:10:41Z</time></trkpt><trkpt lat="45.6007276392575" lon="11.39087599399276"><ele>158.0</ele><time>2026-04-10T14:10:42Z</time></trkpt><trkpt lat="45.600683049615895" lon="11.390753860447512"><ele>158.0</ele><time>2026-04-10T14:10:43Z</time></trkpt><trkpt lat="45.60063412893065" lon="11.390630501540844"><ele>158.0</ele><time>2026-04-10T14:10:44Z</time></trkpt><trkpt lat="45.60058514771338" lon="11.390510598834933"><ele>157.0</ele><time>2026-04-10T14:10:45Z</time></trkpt><trkpt lat="45.600539549986514" lon="11.390401483417604"><ele>156.0</ele><time>2026-04-10T14:10:46Z</time></trkpt><trkpt lat="45.600494985851164" lon="11.39029686839036"><ele>155.0</ele><time>2026-04-10T14:10:47Z</time></trkpt><trkpt lat="45.60044877596615" lon="11.390187907692424"><ele>154.0</ele><time>2026-04-10T14:10:47.999Z</time></trkpt><trkpt lat="45.60039389108917" lon="11.390077167732402"><ele>153.0</ele><time>2026-04-10T14:10:48.999Z</time></trkpt><trkpt lat="45.6003424400349" lon="11.389966079868842"><ele>153.0</ele><time>2026-04-10T14:10:49.999Z</time></trkpt><trkpt lat="45.60028849874302" lon="11.389852212591473"><ele>153.0</ele><time>2026-04-10T14:10:50.999Z</time></trkpt><trkpt lat="45.600237599310105" lon="11.389758630141534"><ele>153.0</ele><time>2026-04-10T14:10:51.999Z</time></trkpt><trkpt lat="45.600172148523434" lon="11.389663288704545"><ele>153.0</ele><time>2026-04-10T14:10:52.999Z</time></trkpt><trkpt lat="45.60009806669628" lon="11.389567317030345"><ele>153.0</ele><time>2026-04-10T14:10:53.999Z</time></trkpt><trkpt lat="45.60000633536007" lon="11.389479380861728"><ele>153.0</ele><time>2026-04-10T14:10:54.999Z</time></trkpt><trkpt lat="45.59992229378006" lon="11.389397785883364"><ele>153.0</ele><time>2026-04-10T14:10:55.999Z</time></trkpt><trkpt lat="45.59985565812027" lon="11.389335346191926"><ele>153.0</ele><time>2026-04-10T14:10:56.999Z</time></trkpt><trkpt lat="45.59978576851639" lon="11.389278975276754"><ele>153.0</ele><time>2026-04-10T14:10:57.999Z</time></trkpt><trkpt lat="45.599700246693686" lon="11.389215623584084"><ele>153.0</ele><time>2026-04-10T14:10:58.999Z</time></trkpt><trkpt lat="45.59961777875656" lon="11.389171088817466"><ele>153.0</ele><time>2026-04-10T14:10:59.999Z</time></trkpt><trkpt lat="45.59954761002702" lon="11.389143834274027"><ele>153.8</ele><time>2026-04-10T14:11:00.999Z</time></trkpt><trkpt lat="45.599462633853626" lon="11.389124712536937"><ele>154.60000000000002</ele><time>2026-04-10T14:11:01.999Z</time></trkpt><trkpt lat="45.599359330169314" lon="11.389115876209118"><ele>155.39999999999998</ele><time>2026-04-10T14:11:02.999Z</time></trkpt><trkpt lat="45.59924019028721" lon="11.389116410482746"><ele>156.2</ele><time>2026-04-10T14:11:03.999Z</time></trkpt><trkpt lat="45.599111066082294" lon="11.389116763760773"><ele>157.0</ele><time>2026-04-10T14:11:04.999Z</time></trkpt><trkpt lat="45.598970573815684" lon="11.389081576170701"><ele>157.0</ele><time>2026-04-10T14:11:05.999Z</time></trkpt><trkpt lat="45.598819502967615" lon="11.389057100075611"><ele>157.0</ele><time>2026-04-10T14:11:06.999Z</time></trkpt><trkpt lat="45.59865907659447" lon="11.389019780939744"><ele>157.0</ele><time>2026-04-10T14:11:07.999Z</time></trkpt><trkpt lat="45.59849556330505" lon="11.38898220945788"><ele>156.0</ele><time>2026-04-10T14:11:08.999Z</time></trkpt><trkpt lat="45.59835324250182" lon="11.388946019167278"><ele>155.0</ele><time>2026-04-10T14:11:09.999Z</time></trkpt><trkpt lat="45.59822914990635" lon="11.38891432483415"><ele>154.0</ele><time>2026-04-10T14:11:10.999Z</time></trkpt><trkpt lat="45.598115222608754" lon="11.388881009172088"><ele>153.0</ele><time>2026-04-10T14:11:11.999Z</time></trkpt><trkpt lat="45.598014573620006" lon="11.388841458628752"><ele>153.0</ele><time>2026-04-10T14:11:12.999Z</time></trkpt><trkpt lat="45.597917992528856" lon="11.388786248722354"><ele>153.0</ele><time>2026-04-10T14:11:13.999Z</time></trkpt><trkpt lat="45.59780833381791" lon="11.388709222916185"><ele>153.0</ele><time>2026-04-10T14:11:14.999Z</time></trkpt><trkpt lat="45.59767990782947" lon="11.388628073598591"><ele>153.0</ele><time>2026-04-10T14:11:15.999Z</time></trkpt><trkpt lat="45.59752983288761" lon="11.3885803847354"><ele>153.66666666666666</ele><time>2026-04-10T14:11:16.999Z</time></trkpt><trkpt lat="45.597373239907284" lon="11.388508088277895"><ele>154.33333333333331</ele><time>2026-04-10T14:11:17.999Z</time></trkpt><trkpt lat="45.597219456156544" lon="11.38844431530696"><ele>155.0</ele><time>2026-04-10T14:11:18.999Z</time></trkpt><trkpt lat="45.59706629378744" lon="11.38838397671593"><ele>155.25</ele><time>2026-04-10T14:11:19.999Z</time></trkpt><trkpt lat="45.59692656433243" lon="11.38832598600599"><ele>155.5</ele><time>2026-04-10T14:11:20.999Z</time></trkpt><trkpt lat="45.5967965333862" lon="11.388285377865325"><ele>155.75</ele><time>2026-04-10T14:11:21.999Z</time></trkpt><trkpt lat="45.59666960707437" lon="11.388269046484938"><ele>156.0</ele><time>2026-04-10T14:11:22.999Z</time></trkpt><trkpt lat="45.59653072744844" lon="11.38828562147772"><ele>156.0</ele><time>2026-04-10T14:11:23.999Z</time></trkpt><trkpt lat="45.59637947913999" lon="11.388317189284079"><ele>156.0</ele><time>2026-04-10T14:11:24.999Z</time></trkpt><trkpt lat="45.596220605204124" lon="11.388340667004734"><ele>156.0</ele><time>2026-04-10T14:11:25.999Z</time></trkpt><trkpt lat="45.59606862124702" lon="11.388359711905172"><ele>156.5</ele><time>2026-04-10T14:11:26.999Z</time></trkpt><trkpt lat="45.59592706069165" lon="11.388384401815136"><ele>157.0</ele><time>2026-04-10T14:11:27.999Z</time></trkpt><trkpt lat="45.59579909579717" lon="11.388413402546728"><ele>157.5</ele><time>2026-04-10T14:11:28.999Z</time></trkpt><trkpt lat="45.59567607967314" lon="11.388426582578678"><ele>158.0</ele><time>2026-04-10T14:11:29.999Z</time></trkpt><trkpt lat="45.59555123330583" lon="11.388386095041245"><ele>158.0</ele><time>2026-04-10T14:11:30.999Z</time></trkpt><trkpt lat="45.59544945130016" lon="11.388323407684874"><ele>158.0</ele><time>2026-04-10T14:11:31.999Z</time></trkpt><trkpt lat="45.59538311116018" lon="11.388230763478884"><ele>158.0</ele><time>2026-04-10T14:11:32.999Z</time></trkpt><trkpt lat="45.5953565230599" lon="11.38809870257882"><ele>158.0</ele><time>2026-04-10T14:11:33.999Z</time></trkpt><trkpt lat="45.595316344154355" lon="11.387933509946619"><ele>158.0</ele><time>2026-04-10T14:11:34.999Z</time></trkpt><trkpt lat="45.59527746166416" lon="11.387747661679471"><ele>158.0</ele><time>2026-04-10T14:11:35.999Z</time></trkpt><trkpt lat="45.59526102221814" lon="11.387565365280766"><ele>158.0</ele><time>2026-04-10T14:11:36.999Z</time></trkpt><trkpt lat="45.59527000858217" lon="11.387387395616114"><ele>158.0</ele><time>2026-04-10T14:11:37.999Z</time></trkpt><trkpt lat="45.59529671253608" lon="11.38720789350283"><ele>158.0</ele><time>2026-04-10T14:11:38.999Z</time></trkpt><trkpt lat="45.59532833104735" lon="11.3870549189377"><ele>158.0</ele><time>2026-04-10T14:11:39.999Z</time></trkpt><trkpt lat="45.59532932859294" lon="11.386909386321024"><ele>158.0</ele><time>2026-04-10T14:11:40.999Z</time></trkpt><trkpt lat="45.59533660055839" lon="11.386797366551683"><ele>158.0</ele><time>2026-04-10T14:11:41.999Z</time></trkpt><trkpt lat="45.595311950301124" lon="11.386699882194282"><ele>158.0</ele><time>2026-04-10T14:11:42.999Z</time></trkpt><trkpt lat="45.59525194640761" lon="11.386604483745113"><ele>158.0</ele><time>2026-04-10T14:11:43.999Z</time></trkpt><trkpt lat="45.595182705538065" lon="11.38650983425367"><ele>158.0</ele><time>2026-04-10T14:11:44.999Z</time></trkpt><trkpt lat="45.59511294836493" lon="11.386432527539082"><ele>158.0</ele><time>2026-04-10T14:11:45.999Z</time></trkpt><trkpt lat="45.59504788916936" lon="11.386395864670261"><ele>158.0</ele><time>2026-04-10T14:11:46.999Z</time></trkpt><trkpt lat="45.59497268217717" lon="11.386400682549874"><ele>158.0</ele><time>2026-04-10T14:11:47.999Z</time></trkpt><trkpt lat="45.59489355352491" lon="11.386370014364172"><ele>158.0</ele><time>2026-04-10T14:11:48.999Z</time></trkpt><trkpt lat="45.59481541662685" lon="11.386398095830435"><ele>158.0</ele><time>2026-04-10T14:11:49.999Z</time></trkpt><trkpt lat="45.594722773911826" lon="11.386356875173117"><ele>158.0</ele><time>2026-04-10T14:11:51.999Z</time></trkpt><trkpt lat="45.59478317409274" lon="11.386244795976035"><ele>156.6</ele><time>2026-04-10T14:11:54.999Z</time></trkpt><trkpt lat="45.594834934504135" lon="11.386157130547645"><ele>155.20000000000002</ele><time>2026-04-10T14:11:55.999Z</time></trkpt><trkpt lat="45.59486873184969" lon="11.386054334580127"><ele>153.8</ele><time>2026-04-10T14:11:56.999Z</time></trkpt><trkpt lat="45.59493272870341" lon="11.38596050181168"><ele>152.4</ele><time>2026-04-10T14:11:57.999Z</time></trkpt><trkpt lat="45.59502981189103" lon="11.385871797040235"><ele>151.0</ele><time>2026-04-10T14:11:58.999Z</time></trkpt><trkpt lat="45.59515129425988" lon="11.385814170763508"><ele>151.0</ele><time>2026-04-10T14:11:59.999Z</time></trkpt><trkpt lat="45.59527702878133" lon="11.385800590454854"><ele>151.0</ele><time>2026-04-10T14:12:00.999Z</time></trkpt><trkpt lat="45.59538557645377" lon="11.38582280310905"><ele>151.0</ele><time>2026-04-10T14:12:01.999Z</time></trkpt><trkpt lat="45.59546128249929" lon="11.385849711234965"><ele>151.0</ele><time>2026-04-10T14:12:02.999Z</time></trkpt><trkpt lat="45.59557216718036" lon="11.385837480084245"><ele>151.0</ele><time>2026-04-10T14:12:04.999Z</time></trkpt><trkpt lat="45.595646749260325" lon="11.385830065785624"><ele>151.25</ele><time>2026-04-10T14:12:05.999Z</time></trkpt><trkpt lat="45.59569946475073" lon="11.385604196813231"><ele>151.5</ele><time>2026-04-10T14:12:06.999Z</time></trkpt><trkpt lat="45.59577951505935" lon="11.385446027927133"><ele>151.75</ele><time>2026-04-10T14:12:07.999Z</time></trkpt><trkpt lat="45.595828000963344" lon="11.385265929463298"><ele>152.0</ele><time>2026-04-10T14:12:08.999Z</time></trkpt><trkpt lat="45.59586223168749" lon="11.385053612776913"><ele>151.5</ele><time>2026-04-10T14:12:09.999Z</time></trkpt><trkpt lat="45.595877637476356" lon="11.384824682659518"><ele>151.0</ele><time>2026-04-10T14:12:10.999Z</time></trkpt><trkpt lat="45.595890642432636" lon="11.384600519719395"><ele>150.5</ele><time>2026-04-10T14:12:11.999Z</time></trkpt><trkpt lat="45.595910750434165" lon="11.384416467221518"><ele>150.0</ele><time>2026-04-10T14:12:12.999Z</time></trkpt><trkpt lat="45.59593296035169" lon="11.384252847471286"><ele>150.0</ele><time>2026-04-10T14:12:13.999Z</time></trkpt><trkpt lat="45.59595584433063" lon="11.384124672737881"><ele>150.0</ele><time>2026-04-10T14:12:14.999Z</time></trkpt><trkpt lat="45.595993836861766" lon="11.384045161328123"><ele>150.0</ele><time>2026-04-10T14:12:15.998Z</time></trkpt><trkpt lat="45.596004527608955" lon="11.383888659638647"><ele>150.0</ele><time>2026-04-10T14:12:17.998Z</time></trkpt><trkpt lat="45.59601557197122" lon="11.383796584865962"><ele>150.0</ele><time>2026-04-10T14:12:18.998Z</time></trkpt><trkpt lat="45.59590167945258" lon="11.383770528850134"><ele>150.66666666666666</ele><time>2026-04-10T14:12:21.998Z</time></trkpt><trkpt lat="45.595761964561696" lon="11.38375837458756"><ele>151.33333333333331</ele><time>2026-04-10T14:12:22.998Z</time></trkpt><trkpt lat="45.59558870932634" lon="11.383767884603635"><ele>152.0</ele><time>2026-04-10T14:12:23.998Z</time></trkpt><trkpt lat="45.59539547400786" lon="11.38374893878118"><ele>152.0</ele><time>2026-04-10T14:12:24.998Z</time></trkpt><trkpt lat="45.59516789908036" lon="11.383723013773844"><ele>152.0</ele><time>2026-04-10T14:12:25.998Z</time></trkpt><trkpt lat="45.594925591359555" lon="11.383689096660557"><ele>152.0</ele><time>2026-04-10T14:12:26.998Z</time></trkpt><trkpt lat="45.59470227082568" lon="11.383658654199426"><ele>152.0</ele><time>2026-04-10T14:12:28Z</time></trkpt><trkpt lat="45.59449043508797" lon="11.383615820099685"><ele>152.0</ele><time>2026-04-10T14:12:29Z</time></trkpt><trkpt lat="45.594279055501985" lon="11.383588923361003"><ele>151.33333333333331</ele><time>2026-04-10T14:12:30Z</time></trkpt><trkpt lat="45.59407783139715" lon="11.38356989988322"><ele>150.66666666666666</ele><time>2026-04-10T14:12:31Z</time></trkpt><trkpt lat="45.59388444041466" lon="11.383551661801985"><ele>150.0</ele><time>2026-04-10T14:12:32Z</time></trkpt><trkpt lat="45.59369621493098" lon="11.383529201553571"><ele>150.33333333333334</ele><time>2026-04-10T14:12:33Z</time></trkpt><trkpt lat="45.59352011523948" lon="11.383516223725739"><ele>150.66666666666669</ele><time>2026-04-10T14:12:34Z</time></trkpt><trkpt lat="45.59335149720186" lon="11.383497957293416"><ele>151.0</ele><time>2026-04-10T14:12:35Z</time></trkpt><trkpt lat="45.5931776053254" lon="11.383471236696186"><ele>151.0</ele><time>2026-04-10T14:12:36Z</time></trkpt><trkpt lat="45.5929878514479" lon="11.383434465362146"><ele>151.0</ele><time>2026-04-10T14:12:37Z</time></trkpt><trkpt lat="45.592785621634164" lon="11.383409382340824"><ele>151.0</ele><time>2026-04-10T14:12:38Z</time></trkpt><trkpt lat="45.59257173214262" lon="11.383384530288822"><ele>150.5</ele><time>2026-04-10T14:12:39Z</time></trkpt><trkpt lat="45.59234572926351" lon="11.38335175025573"><ele>150.0</ele><time>2026-04-10T14:12:40Z</time></trkpt><trkpt lat="45.59212208985673" lon="11.38331950814088"><ele>150.0</ele><time>2026-04-10T14:12:41Z</time></trkpt><trkpt lat="45.59189639329461" lon="11.383296563050687"><ele>150.0</ele><time>2026-04-10T14:12:42Z</time></trkpt><trkpt lat="45.591666449100416" lon="11.383272310893553"><ele>150.0</ele><time>2026-04-10T14:12:43Z</time></trkpt><trkpt lat="45.591460810162744" lon="11.383268514655974"><ele>150.0</ele><time>2026-04-10T14:12:44Z</time></trkpt><trkpt lat="45.59126363037785" lon="11.38326830065648"><ele>150.0</ele><time>2026-04-10T14:12:45Z</time></trkpt><trkpt lat="45.59107638081413" lon="11.383272600814456"><ele>150.0</ele><time>2026-04-10T14:12:46Z</time></trkpt><trkpt lat="45.5908881678415" lon="11.383279739649923"><ele>150.0</ele><time>2026-04-10T14:12:47Z</time></trkpt><trkpt lat="45.590700247366456" lon="11.383279497862821"><ele>150.0</ele><time>2026-04-10T14:12:48Z</time></trkpt><trkpt lat="45.59052733945269" lon="11.383280270885164"><ele>150.0</ele><time>2026-04-10T14:12:49Z</time></trkpt><trkpt lat="45.590377449396264" lon="11.383273030330438"><ele>150.0</ele><time>2026-04-10T14:12:50Z</time></trkpt><trkpt lat="45.59024765506698" lon="11.3832716156338"><ele>150.0</ele><time>2026-04-10T14:12:51Z</time></trkpt><trkpt lat="45.59013054238069" lon="11.383271155602515"><ele>150.0</ele><time>2026-04-10T14:12:52Z</time></trkpt><trkpt lat="45.59003040356216" lon="11.383264476268618"><ele>149.8</ele><time>2026-04-10T14:12:53Z</time></trkpt><trkpt lat="45.58994151238925" lon="11.383224592607222"><ele>149.6</ele><time>2026-04-10T14:12:54Z</time></trkpt><trkpt lat="45.58987366393395" lon="11.383123315872398"><ele>149.4</ele><time>2026-04-10T14:12:55Z</time></trkpt><trkpt lat="45.58984465254287" lon="11.382983390681556"><ele>149.2</ele><time>2026-04-10T14:12:56Z</time></trkpt><trkpt lat="45.58984396857969" lon="11.382805980926111"><ele>149.0</ele><time>2026-04-10T14:12:57Z</time></trkpt><trkpt lat="45.58990603262187" lon="11.382613426153332"><ele>149.5</ele><time>2026-04-10T14:12:58Z</time></trkpt><trkpt lat="45.589908044765416" lon="11.382409947834955"><ele>150.0</ele><time>2026-04-10T14:12:59Z</time></trkpt><trkpt lat="45.58989149309782" lon="11.382225306465248"><ele>150.5</ele><time>2026-04-10T14:13:00Z</time></trkpt><trkpt lat="45.5898921913603" lon="11.382071399650792"><ele>151.0</ele><time>2026-04-10T14:13:01Z</time></trkpt><trkpt lat="45.589884358288025" lon="11.38193372008549"><ele>151.0</ele><time>2026-04-10T14:13:02Z</time></trkpt><trkpt lat="45.589876049522694" lon="11.381810508833366"><ele>151.0</ele><time>2026-04-10T14:13:03Z</time></trkpt><trkpt lat="45.58987591962768" lon="11.381716167835426"><ele>151.0</ele><time>2026-04-10T14:13:04Z</time></trkpt><trkpt lat="45.589893506693336" lon="11.38158736246762"><ele>151.0</ele><time>2026-04-10T14:13:06Z</time></trkpt><trkpt lat="45.58972366880548" lon="11.381628312523162"><ele>151.0</ele><time>2026-04-10T14:13:07Z</time></trkpt><trkpt lat="45.589599899836266" lon="11.38162602690526"><ele>150.33333333333334</ele><time>2026-04-10T14:13:08Z</time></trkpt><trkpt lat="45.58945478189701" lon="11.381624133057924"><ele>149.66666666666666</ele><time>2026-04-10T14:13:09Z</time></trkpt><trkpt lat="45.58930640569895" lon="11.381645437684059"><ele>149.0</ele><time>2026-04-10T14:13:09.999Z</time></trkpt><trkpt lat="45.58913643926226" lon="11.381674908584806"><ele>149.0</ele><time>2026-04-10T14:13:10.999Z</time></trkpt><trkpt lat="45.5889499657853" lon="11.381712374427043"><ele>149.0</ele><time>2026-04-10T14:13:11.999Z</time></trkpt><trkpt lat="45.588725773110866" lon="11.381771020214838"><ele>149.0</ele><time>2026-04-10T14:13:12.999Z</time></trkpt><trkpt lat="45.58846512747488" lon="11.38183675099268"><ele>148.0</ele><time>2026-04-10T14:13:13.999Z</time></trkpt><trkpt lat="45.5881876040343" lon="11.381912000977087"><ele>147.0</ele><time>2026-04-10T14:13:14.999Z</time></trkpt><trkpt lat="45.58789463835363" lon="11.382025810342729"><ele>147.0</ele><time>2026-04-10T14:13:15.999Z</time></trkpt><trkpt lat="45.587589118611035" lon="11.382148491109225"><ele>147.0</ele><time>2026-04-10T14:13:16.999Z</time></trkpt><trkpt lat="45.58731745981548" lon="11.382246616630086"><ele>146.5</ele><time>2026-04-10T14:13:17.999Z</time></trkpt><trkpt lat="45.58705655815528" lon="11.382336708044766"><ele>146.0</ele><time>2026-04-10T14:13:18.999Z</time></trkpt><trkpt lat="45.58679497867261" lon="11.382431366862154"><ele>146.0</ele><time>2026-04-10T14:13:19.999Z</time></trkpt><trkpt lat="45.58655511762134" lon="11.382511986399404"><ele>146.0</ele><time>2026-04-10T14:13:20.999Z</time></trkpt><trkpt lat="45.586332168430175" lon="11.382588544094673"><ele>145.66666666666666</ele><time>2026-04-10T14:13:21.999Z</time></trkpt><trkpt lat="45.586127634703885" lon="11.382666984973245"><ele>145.33333333333334</ele><time>2026-04-10T14:13:22.999Z</time></trkpt><trkpt lat="45.58593680268439" lon="11.382740697412633"><ele>145.0</ele><time>2026-04-10T14:13:23.999Z</time></trkpt><trkpt lat="45.58575892996975" lon="11.382818122379334"><ele>145.0</ele><time>2026-04-10T14:13:24.999Z</time></trkpt><trkpt lat="45.585595453309985" lon="11.382907020244497"><ele>145.0</ele><time>2026-04-10T14:13:25.999Z</time></trkpt><trkpt lat="45.585465005731805" lon="11.383064241468634"><ele>145.0</ele><time>2026-04-10T14:13:26.999Z</time></trkpt><trkpt lat="45.58536773099186" lon="11.383240904841546"><ele>144.66666666666669</ele><time>2026-04-10T14:13:27.999Z</time></trkpt><trkpt lat="45.5852957965285" lon="11.383443677730488"><ele>144.33333333333334</ele><time>2026-04-10T14:13:28.999Z</time></trkpt><trkpt lat="45.58524845615289" lon="11.383662836545797"><ele>144.0</ele><time>2026-04-10T14:13:29.999Z</time></trkpt><trkpt lat="45.585243313602255" lon="11.383899198359604"><ele>143.66666666666666</ele><time>2026-04-10T14:13:30.999Z</time></trkpt><trkpt lat="45.585271545954825" lon="11.38416743876909"><ele>143.33333333333331</ele><time>2026-04-10T14:13:31.999Z</time></trkpt><trkpt lat="45.58532064573259" lon="11.384466748282101"><ele>143.0</ele><time>2026-04-10T14:13:32.999Z</time></trkpt><trkpt lat="45.58537236939464" lon="11.384782983074794"><ele>143.0</ele><time>2026-04-10T14:13:33.999Z</time></trkpt><trkpt lat="45.58542443880353" lon="11.385079473068055"><ele>143.0</ele><time>2026-04-10T14:13:34.999Z</time></trkpt><trkpt lat="45.585446283645105" lon="11.385351961417673"><ele>143.0</ele><time>2026-04-10T14:13:35.999Z</time></trkpt><trkpt lat="45.58538594519031" lon="11.385604778936273"><ele>143.33333333333331</ele><time>2026-04-10T14:13:36.999Z</time></trkpt><trkpt lat="45.585293727166906" lon="11.385838188555416"><ele>143.66666666666666</ele><time>2026-04-10T14:13:37.999Z</time></trkpt><trkpt lat="45.58516284395247" lon="11.386019700489726"><ele>144.0</ele><time>2026-04-10T14:13:38.999Z</time></trkpt><trkpt lat="45.58500787644755" lon="11.386144862405672"><ele>144.0</ele><time>2026-04-10T14:13:39.999Z</time></trkpt><trkpt lat="45.584829723556574" lon="11.386237728787519"><ele>144.0</ele><time>2026-04-10T14:13:40.999Z</time></trkpt><trkpt lat="45.584660630440524" lon="11.386302664620745"><ele>144.0</ele><time>2026-04-10T14:13:41.999Z</time></trkpt><trkpt lat="45.58442178971192" lon="11.386401899496608"><ele>144.5</ele><time>2026-04-10T14:13:42.999Z</time></trkpt><trkpt lat="45.58419541520554" lon="11.386475859784081"><ele>145.0</ele><time>2026-04-10T14:13:43.999Z</time></trkpt><trkpt lat="45.583970759603964" lon="11.386557342386736"><ele>145.0</ele><time>2026-04-10T14:13:44.999Z</time></trkpt><trkpt lat="45.58377387324587" lon="11.386624050165434"><ele>145.0</ele><time>2026-04-10T14:13:45.999Z</time></trkpt><trkpt lat="45.583585785974044" lon="11.38668671001784"><ele>145.0</ele><time>2026-04-10T14:13:46.999Z</time></trkpt><trkpt lat="45.58342146007408" lon="11.386757868707697"><ele>144.0</ele><time>2026-04-10T14:13:47.999Z</time></trkpt><trkpt lat="45.58326160646898" lon="11.386815546354102"><ele>143.0</ele><time>2026-04-10T14:13:48.999Z</time></trkpt><trkpt lat="45.58311355998404" lon="11.386871535069211"><ele>142.0</ele><time>2026-04-10T14:13:49.999Z</time></trkpt><trkpt lat="45.5829688950186" lon="11.386928334886408"><ele>141.75</ele><time>2026-04-10T14:13:50.999Z</time></trkpt><trkpt lat="45.582828312001304" lon="11.38697035615453"><ele>141.5</ele><time>2026-04-10T14:13:51.999Z</time></trkpt><trkpt lat="45.582700365460994" lon="11.38701549401937"><ele>141.25</ele><time>2026-04-10T14:13:52.999Z</time></trkpt><trkpt lat="45.58258707476471" lon="11.387057464837971"><ele>141.0</ele><time>2026-04-10T14:13:53.999Z</time></trkpt><trkpt lat="45.58250142902978" lon="11.387081810069672"><ele>141.0</ele><time>2026-04-10T14:13:54.999Z</time></trkpt><trkpt lat="45.58242197213939" lon="11.387096081293336"><ele>141.0</ele><time>2026-04-10T14:13:55.999Z</time></trkpt><trkpt lat="45.582348396597084" lon="11.38710953611613"><ele>141.0</ele><time>2026-04-10T14:13:56.999Z</time></trkpt><trkpt lat="45.58225167915918" lon="11.387112397123452"><ele>141.0</ele><time>2026-04-10T14:13:58.999Z</time></trkpt><trkpt lat="45.58214500410192" lon="11.387108174306187"><ele>141.0</ele><time>2026-04-10T14:14:00.999Z</time></trkpt><trkpt lat="45.58208320412339" lon="11.387074436693341"><ele>141.0</ele><time>2026-04-10T14:14:01.999Z</time></trkpt><trkpt lat="45.58194225999176" lon="11.38699589727714"><ele>141.16666666666666</ele><time>2026-04-10T14:14:03.999Z</time></trkpt><trkpt lat="45.581874895130575" lon="11.387035107761807"><ele>141.33333333333334</ele><time>2026-04-10T14:14:04.999Z</time></trkpt><trkpt lat="45.58183639336034" lon="11.387121608324035"><ele>141.5</ele><time>2026-04-10T14:14:05.999Z</time></trkpt><trkpt lat="45.58183190974365" lon="11.387236772756895"><ele>141.66666666666669</ele><time>2026-04-10T14:14:06.999Z</time></trkpt><trkpt lat="45.58183971919805" lon="11.387349060189349"><ele>141.83333333333334</ele><time>2026-04-10T14:14:07.999Z</time></trkpt><trkpt lat="45.58185469535136" lon="11.387453434154448"><ele>142.0</ele><time>2026-04-10T14:14:08.999Z</time></trkpt><trkpt lat="45.58185988464109" lon="11.387563585229442"><ele>142.0</ele><time>2026-04-10T14:14:09.999Z</time></trkpt><trkpt lat="45.58185148499814" lon="11.387678241701972"><ele>142.0</ele><time>2026-04-10T14:14:10.999Z</time></trkpt><trkpt lat="45.581849531328814" lon="11.387812018053747"><ele>142.0</ele><time>2026-04-10T14:14:11.999Z</time></trkpt><trkpt lat="45.58187169933669" lon="11.38795520243455"><ele>142.0</ele><time>2026-04-10T14:14:12.999Z</time></trkpt><trkpt lat="45.5819272528346" lon="11.388101423261858"><ele>142.0</ele><time>2026-04-10T14:14:13.999Z</time></trkpt><trkpt lat="45.5819373152417" lon="11.388199353780289"><ele>142.0</ele><time>2026-04-10T14:14:14.999Z</time></trkpt><trkpt lat="45.58195275874614" lon="11.388323633873481"><ele>142.0</ele><time>2026-04-10T14:14:15.999Z</time></trkpt><trkpt lat="45.58197539715028" lon="11.388441055816948"><ele>142.0</ele><time>2026-04-10T14:14:16.999Z</time></trkpt><trkpt lat="45.58199841873286" lon="11.38856335324395"><ele>142.0</ele><time>2026-04-10T14:14:17.999Z</time></trkpt><trkpt lat="45.5820198456701" lon="11.388690591034278"><ele>142.0</ele><time>2026-04-10T14:14:18.999Z</time></trkpt><trkpt lat="45.58204317201679" lon="11.388822316409495"><ele>142.0</ele><time>2026-04-10T14:14:19.999Z</time></trkpt><trkpt lat="45.582066463244985" lon="11.388970092866057"><ele>142.0</ele><time>2026-04-10T14:14:20.999Z</time></trkpt><trkpt lat="45.582094580567414" lon="11.389117549414728"><ele>142.0</ele><time>2026-04-10T14:14:21.999Z</time></trkpt><trkpt lat="45.58212026610519" lon="11.389270049465246"><ele>142.0</ele><time>2026-04-10T14:14:22.999Z</time></trkpt><trkpt lat="45.58214153017982" lon="11.389417263691003"><ele>142.0</ele><time>2026-04-10T14:14:23.999Z</time></trkpt><trkpt lat="45.58215412882838" lon="11.389552222160061"><ele>142.0</ele><time>2026-04-10T14:14:24.999Z</time></trkpt><trkpt lat="45.58216290359858" lon="11.389670243706233"><ele>141.83333333333334</ele><time>2026-04-10T14:14:25.999Z</time></trkpt><trkpt lat="45.58217640506824" lon="11.389778815371297"><ele>141.66666666666669</ele><time>2026-04-10T14:14:26.999Z</time></trkpt><trkpt lat="45.58220765152297" lon="11.389914373507276"><ele>141.5</ele><time>2026-04-10T14:14:28.999Z</time></trkpt><trkpt lat="45.582236164050414" lon="11.390031526023659"><ele>141.33333333333334</ele><time>2026-04-10T14:14:31.999Z</time></trkpt><trkpt lat="45.58226187343393" lon="11.390178137849642"><ele>141.16666666666666</ele><time>2026-04-10T14:14:34Z</time></trkpt><trkpt lat="45.58227594704103" lon="11.39029000390591"><ele>141.0</ele><time>2026-04-10T14:14:35Z</time></trkpt><trkpt lat="45.58229434834228" lon="11.390406516368373"><ele>140.8</ele><time>2026-04-10T14:14:36Z</time></trkpt><trkpt lat="45.58231271521997" lon="11.390521738094217"><ele>140.6</ele><time>2026-04-10T14:14:37Z</time></trkpt><trkpt lat="45.582342143036165" lon="11.390653909398758"><ele>140.4</ele><time>2026-04-10T14:14:38Z</time></trkpt><trkpt lat="45.58237141921552" lon="11.390787151963119"><ele>140.2</ele><time>2026-04-10T14:14:39Z</time></trkpt><trkpt lat="45.58239846485858" lon="11.390948350850449"><ele>140.0</ele><time>2026-04-10T14:14:40Z</time></trkpt><trkpt lat="45.58242973332584" lon="11.391122581121085"><ele>140.0</ele><time>2026-04-10T14:14:41Z</time></trkpt><trkpt lat="45.58246039773081" lon="11.391291025683614"><ele>140.0</ele><time>2026-04-10T14:14:42Z</time></trkpt><trkpt lat="45.58248804300471" lon="11.391443659984995"><ele>140.0</ele><time>2026-04-10T14:14:43Z</time></trkpt><trkpt lat="45.58251018154498" lon="11.391589148550615"><ele>140.0</ele><time>2026-04-10T14:14:44Z</time></trkpt><trkpt lat="45.58254626638243" lon="11.391756085646344"><ele>139.66666666666666</ele><time>2026-04-10T14:14:45Z</time></trkpt><trkpt lat="45.58258547411857" lon="11.3919562685843"><ele>139.33333333333334</ele><time>2026-04-10T14:14:46Z</time></trkpt><trkpt lat="45.5826300246609" lon="11.392173782801276"><ele>139.0</ele><time>2026-04-10T14:14:47Z</time></trkpt><trkpt lat="45.58266702703533" lon="11.392387233678663"><ele>139.0</ele><time>2026-04-10T14:14:48Z</time></trkpt><trkpt lat="45.58270395416415" lon="11.392593881964348"><ele>139.0</ele><time>2026-04-10T14:14:49Z</time></trkpt><trkpt lat="45.58273490278024" lon="11.392788154049283"><ele>139.0</ele><time>2026-04-10T14:14:50Z</time></trkpt><trkpt lat="45.58276757469679" lon="11.392976325834963"><ele>139.0</ele><time>2026-04-10T14:14:51Z</time></trkpt><trkpt lat="45.58280648778577" lon="11.393183220316864"><ele>139.0</ele><time>2026-04-10T14:14:52Z</time></trkpt><trkpt lat="45.582835629428224" lon="11.393387594994845"><ele>139.0</ele><time>2026-04-10T14:14:53Z</time></trkpt><trkpt lat="45.58286976649981" lon="11.393575649762322"><ele>139.0</ele><time>2026-04-10T14:14:54Z</time></trkpt><trkpt lat="45.58290242771563" lon="11.393743079143263"><ele>139.0</ele><time>2026-04-10T14:14:55Z</time></trkpt><trkpt lat="45.5829384324911" lon="11.393910933638534"><ele>139.0</ele><time>2026-04-10T14:14:56Z</time></trkpt><trkpt lat="45.582974618359856" lon="11.394104406244159"><ele>139.0</ele><time>2026-04-10T14:14:57Z</time></trkpt><trkpt lat="45.58299947705095" lon="11.394299695220692"><ele>139.0</ele><time>2026-04-10T14:14:58Z</time></trkpt><trkpt lat="45.583015905325674" lon="11.394466022001113"><ele>139.0</ele><time>2026-04-10T14:14:59Z</time></trkpt><trkpt lat="45.583029587272584" lon="11.394615518516426"><ele>139.0</ele><time>2026-04-10T14:15:00Z</time></trkpt><trkpt lat="45.58305075324656" lon="11.394758303503567"><ele>139.0</ele><time>2026-04-10T14:15:01Z</time></trkpt><trkpt lat="45.58308370395646" lon="11.39491359406185"><ele>139.0</ele><time>2026-04-10T14:15:02Z</time></trkpt><trkpt lat="45.58312302076574" lon="11.395094358268956"><ele>139.0</ele><time>2026-04-10T14:15:03Z</time></trkpt><trkpt lat="45.58316696503804" lon="11.395287174871228"><ele>139.0</ele><time>2026-04-10T14:15:04Z</time></trkpt><trkpt lat="45.58322073044076" lon="11.395483287149478"><ele>139.0</ele><time>2026-04-10T14:15:05Z</time></trkpt><trkpt lat="45.583277245951074" lon="11.395690131498334"><ele>139.0</ele><time>2026-04-10T14:15:06Z</time></trkpt><trkpt lat="45.58334093204284" lon="11.39587726776624"><ele>139.0</ele><time>2026-04-10T14:15:07Z</time></trkpt><trkpt lat="45.58340873677761" lon="11.396056451018222"><ele>139.0</ele><time>2026-04-10T14:15:08Z</time></trkpt><trkpt lat="45.58349476267479" lon="11.396239851506222"><ele>139.0</ele><time>2026-04-10T14:15:09Z</time></trkpt><trkpt lat="45.58358927039609" lon="11.396423340316257"><ele>139.0</ele><time>2026-04-10T14:15:10Z</time></trkpt><trkpt lat="45.583693803741504" lon="11.396613406561528"><ele>140.0</ele><time>2026-04-10T14:15:11Z</time></trkpt><trkpt lat="45.58379755293035" lon="11.39680489174607"><ele>141.0</ele><time>2026-04-10T14:15:12Z</time></trkpt><trkpt lat="45.58389270874244" lon="11.396980483072532"><ele>142.0</ele><time>2026-04-10T14:15:13Z</time></trkpt><trkpt lat="45.5839849475852" lon="11.397152729995465"><ele>142.25</ele><time>2026-04-10T14:15:14Z</time></trkpt><trkpt lat="45.58407619884216" lon="11.397322498796843"><ele>142.5</ele><time>2026-04-10T14:15:15Z</time></trkpt><trkpt lat="45.584165044110875" lon="11.397485887245585"><ele>142.75</ele><time>2026-04-10T14:15:16Z</time></trkpt><trkpt lat="45.584253592938936" lon="11.397655185901115"><ele>143.0</ele><time>2026-04-10T14:15:17Z</time></trkpt><trkpt lat="45.58434610705177" lon="11.397821425362407"><ele>143.0</ele><time>2026-04-10T14:15:18Z</time></trkpt><trkpt lat="45.58443886233455" lon="11.397986204914565"><ele>143.0</ele><time>2026-04-10T14:15:19Z</time></trkpt><trkpt lat="45.58452669810065" lon="11.398143204944326"><ele>143.0</ele><time>2026-04-10T14:15:20Z</time></trkpt><trkpt lat="45.584611479917235" lon="11.398291387065802"><ele>143.0</ele><time>2026-04-10T14:15:21Z</time></trkpt><trkpt lat="45.58469016645998" lon="11.398441673267193"><ele>144.20000000000002</ele><time>2026-04-10T14:15:22Z</time></trkpt><trkpt lat="45.58476861158338" lon="11.398590837672625"><ele>145.4</ele><time>2026-04-10T14:15:23Z</time></trkpt><trkpt lat="45.58484053613474" lon="11.3987323390793"><ele>146.60000000000002</ele><time>2026-04-10T14:15:24Z</time></trkpt><trkpt lat="45.58489323751524" lon="11.398847374253464"><ele>147.8</ele><time>2026-04-10T14:15:25Z</time></trkpt><trkpt lat="45.584937837617765" lon="11.398947183069296"><ele>149.0</ele><time>2026-04-10T14:15:26Z</time></trkpt><trkpt lat="45.58497174680371" lon="11.399024699835277"><ele>149.0</ele><time>2026-04-10T14:15:27Z</time></trkpt><trkpt lat="45.58496223010362" lon="11.399123484240993"><ele>149.0</ele><time>2026-04-10T14:15:30Z</time></trkpt><trkpt lat="45.584930520791275" lon="11.399326882165914"><ele>149.0</ele><time>2026-04-10T14:15:32Z</time></trkpt><trkpt lat="45.58484219106528" lon="11.399020601226438"><ele>149.0</ele><time>2026-04-10T14:15:34Z</time></trkpt><trkpt lat="45.58493512308594" lon="11.398827393704288"><ele>149.25</ele><time>2026-04-10T14:15:37Z</time></trkpt><trkpt lat="45.584798936366035" lon="11.398876304879787"><ele>149.5</ele><time>2026-04-10T14:15:45.999Z</time></trkpt><trkpt lat="45.58486164075368" lon="11.398846935428573"><ele>149.75</ele><time>2026-04-10T14:19:06Z</time></trkpt><trkpt lat="45.58496327663574" lon="11.399046556995277"><ele>150.0</ele><time>2026-04-10T14:19:09Z</time></trkpt><trkpt lat="45.58501271310678" lon="11.399165287291055"><ele>150.0</ele><time>2026-04-10T14:19:10Z</time></trkpt><trkpt lat="45.58511860893994" lon="11.3992590775171"><ele>150.0</ele><time>2026-04-10T14:19:11Z</time></trkpt><trkpt lat="45.58517185906878" lon="11.399426237083668"><ele>150.0</ele><time>2026-04-10T14:19:12Z</time></trkpt><trkpt lat="45.58526312746433" lon="11.399542116491705"><ele>150.0</ele><time>2026-04-10T14:19:13Z</time></trkpt><trkpt lat="45.585333007430805" lon="11.399657566745823"><ele>152.4</ele><time>2026-04-10T14:19:14Z</time></trkpt><trkpt lat="45.58539233679288" lon="11.39975161521613"><ele>154.8</ele><time>2026-04-10T14:19:15Z</time></trkpt><trkpt lat="45.58543529578304" lon="11.39983305192779"><ele>157.2</ele><time>2026-04-10T14:19:16Z</time></trkpt><trkpt lat="45.58545788803106" lon="11.399919092088567"><ele>159.6</ele><time>2026-04-10T14:19:17Z</time></trkpt><trkpt lat="45.58529950958466" lon="11.400033990774002"><ele>162.0</ele><time>2026-04-10T14:19:19.999Z</time></trkpt><trkpt lat="45.58521947574681" lon="11.400086213412521"><ele>162.25</ele><time>2026-04-10T14:19:20.999Z</time></trkpt><trkpt lat="45.58517544090112" lon="11.400225841211926"><ele>162.5</ele><time>2026-04-10T14:19:21.999Z</time></trkpt><trkpt lat="45.58515735870617" lon="11.40039752404234"><ele>162.75</ele><time>2026-04-10T14:19:22.999Z</time></trkpt><trkpt lat="45.58517386212241" lon="11.400578869243951"><ele>163.0</ele><time>2026-04-10T14:19:23.999Z</time></trkpt><trkpt lat="45.585199029433724" lon="11.400727528087284"><ele>163.8</ele><time>2026-04-10T14:19:24.999Z</time></trkpt><trkpt lat="45.585211924161214" lon="11.400878489630358"><ele>164.60000000000002</ele><time>2026-04-10T14:19:25.999Z</time></trkpt><trkpt lat="45.58515469482727" lon="11.400992486137634"><ele>165.39999999999998</ele><time>2026-04-10T14:19:26.999Z</time></trkpt><trkpt lat="45.58508756249897" lon="11.401116450370496"><ele>166.2</ele><time>2026-04-10T14:19:27.999Z</time></trkpt><trkpt lat="45.585002209147426" lon="11.401219493523236"><ele>167.0</ele><time>2026-04-10T14:19:28.999Z</time></trkpt><trkpt lat="45.584902884323455" lon="11.401334406194348"><ele>167.0</ele><time>2026-04-10T14:19:29.999Z</time></trkpt><trkpt lat="45.584814200849955" lon="11.401493767941547"><ele>167.0</ele><time>2026-04-10T14:19:30.999Z</time></trkpt><trkpt lat="45.58471943728603" lon="11.401657341576302"><ele>167.0</ele><time>2026-04-10T14:19:31.999Z</time></trkpt><trkpt lat="45.584635095581504" lon="11.401839336788372"><ele>167.0</ele><time>2026-04-10T14:19:32.999Z</time></trkpt><trkpt lat="45.58456203845434" lon="11.402005365303484"><ele>171.75</ele><time>2026-04-10T14:19:33.999Z</time></trkpt><trkpt lat="45.58448190820259" lon="11.40212016074044"><ele>176.5</ele><time>2026-04-10T14:19:34.999Z</time></trkpt><trkpt lat="45.584402673824435" lon="11.40220244551886"><ele>181.25</ele><time>2026-04-10T14:19:35.999Z</time></trkpt><trkpt lat="45.58430128031289" lon="11.402236640581815"><ele>186.0</ele><time>2026-04-10T14:19:36.999Z</time></trkpt><trkpt lat="45.584168072260816" lon="11.402273263725164"><ele>186.0</ele><time>2026-04-10T14:19:37.999Z</time></trkpt><trkpt lat="45.58402341309694" lon="11.402306387889292"><ele>186.0</ele><time>2026-04-10T14:19:38.999Z</time></trkpt><trkpt lat="45.583857719900934" lon="11.402339650415966"><ele>186.0</ele><time>2026-04-10T14:19:39.999Z</time></trkpt><trkpt lat="45.58367831331375" lon="11.402378262329615"><ele>191.0</ele><time>2026-04-10T14:19:40.999Z</time></trkpt><trkpt lat="45.58353239384319" lon="11.402436665522044"><ele>196.0</ele><time>2026-04-10T14:19:41.999Z</time></trkpt><trkpt lat="45.58341009203964" lon="11.402478953148098"><ele>201.0</ele><time>2026-04-10T14:19:42.999Z</time></trkpt><trkpt lat="45.58330406813637" lon="11.40252492012316"><ele>206.0</ele><time>2026-04-10T14:19:43.999Z</time></trkpt><trkpt lat="45.58321648949969" lon="11.402562725414166"><ele>206.00000000000003</ele><time>2026-04-10T14:19:44.999Z</time></trkpt><trkpt lat="45.583139959071644" lon="11.402594814304706"><ele>206.0</ele><time>2026-04-10T14:19:45.999Z</time></trkpt><trkpt lat="45.58307436951389" lon="11.402629838674414"><ele>206.0</ele><time>2026-04-10T14:19:46.999Z</time></trkpt><trkpt lat="45.58303299988464" lon="11.40270240917203"><ele>206.0</ele><time>2026-04-10T14:19:47.999Z</time></trkpt><trkpt lat="45.58304233697863" lon="11.402838720266784"><ele>206.00000000000003</ele><time>2026-04-10T14:19:48.999Z</time></trkpt><trkpt lat="45.58307752444495" lon="11.402979618113305"><ele>206.0</ele><time>2026-04-10T14:19:49.999Z</time></trkpt><trkpt lat="45.583127541825235" lon="11.403139050122565"><ele>205.0</ele><time>2026-04-10T14:19:50.999Z</time></trkpt><trkpt lat="45.5831948012475" lon="11.403270101491147"><ele>204.0</ele><time>2026-04-10T14:19:51.999Z</time></trkpt><trkpt lat="45.583231730048134" lon="11.403364044861712"><ele>203.0</ele><time>2026-04-10T14:19:52.999Z</time></trkpt><trkpt lat="45.58321553302867" lon="11.40348555292809"><ele>202.0</ele><time>2026-04-10T14:19:54.999Z</time></trkpt><trkpt lat="45.5830713302563" lon="11.403414695499023"><ele>201.0</ele><time>2026-04-10T14:19:56.999Z</time></trkpt><trkpt lat="45.58296823511444" lon="11.403421050497832"><ele>201.0</ele><time>2026-04-10T14:19:57.999Z</time></trkpt><trkpt lat="45.58288203252074" lon="11.403549220742933"><ele>201.0</ele><time>2026-04-10T14:19:58.999Z</time></trkpt><trkpt lat="45.58281162501942" lon="11.40371762181323"><ele>201.0</ele><time>2026-04-10T14:19:59.999Z</time></trkpt><trkpt lat="45.58274467560068" lon="11.403871635681377"><ele>201.0</ele><time>2026-04-10T14:20:00.999Z</time></trkpt><trkpt lat="45.5826471069711" lon="11.403996896275414"><ele>203.20000000000002</ele><time>2026-04-10T14:20:01.999Z</time></trkpt><trkpt lat="45.58255633319023" lon="11.404065341726353"><ele>205.4</ele><time>2026-04-10T14:20:02.999Z</time></trkpt><trkpt lat="45.58246552766972" lon="11.404118842803255"><ele>207.6</ele><time>2026-04-10T14:20:03.999Z</time></trkpt><trkpt lat="45.58236592309561" lon="11.404080014723007"><ele>209.8</ele><time>2026-04-10T14:20:04.999Z</time></trkpt><trkpt lat="45.58227321203182" lon="11.403998530099459"><ele>212.0</ele><time>2026-04-10T14:20:05.999Z</time></trkpt><trkpt lat="45.582209104729124" lon="11.403858904914674"><ele>213.0</ele><time>2026-04-10T14:20:06.999Z</time></trkpt><trkpt lat="45.582143337364215" lon="11.403695787911788"><ele>214.0</ele><time>2026-04-10T14:20:07.999Z</time></trkpt><trkpt lat="45.58206176405339" lon="11.40350638172865"><ele>215.0</ele><time>2026-04-10T14:20:08.999Z</time></trkpt><trkpt lat="45.58195387875903" lon="11.403294309372004"><ele>215.33333333333334</ele><time>2026-04-10T14:20:09.999Z</time></trkpt><trkpt lat="45.58182962607975" lon="11.403054794303031"><ele>215.66666666666669</ele><time>2026-04-10T14:20:10.999Z</time></trkpt><trkpt lat="45.58171332734228" lon="11.402819025673848"><ele>216.0</ele><time>2026-04-10T14:20:11.999Z</time></trkpt><trkpt lat="45.581597900855144" lon="11.402639899995586"><ele>219.33333333333331</ele><time>2026-04-10T14:20:12.999Z</time></trkpt><trkpt lat="45.581426875306995" lon="11.402549737560292"><ele>222.66666666666666</ele><time>2026-04-10T14:20:13.999Z</time></trkpt><trkpt lat="45.58124417856271" lon="11.402514819701034"><ele>226.0</ele><time>2026-04-10T14:20:14.999Z</time></trkpt><trkpt lat="45.58104196812856" lon="11.402518116490656"><ele>227.33333333333331</ele><time>2026-04-10T14:20:15.999Z</time></trkpt><trkpt lat="45.580850398635434" lon="11.402494269055552"><ele>228.66666666666669</ele><time>2026-04-10T14:20:16.999Z</time></trkpt><trkpt lat="45.58066490768157" lon="11.402465362480749"><ele>230.0</ele><time>2026-04-10T14:20:17.999Z</time></trkpt><trkpt lat="45.58051589208248" lon="11.402433031466025"><ele>230.0</ele><time>2026-04-10T14:20:18.999Z</time></trkpt><trkpt lat="45.58036106014636" lon="11.402432518315116"><ele>230.0</ele><time>2026-04-10T14:20:19.999Z</time></trkpt><trkpt lat="45.58024944320422" lon="11.402502227222806"><ele>230.0</ele><time>2026-04-10T14:20:20.999Z</time></trkpt><trkpt lat="45.58019218814936" lon="11.402744563094528"><ele>230.25</ele><time>2026-04-10T14:20:21.999Z</time></trkpt><trkpt lat="45.58013522376789" lon="11.40295312682632"><ele>230.5</ele><time>2026-04-10T14:20:22.999Z</time></trkpt><trkpt lat="45.58011648098868" lon="11.4031523681857"><ele>230.75</ele><time>2026-04-10T14:20:23.999Z</time></trkpt><trkpt lat="45.58006262129153" lon="11.403304710025594"><ele>231.0</ele><time>2026-04-10T14:20:24.999Z</time></trkpt><trkpt lat="45.58000822186635" lon="11.403400463636725"><ele>231.0</ele><time>2026-04-10T14:20:25.999Z</time></trkpt><trkpt lat="45.57989167167737" lon="11.403401267268059"><ele>231.0</ele><time>2026-04-10T14:20:26.999Z</time></trkpt><trkpt lat="45.57973737807802" lon="11.403426968549658"><ele>231.0</ele><time>2026-04-10T14:20:27.999Z</time></trkpt><trkpt lat="45.57957948058154" lon="11.403451204967489"><ele>231.0</ele><time>2026-04-10T14:20:28.999Z</time></trkpt><trkpt lat="45.579382164704754" lon="11.403467581453254"><ele>232.0</ele><time>2026-04-10T14:20:29.999Z</time></trkpt><trkpt lat="45.57921916579632" lon="11.40341599343913"><ele>233.0</ele><time>2026-04-10T14:20:30.999Z</time></trkpt><trkpt lat="45.57904518979667" lon="11.403302573931448"><ele>234.0</ele><time>2026-04-10T14:20:31.999Z</time></trkpt><trkpt lat="45.57887710744882" lon="11.403155472965887"><ele>235.66666666666669</ele><time>2026-04-10T14:20:32.999Z</time></trkpt><trkpt lat="45.578760763292216" lon="11.40297529028754"><ele>237.33333333333334</ele><time>2026-04-10T14:20:33.999Z</time></trkpt><trkpt lat="45.5786539026024" lon="11.402774237638697"><ele>239.0</ele><time>2026-04-10T14:20:34.999Z</time></trkpt><trkpt lat="45.57854465848307" lon="11.402565576539342"><ele>239.0</ele><time>2026-04-10T14:20:35.999Z</time></trkpt><trkpt lat="45.57842902233988" lon="11.402346019163446"><ele>239.0</ele><time>2026-04-10T14:20:36.999Z</time></trkpt><trkpt lat="45.57829909958307" lon="11.402117573166876"><ele>239.0</ele><time>2026-04-10T14:20:37.999Z</time></trkpt><trkpt lat="45.57818324141214" lon="11.401898265335248"><ele>238.6</ele><time>2026-04-10T14:20:38.999Z</time></trkpt><trkpt lat="45.57807191285451" lon="11.401706911276506"><ele>238.2</ele><time>2026-04-10T14:20:39.999Z</time></trkpt><trkpt lat="45.578001764467174" lon="11.401597406381214"><ele>237.79999999999998</ele><time>2026-04-10T14:20:40.999Z</time></trkpt><trkpt lat="45.57795071471489" lon="11.401532590608758"><ele>237.39999999999998</ele><time>2026-04-10T14:20:41.999Z</time></trkpt><trkpt lat="45.57788726548885" lon="11.401478885823352"><ele>237.0</ele><time>2026-04-10T14:20:42.999Z</time></trkpt><trkpt lat="45.577812242221434" lon="11.40149052410983"><ele>237.0</ele><time>2026-04-10T14:20:43.999Z</time></trkpt><trkpt lat="45.57771313311322" lon="11.401608767926842"><ele>237.0</ele><time>2026-04-10T14:20:44.999Z</time></trkpt><trkpt lat="45.5776068660193" lon="11.401630129136905"><ele>237.0</ele><time>2026-04-10T14:20:45.999Z</time></trkpt><trkpt lat="45.57748420097425" lon="11.401630476108805"><ele>237.0</ele><time>2026-04-10T14:20:46.999Z</time></trkpt><trkpt lat="45.577356891305804" lon="11.401540194553979"><ele>237.0</ele><time>2026-04-10T14:20:47.999Z</time></trkpt><trkpt lat="45.57723388812351" lon="11.401441468404425"><ele>237.0</ele><time>2026-04-10T14:20:48.999Z</time></trkpt><trkpt lat="45.57708109077761" lon="11.401320621880243"><ele>237.0</ele><time>2026-04-10T14:20:49.999Z</time></trkpt><trkpt lat="45.576922082627476" lon="11.401247151470068"><ele>238.0</ele><time>2026-04-10T14:20:50.999Z</time></trkpt><trkpt lat="45.57675124166441" lon="11.401146246629379"><ele>239.0</ele><time>2026-04-10T14:20:52Z</time></trkpt><trkpt lat="45.57660409631285" lon="11.401062007536915"><ele>240.0</ele><time>2026-04-10T14:20:53Z</time></trkpt><trkpt lat="45.57647661432299" lon="11.400959211102068"><ele>240.0</ele><time>2026-04-10T14:20:54Z</time></trkpt><trkpt lat="45.57636748853505" lon="11.400814700603934"><ele>240.0</ele><time>2026-04-10T14:20:55Z</time></trkpt><trkpt lat="45.57625004894987" lon="11.400616947485242"><ele>240.0</ele><time>2026-04-10T14:20:56Z</time></trkpt><trkpt lat="45.5760988788093" lon="11.400452171422087"><ele>238.0</ele><time>2026-04-10T14:20:57Z</time></trkpt><trkpt lat="45.575943537330865" lon="11.400319426999241"><ele>236.0</ele><time>2026-04-10T14:20:58Z</time></trkpt><trkpt lat="45.575745555190146" lon="11.40026272297445"><ele>234.0</ele><time>2026-04-10T14:20:59Z</time></trkpt><trkpt lat="45.575551848427395" lon="11.400244075468184"><ele>234.0</ele><time>2026-04-10T14:21:00Z</time></trkpt><trkpt lat="45.57538738716222" lon="11.400200593716237"><ele>234.0</ele><time>2026-04-10T14:21:01Z</time></trkpt><trkpt lat="45.57526573585159" lon="11.400160095786958"><ele>234.0</ele><time>2026-04-10T14:21:02Z</time></trkpt><trkpt lat="45.57516948960938" lon="11.400067736741589"><ele>234.0</ele><time>2026-04-10T14:21:03Z</time></trkpt><trkpt lat="45.5751091763053" lon="11.39993320117763"><ele>232.5</ele><time>2026-04-10T14:21:04Z</time></trkpt><trkpt lat="45.57503954788664" lon="11.399800754570633"><ele>231.0</ele><time>2026-04-10T14:21:05Z</time></trkpt><trkpt lat="45.57494206439902" lon="11.399644356505972"><ele>229.5</ele><time>2026-04-10T14:21:06Z</time></trkpt><trkpt lat="45.57483626288846" lon="11.39947504329174"><ele>228.0</ele><time>2026-04-10T14:21:07Z</time></trkpt><trkpt lat="45.57471189274038" lon="11.399370521673978"><ele>228.0</ele><time>2026-04-10T14:21:08Z</time></trkpt><trkpt lat="45.57462491512885" lon="11.399371490457154"><ele>228.0</ele><time>2026-04-10T14:21:09Z</time></trkpt><trkpt lat="45.574370134338814" lon="11.39941494717292"><ele>228.0</ele><time>2026-04-10T14:21:10Z</time></trkpt><trkpt lat="45.57422584281859" lon="11.399415577297706"><ele>226.25</ele><time>2026-04-10T14:21:11Z</time></trkpt><trkpt lat="45.574115599723775" lon="11.399403213397125"><ele>224.5</ele><time>2026-04-10T14:21:12Z</time></trkpt><trkpt lat="45.57399487057116" lon="11.399302982242812"><ele>222.75</ele><time>2026-04-10T14:21:13Z</time></trkpt><trkpt lat="45.57388835540683" lon="11.399192431259921"><ele>221.0</ele><time>2026-04-10T14:21:14Z</time></trkpt><trkpt lat="45.57380440116449" lon="11.399068429865917"><ele>221.0</ele><time>2026-04-10T14:21:15Z</time></trkpt><trkpt lat="45.573720164982156" lon="11.398973775240831"><ele>221.00000000000003</ele><time>2026-04-10T14:21:16Z</time></trkpt><trkpt lat="45.57364305418173" lon="11.39894766092432"><ele>221.00000000000003</ele><time>2026-04-10T14:21:16.999Z</time></trkpt><trkpt lat="45.57354586733984" lon="11.398955297655338"><ele>221.0</ele><time>2026-04-10T14:21:17.999Z</time></trkpt><trkpt lat="45.57344560570948" lon="11.399025145607867"><ele>221.0</ele><time>2026-04-10T14:21:18.999Z</time></trkpt><trkpt lat="45.573319917501" lon="11.399161073505933"><ele>221.0</ele><time>2026-04-10T14:21:19.999Z</time></trkpt><trkpt lat="45.573198175688006" lon="11.399267004156998"><ele>221.0</ele><time>2026-04-10T14:21:20.999Z</time></trkpt><trkpt lat="45.57307319041971" lon="11.399314282868374"><ele>221.0</ele><time>2026-04-10T14:21:21.999Z</time></trkpt><trkpt lat="45.5729324842095" lon="11.399330656905667"><ele>221.0</ele><time>2026-04-10T14:21:22.999Z</time></trkpt><trkpt lat="45.57280774422334" lon="11.399287826841134"><ele>221.75</ele><time>2026-04-10T14:21:23.999Z</time></trkpt><trkpt lat="45.57268267408337" lon="11.399206732722355"><ele>222.5</ele><time>2026-04-10T14:21:24.999Z</time></trkpt><trkpt lat="45.5725354486356" lon="11.399114710391338"><ele>223.25</ele><time>2026-04-10T14:21:25.999Z</time></trkpt><trkpt lat="45.57241222832919" lon="11.39902110306707"><ele>224.0</ele><time>2026-04-10T14:21:26.999Z</time></trkpt><trkpt lat="45.57228884223999" lon="11.398964667059351"><ele>224.0</ele><time>2026-04-10T14:21:27.999Z</time></trkpt><trkpt lat="45.57215402743901" lon="11.39895368676778"><ele>224.0</ele><time>2026-04-10T14:21:28.999Z</time></trkpt><trkpt lat="45.57202089177348" lon="11.398952502002537"><ele>224.0</ele><time>2026-04-10T14:21:29.999Z</time></trkpt><trkpt lat="45.57188906039723" lon="11.39908315330831"><ele>224.0</ele><time>2026-04-10T14:21:30.999Z</time></trkpt><trkpt lat="45.57173370834304" lon="11.399227730210473"><ele>226.33333333333334</ele><time>2026-04-10T14:21:31.999Z</time></trkpt><trkpt lat="45.57156727490078" lon="11.399323088079226"><ele>228.66666666666669</ele><time>2026-04-10T14:21:32.999Z</time></trkpt><trkpt lat="45.57137538087167" lon="11.399468993927583"><ele>231.0</ele><time>2026-04-10T14:21:33.999Z</time></trkpt><trkpt lat="45.57119639643582" lon="11.399593397094813"><ele>235.33333333333331</ele><time>2026-04-10T14:21:34.999Z</time></trkpt><trkpt lat="45.57103233208258" lon="11.399752235230347"><ele>239.66666666666666</ele><time>2026-04-10T14:21:35.999Z</time></trkpt><trkpt lat="45.57087621402912" lon="11.399949403761164"><ele>244.0</ele><time>2026-04-10T14:21:36.999Z</time></trkpt><trkpt lat="45.57076436403393" lon="11.4001468843108"><ele>244.0</ele><time>2026-04-10T14:21:37.999Z</time></trkpt><trkpt lat="45.570663985445066" lon="11.400366979233244"><ele>244.0</ele><time>2026-04-10T14:21:38.999Z</time></trkpt><trkpt lat="45.570614637972085" lon="11.400635867716147"><ele>244.0</ele><time>2026-04-10T14:21:39.999Z</time></trkpt><trkpt lat="45.570541628924495" lon="11.400836418919924"><ele>243.5</ele><time>2026-04-10T14:21:40.999Z</time></trkpt><trkpt lat="45.57048546934737" lon="11.401012929450493"><ele>243.0</ele><time>2026-04-10T14:21:41.999Z</time></trkpt><trkpt lat="45.57038773745763" lon="11.401116334599754"><ele>242.5</ele><time>2026-04-10T14:21:42.999Z</time></trkpt><trkpt lat="45.57028392285186" lon="11.401190931382569"><ele>242.0</ele><time>2026-04-10T14:21:43.999Z</time></trkpt><trkpt lat="45.57015699583761" lon="11.401237892625867"><ele>241.33333333333334</ele><time>2026-04-10T14:21:44.999Z</time></trkpt><trkpt lat="45.57000728265437" lon="11.401264309509525"><ele>240.66666666666669</ele><time>2026-04-10T14:21:45.999Z</time></trkpt><trkpt lat="45.56984303152088" lon="11.401313111403669"><ele>240.0</ele><time>2026-04-10T14:21:46.999Z</time></trkpt><trkpt lat="45.569668324433664" lon="11.401336999145862"><ele>241.33333333333331</ele><time>2026-04-10T14:21:47.999Z</time></trkpt><trkpt lat="45.569489226363444" lon="11.401373580992084"><ele>242.66666666666666</ele><time>2026-04-10T14:21:48.999Z</time></trkpt><trkpt lat="45.56932933035936" lon="11.40140315250876"><ele>244.0</ele><time>2026-04-10T14:21:49.999Z</time></trkpt><trkpt lat="45.569183619164114" lon="11.401426675917673"><ele>244.0</ele><time>2026-04-10T14:21:50.999Z</time></trkpt><trkpt lat="45.56904948127313" lon="11.401457167553318"><ele>244.0</ele><time>2026-04-10T14:21:51.999Z</time></trkpt><trkpt lat="45.56891878131594" lon="11.401478876257057"><ele>244.0</ele><time>2026-04-10T14:21:52.999Z</time></trkpt><trkpt lat="45.568797950322775" lon="11.401475107544027"><ele>244.0</ele><time>2026-04-10T14:21:53.999Z</time></trkpt><trkpt lat="45.568666249737376" lon="11.40144078656902"><ele>244.25</ele><time>2026-04-10T14:21:54.999Z</time></trkpt><trkpt lat="45.56853618441859" lon="11.401384637845073"><ele>244.5</ele><time>2026-04-10T14:21:55.999Z</time></trkpt><trkpt lat="45.56842162676078" lon="11.4013225950604"><ele>244.75</ele><time>2026-04-10T14:21:56.999Z</time></trkpt><trkpt lat="45.568330212346446" lon="11.401248606927501"><ele>245.0</ele><time>2026-04-10T14:21:57.999Z</time></trkpt><trkpt lat="45.56824400917616" lon="11.40116823133516"><ele>246.25</ele><time>2026-04-10T14:21:58.999Z</time></trkpt><trkpt lat="45.568203329341166" lon="11.400996253253822"><ele>247.5</ele><time>2026-04-10T14:21:59.999Z</time></trkpt><trkpt lat="45.568161082998515" lon="11.400803874069139"><ele>248.75</ele><time>2026-04-10T14:22:00.999Z</time></trkpt><trkpt lat="45.568087037885235" lon="11.400613803892256"><ele>250.0</ele><time>2026-04-10T14:22:01.999Z</time></trkpt><trkpt lat="45.568012256972686" lon="11.400399498622516"><ele>253.0</ele><time>2026-04-10T14:22:02.999Z</time></trkpt><trkpt lat="45.568007296054844" lon="11.400161842659763"><ele>256.0</ele><time>2026-04-10T14:22:03.999Z</time></trkpt><trkpt lat="45.56802098541981" lon="11.399929908690744"><ele>259.0</ele><time>2026-04-10T14:22:04.999Z</time></trkpt><trkpt lat="45.56802078180133" lon="11.399699186145323"><ele>259.3333333333333</ele><time>2026-04-10T14:22:05.999Z</time></trkpt><trkpt lat="45.56798369187449" lon="11.399497498085896"><ele>259.6666666666667</ele><time>2026-04-10T14:22:06.999Z</time></trkpt><trkpt lat="45.567889250502" lon="11.399288351662072"><ele>260.0</ele><time>2026-04-10T14:22:07.999Z</time></trkpt><trkpt lat="45.567731098543085" lon="11.399108746198145"><ele>255.5</ele><time>2026-04-10T14:22:08.999Z</time></trkpt><trkpt lat="45.56755770067852" lon="11.39890843210605"><ele>251.0</ele><time>2026-04-10T14:22:09.999Z</time></trkpt><trkpt lat="45.56735815431686" lon="11.398736321073947"><ele>251.0</ele><time>2026-04-10T14:22:10.999Z</time></trkpt><trkpt lat="45.567177135273106" lon="11.398581988513042"><ele>251.0</ele><time>2026-04-10T14:22:11.999Z</time></trkpt><trkpt lat="45.56700839538348" lon="11.398455092844507"><ele>251.0</ele><time>2026-04-10T14:22:12.999Z</time></trkpt><trkpt lat="45.566818771311446" lon="11.398361610704187"><ele>250.0</ele><time>2026-04-10T14:22:13.999Z</time></trkpt><trkpt lat="45.566613470639474" lon="11.39831952286202"><ele>249.0</ele><time>2026-04-10T14:22:14.999Z</time></trkpt><trkpt lat="45.566406070960426" lon="11.39830841229983"><ele>248.0</ele><time>2026-04-10T14:22:15.999Z</time></trkpt><trkpt lat="45.5661871942265" lon="11.39828053747338"><ele>248.0</ele><time>2026-04-10T14:22:16.999Z</time></trkpt><trkpt lat="45.56596783512004" lon="11.398234180496713"><ele>248.0</ele><time>2026-04-10T14:22:17.999Z</time></trkpt><trkpt lat="45.565772949132935" lon="11.39815552820015"><ele>248.0</ele><time>2026-04-10T14:22:18.999Z</time></trkpt><trkpt lat="45.56559236459363" lon="11.39804014481651"><ele>245.0</ele><time>2026-04-10T14:22:19.999Z</time></trkpt><trkpt lat="45.5654133170935" lon="11.39790637082755"><ele>242.0</ele><time>2026-04-10T14:22:20.999Z</time></trkpt><trkpt lat="45.56524254748285" lon="11.397801168351954"><ele>239.0</ele><time>2026-04-10T14:22:21.999Z</time></trkpt><trkpt lat="45.56508259263294" lon="11.397699660324301"><ele>239.0</ele><time>2026-04-10T14:22:22.999Z</time></trkpt><trkpt lat="45.56490585854087" lon="11.397622495440544"><ele>239.0</ele><time>2026-04-10T14:22:23.999Z</time></trkpt><trkpt lat="45.564711735815024" lon="11.397559000714468"><ele>239.0</ele><time>2026-04-10T14:22:24.999Z</time></trkpt><trkpt lat="45.564517516623084" lon="11.397501191978444"><ele>238.66666666666669</ele><time>2026-04-10T14:22:25.999Z</time></trkpt><trkpt lat="45.56433425373661" lon="11.397443810334925"><ele>238.33333333333331</ele><time>2026-04-10T14:22:26.999Z</time></trkpt><trkpt lat="45.56416505372222" lon="11.397383786355727"><ele>238.0</ele><time>2026-04-10T14:22:27.999Z</time></trkpt><trkpt lat="45.56401154226521" lon="11.397274599477209"><ele>236.0</ele><time>2026-04-10T14:22:28.999Z</time></trkpt><trkpt lat="45.56386839020924" lon="11.397131325753241"><ele>234.0</ele><time>2026-04-10T14:22:29.999Z</time></trkpt><trkpt lat="45.56372382908597" lon="11.396969229797792"><ele>232.0</ele><time>2026-04-10T14:22:30.999Z</time></trkpt><trkpt lat="45.56356362553252" lon="11.396842039817225"><ele>232.0</ele><time>2026-04-10T14:22:31.999Z</time></trkpt><trkpt lat="45.563389941629886" lon="11.396706361298367"><ele>232.0</ele><time>2026-04-10T14:22:32.999Z</time></trkpt><trkpt lat="45.563194335892895" lon="11.396593907941254"><ele>232.0</ele><time>2026-04-10T14:22:33.999Z</time></trkpt><trkpt lat="45.56298428576274" lon="11.396489954600707"><ele>234.33333333333331</ele><time>2026-04-10T14:22:34.999Z</time></trkpt><trkpt lat="45.56277633901757" lon="11.396419384239131"><ele>236.66666666666669</ele><time>2026-04-10T14:22:35.999Z</time></trkpt><trkpt lat="45.5625893044969" lon="11.396397431367003"><ele>239.0</ele><time>2026-04-10T14:22:36.999Z</time></trkpt><trkpt lat="45.56240893416461" lon="11.39643475045973"><ele>239.0</ele><time>2026-04-10T14:22:37.999Z</time></trkpt><trkpt lat="45.562243932082495" lon="11.39652491089318"><ele>239.0</ele><time>2026-04-10T14:22:38.999Z</time></trkpt><trkpt lat="45.562079803397914" lon="11.396646329044046"><ele>239.0</ele><time>2026-04-10T14:22:39.999Z</time></trkpt><trkpt lat="45.56191852960189" lon="11.396727782376647"><ele>240.66666666666669</ele><time>2026-04-10T14:22:40.999Z</time></trkpt><trkpt lat="45.561746347742016" lon="11.396756284601679"><ele>242.33333333333331</ele><time>2026-04-10T14:22:41.999Z</time></trkpt><trkpt lat="45.56158581445617" lon="11.396736560410753"><ele>244.0</ele><time>2026-04-10T14:22:42.999Z</time></trkpt><trkpt lat="45.56143100926734" lon="11.39667329319303"><ele>244.0</ele><time>2026-04-10T14:22:43.999Z</time></trkpt><trkpt lat="45.56129296920349" lon="11.396596710453094"><ele>244.0</ele><time>2026-04-10T14:22:44.999Z</time></trkpt><trkpt lat="45.561167731566556" lon="11.396542880696504"><ele>244.0</ele><time>2026-04-10T14:22:45.999Z</time></trkpt><trkpt lat="45.561057738708584" lon="11.396521912047648"><ele>244.0</ele><time>2026-04-10T14:22:46.999Z</time></trkpt><trkpt lat="45.560972816054544" lon="11.39655720808899"><ele>243.5</ele><time>2026-04-10T14:22:47.998Z</time></trkpt><trkpt lat="45.560892767940295" lon="11.39665464558892"><ele>243.0</ele><time>2026-04-10T14:22:48.998Z</time></trkpt><trkpt lat="45.56085450234381" lon="11.396847064316946"><ele>242.5</ele><time>2026-04-10T14:22:49.998Z</time></trkpt><trkpt lat="45.56078525097735" lon="11.397020569792618"><ele>242.0</ele><time>2026-04-10T14:22:50.998Z</time></trkpt><trkpt lat="45.560710824398505" lon="11.397219472258394"><ele>242.0</ele><time>2026-04-10T14:22:51.998Z</time></trkpt><trkpt lat="45.56060283224796" lon="11.39739610172035"><ele>242.0</ele><time>2026-04-10T14:22:52.998Z</time></trkpt><trkpt lat="45.56047181252076" lon="11.397573433176916"><ele>242.0</ele><time>2026-04-10T14:22:53.998Z</time></trkpt><trkpt lat="45.56033568084687" lon="11.397727660252071"><ele>242.33333333333334</ele><time>2026-04-10T14:22:54.998Z</time></trkpt><trkpt lat="45.56018600687885" lon="11.397875743381391"><ele>242.66666666666669</ele><time>2026-04-10T14:22:55.998Z</time></trkpt><trkpt lat="45.56004999415153" lon="11.397972328937293"><ele>243.0</ele><time>2026-04-10T14:22:56.998Z</time></trkpt><trkpt lat="45.55990827611207" lon="11.398038911922553"><ele>243.0</ele><time>2026-04-10T14:22:57.999Z</time></trkpt><trkpt lat="45.559756645234366" lon="11.398083507586396"><ele>243.0</ele><time>2026-04-10T14:22:58.999Z</time></trkpt><trkpt lat="45.559586778266954" lon="11.398125150847077"><ele>243.0</ele><time>2026-04-10T14:22:59.999Z</time></trkpt><trkpt lat="45.55941108156168" lon="11.398164508346825"><ele>243.0</ele><time>2026-04-10T14:23:00.999Z</time></trkpt><trkpt lat="45.55923061219603" lon="11.398234127958737"><ele>243.0</ele><time>2026-04-10T14:23:01.999Z</time></trkpt><trkpt lat="45.55904769369885" lon="11.398303486201375"><ele>243.0</ele><time>2026-04-10T14:23:02.999Z</time></trkpt><trkpt lat="45.558878472824865" lon="11.39838078067541"><ele>243.0</ele><time>2026-04-10T14:23:04Z</time></trkpt><trkpt lat="45.55872033255068" lon="11.398446999177585"><ele>243.0</ele><time>2026-04-10T14:23:05Z</time></trkpt><trkpt lat="45.55857183007695" lon="11.398446806003555"><ele>243.0</ele><time>2026-04-10T14:23:06Z</time></trkpt><trkpt lat="45.55843677068893" lon="11.398441126841046"><ele>243.0</ele><time>2026-04-10T14:23:07Z</time></trkpt><trkpt lat="45.55832552571533" lon="11.398371780880293"><ele>243.75</ele><time>2026-04-10T14:23:08Z</time></trkpt><trkpt lat="45.55822192586327" lon="11.398270607042184"><ele>244.5</ele><time>2026-04-10T14:23:09Z</time></trkpt><trkpt lat="45.55812429891616" lon="11.398124876814139"><ele>245.25</ele><time>2026-04-10T14:23:10Z</time></trkpt><trkpt lat="45.55803425160244" lon="11.397935571209073"><ele>246.0</ele><time>2026-04-10T14:23:11Z</time></trkpt><trkpt lat="45.557955860687585" lon="11.397708326998634"><ele>245.66666666666669</ele><time>2026-04-10T14:23:12Z</time></trkpt><trkpt lat="45.55788570933984" lon="11.397464886357943"><ele>245.33333333333334</ele><time>2026-04-10T14:23:13Z</time></trkpt><trkpt lat="45.557810160685214" lon="11.39722096135069"><ele>245.0</ele><time>2026-04-10T14:23:14Z</time></trkpt><trkpt lat="45.557755928195924" lon="11.396982294845197"><ele>246.66666666666669</ele><time>2026-04-10T14:23:15Z</time></trkpt><trkpt lat="45.55770354509325" lon="11.396728141396627"><ele>248.33333333333331</ele><time>2026-04-10T14:23:16Z</time></trkpt><trkpt lat="45.55765441436635" lon="11.396468906095697"><ele>250.0</ele><time>2026-04-10T14:23:17Z</time></trkpt><trkpt lat="45.55760693307118" lon="11.396188430270577"><ele>253.0</ele><time>2026-04-10T14:23:18Z</time></trkpt><trkpt lat="45.5575534625862" lon="11.395897822489367"><ele>256.0</ele><time>2026-04-10T14:23:19Z</time></trkpt><trkpt lat="45.55750262485967" lon="11.395601661134522"><ele>259.0</ele><time>2026-04-10T14:23:20Z</time></trkpt><trkpt lat="45.557456140038624" lon="11.395341862091783"><ele>260.3333333333333</ele><time>2026-04-10T14:23:21Z</time></trkpt><trkpt lat="45.55741785098731" lon="11.395121261136417"><ele>261.6666666666667</ele><time>2026-04-10T14:23:22Z</time></trkpt><trkpt lat="45.557382129546056" lon="11.394915459916025"><ele>263.0</ele><time>2026-04-10T14:23:23Z</time></trkpt><trkpt lat="45.557348269163896" lon="11.394682920245602"><ele>263.0</ele><time>2026-04-10T14:23:24Z</time></trkpt><trkpt lat="45.55731035797521" lon="11.394436976535777"><ele>263.0</ele><time>2026-04-10T14:23:25Z</time></trkpt><trkpt lat="45.557279527416945" lon="11.39421197282609"><ele>263.0</ele><time>2026-04-10T14:23:26Z</time></trkpt><trkpt lat="45.55724614261772" lon="11.394006463338343"><ele>263.0</ele><time>2026-04-10T14:23:27Z</time></trkpt><trkpt lat="45.55717727351109" lon="11.393839346603102"><ele>263.0</ele><time>2026-04-10T14:23:28Z</time></trkpt><trkpt lat="45.557082654502956" lon="11.393729397463284"><ele>263.0</ele><time>2026-04-10T14:23:29Z</time></trkpt><trkpt lat="45.556964846420016" lon="11.393655822879097"><ele>263.0</ele><time>2026-04-10T14:23:30Z</time></trkpt><trkpt lat="45.55681080974261" lon="11.393674166275531"><ele>262.0</ele><time>2026-04-10T14:23:31Z</time></trkpt><trkpt lat="45.55665346860935" lon="11.39374598185422"><ele>261.0</ele><time>2026-04-10T14:23:32Z</time></trkpt><trkpt lat="45.5564872658623" lon="11.393853006259954"><ele>260.0</ele><time>2026-04-10T14:23:33Z</time></trkpt><trkpt lat="45.55631336437139" lon="11.393989500138057"><ele>264.0</ele><time>2026-04-10T14:23:34Z</time></trkpt><trkpt lat="45.55613582456113" lon="11.394117859340207"><ele>268.0</ele><time>2026-04-10T14:23:35Z</time></trkpt><trkpt lat="45.5559396293429" lon="11.394211920051655"><ele>272.0</ele><time>2026-04-10T14:23:36Z</time></trkpt><trkpt lat="45.55578187172757" lon="11.39426127258951"><ele>272.0</ele><time>2026-04-10T14:23:37Z</time></trkpt><trkpt lat="45.555656398058716" lon="11.394295177478158"><ele>272.0</ele><time>2026-04-10T14:23:38Z</time></trkpt><trkpt lat="45.55552025034916" lon="11.394289454978058"><ele>272.0</ele><time>2026-04-10T14:23:39Z</time></trkpt><trkpt lat="45.5553715314719" lon="11.394303609947551"><ele>272.0</ele><time>2026-04-10T14:23:40Z</time></trkpt><trkpt lat="45.55521072894941" lon="11.394321961239962"><ele>271.6666666666667</ele><time>2026-04-10T14:23:41Z</time></trkpt><trkpt lat="45.555035972880326" lon="11.394340208469094"><ele>271.3333333333333</ele><time>2026-04-10T14:23:42Z</time></trkpt><trkpt lat="45.55486378346402" lon="11.394353932258813"><ele>271.0</ele><time>2026-04-10T14:23:43Z</time></trkpt><trkpt lat="45.554710492807814" lon="11.394363682907894"><ele>271.0</ele><time>2026-04-10T14:23:44Z</time></trkpt><trkpt lat="45.55456378911214" lon="11.394384426026088"><ele>271.0</ele><time>2026-04-10T14:23:45Z</time></trkpt><trkpt lat="45.5544170599647" lon="11.394360126772678"><ele>271.0</ele><time>2026-04-10T14:23:46Z</time></trkpt><trkpt lat="45.554274396534744" lon="11.394279091975628"><ele>271.0</ele><time>2026-04-10T14:23:47Z</time></trkpt><trkpt lat="45.55411279122422" lon="11.394226666950681"><ele>270.66666666666663</ele><time>2026-04-10T14:23:48Z</time></trkpt><trkpt lat="45.55394410255788" lon="11.394154732172398"><ele>270.3333333333333</ele><time>2026-04-10T14:23:49Z</time></trkpt><trkpt lat="45.55376725667744" lon="11.394097235338023"><ele>270.0</ele><time>2026-04-10T14:23:50Z</time></trkpt><trkpt lat="45.553572106895885" lon="11.394068586793347"><ele>268.0</ele><time>2026-04-10T14:23:51Z</time></trkpt><trkpt lat="45.553375096697444" lon="11.394073061306182"><ele>266.0</ele><time>2026-04-10T14:23:52Z</time></trkpt><trkpt lat="45.55316918731817" lon="11.39408579435497"><ele>264.0</ele><time>2026-04-10T14:23:53Z</time></trkpt><trkpt lat="45.552962724417704" lon="11.394103086299424"><ele>264.6666666666667</ele><time>2026-04-10T14:23:54Z</time></trkpt><trkpt lat="45.552773457639105" lon="11.394140193800071"><ele>265.33333333333337</ele><time>2026-04-10T14:23:55Z</time></trkpt><trkpt lat="45.552602971851194" lon="11.394179928332527"><ele>266.0</ele><time>2026-04-10T14:23:55.999Z</time></trkpt><trkpt lat="45.552461872391845" lon="11.394205884343146"><ele>266.0</ele><time>2026-04-10T14:23:56.999Z</time></trkpt><trkpt lat="45.552336171002416" lon="11.394235008257391"><ele>266.0</ele><time>2026-04-10T14:23:57.999Z</time></trkpt><trkpt lat="45.55221403228762" lon="11.394269590977618"><ele>266.0</ele><time>2026-04-10T14:23:58.999Z</time></trkpt><trkpt lat="45.552116095814256" lon="11.39429322241182"><ele>266.0</ele><time>2026-04-10T14:23:59.999Z</time></trkpt><trkpt lat="45.55201653290976" lon="11.394315410184666"><ele>265.0</ele><time>2026-04-10T14:24:00.999Z</time></trkpt><trkpt lat="45.55190218374495" lon="11.394341653343632"><ele>264.0</ele><time>2026-04-10T14:24:01.999Z</time></trkpt><trkpt lat="45.551811912357294" lon="11.394338628446844"><ele>263.0</ele><time>2026-04-10T14:24:02.999Z</time></trkpt><trkpt lat="45.551666084250385" lon="11.394363588514604"><ele>262.0</ele><time>2026-04-10T14:24:04.999Z</time></trkpt><trkpt lat="45.551554290151415" lon="11.394384911844147"><ele>262.0</ele><time>2026-04-10T14:24:05.999Z</time></trkpt><trkpt lat="45.551419443488086" lon="11.394410689733647"><ele>262.0</ele><time>2026-04-10T14:24:06.999Z</time></trkpt><trkpt lat="45.55127007889459" lon="11.394439242932513"><ele>262.0</ele><time>2026-04-10T14:24:07.999Z</time></trkpt><trkpt lat="45.55110913599227" lon="11.394471259659305"><ele>262.0</ele><time>2026-04-10T14:24:08.999Z</time></trkpt><trkpt lat="45.55093412059127" lon="11.394505667522257"><ele>259.66666666666663</ele><time>2026-04-10T14:24:09.999Z</time></trkpt><trkpt lat="45.55076817318811" lon="11.394568909519949"><ele>257.3333333333333</ele><time>2026-04-10T14:24:10.999Z</time></trkpt><trkpt lat="45.55061624866024" lon="11.394683912894854"><ele>255.0</ele><time>2026-04-10T14:24:11.999Z</time></trkpt><trkpt lat="45.55045643865961" lon="11.394823213767657"><ele>252.66666666666669</ele><time>2026-04-10T14:24:12.999Z</time></trkpt><trkpt lat="45.55029359307956" lon="11.394959457446495"><ele>250.33333333333334</ele><time>2026-04-10T14:24:13.999Z</time></trkpt><trkpt lat="45.55011755484021" lon="11.395090062983124"><ele>248.0</ele><time>2026-04-10T14:24:14.999Z</time></trkpt><trkpt lat="45.54994866185464" lon="11.395227294297591"><ele>248.0</ele><time>2026-04-10T14:24:15.999Z</time></trkpt><trkpt lat="45.5497855652339" lon="11.395344322877019"><ele>248.0</ele><time>2026-04-10T14:24:16.999Z</time></trkpt><trkpt lat="45.549631190476745" lon="11.39545361225694"><ele>248.0</ele><time>2026-04-10T14:24:17.999Z</time></trkpt><trkpt lat="45.54947631293162" lon="11.39556738908789"><ele>246.0</ele><time>2026-04-10T14:24:18.999Z</time></trkpt><trkpt lat="45.54932508361249" lon="11.395687412106536"><ele>244.0</ele><time>2026-04-10T14:24:19.999Z</time></trkpt><trkpt lat="45.549173522577796" lon="11.39579703416481"><ele>242.0</ele><time>2026-04-10T14:24:20.999Z</time></trkpt><trkpt lat="45.54903464122145" lon="11.395894209704778"><ele>242.0</ele><time>2026-04-10T14:24:21.999Z</time></trkpt><trkpt lat="45.54889425669812" lon="11.396002068809205"><ele>242.0</ele><time>2026-04-10T14:24:22.999Z</time></trkpt><trkpt lat="45.548744641302825" lon="11.396141512777278"><ele>242.0</ele><time>2026-04-10T14:24:23.999Z</time></trkpt><trkpt lat="45.54859690954643" lon="11.396300167314509"><ele>241.33333333333334</ele><time>2026-04-10T14:24:24.999Z</time></trkpt><trkpt lat="45.54844372473825" lon="11.396470624697914"><ele>240.66666666666669</ele><time>2026-04-10T14:24:25.999Z</time></trkpt><trkpt lat="45.54827894066652" lon="11.396648838793938"><ele>240.0</ele><time>2026-04-10T14:24:26.999Z</time></trkpt><trkpt lat="45.54811090219397" lon="11.39683037100677"><ele>240.0</ele><time>2026-04-10T14:24:27.999Z</time></trkpt><trkpt lat="45.547936341864016" lon="11.397014552514241"><ele>240.0</ele><time>2026-04-10T14:24:28.999Z</time></trkpt><trkpt lat="45.54775822633629" lon="11.397200608096984"><ele>240.0</ele><time>2026-04-10T14:24:29.999Z</time></trkpt><trkpt lat="45.54757778383275" lon="11.397389107238052"><ele>240.0</ele><time>2026-04-10T14:24:30.999Z</time></trkpt><trkpt lat="45.547407882286755" lon="11.397554879014193"><ele>240.0</ele><time>2026-04-10T14:24:31.999Z</time></trkpt><trkpt lat="45.54723475191246" lon="11.397647611614364"><ele>240.0</ele><time>2026-04-10T14:24:32.999Z</time></trkpt><trkpt lat="45.54706983730616" lon="11.397724646623738"><ele>241.33333333333331</ele><time>2026-04-10T14:24:33.999Z</time></trkpt><trkpt lat="45.546895542837746" lon="11.397788734709133"><ele>242.66666666666666</ele><time>2026-04-10T14:24:34.999Z</time></trkpt><trkpt lat="45.546709091249106" lon="11.397827752419303"><ele>244.0</ele><time>2026-04-10T14:24:35.999Z</time></trkpt><trkpt lat="45.54651810565392" lon="11.397880165644539"><ele>244.0</ele><time>2026-04-10T14:24:36.999Z</time></trkpt><trkpt lat="45.54631906263284" lon="11.397902690105495"><ele>244.0</ele><time>2026-04-10T14:24:37.999Z</time></trkpt><trkpt lat="45.546115784234935" lon="11.397931869455242"><ele>244.0</ele><time>2026-04-10T14:24:38.999Z</time></trkpt><trkpt lat="45.54591289520676" lon="11.397976649420468"><ele>244.0</ele><time>2026-04-10T14:24:39.999Z</time></trkpt><trkpt lat="45.54570923933704" lon="11.398036515080852"><ele>244.0</ele><time>2026-04-10T14:24:40.999Z</time></trkpt><trkpt lat="45.545510857724764" lon="11.398130847238516"><ele>244.0</ele><time>2026-04-10T14:24:41.999Z</time></trkpt><trkpt lat="45.54532219869806" lon="11.398255243041602"><ele>244.66666666666666</ele><time>2026-04-10T14:24:42.999Z</time></trkpt><trkpt lat="45.54514183671486" lon="11.398403476220865"><ele>245.33333333333331</ele><time>2026-04-10T14:24:43.999Z</time></trkpt><trkpt lat="45.54496318683575" lon="11.39856051162227"><ele>246.0</ele><time>2026-04-10T14:24:44.999Z</time></trkpt><trkpt lat="45.54478358691336" lon="11.398715765151346"><ele>246.0</ele><time>2026-04-10T14:24:45.999Z</time></trkpt><trkpt lat="45.54461150511347" lon="11.398824848003436"><ele>246.0</ele><time>2026-04-10T14:24:46.999Z</time></trkpt><trkpt lat="45.54441650207359" lon="11.39886617263415"><ele>246.0</ele><time>2026-04-10T14:24:47.999Z</time></trkpt><trkpt lat="45.54422034887913" lon="11.398889911107496"><ele>252.0</ele><time>2026-04-10T14:24:48.999Z</time></trkpt><trkpt lat="45.54403449361233" lon="11.398881009694314"><ele>258.0</ele><time>2026-04-10T14:24:49.999Z</time></trkpt><trkpt lat="45.54386874097243" lon="11.39886856650589"><ele>264.0</ele><time>2026-04-10T14:24:50.999Z</time></trkpt><trkpt lat="45.54372273385081" lon="11.398888234411974"><ele>264.6666666666667</ele><time>2026-04-10T14:24:51.999Z</time></trkpt><trkpt lat="45.543574928512996" lon="11.398938303307549"><ele>265.33333333333337</ele><time>2026-04-10T14:24:52.999Z</time></trkpt><trkpt lat="45.54345260286183" lon="11.399005151068893"><ele>266.0</ele><time>2026-04-10T14:24:53.999Z</time></trkpt><trkpt lat="45.54328423623152" lon="11.39918367664385"><ele>266.0</ele><time>2026-04-10T14:24:54.999Z</time></trkpt><trkpt lat="45.54311871537679" lon="11.399364703786013"><ele>266.0</ele><time>2026-04-10T14:24:55.999Z</time></trkpt><trkpt lat="45.542971976421384" lon="11.399517861640415"><ele>266.0</ele><time>2026-04-10T14:24:56.999Z</time></trkpt><trkpt lat="45.54286682632058" lon="11.399655506024846"><ele>266.0</ele><time>2026-04-10T14:24:57.999Z</time></trkpt><trkpt lat="45.54278023021511" lon="11.399764930179217"><ele>266.0</ele><time>2026-04-10T14:24:58.999Z</time></trkpt><trkpt lat="45.54268649526474" lon="11.399859528049134"><ele>266.0</ele><time>2026-04-10T14:24:59.999Z</time></trkpt><trkpt lat="45.54259956356409" lon="11.399946734148124"><ele>266.0</ele><time>2026-04-10T14:25:00.999Z</time></trkpt><trkpt lat="45.54250491418347" lon="11.400044187883159"><ele>266.0</ele><time>2026-04-10T14:25:01.999Z</time></trkpt><trkpt lat="45.54238179968214" lon="11.400148785917377"><ele>266.0</ele><time>2026-04-10T14:25:03Z</time></trkpt><trkpt lat="45.54223234312477" lon="11.400248004844327"><ele>266.0</ele><time>2026-04-10T14:25:04Z</time></trkpt><trkpt lat="45.54206119385886" lon="11.4003318940882"><ele>265.0</ele><time>2026-04-10T14:25:05Z</time></trkpt><trkpt lat="45.54187750693667" lon="11.400382969363582"><ele>264.0</ele><time>2026-04-10T14:25:06Z</time></trkpt><trkpt lat="45.541701093004846" lon="11.400348280443625"><ele>263.0</ele><time>2026-04-10T14:25:07Z</time></trkpt><trkpt lat="45.54154401271006" lon="11.400298098464097"><ele>263.0</ele><time>2026-04-10T14:25:08Z</time></trkpt><trkpt lat="45.54139143284868" lon="11.400220773313505"><ele>263.0</ele><time>2026-04-10T14:25:09Z</time></trkpt><trkpt lat="45.54126111248216" lon="11.40013127817417"><ele>263.0</ele><time>2026-04-10T14:25:10Z</time></trkpt><trkpt lat="45.54109790575311" lon="11.400002601737793"><ele>263.0</ele><time>2026-04-10T14:25:11Z</time></trkpt><trkpt lat="45.540925446204156" lon="11.399840725271426"><ele>263.0</ele><time>2026-04-10T14:25:12Z</time></trkpt><trkpt lat="45.540788764011225" lon="11.399689649692156"><ele>263.0</ele><time>2026-04-10T14:25:13Z</time></trkpt><trkpt lat="45.54066673950635" lon="11.399535895508134"><ele>263.0</ele><time>2026-04-10T14:25:14Z</time></trkpt><trkpt lat="45.54059731835975" lon="11.399365559243753"><ele>263.0</ele><time>2026-04-10T14:25:15Z</time></trkpt><trkpt lat="45.54051084123625" lon="11.399199722279171"><ele>263.0</ele><time>2026-04-10T14:25:16Z</time></trkpt><trkpt lat="45.54042564618423" lon="11.399008797534913"><ele>263.0</ele><time>2026-04-10T14:25:17Z</time></trkpt><trkpt lat="45.54032960068688" lon="11.39881338748309"><ele>264.0</ele><time>2026-04-10T14:25:18Z</time></trkpt><trkpt lat="45.54020515512673" lon="11.398642913892278"><ele>265.0</ele><time>2026-04-10T14:25:19Z</time></trkpt><trkpt lat="45.54005876698566" lon="11.398464387609112"><ele>266.0</ele><time>2026-04-10T14:25:20Z</time></trkpt><trkpt lat="45.53990739300784" lon="11.398255758704916"><ele>266.0</ele><time>2026-04-10T14:25:21Z</time></trkpt><trkpt lat="45.539782219520234" lon="11.398060821577007"><ele>266.0</ele><time>2026-04-10T14:25:22Z</time></trkpt><trkpt lat="45.53965103603227" lon="11.397886764567268"><ele>266.0</ele><time>2026-04-10T14:25:23Z</time></trkpt><trkpt lat="45.53950946760431" lon="11.397720880106483"><ele>264.33333333333337</ele><time>2026-04-10T14:25:24Z</time></trkpt><trkpt lat="45.539357732830915" lon="11.397554625952559"><ele>262.6666666666667</ele><time>2026-04-10T14:25:25Z</time></trkpt><trkpt lat="45.53919775274985" lon="11.397385183672746"><ele>261.0</ele><time>2026-04-10T14:25:26Z</time></trkpt><trkpt lat="45.5390405248876" lon="11.39723321764135"><ele>259.3333333333333</ele><time>2026-04-10T14:25:27Z</time></trkpt><trkpt lat="45.538892547950525" lon="11.397099062589579"><ele>257.66666666666663</ele><time>2026-04-10T14:25:28Z</time></trkpt><trkpt lat="45.53876485539448" lon="11.396979353042685"><ele>256.0</ele><time>2026-04-10T14:25:29Z</time></trkpt><trkpt lat="45.53863259833239" lon="11.396889269453542"><ele>256.0</ele><time>2026-04-10T14:25:30Z</time></trkpt><trkpt lat="45.53851891557112" lon="11.396806902398184"><ele>256.0</ele><time>2026-04-10T14:25:31Z</time></trkpt><trkpt lat="45.53840873242379" lon="11.396828615181393"><ele>256.0</ele><time>2026-04-10T14:25:32Z</time></trkpt><trkpt lat="45.538329210358015" lon="11.396813455161167"><ele>256.0</ele><time>2026-04-10T14:25:34Z</time></trkpt><trkpt lat="45.53825387350073" lon="11.396686138357863"><ele>256.0</ele><time>2026-04-10T14:25:36Z</time></trkpt><trkpt lat="45.538181885770236" lon="11.39653346139003"><ele>256.0</ele><time>2026-04-10T14:25:37Z</time></trkpt><trkpt lat="45.53809692045954" lon="11.396375970589459"><ele>256.0</ele><time>2026-04-10T14:25:38Z</time></trkpt><trkpt lat="45.538027379459294" lon="11.396185525976843"><ele>256.0</ele><time>2026-04-10T14:25:39Z</time></trkpt><trkpt lat="45.53795085017212" lon="11.395990941208304"><ele>256.0</ele><time>2026-04-10T14:25:40Z</time></trkpt><trkpt lat="45.53788545557399" lon="11.395805125804477"><ele>254.60000000000002</ele><time>2026-04-10T14:25:41Z</time></trkpt><trkpt lat="45.537842268104235" lon="11.395659365657359"><ele>253.20000000000002</ele><time>2026-04-10T14:25:42Z</time></trkpt><trkpt lat="45.537805872796824" lon="11.395540767097948"><ele>251.79999999999998</ele><time>2026-04-10T14:25:43Z</time></trkpt><trkpt lat="45.537798109475" lon="11.395423858821088"><ele>250.39999999999998</ele><time>2026-04-10T14:25:44Z</time></trkpt><trkpt lat="45.537792012431034" lon="11.395322015550825"><ele>249.0</ele><time>2026-04-10T14:25:45Z</time></trkpt><trkpt lat="45.53775566680376" lon="11.395150878884564"><ele>249.0</ele><time>2026-04-10T14:25:47Z</time></trkpt><trkpt lat="45.53771361256201" lon="11.395056120936088"><ele>248.99999999999997</ele><time>2026-04-10T14:25:48Z</time></trkpt><trkpt lat="45.53765114451904" lon="11.394956264333302"><ele>248.99999999999997</ele><time>2026-04-10T14:25:49Z</time></trkpt><trkpt lat="45.53756517642093" lon="11.39484716098532"><ele>249.0</ele><time>2026-04-10T14:25:50Z</time></trkpt><trkpt lat="45.53746119269944" lon="11.394733781905352"><ele>249.0</ele><time>2026-04-10T14:25:51Z</time></trkpt><trkpt lat="45.53733744371995" lon="11.394619450680255"><ele>248.33333333333331</ele><time>2026-04-10T14:25:52Z</time></trkpt><trkpt lat="45.537193163134305" lon="11.394502658095249"><ele>247.66666666666666</ele><time>2026-04-10T14:25:53Z</time></trkpt><trkpt lat="45.537046260061906" lon="11.39437960799485"><ele>247.0</ele><time>2026-04-10T14:25:54Z</time></trkpt><trkpt lat="45.53691389006195" lon="11.394264194816298"><ele>247.0</ele><time>2026-04-10T14:25:55Z</time></trkpt><trkpt lat="45.53680711898194" lon="11.394155557323383"><ele>247.0</ele><time>2026-04-10T14:25:56Z</time></trkpt><trkpt lat="45.536703945066115" lon="11.394028581133547"><ele>247.0</ele><time>2026-04-10T14:25:57Z</time></trkpt><trkpt lat="45.53661770444613" lon="11.393907824773818"><ele>247.0</ele><time>2026-04-10T14:25:58Z</time></trkpt><trkpt lat="45.536521319430435" lon="11.393824318734348"><ele>247.0</ele><time>2026-04-10T14:25:59Z</time></trkpt><trkpt lat="45.53639555762906" lon="11.393804931466965"><ele>247.0</ele><time>2026-04-10T14:26:00Z</time></trkpt><trkpt lat="45.5362442006172" lon="11.39389704335851"><ele>247.0</ele><time>2026-04-10T14:26:01Z</time></trkpt><trkpt lat="45.53608959058393" lon="11.393975604072562"><ele>244.25</ele><time>2026-04-10T14:26:02Z</time></trkpt><trkpt lat="45.53596829810016" lon="11.394070049677085"><ele>241.5</ele><time>2026-04-10T14:26:03Z</time></trkpt><trkpt lat="45.53586233765141" lon="11.394167764023557"><ele>238.75</ele><time>2026-04-10T14:26:04Z</time></trkpt><trkpt lat="45.535751681596984" lon="11.394287117138708"><ele>236.0</ele><time>2026-04-10T14:26:05Z</time></trkpt><trkpt lat="45.535610771491505" lon="11.394433821642984"><ele>237.0</ele><time>2026-04-10T14:26:06Z</time></trkpt><trkpt lat="45.535609965355874" lon="11.394697592306647"><ele>238.0</ele><time>2026-04-10T14:26:07Z</time></trkpt><trkpt lat="45.535535967556584" lon="11.394898011228326"><ele>239.0</ele><time>2026-04-10T14:26:08Z</time></trkpt><trkpt lat="45.53544890836934" lon="11.395060377833918"><ele>239.0</ele><time>2026-04-10T14:26:09Z</time></trkpt><trkpt lat="45.53533833904187" lon="11.395135370629198"><ele>239.0</ele><time>2026-04-10T14:26:10Z</time></trkpt><trkpt lat="45.53521855387393" lon="11.395123810501511"><ele>239.0</ele><time>2026-04-10T14:26:11Z</time></trkpt><trkpt lat="45.535077240942314" lon="11.395144723742801"><ele>239.0</ele><time>2026-04-10T14:26:12Z</time></trkpt><trkpt lat="45.534920117693005" lon="11.395176368681053"><ele>239.0</ele><time>2026-04-10T14:26:13Z</time></trkpt><trkpt lat="45.53475172227235" lon="11.395201846329007"><ele>239.0</ele><time>2026-04-10T14:26:14Z</time></trkpt><trkpt lat="45.53455536658548" lon="11.395176943790462"><ele>239.0</ele><time>2026-04-10T14:26:15Z</time></trkpt><trkpt lat="45.53435490965927" lon="11.395150167718574"><ele>239.0</ele><time>2026-04-10T14:26:16Z</time></trkpt><trkpt lat="45.53418083556677" lon="11.395096249246475"><ele>239.0</ele><time>2026-04-10T14:26:17Z</time></trkpt><trkpt lat="45.53401926888366" lon="11.395030820990403"><ele>239.0</ele><time>2026-04-10T14:26:18Z</time></trkpt><trkpt lat="45.533869230007234" lon="11.394954786437276"><ele>239.0</ele><time>2026-04-10T14:26:19Z</time></trkpt><trkpt lat="45.533727680030864" lon="11.394872126557143"><ele>239.0</ele><time>2026-04-10T14:26:20Z</time></trkpt><trkpt lat="45.533599145527795" lon="11.394791192320561"><ele>239.0</ele><time>2026-04-10T14:26:21Z</time></trkpt><trkpt lat="45.53345867690588" lon="11.39469897734515"><ele>239.0</ele><time>2026-04-10T14:26:22Z</time></trkpt><trkpt lat="45.533308050758976" lon="11.394596847410535"><ele>240.66666666666669</ele><time>2026-04-10T14:26:23Z</time></trkpt><trkpt lat="45.533158336422055" lon="11.394495335727909"><ele>242.33333333333331</ele><time>2026-04-10T14:26:24Z</time></trkpt><trkpt lat="45.53299245465808" lon="11.394407902041802"><ele>244.0</ele><time>2026-04-10T14:26:25Z</time></trkpt><trkpt lat="45.53283796457358" lon="11.394283817699996"><ele>247.33333333333331</ele><time>2026-04-10T14:26:26Z</time></trkpt><trkpt lat="45.53267222702671" lon="11.394202914091416"><ele>250.66666666666669</ele><time>2026-04-10T14:26:27Z</time></trkpt><trkpt lat="45.532497807526696" lon="11.39413955957069"><ele>254.0</ele><time>2026-04-10T14:26:28Z</time></trkpt><trkpt lat="45.532314159138714" lon="11.394128626714735"><ele>254.0</ele><time>2026-04-10T14:26:29Z</time></trkpt><trkpt lat="45.53212177690893" lon="11.394163206668035"><ele>254.0</ele><time>2026-04-10T14:26:30Z</time></trkpt><trkpt lat="45.53193025741667" lon="11.394234903174373"><ele>254.0</ele><time>2026-04-10T14:26:30.999Z</time></trkpt><trkpt lat="45.531760464426696" lon="11.394313914673935"><ele>256.33333333333337</ele><time>2026-04-10T14:26:31.999Z</time></trkpt><trkpt lat="45.53161147799779" lon="11.394420889403426"><ele>258.6666666666667</ele><time>2026-04-10T14:26:32.999Z</time></trkpt><trkpt lat="45.53147559760891" lon="11.394507094125041"><ele>261.0</ele><time>2026-04-10T14:26:33.999Z</time></trkpt><trkpt lat="45.531332393506275" lon="11.39448321745871"><ele>260.0</ele><time>2026-04-10T14:26:34.999Z</time></trkpt><trkpt lat="45.531188831499236" lon="11.39445255996729"><ele>259.0</ele><time>2026-04-10T14:26:35.999Z</time></trkpt><trkpt lat="45.53103472305375" lon="11.39442592064374"><ele>258.0</ele><time>2026-04-10T14:26:36.999Z</time></trkpt><trkpt lat="45.53092927026173" lon="11.394248775927606"><ele>258.0</ele><time>2026-04-10T14:26:37.999Z</time></trkpt><trkpt lat="45.53080636897204" lon="11.394115850917006"><ele>258.0</ele><time>2026-04-10T14:26:38.999Z</time></trkpt><trkpt lat="45.5306792495922" lon="11.394012901978224"><ele>258.0</ele><time>2026-04-10T14:26:39.999Z</time></trkpt><trkpt lat="45.53057553513501" lon="11.393911060893641"><ele>258.0</ele><time>2026-04-10T14:26:40.999Z</time></trkpt><trkpt lat="45.530458544471024" lon="11.393906767034622"><ele>257.3333333333333</ele><time>2026-04-10T14:26:41.999Z</time></trkpt><trkpt lat="45.53032231740521" lon="11.393943392679518"><ele>256.66666666666663</ele><time>2026-04-10T14:26:42.999Z</time></trkpt><trkpt lat="45.53015826196864" lon="11.39400778551413"><ele>256.0</ele><time>2026-04-10T14:26:43.999Z</time></trkpt><trkpt lat="45.52997976230988" lon="11.3940943372533"><ele>256.0</ele><time>2026-04-10T14:26:44.999Z</time></trkpt><trkpt lat="45.529790978775765" lon="11.394202922391962"><ele>256.0</ele><time>2026-04-10T14:26:45.999Z</time></trkpt><trkpt lat="45.52960165729523" lon="11.39427515669167"><ele>256.0</ele><time>2026-04-10T14:26:46.999Z</time></trkpt><trkpt lat="45.52941958544876" lon="11.394333794135928"><ele>259.0</ele><time>2026-04-10T14:26:47.999Z</time></trkpt><trkpt lat="45.52925438364651" lon="11.394388077743798"><ele>262.0</ele><time>2026-04-10T14:26:48.999Z</time></trkpt><trkpt lat="45.529092458219274" lon="11.394446392382406"><ele>265.0</ele><time>2026-04-10T14:26:49.999Z</time></trkpt><trkpt lat="45.528931274305926" lon="11.394518927319744"><ele>265.0</ele><time>2026-04-10T14:26:50.999Z</time></trkpt><trkpt lat="45.52877115658302" lon="11.394606268609651"><ele>265.0</ele><time>2026-04-10T14:26:51.999Z</time></trkpt><trkpt lat="45.5286079600855" lon="11.394713031277746"><ele>265.0</ele><time>2026-04-10T14:26:52.999Z</time></trkpt><trkpt lat="45.5284395776056" lon="11.394827164163907"><ele>262.3333333333333</ele><time>2026-04-10T14:26:53.999Z</time></trkpt><trkpt lat="45.528266019844125" lon="11.394943989669699"><ele>259.6666666666667</ele><time>2026-04-10T14:26:54.999Z</time></trkpt><trkpt lat="45.52810741974732" lon="11.39506399218902"><ele>257.0</ele><time>2026-04-10T14:26:55.999Z</time></trkpt><trkpt lat="45.527961269806504" lon="11.395181072953775"><ele>254.66666666666669</ele><time>2026-04-10T14:26:56.999Z</time></trkpt><trkpt lat="45.527824124737116" lon="11.395316717013506"><ele>252.33333333333331</ele><time>2026-04-10T14:26:57.999Z</time></trkpt><trkpt lat="45.52769124959195" lon="11.39544103306191"><ele>250.0</ele><time>2026-04-10T14:26:58.999Z</time></trkpt><trkpt lat="45.527570564879866" lon="11.395567987285041"><ele>250.0</ele><time>2026-04-10T14:26:59.999Z</time></trkpt><trkpt lat="45.527464943494934" lon="11.395714896885488"><ele>250.0</ele><time>2026-04-10T14:27:00.999Z</time></trkpt><trkpt lat="45.52736555391366" lon="11.39589513098444"><ele>250.0</ele><time>2026-04-10T14:27:01.999Z</time></trkpt><trkpt lat="45.527271006851535" lon="11.396073837422744"><ele>250.0</ele><time>2026-04-10T14:27:02.999Z</time></trkpt><trkpt lat="45.52716964550047" lon="11.396243676450297"><ele>250.0</ele><time>2026-04-10T14:27:03.999Z</time></trkpt><trkpt lat="45.52706899396876" lon="11.396408466956732"><ele>250.0</ele><time>2026-04-10T14:27:04.999Z</time></trkpt><trkpt lat="45.52697206924769" lon="11.396551217419521"><ele>250.0</ele><time>2026-04-10T14:27:05.999Z</time></trkpt><trkpt lat="45.52688342561078" lon="11.39667571614148"><ele>246.0</ele><time>2026-04-10T14:27:06.999Z</time></trkpt><trkpt lat="45.52679028185168" lon="11.396771957065067"><ele>242.0</ele><time>2026-04-10T14:27:07.999Z</time></trkpt><trkpt lat="45.526688898880145" lon="11.396860756306388"><ele>238.0</ele><time>2026-04-10T14:27:09Z</time></trkpt><trkpt lat="45.52655366852038" lon="11.3967818678446"><ele>234.0</ele><time>2026-04-10T14:27:10Z</time></trkpt><trkpt lat="45.52638750984998" lon="11.39675203744236"><ele>228.0</ele><time>2026-04-10T14:27:11Z</time></trkpt><trkpt lat="45.52603515447837" lon="11.396641615924663"><ele>222.0</ele><time>2026-04-10T14:27:13Z</time></trkpt><trkpt lat="45.52586931696838" lon="11.3965599245268"><ele>222.0</ele><time>2026-04-10T14:27:14Z</time></trkpt><trkpt lat="45.525717438093054" lon="11.396457651717506"><ele>222.0</ele><time>2026-04-10T14:27:15Z</time></trkpt><trkpt lat="45.52557504047693" lon="11.39635706551808"><ele>222.0</ele><time>2026-04-10T14:27:16Z</time></trkpt><trkpt lat="45.52543343486215" lon="11.396274648689054"><ele>221.0</ele><time>2026-04-10T14:27:17Z</time></trkpt><trkpt lat="45.52531994454488" lon="11.396137701476006"><ele>220.0</ele><time>2026-04-10T14:27:18Z</time></trkpt><trkpt lat="45.525195784079" lon="11.396035057849955"><ele>219.0</ele><time>2026-04-10T14:27:19Z</time></trkpt><trkpt lat="45.52508429313834" lon="11.39593332671617"><ele>218.0</ele><time>2026-04-10T14:27:20Z</time></trkpt><trkpt lat="45.524956595604735" lon="11.395925172144361"><ele>218.0</ele><time>2026-04-10T14:27:21Z</time></trkpt><trkpt lat="45.52480720980144" lon="11.395959751705158"><ele>218.0</ele><time>2026-04-10T14:27:22Z</time></trkpt><trkpt lat="45.52467183541096" lon="11.396124461019728"><ele>218.0</ele><time>2026-04-10T14:27:23Z</time></trkpt><trkpt lat="45.52452785252022" lon="11.396254462181561"><ele>218.66666666666669</ele><time>2026-04-10T14:27:24Z</time></trkpt><trkpt lat="45.52438455472889" lon="11.396396454801891"><ele>219.33333333333331</ele><time>2026-04-10T14:27:25Z</time></trkpt><trkpt lat="45.52425074305915" lon="11.39651807369523"><ele>220.0</ele><time>2026-04-10T14:27:26Z</time></trkpt><trkpt lat="45.524143599909394" lon="11.396623476150612"><ele>220.0</ele><time>2026-04-10T14:27:27Z</time></trkpt><trkpt lat="45.524035352954904" lon="11.39671016124218"><ele>220.0</ele><time>2026-04-10T14:27:28Z</time></trkpt><trkpt lat="45.52392275201317" lon="11.396806099728748"><ele>220.0</ele><time>2026-04-10T14:27:29Z</time></trkpt><trkpt lat="45.523788501407196" lon="11.39691774229915"><ele>220.0</ele><time>2026-04-10T14:27:30Z</time></trkpt><trkpt lat="45.52364289272255" lon="11.397036893263076"><ele>221.33333333333331</ele><time>2026-04-10T14:27:31Z</time></trkpt><trkpt lat="45.52348001611819" lon="11.39715942086788"><ele>222.66666666666669</ele><time>2026-04-10T14:27:32Z</time></trkpt><trkpt lat="45.523301453378416" lon="11.397254463931116"><ele>224.0</ele><time>2026-04-10T14:27:33Z</time></trkpt><trkpt lat="45.523142451962116" lon="11.397377656125874"><ele>221.0</ele><time>2026-04-10T14:27:34Z</time></trkpt><trkpt lat="45.522992906998766" lon="11.397478747666089"><ele>218.0</ele><time>2026-04-10T14:27:35Z</time></trkpt><trkpt lat="45.52284376011008" lon="11.397581978987555"><ele>215.0</ele><time>2026-04-10T14:27:36Z</time></trkpt><trkpt lat="45.52271088824742" lon="11.397703683158138"><ele>214.66666666666669</ele><time>2026-04-10T14:27:37Z</time></trkpt><trkpt lat="45.522589211748496" lon="11.397866462612539"><ele>214.33333333333331</ele><time>2026-04-10T14:27:38Z</time></trkpt><trkpt lat="45.522478780453866" lon="11.398050416701187"><ele>214.0</ele><time>2026-04-10T14:27:39Z</time></trkpt><trkpt lat="45.52234624282363" lon="11.398228314838965"><ele>214.0</ele><time>2026-04-10T14:27:40Z</time></trkpt><trkpt lat="45.52220664687151" lon="11.398379519348733"><ele>214.0</ele><time>2026-04-10T14:27:41Z</time></trkpt><trkpt lat="45.52209305169444" lon="11.398549697337105"><ele>214.0</ele><time>2026-04-10T14:27:42Z</time></trkpt><trkpt lat="45.52200716439537" lon="11.3987578158705"><ele>210.5</ele><time>2026-04-10T14:27:43Z</time></trkpt><trkpt lat="45.52193525014091" lon="11.39896528554145"><ele>207.0</ele><time>2026-04-10T14:27:44Z</time></trkpt><trkpt lat="45.52185909542823" lon="11.399129828639532"><ele>203.5</ele><time>2026-04-10T14:27:45Z</time></trkpt><trkpt lat="45.521769485026475" lon="11.39925328735483"><ele>200.0</ele><time>2026-04-10T14:27:46Z</time></trkpt><trkpt lat="45.52163509269039" lon="11.399308314515316"><ele>200.0</ele><time>2026-04-10T14:27:47Z</time></trkpt><trkpt lat="45.52148332659984" lon="11.39936741316324"><ele>200.0</ele><time>2026-04-10T14:27:48Z</time></trkpt><trkpt lat="45.52130737761926" lon="11.399428218617887"><ele>200.0</ele><time>2026-04-10T14:27:49Z</time></trkpt><trkpt lat="45.52113272090034" lon="11.399502253290118"><ele>198.5</ele><time>2026-04-10T14:27:50Z</time></trkpt><trkpt lat="45.520976927223174" lon="11.39959936253103"><ele>197.0</ele><time>2026-04-10T14:27:51Z</time></trkpt><trkpt lat="45.52083449728747" lon="11.399683350836279"><ele>195.5</ele><time>2026-04-10T14:27:52Z</time></trkpt><trkpt lat="45.52074974077064" lon="11.399720103027413"><ele>194.0</ele><time>2026-04-10T14:27:53Z</time></trkpt><trkpt lat="45.520688555550095" lon="11.399744630652979"><ele>191.5</ele><time>2026-04-10T14:27:54Z</time></trkpt><trkpt lat="45.52057539765855" lon="11.39985594492208"><ele>189.0</ele><time>2026-04-10T14:27:56Z</time></trkpt><trkpt lat="45.52054342394002" lon="11.400024133246928"><ele>186.5</ele><time>2026-04-10T14:27:57Z</time></trkpt><trkpt lat="45.520517674073105" lon="11.40024174879682"><ele>184.0</ele><time>2026-04-10T14:27:58Z</time></trkpt><trkpt lat="45.52048433083482" lon="11.400457879412258"><ele>182.75</ele><time>2026-04-10T14:27:59Z</time></trkpt><trkpt lat="45.52044641230181" lon="11.40069157088217"><ele>181.5</ele><time>2026-04-10T14:28:00Z</time></trkpt><trkpt lat="45.5204070340726" lon="11.400892830459162"><ele>180.25</ele><time>2026-04-10T14:28:01Z</time></trkpt><trkpt lat="45.52037272219269" lon="11.401072083968474"><ele>179.0</ele><time>2026-04-10T14:28:02Z</time></trkpt><trkpt lat="45.52034043857687" lon="11.401235943928082"><ele>177.75</ele><time>2026-04-10T14:28:03Z</time></trkpt><trkpt lat="45.52029748454296" lon="11.401412038914174"><ele>176.5</ele><time>2026-04-10T14:28:04Z</time></trkpt><trkpt lat="45.52024241172847" lon="11.401603202268118"><ele>175.25</ele><time>2026-04-10T14:28:05Z</time></trkpt><trkpt lat="45.52018396397996" lon="11.401791394469925"><ele>174.0</ele><time>2026-04-10T14:28:06Z</time></trkpt><trkpt lat="45.52012424756364" lon="11.401954462044813"><ele>174.0</ele><time>2026-04-10T14:28:07Z</time></trkpt><trkpt lat="45.52008311584097" lon="11.402104262913602"><ele>174.0</ele><time>2026-04-10T14:28:08Z</time></trkpt><trkpt lat="45.52004823582672" lon="11.402242200729585"><ele>174.0</ele><time>2026-04-10T14:28:09Z</time></trkpt><trkpt lat="45.52002275809963" lon="11.402351072104233"><ele>174.0</ele><time>2026-04-10T14:28:10Z</time></trkpt><trkpt lat="45.52001786987537" lon="11.402452147657042"><ele>174.0</ele><time>2026-04-10T14:28:11Z</time></trkpt><trkpt lat="45.5200432227394" lon="11.402571058863696"><ele>174.75</ele><time>2026-04-10T14:28:12Z</time></trkpt><trkpt lat="45.52009667031454" lon="11.402718577859531"><ele>175.5</ele><time>2026-04-10T14:28:13Z</time></trkpt><trkpt lat="45.52015284798514" lon="11.40288171461182"><ele>176.25</ele><time>2026-04-10T14:28:14Z</time></trkpt><trkpt lat="45.52020883096336" lon="11.403029495956076"><ele>177.0</ele><time>2026-04-10T14:28:15Z</time></trkpt><trkpt lat="45.52026292429364" lon="11.40319396124339"><ele>175.25</ele><time>2026-04-10T14:28:16Z</time></trkpt><trkpt lat="45.5203120093299" lon="11.403360631918817"><ele>173.5</ele><time>2026-04-10T14:28:17Z</time></trkpt><trkpt lat="45.52036883109101" lon="11.403536500933212"><ele>171.75</ele><time>2026-04-10T14:28:18Z</time></trkpt><trkpt lat="45.52045586091926" lon="11.403715448389393"><ele>170.0</ele><time>2026-04-10T14:28:19Z</time></trkpt><trkpt lat="45.52056157831671" lon="11.403881167574696"><ele>176.5</ele><time>2026-04-10T14:28:20Z</time></trkpt><trkpt lat="45.52066079935085" lon="11.404031973396192"><ele>183.0</ele><time>2026-04-10T14:28:21Z</time></trkpt><trkpt lat="45.52076505043214" lon="11.404147193744459"><ele>189.5</ele><time>2026-04-10T14:28:22Z</time></trkpt><trkpt lat="45.520890252475844" lon="11.404227429401812"><ele>196.0</ele><time>2026-04-10T14:28:23Z</time></trkpt><trkpt lat="45.52101736838477" lon="11.404306194046626"><ele>196.0</ele><time>2026-04-10T14:28:24Z</time></trkpt><trkpt lat="45.5211435794046" lon="11.404367134608846"><ele>196.0</ele><time>2026-04-10T14:28:24.999Z</time></trkpt><trkpt lat="45.52125194970377" lon="11.404398571774367"><ele>196.0</ele><time>2026-04-10T14:28:25.999Z</time></trkpt><trkpt lat="45.521333444194184" lon="11.404420795966882"><ele>196.0</ele><time>2026-04-10T14:28:26.999Z</time></trkpt><trkpt lat="45.52139103519897" lon="11.404552993437367"><ele>196.0</ele><time>2026-04-10T14:28:28.999Z</time></trkpt><trkpt lat="45.521345273390445" lon="11.404686862915456"><ele>196.0</ele><time>2026-04-10T14:28:29.999Z</time></trkpt><trkpt lat="45.52135119115197" lon="11.404847563095448"><ele>196.0</ele><time>2026-04-10T14:28:30.999Z</time></trkpt><trkpt lat="45.52137623686782" lon="11.405018507511853"><ele>196.0</ele><time>2026-04-10T14:28:31.999Z</time></trkpt><trkpt lat="45.52140193802143" lon="11.405143681822695"><ele>196.0</ele><time>2026-04-10T14:28:32.999Z</time></trkpt><trkpt lat="45.52143832319329" lon="11.405233763320606"><ele>196.0</ele><time>2026-04-10T14:28:33.999Z</time></trkpt><trkpt lat="45.521476955013064" lon="11.405315893217113"><ele>196.0</ele><time>2026-04-10T14:28:34.999Z</time></trkpt><trkpt lat="45.521525546321264" lon="11.405398226795851"><ele>196.0</ele><time>2026-04-10T14:28:35.999Z</time></trkpt><trkpt lat="45.52161291553816" lon="11.40547881358506"><ele>196.0</ele><time>2026-04-10T14:28:36.999Z</time></trkpt><trkpt lat="45.521723054987994" lon="11.405568904078455"><ele>196.0</ele><time>2026-04-10T14:28:37.999Z</time></trkpt><trkpt lat="45.52183169537771" lon="11.40565122302635"><ele>196.0</ele><time>2026-04-10T14:28:38.999Z</time></trkpt><trkpt lat="45.52193370477022" lon="11.405734409330966"><ele>196.8</ele><time>2026-04-10T14:28:39.999Z</time></trkpt><trkpt lat="45.52203307536647" lon="11.405801520840443"><ele>197.60000000000002</ele><time>2026-04-10T14:28:40.999Z</time></trkpt><trkpt lat="45.5221375507126" lon="11.405847520229381"><ele>198.4</ele><time>2026-04-10T14:28:41.999Z</time></trkpt><trkpt lat="45.52224044534142" lon="11.40587060086674"><ele>199.2</ele><time>2026-04-10T14:28:42.999Z</time></trkpt><trkpt lat="45.52234005765867" lon="11.4059266887501"><ele>200.0</ele><time>2026-04-10T14:28:43.999Z</time></trkpt><trkpt lat="45.522445834374864" lon="11.405972864208454"><ele>196.75</ele><time>2026-04-10T14:28:44.999Z</time></trkpt><trkpt lat="45.52255579845302" lon="11.406044078278669"><ele>193.5</ele><time>2026-04-10T14:28:45.999Z</time></trkpt><trkpt lat="45.52266254474436" lon="11.406140594152687"><ele>190.25</ele><time>2026-04-10T14:28:46.999Z</time></trkpt><trkpt lat="45.52277994960842" lon="11.406243847258338"><ele>187.0</ele><time>2026-04-10T14:28:47.999Z</time></trkpt><trkpt lat="45.52287426060868" lon="11.406405965051198"><ele>183.25</ele><time>2026-04-10T14:28:48.999Z</time></trkpt><trkpt lat="45.522955261918014" lon="11.406576309694257"><ele>179.5</ele><time>2026-04-10T14:28:49.999Z</time></trkpt><trkpt lat="45.52302963594841" lon="11.406747856159907"><ele>175.75</ele><time>2026-04-10T14:28:50.999Z</time></trkpt><trkpt lat="45.52311578500269" lon="11.406908641123342"><ele>172.0</ele><time>2026-04-10T14:28:51.999Z</time></trkpt><trkpt lat="45.52320000595141" lon="11.407072130719124"><ele>173.0</ele><time>2026-04-10T14:28:52.999Z</time></trkpt><trkpt lat="45.52329408396829" lon="11.40722008580479"><ele>174.0</ele><time>2026-04-10T14:28:53.999Z</time></trkpt><trkpt lat="45.52339291987772" lon="11.407329561051737"><ele>175.0</ele><time>2026-04-10T14:28:54.999Z</time></trkpt><trkpt lat="45.52350460369405" lon="11.407409142879082"><ele>176.0</ele><time>2026-04-10T14:28:55.999Z</time></trkpt><trkpt lat="45.52362230452111" lon="11.407486459404733"><ele>173.5</ele><time>2026-04-10T14:28:56.999Z</time></trkpt><trkpt lat="45.52373821456973" lon="11.407588602032355"><ele>171.0</ele><time>2026-04-10T14:28:57.999Z</time></trkpt><trkpt lat="45.52385395036217" lon="11.407711185391888"><ele>168.5</ele><time>2026-04-10T14:28:58.999Z</time></trkpt><trkpt lat="45.52395056863021" lon="11.407863634392498"><ele>166.0</ele><time>2026-04-10T14:28:59.999Z</time></trkpt><trkpt lat="45.52404870836631" lon="11.408008119907675"><ele>166.0</ele><time>2026-04-10T14:29:00.999Z</time></trkpt><trkpt lat="45.52414679345546" lon="11.408150685704113"><ele>166.0</ele><time>2026-04-10T14:29:01.999Z</time></trkpt><trkpt lat="45.52423769475617" lon="11.40829447221593"><ele>166.0</ele><time>2026-04-10T14:29:02.999Z</time></trkpt><trkpt lat="45.52429890188793" lon="11.408458611279631"><ele>166.0</ele><time>2026-04-10T14:29:03.999Z</time></trkpt><trkpt lat="45.52435763037573" lon="11.408625467405823"><ele>166.0</ele><time>2026-04-10T14:29:04.998Z</time></trkpt><trkpt lat="45.52440596394467" lon="11.408804462232116"><ele>166.0</ele><time>2026-04-10T14:29:05.998Z</time></trkpt><trkpt lat="45.52444536092452" lon="11.408997802515406"><ele>166.0</ele><time>2026-04-10T14:29:06.998Z</time></trkpt><trkpt lat="45.52447302807983" lon="11.409190236859232"><ele>166.0</ele><time>2026-04-10T14:29:07.998Z</time></trkpt><trkpt lat="45.5244791681122" lon="11.409380153288053"><ele>163.5</ele><time>2026-04-10T14:29:08.998Z</time></trkpt><trkpt lat="45.524455763416675" lon="11.409568572783906"><ele>161.0</ele><time>2026-04-10T14:29:09.998Z</time></trkpt><trkpt lat="45.52446355118429" lon="11.409766444609629"><ele>158.5</ele><time>2026-04-10T14:29:10.998Z</time></trkpt><trkpt lat="45.524466029708314" lon="11.409958163353748"><ele>156.0</ele><time>2026-04-10T14:29:11.998Z</time></trkpt><trkpt lat="45.52449608642067" lon="11.41014009365493"><ele>155.75</ele><time>2026-04-10T14:29:12.998Z</time></trkpt><trkpt lat="45.524521275418515" lon="11.410332557027086"><ele>155.5</ele><time>2026-04-10T14:29:13.998Z</time></trkpt><trkpt lat="45.524538332291044" lon="11.410517929795416"><ele>155.25</ele><time>2026-04-10T14:29:14.999Z</time></trkpt><trkpt lat="45.524559730426276" lon="11.410698151141608"><ele>155.0</ele><time>2026-04-10T14:29:15.999Z</time></trkpt><trkpt lat="45.52457809123202" lon="11.410865499704496"><ele>155.0</ele><time>2026-04-10T14:29:16.999Z</time></trkpt><trkpt lat="45.52460083807502" lon="11.4110169373336"><ele>155.0</ele><time>2026-04-10T14:29:17.999Z</time></trkpt><trkpt lat="45.524628983677566" lon="11.411156356871887"><ele>155.0</ele><time>2026-04-10T14:29:18.999Z</time></trkpt><trkpt lat="45.52465849041211" lon="11.411299745554436"><ele>155.0</ele><time>2026-04-10T14:29:19.999Z</time></trkpt><trkpt lat="45.52468925755032" lon="11.411394976331014"><ele>155.0</ele><time>2026-04-10T14:29:20.999Z</time></trkpt><trkpt lat="45.52475306283734" lon="11.411503796306944"><ele>153.2</ele><time>2026-04-10T14:29:22.999Z</time></trkpt><trkpt lat="45.52470226357789" lon="11.411557871051562"><ele>151.4</ele><time>2026-04-10T14:29:23.999Z</time></trkpt><trkpt lat="45.52459522911289" lon="11.411595822361898"><ele>149.6</ele><time>2026-04-10T14:29:25.999Z</time></trkpt><trkpt lat="45.524489197829276" lon="11.411530291560013"><ele>147.8</ele><time>2026-04-10T14:29:27.999Z</time></trkpt><trkpt lat="45.524454876311566" lon="11.411411644060722"><ele>146.0</ele><time>2026-04-10T14:29:28.999Z</time></trkpt><trkpt lat="45.52437962671112" lon="11.411272425816167"><ele>143.25</ele><time>2026-04-10T14:29:29.999Z</time></trkpt><trkpt lat="45.524296058551506" lon="11.411123897217678"><ele>140.5</ele><time>2026-04-10T14:29:30.999Z</time></trkpt><trkpt lat="45.5242171081579" lon="11.410982557315712"><ele>137.75</ele><time>2026-04-10T14:29:31.999Z</time></trkpt><trkpt lat="45.524140140248825" lon="11.410851370432905"><ele>135.0</ele><time>2026-04-10T14:29:32.999Z</time></trkpt><trkpt lat="45.52406121424601" lon="11.410726733661617"><ele>135.0</ele><time>2026-04-10T14:29:33.999Z</time></trkpt><trkpt lat="45.523981480604675" lon="11.410622999072055"><ele>135.0</ele><time>2026-04-10T14:29:34.999Z</time></trkpt><trkpt lat="45.52388487754819" lon="11.410501800761534"><ele>135.0</ele><time>2026-04-10T14:29:35.999Z</time></trkpt><trkpt lat="45.52377563661941" lon="11.410404248324314"><ele>135.0</ele><time>2026-04-10T14:29:36.999Z</time></trkpt><trkpt lat="45.52368097233576" lon="11.410302310573087"><ele>135.33333333333334</ele><time>2026-04-10T14:29:37.999Z</time></trkpt><trkpt lat="45.52360122792055" lon="11.41021821489772"><ele>135.66666666666666</ele><time>2026-04-10T14:29:38.999Z</time></trkpt><trkpt lat="45.52352930066462" lon="11.410165859529842"><ele>136.0</ele><time>2026-04-10T14:29:39.999Z</time></trkpt><trkpt lat="45.52345355515965" lon="11.410172122658507"><ele>136.33333333333331</ele><time>2026-04-10T14:29:40.999Z</time></trkpt><trkpt lat="45.52336788927724" lon="11.410195996561386"><ele>136.66666666666666</ele><time>2026-04-10T14:29:42.999Z</time></trkpt><trkpt lat="45.52330916255309" lon="11.410297218840423"><ele>137.0</ele><time>2026-04-10T14:29:44.999Z</time></trkpt><trkpt lat="45.52338832019903" lon="11.410412520222817"><ele>134.75</ele><time>2026-04-10T14:29:45.999Z</time></trkpt><trkpt lat="45.523446978352744" lon="11.410536304934295"><ele>132.5</ele><time>2026-04-10T14:29:46.999Z</time></trkpt><trkpt lat="45.523485029249095" lon="11.410700266217246"><ele>130.25</ele><time>2026-04-10T14:29:47.999Z</time></trkpt><trkpt lat="45.52353685062688" lon="11.410853029577614"><ele>128.0</ele><time>2026-04-10T14:29:48.999Z</time></trkpt><trkpt lat="45.523586630562754" lon="11.411053751836254"><ele>128.0</ele><time>2026-04-10T14:29:49.999Z</time></trkpt><trkpt lat="45.52362741388303" lon="11.411257239548148"><ele>128.0</ele><time>2026-04-10T14:29:50.999Z</time></trkpt><trkpt lat="45.5236683794523" lon="11.411476399211281"><ele>128.0</ele><time>2026-04-10T14:29:51.999Z</time></trkpt><trkpt lat="45.52368850285327" lon="11.411714923628606"><ele>125.0</ele><time>2026-04-10T14:29:52.999Z</time></trkpt><trkpt lat="45.52371606032134" lon="11.411961042413271"><ele>122.0</ele><time>2026-04-10T14:29:53.999Z</time></trkpt><trkpt lat="45.52374677030222" lon="11.41221275948837"><ele>119.0</ele><time>2026-04-10T14:29:54.999Z</time></trkpt><trkpt lat="45.52378214254768" lon="11.412462972208122"><ele>116.0</ele><time>2026-04-10T14:29:55.999Z</time></trkpt><trkpt lat="45.523820845348055" lon="11.412717881222582"><ele>113.0</ele><time>2026-04-10T14:29:56.999Z</time></trkpt><trkpt lat="45.52385777292563" lon="11.412966553070726"><ele>110.0</ele><time>2026-04-10T14:29:57.999Z</time></trkpt><trkpt lat="45.52389642417837" lon="11.413205394490559"><ele>106.66666666666666</ele><time>2026-04-10T14:29:58.999Z</time></trkpt><trkpt lat="45.523937561661654" lon="11.413442178224924"><ele>103.33333333333334</ele><time>2026-04-10T14:29:59.999Z</time></trkpt><trkpt lat="45.52398590421826" lon="11.413666485390756"><ele>100.0</ele><time>2026-04-10T14:30:00.999Z</time></trkpt><trkpt lat="45.52398155553611" lon="11.413872797310194"><ele>99.0</ele><time>2026-04-10T14:30:01.999Z</time></trkpt><trkpt lat="45.52398315202913" lon="11.414077105689948"><ele>98.0</ele><time>2026-04-10T14:30:02.999Z</time></trkpt><trkpt lat="45.523983785355014" lon="11.414271999777528"><ele>97.0</ele><time>2026-04-10T14:30:03.999Z</time></trkpt><trkpt lat="45.52397945650927" lon="11.414457521505492"><ele>96.0</ele><time>2026-04-10T14:30:04.999Z</time></trkpt><trkpt lat="45.52399583373228" lon="11.414642855390165"><ele>94.75</ele><time>2026-04-10T14:30:05.999Z</time></trkpt><trkpt lat="45.5239980296969" lon="11.41482933351065"><ele>93.5</ele><time>2026-04-10T14:30:06.999Z</time></trkpt><trkpt lat="45.52400568604322" lon="11.415009490489997"><ele>92.25</ele><time>2026-04-10T14:30:07.999Z</time></trkpt><trkpt lat="45.5240137170481" lon="11.4151872507294"><ele>91.0</ele><time>2026-04-10T14:30:08.999Z</time></trkpt><trkpt lat="45.52401979984597" lon="11.415365620409412"><ele>89.0</ele><time>2026-04-10T14:30:09.999Z</time></trkpt><trkpt lat="45.52402143466644" lon="11.415549895783782"><ele>87.0</ele><time>2026-04-10T14:30:10.999Z</time></trkpt><trkpt lat="45.52402266511948" lon="11.41573150157234"><ele>85.0</ele><time>2026-04-10T14:30:11.999Z</time></trkpt><trkpt lat="45.524035600589" lon="11.415915178558787"><ele>83.0</ele><time>2026-04-10T14:30:12.999Z</time></trkpt><trkpt lat="45.52404323808677" lon="11.416101105706371"><ele>83.0</ele><time>2026-04-10T14:30:13.999Z</time></trkpt><trkpt lat="45.524051395540035" lon="11.416280491637957"><ele>83.0</ele><time>2026-04-10T14:30:14.999Z</time></trkpt><trkpt lat="45.52405557457201" lon="11.41645849402608"><ele>83.0</ele><time>2026-04-10T14:30:15.999Z</time></trkpt><trkpt lat="45.52405834439496" lon="11.416629583492648"><ele>83.0</ele><time>2026-04-10T14:30:16.999Z</time></trkpt><trkpt lat="45.52406188078024" lon="11.416790934441007"><ele>80.80000000000001</ele><time>2026-04-10T14:30:17.999Z</time></trkpt><trkpt lat="45.524066509831925" lon="11.416950589099216"><ele>78.60000000000001</ele><time>2026-04-10T14:30:18.999Z</time></trkpt><trkpt lat="45.52405678432508" lon="11.41710285151914"><ele>76.4</ele><time>2026-04-10T14:30:19.999Z</time></trkpt><trkpt lat="45.524047482062535" lon="11.417241617581027"><ele>74.2</ele><time>2026-04-10T14:30:20.999Z</time></trkpt><trkpt lat="45.52403937730246" lon="11.417344562001377"><ele>72.0</ele><time>2026-04-10T14:30:21.999Z</time></trkpt><trkpt lat="45.524016292744435" lon="11.417441851349022"><ele>69.0</ele><time>2026-04-10T14:30:23.999Z</time></trkpt><trkpt lat="45.52391169450498" lon="11.417468199703041"><ele>66.0</ele><time>2026-04-10T14:30:27.999Z</time></trkpt><trkpt lat="45.52380354530945" lon="11.417514832303082"><ele>63.0</ele><time>2026-04-10T14:30:28.999Z</time></trkpt><trkpt lat="45.52368374050055" lon="11.417578634889491"><ele>60.0</ele><time>2026-04-10T14:30:29.999Z</time></trkpt><trkpt lat="45.52356486270643" lon="11.417625850008516"><ele>57.0</ele><time>2026-04-10T14:30:30.999Z</time></trkpt><trkpt lat="45.52342565113499" lon="11.417679540925711"><ele>54.0</ele><time>2026-04-10T14:30:31.999Z</time></trkpt><trkpt lat="45.52327354409242" lon="11.417725609428038"><ele>51.0</ele><time>2026-04-10T14:30:32.999Z</time></trkpt><trkpt lat="45.52311626983268" lon="11.417769369417089"><ele>51.0</ele><time>2026-04-10T14:30:33.999Z</time></trkpt><trkpt lat="45.5229617712005" lon="11.41780561752172"><ele>51.0</ele><time>2026-04-10T14:30:34.999Z</time></trkpt><trkpt lat="45.5227920462359" lon="11.417841549744622"><ele>51.0</ele><time>2026-04-10T14:30:35.999Z</time></trkpt><trkpt lat="45.52261302175896" lon="11.417875968063866"><ele>51.66666666666667</ele><time>2026-04-10T14:30:36.999Z</time></trkpt><trkpt lat="45.52242162847825" lon="11.417906122697925"><ele>52.333333333333336</ele><time>2026-04-10T14:30:37.999Z</time></trkpt><trkpt lat="45.522245080103716" lon="11.417937066533888"><ele>53.0</ele><time>2026-04-10T14:30:38.999Z</time></trkpt><trkpt lat="45.52206212572255" lon="11.4179741091156"><ele>53.0</ele><time>2026-04-10T14:30:39.999Z</time></trkpt><trkpt lat="45.52187417344018" lon="11.418018018347512"><ele>53.0</ele><time>2026-04-10T14:30:40.999Z</time></trkpt><trkpt lat="45.52167859906269" lon="11.418076014095465"><ele>53.0</ele><time>2026-04-10T14:30:41.999Z</time></trkpt><trkpt lat="45.52148044097347" lon="11.418147554367508"><ele>53.0</ele><time>2026-04-10T14:30:42.999Z</time></trkpt><trkpt lat="45.52128106528016" lon="11.418214806293538"><ele>53.0</ele><time>2026-04-10T14:30:43.999Z</time></trkpt><trkpt lat="45.52108226470273" lon="11.418287109285119"><ele>53.0</ele><time>2026-04-10T14:30:44.999Z</time></trkpt><trkpt lat="45.52087782572391" lon="11.418347055795838"><ele>52.66666666666667</ele><time>2026-04-10T14:30:45.999Z</time></trkpt><trkpt lat="45.520681441704724" lon="11.418398160703909"><ele>52.33333333333333</ele><time>2026-04-10T14:30:46.999Z</time></trkpt><trkpt lat="45.52048521376263" lon="11.418440495551463"><ele>52.0</ele><time>2026-04-10T14:30:47.999Z</time></trkpt><trkpt lat="45.52028731406698" lon="11.418486703415425"><ele>52.0</ele><time>2026-04-10T14:30:48.999Z</time></trkpt><trkpt lat="45.52009836020814" lon="11.41854098219376"><ele>52.0</ele><time>2026-04-10T14:30:49.999Z</time></trkpt><trkpt lat="45.51991478243539" lon="11.4185943241736"><ele>52.0</ele><time>2026-04-10T14:30:50.999Z</time></trkpt><trkpt lat="45.519733647505554" lon="11.418646580211316"><ele>52.0</ele><time>2026-04-10T14:30:51.999Z</time></trkpt><trkpt lat="45.51956243941601" lon="11.41869060397274"><ele>52.0</ele><time>2026-04-10T14:30:52.999Z</time></trkpt><trkpt lat="45.51940931795021" lon="11.418737399339138"><ele>52.0</ele><time>2026-04-10T14:30:53.999Z</time></trkpt><trkpt lat="45.519253927668885" lon="11.418781289941617"><ele>52.25</ele><time>2026-04-10T14:30:54.999Z</time></trkpt><trkpt lat="45.51909971498156" lon="11.418828568999642"><ele>52.5</ele><time>2026-04-10T14:30:55.999Z</time></trkpt><trkpt lat="45.518958270191156" lon="11.418866696143464"><ele>52.75</ele><time>2026-04-10T14:30:56.999Z</time></trkpt><trkpt lat="45.51882871384227" lon="11.4188923343639"><ele>53.0</ele><time>2026-04-10T14:30:57.999Z</time></trkpt><trkpt lat="45.51871186973591" lon="11.418907333333344"><ele>53.00000000000001</ele><time>2026-04-10T14:30:58.999Z</time></trkpt><trkpt lat="45.51861237390017" lon="11.418920939846872"><ele>53.0</ele><time>2026-04-10T14:30:59.999Z</time></trkpt><trkpt lat="45.518526385796335" lon="11.418930630812891"><ele>53.0</ele><time>2026-04-10T14:31:00.999Z</time></trkpt><trkpt lat="45.51844913022181" lon="11.418943873348544"><ele>53.0</ele><time>2026-04-10T14:31:01.999Z</time></trkpt><trkpt lat="45.51837420639732" lon="11.418966193204678"><ele>53.00000000000001</ele><time>2026-04-10T14:31:02.999Z</time></trkpt><trkpt lat="45.51830001736658" lon="11.418986468761336"><ele>53.0</ele><time>2026-04-10T14:31:03.999Z</time></trkpt><trkpt lat="45.51821977095042" lon="11.419017374875159"><ele>53.00000000000001</ele><time>2026-04-10T14:31:04.999Z</time></trkpt><trkpt lat="45.51814065851002" lon="11.419050576836284"><ele>53.0</ele><time>2026-04-10T14:31:05.999Z</time></trkpt><trkpt lat="45.51807097234106" lon="11.419093218755243"><ele>53.0</ele><time>2026-04-10T14:31:06.999Z</time></trkpt><trkpt lat="45.517995866679925" lon="11.41912986054"><ele>53.0</ele><time>2026-04-10T14:31:07.999Z</time></trkpt><trkpt lat="45.5179138403054" lon="11.419163760194458"><ele>53.00000000000001</ele><time>2026-04-10T14:31:08.999Z</time></trkpt><trkpt lat="45.517828400389966" lon="11.41918556899663"><ele>53.0</ele><time>2026-04-10T14:31:09.999Z</time></trkpt><trkpt lat="45.517750529932286" lon="11.419199553512174"><ele>53.333333333333336</ele><time>2026-04-10T14:31:10.999Z</time></trkpt><trkpt lat="45.51767885456172" lon="11.41921101125604"><ele>53.66666666666667</ele><time>2026-04-10T14:31:11.999Z</time></trkpt><trkpt lat="45.51756076798232" lon="11.419213690666515"><ele>54.0</ele><time>2026-04-10T14:31:13.999Z</time></trkpt><trkpt lat="45.51749004693793" lon="11.4191963679333"><ele>54.33333333333333</ele><time>2026-04-10T14:31:14.999Z</time></trkpt><trkpt lat="45.51741777906117" lon="11.419150725341156"><ele>54.666666666666664</ele><time>2026-04-10T14:31:15.999Z</time></trkpt><trkpt lat="45.51736331820028" lon="11.419053935258054"><ele>55.0</ele><time>2026-04-10T14:31:16.999Z</time></trkpt><trkpt lat="45.517301868797276" lon="11.418980612640441"><ele>55.0</ele><time>2026-04-10T14:31:17.999Z</time></trkpt><trkpt lat="45.517242392827484" lon="11.418937690436927"><ele>55.0</ele><time>2026-04-10T14:31:18.999Z</time></trkpt><trkpt lat="45.51714456336326" lon="11.41881831423753"><ele>55.0</ele><time>2026-04-10T14:31:21Z</time></trkpt><trkpt lat="45.517096377830335" lon="11.418751953729725"><ele>55.0</ele><time>2026-04-10T14:31:22Z</time></trkpt><trkpt lat="45.517011652527025" lon="11.418631185635753"><ele>55.0</ele><time>2026-04-10T14:31:24Z</time></trkpt><trkpt lat="45.51694963980796" lon="11.418585467939563"><ele>54.857142857142854</ele><time>2026-04-10T14:31:25Z</time></trkpt><trkpt lat="45.516883293620914" lon="11.418566446272303"><ele>54.714285714285715</ele><time>2026-04-10T14:31:26Z</time></trkpt><trkpt lat="45.51681773145551" lon="11.418585301392273"><ele>54.57142857142857</ele><time>2026-04-10T14:31:27Z</time></trkpt><trkpt lat="45.516756772429304" lon="11.418624697745066"><ele>54.42857142857143</ele><time>2026-04-10T14:31:28Z</time></trkpt><trkpt lat="45.5166942222303" lon="11.418681057622868"><ele>54.285714285714285</ele><time>2026-04-10T14:31:29Z</time></trkpt><trkpt lat="45.516638053792946" lon="11.418748794879775"><ele>54.14285714285714</ele><time>2026-04-10T14:31:30Z</time></trkpt><trkpt lat="45.5165887452518" lon="11.418821543635147"><ele>54.0</ele><time>2026-04-10T14:31:31Z</time></trkpt><trkpt lat="45.5165347298748" lon="11.418882656645447"><ele>54.0</ele><time>2026-04-10T14:31:32Z</time></trkpt><trkpt lat="45.516449265071294" lon="11.41898289820945"><ele>54.00000000000001</ele><time>2026-04-10T14:31:34Z</time></trkpt><trkpt lat="45.51637924617604" lon="11.41910668101993"><ele>54.00000000000001</ele><time>2026-04-10T14:31:36Z</time></trkpt><trkpt lat="45.516296007527444" lon="11.419245793396012"><ele>54.0</ele><time>2026-04-10T14:31:38Z</time></trkpt><trkpt lat="45.516242015857685" lon="11.419343885729461"><ele>54.0</ele><time>2026-04-10T14:31:40Z</time></trkpt><trkpt lat="45.51618622961736" lon="11.419430551184787"><ele>54.400000000000006</ele><time>2026-04-10T14:31:43Z</time></trkpt><trkpt lat="45.5161406605962" lon="11.41953325120675"><ele>54.800000000000004</ele><time>2026-04-10T14:31:46Z</time></trkpt><trkpt lat="45.51606519452366" lon="11.41965137386292"><ele>55.199999999999996</ele><time>2026-04-10T14:31:48Z</time></trkpt><trkpt lat="45.51599879953724" lon="11.419715624767388"><ele>55.599999999999994</ele><time>2026-04-10T14:31:49Z</time></trkpt><trkpt lat="45.515924471780586" lon="11.419806318170822"><ele>56.0</ele><time>2026-04-10T14:31:50Z</time></trkpt><trkpt lat="45.51583818849629" lon="11.41987233919115"><ele>56.0</ele><time>2026-04-10T14:31:51Z</time></trkpt><trkpt lat="45.515760615050404" lon="11.419956913332129"><ele>56.0</ele><time>2026-04-10T14:31:52Z</time></trkpt><trkpt lat="45.515681502170814" lon="11.420041059307147"><ele>56.0</ele><time>2026-04-10T14:31:53Z</time></trkpt><trkpt lat="45.515582944459354" lon="11.420146426976691"><ele>56.0</ele><time>2026-04-10T14:31:54Z</time></trkpt><trkpt lat="45.51547204169724" lon="11.420260827871637"><ele>56.25</ele><time>2026-04-10T14:31:55Z</time></trkpt><trkpt lat="45.515352342760764" lon="11.420374065534595"><ele>56.5</ele><time>2026-04-10T14:31:56Z</time></trkpt><trkpt lat="45.51522732529106" lon="11.420502610103789"><ele>56.75</ele><time>2026-04-10T14:31:57Z</time></trkpt><trkpt lat="45.51509480639356" lon="11.420596753550928"><ele>57.0</ele><time>2026-04-10T14:31:57.999Z</time></trkpt><trkpt lat="45.51495041316756" lon="11.42069163874113"><ele>57.0</ele><time>2026-04-10T14:31:58.999Z</time></trkpt><trkpt lat="45.51479129021093" lon="11.42076303653883"><ele>57.0</ele><time>2026-04-10T14:31:59.999Z</time></trkpt><trkpt lat="45.514627499178076" lon="11.42087240991401"><ele>57.0</ele><time>2026-04-10T14:32:00.999Z</time></trkpt><trkpt lat="45.514449628563604" lon="11.42096016412277"><ele>57.0</ele><time>2026-04-10T14:32:01.999Z</time></trkpt><trkpt lat="45.51426495688861" lon="11.42104050552387"><ele>57.0</ele><time>2026-04-10T14:32:02.999Z</time></trkpt><trkpt lat="45.51407036676025" lon="11.421076309229216"><ele>57.0</ele><time>2026-04-10T14:32:03.999Z</time></trkpt><trkpt lat="45.51388274090132" lon="11.421137626193714"><ele>57.33333333333333</ele><time>2026-04-10T14:32:04.999Z</time></trkpt><trkpt lat="45.513703305956895" lon="11.421196884722743"><ele>57.666666666666664</ele><time>2026-04-10T14:32:05.999Z</time></trkpt><trkpt lat="45.513521058221194" lon="11.421308811283813"><ele>58.0</ele><time>2026-04-10T14:32:06.999Z</time></trkpt><trkpt lat="45.513335676955265" lon="11.421447798981067"><ele>58.0</ele><time>2026-04-10T14:32:07.999Z</time></trkpt><trkpt lat="45.51315330361444" lon="11.421586897737017"><ele>58.0</ele><time>2026-04-10T14:32:08.999Z</time></trkpt><trkpt lat="45.51297509404" lon="11.421750274313924"><ele>58.0</ele><time>2026-04-10T14:32:09.999Z</time></trkpt><trkpt lat="45.5127914610626" lon="11.421893037406036"><ele>58.666666666666664</ele><time>2026-04-10T14:32:10.999Z</time></trkpt><trkpt lat="45.512609228521605" lon="11.422072283588664"><ele>59.33333333333333</ele><time>2026-04-10T14:32:11.999Z</time></trkpt><trkpt lat="45.51242310247263" lon="11.422254610654816"><ele>60.0</ele><time>2026-04-10T14:32:12.999Z</time></trkpt><trkpt lat="45.51223372185671" lon="11.422442870181003"><ele>59.5</ele><time>2026-04-10T14:32:13.999Z</time></trkpt><trkpt lat="45.51204870179295" lon="11.422636016453716"><ele>59.0</ele><time>2026-04-10T14:32:14.999Z</time></trkpt><trkpt lat="45.5118526916065" lon="11.422823885695696"><ele>59.0</ele><time>2026-04-10T14:32:15.999Z</time></trkpt><trkpt lat="45.51166250550484" lon="11.423012829869856"><ele>59.0</ele><time>2026-04-10T14:32:16.999Z</time></trkpt><trkpt lat="45.511478006805305" lon="11.423207463450808"><ele>59.0</ele><time>2026-04-10T14:32:17.999Z</time></trkpt><trkpt lat="45.51131583502111" lon="11.42338083123751"><ele>59.0</ele><time>2026-04-10T14:32:18.999Z</time></trkpt><trkpt lat="45.51114880266545" lon="11.423501660416044"><ele>59.0</ele><time>2026-04-10T14:32:19.999Z</time></trkpt><trkpt lat="45.510988255626245" lon="11.423600789572912"><ele>60.0</ele><time>2026-04-10T14:32:20.999Z</time></trkpt><trkpt lat="45.51083095171508" lon="11.423701989357482"><ele>61.0</ele><time>2026-04-10T14:32:21.999Z</time></trkpt><trkpt lat="45.510658317760985" lon="11.423787428113332"><ele>62.0</ele><time>2026-04-10T14:32:22.999Z</time></trkpt><trkpt lat="45.51047554572765" lon="11.423855721478311"><ele>61.333333333333336</ele><time>2026-04-10T14:32:23.999Z</time></trkpt><trkpt lat="45.510289026207126" lon="11.423864528497546"><ele>60.66666666666667</ele><time>2026-04-10T14:32:24.999Z</time></trkpt><trkpt lat="45.51010462464986" lon="11.423866425769969"><ele>60.0</ele><time>2026-04-10T14:32:25.999Z</time></trkpt><trkpt lat="45.50992781552207" lon="11.423866425771308"><ele>60.0</ele><time>2026-04-10T14:32:26.999Z</time></trkpt><trkpt lat="45.50976728326187" lon="11.42387958091649"><ele>60.0</ele><time>2026-04-10T14:32:27.999Z</time></trkpt><trkpt lat="45.50961763047807" lon="11.42387123816806"><ele>60.0</ele><time>2026-04-10T14:32:28.999Z</time></trkpt><trkpt lat="45.50947975111451" lon="11.423868926597484"><ele>60.0</ele><time>2026-04-10T14:32:29.999Z</time></trkpt><trkpt lat="45.50937093611467" lon="11.42386615591182"><ele>61.0</ele><time>2026-04-10T14:32:30.999Z</time></trkpt><trkpt lat="45.509281551082786" lon="11.423844021945674"><ele>62.0</ele><time>2026-04-10T14:32:31.999Z</time></trkpt><trkpt lat="45.5092046657066" lon="11.423823340211838"><ele>63.0</ele><time>2026-04-10T14:32:32.999Z</time></trkpt><trkpt lat="45.50913783726993" lon="11.423809741578875"><ele>64.0</ele><time>2026-04-10T14:32:33.999Z</time></trkpt><trkpt lat="45.5090737518433" lon="11.423792669632624"><ele>65.0</ele><time>2026-04-10T14:32:34.999Z</time></trkpt><trkpt lat="45.50904719616104" lon="11.424005690613576"><ele>65.0</ele><time>2026-04-10T14:32:38.999Z</time></trkpt><trkpt lat="45.509115352648145" lon="11.424121551118859"><ele>65.0</ele><time>2026-04-10T14:32:39.999Z</time></trkpt><trkpt lat="45.50919836231173" lon="11.424244198188735"><ele>65.0</ele><time>2026-04-10T14:32:40.999Z</time></trkpt><trkpt lat="45.50927407492084" lon="11.424362529589175"><ele>65.0</ele><time>2026-04-10T14:32:41.999Z</time></trkpt><trkpt lat="45.509350388187904" lon="11.424503335158182"><ele>65.0</ele><time>2026-04-10T14:32:42.999Z</time></trkpt><trkpt lat="45.509428286138004" lon="11.424621551175813"><ele>65.0</ele><time>2026-04-10T14:32:43.999Z</time></trkpt><trkpt lat="45.50950062131384" lon="11.424757483564058"><ele>65.0</ele><time>2026-04-10T14:32:44.999Z</time></trkpt><trkpt lat="45.509599988811054" lon="11.42492362609487"><ele>65.0</ele><time>2026-04-10T14:32:45.999Z</time></trkpt><trkpt lat="45.50971707129445" lon="11.425047529164157"><ele>63.333333333333336</ele><time>2026-04-10T14:32:46.999Z</time></trkpt><trkpt lat="45.509839620981225" lon="11.42518016601734"><ele>61.66666666666667</ele><time>2026-04-10T14:32:47.999Z</time></trkpt><trkpt lat="45.50996273069125" lon="11.425337415298344"><ele>60.0</ele><time>2026-04-10T14:32:48.999Z</time></trkpt><trkpt lat="45.51009740439562" lon="11.425515549754222"><ele>59.66666666666667</ele><time>2026-04-10T14:32:49.999Z</time></trkpt><trkpt lat="45.510248944356356" lon="11.42568948338179"><ele>59.333333333333336</ele><time>2026-04-10T14:32:50.999Z</time></trkpt><trkpt lat="45.51041584004632" lon="11.42586616483234"><ele>59.0</ele><time>2026-04-10T14:32:51.999Z</time></trkpt><trkpt lat="45.510582177276106" lon="11.426047543518296"><ele>59.0</ele><time>2026-04-10T14:32:52.999Z</time></trkpt><trkpt lat="45.51073903424432" lon="11.426233769558078"><ele>59.0</ele><time>2026-04-10T14:32:53.999Z</time></trkpt><trkpt lat="45.51090601449532" lon="11.426423420201248"><ele>59.0</ele><time>2026-04-10T14:32:54.999Z</time></trkpt><trkpt lat="45.51107440641038" lon="11.426604426287282"><ele>59.0</ele><time>2026-04-10T14:32:55.999Z</time></trkpt><trkpt lat="45.51123797034749" lon="11.426775991608977"><ele>59.0</ele><time>2026-04-10T14:32:56.999Z</time></trkpt><trkpt lat="45.51140385374508" lon="11.426927030313346"><ele>59.0</ele><time>2026-04-10T14:32:57.999Z</time></trkpt><trkpt lat="45.511583381443614" lon="11.427068149815339"><ele>59.0</ele><time>2026-04-10T14:32:58.999Z</time></trkpt><trkpt lat="45.51176382005111" lon="11.427197418595874"><ele>59.0</ele><time>2026-04-10T14:32:59.999Z</time></trkpt><trkpt lat="45.511948669362226" lon="11.427325411826148"><ele>59.0</ele><time>2026-04-10T14:33:00.999Z</time></trkpt><trkpt lat="45.512132069353754" lon="11.427447858768014"><ele>58.66666666666667</ele><time>2026-04-10T14:33:01.999Z</time></trkpt><trkpt lat="45.512287335671914" lon="11.42757313472612"><ele>58.33333333333333</ele><time>2026-04-10T14:33:02.999Z</time></trkpt><trkpt lat="45.5124282456218" lon="11.427718729238956"><ele>58.0</ele><time>2026-04-10T14:33:03.999Z</time></trkpt><trkpt lat="45.51255386646461" lon="11.427874585141511"><ele>58.0</ele><time>2026-04-10T14:33:04.999Z</time></trkpt><trkpt lat="45.512685070043496" lon="11.428043172197949"><ele>58.0</ele><time>2026-04-10T14:33:05.999Z</time></trkpt><trkpt lat="45.5128142963632" lon="11.428203391017611"><ele>58.0</ele><time>2026-04-10T14:33:06.999Z</time></trkpt><trkpt lat="45.51295735334686" lon="11.428361472624195"><ele>58.0</ele><time>2026-04-10T14:33:07.999Z</time></trkpt><trkpt lat="45.513103334223565" lon="11.428520212662493"><ele>58.0</ele><time>2026-04-10T14:33:08.999Z</time></trkpt><trkpt lat="45.51325709216202" lon="11.42868120860426"><ele>58.0</ele><time>2026-04-10T14:33:09.999Z</time></trkpt><trkpt lat="45.51342064551837" lon="11.428821646373923"><ele>58.0</ele><time>2026-04-10T14:33:10.999Z</time></trkpt><trkpt lat="45.51358593610072" lon="11.428935014794686"><ele>58.0</ele><time>2026-04-10T14:33:11.999Z</time></trkpt><trkpt lat="45.51374061272048" lon="11.429022094305454"><ele>58.0</ele><time>2026-04-10T14:33:12.999Z</time></trkpt><trkpt lat="45.51388518221046" lon="11.429119130402379"><ele>57.75</ele><time>2026-04-10T14:33:13.999Z</time></trkpt><trkpt lat="45.51402253023298" lon="11.429191170786737"><ele>57.5</ele><time>2026-04-10T14:33:14.999Z</time></trkpt><trkpt lat="45.5141436702291" lon="11.429248149979065"><ele>57.25</ele><time>2026-04-10T14:33:15.999Z</time></trkpt><trkpt lat="45.51425211707121" lon="11.429299294372838"><ele>57.0</ele><time>2026-04-10T14:33:16.999Z</time></trkpt><trkpt lat="45.51435250237177" lon="11.429345602542307"><ele>57.0</ele><time>2026-04-10T14:33:17.999Z</time></trkpt><trkpt lat="45.51445860377405" lon="11.429404302429402"><ele>57.0</ele><time>2026-04-10T14:33:18.999Z</time></trkpt><trkpt lat="45.51456595044034" lon="11.42945919927185"><ele>57.0</ele><time>2026-04-10T14:33:19.999Z</time></trkpt><trkpt lat="45.51467101551253" lon="11.429526935596316"><ele>57.0</ele><time>2026-04-10T14:33:20.999Z</time></trkpt><trkpt lat="45.51477510595736" lon="11.429606668839291"><ele>57.2</ele><time>2026-04-10T14:33:21.999Z</time></trkpt><trkpt lat="45.5148769684203" lon="11.429684273317504"><ele>57.400000000000006</ele><time>2026-04-10T14:33:22.999Z</time></trkpt><trkpt lat="45.51496708845977" lon="11.429752730706241"><ele>57.599999999999994</ele><time>2026-04-10T14:33:23.999Z</time></trkpt><trkpt lat="45.51505370447763" lon="11.42982122193134"><ele>57.8</ele><time>2026-04-10T14:33:24.999Z</time></trkpt><trkpt lat="45.515139872309994" lon="11.429888292058466"><ele>58.0</ele><time>2026-04-10T14:33:25.999Z</time></trkpt><trkpt lat="45.51522123915779" lon="11.429947060542904"><ele>58.0</ele><time>2026-04-10T14:33:27Z</time></trkpt><trkpt lat="45.515297088432085" lon="11.43000896444539"><ele>58.0</ele><time>2026-04-10T14:33:28Z</time></trkpt><trkpt lat="45.51537543441581" lon="11.430084305587746"><ele>58.0</ele><time>2026-04-10T14:33:29Z</time></trkpt><trkpt lat="45.51546339479304" lon="11.430164365172574"><ele>58.0</ele><time>2026-04-10T14:33:30Z</time></trkpt><trkpt lat="45.515557739512566" lon="11.4302445773461"><ele>58.0</ele><time>2026-04-10T14:33:31Z</time></trkpt><trkpt lat="45.51565846230425" lon="11.43032419254373"><ele>57.0</ele><time>2026-04-10T14:33:32Z</time></trkpt><trkpt lat="45.51576455994378" lon="11.430406895832558"><ele>56.0</ele><time>2026-04-10T14:33:33Z</time></trkpt><trkpt lat="45.51587437857536" lon="11.430492928700843"><ele>55.0</ele><time>2026-04-10T14:33:34Z</time></trkpt><trkpt lat="45.51598871604822" lon="11.430571766276387"><ele>54.0</ele><time>2026-04-10T14:33:35Z</time></trkpt><trkpt lat="45.51610878318182" lon="11.430649233644896"><ele>53.5</ele><time>2026-04-10T14:33:36Z</time></trkpt><trkpt lat="45.51623355186068" lon="11.430728833402608"><ele>53.0</ele><time>2026-04-10T14:33:37Z</time></trkpt><trkpt lat="45.516362904854766" lon="11.430807878311882"><ele>52.5</ele><time>2026-04-10T14:33:38Z</time></trkpt><trkpt lat="45.51649457627758" lon="11.430893052472019"><ele>52.0</ele><time>2026-04-10T14:33:39Z</time></trkpt><trkpt lat="45.516626387526024" lon="11.430985739583491"><ele>52.0</ele><time>2026-04-10T14:33:40Z</time></trkpt><trkpt lat="45.51676003544941" lon="11.431087944970976"><ele>52.0</ele><time>2026-04-10T14:33:41Z</time></trkpt><trkpt lat="45.51689816109696" lon="11.431196670706207"><ele>52.0</ele><time>2026-04-10T14:33:42Z</time></trkpt><trkpt lat="45.51703192914535" lon="11.431319556598051"><ele>51.666666666666664</ele><time>2026-04-10T14:33:43Z</time></trkpt><trkpt lat="45.51716325986924" lon="11.431437778449395"><ele>51.33333333333333</ele><time>2026-04-10T14:33:44Z</time></trkpt><trkpt lat="45.517293661390696" lon="11.431564724219383"><ele>51.0</ele><time>2026-04-10T14:33:45Z</time></trkpt><trkpt lat="45.517419946332105" lon="11.431682494849968"><ele>51.0</ele><time>2026-04-10T14:33:46Z</time></trkpt><trkpt lat="45.51754583498648" lon="11.431800574581697"><ele>51.0</ele><time>2026-04-10T14:33:47Z</time></trkpt><trkpt lat="45.51767226965362" lon="11.431919805097744"><ele>51.0</ele><time>2026-04-10T14:33:48Z</time></trkpt><trkpt lat="45.51779452301651" lon="11.4320346650792"><ele>51.0</ele><time>2026-04-10T14:33:49Z</time></trkpt><trkpt lat="45.51791860044666" lon="11.432139920432638"><ele>51.5</ele><time>2026-04-10T14:33:50Z</time></trkpt><trkpt lat="45.518032338673656" lon="11.432234938191051"><ele>52.0</ele><time>2026-04-10T14:33:51Z</time></trkpt><trkpt lat="45.51813937976207" lon="11.432328968258727"><ele>52.5</ele><time>2026-04-10T14:33:52Z</time></trkpt><trkpt lat="45.518253627848864" lon="11.432418135789042"><ele>53.0</ele><time>2026-04-10T14:33:53Z</time></trkpt><trkpt lat="45.518360851024504" lon="11.432500129954933"><ele>53.0</ele><time>2026-04-10T14:33:54Z</time></trkpt><trkpt lat="45.51846019334362" lon="11.432583491896336"><ele>53.0</ele><time>2026-04-10T14:33:55Z</time></trkpt><trkpt lat="45.51856033046748" lon="11.432677556237387"><ele>53.0</ele><time>2026-04-10T14:33:56Z</time></trkpt><trkpt lat="45.518661893217875" lon="11.432766151762705"><ele>53.0</ele><time>2026-04-10T14:33:57Z</time></trkpt><trkpt lat="45.51875817792665" lon="11.432848296881781"><ele>52.66666666666667</ele><time>2026-04-10T14:33:58Z</time></trkpt><trkpt lat="45.518849925593805" lon="11.432921508156367"><ele>52.333333333333336</ele><time>2026-04-10T14:33:59Z</time></trkpt><trkpt lat="45.51893073875219" lon="11.432990750856577"><ele>52.0</ele><time>2026-04-10T14:34:00Z</time></trkpt><trkpt lat="45.519000398354805" lon="11.43305501923174"><ele>51.66666666666667</ele><time>2026-04-10T14:34:01Z</time></trkpt><trkpt lat="45.51905978623238" lon="11.4331108934593"><ele>51.333333333333336</ele><time>2026-04-10T14:34:02Z</time></trkpt><trkpt lat="45.51910978207735" lon="11.433170843969394"><ele>51.0</ele><time>2026-04-10T14:34:03Z</time></trkpt><trkpt lat="45.51915882186582" lon="11.433228611994506"><ele>51.0</ele><time>2026-04-10T14:34:04Z</time></trkpt><trkpt lat="45.519238763347566" lon="11.433326315936442"><ele>51.0</ele><time>2026-04-10T14:34:06Z</time></trkpt><trkpt lat="45.51931719238694" lon="11.433462804099888"><ele>51.0</ele><time>2026-04-10T14:34:08Z</time></trkpt><trkpt lat="45.51935365942384" lon="11.433559327918266"><ele>51.0</ele><time>2026-04-10T14:34:09Z</time></trkpt><trkpt lat="45.51937575289722" lon="11.433661401439336"><ele>51.0</ele><time>2026-04-10T14:34:10Z</time></trkpt><trkpt lat="45.51942018151562" lon="11.433736463511742"><ele>51.0</ele><time>2026-04-10T14:34:11Z</time></trkpt><trkpt lat="45.51948605087444" lon="11.433734645132448"><ele>51.0</ele><time>2026-04-10T14:34:12Z</time></trkpt><trkpt lat="45.51954223222845" lon="11.433662531568112"><ele>51.0</ele><time>2026-04-10T14:34:13Z</time></trkpt><trkpt lat="45.519575710596456" lon="11.43354376256701"><ele>51.0</ele><time>2026-04-10T14:34:14Z</time></trkpt><trkpt lat="45.519588279859924" lon="11.433403480460436"><ele>51.0</ele><time>2026-04-10T14:34:15Z</time></trkpt><trkpt lat="45.51965623474008" lon="11.43326312880303"><ele>51.0</ele><time>2026-04-10T14:34:16Z</time></trkpt><trkpt lat="45.51973389196039" lon="11.433110401668408"><ele>51.0</ele><time>2026-04-10T14:34:17Z</time></trkpt><trkpt lat="45.51984202235453" lon="11.43294363241043"><ele>51.0</ele><time>2026-04-10T14:34:18Z</time></trkpt><trkpt lat="45.51995361663351" lon="11.432750515964036"><ele>51.0</ele><time>2026-04-10T14:34:19Z</time></trkpt><trkpt lat="45.52005971106326" lon="11.432574655147565"><ele>51.0</ele><time>2026-04-10T14:34:20Z</time></trkpt><trkpt lat="45.52016444937314" lon="11.432391215865835"><ele>51.0</ele><time>2026-04-10T14:34:21Z</time></trkpt><trkpt lat="45.52025176907359" lon="11.432197983176515"><ele>51.0</ele><time>2026-04-10T14:34:22Z</time></trkpt><trkpt lat="45.52030893089366" lon="11.432014851802254"><ele>51.199999999999996</ele><time>2026-04-10T14:34:23Z</time></trkpt><trkpt lat="45.5203568683911" lon="11.43184676023578"><ele>51.4</ele><time>2026-04-10T14:34:23.999Z</time></trkpt><trkpt lat="45.52040529915489" lon="11.43170190260589"><ele>51.6</ele><time>2026-04-10T14:34:24.999Z</time></trkpt><trkpt lat="45.520453436011955" lon="11.431580204641902"><ele>51.8</ele><time>2026-04-10T14:34:25.999Z</time></trkpt><trkpt lat="45.520500554056355" lon="11.431468263603254"><ele>52.0</ele><time>2026-04-10T14:34:26.999Z</time></trkpt><trkpt lat="45.520560282811935" lon="11.431400885170603"><ele>51.99999999999999</ele><time>2026-04-10T14:34:27.999Z</time></trkpt><trkpt lat="45.52063037623377" lon="11.431413411855473"><ele>52.0</ele><time>2026-04-10T14:34:28.999Z</time></trkpt><trkpt lat="45.52072792885387" lon="11.431425448289065"><ele>52.0</ele><time>2026-04-10T14:34:30.999Z</time></trkpt><trkpt lat="45.52078365919162" lon="11.431467289911392"><ele>52.0</ele><time>2026-04-10T14:34:31.999Z</time></trkpt><trkpt lat="45.520878818805144" lon="11.431481520470726"><ele>51.99999999999999</ele><time>2026-04-10T14:34:33.999Z</time></trkpt><trkpt lat="45.52098126689288" lon="11.431522634155346"><ele>52.0</ele><time>2026-04-10T14:34:35.999Z</time></trkpt><trkpt lat="45.5210504603399" lon="11.43154627023201"><ele>52.0</ele><time>2026-04-10T14:34:37.999Z</time></trkpt><trkpt lat="45.521134501482734" lon="11.43159145095839"><ele>52.0</ele><time>2026-04-10T14:34:39.999Z</time></trkpt><trkpt lat="45.521198468136284" lon="11.431664112207278"><ele>52.0</ele><time>2026-04-10T14:34:41.999Z</time></trkpt><trkpt lat="45.52127009473445" lon="11.431568632289823"><ele>52.0</ele><time>2026-04-10T14:34:43.999Z</time></trkpt><trkpt lat="45.52132317555191" lon="11.43140540338967"><ele>52.0</ele><time>2026-04-10T14:34:45.999Z</time></trkpt><trkpt lat="45.52135331033634" lon="11.431307956654614"><ele>53.666666666666664</ele><time>2026-04-10T14:34:46.999Z</time></trkpt><trkpt lat="45.52138586790376" lon="11.431213208707671"><ele>55.33333333333333</ele><time>2026-04-10T14:34:47.999Z</time></trkpt><trkpt lat="45.52141924755124" lon="11.431118902007055"><ele>57.0</ele><time>2026-04-10T14:34:48.999Z</time></trkpt><trkpt lat="45.52145855784465" lon="11.431015400676412"><ele>58.66666666666667</ele><time>2026-04-10T14:34:49.999Z</time></trkpt><trkpt lat="45.52150345371587" lon="11.430907387009734"><ele>60.333333333333336</ele><time>2026-04-10T14:34:50.999Z</time></trkpt><trkpt lat="45.52155356705235" lon="11.430793164649108"><ele>62.0</ele><time>2026-04-10T14:34:51.999Z</time></trkpt><trkpt lat="45.52160579683068" lon="11.43068058907558"><ele>62.0</ele><time>2026-04-10T14:34:52.999Z</time></trkpt><trkpt lat="45.52165743120043" lon="11.43056747866447"><ele>62.0</ele><time>2026-04-10T14:34:53.999Z</time></trkpt><trkpt lat="45.52171101153707" lon="11.43045359474993"><ele>62.0</ele><time>2026-04-10T14:34:54.999Z</time></trkpt><trkpt lat="45.521764958424754" lon="11.430341669354618"><ele>62.0</ele><time>2026-04-10T14:34:55.999Z</time></trkpt><trkpt lat="45.52181442807668" lon="11.430234687193316"><ele>62.0</ele><time>2026-04-10T14:34:56.999Z</time></trkpt><trkpt lat="45.52187334912014" lon="11.430141870216818"><ele>62.16666666666667</ele><time>2026-04-10T14:34:57.999Z</time></trkpt><trkpt lat="45.52192030711537" lon="11.430035765262609"><ele>62.333333333333336</ele><time>2026-04-10T14:34:58.999Z</time></trkpt><trkpt lat="45.52196288244207" lon="11.429936914315745"><ele>62.5</ele><time>2026-04-10T14:34:59.999Z</time></trkpt><trkpt lat="45.522005710213655" lon="11.429862784043511"><ele>62.66666666666667</ele><time>2026-04-10T14:35:00.999Z</time></trkpt><trkpt lat="45.52206372746967" lon="11.429819556247253"><ele>62.833333333333336</ele><time>2026-04-10T14:35:01.999Z</time></trkpt><trkpt lat="45.5221295494424" lon="11.429786221231684"><ele>63.0</ele><time>2026-04-10T14:35:02.999Z</time></trkpt><trkpt lat="45.52221211613727" lon="11.429744455199051"><ele>63.0</ele><time>2026-04-10T14:35:03.999Z</time></trkpt><trkpt lat="45.52230088409098" lon="11.429726832139044"><ele>63.0</ele><time>2026-04-10T14:35:04.999Z</time></trkpt><trkpt lat="45.52239104091674" lon="11.429685078337581"><ele>63.0</ele><time>2026-04-10T14:35:05.999Z</time></trkpt><trkpt lat="45.52247646009594" lon="11.429617338918098"><ele>63.0</ele><time>2026-04-10T14:35:06.999Z</time></trkpt><trkpt lat="45.52251741365777" lon="11.429491182198024"><ele>63.0</ele><time>2026-04-10T14:35:07.999Z</time></trkpt><trkpt lat="45.52254727927207" lon="11.429365149148964"><ele>61.2</ele><time>2026-04-10T14:35:08.999Z</time></trkpt><trkpt lat="45.522565729026596" lon="11.429215054447171"><ele>59.4</ele><time>2026-04-10T14:35:09.999Z</time></trkpt><trkpt lat="45.52257556085869" lon="11.429063883046494"><ele>57.60000000000001</ele><time>2026-04-10T14:35:10.999Z</time></trkpt><trkpt lat="45.52259978532246" lon="11.428933146089035"><ele>55.800000000000004</ele><time>2026-04-10T14:35:11.999Z</time></trkpt><trkpt lat="45.522638020260885" lon="11.428822674986234"><ele>54.0</ele><time>2026-04-10T14:35:12.999Z</time></trkpt><trkpt lat="45.52269816546285" lon="11.428733503717428"><ele>53.6</ele><time>2026-04-10T14:35:13.999Z</time></trkpt><trkpt lat="45.52275766266621" lon="11.428630179859406"><ele>53.2</ele><time>2026-04-10T14:35:14.999Z</time></trkpt><trkpt lat="45.52282548968818" lon="11.42852982911598"><ele>52.800000000000004</ele><time>2026-04-10T14:35:15.999Z</time></trkpt><trkpt lat="45.522895893502884" lon="11.428430302636647"><ele>52.400000000000006</ele><time>2026-04-10T14:35:16.999Z</time></trkpt><trkpt lat="45.522958985595615" lon="11.428334313088284"><ele>52.0</ele><time>2026-04-10T14:35:17.999Z</time></trkpt><trkpt lat="45.52301253321878" lon="11.428210188561158"><ele>52.400000000000006</ele><time>2026-04-10T14:35:18.999Z</time></trkpt><trkpt lat="45.52308022955371" lon="11.428100587306655"><ele>52.800000000000004</ele><time>2026-04-10T14:35:19.999Z</time></trkpt><trkpt lat="45.52316055693934" lon="11.427995314345694"><ele>53.2</ele><time>2026-04-10T14:35:20.999Z</time></trkpt><trkpt lat="45.52324658112169" lon="11.427894078252729"><ele>53.6</ele><time>2026-04-10T14:35:21.999Z</time></trkpt><trkpt lat="45.5233369783728" lon="11.427820269711045"><ele>54.0</ele><time>2026-04-10T14:35:22.999Z</time></trkpt><trkpt lat="45.52341371673687" lon="11.427743620986297"><ele>54.0</ele><time>2026-04-10T14:35:23.999Z</time></trkpt><trkpt lat="45.52346337592602" lon="11.427643122306737"><ele>54.00000000000001</ele><time>2026-04-10T14:35:24.999Z</time></trkpt><trkpt lat="45.523509119197804" lon="11.427504977279447"><ele>54.00000000000001</ele><time>2026-04-10T14:35:25.999Z</time></trkpt><trkpt lat="45.52355240242267" lon="11.427356892848763"><ele>54.0</ele><time>2026-04-10T14:35:26.999Z</time></trkpt><trkpt lat="45.523609922160404" lon="11.427221052783159"><ele>54.0</ele><time>2026-04-10T14:35:27.999Z</time></trkpt><trkpt lat="45.52365230446261" lon="11.427093595689907"><ele>53.666666666666664</ele><time>2026-04-10T14:35:28.999Z</time></trkpt><trkpt lat="45.52369022712384" lon="11.426979550254401"><ele>53.33333333333333</ele><time>2026-04-10T14:35:29.999Z</time></trkpt><trkpt lat="45.52372540164604" lon="11.42687376901967"><ele>53.0</ele><time>2026-04-10T14:35:30.999Z</time></trkpt><trkpt lat="45.523757017830725" lon="11.426778689745225"><ele>52.666666666666664</ele><time>2026-04-10T14:35:31.999Z</time></trkpt><trkpt lat="45.5237922037974" lon="11.426685388635224"><ele>52.33333333333333</ele><time>2026-04-10T14:35:33Z</time></trkpt><trkpt lat="45.52383264540002" lon="11.42658624379438"><ele>52.0</ele><time>2026-04-10T14:35:34Z</time></trkpt><trkpt lat="45.523873677646755" lon="11.426492470194322"><ele>53.400000000000006</ele><time>2026-04-10T14:35:35Z</time></trkpt><trkpt lat="45.523919154158854" lon="11.426394763768265"><ele>54.800000000000004</ele><time>2026-04-10T14:35:36Z</time></trkpt><trkpt lat="45.523968514892665" lon="11.426291027749578"><ele>56.2</ele><time>2026-04-10T14:35:37Z</time></trkpt><trkpt lat="45.52402417366339" lon="11.426179869731989"><ele>57.6</ele><time>2026-04-10T14:35:38Z</time></trkpt><trkpt lat="45.52408481914329" lon="11.426065724448613"><ele>59.0</ele><time>2026-04-10T14:35:39Z</time></trkpt><trkpt lat="45.52415001916088" lon="11.425947504994618"><ele>59.0</ele><time>2026-04-10T14:35:40Z</time></trkpt><trkpt lat="45.52421367954452" lon="11.425835215238495"><ele>59.00000000000001</ele><time>2026-04-10T14:35:41Z</time></trkpt><trkpt lat="45.524280907832384" lon="11.425728413430178"><ele>59.00000000000001</ele><time>2026-04-10T14:35:42Z</time></trkpt><trkpt lat="45.52435980681383" lon="11.425621543275012"><ele>59.0</ele><time>2026-04-10T14:35:43Z</time></trkpt><trkpt lat="45.52444153615438" lon="11.42552286427098"><ele>59.0</ele><time>2026-04-10T14:35:44Z</time></trkpt><trkpt lat="45.524527099822144" lon="11.425425232648497"><ele>59.2</ele><time>2026-04-10T14:35:45Z</time></trkpt><trkpt lat="45.524612308809864" lon="11.42533379675837"><ele>59.400000000000006</ele><time>2026-04-10T14:35:46Z</time></trkpt><trkpt lat="45.52470037072647" lon="11.42524715961676"><ele>59.6</ele><time>2026-04-10T14:35:47Z</time></trkpt><trkpt lat="45.524793798823836" lon="11.425164765483936"><ele>59.8</ele><time>2026-04-10T14:35:48Z</time></trkpt><trkpt lat="45.52488876680412" lon="11.425093130837107"><ele>60.0</ele><time>2026-04-10T14:35:49Z</time></trkpt><trkpt lat="45.52498607216735" lon="11.42503873490821"><ele>60.0</ele><time>2026-04-10T14:35:50Z</time></trkpt><trkpt lat="45.52508646374814" lon="11.424989615945206"><ele>60.0</ele><time>2026-04-10T14:35:51Z</time></trkpt><trkpt lat="45.525183973287035" lon="11.424942128283432"><ele>60.0</ele><time>2026-04-10T14:35:52Z</time></trkpt><trkpt lat="45.5252712589301" lon="11.424899619506824"><ele>60.0</ele><time>2026-04-10T14:35:53Z</time></trkpt><trkpt lat="45.52534341342363" lon="11.424865921645566"><ele>60.0</ele><time>2026-04-10T14:35:54Z</time></trkpt><trkpt lat="45.52540391362898" lon="11.424840352896469"><ele>60.0</ele><time>2026-04-10T14:35:55Z</time></trkpt><trkpt lat="45.52551183482806" lon="11.424797399352917"><ele>58.8</ele><time>2026-04-10T14:35:57Z</time></trkpt><trkpt lat="45.525576828199426" lon="11.424631007551747"><ele>57.6</ele><time>2026-04-10T14:35:59Z</time></trkpt><trkpt lat="45.525546004901535" lon="11.424521581392195"><ele>56.400000000000006</ele><time>2026-04-10T14:36:00Z</time></trkpt><trkpt lat="45.52552369724126" lon="11.424394075704642"><ele>55.2</ele><time>2026-04-10T14:36:01Z</time></trkpt><trkpt lat="45.525535113279986" lon="11.4242916325441"><ele>54.0</ele><time>2026-04-10T14:36:02Z</time></trkpt><trkpt lat="45.52558376270334" lon="11.424191957493637"><ele>54.0</ele><time>2026-04-10T14:36:03Z</time></trkpt><trkpt lat="45.52568122668455" lon="11.424169890202052"><ele>54.0</ele><time>2026-04-10T14:36:04Z</time></trkpt><trkpt lat="45.52577959735903" lon="11.424100802800004"><ele>54.0</ele><time>2026-04-10T14:36:05Z</time></trkpt><trkpt lat="45.52590228452018" lon="11.424004799769078"><ele>54.0</ele><time>2026-04-10T14:36:06Z</time></trkpt><trkpt lat="45.52604978639859" lon="11.423912221423533"><ele>54.0</ele><time>2026-04-10T14:36:07Z</time></trkpt><trkpt lat="45.526197168078305" lon="11.423819223255565"><ele>54.0</ele><time>2026-04-10T14:36:08Z</time></trkpt><trkpt lat="45.52632667587242" lon="11.423701023621046"><ele>54.0</ele><time>2026-04-10T14:36:09Z</time></trkpt><trkpt lat="45.526428783580975" lon="11.42358141832621"><ele>54.0</ele><time>2026-04-10T14:36:10Z</time></trkpt><trkpt lat="45.52650477004101" lon="11.423456213974134"><ele>53.6</ele><time>2026-04-10T14:36:11Z</time></trkpt><trkpt lat="45.526570468886746" lon="11.423335096765012"><ele>53.2</ele><time>2026-04-10T14:36:12Z</time></trkpt><trkpt lat="45.526629757946814" lon="11.42321946005994"><ele>52.800000000000004</ele><time>2026-04-10T14:36:13Z</time></trkpt><trkpt lat="45.52667970010944" lon="11.423109313095463"><ele>52.400000000000006</ele><time>2026-04-10T14:36:14Z</time></trkpt><trkpt lat="45.526730634435" lon="11.42300635655705"><ele>52.0</ele><time>2026-04-10T14:36:15Z</time></trkpt><trkpt lat="45.52677252822984" lon="11.422914125996984"><ele>51.99999999999999</ele><time>2026-04-10T14:36:16Z</time></trkpt><trkpt lat="45.52681331881292" lon="11.422830152029679"><ele>52.0</ele><time>2026-04-10T14:36:17Z</time></trkpt><trkpt lat="45.52689083435767" lon="11.422703060583176"><ele>52.0</ele><time>2026-04-10T14:36:19Z</time></trkpt><trkpt lat="45.526854614103755" lon="11.422559326962947"><ele>52.0</ele><time>2026-04-10T14:36:20Z</time></trkpt><trkpt lat="45.5268970114039" lon="11.422480059678255"><ele>51.99999999999999</ele><time>2026-04-10T14:36:21Z</time></trkpt><trkpt lat="45.52694200391761" lon="11.422394616782569"><ele>52.0</ele><time>2026-04-10T14:36:22Z</time></trkpt><trkpt lat="45.52699509263393" lon="11.422315289851667"><ele>52.400000000000006</ele><time>2026-04-10T14:36:23Z</time></trkpt><trkpt lat="45.52708816997351" lon="11.422284193433784"><ele>52.800000000000004</ele><time>2026-04-10T14:36:24Z</time></trkpt><trkpt lat="45.527141686261864" lon="11.422231487828403"><ele>53.2</ele><time>2026-04-10T14:36:25Z</time></trkpt><trkpt lat="45.5272328841116" lon="11.422130133820662"><ele>53.6</ele><time>2026-04-10T14:36:27Z</time></trkpt><trkpt lat="45.52732136545727" lon="11.422027584740142"><ele>54.0</ele><time>2026-04-10T14:36:29Z</time></trkpt><trkpt lat="45.52742048762979" lon="11.42191270274393"><ele>54.0</ele><time>2026-04-10T14:36:31Z</time></trkpt><trkpt lat="45.52760513289448" lon="11.421988364142786"><ele>54.00000000000001</ele><time>2026-04-10T14:36:33Z</time></trkpt><trkpt lat="45.527673423057045" lon="11.421931153390036"><ele>54.00000000000001</ele><time>2026-04-10T14:36:34Z</time></trkpt><trkpt lat="45.527732785165405" lon="11.421846999503124"><ele>54.0</ele><time>2026-04-10T14:36:35Z</time></trkpt><trkpt lat="45.527779775454356" lon="11.421767142443287"><ele>54.0</ele><time>2026-04-10T14:36:36Z</time></trkpt><trkpt lat="45.52783387403651" lon="11.421676540097506"><ele>54.0</ele><time>2026-04-10T14:36:37Z</time></trkpt><trkpt lat="45.52788976356899" lon="11.42159359918509"><ele>54.0</ele><time>2026-04-10T14:36:38Z</time></trkpt><trkpt lat="45.527953494451495" lon="11.421517202376503"><ele>54.0</ele><time>2026-04-10T14:36:39Z</time></trkpt><trkpt lat="45.527998862599446" lon="11.421446987759069"><ele>54.0</ele><time>2026-04-10T14:36:40Z</time></trkpt><trkpt lat="45.528053832717816" lon="11.421386784264195"><ele>54.0</ele><time>2026-04-10T14:36:41Z</time></trkpt><trkpt lat="45.52811488361624" lon="11.421335646395184"><ele>54.0</ele><time>2026-04-10T14:36:42Z</time></trkpt><trkpt lat="45.52817808296554" lon="11.421292857982069"><ele>54.0</ele><time>2026-04-10T14:36:43Z</time></trkpt><trkpt lat="45.52826688133626" lon="11.421198848008743"><ele>55.666666666666664</ele><time>2026-04-10T14:36:45Z</time></trkpt><trkpt lat="45.528315050822826" lon="11.421061395603946"><ele>57.33333333333333</ele><time>2026-04-10T14:36:47Z</time></trkpt><trkpt lat="45.52833613125824" lon="11.420889767729463"><ele>59.0</ele><time>2026-04-10T14:36:49Z</time></trkpt><trkpt lat="45.52836327729808" lon="11.420795142751022"><ele>60.666666666666664</ele><time>2026-04-10T14:36:50Z</time></trkpt><trkpt lat="45.52838787266176" lon="11.420700691673753"><ele>62.33333333333333</ele><time>2026-04-10T14:36:51Z</time></trkpt><trkpt lat="45.52840188677652" lon="11.420603862978833"><ele>64.0</ele><time>2026-04-10T14:36:52Z</time></trkpt><trkpt lat="45.528415092440845" lon="11.42050267224022"><ele>62.666666666666664</ele><time>2026-04-10T14:36:53Z</time></trkpt><trkpt lat="45.52844497502702" lon="11.42041588559936"><ele>61.33333333333333</ele><time>2026-04-10T14:36:54Z</time></trkpt><trkpt lat="45.528490442521004" lon="11.420321782941091"><ele>60.0</ele><time>2026-04-10T14:36:55Z</time></trkpt><trkpt lat="45.528540670064544" lon="11.420223789077104"><ele>58.66666666666667</ele><time>2026-04-10T14:36:56Z</time></trkpt><trkpt lat="45.52859083645986" lon="11.420131551814233"><ele>57.333333333333336</ele><time>2026-04-10T14:36:57Z</time></trkpt><trkpt lat="45.52864454709252" lon="11.420047318931278"><ele>56.0</ele><time>2026-04-10T14:36:58Z</time></trkpt><trkpt lat="45.52869838595259" lon="11.419959519721685"><ele>57.50000000000001</ele><time>2026-04-10T14:36:59Z</time></trkpt><trkpt lat="45.528749491939074" lon="11.419860158849417"><ele>59.0</ele><time>2026-04-10T14:37:00Z</time></trkpt><trkpt lat="45.5288051500262" lon="11.419755433999665"><ele>60.5</ele><time>2026-04-10T14:37:01Z</time></trkpt><trkpt lat="45.52885888096186" lon="11.419655139486474"><ele>62.0</ele><time>2026-04-10T14:37:02Z</time></trkpt><trkpt lat="45.52890668763653" lon="11.419547730566647"><ele>63.50000000000001</ele><time>2026-04-10T14:37:03Z</time></trkpt><trkpt lat="45.52895875025489" lon="11.419443342202765"><ele>65.0</ele><time>2026-04-10T14:37:04Z</time></trkpt><trkpt lat="45.529010272016436" lon="11.419344091135205"><ele>65.0</ele><time>2026-04-10T14:37:05Z</time></trkpt><trkpt lat="45.529057234470216" lon="11.419245257207395"><ele>65.0</ele><time>2026-04-10T14:37:06Z</time></trkpt><trkpt lat="45.529104622433394" lon="11.419147461015099"><ele>65.0</ele><time>2026-04-10T14:37:07Z</time></trkpt><trkpt lat="45.52915371074817" lon="11.419053228449597"><ele>65.0</ele><time>2026-04-10T14:37:08Z</time></trkpt><trkpt lat="45.529196319282704" lon="11.41896300777738"><ele>65.0</ele><time>2026-04-10T14:37:08.999Z</time></trkpt><trkpt lat="45.5292268389402" lon="11.418867921456261"><ele>65.0</ele><time>2026-04-10T14:37:09.999Z</time></trkpt><trkpt lat="45.52925338773645" lon="11.418754910050144"><ele>63.333333333333336</ele><time>2026-04-10T14:37:10.999Z</time></trkpt><trkpt lat="45.529277597333305" lon="11.418631956752508"><ele>61.66666666666667</ele><time>2026-04-10T14:37:11.999Z</time></trkpt><trkpt lat="45.52931080501923" lon="11.418517612377594"><ele>60.0</ele><time>2026-04-10T14:37:12.999Z</time></trkpt><trkpt lat="45.52935502645421" lon="11.418415517886537"><ele>58.33333333333333</ele><time>2026-04-10T14:37:13.999Z</time></trkpt><trkpt lat="45.52940753201085" lon="11.41832716285087"><ele>56.666666666666664</ele><time>2026-04-10T14:37:14.999Z</time></trkpt><trkpt lat="45.529471660267184" lon="11.41825449727564"><ele>55.0</ele><time>2026-04-10T14:37:15.999Z</time></trkpt><trkpt lat="45.52954809416019" lon="11.418191316585652"><ele>57.0</ele><time>2026-04-10T14:37:16.999Z</time></trkpt><trkpt lat="45.52963848930142" lon="11.418146210309642"><ele>59.0</ele><time>2026-04-10T14:37:17.999Z</time></trkpt><trkpt lat="45.52979890827083" lon="11.417981794492645"><ele>61.0</ele><time>2026-04-10T14:37:19.999Z</time></trkpt><trkpt lat="45.52987379742525" lon="11.417888979862125"><ele>63.0</ele><time>2026-04-10T14:37:20.999Z</time></trkpt><trkpt lat="45.529945910833746" lon="11.417807342357374"><ele>63.0</ele><time>2026-04-10T14:37:21.999Z</time></trkpt><trkpt lat="45.53001416700447" lon="11.417734137115094"><ele>63.0</ele><time>2026-04-10T14:37:22.999Z</time></trkpt><trkpt lat="45.53009054106992" lon="11.417652386914629"><ele>63.0</ele><time>2026-04-10T14:37:23.999Z</time></trkpt><trkpt lat="45.53017123447727" lon="11.417561764252032"><ele>63.0</ele><time>2026-04-10T14:37:24.999Z</time></trkpt><trkpt lat="45.530250923654826" lon="11.417480777979781"><ele>63.0</ele><time>2026-04-10T14:37:25.999Z</time></trkpt><trkpt lat="45.53032725277353" lon="11.417405223742707"><ele>63.0</ele><time>2026-04-10T14:37:26.999Z</time></trkpt><trkpt lat="45.530404452338686" lon="11.417334315379406"><ele>63.0</ele><time>2026-04-10T14:37:27.999Z</time></trkpt><trkpt lat="45.53048267015731" lon="11.417255089125902"><ele>63.0</ele><time>2026-04-10T14:37:28.999Z</time></trkpt><trkpt lat="45.53055624648556" lon="11.417173544812478"><ele>63.0</ele><time>2026-04-10T14:37:29.999Z</time></trkpt><trkpt lat="45.530620245054756" lon="11.41708549357514"><ele>63.0</ele><time>2026-04-10T14:37:30.999Z</time></trkpt><trkpt lat="45.530674537223994" lon="11.4170071074657"><ele>63.0</ele><time>2026-04-10T14:37:31.999Z</time></trkpt><trkpt lat="45.53072682095866" lon="11.416932151571622"><ele>63.0</ele><time>2026-04-10T14:37:32.999Z</time></trkpt><trkpt lat="45.53077276028007" lon="11.416858388789993"><ele>63.0</ele><time>2026-04-10T14:37:33.999Z</time></trkpt><trkpt lat="45.53085012122676" lon="11.416734179240308"><ele>63.0</ele><time>2026-04-10T14:37:35.999Z</time></trkpt><trkpt lat="45.53091944247285" lon="11.416652162168376"><ele>63.0</ele><time>2026-04-10T14:37:37.999Z</time></trkpt><trkpt lat="45.530976855913096" lon="11.416576614078702"><ele>63.0</ele><time>2026-04-10T14:37:40Z</time></trkpt><trkpt lat="45.53103105741422" lon="11.416523379509446"><ele>63.0</ele><time>2026-04-10T14:37:42Z</time></trkpt><trkpt lat="45.531069891473635" lon="11.416444660886489"><ele>63.0</ele><time>2026-04-10T14:37:43Z</time></trkpt><trkpt lat="45.531110266534014" lon="11.416361775059416"><ele>63.0</ele><time>2026-04-10T14:37:44Z</time></trkpt><trkpt lat="45.531160241294735" lon="11.416258684159846"><ele>63.0</ele><time>2026-04-10T14:37:45Z</time></trkpt><trkpt lat="45.531212037181675" lon="11.41614952694673"><ele>63.0</ele><time>2026-04-10T14:37:46Z</time></trkpt><trkpt lat="45.53125658534064" lon="11.416038039858222"><ele>63.0</ele><time>2026-04-10T14:37:47Z</time></trkpt><trkpt lat="45.53129633805873" lon="11.41592653048354"><ele>63.0</ele><time>2026-04-10T14:37:48Z</time></trkpt><trkpt lat="45.53134645825219" lon="11.41585643570755"><ele>63.666666666666664</ele><time>2026-04-10T14:37:49Z</time></trkpt><trkpt lat="45.53141293834639" lon="11.41579249931734"><ele>64.33333333333333</ele><time>2026-04-10T14:37:50Z</time></trkpt><trkpt lat="45.53148380744232" lon="11.415735971382025"><ele>65.0</ele><time>2026-04-10T14:37:51Z</time></trkpt><trkpt lat="45.53155738681594" lon="11.415661409401697"><ele>65.66666666666666</ele><time>2026-04-10T14:37:52Z</time></trkpt><trkpt lat="45.53162300921623" lon="11.415578427227878"><ele>66.33333333333333</ele><time>2026-04-10T14:37:53Z</time></trkpt><trkpt lat="45.53168319899629" lon="11.415509194083027"><ele>67.0</ele><time>2026-04-10T14:37:54Z</time></trkpt><trkpt lat="45.53174628227649" lon="11.4154586906019"><ele>67.66666666666666</ele><time>2026-04-10T14:37:55Z</time></trkpt><trkpt lat="45.531815466478506" lon="11.415399086932066"><ele>68.33333333333333</ele><time>2026-04-10T14:37:56Z</time></trkpt><trkpt lat="45.53189197930173" lon="11.415343697190638"><ele>69.0</ele><time>2026-04-10T14:37:57Z</time></trkpt><trkpt lat="45.53196644461934" lon="11.415287037250398"><ele>69.66666666666667</ele><time>2026-04-10T14:37:58Z</time></trkpt><trkpt lat="45.53203507083197" lon="11.4152330627341"><ele>70.33333333333334</ele><time>2026-04-10T14:37:59Z</time></trkpt><trkpt lat="45.53210125645275" lon="11.415164755527789"><ele>71.0</ele><time>2026-04-10T14:38:00Z</time></trkpt><trkpt lat="45.5322506702575" lon="11.415214046589051"><ele>71.0</ele><time>2026-04-10T14:38:01Z</time></trkpt><trkpt lat="45.53230404568289" lon="11.415135240095472"><ele>71.0</ele><time>2026-04-10T14:38:02Z</time></trkpt><trkpt lat="45.53235574067344" lon="11.415064518923405"><ele>71.0</ele><time>2026-04-10T14:38:03Z</time></trkpt><trkpt lat="45.53243856662236" lon="11.414954243039595"><ele>71.0</ele><time>2026-04-10T14:38:05Z</time></trkpt><trkpt lat="45.53249785610436" lon="11.414880847657702"><ele>71.0</ele><time>2026-04-10T14:38:07Z</time></trkpt><trkpt lat="45.532548300888614" lon="11.414801262612995"><ele>71.0</ele><time>2026-04-10T14:38:08Z</time></trkpt><trkpt lat="45.53262154881365" lon="11.414689144430303"><ele>68.5</ele><time>2026-04-10T14:38:09Z</time></trkpt><trkpt lat="45.53270462351595" lon="11.41454827548523"><ele>66.0</ele><time>2026-04-10T14:38:10Z</time></trkpt><trkpt lat="45.53278190826072" lon="11.41442361518869"><ele>63.5</ele><time>2026-04-10T14:38:11Z</time></trkpt><trkpt lat="45.53286286462693" lon="11.414285150653809"><ele>61.0</ele><time>2026-04-10T14:38:12Z</time></trkpt><trkpt lat="45.53293783226119" lon="11.414146205232125"><ele>63.0</ele><time>2026-04-10T14:38:13Z</time></trkpt><trkpt lat="45.533004405163155" lon="11.413988740116414"><ele>65.0</ele><time>2026-04-10T14:38:14Z</time></trkpt><trkpt lat="45.53306812276758" lon="11.413827435055406"><ele>67.0</ele><time>2026-04-10T14:38:15Z</time></trkpt><trkpt lat="45.533154908264464" lon="11.413700195107548"><ele>69.0</ele><time>2026-04-10T14:38:16Z</time></trkpt><trkpt lat="45.533226941182356" lon="11.413587097760391"><ele>69.0</ele><time>2026-04-10T14:38:17Z</time></trkpt><trkpt lat="45.53330172029453" lon="11.413469829528363"><ele>69.0</ele><time>2026-04-10T14:38:18Z</time></trkpt><trkpt lat="45.53337134289934" lon="11.413360051063375"><ele>69.0</ele><time>2026-04-10T14:38:19Z</time></trkpt><trkpt lat="45.53345125516302" lon="11.413242548653118"><ele>69.0</ele><time>2026-04-10T14:38:20Z</time></trkpt><trkpt lat="45.53352306785325" lon="11.413123932440389"><ele>69.0</ele><time>2026-04-10T14:38:21Z</time></trkpt><trkpt lat="45.533605809377526" lon="11.413004251214486"><ele>67.75</ele><time>2026-04-10T14:38:22Z</time></trkpt><trkpt lat="45.53366700708327" lon="11.412851977484344"><ele>66.5</ele><time>2026-04-10T14:38:23Z</time></trkpt><trkpt lat="45.53372444789204" lon="11.412674825698492"><ele>65.25</ele><time>2026-04-10T14:38:24Z</time></trkpt><trkpt lat="45.53377778928617" lon="11.412509004113282"><ele>64.0</ele><time>2026-04-10T14:38:25Z</time></trkpt><trkpt lat="45.5338259040382" lon="11.412370359943912"><ele>67.0</ele><time>2026-04-10T14:38:26Z</time></trkpt><trkpt lat="45.5338643164786" lon="11.41225455963391"><ele>70.0</ele><time>2026-04-10T14:38:27Z</time></trkpt><trkpt lat="45.53388567148209" lon="11.412138732684024"><ele>73.0</ele><time>2026-04-10T14:38:28Z</time></trkpt><trkpt lat="45.533879689825646" lon="11.412037006388404"><ele>76.0</ele><time>2026-04-10T14:38:29Z</time></trkpt><trkpt lat="45.533868013128725" lon="11.411943875043479"><ele>79.0</ele><time>2026-04-10T14:38:30Z</time></trkpt><trkpt lat="45.53379436847804" lon="11.411882743427203"><ele>82.0</ele><time>2026-04-10T14:38:31Z</time></trkpt><trkpt lat="45.53374189715451" lon="11.411806353773203"><ele>80.19999999999999</ele><time>2026-04-10T14:38:32Z</time></trkpt><trkpt lat="45.53364928436927" lon="11.411710614796968"><ele>78.39999999999999</ele><time>2026-04-10T14:38:33Z</time></trkpt><trkpt lat="45.53355935968809" lon="11.411595464039205"><ele>76.6</ele><time>2026-04-10T14:38:34Z</time></trkpt><trkpt lat="45.53349302092179" lon="11.411462930420305"><ele>74.8</ele><time>2026-04-10T14:38:35Z</time></trkpt><trkpt lat="45.533436181842326" lon="11.411353332404246"><ele>73.0</ele><time>2026-04-10T14:38:36Z</time></trkpt><trkpt lat="45.53340594823498" lon="11.41124621191173"><ele>73.0</ele><time>2026-04-10T14:38:37Z</time></trkpt><trkpt lat="45.53340055327867" lon="11.411133368747409"><ele>73.0</ele><time>2026-04-10T14:38:38Z</time></trkpt><trkpt lat="45.53337237530122" lon="11.410958036549102"><ele>73.0</ele><time>2026-04-10T14:38:39Z</time></trkpt><trkpt lat="45.533327201055094" lon="11.410781416157832"><ele>73.0</ele><time>2026-04-10T14:38:40Z</time></trkpt><trkpt lat="45.53328811465177" lon="11.410598190261757"><ele>75.5</ele><time>2026-04-10T14:38:41Z</time></trkpt><trkpt lat="45.533248961046745" lon="11.410410552437865"><ele>78.0</ele><time>2026-04-10T14:38:42Z</time></trkpt><trkpt lat="45.533169440490504" lon="11.410235769202885"><ele>80.5</ele><time>2026-04-10T14:38:43Z</time></trkpt><trkpt lat="45.5330889437997" lon="11.410045414684335"><ele>83.0</ele><time>2026-04-10T14:38:44Z</time></trkpt><trkpt lat="45.533026352571405" lon="11.409849306595191"><ele>83.0</ele><time>2026-04-10T14:38:45Z</time></trkpt><trkpt lat="45.53296080428534" lon="11.409663289217473"><ele>83.0</ele><time>2026-04-10T14:38:46Z</time></trkpt><trkpt lat="45.532902499120894" lon="11.409491401519983"><ele>83.0</ele><time>2026-04-10T14:38:47Z</time></trkpt><trkpt lat="45.53285487208439" lon="11.409331368778435"><ele>83.0</ele><time>2026-04-10T14:38:48Z</time></trkpt><trkpt lat="45.53277831089444" lon="11.409204546511953"><ele>79.75</ele><time>2026-04-10T14:38:49Z</time></trkpt><trkpt lat="45.53271504390172" lon="11.409048979986819"><ele>76.5</ele><time>2026-04-10T14:38:50Z</time></trkpt><trkpt lat="45.53267751886803" lon="11.40886975289087"><ele>73.25</ele><time>2026-04-10T14:38:51Z</time></trkpt><trkpt lat="45.532642795223275" lon="11.40869854736717"><ele>70.0</ele><time>2026-04-10T14:38:52Z</time></trkpt><trkpt lat="45.53263004147827" lon="11.408513493865854"><ele>70.0</ele><time>2026-04-10T14:38:53Z</time></trkpt><trkpt lat="45.532625426774" lon="11.408324838241281"><ele>70.0</ele><time>2026-04-10T14:38:54Z</time></trkpt><trkpt lat="45.53262599673547" lon="11.408156100249796"><ele>70.0</ele><time>2026-04-10T14:38:55Z</time></trkpt><trkpt lat="45.53263178872571" lon="11.40801986134627"><ele>70.0</ele><time>2026-04-10T14:38:56Z</time></trkpt><trkpt lat="45.53263917715381" lon="11.407909319653434"><ele>70.0</ele><time>2026-04-10T14:38:57Z</time></trkpt><trkpt lat="45.53264799941306" lon="11.407810064864961"><ele>70.2</ele><time>2026-04-10T14:38:58Z</time></trkpt><trkpt lat="45.532717285872415" lon="11.407721740823668"><ele>70.4</ele><time>2026-04-10T14:38:59Z</time></trkpt><trkpt lat="45.532734697782686" lon="11.407605394270224"><ele>70.6</ele><time>2026-04-10T14:39:00Z</time></trkpt><trkpt lat="45.53280907232731" lon="11.40747978288589"><ele>70.8</ele><time>2026-04-10T14:39:01Z</time></trkpt><trkpt lat="45.532871290214864" lon="11.407351004135844"><ele>71.0</ele><time>2026-04-10T14:39:02Z</time></trkpt><trkpt lat="45.53293814429454" lon="11.407248801534967"><ele>73.4</ele><time>2026-04-10T14:39:03Z</time></trkpt><trkpt lat="45.533009250646714" lon="11.407160175935328"><ele>75.8</ele><time>2026-04-10T14:39:04Z</time></trkpt><trkpt lat="45.53308493053843" lon="11.407075919181139"><ele>78.2</ele><time>2026-04-10T14:39:05Z</time></trkpt><trkpt lat="45.53317008282507" lon="11.406998883082109"><ele>80.60000000000001</ele><time>2026-04-10T14:39:06Z</time></trkpt><trkpt lat="45.53326104301047" lon="11.406929311249035"><ele>83.0</ele><time>2026-04-10T14:39:07Z</time></trkpt><trkpt lat="45.53336303356478" lon="11.406870685625018"><ele>83.0</ele><time>2026-04-10T14:39:08Z</time></trkpt><trkpt lat="45.533476474740745" lon="11.406829004188777"><ele>83.0</ele><time>2026-04-10T14:39:09Z</time></trkpt><trkpt lat="45.53360153498303" lon="11.406778828419485"><ele>83.0</ele><time>2026-04-10T14:39:10Z</time></trkpt><trkpt lat="45.533723660765034" lon="11.406687406434715"><ele>83.0</ele><time>2026-04-10T14:39:11Z</time></trkpt><trkpt lat="45.53386500115709" lon="11.406589617559321"><ele>83.25</ele><time>2026-04-10T14:39:12Z</time></trkpt><trkpt lat="45.53403171256091" lon="11.406517656671411"><ele>83.5</ele><time>2026-04-10T14:39:13Z</time></trkpt><trkpt lat="45.534200333856525" lon="11.406416551714809"><ele>83.75</ele><time>2026-04-10T14:39:14Z</time></trkpt><trkpt lat="45.53428202870764" lon="11.406355145951494"><ele>84.0</ele><time>2026-04-10T14:39:14.999Z</time></trkpt><trkpt lat="45.53436694107973" lon="11.406236736767509"><ele>84.0</ele><time>2026-04-10T14:39:15.999Z</time></trkpt><trkpt lat="45.534469303615644" lon="11.406137879139715"><ele>84.0</ele><time>2026-04-10T14:39:16.999Z</time></trkpt><trkpt lat="45.53457381740586" lon="11.406034946829626"><ele>84.0</ele><time>2026-04-10T14:39:17.999Z</time></trkpt><trkpt lat="45.53468633495905" lon="11.40594165789877"><ele>84.0</ele><time>2026-04-10T14:39:18.999Z</time></trkpt><trkpt lat="45.53479035481891" lon="11.405863463801545"><ele>87.0</ele><time>2026-04-10T14:39:19.999Z</time></trkpt><trkpt lat="45.534881582275965" lon="11.405762585889294"><ele>90.0</ele><time>2026-04-10T14:39:20.999Z</time></trkpt><trkpt lat="45.53495326809104" lon="11.405665177629965"><ele>93.0</ele><time>2026-04-10T14:39:21.999Z</time></trkpt><trkpt lat="45.53500864260295" lon="11.405552483195894"><ele>96.0</ele><time>2026-04-10T14:39:22.999Z</time></trkpt><trkpt lat="45.53505317324675" lon="11.40542274626048"><ele>99.0</ele><time>2026-04-10T14:39:23.999Z</time></trkpt><trkpt lat="45.535098946622234" lon="11.405288688933409"><ele>99.0</ele><time>2026-04-10T14:39:24.999Z</time></trkpt><trkpt lat="45.535149301867065" lon="11.405166317424369"><ele>99.0</ele><time>2026-04-10T14:39:25.999Z</time></trkpt><trkpt lat="45.53519129077882" lon="11.405033505376611"><ele>99.0</ele><time>2026-04-10T14:39:26.999Z</time></trkpt><trkpt lat="45.535212339572055" lon="11.404879780183014"><ele>99.0</ele><time>2026-04-10T14:39:27.999Z</time></trkpt><trkpt lat="45.53523179735163" lon="11.404715710155156"><ele>99.0</ele><time>2026-04-10T14:39:28.999Z</time></trkpt><trkpt lat="45.53527182265768" lon="11.404553229707656"><ele>100.25</ele><time>2026-04-10T14:39:29.999Z</time></trkpt><trkpt lat="45.53533024625888" lon="11.40439465259076"><ele>101.5</ele><time>2026-04-10T14:39:30.999Z</time></trkpt><trkpt lat="45.535404369885974" lon="11.404237622888651"><ele>102.75</ele><time>2026-04-10T14:39:31.999Z</time></trkpt><trkpt lat="45.5354767006341" lon="11.404082793128005"><ele>104.0</ele><time>2026-04-10T14:39:32.999Z</time></trkpt><trkpt lat="45.53553689753078" lon="11.403972416538421"><ele>105.85714285714286</ele><time>2026-04-10T14:39:33.999Z</time></trkpt><trkpt lat="45.53557307415048" lon="11.403894803582023"><ele>107.71428571428572</ele><time>2026-04-10T14:39:34.999Z</time></trkpt><trkpt lat="45.535601325377" lon="11.403813890442807"><ele>109.57142857142858</ele><time>2026-04-10T14:39:35.999Z</time></trkpt><trkpt lat="45.53562398354002" lon="11.403717679006682"><ele>111.42857142857143</ele><time>2026-04-10T14:39:36.999Z</time></trkpt><trkpt lat="45.53563056024344" lon="11.403618671244498"><ele>113.2857142857143</ele><time>2026-04-10T14:39:37.999Z</time></trkpt><trkpt lat="45.53561557769327" lon="11.403523516920423"><ele>115.14285714285715</ele><time>2026-04-10T14:39:38.999Z</time></trkpt><trkpt lat="45.535563878929075" lon="11.403418331885348"><ele>117.0</ele><time>2026-04-10T14:39:40.999Z</time></trkpt><trkpt lat="45.53555864325216" lon="11.40328889575972"><ele>120.0</ele><time>2026-04-10T14:39:42.999Z</time></trkpt><trkpt lat="45.53566375450328" lon="11.403282038804061"><ele>122.99999999999999</ele><time>2026-04-10T14:39:44.999Z</time></trkpt><trkpt lat="45.5357307345862" lon="11.403355227426324"><ele>125.99999999999999</ele><time>2026-04-10T14:39:45.999Z</time></trkpt><trkpt lat="45.53579466002923" lon="11.403375424678156"><ele>129.0</ele><time>2026-04-10T14:39:46.999Z</time></trkpt><trkpt lat="45.53590273289324" lon="11.40339252077232"><ele>132.0</ele><time>2026-04-10T14:39:47.999Z</time></trkpt><trkpt lat="45.53601318267942" lon="11.403435009229256"><ele>132.0</ele><time>2026-04-10T14:39:48.999Z</time></trkpt><trkpt lat="45.53612966542523" lon="11.403454051460999"><ele>132.0</ele><time>2026-04-10T14:39:49.999Z</time></trkpt><trkpt lat="45.536242340943474" lon="11.403454731561652"><ele>132.0</ele><time>2026-04-10T14:39:50.999Z</time></trkpt><trkpt lat="45.53635732414059" lon="11.40342657416734"><ele>132.0</ele><time>2026-04-10T14:39:51.999Z</time></trkpt><trkpt lat="45.53646433318745" lon="11.403429197090325"><ele>135.5</ele><time>2026-04-10T14:39:52.999Z</time></trkpt><trkpt lat="45.536585752148845" lon="11.403419268204953"><ele>139.0</ele><time>2026-04-10T14:39:53.999Z</time></trkpt><trkpt lat="45.53671470922551" lon="11.403405981384388"><ele>142.5</ele><time>2026-04-10T14:39:54.999Z</time></trkpt><trkpt lat="45.536844600522606" lon="11.403377081234108"><ele>146.0</ele><time>2026-04-10T14:39:55.999Z</time></trkpt><trkpt lat="45.53696540417953" lon="11.40334823769274"><ele>148.0</ele><time>2026-04-10T14:39:56.999Z</time></trkpt><trkpt lat="45.53707423399063" lon="11.403317097969888"><ele>150.0</ele><time>2026-04-10T14:39:57.999Z</time></trkpt><trkpt lat="45.53717976763737" lon="11.403266657680186"><ele>152.0</ele><time>2026-04-10T14:39:58.999Z</time></trkpt><trkpt lat="45.53726349019871" lon="11.403251099865626"><ele>154.0</ele><time>2026-04-10T14:39:59.999Z</time></trkpt><trkpt lat="45.53736724509839" lon="11.403237887221803"><ele>156.0</ele><time>2026-04-10T14:40:01.999Z</time></trkpt><trkpt lat="45.537362889014055" lon="11.403118729731945"><ele>156.0</ele><time>2026-04-10T14:40:03.999Z</time></trkpt><trkpt lat="45.53729933403859" lon="11.403063242256627"><ele>156.0</ele><time>2026-04-10T14:40:04.999Z</time></trkpt><trkpt lat="45.537222238314385" lon="11.403032712494973"><ele>156.0</ele><time>2026-04-10T14:40:05.999Z</time></trkpt><trkpt lat="45.5371416438561" lon="11.403034870825106"><ele>156.0</ele><time>2026-04-10T14:40:06.999Z</time></trkpt><trkpt lat="45.53705766200687" lon="11.40305994053874"><ele>156.0</ele><time>2026-04-10T14:40:07.999Z</time></trkpt><trkpt lat="45.53699535851721" lon="11.403076817627612"><ele>156.0</ele><time>2026-04-10T14:40:08.999Z</time></trkpt><trkpt lat="45.53696703712399" lon="11.40298567770848"><ele>162.0</ele><time>2026-04-10T14:40:11.999Z</time></trkpt><trkpt lat="45.53705885276761" lon="11.402963208350922"><ele>168.0</ele><time>2026-04-10T14:40:13.999Z</time></trkpt><trkpt lat="45.53713721091392" lon="11.402985328009676"><ele>174.0</ele><time>2026-04-10T14:40:14.999Z</time></trkpt><trkpt lat="45.53722514734787" lon="11.40296684992987"><ele>180.0</ele><time>2026-04-10T14:40:15.999Z</time></trkpt><trkpt lat="45.537317191289404" lon="11.402951318211509"><ele>186.0</ele><time>2026-04-10T14:40:16.999Z</time></trkpt><trkpt lat="45.53742914094805" lon="11.40292889908072"><ele>186.0</ele><time>2026-04-10T14:40:17.999Z</time></trkpt><trkpt lat="45.53754687636934" lon="11.402892962558413"><ele>186.0</ele><time>2026-04-10T14:40:18.999Z</time></trkpt><trkpt lat="45.53766050243023" lon="11.402843480809457"><ele>186.0</ele><time>2026-04-10T14:40:19.999Z</time></trkpt><trkpt lat="45.53775379572458" lon="11.40277755067938"><ele>186.0</ele><time>2026-04-10T14:40:20.999Z</time></trkpt><trkpt lat="45.537847077302075" lon="11.402695957785157"><ele>186.0</ele><time>2026-04-10T14:40:21.999Z</time></trkpt><trkpt lat="45.537930374601586" lon="11.402628136598752"><ele>186.0</ele><time>2026-04-10T14:40:22.999Z</time></trkpt><trkpt lat="45.538004307833155" lon="11.402548898999537"><ele>186.0</ele><time>2026-04-10T14:40:23.999Z</time></trkpt><trkpt lat="45.538074378781964" lon="11.402489251945628"><ele>186.0</ele><time>2026-04-10T14:40:24.999Z</time></trkpt><trkpt lat="45.538152679430496" lon="11.402504916370834"><ele>186.0</ele><time>2026-04-10T14:40:25.999Z</time></trkpt><trkpt lat="45.538228327176455" lon="11.402517180035566"><ele>186.0</ele><time>2026-04-10T14:40:26.999Z</time></trkpt><trkpt lat="45.53829746447501" lon="11.40249720969766"><ele>186.0</ele><time>2026-04-10T14:40:27.999Z</time></trkpt><trkpt lat="45.538373756089435" lon="11.402494943970687"><ele>186.0</ele><time>2026-04-10T14:40:29.999Z</time></trkpt><trkpt lat="45.53842230218774" lon="11.402426707480135"><ele>186.0</ele><time>2026-04-10T14:40:30.999Z</time></trkpt><trkpt lat="45.538479855061844" lon="11.402346724809096"><ele>186.0</ele><time>2026-04-10T14:40:31.999Z</time></trkpt><trkpt lat="45.5385435820252" lon="11.402268398050193"><ele>186.0</ele><time>2026-04-10T14:40:32.999Z</time></trkpt><trkpt lat="45.538601886319036" lon="11.40221702704889"><ele>186.0</ele><time>2026-04-10T14:40:33.999Z</time></trkpt><trkpt lat="45.53868336959602" lon="11.402172860759796"><ele>188.0</ele><time>2026-04-10T14:40:34.999Z</time></trkpt><trkpt lat="45.538776157961074" lon="11.402182044246485"><ele>190.0</ele><time>2026-04-10T14:40:35.999Z</time></trkpt><trkpt lat="45.53885623711597" lon="11.402191947933986"><ele>192.0</ele><time>2026-04-10T14:40:36.999Z</time></trkpt><trkpt lat="45.53892922287797" lon="11.402214318816856"><ele>194.0</ele><time>2026-04-10T14:40:37.999Z</time></trkpt><trkpt lat="45.53898051560103" lon="11.402279836735602"><ele>196.0</ele><time>2026-04-10T14:40:38.999Z</time></trkpt><trkpt lat="45.5390418385093" lon="11.402334592917404"><ele>198.0</ele><time>2026-04-10T14:40:39.999Z</time></trkpt><trkpt lat="45.53911433958393" lon="11.40239051935974"><ele>198.0</ele><time>2026-04-10T14:40:40.999Z</time></trkpt><trkpt lat="45.53919907365043" lon="11.402459321963315"><ele>198.0</ele><time>2026-04-10T14:40:41.999Z</time></trkpt><trkpt lat="45.539262011449615" lon="11.402537081617393"><ele>198.0</ele><time>2026-04-10T14:40:42.999Z</time></trkpt><trkpt lat="45.53932587523025" lon="11.402592600896376"><ele>198.0</ele><time>2026-04-10T14:40:43.999Z</time></trkpt><trkpt lat="45.53932778068515" lon="11.402691401177428"><ele>198.0</ele><time>2026-04-10T14:40:44.999Z</time></trkpt><trkpt lat="45.539284503239756" lon="11.402886654534095"><ele>197.2</ele><time>2026-04-10T14:40:46.999Z</time></trkpt><trkpt lat="45.53926759837782" lon="11.403036118868767"><ele>196.4</ele><time>2026-04-10T14:40:47.999Z</time></trkpt><trkpt lat="45.53924839361407" lon="11.403204701719178"><ele>195.6</ele><time>2026-04-10T14:40:48.999Z</time></trkpt><trkpt lat="45.53923214418916" lon="11.403368820458523"><ele>194.79999999999998</ele><time>2026-04-10T14:40:49.999Z</time></trkpt><trkpt lat="45.5392308423181" lon="11.403520275768663"><ele>194.0</ele><time>2026-04-10T14:40:50.999Z</time></trkpt><trkpt lat="45.53924844141176" lon="11.403647917320892"><ele>194.0</ele><time>2026-04-10T14:40:51.999Z</time></trkpt><trkpt lat="45.539282748353955" lon="11.403774216691502"><ele>194.0</ele><time>2026-04-10T14:40:52.999Z</time></trkpt><trkpt lat="45.53930532393238" lon="11.40389894032722"><ele>194.0</ele><time>2026-04-10T14:40:53.999Z</time></trkpt><trkpt lat="45.53926112167004" lon="11.404004846417546"><ele>194.0</ele><time>2026-04-10T14:40:54.999Z</time></trkpt><trkpt lat="45.53928910799573" lon="11.404152881730399"><ele>194.0</ele><time>2026-04-10T14:40:56.999Z</time></trkpt><trkpt lat="45.539400241544215" lon="11.404148744877906"><ele>195.6</ele><time>2026-04-10T14:40:58.999Z</time></trkpt><trkpt lat="45.539487554213856" lon="11.40419206157426"><ele>197.2</ele><time>2026-04-10T14:41:00.999Z</time></trkpt><trkpt lat="45.53957700656158" lon="11.404242506139447"><ele>198.79999999999998</ele><time>2026-04-10T14:41:01.999Z</time></trkpt><trkpt lat="45.539661184971514" lon="11.404307678634323"><ele>200.39999999999998</ele><time>2026-04-10T14:41:02.999Z</time></trkpt><trkpt lat="45.5397341319205" lon="11.404364361042104"><ele>202.0</ele><time>2026-04-10T14:41:03.999Z</time></trkpt><trkpt lat="45.539774446043296" lon="11.40446956304491"><ele>203.99999999999997</ele><time>2026-04-10T14:41:04.999Z</time></trkpt><trkpt lat="45.53983041820408" lon="11.404513139907392"><ele>206.0</ele><time>2026-04-10T14:41:05.999Z</time></trkpt><trkpt lat="45.53988514684277" lon="11.404663726294709"><ele>208.0</ele><time>2026-04-10T14:41:07.999Z</time></trkpt><trkpt lat="45.5398939523213" lon="11.40478888480343"><ele>210.0</ele><time>2026-04-10T14:41:08.999Z</time></trkpt><trkpt lat="45.53992674055916" lon="11.404908291151004"><ele>211.99999999999997</ele><time>2026-04-10T14:41:09.999Z</time></trkpt><trkpt lat="45.539970490857065" lon="11.40500213679239"><ele>214.0</ele><time>2026-04-10T14:41:10.999Z</time></trkpt><trkpt lat="45.53997243021659" lon="11.405094343702416"><ele>214.0</ele><time>2026-04-10T14:41:11.999Z</time></trkpt><trkpt lat="45.539881779611555" lon="11.405197345229922"><ele>214.0</ele><time>2026-04-10T14:41:13.999Z</time></trkpt><trkpt lat="45.539808781067684" lon="11.405304669279"><ele>214.0</ele><time>2026-04-10T14:41:14.999Z</time></trkpt><trkpt lat="45.5397161078665" lon="11.405453046211974"><ele>214.0</ele><time>2026-04-10T14:41:15.999Z</time></trkpt><trkpt lat="45.539642635055635" lon="11.405637691506119"><ele>212.0</ele><time>2026-04-10T14:41:16.999Z</time></trkpt><trkpt lat="45.539553762691845" lon="11.405825253316577"><ele>210.0</ele><time>2026-04-10T14:41:17.999Z</time></trkpt><trkpt lat="45.53946028565724" lon="11.406036102054374"><ele>208.0</ele><time>2026-04-10T14:41:18.999Z</time></trkpt><trkpt lat="45.539375733189424" lon="11.406249608605908"><ele>205.66666666666666</ele><time>2026-04-10T14:41:19.999Z</time></trkpt><trkpt lat="45.53928872447689" lon="11.406470906836184"><ele>203.33333333333331</ele><time>2026-04-10T14:41:20.999Z</time></trkpt><trkpt lat="45.53919693859828" lon="11.406706775620505"><ele>201.0</ele><time>2026-04-10T14:41:21.999Z</time></trkpt><trkpt lat="45.53910636857372" lon="11.406957746032468"><ele>198.0</ele><time>2026-04-10T14:41:22.999Z</time></trkpt><trkpt lat="45.53902030335925" lon="11.40719253977836"><ele>195.0</ele><time>2026-04-10T14:41:23.999Z</time></trkpt><trkpt lat="45.53894149628203" lon="11.407414198771685"><ele>192.0</ele><time>2026-04-10T14:41:24.999Z</time></trkpt><trkpt lat="45.53885954485848" lon="11.407627184697379"><ele>192.0</ele><time>2026-04-10T14:41:25.999Z</time></trkpt><trkpt lat="45.53878288308722" lon="11.407829988694944"><ele>192.0</ele><time>2026-04-10T14:41:26.999Z</time></trkpt><trkpt lat="45.538714745719005" lon="11.408042402634342"><ele>192.0</ele><time>2026-04-10T14:41:27.999Z</time></trkpt><trkpt lat="45.538638978494916" lon="11.408241413967565"><ele>189.0</ele><time>2026-04-10T14:41:28.999Z</time></trkpt><trkpt lat="45.53856936977685" lon="11.40844483297136"><ele>186.0</ele><time>2026-04-10T14:41:29.999Z</time></trkpt><trkpt lat="45.53850402992095" lon="11.40864581229406"><ele>183.0</ele><time>2026-04-10T14:41:30.999Z</time></trkpt><trkpt lat="45.53843947706384" lon="11.408838668921566"><ele>181.5</ele><time>2026-04-10T14:41:31.999Z</time></trkpt><trkpt lat="45.53838004093477" lon="11.409034540126942"><ele>180.0</ele><time>2026-04-10T14:41:32.999Z</time></trkpt><trkpt lat="45.53833015227698" lon="11.409231914156255"><ele>178.5</ele><time>2026-04-10T14:41:33.999Z</time></trkpt><trkpt lat="45.538285516684226" lon="11.409425462411926"><ele>177.0</ele><time>2026-04-10T14:41:34.999Z</time></trkpt><trkpt lat="45.538257367451045" lon="11.40962308227923"><ele>175.5</ele><time>2026-04-10T14:41:35.999Z</time></trkpt><trkpt lat="45.538229214824035" lon="11.409816236880882"><ele>174.0</ele><time>2026-04-10T14:41:36.999Z</time></trkpt><trkpt lat="45.5382005678802" lon="11.410014823382506"><ele>172.5</ele><time>2026-04-10T14:41:37.999Z</time></trkpt><trkpt lat="45.5381778360185" lon="11.410223368134256"><ele>171.0</ele><time>2026-04-10T14:41:38.999Z</time></trkpt><trkpt lat="45.53815721280049" lon="11.410442958464813"><ele>169.0</ele><time>2026-04-10T14:41:39.999Z</time></trkpt><trkpt lat="45.53814266047412" lon="11.410676328368945"><ele>167.0</ele><time>2026-04-10T14:41:40.999Z</time></trkpt><trkpt lat="45.53811605467786" lon="11.410934031440359"><ele>165.0</ele><time>2026-04-10T14:41:41.999Z</time></trkpt><trkpt lat="45.5380571096802" lon="11.411217585070492"><ele>163.66666666666666</ele><time>2026-04-10T14:41:42.999Z</time></trkpt><trkpt lat="45.53795716278905" lon="11.411468806130632"><ele>162.33333333333331</ele><time>2026-04-10T14:41:43.999Z</time></trkpt><trkpt lat="45.537849471901474" lon="11.411713361589234"><ele>161.0</ele><time>2026-04-10T14:41:44.999Z</time></trkpt><trkpt lat="45.537733930797394" lon="11.411905176338133"><ele>161.0</ele><time>2026-04-10T14:41:45.999Z</time></trkpt><trkpt lat="45.53760946419795" lon="11.412071197103279"><ele>161.0</ele><time>2026-04-10T14:41:46.999Z</time></trkpt><trkpt lat="45.53748787934029" lon="11.412224326148465"><ele>161.0</ele><time>2026-04-10T14:41:47.999Z</time></trkpt><trkpt lat="45.5373790902646" lon="11.412400201056368"><ele>161.0</ele><time>2026-04-10T14:41:48.999Z</time></trkpt><trkpt lat="45.53726962834731" lon="11.412597677778193"><ele>161.0</ele><time>2026-04-10T14:41:50Z</time></trkpt><trkpt lat="45.53715697816526" lon="11.412824851825091"><ele>161.0</ele><time>2026-04-10T14:41:51Z</time></trkpt><trkpt lat="45.53705242663373" lon="11.413043210680499"><ele>159.0</ele><time>2026-04-10T14:41:52Z</time></trkpt><trkpt lat="45.53696416938359" lon="11.413254927123143"><ele>157.0</ele><time>2026-04-10T14:41:53Z</time></trkpt><trkpt lat="45.53690051046809" lon="11.413475781517201"><ele>155.0</ele><time>2026-04-10T14:41:54Z</time></trkpt><trkpt lat="45.53685958282146" lon="11.413708209865401"><ele>154.66666666666666</ele><time>2026-04-10T14:41:55Z</time></trkpt><trkpt lat="45.53684593795154" lon="11.41394910294252"><ele>154.33333333333334</ele><time>2026-04-10T14:41:56Z</time></trkpt><trkpt lat="45.53682332347729" lon="11.414185203076405"><ele>154.0</ele><time>2026-04-10T14:41:57Z</time></trkpt><trkpt lat="45.53676653353397" lon="11.414434006383397"><ele>154.0</ele><time>2026-04-10T14:41:58Z</time></trkpt><trkpt lat="45.53663957777952" lon="11.414644936869882"><ele>154.0</ele><time>2026-04-10T14:41:59Z</time></trkpt><trkpt lat="45.53652063839976" lon="11.414864827945614"><ele>154.0</ele><time>2026-04-10T14:42:00Z</time></trkpt><trkpt lat="45.53642378909521" lon="11.415071553655498"><ele>154.0</ele><time>2026-04-10T14:42:01Z</time></trkpt><trkpt lat="45.536310100454166" lon="11.415265479281933"><ele>154.0</ele><time>2026-04-10T14:42:02Z</time></trkpt><trkpt lat="45.53619916238698" lon="11.415458431431555"><ele>154.0</ele><time>2026-04-10T14:42:03Z</time></trkpt><trkpt lat="45.53608583666203" lon="11.415641382519354"><ele>154.66666666666669</ele><time>2026-04-10T14:42:04Z</time></trkpt><trkpt lat="45.535976573047094" lon="11.415808789778687"><ele>155.33333333333334</ele><time>2026-04-10T14:42:05Z</time></trkpt><trkpt lat="45.53587397998048" lon="11.415968525072593"><ele>156.0</ele><time>2026-04-10T14:42:06Z</time></trkpt><trkpt lat="45.53575561358512" lon="11.41609520857662"><ele>156.0</ele><time>2026-04-10T14:42:07Z</time></trkpt><trkpt lat="45.535635219119754" lon="11.41618868332748"><ele>156.0</ele><time>2026-04-10T14:42:08Z</time></trkpt><trkpt lat="45.535501184588206" lon="11.416264468026892"><ele>156.0</ele><time>2026-04-10T14:42:09Z</time></trkpt><trkpt lat="45.535357989080985" lon="11.41633516691471"><ele>156.0</ele><time>2026-04-10T14:42:10Z</time></trkpt><trkpt lat="45.53521744170507" lon="11.416421050521219"><ele>156.25</ele><time>2026-04-10T14:42:11Z</time></trkpt><trkpt lat="45.53507396170772" lon="11.416472548664826"><ele>156.5</ele><time>2026-04-10T14:42:12Z</time></trkpt><trkpt lat="45.53493291650086" lon="11.416535866912783"><ele>156.75</ele><time>2026-04-10T14:42:13Z</time></trkpt><trkpt lat="45.53479594188794" lon="11.416594942715165"><ele>157.0</ele><time>2026-04-10T14:42:14Z</time></trkpt><trkpt lat="45.5346657051849" lon="11.416657332705652"><ele>154.0</ele><time>2026-04-10T14:42:15Z</time></trkpt><trkpt lat="45.534547149537474" lon="11.416730557556196"><ele>151.0</ele><time>2026-04-10T14:42:16Z</time></trkpt><trkpt lat="45.53444596723933" lon="11.416879277272953"><ele>148.0</ele><time>2026-04-10T14:42:17Z</time></trkpt><trkpt lat="45.534334152972924" lon="11.417015536138857"><ele>145.0</ele><time>2026-04-10T14:42:18Z</time></trkpt><trkpt lat="45.53424021036664" lon="11.417164076071964"><ele>145.0</ele><time>2026-04-10T14:42:19Z</time></trkpt><trkpt lat="45.53416302142164" lon="11.417324534983209"><ele>145.0</ele><time>2026-04-10T14:42:20Z</time></trkpt><trkpt lat="45.53408857832635" lon="11.417473111916719"><ele>145.0</ele><time>2026-04-10T14:42:21Z</time></trkpt><trkpt lat="45.534011748387805" lon="11.417620969520987"><ele>145.0</ele><time>2026-04-10T14:42:22Z</time></trkpt><trkpt lat="45.53392424366975" lon="11.417746619471705"><ele>145.0</ele><time>2026-04-10T14:42:23Z</time></trkpt><trkpt lat="45.53380053372361" lon="11.417816846357209"><ele>145.0</ele><time>2026-04-10T14:42:24Z</time></trkpt><trkpt lat="45.53364876364394" lon="11.417927391153032"><ele>145.0</ele><time>2026-04-10T14:42:25Z</time></trkpt><trkpt lat="45.5334652032479" lon="11.418058044077881"><ele>142.33333333333334</ele><time>2026-04-10T14:42:26Z</time></trkpt><trkpt lat="45.533278073175794" lon="11.418214586626611"><ele>139.66666666666666</ele><time>2026-04-10T14:42:27Z</time></trkpt><trkpt lat="45.53310079291582" lon="11.418327726467178"><ele>137.0</ele><time>2026-04-10T14:42:28Z</time></trkpt><trkpt lat="45.53294857944948" lon="11.41844791197086"><ele>135.33333333333331</ele><time>2026-04-10T14:42:29Z</time></trkpt><trkpt lat="45.532804341799334" lon="11.418591111966048"><ele>133.66666666666666</ele><time>2026-04-10T14:42:30Z</time></trkpt><trkpt lat="45.53267513560869" lon="11.418801554566112"><ele>132.0</ele><time>2026-04-10T14:42:31Z</time></trkpt><trkpt lat="45.53257237756535" lon="11.419033683210124"><ele>131.66666666666666</ele><time>2026-04-10T14:42:32Z</time></trkpt><trkpt lat="45.53247993594271" lon="11.419245823768302"><ele>131.33333333333331</ele><time>2026-04-10T14:42:33Z</time></trkpt><trkpt lat="45.53239119376857" lon="11.419441823043785"><ele>131.0</ele><time>2026-04-10T14:42:34Z</time></trkpt><trkpt lat="45.53230445974734" lon="11.419628266729527"><ele>130.6</ele><time>2026-04-10T14:42:35Z</time></trkpt><trkpt lat="45.53222720005575" lon="11.419785811018597"><ele>130.2</ele><time>2026-04-10T14:42:36Z</time></trkpt><trkpt lat="45.532172906563645" lon="11.419910161438253"><ele>129.8</ele><time>2026-04-10T14:42:37Z</time></trkpt><trkpt lat="45.532138966108995" lon="11.420009163847649"><ele>129.4</ele><time>2026-04-10T14:42:38Z</time></trkpt><trkpt lat="45.53211003312669" lon="11.420107217156628"><ele>129.0</ele><time>2026-04-10T14:42:39Z</time></trkpt><trkpt lat="45.532090608891835" lon="11.420226129570931"><ele>129.0</ele><time>2026-04-10T14:42:41Z</time></trkpt><trkpt lat="45.532233765427655" lon="11.42025314440621"><ele>129.0</ele><time>2026-04-10T14:42:42Z</time></trkpt><trkpt lat="45.532358825080024" lon="11.420307252818311"><ele>129.0</ele><time>2026-04-10T14:42:43Z</time></trkpt><trkpt lat="45.53252099705418" lon="11.420342340031397"><ele>129.0</ele><time>2026-04-10T14:42:44Z</time></trkpt><trkpt lat="45.53268888175651" lon="11.420413529061278"><ele>126.33333333333334</ele><time>2026-04-10T14:42:45Z</time></trkpt><trkpt lat="45.532872167559034" lon="11.420495219363776"><ele>123.66666666666667</ele><time>2026-04-10T14:42:46Z</time></trkpt><trkpt lat="45.533049606416355" lon="11.420546924515719"><ele>121.0</ele><time>2026-04-10T14:42:47Z</time></trkpt><trkpt lat="45.53319447759906" lon="11.420578870650628"><ele>120.4</ele><time>2026-04-10T14:42:48Z</time></trkpt><trkpt lat="45.533293778767046" lon="11.42060180560116"><ele>119.8</ele><time>2026-04-10T14:42:49Z</time></trkpt><trkpt lat="45.53340059163219" lon="11.42060065189202"><ele>119.20000000000002</ele><time>2026-04-10T14:42:51Z</time></trkpt><trkpt lat="45.53348044097678" lon="11.420604730008233"><ele>118.60000000000001</ele><time>2026-04-10T14:42:51.999Z</time></trkpt><trkpt lat="45.53360420214185" lon="11.420611265339579"><ele>118.0</ele><time>2026-04-10T14:42:52.999Z</time></trkpt><trkpt lat="45.533760233608426" lon="11.420621613888779"><ele>118.0</ele><time>2026-04-10T14:42:53.999Z</time></trkpt><trkpt lat="45.53392542476346" lon="11.420634432355028"><ele>118.0</ele><time>2026-04-10T14:42:54.999Z</time></trkpt><trkpt lat="45.53410111894803" lon="11.420649597608284"><ele>118.0</ele><time>2026-04-10T14:42:55.999Z</time></trkpt><trkpt lat="45.53428507133314" lon="11.42065377175576"><ele>118.0</ele><time>2026-04-10T14:42:56.999Z</time></trkpt><trkpt lat="45.53446833050922" lon="11.4206477295283"><ele>118.0</ele><time>2026-04-10T14:42:57.999Z</time></trkpt><trkpt lat="45.534654433024706" lon="11.42063954497358"><ele>118.0</ele><time>2026-04-10T14:42:58.999Z</time></trkpt><trkpt lat="45.53483536156799" lon="11.420625895500342"><ele>118.75</ele><time>2026-04-10T14:42:59.999Z</time></trkpt><trkpt lat="45.534990690906" lon="11.420622010301857"><ele>119.5</ele><time>2026-04-10T14:43:00.999Z</time></trkpt><trkpt lat="45.53512164266043" lon="11.420620232978164"><ele>120.25</ele><time>2026-04-10T14:43:01.999Z</time></trkpt><trkpt lat="45.5352261923276" lon="11.42060766509432"><ele>121.0</ele><time>2026-04-10T14:43:02.999Z</time></trkpt><trkpt lat="45.535313832925155" lon="11.420555284068463"><ele>121.66666666666667</ele><time>2026-04-10T14:43:03.999Z</time></trkpt><trkpt lat="45.53535141219712" lon="11.420427176498237"><ele>122.33333333333334</ele><time>2026-04-10T14:43:04.999Z</time></trkpt><trkpt lat="45.53539798356359" lon="11.420322077078536"><ele>123.0</ele><time>2026-04-10T14:43:05.999Z</time></trkpt><trkpt lat="45.53545725462534" lon="11.420258264578315"><ele>123.66666666666666</ele><time>2026-04-10T14:43:06.999Z</time></trkpt><trkpt lat="45.53552483340896" lon="11.420303670191663"><ele>124.33333333333333</ele><time>2026-04-10T14:43:07.999Z</time></trkpt><trkpt lat="45.53562816707982" lon="11.420312545233635"><ele>125.0</ele><time>2026-04-10T14:43:08.999Z</time></trkpt><trkpt lat="45.5357592336533" lon="11.420309475577842"><ele>125.5</ele><time>2026-04-10T14:43:09.999Z</time></trkpt><trkpt lat="45.535891822805795" lon="11.420342448648022"><ele>126.0</ele><time>2026-04-10T14:43:10.999Z</time></trkpt><trkpt lat="45.53599346134877" lon="11.420399916017354"><ele>126.5</ele><time>2026-04-10T14:43:11.999Z</time></trkpt><trkpt lat="45.536091159569146" lon="11.420532425868084"><ele>127.0</ele><time>2026-04-10T14:43:12.999Z</time></trkpt><trkpt lat="45.536228597211654" lon="11.420641235894074"><ele>124.0</ele><time>2026-04-10T14:43:13.999Z</time></trkpt><trkpt lat="45.53635868595189" lon="11.42078587607009"><ele>121.0</ele><time>2026-04-10T14:43:14.999Z</time></trkpt><trkpt lat="45.53649484602257" lon="11.42090748626406"><ele>118.0</ele><time>2026-04-10T14:43:15.999Z</time></trkpt><trkpt lat="45.53662998963057" lon="11.421032046057677"><ele>118.0</ele><time>2026-04-10T14:43:16.999Z</time></trkpt><trkpt lat="45.53676894466454" lon="11.421133279891635"><ele>118.0</ele><time>2026-04-10T14:43:17.999Z</time></trkpt><trkpt lat="45.536908101234225" lon="11.421214296044411"><ele>118.0</ele><time>2026-04-10T14:43:18.999Z</time></trkpt><trkpt lat="45.53705249407298" lon="11.421252256597578"><ele>117.0</ele><time>2026-04-10T14:43:19.999Z</time></trkpt><trkpt lat="45.537185554042516" lon="11.421300659467157"><ele>116.0</ele><time>2026-04-10T14:43:20.999Z</time></trkpt><trkpt lat="45.53729996809738" lon="11.421413269095444"><ele>115.0</ele><time>2026-04-10T14:43:21.999Z</time></trkpt><trkpt lat="45.53738386478444" lon="11.4215791133599"><ele>114.0</ele><time>2026-04-10T14:43:22.999Z</time></trkpt><trkpt lat="45.53744314912587" lon="11.421762805197432"><ele>111.25</ele><time>2026-04-10T14:43:23.999Z</time></trkpt><trkpt lat="45.53749670434304" lon="11.421955851494145"><ele>108.5</ele><time>2026-04-10T14:43:24.999Z</time></trkpt><trkpt lat="45.53753833554242" lon="11.422148197044262"><ele>105.75</ele><time>2026-04-10T14:43:25.999Z</time></trkpt><trkpt lat="45.537552478806234" lon="11.422330743749933"><ele>103.0</ele><time>2026-04-10T14:43:26.999Z</time></trkpt><trkpt lat="45.53753872555349" lon="11.422490955343983"><ele>101.60000000000001</ele><time>2026-04-10T14:43:27.999Z</time></trkpt><trkpt lat="45.53749103253266" lon="11.4226484339878"><ele>100.2</ele><time>2026-04-10T14:43:28.999Z</time></trkpt><trkpt lat="45.537444652669166" lon="11.422767435681848"><ele>98.8</ele><time>2026-04-10T14:43:29.999Z</time></trkpt><trkpt lat="45.537391821193566" lon="11.422821513878988"><ele>97.4</ele><time>2026-04-10T14:43:30.999Z</time></trkpt><trkpt lat="45.53733284342661" lon="11.422870090619677"><ele>96.0</ele><time>2026-04-10T14:43:31.999Z</time></trkpt><trkpt lat="45.53723050991716" lon="11.422886699141332"><ele>96.0</ele><time>2026-04-10T14:43:32.999Z</time></trkpt><trkpt lat="45.53711720230149" lon="11.422905013645059"><ele>96.0</ele><time>2026-04-10T14:43:33.999Z</time></trkpt><trkpt lat="45.53701120409959" lon="11.422921571412559"><ele>96.0</ele><time>2026-04-10T14:43:34.999Z</time></trkpt><trkpt lat="45.5369039202802" lon="11.422931275010557"><ele>96.0</ele><time>2026-04-10T14:43:35.999Z</time></trkpt><trkpt lat="45.536810760068825" lon="11.422864326522687"><ele>96.0</ele><time>2026-04-10T14:43:36.999Z</time></trkpt><trkpt lat="45.536709905999224" lon="11.422830710065712"><ele>96.4</ele><time>2026-04-10T14:43:37.999Z</time></trkpt><trkpt lat="45.53660423951907" lon="11.422830445190812"><ele>96.8</ele><time>2026-04-10T14:43:38.999Z</time></trkpt><trkpt lat="45.536503707325416" lon="11.42285465701256"><ele>97.2</ele><time>2026-04-10T14:43:39.999Z</time></trkpt><trkpt lat="45.53643969241574" lon="11.422896550572185"><ele>97.60000000000001</ele><time>2026-04-10T14:43:40.999Z</time></trkpt><trkpt lat="45.53638506227947" lon="11.42295695602875"><ele>98.0</ele><time>2026-04-10T14:43:41.999Z</time></trkpt><trkpt lat="45.53636724739166" lon="11.423172052905693"><ele>95.5</ele><time>2026-04-10T14:43:43.999Z</time></trkpt><trkpt lat="45.536393872638264" lon="11.423319427001443"><ele>93.0</ele><time>2026-04-10T14:43:44.999Z</time></trkpt><trkpt lat="45.53638197369753" lon="11.423467952853398"><ele>90.5</ele><time>2026-04-10T14:43:45.999Z</time></trkpt><trkpt lat="45.53638312518018" lon="11.423643711468333"><ele>88.0</ele><time>2026-04-10T14:43:46.999Z</time></trkpt><trkpt lat="45.5363594279755" lon="11.423812791972559"><ele>86.60000000000001</ele><time>2026-04-10T14:43:47.999Z</time></trkpt><trkpt lat="45.536321282366494" lon="11.423965834991739"><ele>85.2</ele><time>2026-04-10T14:43:48.999Z</time></trkpt><trkpt lat="45.536283301573576" lon="11.424110981681263"><ele>83.8</ele><time>2026-04-10T14:43:49.999Z</time></trkpt><trkpt lat="45.536244257816506" lon="11.424246726982483"><ele>82.4</ele><time>2026-04-10T14:43:50.999Z</time></trkpt><trkpt lat="45.536194632924165" lon="11.424360814046892"><ele>81.0</ele><time>2026-04-10T14:43:51.999Z</time></trkpt><trkpt lat="45.536145806233016" lon="11.424445993195384"><ele>81.0</ele><time>2026-04-10T14:43:52.999Z</time></trkpt><trkpt lat="45.536121715950074" lon="11.424574366438902"><ele>81.0</ele><time>2026-04-10T14:43:54.999Z</time></trkpt><trkpt lat="45.536240664675816" lon="11.424608017893446"><ele>81.0</ele><time>2026-04-10T14:43:57Z</time></trkpt><trkpt lat="45.53632854869978" lon="11.42455416494875"><ele>81.0</ele><time>2026-04-10T14:43:58Z</time></trkpt><trkpt lat="45.53641257115739" lon="11.424498078471876"><ele>81.0</ele><time>2026-04-10T14:43:59Z</time></trkpt><trkpt lat="45.53648739488762" lon="11.424430541312798"><ele>80.5</ele><time>2026-04-10T14:44:00Z</time></trkpt><trkpt lat="45.53657211717958" lon="11.42432187242495"><ele>80.0</ele><time>2026-04-10T14:44:01Z</time></trkpt><trkpt lat="45.53660141264456" lon="11.424211925611495"><ele>79.5</ele><time>2026-04-10T14:44:02Z</time></trkpt><trkpt lat="45.5366511560545" lon="11.424106306040889"><ele>79.0</ele><time>2026-04-10T14:44:03Z</time></trkpt><trkpt lat="45.5366898864899" lon="11.424027324221651"><ele>78.5</ele><time>2026-04-10T14:44:04Z</time></trkpt><trkpt lat="45.53675391097829" lon="11.423979061607147"><ele>78.0</ele><time>2026-04-10T14:44:05Z</time></trkpt><trkpt lat="45.53683061857193" lon="11.424032800122593"><ele>78.0</ele><time>2026-04-10T14:44:06Z</time></trkpt><trkpt lat="45.53684735494105" lon="11.424125725033054"><ele>78.0</ele><time>2026-04-10T14:44:07Z</time></trkpt><trkpt lat="45.536848163706566" lon="11.42423853793354"><ele>78.0</ele><time>2026-04-10T14:44:08Z</time></trkpt><trkpt lat="45.53687629326192" lon="11.4243614879858"><ele>78.0</ele><time>2026-04-10T14:44:09Z</time></trkpt><trkpt lat="45.5369163384576" lon="11.424489487230971"><ele>78.0</ele><time>2026-04-10T14:44:10Z</time></trkpt><trkpt lat="45.53693128711504" lon="11.424686139844386"><ele>79.75</ele><time>2026-04-10T14:44:11Z</time></trkpt><trkpt lat="45.53696773777539" lon="11.42485252865797"><ele>81.5</ele><time>2026-04-10T14:44:12Z</time></trkpt><trkpt lat="45.53699262117202" lon="11.425020787771713"><ele>83.25</ele><time>2026-04-10T14:44:13Z</time></trkpt><trkpt lat="45.53704657467291" lon="11.425163588924136"><ele>85.0</ele><time>2026-04-10T14:44:14Z</time></trkpt><trkpt lat="45.53710869159469" lon="11.425315582972878"><ele>85.0</ele><time>2026-04-10T14:44:15Z</time></trkpt><trkpt lat="45.53716676015503" lon="11.425447510402917"><ele>85.0</ele><time>2026-04-10T14:44:16Z</time></trkpt><trkpt lat="45.53722638496614" lon="11.425575494622308"><ele>85.0</ele><time>2026-04-10T14:44:17Z</time></trkpt><trkpt lat="45.53730327993762" lon="11.425710089290488"><ele>85.0</ele><time>2026-04-10T14:44:18Z</time></trkpt><trkpt lat="45.53739428095132" lon="11.42583933809904"><ele>83.25</ele><time>2026-04-10T14:44:19Z</time></trkpt><trkpt lat="45.53748482092503" lon="11.42597494291947"><ele>81.5</ele><time>2026-04-10T14:44:20Z</time></trkpt><trkpt lat="45.53756673582559" lon="11.426104812606486"><ele>79.75</ele><time>2026-04-10T14:44:21Z</time></trkpt><trkpt lat="45.537652315726376" lon="11.42621658991032"><ele>78.0</ele><time>2026-04-10T14:44:22Z</time></trkpt><trkpt lat="45.53773160591399" lon="11.426305933699885"><ele>77.6</ele><time>2026-04-10T14:44:23Z</time></trkpt><trkpt lat="45.53780179289884" lon="11.426362188451694"><ele>77.19999999999999</ele><time>2026-04-10T14:44:24Z</time></trkpt><trkpt lat="45.53787698688783" lon="11.426408368757144"><ele>76.8</ele><time>2026-04-10T14:44:25Z</time></trkpt><trkpt lat="45.53794596054174" lon="11.426500076883894"><ele>76.39999999999999</ele><time>2026-04-10T14:44:26Z</time></trkpt><trkpt lat="45.538010358358875" lon="11.42663860329494"><ele>76.0</ele><time>2026-04-10T14:44:27Z</time></trkpt><trkpt lat="45.53808242207547" lon="11.42677114852161"><ele>76.0</ele><time>2026-04-10T14:44:28Z</time></trkpt><trkpt lat="45.5381489421952" lon="11.426893497271182"><ele>76.0</ele><time>2026-04-10T14:44:29Z</time></trkpt><trkpt lat="45.538220590137094" lon="11.426990222518066"><ele>76.0</ele><time>2026-04-10T14:44:30Z</time></trkpt><trkpt lat="45.53824587546526" lon="11.427093339839777"><ele>76.0</ele><time>2026-04-10T14:44:31Z</time></trkpt><trkpt lat="45.53828612343704" lon="11.427190913597567"><ele>76.0</ele><time>2026-04-10T14:44:32Z</time></trkpt><trkpt lat="45.53825990076873" lon="11.427323383466335"><ele>75.39999999999999</ele><time>2026-04-10T14:44:33Z</time></trkpt><trkpt lat="45.53823846451261" lon="11.427448735748913"><ele>74.8</ele><time>2026-04-10T14:44:34Z</time></trkpt><trkpt lat="45.53821345232105" lon="11.42758464682733"><ele>74.19999999999999</ele><time>2026-04-10T14:44:35Z</time></trkpt><trkpt lat="45.53817929644677" lon="11.427708316871108"><ele>73.6</ele><time>2026-04-10T14:44:36Z</time></trkpt><trkpt lat="45.53813000574569" lon="11.427811774954362"><ele>73.0</ele><time>2026-04-10T14:44:37Z</time></trkpt><trkpt lat="45.538066008246766" lon="11.427896068689549"><ele>73.0</ele><time>2026-04-10T14:44:38Z</time></trkpt><trkpt lat="45.5379890073512" lon="11.427938823301565"><ele>73.0</ele><time>2026-04-10T14:44:39Z</time></trkpt><trkpt lat="45.5379008161658" lon="11.428007403104536"><ele>73.0</ele><time>2026-04-10T14:44:40Z</time></trkpt><trkpt lat="45.537801005815254" lon="11.428078895313678"><ele>73.0</ele><time>2026-04-10T14:44:41Z</time></trkpt><trkpt lat="45.537696912952555" lon="11.428142926592134"><ele>73.0</ele><time>2026-04-10T14:44:42Z</time></trkpt><trkpt lat="45.53760624743917" lon="11.428184909011195"><ele>69.4</ele><time>2026-04-10T14:44:43Z</time></trkpt><trkpt lat="45.53753659650446" lon="11.428232446145765"><ele>65.8</ele><time>2026-04-10T14:44:44Z</time></trkpt><trkpt lat="45.53743577673048" lon="11.428297251259183"><ele>62.2</ele><time>2026-04-10T14:44:46Z</time></trkpt><trkpt lat="45.53742662977831" lon="11.428405694607314"><ele>58.6</ele><time>2026-04-10T14:44:47Z</time></trkpt><trkpt lat="45.537459638601284" lon="11.428546866108432"><ele>55.0</ele><time>2026-04-10T14:44:48Z</time></trkpt><trkpt lat="45.53750984408889" lon="11.428689948301313"><ele>53.4</ele><time>2026-04-10T14:44:49Z</time></trkpt><trkpt lat="45.537546800247156" lon="11.428835296312313"><ele>51.8</ele><time>2026-04-10T14:44:50Z</time></trkpt><trkpt lat="45.537571894165815" lon="11.428963450860122"><ele>50.2</ele><time>2026-04-10T14:44:51Z</time></trkpt><trkpt lat="45.53758900678487" lon="11.429073294228989"><ele>48.6</ele><time>2026-04-10T14:44:52Z</time></trkpt><trkpt lat="45.53758269122996" lon="11.429202152424407"><ele>47.0</ele><time>2026-04-10T14:44:53Z</time></trkpt><trkpt lat="45.53754041433899" lon="11.429353306064401"><ele>47.0</ele><time>2026-04-10T14:44:55Z</time></trkpt><trkpt lat="45.53748508647075" lon="11.429458363416655"><ele>47.0</ele><time>2026-04-10T14:44:57Z</time></trkpt><trkpt lat="45.537605376215296" lon="11.429572464306208"><ele>47.0</ele><time>2026-04-10T14:44:58Z</time></trkpt><trkpt lat="45.53769309541539" lon="11.429644804789477"><ele>47.0</ele><time>2026-04-10T14:44:59Z</time></trkpt><trkpt lat="45.53778493322921" lon="11.429742765522636"><ele>46.8</ele><time>2026-04-10T14:45:00Z</time></trkpt><trkpt lat="45.537867268495894" lon="11.42983893533966"><ele>46.6</ele><time>2026-04-10T14:45:01Z</time></trkpt><trkpt lat="45.53794986573663" lon="11.429940261878853"><ele>46.4</ele><time>2026-04-10T14:45:02Z</time></trkpt><trkpt lat="45.53802971597113" lon="11.430025499837802"><ele>46.199999999999996</ele><time>2026-04-10T14:45:03Z</time></trkpt><trkpt lat="45.53811273916618" lon="11.430078633407158"><ele>46.0</ele><time>2026-04-10T14:45:04Z</time></trkpt><trkpt lat="45.5382143976199" lon="11.430110867164855"><ele>46.0</ele><time>2026-04-10T14:45:05Z</time></trkpt><trkpt lat="45.538315380089635" lon="11.430103342408325"><ele>46.0</ele><time>2026-04-10T14:45:06Z</time></trkpt><trkpt lat="45.538418012514484" lon="11.430057677420454"><ele>46.0</ele><time>2026-04-10T14:45:07Z</time></trkpt><trkpt lat="45.53853003965202" lon="11.429983158943159"><ele>46.0</ele><time>2026-04-10T14:45:08Z</time></trkpt><trkpt lat="45.53865130397119" lon="11.429911881831531"><ele>45.333333333333336</ele><time>2026-04-10T14:45:09Z</time></trkpt><trkpt lat="45.538796812050144" lon="11.429837463494223"><ele>44.666666666666664</ele><time>2026-04-10T14:45:10Z</time></trkpt><trkpt lat="45.53893598729317" lon="11.429765081987767"><ele>44.0</ele><time>2026-04-10T14:45:11Z</time></trkpt><trkpt lat="45.53909705369846" lon="11.429678127132854"><ele>44.666666666666664</ele><time>2026-04-10T14:45:12Z</time></trkpt><trkpt lat="45.53926630198144" lon="11.429598182634814"><ele>45.333333333333336</ele><time>2026-04-10T14:45:13Z</time></trkpt><trkpt lat="45.53944390300385" lon="11.429510309841538"><ele>46.0</ele><time>2026-04-10T14:45:14Z</time></trkpt><trkpt lat="45.53962816321974" lon="11.42942916639563"><ele>46.0</ele><time>2026-04-10T14:45:15Z</time></trkpt><trkpt lat="45.53979135946124" lon="11.429349619644142"><ele>46.0</ele><time>2026-04-10T14:45:16Z</time></trkpt><trkpt lat="45.53994975130903" lon="11.429254570719637"><ele>46.0</ele><time>2026-04-10T14:45:17Z</time></trkpt><trkpt lat="45.54010441664258" lon="11.429123385398638"><ele>46.0</ele><time>2026-04-10T14:45:18Z</time></trkpt><trkpt lat="45.54024971482399" lon="11.428954700420725"><ele>46.0</ele><time>2026-04-10T14:45:19Z</time></trkpt><trkpt lat="45.54037557024988" lon="11.428782399002847"><ele>46.0</ele><time>2026-04-10T14:45:20Z</time></trkpt><trkpt lat="45.54048880789098" lon="11.42863269393501"><ele>46.0</ele><time>2026-04-10T14:45:21Z</time></trkpt><trkpt lat="45.540627003038324" lon="11.428547067308692"><ele>46.0</ele><time>2026-04-10T14:45:22Z</time></trkpt><trkpt lat="45.540786378956824" lon="11.428496041687062"><ele>46.0</ele><time>2026-04-10T14:45:23Z</time></trkpt><trkpt lat="45.540953513269095" lon="11.42841239069013"><ele>46.0</ele><time>2026-04-10T14:45:24Z</time></trkpt><trkpt lat="45.54111616184318" lon="11.428342116053823"><ele>46.0</ele><time>2026-04-10T14:45:25Z</time></trkpt><trkpt lat="45.541292511309" lon="11.428250083595763"><ele>46.0</ele><time>2026-04-10T14:45:26Z</time></trkpt><trkpt lat="45.54147454420942" lon="11.428144638552464"><ele>44.333333333333336</ele><time>2026-04-10T14:45:27Z</time></trkpt><trkpt lat="45.54165447126397" lon="11.428019964870376"><ele>42.666666666666664</ele><time>2026-04-10T14:45:28Z</time></trkpt><trkpt lat="45.5418441311847" lon="11.427876156204121"><ele>41.0</ele><time>2026-04-10T14:45:29Z</time></trkpt><trkpt lat="45.54203560629909" lon="11.427734211981972"><ele>40.666666666666664</ele><time>2026-04-10T14:45:30Z</time></trkpt><trkpt lat="45.542223758118986" lon="11.427594788885862"><ele>40.333333333333336</ele><time>2026-04-10T14:45:31Z</time></trkpt><trkpt lat="45.542422312069405" lon="11.42744719960186"><ele>40.0</ele><time>2026-04-10T14:45:32Z</time></trkpt><trkpt lat="45.54262589113642" lon="11.427299006223949"><ele>40.0</ele><time>2026-04-10T14:45:33Z</time></trkpt><trkpt lat="45.54283428656377" lon="11.427147585140261"><ele>40.0</ele><time>2026-04-10T14:45:34Z</time></trkpt><trkpt lat="45.54304482021115" lon="11.426990323155756"><ele>41.0</ele><time>2026-04-10T14:45:35Z</time></trkpt><trkpt lat="45.54325644271001" lon="11.426829062044897"><ele>42.0</ele><time>2026-04-10T14:45:36Z</time></trkpt><trkpt lat="45.54345443099199" lon="11.426683098992301"><ele>42.0</ele><time>2026-04-10T14:45:37Z</time></trkpt><trkpt lat="45.54362887701514" lon="11.42656062644916"><ele>42.0</ele><time>2026-04-10T14:45:38Z</time></trkpt><trkpt lat="45.54377799259629" lon="11.426463429909697"><ele>42.0</ele><time>2026-04-10T14:45:39Z</time></trkpt><trkpt lat="45.54389533860943" lon="11.426381983579992"><ele>43.0</ele><time>2026-04-10T14:45:40Z</time></trkpt><trkpt lat="45.54397859143194" lon="11.426307761376272"><ele>44.0</ele><time>2026-04-10T14:45:40.999Z</time></trkpt><trkpt lat="45.54403641459709" lon="11.42622696691597"><ele>45.0</ele><time>2026-04-10T14:45:41.999Z</time></trkpt><trkpt lat="45.54407417569439" lon="11.426134270731335"><ele>46.0</ele><time>2026-04-10T14:45:42.999Z</time></trkpt><trkpt lat="45.54411534887065" lon="11.425933160080723"><ele>47.0</ele><time>2026-04-10T14:45:44.999Z</time></trkpt><trkpt lat="45.544143769143346" lon="11.425785630575746"><ele>47.0</ele><time>2026-04-10T14:45:45.999Z</time></trkpt><trkpt lat="45.54417969062818" lon="11.425619429331638"><ele>47.0</ele><time>2026-04-10T14:45:46.999Z</time></trkpt><trkpt lat="45.544216395565236" lon="11.425463049240667"><ele>47.0</ele><time>2026-04-10T14:45:47.999Z</time></trkpt><trkpt lat="45.54424582259868" lon="11.425329291400024"><ele>47.0</ele><time>2026-04-10T14:45:48.999Z</time></trkpt><trkpt lat="45.54427473000858" lon="11.425212607651417"><ele>47.0</ele><time>2026-04-10T14:45:49.999Z</time></trkpt><trkpt lat="45.544291128999845" lon="11.425119507400979"><ele>46.0</ele><time>2026-04-10T14:45:50.999Z</time></trkpt><trkpt lat="45.54426871317933" lon="11.425014499588999"><ele>45.0</ele><time>2026-04-10T14:46:01Z</time></trkpt><trkpt lat="45.544359012578646" lon="11.424991209037263"><ele>44.0</ele><time>2026-04-10T14:46:26Z</time></trkpt><trkpt lat="45.54441270834998" lon="11.42493070430578"><ele>43.0</ele><time>2026-04-10T14:46:27Z</time></trkpt><trkpt lat="45.544472735948425" lon="11.424874520979133"><ele>42.0</ele><time>2026-04-10T14:46:28Z</time></trkpt><trkpt lat="45.54453795768755" lon="11.424811118214851"><ele>41.0</ele><time>2026-04-10T14:46:29Z</time></trkpt><trkpt lat="45.544607053358654" lon="11.424747433633756"><ele>41.0</ele><time>2026-04-10T14:46:30Z</time></trkpt><trkpt lat="45.54468090583398" lon="11.424669891971783"><ele>41.0</ele><time>2026-04-10T14:46:31Z</time></trkpt><trkpt lat="45.54475387480313" lon="11.424588893628368"><ele>41.0</ele><time>2026-04-10T14:46:32Z</time></trkpt><trkpt lat="45.544829558589264" lon="11.424500854101055"><ele>41.0</ele><time>2026-04-10T14:46:33Z</time></trkpt><trkpt lat="45.54490590170854" lon="11.424406289185558"><ele>41.0</ele><time>2026-04-10T14:46:34Z</time></trkpt><trkpt lat="45.54498113534545" lon="11.424313112247992"><ele>41.4</ele><time>2026-04-10T14:46:35Z</time></trkpt><trkpt lat="45.545061071534306" lon="11.424221957617922"><ele>41.8</ele><time>2026-04-10T14:46:36Z</time></trkpt><trkpt lat="45.54514199687724" lon="11.42412514807412"><ele>42.199999999999996</ele><time>2026-04-10T14:46:37Z</time></trkpt><trkpt lat="45.54522209609992" lon="11.424036434318293"><ele>42.599999999999994</ele><time>2026-04-10T14:46:38Z</time></trkpt><trkpt lat="45.5453025431834" lon="11.423949029991295"><ele>43.0</ele><time>2026-04-10T14:46:39Z</time></trkpt><trkpt lat="45.545382832528084" lon="11.423860424125888"><ele>45.0</ele><time>2026-04-10T14:46:40Z</time></trkpt><trkpt lat="45.54545966114936" lon="11.423770645160017"><ele>47.0</ele><time>2026-04-10T14:46:41Z</time></trkpt><trkpt lat="45.545533179076976" lon="11.423683160428826"><ele>49.0</ele><time>2026-04-10T14:46:42Z</time></trkpt><trkpt lat="45.545606155726546" lon="11.423592944551443"><ele>51.0</ele><time>2026-04-10T14:46:43Z</time></trkpt><trkpt lat="45.545680572091115" lon="11.423501991367905"><ele>53.0</ele><time>2026-04-10T14:46:44Z</time></trkpt><trkpt lat="45.54575549425661" lon="11.423410672147241"><ele>53.0</ele><time>2026-04-10T14:46:45Z</time></trkpt><trkpt lat="45.545829984794146" lon="11.423311255703961"><ele>53.0</ele><time>2026-04-10T14:46:46Z</time></trkpt><trkpt lat="45.5459042979903" lon="11.423208396687636"><ele>53.0</ele><time>2026-04-10T14:46:47Z</time></trkpt><trkpt lat="45.545966178797435" lon="11.42310582151619"><ele>53.0</ele><time>2026-04-10T14:46:48Z</time></trkpt><trkpt lat="45.54602247588207" lon="11.423007265434768"><ele>53.0</ele><time>2026-04-10T14:46:49Z</time></trkpt><trkpt lat="45.5460722652211" lon="11.422924357489546"><ele>52.4</ele><time>2026-04-10T14:46:50Z</time></trkpt><trkpt lat="45.546112443561334" lon="11.422851193260128"><ele>51.8</ele><time>2026-04-10T14:46:51Z</time></trkpt><trkpt lat="45.54615632179046" lon="11.422781766197897"><ele>51.2</ele><time>2026-04-10T14:46:52Z</time></trkpt><trkpt lat="45.54622223305326" lon="11.422656478164708"><ele>50.6</ele><time>2026-04-10T14:46:54Z</time></trkpt><trkpt lat="45.546297857906715" lon="11.422546897338654"><ele>50.0</ele><time>2026-04-10T14:46:56Z</time></trkpt><trkpt lat="45.54636782080029" lon="11.42243489543709"><ele>50.00000000000001</ele><time>2026-04-10T14:46:58Z</time></trkpt><trkpt lat="45.54641875294675" lon="11.42235120025498"><ele>50.0</ele><time>2026-04-10T14:47:00Z</time></trkpt><trkpt lat="45.54649190192182" lon="11.422259571377534"><ele>50.0</ele><time>2026-04-10T14:47:02Z</time></trkpt><trkpt lat="45.546541803620464" lon="11.422192099365692"><ele>50.0</ele><time>2026-04-10T14:47:03Z</time></trkpt><trkpt lat="45.54659319050664" lon="11.422116619670836"><ele>50.00000000000001</ele><time>2026-04-10T14:47:04Z</time></trkpt><trkpt lat="45.54663937665777" lon="11.422034406199163"><ele>50.0</ele><time>2026-04-10T14:47:05Z</time></trkpt><trkpt lat="45.54668467619677" lon="11.421927142722593"><ele>51.6</ele><time>2026-04-10T14:47:06Z</time></trkpt><trkpt lat="45.546713475103275" lon="11.421821078211192"><ele>53.2</ele><time>2026-04-10T14:47:07Z</time></trkpt><trkpt lat="45.54672244113705" lon="11.42170353061688"><ele>54.8</ele><time>2026-04-10T14:47:08Z</time></trkpt><trkpt lat="45.54670950671492" lon="11.421571228354688"><ele>56.4</ele><time>2026-04-10T14:47:09Z</time></trkpt><trkpt lat="45.54668656814813" lon="11.421422881453068"><ele>58.0</ele><time>2026-04-10T14:47:10Z</time></trkpt><trkpt lat="45.54665108448187" lon="11.421247305218209"><ele>58.25</ele><time>2026-04-10T14:47:11Z</time></trkpt><trkpt lat="45.54660333997544" lon="11.421023871954587"><ele>58.5</ele><time>2026-04-10T14:47:12Z</time></trkpt><trkpt lat="45.54656894576722" lon="11.420829747688508"><ele>58.75</ele><time>2026-04-10T14:47:13Z</time></trkpt><trkpt lat="45.546548560262934" lon="11.42067561972936"><ele>59.0</ele><time>2026-04-10T14:47:14Z</time></trkpt><trkpt lat="45.54654693208993" lon="11.420564058593307"><ele>59.2</ele><time>2026-04-10T14:47:15Z</time></trkpt><trkpt lat="45.54659067726734" lon="11.420406406717131"><ele>59.400000000000006</ele><time>2026-04-10T14:47:17Z</time></trkpt><trkpt lat="45.54666560485557" lon="11.420349604685965"><ele>59.6</ele><time>2026-04-10T14:47:18Z</time></trkpt><trkpt lat="45.546750562301526" lon="11.42029184951609"><ele>59.8</ele><time>2026-04-10T14:47:19Z</time></trkpt><trkpt lat="45.5468476471705" lon="11.420213620506185"><ele>60.0</ele><time>2026-04-10T14:47:20Z</time></trkpt><trkpt lat="45.54694998526607" lon="11.420112541262341"><ele>58.6</ele><time>2026-04-10T14:47:21Z</time></trkpt><trkpt lat="45.547053903301006" lon="11.42002835631627"><ele>57.2</ele><time>2026-04-10T14:47:22Z</time></trkpt><trkpt lat="45.5471560752582" lon="11.419950530880321"><ele>55.8</ele><time>2026-04-10T14:47:23Z</time></trkpt><trkpt lat="45.54725179706403" lon="11.419898670961988"><ele>54.4</ele><time>2026-04-10T14:47:24Z</time></trkpt><trkpt lat="45.5473501520549" lon="11.419866079948845"><ele>53.0</ele><time>2026-04-10T14:47:25Z</time></trkpt><trkpt lat="45.547460945881134" lon="11.419857961200522"><ele>53.0</ele><time>2026-04-10T14:47:26Z</time></trkpt><trkpt lat="45.547574668762785" lon="11.419865032275172"><ele>53.0</ele><time>2026-04-10T14:47:27Z</time></trkpt><trkpt lat="45.547676898319786" lon="11.419861822597463"><ele>53.0</ele><time>2026-04-10T14:47:28Z</time></trkpt><trkpt lat="45.54777066368006" lon="11.419860562034424"><ele>53.0</ele><time>2026-04-10T14:47:29Z</time></trkpt><trkpt lat="45.547852933443274" lon="11.419854106991504"><ele>53.0</ele><time>2026-04-10T14:47:30Z</time></trkpt><trkpt lat="45.547926757923435" lon="11.41985373992587"><ele>52.0</ele><time>2026-04-10T14:47:31Z</time></trkpt><trkpt lat="45.54798929430618" lon="11.419870097523404"><ele>51.0</ele><time>2026-04-10T14:47:32Z</time></trkpt><trkpt lat="45.54805955790262" lon="11.419901727638651"><ele>50.0</ele><time>2026-04-10T14:47:33Z</time></trkpt><trkpt lat="45.54812004265258" lon="11.4200079542847"><ele>49.0</ele><time>2026-04-10T14:47:34Z</time></trkpt><trkpt lat="45.548227610044385" lon="11.420103779318081"><ele>48.0</ele><time>2026-04-10T14:47:35Z</time></trkpt><trkpt lat="45.548339736348915" lon="11.420179206279384"><ele>48.0</ele><time>2026-04-10T14:47:36Z</time></trkpt><trkpt lat="45.548454991362796" lon="11.420228394785203"><ele>48.0</ele><time>2026-04-10T14:47:37Z</time></trkpt><trkpt lat="45.548572709462704" lon="11.420294554213976"><ele>48.0</ele><time>2026-04-10T14:47:38Z</time></trkpt><trkpt lat="45.548686439398544" lon="11.420343008654974"><ele>48.0</ele><time>2026-04-10T14:47:39Z</time></trkpt><trkpt lat="45.54878776110998" lon="11.420360783922131"><ele>49.599999999999994</ele><time>2026-04-10T14:47:40Z</time></trkpt><trkpt lat="45.54889055765347" lon="11.420368990386768"><ele>51.199999999999996</ele><time>2026-04-10T14:47:41Z</time></trkpt><trkpt lat="45.548989388986584" lon="11.420383878866181"><ele>52.8</ele><time>2026-04-10T14:47:42Z</time></trkpt><trkpt lat="45.54907872886627" lon="11.420400576460342"><ele>54.4</ele><time>2026-04-10T14:47:43Z</time></trkpt><trkpt lat="45.54915941906655" lon="11.420394660406886"><ele>56.0</ele><time>2026-04-10T14:47:44Z</time></trkpt><trkpt lat="45.54925057182031" lon="11.420353556152797"><ele>56.0</ele><time>2026-04-10T14:47:45Z</time></trkpt><trkpt lat="45.549348723354655" lon="11.420271141966868"><ele>56.0</ele><time>2026-04-10T14:47:46Z</time></trkpt><trkpt lat="45.54945712231407" lon="11.420215290950361"><ele>56.0</ele><time>2026-04-10T14:47:47Z</time></trkpt><trkpt lat="45.549571281304274" lon="11.420226484903642"><ele>56.0</ele><time>2026-04-10T14:47:48Z</time></trkpt><trkpt lat="45.54968870383782" lon="11.420218012262367"><ele>57.5</ele><time>2026-04-10T14:47:49Z</time></trkpt><trkpt lat="45.5498021861524" lon="11.420193645283401"><ele>59.0</ele><time>2026-04-10T14:47:50Z</time></trkpt><trkpt lat="45.54992049946291" lon="11.420168495807436"><ele>60.5</ele><time>2026-04-10T14:47:51Z</time></trkpt><trkpt lat="45.550042425377946" lon="11.420130264768131"><ele>62.0</ele><time>2026-04-10T14:47:52Z</time></trkpt><trkpt lat="45.55017531821578" lon="11.42011841794578"><ele>62.0</ele><time>2026-04-10T14:47:53Z</time></trkpt><trkpt lat="45.5502881267908" lon="11.420095265179752"><ele>62.0</ele><time>2026-04-10T14:47:54Z</time></trkpt><trkpt lat="45.550400587456586" lon="11.42007429390152"><ele>62.0</ele><time>2026-04-10T14:47:55Z</time></trkpt><trkpt lat="45.55050090279113" lon="11.420043433349633"><ele>62.0</ele><time>2026-04-10T14:47:56Z</time></trkpt><trkpt lat="45.550606415975444" lon="11.419991524930248"><ele>62.0</ele><time>2026-04-10T14:47:57Z</time></trkpt><trkpt lat="45.55070755497611" lon="11.419916995686817"><ele>64.5</ele><time>2026-04-10T14:47:58Z</time></trkpt><trkpt lat="45.55080530091459" lon="11.41981883033838"><ele>67.0</ele><time>2026-04-10T14:47:59Z</time></trkpt><trkpt lat="45.550896853343666" lon="11.419707046193745"><ele>69.5</ele><time>2026-04-10T14:48:00Z</time></trkpt><trkpt lat="45.55099491153829" lon="11.419593772672487"><ele>72.0</ele><time>2026-04-10T14:48:01Z</time></trkpt><trkpt lat="45.55109677494438" lon="11.419485377372741"><ele>72.0</ele><time>2026-04-10T14:48:02Z</time></trkpt><trkpt lat="45.551206084338865" lon="11.419382663987374"><ele>72.0</ele><time>2026-04-10T14:48:03Z</time></trkpt><trkpt lat="45.55131729341757" lon="11.41926628958609"><ele>72.0</ele><time>2026-04-10T14:48:04Z</time></trkpt><trkpt lat="45.551426096227175" lon="11.419162093091288"><ele>72.0</ele><time>2026-04-10T14:48:05Z</time></trkpt><trkpt lat="45.55155083275724" lon="11.419079337927473"><ele>67.5</ele><time>2026-04-10T14:48:06Z</time></trkpt><trkpt lat="45.55168612950333" lon="11.419075406195027"><ele>63.0</ele><time>2026-04-10T14:48:07.001Z</time></trkpt><trkpt lat="45.55179670607775" lon="11.419089117969182"><ele>58.5</ele><time>2026-04-10T14:48:08.001Z</time></trkpt><trkpt lat="45.55189920544759" lon="11.419129886090456"><ele>54.0</ele><time>2026-04-10T14:48:09.001Z</time></trkpt><trkpt lat="45.552017713867" lon="11.419128184718799"><ele>52.75</ele><time>2026-04-10T14:48:10.001Z</time></trkpt><trkpt lat="45.55213859080143" lon="11.419113921247224"><ele>51.5</ele><time>2026-04-10T14:48:11.001Z</time></trkpt><trkpt lat="45.5522474811052" lon="11.419070672067301"><ele>50.25</ele><time>2026-04-10T14:48:12.001Z</time></trkpt><trkpt lat="45.55236283212022" lon="11.419013283364475"><ele>49.0</ele><time>2026-04-10T14:48:13.001Z</time></trkpt><trkpt lat="45.55247928974599" lon="11.418929840271542"><ele>49.0</ele><time>2026-04-10T14:48:14.001Z</time></trkpt><trkpt lat="45.55261113410489" lon="11.418834766241655"><ele>49.0</ele><time>2026-04-10T14:48:15.001Z</time></trkpt><trkpt lat="45.55275717937525" lon="11.418743619009872"><ele>49.0</ele><time>2026-04-10T14:48:16.001Z</time></trkpt><trkpt lat="45.55289638122677" lon="11.418655627528825"><ele>48.0</ele><time>2026-04-10T14:48:17.001Z</time></trkpt><trkpt lat="45.55301514693605" lon="11.41855752769945"><ele>47.0</ele><time>2026-04-10T14:48:18.001Z</time></trkpt><trkpt lat="45.553093632836294" lon="11.418408761517222"><ele>46.0</ele><time>2026-04-10T14:48:19.001Z</time></trkpt><trkpt lat="45.55316008936671" lon="11.418282711430669"><ele>45.0</ele><time>2026-04-10T14:48:20.001Z</time></trkpt><trkpt lat="45.553210215159815" lon="11.41815338855189"><ele>45.0</ele><time>2026-04-10T14:48:21.001Z</time></trkpt><trkpt lat="45.5532508125873" lon="11.418014824289168"><ele>45.0</ele><time>2026-04-10T14:48:22.001Z</time></trkpt><trkpt lat="45.553269559858386" lon="11.417866955240818"><ele>45.0</ele><time>2026-04-10T14:48:23.001Z</time></trkpt><trkpt lat="45.553285938971264" lon="11.417725609999005"><ele>45.0</ele><time>2026-04-10T14:48:24.001Z</time></trkpt><trkpt lat="45.55330716675063" lon="11.417608896555787"><ele>45.0</ele><time>2026-04-10T14:48:25.001Z</time></trkpt><trkpt lat="45.55332693441629" lon="11.417513100586966"><ele>44.2</ele><time>2026-04-10T14:48:26.001Z</time></trkpt><trkpt lat="45.553363215301765" lon="11.417429677791242"><ele>43.4</ele><time>2026-04-10T14:48:27.001Z</time></trkpt><trkpt lat="45.553476494838" lon="11.417462991194448"><ele>42.599999999999994</ele><time>2026-04-10T14:48:28.001Z</time></trkpt><trkpt lat="45.553592808838395" lon="11.417457914476213"><ele>41.8</ele><time>2026-04-10T14:48:29.001Z</time></trkpt><trkpt lat="45.553702447650565" lon="11.417456254510432"><ele>41.0</ele><time>2026-04-10T14:48:30.001Z</time></trkpt><trkpt lat="45.55383723527755" lon="11.417444030968957"><ele>41.0</ele><time>2026-04-10T14:48:31.001Z</time></trkpt><trkpt lat="45.55398476443432" lon="11.417446015894862"><ele>41.0</ele><time>2026-04-10T14:48:32.001Z</time></trkpt><trkpt lat="45.554149539690464" lon="11.417438445051301"><ele>41.0</ele><time>2026-04-10T14:48:33.001Z</time></trkpt><trkpt lat="45.55432469372557" lon="11.417421702962649"><ele>41.0</ele><time>2026-04-10T14:48:34.001Z</time></trkpt><trkpt lat="45.554493754663035" lon="11.417389070439569"><ele>41.0</ele><time>2026-04-10T14:48:35.001Z</time></trkpt><trkpt lat="45.554671086637654" lon="11.417340086382602"><ele>41.0</ele><time>2026-04-10T14:48:36.001Z</time></trkpt><trkpt lat="45.55482755488573" lon="11.417296217857574"><ele>41.5</ele><time>2026-04-10T14:48:37.001Z</time></trkpt><trkpt lat="45.55496607616401" lon="11.417251641943908"><ele>42.0</ele><time>2026-04-10T14:48:38.001Z</time></trkpt><trkpt lat="45.555097553451475" lon="11.417211343079666"><ele>42.5</ele><time>2026-04-10T14:48:39.001Z</time></trkpt><trkpt lat="45.555218033348005" lon="11.417167674806025"><ele>43.0</ele><time>2026-04-10T14:48:40.001Z</time></trkpt><trkpt lat="45.55534200554198" lon="11.417126329297277"><ele>44.599999999999994</ele><time>2026-04-10T14:48:41Z</time></trkpt><trkpt lat="45.55546343072322" lon="11.417080838045502"><ele>46.199999999999996</ele><time>2026-04-10T14:48:42Z</time></trkpt><trkpt lat="45.55557403601722" lon="11.417025446990651"><ele>47.8</ele><time>2026-04-10T14:48:43Z</time></trkpt><trkpt lat="45.5556725099184" lon="11.416966767648415"><ele>49.4</ele><time>2026-04-10T14:48:44Z</time></trkpt><trkpt lat="45.55575724852903" lon="11.416907614713208"><ele>51.0</ele><time>2026-04-10T14:48:45Z</time></trkpt><trkpt lat="45.555818743259685" lon="11.416855116399486"><ele>51.0</ele><time>2026-04-10T14:48:46Z</time></trkpt><trkpt lat="45.55591065308755" lon="11.416892877364557"><ele>51.0</ele><time>2026-04-10T14:48:49Z</time></trkpt><trkpt lat="45.55595258644774" lon="11.416995409427148"><ele>51.0</ele><time>2026-04-10T14:48:50Z</time></trkpt><trkpt lat="45.556020409026445" lon="11.417141991190277"><ele>51.0</ele><time>2026-04-10T14:48:51Z</time></trkpt><trkpt lat="45.55611321102612" lon="11.417260747059403"><ele>51.0</ele><time>2026-04-10T14:48:52Z</time></trkpt><trkpt lat="45.55618917776783" lon="11.41733547695169"><ele>50.833333333333336</ele><time>2026-04-10T14:48:53Z</time></trkpt><trkpt lat="45.55624910086363" lon="11.41737421913482"><ele>50.66666666666667</ele><time>2026-04-10T14:48:54Z</time></trkpt><trkpt lat="45.55630034396679" lon="11.417428942971421"><ele>50.5</ele><time>2026-04-10T14:48:55Z</time></trkpt><trkpt lat="45.55639106238127" lon="11.417453381352697"><ele>50.333333333333336</ele><time>2026-04-10T14:48:57Z</time></trkpt><trkpt lat="45.55650099519605" lon="11.417502967974553"><ele>50.16666666666667</ele><time>2026-04-10T14:48:59Z</time></trkpt><trkpt lat="45.55656240660501" lon="11.417540377831235"><ele>50.0</ele><time>2026-04-10T14:49:00Z</time></trkpt><trkpt lat="45.55663895951058" lon="11.417552148502864"><ele>50.0</ele><time>2026-04-10T14:49:01Z</time></trkpt><trkpt lat="45.55671953471258" lon="11.417557172934966"><ele>50.0</ele><time>2026-04-10T14:49:02Z</time></trkpt><trkpt lat="45.55680155374751" lon="11.417562373903557"><ele>50.0</ele><time>2026-04-10T14:49:03Z</time></trkpt><trkpt lat="45.55689107237257" lon="11.41755924696262"><ele>50.0</ele><time>2026-04-10T14:49:04Z</time></trkpt><trkpt lat="45.55700438894003" lon="11.417521519468174"><ele>50.0</ele><time>2026-04-10T14:49:05Z</time></trkpt><trkpt lat="45.5571373812042" lon="11.417473700111021"><ele>50.0</ele><time>2026-04-10T14:49:06Z</time></trkpt><trkpt lat="45.55726355102198" lon="11.417426338843114"><ele>50.0</ele><time>2026-04-10T14:49:07Z</time></trkpt><trkpt lat="45.557402423048714" lon="11.417378960047126"><ele>50.0</ele><time>2026-04-10T14:49:08Z</time></trkpt><trkpt lat="45.55753681104975" lon="11.417339786011569"><ele>50.0</ele><time>2026-04-10T14:49:09Z</time></trkpt><trkpt lat="45.55765148470581" lon="11.417313140896372"><ele>50.0</ele><time>2026-04-10T14:49:10Z</time></trkpt><trkpt lat="45.55775735632138" lon="11.417329832252706"><ele>50.0</ele><time>2026-04-10T14:49:11Z</time></trkpt><trkpt lat="45.557868136658435" lon="11.41741628647189"><ele>50.0</ele><time>2026-04-10T14:49:12Z</time></trkpt><trkpt lat="45.55796410209408" lon="11.417589573409233"><ele>50.0</ele><time>2026-04-10T14:49:13Z</time></trkpt><trkpt lat="45.55807224542011" lon="11.417738151417806"><ele>48.0</ele><time>2026-04-10T14:49:14Z</time></trkpt><trkpt lat="45.55820146803956" lon="11.417903857608671"><ele>46.0</ele><time>2026-04-10T14:49:15Z</time></trkpt><trkpt lat="45.558314154179214" lon="11.418072878680926"><ele>44.0</ele><time>2026-04-10T14:49:16Z</time></trkpt><trkpt lat="45.5583804961382" lon="11.418281584620676"><ele>44.0</ele><time>2026-04-10T14:49:17Z</time></trkpt><trkpt lat="45.55841413393183" lon="11.41851825812746"><ele>44.0</ele><time>2026-04-10T14:49:18Z</time></trkpt><trkpt lat="45.55841522327522" lon="11.418751468532614"><ele>44.0</ele><time>2026-04-10T14:49:19Z</time></trkpt><trkpt lat="45.55842063898254" lon="11.41901361537252"><ele>44.0</ele><time>2026-04-10T14:49:20Z</time></trkpt><trkpt lat="45.55845007923584" lon="11.419285048239622"><ele>44.0</ele><time>2026-04-10T14:49:21Z</time></trkpt><trkpt lat="45.55847953065986" lon="11.419554285360167"><ele>44.0</ele><time>2026-04-10T14:49:22Z</time></trkpt><trkpt lat="45.55853222379384" lon="11.419805463605357"><ele>43.666666666666664</ele><time>2026-04-10T14:49:23Z</time></trkpt><trkpt lat="45.55857750493315" lon="11.420047212764393"><ele>43.333333333333336</ele><time>2026-04-10T14:49:24Z</time></trkpt><trkpt lat="45.55862582708669" lon="11.420264577393745"><ele>43.0</ele><time>2026-04-10T14:49:25Z</time></trkpt><trkpt lat="45.55867613899784" lon="11.420467060494358"><ele>43.0</ele><time>2026-04-10T14:49:26Z</time></trkpt><trkpt lat="45.558755188559196" lon="11.420667513788082"><ele>43.0</ele><time>2026-04-10T14:49:27Z</time></trkpt><trkpt lat="45.55887804868888" lon="11.420849677500835"><ele>43.0</ele><time>2026-04-10T14:49:28Z</time></trkpt><trkpt lat="45.55903360888072" lon="11.421007739100556"><ele>43.0</ele><time>2026-04-10T14:49:29Z</time></trkpt><trkpt lat="45.55916865323882" lon="11.42120053949073"><ele>43.0</ele><time>2026-04-10T14:49:30Z</time></trkpt><trkpt lat="45.559256030538904" lon="11.421444438973207"><ele>43.0</ele><time>2026-04-10T14:49:31Z</time></trkpt><trkpt lat="45.55931614964274" lon="11.421706741943694"><ele>43.0</ele><time>2026-04-10T14:49:32Z</time></trkpt><trkpt lat="45.55935632501517" lon="11.421938074294584"><ele>43.0</ele><time>2026-04-10T14:49:33Z</time></trkpt><trkpt lat="45.55937602979906" lon="11.422082838488594"><ele>43.0</ele><time>2026-04-10T14:49:34Z</time></trkpt><trkpt lat="45.55954750629722" lon="11.421933387776155"><ele>43.66666666666667</ele><time>2026-04-10T14:49:39Z</time></trkpt><trkpt lat="45.55964663750372" lon="11.421770965352504"><ele>44.333333333333336</ele><time>2026-04-10T14:49:40Z</time></trkpt><trkpt lat="45.55974583468865" lon="11.42158350308026"><ele>45.0</ele><time>2026-04-10T14:49:41Z</time></trkpt><trkpt lat="45.55983758565006" lon="11.421412724564155"><ele>45.0</ele><time>2026-04-10T14:49:42Z</time></trkpt><trkpt lat="45.55990712642566" lon="11.421258754801388"><ele>45.0</ele><time>2026-04-10T14:49:43Z</time></trkpt><trkpt lat="45.560014666986326" lon="11.421120900377352"><ele>45.0</ele><time>2026-04-10T14:49:44Z</time></trkpt><trkpt lat="45.56014647400569" lon="11.4209595184821"><ele>45.0</ele><time>2026-04-10T14:49:45Z</time></trkpt><trkpt lat="45.560250457452675" lon="11.42079512575073"><ele>45.0</ele><time>2026-04-10T14:49:46Z</time></trkpt><trkpt lat="45.560359543710966" lon="11.420623199950864"><ele>45.0</ele><time>2026-04-10T14:49:47Z</time></trkpt><trkpt lat="45.56045671430833" lon="11.420440665701893"><ele>45.0</ele><time>2026-04-10T14:49:48Z</time></trkpt><trkpt lat="45.5605606645091" lon="11.420275523992016"><ele>44.75</ele><time>2026-04-10T14:49:49Z</time></trkpt><trkpt lat="45.56065853680652" lon="11.420144084844218"><ele>44.5</ele><time>2026-04-10T14:49:50Z</time></trkpt><trkpt lat="45.56078623503815" lon="11.420061224413379"><ele>44.25</ele><time>2026-04-10T14:49:51Z</time></trkpt><trkpt lat="45.560941376875356" lon="11.420006969493047"><ele>44.0</ele><time>2026-04-10T14:49:52Z</time></trkpt><trkpt lat="45.56111068730382" lon="11.419965334673687"><ele>43.666666666666664</ele><time>2026-04-10T14:49:53Z</time></trkpt><trkpt lat="45.56128651718286" lon="11.419920391242602"><ele>43.333333333333336</ele><time>2026-04-10T14:49:54Z</time></trkpt><trkpt lat="45.561451482919885" lon="11.419866698992081"><ele>43.0</ele><time>2026-04-10T14:49:55Z</time></trkpt><trkpt lat="45.56160820238987" lon="11.41983550999441"><ele>43.0</ele><time>2026-04-10T14:49:56Z</time></trkpt><trkpt lat="45.56176565650536" lon="11.419798493113262"><ele>43.0</ele><time>2026-04-10T14:49:57Z</time></trkpt><trkpt lat="45.561927332712614" lon="11.419742525790802"><ele>43.0</ele><time>2026-04-10T14:49:58Z</time></trkpt><trkpt lat="45.562088570779856" lon="11.419650058191658"><ele>44.0</ele><time>2026-04-10T14:49:59Z</time></trkpt><trkpt lat="45.56224444668446" lon="11.41951926826213"><ele>45.0</ele><time>2026-04-10T14:50:00Z</time></trkpt><trkpt lat="45.56237756378294" lon="11.419354798264647"><ele>46.0</ele><time>2026-04-10T14:50:01Z</time></trkpt><trkpt lat="45.5624982121118" lon="11.419156664288622"><ele>46.0</ele><time>2026-04-10T14:50:02Z</time></trkpt><trkpt lat="45.56262619083238" lon="11.418961508591666"><ele>46.0</ele><time>2026-04-10T14:50:03Z</time></trkpt><trkpt lat="45.56275911382649" lon="11.418764286441066"><ele>46.0</ele><time>2026-04-10T14:50:04Z</time></trkpt><trkpt lat="45.56289115430493" lon="11.418594303751853"><ele>46.0</ele><time>2026-04-10T14:50:04.999Z</time></trkpt><trkpt lat="45.56301357626287" lon="11.418437304999234"><ele>46.0</ele><time>2026-04-10T14:50:05.999Z</time></trkpt><trkpt lat="45.563122863267886" lon="11.418289018992175"><ele>46.0</ele><time>2026-04-10T14:50:06.999Z</time></trkpt><trkpt lat="45.56322944155358" lon="11.418152323907043"><ele>46.0</ele><time>2026-04-10T14:50:07.999Z</time></trkpt><trkpt lat="45.56333899281125" lon="11.418025611388776"><ele>46.0</ele><time>2026-04-10T14:50:08.999Z</time></trkpt><trkpt lat="45.56344899569391" lon="11.417900196830914"><ele>46.0</ele><time>2026-04-10T14:50:09.999Z</time></trkpt><trkpt lat="45.56355670557177" lon="11.417772733542385"><ele>46.0</ele><time>2026-04-10T14:50:10.999Z</time></trkpt><trkpt lat="45.56366570383297" lon="11.417656700420428"><ele>47.25</ele><time>2026-04-10T14:50:11.999Z</time></trkpt><trkpt lat="45.5637784267054" lon="11.417584936397184"><ele>48.5</ele><time>2026-04-10T14:50:13Z</time></trkpt><trkpt lat="45.563886224024166" lon="11.417528195985303"><ele>49.75</ele><time>2026-04-10T14:50:14Z</time></trkpt><trkpt lat="45.56399195198315" lon="11.41751683450601"><ele>51.0</ele><time>2026-04-10T14:50:15Z</time></trkpt><trkpt lat="45.564091549317936" lon="11.417589703216493"><ele>51.0</ele><time>2026-04-10T14:50:16Z</time></trkpt><trkpt lat="45.56421297564408" lon="11.417609258427284"><ele>51.0</ele><time>2026-04-10T14:50:17Z</time></trkpt><trkpt lat="45.56434146051596" lon="11.417635613891427"><ele>51.0</ele><time>2026-04-10T14:50:18Z</time></trkpt><trkpt lat="45.56450135766147" lon="11.41760783226989"><ele>51.0</ele><time>2026-04-10T14:50:19Z</time></trkpt><trkpt lat="45.564689413951136" lon="11.417562268769506"><ele>53.33333333333333</ele><time>2026-04-10T14:50:20Z</time></trkpt><trkpt lat="45.56489243361688" lon="11.417531055717951"><ele>55.666666666666664</ele><time>2026-04-10T14:50:21Z</time></trkpt><trkpt lat="45.56507272237197" lon="11.417520503628367"><ele>58.0</ele><time>2026-04-10T14:50:22Z</time></trkpt><trkpt lat="45.56523890266564" lon="11.417512702221776"><ele>56.0</ele><time>2026-04-10T14:50:23Z</time></trkpt><trkpt lat="45.565389527435535" lon="11.417483609942652"><ele>54.0</ele><time>2026-04-10T14:50:24Z</time></trkpt><trkpt lat="45.56553632088871" lon="11.417423477066428"><ele>52.0</ele><time>2026-04-10T14:50:25Z</time></trkpt><trkpt lat="45.56569110370802" lon="11.417339762290522"><ele>52.0</ele><time>2026-04-10T14:50:26Z</time></trkpt><trkpt lat="45.56584594067908" lon="11.417262633835785"><ele>52.0</ele><time>2026-04-10T14:50:27Z</time></trkpt><trkpt lat="45.56600259122428" lon="11.417191046408599"><ele>52.0</ele><time>2026-04-10T14:50:28Z</time></trkpt><trkpt lat="45.56616897103741" lon="11.417126136269378"><ele>57.33333333333333</ele><time>2026-04-10T14:50:29Z</time></trkpt><trkpt lat="45.566340055544615" lon="11.417063489320117"><ele>62.66666666666667</ele><time>2026-04-10T14:50:30Z</time></trkpt><trkpt lat="45.56652063112322" lon="11.417038361834608"><ele>68.0</ele><time>2026-04-10T14:50:31Z</time></trkpt><trkpt lat="45.5667101173679" lon="11.417058355326297"><ele>68.0</ele><time>2026-04-10T14:50:32Z</time></trkpt><trkpt lat="45.56689877620908" lon="11.417108602975444"><ele>68.0</ele><time>2026-04-10T14:50:33Z</time></trkpt><trkpt lat="45.567086914742596" lon="11.417169539658465"><ele>68.0</ele><time>2026-04-10T14:50:34Z</time></trkpt><trkpt lat="45.56726523001825" lon="11.41725923628061"><ele>63.25</ele><time>2026-04-10T14:50:35Z</time></trkpt><trkpt lat="45.56744406514861" lon="11.41728969403721"><ele>58.5</ele><time>2026-04-10T14:50:36Z</time></trkpt><trkpt lat="45.567584758557516" lon="11.417328922667949"><ele>53.75</ele><time>2026-04-10T14:50:37Z</time></trkpt><trkpt lat="45.567699057394144" lon="11.41733906744475"><ele>49.0</ele><time>2026-04-10T14:50:38Z</time></trkpt><trkpt lat="45.567826877100046" lon="11.417304623807334"><ele>48.666666666666664</ele><time>2026-04-10T14:50:39Z</time></trkpt><trkpt lat="45.56797467006451" lon="11.417232080417955"><ele>48.33333333333333</ele><time>2026-04-10T14:50:40Z</time></trkpt><trkpt lat="45.568129727517345" lon="11.417124499266551"><ele>48.0</ele><time>2026-04-10T14:50:41Z</time></trkpt><trkpt lat="45.56828746717097" lon="11.417004583235284"><ele>48.66666666666667</ele><time>2026-04-10T14:50:42Z</time></trkpt><trkpt lat="45.568452660008916" lon="11.416876767304824"><ele>49.333333333333336</ele><time>2026-04-10T14:50:43Z</time></trkpt><trkpt lat="45.568606984586104" lon="11.416761480312118"><ele>50.0</ele><time>2026-04-10T14:50:44Z</time></trkpt><trkpt lat="45.56874260003755" lon="11.416656500137941"><ele>50.0</ele><time>2026-04-10T14:50:45Z</time></trkpt><trkpt lat="45.56886550336828" lon="11.416601995416324"><ele>50.0</ele><time>2026-04-10T14:50:46Z</time></trkpt><trkpt lat="45.56899580006506" lon="11.416547402635272"><ele>50.0</ele><time>2026-04-10T14:50:47Z</time></trkpt><trkpt lat="45.56914455261683" lon="11.416475059218433"><ele>50.0</ele><time>2026-04-10T14:50:48Z</time></trkpt><trkpt lat="45.56929493320142" lon="11.41636596554045"><ele>51.75</ele><time>2026-04-10T14:50:49Z</time></trkpt><trkpt lat="45.56944682779236" lon="11.416281566221128"><ele>53.5</ele><time>2026-04-10T14:50:50Z</time></trkpt><trkpt lat="45.56958172748306" lon="11.416205564495986"><ele>55.25</ele><time>2026-04-10T14:50:51Z</time></trkpt><trkpt lat="45.56970534138522" lon="11.416138482670519"><ele>57.0</ele><time>2026-04-10T14:50:52Z</time></trkpt><trkpt lat="45.5698212578705" lon="11.416087728945852"><ele>57.0</ele><time>2026-04-10T14:50:53Z</time></trkpt><trkpt lat="45.569911247199144" lon="11.416039419785625"><ele>57.0</ele><time>2026-04-10T14:50:54Z</time></trkpt><trkpt lat="45.56999354024593" lon="11.416002565327544"><ele>57.0</ele><time>2026-04-10T14:50:55Z</time></trkpt><trkpt lat="45.57008161579918" lon="11.415966642688039"><ele>57.0</ele><time>2026-04-10T14:50:56Z</time></trkpt><trkpt lat="45.57018995275357" lon="11.415927666139583"><ele>57.0</ele><time>2026-04-10T14:50:57Z</time></trkpt><trkpt lat="45.57032667426515" lon="11.415883978179409"><ele>55.66666666666667</ele><time>2026-04-10T14:50:58Z</time></trkpt><trkpt lat="45.57048517041168" lon="11.415845174285211"><ele>54.333333333333336</ele><time>2026-04-10T14:50:59Z</time></trkpt><trkpt lat="45.57065932891963" lon="11.415798833975916"><ele>53.0</ele><time>2026-04-10T14:51:00Z</time></trkpt><trkpt lat="45.570835654377994" lon="11.415732659784647"><ele>53.0</ele><time>2026-04-10T14:51:01Z</time></trkpt><trkpt lat="45.57101024931416" lon="11.415624109652656"><ele>53.0</ele><time>2026-04-10T14:51:02Z</time></trkpt><trkpt lat="45.571184739426016" lon="11.415489554304513"><ele>53.0</ele><time>2026-04-10T14:51:03Z</time></trkpt><trkpt lat="45.57136146721993" lon="11.415333722509068"><ele>54.66666666666667</ele><time>2026-04-10T14:51:04Z</time></trkpt><trkpt lat="45.571527689351946" lon="11.415184531029222"><ele>56.33333333333333</ele><time>2026-04-10T14:51:04.999Z</time></trkpt><trkpt lat="45.57169154856014" lon="11.415026948284085"><ele>58.0</ele><time>2026-04-10T14:51:05.999Z</time></trkpt><trkpt lat="45.57185151104658" lon="11.414858690665431"><ele>58.0</ele><time>2026-04-10T14:51:06.999Z</time></trkpt><trkpt lat="45.571990175517826" lon="11.414696937122175"><ele>58.0</ele><time>2026-04-10T14:51:07.999Z</time></trkpt><trkpt lat="45.57210246370716" lon="11.4145667861301"><ele>58.0</ele><time>2026-04-10T14:51:08.999Z</time></trkpt><trkpt lat="45.57220749218794" lon="11.414445614697039"><ele>56.0</ele><time>2026-04-10T14:51:09.999Z</time></trkpt><trkpt lat="45.572307729390566" lon="11.41429615817013"><ele>54.0</ele><time>2026-04-10T14:51:10.999Z</time></trkpt><trkpt lat="45.57240783178211" lon="11.414119540092164"><ele>52.0</ele><time>2026-04-10T14:51:11.999Z</time></trkpt><trkpt lat="45.57252019027446" lon="11.413951825181261"><ele>52.0</ele><time>2026-04-10T14:51:12.999Z</time></trkpt><trkpt lat="45.57266053047842" lon="11.413827294840091"><ele>52.0</ele><time>2026-04-10T14:51:13.999Z</time></trkpt><trkpt lat="45.572777870878724" lon="11.413695021692567"><ele>52.0</ele><time>2026-04-10T14:51:14.999Z</time></trkpt><trkpt lat="45.5728950116857" lon="11.413591586079646"><ele>52.25</ele><time>2026-04-10T14:51:15.999Z</time></trkpt><trkpt lat="45.572987998254696" lon="11.413487489517221"><ele>52.5</ele><time>2026-04-10T14:51:16.999Z</time></trkpt><trkpt lat="45.57306484240454" lon="11.413359815244895"><ele>52.75</ele><time>2026-04-10T14:51:17.999Z</time></trkpt><trkpt lat="45.57314343065065" lon="11.413219932165301"><ele>53.0</ele><time>2026-04-10T14:51:18.999Z</time></trkpt><trkpt lat="45.57321091764617" lon="11.41307185112065"><ele>54.0</ele><time>2026-04-10T14:51:19.999Z</time></trkpt><trkpt lat="45.57327349876096" lon="11.412945500411604"><ele>55.0</ele><time>2026-04-10T14:51:20.999Z</time></trkpt><trkpt lat="45.573324113504036" lon="11.412813059065382"><ele>56.0</ele><time>2026-04-10T14:51:21.999Z</time></trkpt><trkpt lat="45.57338642897558" lon="11.412685976240708"><ele>57.0</ele><time>2026-04-10T14:51:22.999Z</time></trkpt><trkpt lat="45.57347068146452" lon="11.412601384578938"><ele>58.0</ele><time>2026-04-10T14:51:23.999Z</time></trkpt><trkpt lat="45.57354808787319" lon="11.412540457441004"><ele>57.99999999999999</ele><time>2026-04-10T14:51:24.999Z</time></trkpt><trkpt lat="45.5736091766976" lon="11.412486417233334"><ele>58.0</ele><time>2026-04-10T14:51:25.999Z</time></trkpt><trkpt lat="45.57368196849045" lon="11.41245290177714"><ele>58.0</ele><time>2026-04-10T14:51:26.999Z</time></trkpt><trkpt lat="45.573792365693244" lon="11.412393901364549"><ele>58.0</ele><time>2026-04-10T14:51:28.999Z</time></trkpt><trkpt lat="45.57385215969277" lon="11.4123605292583"><ele>57.99999999999999</ele><time>2026-04-10T14:51:29.999Z</time></trkpt><trkpt lat="45.573919993931945" lon="11.412325204708042"><ele>58.0</ele><time>2026-04-10T14:51:30.999Z</time></trkpt><trkpt lat="45.573998127170874" lon="11.412303014660909"><ele>56.2</ele><time>2026-04-10T14:51:31.999Z</time></trkpt><trkpt lat="45.57405425873946" lon="11.412246356616475"><ele>54.4</ele><time>2026-04-10T14:51:32.999Z</time></trkpt><trkpt lat="45.57415976083934" lon="11.412181668960017"><ele>52.6</ele><time>2026-04-10T14:51:34.999Z</time></trkpt><trkpt lat="45.57425757125136" lon="11.412108649605056"><ele>50.800000000000004</ele><time>2026-04-10T14:51:36.999Z</time></trkpt><trkpt lat="45.574316376502864" lon="11.412027658535761"><ele>49.0</ele><time>2026-04-10T14:51:37.999Z</time></trkpt><trkpt lat="45.574367835843425" lon="11.411928362359244"><ele>48.99999999999999</ele><time>2026-04-10T14:51:38.999Z</time></trkpt><trkpt lat="45.574404630597975" lon="11.411817851760874"><ele>49.0</ele><time>2026-04-10T14:51:39.999Z</time></trkpt><trkpt lat="45.574440728545724" lon="11.411710096761565"><ele>49.0</ele><time>2026-04-10T14:51:40.999Z</time></trkpt><trkpt lat="45.57448186765933" lon="11.411608886585368"><ele>49.0</ele><time>2026-04-10T14:51:41.999Z</time></trkpt><trkpt lat="45.5745272923506" lon="11.411537247711326"><ele>48.99999999999999</ele><time>2026-04-10T14:51:42.999Z</time></trkpt><trkpt lat="45.574614612839504" lon="11.411452557892744"><ele>49.0</ele><time>2026-04-10T14:51:44.999Z</time></trkpt><trkpt lat="45.57467958122367" lon="11.411432008469575"><ele>50.14285714285714</ele><time>2026-04-10T14:51:45.999Z</time></trkpt><trkpt lat="45.574755589929715" lon="11.41144962093954"><ele>51.285714285714285</ele><time>2026-04-10T14:51:46.999Z</time></trkpt><trkpt lat="45.574799929144774" lon="11.411552476296084"><ele>52.42857142857143</ele><time>2026-04-10T14:51:47.999Z</time></trkpt><trkpt lat="45.574849181996846" lon="11.411613439750084"><ele>53.57142857142857</ele><time>2026-04-10T14:51:48.999Z</time></trkpt><trkpt lat="45.57490814806132" lon="11.411684505100494"><ele>54.71428571428571</ele><time>2026-04-10T14:51:49.999Z</time></trkpt><trkpt lat="45.574969416841064" lon="11.411753604373018"><ele>55.857142857142854</ele><time>2026-04-10T14:51:50.999Z</time></trkpt><trkpt lat="45.57502297987375" lon="11.41181168890711"><ele>57.0</ele><time>2026-04-10T14:51:51.999Z</time></trkpt><trkpt lat="45.57508888347381" lon="11.411848040184786"><ele>57.0</ele><time>2026-04-10T14:51:52.999Z</time></trkpt><trkpt lat="45.575148478064655" lon="11.411904557443126"><ele>57.0</ele><time>2026-04-10T14:51:53.999Z</time></trkpt><trkpt lat="45.57521479795656" lon="11.411946773428825"><ele>57.0</ele><time>2026-04-10T14:51:54.999Z</time></trkpt><trkpt lat="45.575295555141544" lon="11.411972744985423"><ele>57.0</ele><time>2026-04-10T14:51:55.999Z</time></trkpt><trkpt lat="45.57538111365545" lon="11.41197579705071"><ele>57.0</ele><time>2026-04-10T14:51:56.999Z</time></trkpt><trkpt lat="45.57547149366705" lon="11.411930887550358"><ele>57.0</ele><time>2026-04-10T14:51:57.999Z</time></trkpt><trkpt lat="45.57556373124324" lon="11.411855433795953"><ele>58.6</ele><time>2026-04-10T14:51:58.999Z</time></trkpt><trkpt lat="45.575661470473335" lon="11.411811249891796"><ele>60.2</ele><time>2026-04-10T14:51:59.999Z</time></trkpt><trkpt lat="45.57576695740797" lon="11.411801547471532"><ele>61.8</ele><time>2026-04-10T14:52:00.999Z</time></trkpt><trkpt lat="45.57586966277024" lon="11.411792927683917"><ele>63.4</ele><time>2026-04-10T14:52:01.999Z</time></trkpt><trkpt lat="45.575965694455576" lon="11.41178202095299"><ele>65.0</ele><time>2026-04-10T14:52:02.999Z</time></trkpt><trkpt lat="45.576066389983104" lon="11.411779594133645"><ele>65.0</ele><time>2026-04-10T14:52:03.999Z</time></trkpt><trkpt lat="45.57618673781878" lon="11.411763742953523"><ele>65.0</ele><time>2026-04-10T14:52:04.999Z</time></trkpt><trkpt lat="45.576318099976056" lon="11.411715658597808"><ele>65.0</ele><time>2026-04-10T14:52:05.999Z</time></trkpt><trkpt lat="45.57646185499263" lon="11.411668063977471"><ele>65.0</ele><time>2026-04-10T14:52:06.999Z</time></trkpt><trkpt lat="45.576615432585974" lon="11.411616293616149"><ele>65.0</ele><time>2026-04-10T14:52:07.999Z</time></trkpt><trkpt lat="45.57677200235655" lon="11.411559352784002"><ele>65.0</ele><time>2026-04-10T14:52:08.999Z</time></trkpt><trkpt lat="45.576916164071335" lon="11.411506790804927"><ele>65.0</ele><time>2026-04-10T14:52:09.999Z</time></trkpt><trkpt lat="45.57705665546407" lon="11.411454092012029"><ele>65.0</ele><time>2026-04-10T14:52:10.999Z</time></trkpt><trkpt lat="45.577186698320844" lon="11.411405118515468"><ele>65.0</ele><time>2026-04-10T14:52:11.999Z</time></trkpt><trkpt lat="45.57730176087547" lon="11.411367772947175"><ele>65.0</ele><time>2026-04-10T14:52:12.999Z</time></trkpt><trkpt lat="45.57741603539518" lon="11.41132737754606"><ele>65.0</ele><time>2026-04-10T14:52:13.999Z</time></trkpt><trkpt lat="45.57753266308037" lon="11.41131699433626"><ele>65.0</ele><time>2026-04-10T14:52:14.999Z</time></trkpt><trkpt lat="45.57765363357777" lon="11.411309901770814"><ele>65.0</ele><time>2026-04-10T14:52:15.999Z</time></trkpt><trkpt lat="45.57777152257185" lon="11.411328327887649"><ele>65.0</ele><time>2026-04-10T14:52:16.999Z</time></trkpt><trkpt lat="45.57788419082045" lon="11.411359349372454"><ele>65.0</ele><time>2026-04-10T14:52:17.999Z</time></trkpt><trkpt lat="45.57798819354957" lon="11.411368686786904"><ele>68.25</ele><time>2026-04-10T14:52:19Z</time></trkpt><trkpt lat="45.57809326052286" lon="11.411387259081403"><ele>71.5</ele><time>2026-04-10T14:52:20Z</time></trkpt><trkpt lat="45.578218925289285" lon="11.411367272254301"><ele>74.75</ele><time>2026-04-10T14:52:21Z</time></trkpt><trkpt lat="45.57834114685646" lon="11.4113605256426"><ele>78.0</ele><time>2026-04-10T14:52:22Z</time></trkpt><trkpt lat="45.578459891723476" lon="11.411385514451531"><ele>78.0</ele><time>2026-04-10T14:52:23Z</time></trkpt><trkpt lat="45.57857197553881" lon="11.411397238297509"><ele>78.0</ele><time>2026-04-10T14:52:24Z</time></trkpt><trkpt lat="45.578678665097605" lon="11.411410533710711"><ele>78.0</ele><time>2026-04-10T14:52:25Z</time></trkpt><trkpt lat="45.57877659361956" lon="11.411448719435835"><ele>78.0</ele><time>2026-04-10T14:52:26Z</time></trkpt><trkpt lat="45.5788806941178" lon="11.41144252606467"><ele>78.0</ele><time>2026-04-10T14:52:27Z</time></trkpt><trkpt lat="45.57898626788021" lon="11.411427406452411"><ele>80.0</ele><time>2026-04-10T14:52:28Z</time></trkpt><trkpt lat="45.57909406358439" lon="11.411363451475186"><ele>82.0</ele><time>2026-04-10T14:52:29Z</time></trkpt><trkpt lat="45.57919713526812" lon="11.411290993470919"><ele>84.0</ele><time>2026-04-10T14:52:30Z</time></trkpt><trkpt lat="45.579292325387215" lon="11.411224070181111"><ele>86.0</ele><time>2026-04-10T14:52:31Z</time></trkpt><trkpt lat="45.57938338034477" lon="11.411162790442075"><ele>88.0</ele><time>2026-04-10T14:52:32Z</time></trkpt><trkpt lat="45.579469966182785" lon="11.411109215001428"><ele>89.4</ele><time>2026-04-10T14:52:33Z</time></trkpt><trkpt lat="45.57955025151543" lon="11.411061497555881"><ele>90.80000000000001</ele><time>2026-04-10T14:52:34Z</time></trkpt><trkpt lat="45.57963272907454" lon="11.411018337575758"><ele>92.2</ele><time>2026-04-10T14:52:35Z</time></trkpt><trkpt lat="45.5797044601829" lon="11.410976824207864"><ele>93.6</ele><time>2026-04-10T14:52:36Z</time></trkpt><trkpt lat="45.57983407003052" lon="11.410902444276198"><ele>95.0</ele><time>2026-04-10T14:52:38Z</time></trkpt><trkpt lat="45.579891406844126" lon="11.410819731715018"><ele>95.0</ele><time>2026-04-10T14:52:39Z</time></trkpt><trkpt lat="45.579946325288766" lon="11.410753869173947"><ele>95.0</ele><time>2026-04-10T14:52:40Z</time></trkpt><trkpt lat="45.580013350958275" lon="11.410649085543865"><ele>95.0</ele><time>2026-04-10T14:52:42Z</time></trkpt><trkpt lat="45.58011315692234" lon="11.410686394151643"><ele>95.0</ele><time>2026-04-10T14:52:46Z</time></trkpt><trkpt lat="45.58019965401466" lon="11.410717017218714"><ele>95.0</ele><time>2026-04-10T14:52:48Z</time></trkpt><trkpt lat="45.5802644095455" lon="11.41070022843367"><ele>95.0</ele><time>2026-04-10T14:52:49Z</time></trkpt><trkpt lat="45.58033210827202" lon="11.41067269444964"><ele>93.66666666666667</ele><time>2026-04-10T14:52:50Z</time></trkpt><trkpt lat="45.58039834844165" lon="11.4106419785877"><ele>92.33333333333334</ele><time>2026-04-10T14:52:51Z</time></trkpt><trkpt lat="45.580461498886535" lon="11.410609202418666"><ele>91.0</ele><time>2026-04-10T14:52:52Z</time></trkpt><trkpt lat="45.58052413607207" lon="11.410584868363848"><ele>89.66666666666667</ele><time>2026-04-10T14:52:53Z</time></trkpt><trkpt lat="45.58058677513161" lon="11.410561803021618"><ele>88.33333333333333</ele><time>2026-04-10T14:52:54Z</time></trkpt><trkpt lat="45.58069694995751" lon="11.410508699176729"><ele>87.0</ele><time>2026-04-10T14:52:56Z</time></trkpt><trkpt lat="45.58079717463773" lon="11.410433195522742"><ele>87.0</ele><time>2026-04-10T14:52:58Z</time></trkpt><trkpt lat="45.58089256305752" lon="11.410334038097501"><ele>87.0</ele><time>2026-04-10T14:53:00Z</time></trkpt><trkpt lat="45.58098184519403" lon="11.410214773129523"><ele>87.0</ele><time>2026-04-10T14:53:02Z</time></trkpt><trkpt lat="45.58107488784714" lon="11.410117044586757"><ele>87.0</ele><time>2026-04-10T14:53:04Z</time></trkpt><trkpt lat="45.58116449316492" lon="11.410032179338803"><ele>87.0</ele><time>2026-04-10T14:53:06Z</time></trkpt><trkpt lat="45.5812585625557" lon="11.409959781476614"><ele>87.0</ele><time>2026-04-10T14:53:08Z</time></trkpt><trkpt lat="45.58134102563944" lon="11.409895942216744"><ele>87.0</ele><time>2026-04-10T14:53:10Z</time></trkpt><trkpt lat="45.58141083203097" lon="11.409846985879994"><ele>87.0</ele><time>2026-04-10T14:53:12Z</time></trkpt><trkpt lat="45.58148060959568" lon="11.409803366904894"><ele>87.0</ele><time>2026-04-10T14:53:14Z</time></trkpt><trkpt lat="45.58155523891098" lon="11.409754717403302"><ele>87.0</ele><time>2026-04-10T14:53:16Z</time></trkpt><trkpt lat="45.58167599413682" lon="11.409701744541728"><ele>87.0</ele><time>2026-04-10T14:53:18Z</time></trkpt><trkpt lat="45.581749982965874" lon="11.409673157206166"><ele>87.0</ele><time>2026-04-10T14:53:19Z</time></trkpt><trkpt lat="45.58183817250024" lon="11.409643741141803"><ele>87.0</ele><time>2026-04-10T14:53:20Z</time></trkpt><trkpt lat="45.58192807862964" lon="11.409611634377141"><ele>87.0</ele><time>2026-04-10T14:53:21Z</time></trkpt><trkpt lat="45.58202372015467" lon="11.409579153946039"><ele>87.0</ele><time>2026-04-10T14:53:22Z</time></trkpt><trkpt lat="45.582130686218655" lon="11.409545398803898"><ele>88.5</ele><time>2026-04-10T14:53:23Z</time></trkpt><trkpt lat="45.582240272803574" lon="11.40951291415334"><ele>90.0</ele><time>2026-04-10T14:53:24Z</time></trkpt><trkpt lat="45.58235766924122" lon="11.409473328131057"><ele>91.5</ele><time>2026-04-10T14:53:25Z</time></trkpt><trkpt lat="45.58246529622891" lon="11.409424812671485"><ele>93.0</ele><time>2026-04-10T14:53:26Z</time></trkpt><trkpt lat="45.58257413545729" lon="11.409372845512763"><ele>93.0</ele><time>2026-04-10T14:53:27Z</time></trkpt><trkpt lat="45.582666488203934" lon="11.409316050517772"><ele>93.0</ele><time>2026-04-10T14:53:28Z</time></trkpt><trkpt lat="45.582739765048174" lon="11.409280794086667"><ele>93.0</ele><time>2026-04-10T14:53:29Z</time></trkpt><trkpt lat="45.582868001850265" lon="11.409306780003604"><ele>93.0</ele><time>2026-04-10T14:53:31Z</time></trkpt><trkpt lat="45.58295315139251" lon="11.409335221485682"><ele>93.0</ele><time>2026-04-10T14:53:32Z</time></trkpt><trkpt lat="45.58304200148734" lon="11.409332325357342"><ele>95.0</ele><time>2026-04-10T14:53:33Z</time></trkpt><trkpt lat="45.58312231322267" lon="11.409342071661625"><ele>97.0</ele><time>2026-04-10T14:53:34Z</time></trkpt><trkpt lat="45.583188877558555" lon="11.409380187833612"><ele>99.0</ele><time>2026-04-10T14:53:35Z</time></trkpt><trkpt lat="45.58324309027224" lon="11.409444407129016"><ele>101.0</ele><time>2026-04-10T14:53:36Z</time></trkpt><trkpt lat="45.583339325333725" lon="11.409428857637815"><ele>103.0</ele><time>2026-04-10T14:53:37Z</time></trkpt><trkpt lat="45.58348459877939" lon="11.409333621825386"><ele>103.0</ele><time>2026-04-10T14:53:39Z</time></trkpt><trkpt lat="45.583626826939515" lon="11.409297476401955"><ele>103.0</ele><time>2026-04-10T14:53:40Z</time></trkpt><trkpt lat="45.58377930234362" lon="11.409282635674693"><ele>103.0</ele><time>2026-04-10T14:53:41Z</time></trkpt><trkpt lat="45.5839425048934" lon="11.40927518334963"><ele>101.25</ele><time>2026-04-10T14:53:42Z</time></trkpt><trkpt lat="45.58410386349933" lon="11.409274308600443"><ele>99.5</ele><time>2026-04-10T14:53:42.999Z</time></trkpt><trkpt lat="45.58423642579153" lon="11.409283494609383"><ele>97.75</ele><time>2026-04-10T14:53:43.999Z</time></trkpt><trkpt lat="45.58435227239615" lon="11.409283858765228"><ele>96.0</ele><time>2026-04-10T14:53:44.999Z</time></trkpt><trkpt lat="45.584451436008806" lon="11.409281645706427"><ele>93.8</ele><time>2026-04-10T14:53:45.999Z</time></trkpt><trkpt lat="45.58452773241181" lon="11.409279994970083"><ele>91.6</ele><time>2026-04-10T14:53:46.999Z</time></trkpt><trkpt lat="45.58459813342586" lon="11.409276524837303"><ele>89.4</ele><time>2026-04-10T14:53:48.999Z</time></trkpt><trkpt lat="45.58458561847553" lon="11.409443176691438"><ele>87.2</ele><time>2026-04-10T14:53:50.999Z</time></trkpt><trkpt lat="45.58465193241729" lon="11.409474528127918"><ele>85.0</ele><time>2026-04-10T14:53:51.999Z</time></trkpt><trkpt lat="45.584719765212924" lon="11.409626230882573"><ele>85.0</ele><time>2026-04-10T14:53:53.999Z</time></trkpt><trkpt lat="45.58481558968803" lon="11.409579680188683"><ele>85.0</ele><time>2026-04-10T14:53:55.999Z</time></trkpt><trkpt lat="45.58486439468177" lon="11.409482582148003"><ele>85.0</ele><time>2026-04-10T14:53:56.999Z</time></trkpt><trkpt lat="45.584919988780605" lon="11.40938155038098"><ele>85.0</ele><time>2026-04-10T14:53:57.999Z</time></trkpt><trkpt lat="45.584966522531545" lon="11.40927525759824"><ele>85.0</ele><time>2026-04-10T14:53:58.999Z</time></trkpt><trkpt lat="45.585027385338016" lon="11.409213393063027"><ele>85.0</ele><time>2026-04-10T14:53:59.999Z</time></trkpt><trkpt lat="45.58509328019996" lon="11.409215565164542"><ele>85.0</ele><time>2026-04-10T14:54:01.999Z</time></trkpt><trkpt lat="45.585107921696554" lon="11.409303588552158"><ele>85.0</ele><time>2026-04-10T14:54:02.999Z</time></trkpt><trkpt lat="45.5851133518321" lon="11.409444594488"><ele>85.0</ele><time>2026-04-10T14:54:03.999Z</time></trkpt><trkpt lat="45.58511319609894" lon="11.409612997554822"><ele>85.0</ele><time>2026-04-10T14:54:04.999Z</time></trkpt><trkpt lat="45.58511106034432" lon="11.409764570610562"><ele>85.0</ele><time>2026-04-10T14:54:05.999Z</time></trkpt><trkpt lat="45.58511880231145" lon="11.409861395554978"><ele>83.66666666666666</ele><time>2026-04-10T14:54:06.999Z</time></trkpt><trkpt lat="45.58512660647808" lon="11.409960041871715"><ele>82.33333333333333</ele><time>2026-04-10T14:54:07.999Z</time></trkpt><trkpt lat="45.585133105064024" lon="11.410107825652268"><ele>81.0</ele><time>2026-04-10T14:54:09.999Z</time></trkpt><trkpt lat="45.5851672697575" lon="11.410201434753958"><ele>79.66666666666667</ele><time>2026-04-10T14:54:30Z</time></trkpt><trkpt lat="45.585177133411165" lon="11.410346084706875"><ele>78.33333333333334</ele><time>2026-04-10T14:54:32Z</time></trkpt><trkpt lat="45.58517058709765" lon="11.410442295285595"><ele>77.0</ele><time>2026-04-10T14:54:35Z</time></trkpt><trkpt lat="45.58520125465947" lon="11.410521486416268"><ele>75.5</ele><time>2026-04-10T14:54:37Z</time></trkpt><trkpt lat="45.58532511488089" lon="11.410588586559891"><ele>74.0</ele><time>2026-04-10T14:54:39Z</time></trkpt><trkpt lat="45.58541762694059" lon="11.41057026508651"><ele>72.5</ele><time>2026-04-10T14:54:40Z</time></trkpt><trkpt lat="45.58552342021239" lon="11.410538342657485"><ele>71.0</ele><time>2026-04-10T14:54:41Z</time></trkpt><trkpt lat="45.58563719140931" lon="11.410508826949206"><ele>73.66666666666667</ele><time>2026-04-10T14:54:42Z</time></trkpt><trkpt lat="45.585775365899906" lon="11.410473116689232"><ele>76.33333333333333</ele><time>2026-04-10T14:54:43Z</time></trkpt><trkpt lat="45.585933821733605" lon="11.410447197395175"><ele>79.0</ele><time>2026-04-10T14:54:44Z</time></trkpt><trkpt lat="45.586091007848985" lon="11.410412325491121"><ele>77.66666666666666</ele><time>2026-04-10T14:54:45Z</time></trkpt><trkpt lat="45.58626032908993" lon="11.410378721729654"><ele>76.33333333333333</ele><time>2026-04-10T14:54:46Z</time></trkpt><trkpt lat="45.58643867143747" lon="11.41034244856577"><ele>75.0</ele><time>2026-04-10T14:54:47Z</time></trkpt><trkpt lat="45.58662167153834" lon="11.410310570839728"><ele>75.0</ele><time>2026-04-10T14:54:48Z</time></trkpt><trkpt lat="45.586800225777104" lon="11.410270954556799"><ele>75.0</ele><time>2026-04-10T14:54:49Z</time></trkpt><trkpt lat="45.58697440584495" lon="11.410212221980197"><ele>75.0</ele><time>2026-04-10T14:54:50Z</time></trkpt><trkpt lat="45.58714309037816" lon="11.410146104605422"><ele>73.0</ele><time>2026-04-10T14:54:51Z</time></trkpt><trkpt lat="45.587300539111375" lon="11.410087746130467"><ele>71.0</ele><time>2026-04-10T14:54:52Z</time></trkpt><trkpt lat="45.58745318182173" lon="11.410035829364762"><ele>69.0</ele><time>2026-04-10T14:54:53Z</time></trkpt><trkpt lat="45.587609342636554" lon="11.409978269266336"><ele>69.0</ele><time>2026-04-10T14:54:54Z</time></trkpt><trkpt lat="45.58776702294139" lon="11.409901022059621"><ele>69.0</ele><time>2026-04-10T14:54:55Z</time></trkpt><trkpt lat="45.58794475184408" lon="11.409846745876031"><ele>69.0</ele><time>2026-04-10T14:54:56Z</time></trkpt><trkpt lat="45.58813664702037" lon="11.409869126626122"><ele>69.33333333333333</ele><time>2026-04-10T14:54:57Z</time></trkpt><trkpt lat="45.58832947071297" lon="11.409914778074356"><ele>69.66666666666666</ele><time>2026-04-10T14:54:58Z</time></trkpt><trkpt lat="45.588514272059356" lon="11.4099893198634"><ele>70.0</ele><time>2026-04-10T14:54:59Z</time></trkpt><trkpt lat="45.58870417864509" lon="11.410051043613029"><ele>70.0</ele><time>2026-04-10T14:55:00Z</time></trkpt><trkpt lat="45.588865302918784" lon="11.410112667928091"><ele>70.0</ele><time>2026-04-10T14:55:01Z</time></trkpt><trkpt lat="45.5890021038568" lon="11.410121999526528"><ele>70.0</ele><time>2026-04-10T14:55:02Z</time></trkpt><trkpt lat="45.58915034876376" lon="11.410102801200383"><ele>70.0</ele><time>2026-04-10T14:55:03Z</time></trkpt><trkpt lat="45.58931084753647" lon="11.41009450088899"><ele>70.0</ele><time>2026-04-10T14:55:04Z</time></trkpt><trkpt lat="45.58948418576245" lon="11.410098493848878"><ele>70.0</ele><time>2026-04-10T14:55:05Z</time></trkpt><trkpt lat="45.589667818607225" lon="11.41013114985158"><ele>71.0</ele><time>2026-04-10T14:55:06Z</time></trkpt><trkpt lat="45.589834447433645" lon="11.410245902038854"><ele>72.0</ele><time>2026-04-10T14:55:07Z</time></trkpt><trkpt lat="45.590000391294296" lon="11.410368136172037"><ele>73.0</ele><time>2026-04-10T14:55:08Z</time></trkpt><trkpt lat="45.59018105139932" lon="11.410489785429048"><ele>73.33333333333333</ele><time>2026-04-10T14:55:09Z</time></trkpt><trkpt lat="45.590359356464354" lon="11.410621586520262"><ele>73.66666666666667</ele><time>2026-04-10T14:55:10Z</time></trkpt><trkpt lat="45.5905565904357" lon="11.410735615594637"><ele>74.0</ele><time>2026-04-10T14:55:11Z</time></trkpt><trkpt lat="45.59076643620296" lon="11.41084286343664"><ele>74.0</ele><time>2026-04-10T14:55:12Z</time></trkpt><trkpt lat="45.59099015007358" lon="11.41095091441099"><ele>74.0</ele><time>2026-04-10T14:55:13Z</time></trkpt><trkpt lat="45.591197385382515" lon="11.411057986230004"><ele>75.33333333333334</ele><time>2026-04-10T14:55:14Z</time></trkpt><trkpt lat="45.59139226460673" lon="11.411159268073376"><ele>76.66666666666667</ele><time>2026-04-10T14:55:15Z</time></trkpt><trkpt lat="45.59158813322348" lon="11.411248869938676"><ele>78.0</ele><time>2026-04-10T14:55:16Z</time></trkpt><trkpt lat="45.59179424476153" lon="11.411318826438476"><ele>75.33333333333333</ele><time>2026-04-10T14:55:17Z</time></trkpt><trkpt lat="45.59201018655682" lon="11.41133819789292"><ele>72.66666666666666</ele><time>2026-04-10T14:55:18Z</time></trkpt><trkpt lat="45.592233318231365" lon="11.411360812820906"><ele>70.0</ele><time>2026-04-10T14:55:19Z</time></trkpt><trkpt lat="45.59245194952642" lon="11.411339023930314"><ele>70.0</ele><time>2026-04-10T14:55:20Z</time></trkpt><trkpt lat="45.59265554072757" lon="11.411334677219807"><ele>70.0</ele><time>2026-04-10T14:55:21Z</time></trkpt><trkpt lat="45.59283050730397" lon="11.411340395923933"><ele>70.0</ele><time>2026-04-10T14:55:22Z</time></trkpt><trkpt lat="45.592958833387804" lon="11.411393735053185"><ele>70.25</ele><time>2026-04-10T14:55:23Z</time></trkpt><trkpt lat="45.593062333744" lon="11.411454185671815"><ele>70.5</ele><time>2026-04-10T14:55:24Z</time></trkpt><trkpt lat="45.59316198865489" lon="11.411623813517"><ele>70.75</ele><time>2026-04-10T14:55:25Z</time></trkpt><trkpt lat="45.593326065816655" lon="11.411736264548859"><ele>71.0</ele><time>2026-04-10T14:55:26Z</time></trkpt><trkpt lat="45.59352470241877" lon="11.411822666583419"><ele>71.0</ele><time>2026-04-10T14:55:27Z</time></trkpt><trkpt lat="45.59369278901959" lon="11.412005390997075"><ele>71.0</ele><time>2026-04-10T14:55:28Z</time></trkpt><trkpt lat="45.59383930653731" lon="11.41224296842371"><ele>71.0</ele><time>2026-04-10T14:55:29Z</time></trkpt><trkpt lat="45.59398020508142" lon="11.412495839104622"><ele>72.0</ele><time>2026-04-10T14:55:30Z</time></trkpt><trkpt lat="45.59412075093411" lon="11.412757530115627"><ele>73.0</ele><time>2026-04-10T14:55:31Z</time></trkpt><trkpt lat="45.59425051011598" lon="11.413029394012952"><ele>73.25</ele><time>2026-04-10T14:55:32Z</time></trkpt><trkpt lat="45.594371469779176" lon="11.413248430321751"><ele>73.5</ele><time>2026-04-10T14:55:33Z</time></trkpt><trkpt lat="45.594440296343414" lon="11.41341937755613"><ele>73.75</ele><time>2026-04-10T14:55:34Z</time></trkpt><trkpt lat="45.59451354387761" lon="11.413530491484602"><ele>74.0</ele><time>2026-04-10T14:55:35Z</time></trkpt><trkpt lat="45.594589624533825" lon="11.413632585875664"><ele>74.0</ele><time>2026-04-10T14:55:36Z</time></trkpt><trkpt lat="45.594710943725886" lon="11.413621805137062"><ele>74.0</ele><time>2026-04-10T14:55:37Z</time></trkpt><trkpt lat="45.59483957360617" lon="11.413626352424357"><ele>74.0</ele><time>2026-04-10T14:55:38Z</time></trkpt><trkpt lat="45.594987825914394" lon="11.41364210758081"><ele>74.0</ele><time>2026-04-10T14:55:39Z</time></trkpt><trkpt lat="45.59515479216591" lon="11.413634020939122"><ele>74.33333333333334</ele><time>2026-04-10T14:55:40Z</time></trkpt><trkpt lat="45.595369845554" lon="11.413675544376952"><ele>74.66666666666667</ele><time>2026-04-10T14:55:41Z</time></trkpt><trkpt lat="45.59558830522436" lon="11.413726770911751"><ele>75.0</ele><time>2026-04-10T14:55:42Z</time></trkpt><trkpt lat="45.59578057646168" lon="11.413796763272224"><ele>75.0</ele><time>2026-04-10T14:55:43Z</time></trkpt><trkpt lat="45.595993345587104" lon="11.413893401674809"><ele>75.0</ele><time>2026-04-10T14:55:44Z</time></trkpt><trkpt lat="45.596217171675896" lon="11.413995298132873"><ele>76.0</ele><time>2026-04-10T14:55:45Z</time></trkpt><trkpt lat="45.59639530544952" lon="11.414130300078703"><ele>77.0</ele><time>2026-04-10T14:55:46Z</time></trkpt><trkpt lat="45.59655279835289" lon="11.414281743663379"><ele>78.0</ele><time>2026-04-10T14:55:47Z</time></trkpt><trkpt lat="45.596696603471635" lon="11.414427129956076"><ele>78.0</ele><time>2026-04-10T14:55:48Z</time></trkpt><trkpt lat="45.59683470519109" lon="11.414530804320133"><ele>78.0</ele><time>2026-04-10T14:55:49Z</time></trkpt><trkpt lat="45.59696699459482" lon="11.414609795868877"><ele>78.0</ele><time>2026-04-10T14:55:50Z</time></trkpt><trkpt lat="45.59712029816608" lon="11.41458860258361"><ele>79.0</ele><time>2026-04-10T14:55:51Z</time></trkpt><trkpt lat="45.59731043484283" lon="11.414583056572718"><ele>80.0</ele><time>2026-04-10T14:55:52Z</time></trkpt><trkpt lat="45.59750705013145" lon="11.414610059436823"><ele>81.0</ele><time>2026-04-10T14:55:53Z</time></trkpt><trkpt lat="45.59769248354088" lon="11.414692017377078"><ele>82.0</ele><time>2026-04-10T14:55:54Z</time></trkpt><trkpt lat="45.597850572657705" lon="11.414748792741293"><ele>83.0</ele><time>2026-04-10T14:55:55Z</time></trkpt><trkpt lat="45.59798382117907" lon="11.414778866365642"><ele>84.0</ele><time>2026-04-10T14:55:56Z</time></trkpt><trkpt lat="45.59811913349897" lon="11.414810497332624"><ele>85.0</ele><time>2026-04-10T14:55:57Z</time></trkpt><trkpt lat="45.598233035102226" lon="11.414908469867347"><ele>85.0</ele><time>2026-04-10T14:55:58Z</time></trkpt><trkpt lat="45.59835993015018" lon="11.414994374892904"><ele>85.0</ele><time>2026-04-10T14:55:59Z</time></trkpt><trkpt lat="45.59848326108914" lon="11.415121130541698"><ele>85.0</ele><time>2026-04-10T14:56:00Z</time></trkpt><trkpt lat="45.59861166219478" lon="11.415148816264486"><ele>85.0</ele><time>2026-04-10T14:56:01Z</time></trkpt><trkpt lat="45.598787708465" lon="11.415177842455572"><ele>86.0</ele><time>2026-04-10T14:56:02Z</time></trkpt><trkpt lat="45.5989910843734" lon="11.415201112413119"><ele>87.0</ele><time>2026-04-10T14:56:03Z</time></trkpt><trkpt lat="45.59921849477701" lon="11.415230125767103"><ele>88.0</ele><time>2026-04-10T14:56:04Z</time></trkpt><trkpt lat="45.59945351974984" lon="11.415253686029049"><ele>89.33333333333333</ele><time>2026-04-10T14:56:05Z</time></trkpt><trkpt lat="45.5996713347313" lon="11.415248351218546"><ele>90.66666666666667</ele><time>2026-04-10T14:56:06Z</time></trkpt><trkpt lat="45.59985609279753" lon="11.415248219443255"><ele>92.0</ele><time>2026-04-10T14:56:07Z</time></trkpt><trkpt lat="45.6000035969044" lon="11.415242520150697"><ele>92.0</ele><time>2026-04-10T14:56:08Z</time></trkpt><trkpt lat="45.60013646367774" lon="11.415243787262677"><ele>92.0</ele><time>2026-04-10T14:56:09Z</time></trkpt><trkpt lat="45.600288363856166" lon="11.415211860162444"><ele>92.0</ele><time>2026-04-10T14:56:10Z</time></trkpt><trkpt lat="45.60045687220607" lon="11.415140088504536"><ele>92.66666666666667</ele><time>2026-04-10T14:56:11Z</time></trkpt><trkpt lat="45.600619791099575" lon="11.415062294005473"><ele>93.33333333333333</ele><time>2026-04-10T14:56:12Z</time></trkpt><trkpt lat="45.600763999909425" lon="11.415002280250832"><ele>94.0</ele><time>2026-04-10T14:56:13Z</time></trkpt><trkpt lat="45.600901514705555" lon="11.414953354833651"><ele>94.0</ele><time>2026-04-10T14:56:14Z</time></trkpt><trkpt lat="45.60104004793676" lon="11.414918984188589"><ele>94.0</ele><time>2026-04-10T14:56:15Z</time></trkpt><trkpt lat="45.60119306709059" lon="11.414907875091323"><ele>94.0</ele><time>2026-04-10T14:56:16Z</time></trkpt><trkpt lat="45.60135619248639" lon="11.414938612533529"><ele>95.0</ele><time>2026-04-10T14:56:17Z</time></trkpt><trkpt lat="45.6015146097004" lon="11.41494166680811"><ele>96.0</ele><time>2026-04-10T14:56:18Z</time></trkpt><trkpt lat="45.60165675178436" lon="11.414936670493406"><ele>97.0</ele><time>2026-04-10T14:56:19Z</time></trkpt><trkpt lat="45.60181775624366" lon="11.41488607618056"><ele>97.0</ele><time>2026-04-10T14:56:20Z</time></trkpt><trkpt lat="45.60198452316491" lon="11.414813807893823"><ele>97.0</ele><time>2026-04-10T14:56:21Z</time></trkpt><trkpt lat="45.60215959501729" lon="11.414750520258202"><ele>97.0</ele><time>2026-04-10T14:56:22Z</time></trkpt><trkpt lat="45.602344638480965" lon="11.414705594368156"><ele>98.0</ele><time>2026-04-10T14:56:23Z</time></trkpt><trkpt lat="45.60253566426846" lon="11.414741284724336"><ele>99.0</ele><time>2026-04-10T14:56:24Z</time></trkpt><trkpt lat="45.60274178586249" lon="11.414756883932714"><ele>100.0</ele><time>2026-04-10T14:56:24.999Z</time></trkpt><trkpt lat="45.60293745589984" lon="11.414777843160529"><ele>101.33333333333334</ele><time>2026-04-10T14:56:25.999Z</time></trkpt><trkpt lat="45.60313914777662" lon="11.41477979578615"><ele>102.66666666666666</ele><time>2026-04-10T14:56:26.999Z</time></trkpt><trkpt lat="45.603344222369934" lon="11.414762011030763"><ele>104.0</ele><time>2026-04-10T14:56:27.999Z</time></trkpt><trkpt lat="45.60354926039605" lon="11.414755891608996"><ele>106.66666666666666</ele><time>2026-04-10T14:56:28.999Z</time></trkpt><trkpt lat="45.60375218853862" lon="11.41475109252977"><ele>109.33333333333334</ele><time>2026-04-10T14:56:30.001Z</time></trkpt><trkpt lat="45.60395844914048" lon="11.414734244340197"><ele>112.0</ele><time>2026-04-10T14:56:31.001Z</time></trkpt><trkpt lat="45.60418121811175" lon="11.414684136640547"><ele>111.5</ele><time>2026-04-10T14:56:32.001Z</time></trkpt><trkpt lat="45.6044118426302" lon="11.414601794719685"><ele>111.0</ele><time>2026-04-10T14:56:33.001Z</time></trkpt><trkpt lat="45.60465009673645" lon="11.414516662673288"><ele>111.0</ele><time>2026-04-10T14:56:34.001Z</time></trkpt><trkpt lat="45.60485341410668" lon="11.414450008232022"><ele>111.0</ele><time>2026-04-10T14:56:35.001Z</time></trkpt><trkpt lat="45.60503747277112" lon="11.414395994184074"><ele>111.0</ele><time>2026-04-10T14:56:36.001Z</time></trkpt><trkpt lat="45.60521950955705" lon="11.414331927493985"><ele>114.0</ele><time>2026-04-10T14:56:37.001Z</time></trkpt><trkpt lat="45.60540188730519" lon="11.41422959614513"><ele>117.0</ele><time>2026-04-10T14:56:38.001Z</time></trkpt><trkpt lat="45.60558549723751" lon="11.414070438573688"><ele>120.0</ele><time>2026-04-10T14:56:39.001Z</time></trkpt><trkpt lat="45.60576572487156" lon="11.413897217091302"><ele>119.0</ele><time>2026-04-10T14:56:40.001Z</time></trkpt><trkpt lat="45.605965585069924" lon="11.413750902052035"><ele>118.0</ele><time>2026-04-10T14:56:41.001Z</time></trkpt><trkpt lat="45.60614671779532" lon="11.413617488756325"><ele>117.0</ele><time>2026-04-10T14:56:42Z</time></trkpt><trkpt lat="45.60633312338623" lon="11.413512079172373"><ele>119.66666666666666</ele><time>2026-04-10T14:56:43Z</time></trkpt><trkpt lat="45.60651964124543" lon="11.413398568604618"><ele>122.33333333333333</ele><time>2026-04-10T14:56:44Z</time></trkpt><trkpt lat="45.60669365086455" lon="11.413289584526536"><ele>125.0</ele><time>2026-04-10T14:56:45Z</time></trkpt><trkpt lat="45.60684746654906" lon="11.413195614569718"><ele>125.0</ele><time>2026-04-10T14:56:46Z</time></trkpt><trkpt lat="45.60698774631333" lon="11.413107154033483"><ele>125.0</ele><time>2026-04-10T14:56:47Z</time></trkpt><trkpt lat="45.60711074835771" lon="11.413006151988736"><ele>125.0</ele><time>2026-04-10T14:56:48Z</time></trkpt><trkpt lat="45.607232793783545" lon="11.41285985923191"><ele>128.0</ele><time>2026-04-10T14:56:49Z</time></trkpt><trkpt lat="45.60735096802069" lon="11.41266953986694"><ele>131.0</ele><time>2026-04-10T14:56:50Z</time></trkpt><trkpt lat="45.60747052290468" lon="11.412474895459551"><ele>134.0</ele><time>2026-04-10T14:56:51Z</time></trkpt><trkpt lat="45.6075978569334" lon="11.412284037921717"><ele>134.33333333333331</ele><time>2026-04-10T14:56:52Z</time></trkpt><trkpt lat="45.60774919167632" lon="11.412128456732434"><ele>134.66666666666666</ele><time>2026-04-10T14:56:53Z</time></trkpt><trkpt lat="45.60790871810403" lon="11.411990473735003"><ele>135.0</ele><time>2026-04-10T14:56:54Z</time></trkpt><trkpt lat="45.6080709991185" lon="11.411875111044392"><ele>135.0</ele><time>2026-04-10T14:56:55Z</time></trkpt><trkpt lat="45.608250984695914" lon="11.411750001801387"><ele>135.0</ele><time>2026-04-10T14:56:56Z</time></trkpt><trkpt lat="45.60844312783269" lon="11.411660235723634"><ele>135.0</ele><time>2026-04-10T14:56:57Z</time></trkpt><trkpt lat="45.608627167872" lon="11.41157184056902"><ele>137.66666666666666</ele><time>2026-04-10T14:56:58Z</time></trkpt><trkpt lat="45.60881128376756" lon="11.411480303933782"><ele>140.33333333333331</ele><time>2026-04-10T14:56:59Z</time></trkpt><trkpt lat="45.608978520920374" lon="11.411379110426045"><ele>143.0</ele><time>2026-04-10T14:57:00Z</time></trkpt><trkpt lat="45.60912236829505" lon="11.411305738086057"><ele>143.0</ele><time>2026-04-10T14:57:01Z</time></trkpt><trkpt lat="45.60924333498482" lon="11.411241863402818"><ele>143.0</ele><time>2026-04-10T14:57:02Z</time></trkpt><trkpt lat="45.60934575972244" lon="11.411220358827569"><ele>143.0</ele><time>2026-04-10T14:57:03Z</time></trkpt><trkpt lat="45.609409491661914" lon="11.4112616254232"><ele>143.0</ele><time>2026-04-10T14:57:04Z</time></trkpt><trkpt lat="45.60943830750515" lon="11.411352796151146"><ele>143.0</ele><time>2026-04-10T14:57:05Z</time></trkpt><trkpt lat="45.609455524144764" lon="11.411507653135208"><ele>145.75</ele><time>2026-04-10T14:57:06Z</time></trkpt><trkpt lat="45.60952512944468" lon="11.411684515171135"><ele>148.5</ele><time>2026-04-10T14:57:07Z</time></trkpt><trkpt lat="45.60961766810264" lon="11.411847022273829"><ele>151.25</ele><time>2026-04-10T14:57:08Z</time></trkpt><trkpt lat="45.609762124545036" lon="11.411915355744735"><ele>154.0</ele><time>2026-04-10T14:57:09Z</time></trkpt><trkpt lat="45.609908351484094" lon="11.411988262946549"><ele>154.0</ele><time>2026-04-10T14:57:10Z</time></trkpt><trkpt lat="45.61013596857682" lon="11.412038028049702"><ele>154.0</ele><time>2026-04-10T14:57:11Z</time></trkpt><trkpt lat="45.61027403937685" lon="11.412085582035262"><ele>154.0</ele><time>2026-04-10T14:57:12Z</time></trkpt><trkpt lat="45.61038006263986" lon="11.412146126823425"><ele>155.6</ele><time>2026-04-10T14:57:13Z</time></trkpt><trkpt lat="45.610465948606155" lon="11.412241862783484"><ele>157.2</ele><time>2026-04-10T14:57:14Z</time></trkpt><trkpt lat="45.61048515509156" lon="11.412342505907736"><ele>158.79999999999998</ele><time>2026-04-10T14:57:15Z</time></trkpt><trkpt lat="45.61046381851979" lon="11.412476116139413"><ele>160.4</ele><time>2026-04-10T14:57:16Z</time></trkpt><trkpt lat="45.61039951023" lon="11.412601790360037"><ele>162.0</ele><time>2026-04-10T14:57:17Z</time></trkpt><trkpt lat="45.610264254436466" lon="11.412618904512486"><ele>162.0</ele><time>2026-04-10T14:57:18Z</time></trkpt><trkpt lat="45.61011501821679" lon="11.412671903613482"><ele>162.0</ele><time>2026-04-10T14:57:19Z</time></trkpt><trkpt lat="45.60991774976741" lon="11.412761310864443"><ele>162.0</ele><time>2026-04-10T14:57:20Z</time></trkpt><trkpt lat="45.60977099229792" lon="11.412829439573152"><ele>162.0</ele><time>2026-04-10T14:57:21Z</time></trkpt><trkpt lat="45.60965376866334" lon="11.412883709788654"><ele>162.0</ele><time>2026-04-10T14:57:22Z</time></trkpt><trkpt lat="45.60955306689914" lon="11.412931621639007"><ele>162.0</ele><time>2026-04-10T14:57:23Z</time></trkpt><trkpt lat="45.609476217694485" lon="11.412995298422006"><ele>162.0</ele><time>2026-04-10T14:57:24Z</time></trkpt><trkpt lat="45.609378092467686" lon="11.413066071891777"><ele>162.0</ele><time>2026-04-10T14:57:25Z</time></trkpt><trkpt lat="45.60928217176881" lon="11.413211682020261"><ele>164.5</ele><time>2026-04-10T14:57:26Z</time></trkpt><trkpt lat="45.60918578093503" lon="11.413416151428843"><ele>167.0</ele><time>2026-04-10T14:57:27Z</time></trkpt><trkpt lat="45.6090795284127" lon="11.413565196361889"><ele>169.5</ele><time>2026-04-10T14:57:28Z</time></trkpt><trkpt lat="45.609025218114155" lon="11.413666871741171"><ele>172.0</ele><time>2026-04-10T14:57:29Z</time></trkpt><trkpt lat="45.60901296002314" lon="11.41375529632932"><ele>172.0</ele><time>2026-04-10T14:57:30Z</time></trkpt><trkpt lat="45.60912541087792" lon="11.413794676625557"><ele>172.0</ele><time>2026-04-10T14:57:33Z</time></trkpt><trkpt lat="45.60921653406897" lon="11.413714597243393"><ele>172.0</ele><time>2026-04-10T14:57:34Z</time></trkpt><trkpt lat="45.60930396549196" lon="11.413571734350736"><ele>172.0</ele><time>2026-04-10T14:57:35Z</time></trkpt><trkpt lat="45.60939789097462" lon="11.413463005592806"><ele>172.0</ele><time>2026-04-10T14:57:36Z</time></trkpt><trkpt lat="45.60947622327869" lon="11.413402592356611"><ele>172.0</ele><time>2026-04-10T14:57:37Z</time></trkpt><trkpt lat="45.60956284263201" lon="11.413424810850138"><ele>172.0</ele><time>2026-04-10T14:57:38Z</time></trkpt><trkpt lat="45.60964730086208" lon="11.413465149050591"><ele>172.0</ele><time>2026-04-10T14:57:39Z</time></trkpt><trkpt lat="45.60981646147312" lon="11.413505417781026"><ele>172.0</ele><time>2026-04-10T14:57:40Z</time></trkpt><trkpt lat="45.61001147496749" lon="11.413532370631055"><ele>173.8</ele><time>2026-04-10T14:57:41Z</time></trkpt><trkpt lat="45.61015868021051" lon="11.413592529648488"><ele>175.6</ele><time>2026-04-10T14:57:42Z</time></trkpt><trkpt lat="45.61028206428577" lon="11.41361777951852"><ele>177.4</ele><time>2026-04-10T14:57:43Z</time></trkpt><trkpt lat="45.61035779328825" lon="11.41364004054347"><ele>179.20000000000002</ele><time>2026-04-10T14:57:44Z</time></trkpt><trkpt lat="45.61044282222819" lon="11.413685983444383"><ele>181.0</ele><time>2026-04-10T14:57:45Z</time></trkpt><trkpt lat="45.61043936583274" lon="11.413795191924782"><ele>181.0</ele><time>2026-04-10T14:57:46Z</time></trkpt><trkpt lat="45.610379060652136" lon="11.41386150211738"><ele>181.0</ele><time>2026-04-10T14:57:47Z</time></trkpt><trkpt lat="45.610287210725595" lon="11.413889823353234"><ele>181.0</ele><time>2026-04-10T14:57:48Z</time></trkpt><trkpt lat="45.610193659187374" lon="11.41379439098568"><ele>181.0</ele><time>2026-04-10T14:57:49Z</time></trkpt><trkpt lat="45.610065373799" lon="11.413744112313005"><ele>181.0</ele><time>2026-04-10T14:57:50Z</time></trkpt><trkpt lat="45.609943933434444" lon="11.413715216258712"><ele>181.0</ele><time>2026-04-10T14:57:51Z</time></trkpt><trkpt lat="45.60983712110646" lon="11.413700666440135"><ele>181.0</ele><time>2026-04-10T14:57:52Z</time></trkpt><trkpt lat="45.60973939619654" lon="11.413713021907778"><ele>181.0</ele><time>2026-04-10T14:57:53Z</time></trkpt><trkpt lat="45.60970417617138" lon="11.41378842117471"><ele>181.0</ele><time>2026-04-10T14:57:54Z</time></trkpt><trkpt lat="45.60968970749975" lon="11.413921105895358"><ele>181.0</ele><time>2026-04-10T14:57:55Z</time></trkpt><trkpt lat="45.60980453097466" lon="11.41406399420472"><ele>185.66666666666669</ele><time>2026-04-10T14:57:57Z</time></trkpt><trkpt lat="45.60991698229811" lon="11.41406510562945"><ele>190.33333333333334</ele><time>2026-04-10T14:57:58Z</time></trkpt><trkpt lat="45.61009372216603" lon="11.414070846651018"><ele>195.0</ele><time>2026-04-10T14:57:59Z</time></trkpt><trkpt lat="45.61027288658721" lon="11.414069522317364"><ele>198.66666666666669</ele><time>2026-04-10T14:58:00Z</time></trkpt><trkpt lat="45.61046476786494" lon="11.414086236632192"><ele>202.33333333333334</ele><time>2026-04-10T14:58:01Z</time></trkpt><trkpt lat="45.61063986865469" lon="11.414088065996511"><ele>206.0</ele><time>2026-04-10T14:58:02Z</time></trkpt><trkpt lat="45.61079168875505" lon="11.414035886970774"><ele>206.0</ele><time>2026-04-10T14:58:03Z</time></trkpt><trkpt lat="45.6109528721624" lon="11.413934251410373"><ele>206.0</ele><time>2026-04-10T14:58:04Z</time></trkpt><trkpt lat="45.611057337477675" lon="11.413829003656987"><ele>206.0</ele><time>2026-04-10T14:58:05Z</time></trkpt><trkpt lat="45.611155839863144" lon="11.413761947266106"><ele>206.0</ele><time>2026-04-10T14:58:06Z</time></trkpt><trkpt lat="45.61124875654723" lon="11.413759640598355"><ele>207.4</ele><time>2026-04-10T14:58:07Z</time></trkpt><trkpt lat="45.61130783791206" lon="11.413835616112753"><ele>208.8</ele><time>2026-04-10T14:58:08Z</time></trkpt><trkpt lat="45.611361679255545" lon="11.413955740968662"><ele>210.20000000000002</ele><time>2026-04-10T14:58:09Z</time></trkpt><trkpt lat="45.61147821555179" lon="11.414067827177432"><ele>211.60000000000002</ele><time>2026-04-10T14:58:10Z</time></trkpt><trkpt lat="45.611600373040616" lon="11.414123222029648"><ele>213.0</ele><time>2026-04-10T14:58:11Z</time></trkpt><trkpt lat="45.61170415899843" lon="11.41412127299975"><ele>213.0</ele><time>2026-04-10T14:58:12Z</time></trkpt><trkpt lat="45.61180128067328" lon="11.41405284790421"><ele>213.0</ele><time>2026-04-10T14:58:13Z</time></trkpt><trkpt lat="45.611858509173075" lon="11.413872776916653"><ele>213.0</ele><time>2026-04-10T14:58:14Z</time></trkpt><trkpt lat="45.61188201469135" lon="11.41367700792719"><ele>213.0</ele><time>2026-04-10T14:58:15Z</time></trkpt><trkpt lat="45.61191728025873" lon="11.41347573793466"><ele>218.33333333333331</ele><time>2026-04-10T14:58:16Z</time></trkpt><trkpt lat="45.61200995749558" lon="11.413308489469578"><ele>223.66666666666666</ele><time>2026-04-10T14:58:17Z</time></trkpt><trkpt lat="45.61212308325844" lon="11.413167559124535"><ele>229.0</ele><time>2026-04-10T14:58:18Z</time></trkpt><trkpt lat="45.61225769673809" lon="11.413045736860258"><ele>226.0</ele><time>2026-04-10T14:58:19Z</time></trkpt><trkpt lat="45.61241541985537" lon="11.412932913078608"><ele>223.0</ele><time>2026-04-10T14:58:20Z</time></trkpt><trkpt lat="45.612600316037216" lon="11.412805865423485"><ele>220.0</ele><time>2026-04-10T14:58:21Z</time></trkpt><trkpt lat="45.61276247678671" lon="11.412632096241833"><ele>224.66666666666666</ele><time>2026-04-10T14:58:22Z</time></trkpt><trkpt lat="45.6128929080479" lon="11.412485919112841"><ele>229.33333333333331</ele><time>2026-04-10T14:58:23Z</time></trkpt><trkpt lat="45.612997785746465" lon="11.412290664706912"><ele>234.0</ele><time>2026-04-10T14:58:24Z</time></trkpt><trkpt lat="45.61307932045551" lon="11.412046275127107"><ele>234.0</ele><time>2026-04-10T14:58:25Z</time></trkpt><trkpt lat="45.61313739206578" lon="11.411838200277343"><ele>233.99999999999997</ele><time>2026-04-10T14:58:26Z</time></trkpt><trkpt lat="45.61316371191727" lon="11.411685479868979"><ele>233.99999999999997</ele><time>2026-04-10T14:58:27Z</time></trkpt><trkpt lat="45.613194530734944" lon="11.411589488564081"><ele>234.0</ele><time>2026-04-10T14:58:28Z</time></trkpt><trkpt lat="45.61328115231797" lon="11.411567938841538"><ele>234.0</ele><time>2026-04-10T14:58:29.999Z</time></trkpt><trkpt lat="45.61334315562261" lon="11.411708919600311"><ele>234.0</ele><time>2026-04-10T14:58:31.999Z</time></trkpt><trkpt lat="45.61328358776877" lon="11.411832864482811"><ele>234.0</ele><time>2026-04-10T14:58:32.999Z</time></trkpt><trkpt lat="45.613229759619124" lon="11.412017832035252"><ele>234.0</ele><time>2026-04-10T14:58:33.999Z</time></trkpt><trkpt lat="45.613179711139715" lon="11.412269882351403"><ele>234.0</ele><time>2026-04-10T14:58:34.999Z</time></trkpt><trkpt lat="45.6131068734305" lon="11.412543397343146"><ele>238.0</ele><time>2026-04-10T14:58:36.001Z</time></trkpt><trkpt lat="45.61303505557971" lon="11.412843365869632"><ele>242.0</ele><time>2026-04-10T14:58:37.001Z</time></trkpt><trkpt lat="45.61297587624847" lon="11.413089607922233"><ele>246.0</ele><time>2026-04-10T14:58:38.001Z</time></trkpt><trkpt lat="45.612920594599004" lon="11.413294884129447"><ele>251.33333333333331</ele><time>2026-04-10T14:58:39.001Z</time></trkpt><trkpt lat="45.61288639712165" lon="11.413505355813568"><ele>256.66666666666663</ele><time>2026-04-10T14:58:40.001Z</time></trkpt><trkpt lat="45.61288279228255" lon="11.413736448540378"><ele>262.0</ele><time>2026-04-10T14:58:41.001Z</time></trkpt><trkpt lat="45.61290515064346" lon="11.413988123603446"><ele>265.66666666666663</ele><time>2026-04-10T14:58:42.001Z</time></trkpt><trkpt lat="45.61293505038695" lon="11.414265284302543"><ele>269.3333333333333</ele><time>2026-04-10T14:58:43.001Z</time></trkpt><trkpt lat="45.61295446702534" lon="11.414524290838736"><ele>273.0</ele><time>2026-04-10T14:58:44.001Z</time></trkpt><trkpt lat="45.61297817463343" lon="11.414779746185562"><ele>274.6666666666667</ele><time>2026-04-10T14:58:45.001Z</time></trkpt><trkpt lat="45.61301141767111" lon="11.415028199201776"><ele>276.33333333333337</ele><time>2026-04-10T14:58:46.001Z</time></trkpt><trkpt lat="45.61304646315828" lon="11.415253656651057"><ele>278.0</ele><time>2026-04-10T14:58:47.001Z</time></trkpt><trkpt lat="45.61307721615746" lon="11.41546026379271"><ele>278.0</ele><time>2026-04-10T14:58:48.001Z</time></trkpt><trkpt lat="45.61311031425012" lon="11.41563785670757"><ele>278.0</ele><time>2026-04-10T14:58:49.001Z</time></trkpt><trkpt lat="45.61313748021533" lon="11.415780069892477"><ele>278.0</ele><time>2026-04-10T14:58:50.001Z</time></trkpt><trkpt lat="45.61314993281273" lon="11.415886592395958"><ele>278.0</ele><time>2026-04-10T14:58:51Z</time></trkpt><trkpt lat="45.61315773262235" lon="11.416032657924541"><ele>278.0</ele><time>2026-04-10T14:58:53Z</time></trkpt><trkpt lat="45.613141372814944" lon="11.416205029639112"><ele>278.0</ele><time>2026-04-10T14:58:55Z</time></trkpt><trkpt lat="45.61309332510371" lon="11.416287980278021"><ele>278.0</ele><time>2026-04-10T14:58:56Z</time></trkpt><trkpt lat="45.61300466812352" lon="11.416278205455663"><ele>278.0</ele><time>2026-04-10T14:58:57Z</time></trkpt><trkpt lat="45.612939291855376" lon="11.41619902597396"><ele>278.0</ele><time>2026-04-10T14:58:58Z</time></trkpt><trkpt lat="45.61281114516121" lon="11.416146640087373"><ele>278.0</ele><time>2026-04-10T14:58:59Z</time></trkpt><trkpt lat="45.612651602737806" lon="11.416121356813553"><ele>280.6666666666667</ele><time>2026-04-10T14:59:00Z</time></trkpt><trkpt lat="45.61249304089248" lon="11.416154942857032"><ele>283.3333333333333</ele><time>2026-04-10T14:59:01Z</time></trkpt><trkpt lat="45.61231611392604" lon="11.416222517961096"><ele>286.0</ele><time>2026-04-10T14:59:02Z</time></trkpt><trkpt lat="45.61212769158642" lon="11.416335278728397"><ele>286.0</ele><time>2026-04-10T14:59:03Z</time></trkpt><trkpt lat="45.61200283912159" lon="11.416478909804642"><ele>286.0</ele><time>2026-04-10T14:59:04Z</time></trkpt><trkpt lat="45.61184307109678" lon="11.416675661605241"><ele>286.0</ele><time>2026-04-10T14:59:05Z</time></trkpt><trkpt lat="45.611733558593656" lon="11.416711792960314"><ele>284.25</ele><time>2026-04-10T14:59:06Z</time></trkpt><trkpt lat="45.61162961591128" lon="11.416765329203624"><ele>282.5</ele><time>2026-04-10T14:59:07Z</time></trkpt><trkpt lat="45.61153471358202" lon="11.416674152005186"><ele>280.75</ele><time>2026-04-10T14:59:08Z</time></trkpt><trkpt lat="45.61140421569779" lon="11.416621344008398"><ele>279.0</ele><time>2026-04-10T14:59:09Z</time></trkpt><trkpt lat="45.61124658741761" lon="11.416557593419663"><ele>279.0</ele><time>2026-04-10T14:59:10Z</time></trkpt><trkpt lat="45.61112667925096" lon="11.416528121563307"><ele>279.0</ele><time>2026-04-10T14:59:11Z</time></trkpt><trkpt lat="45.611063640250435" lon="11.41653238926786"><ele>279.0</ele><time>2026-04-10T14:59:12Z</time></trkpt><trkpt lat="45.61105445834884" lon="11.416703026660375"><ele>279.0</ele><time>2026-04-10T14:59:14Z</time></trkpt><trkpt lat="45.61111871498792" lon="11.416774132359125"><ele>279.0</ele><time>2026-04-10T14:59:15Z</time></trkpt><trkpt lat="45.61124041313536" lon="11.416807715673004"><ele>279.0</ele><time>2026-04-10T14:59:16Z</time></trkpt><trkpt lat="45.61139384121263" lon="11.41680092582006"><ele>279.0</ele><time>2026-04-10T14:59:17Z</time></trkpt><trkpt lat="45.61154275081413" lon="11.416836219520272"><ele>279.0</ele><time>2026-04-10T14:59:18Z</time></trkpt><trkpt lat="45.611670303844626" lon="11.416979635302328"><ele>279.0</ele><time>2026-04-10T14:59:19Z</time></trkpt><trkpt lat="45.611765493620915" lon="11.417039720311935"><ele>279.0</ele><time>2026-04-10T14:59:20Z</time></trkpt><trkpt lat="45.611866136775475" lon="11.417055783906582"><ele>279.0</ele><time>2026-04-10T14:59:21Z</time></trkpt><trkpt lat="45.61197728769869" lon="11.416994628171528"><ele>279.0</ele><time>2026-04-10T14:59:22Z</time></trkpt><trkpt lat="45.612098342437974" lon="11.416885244687467"><ele>281.3333333333333</ele><time>2026-04-10T14:59:23Z</time></trkpt><trkpt lat="45.612250644971205" lon="11.416788559273002"><ele>283.66666666666663</ele><time>2026-04-10T14:59:24Z</time></trkpt><trkpt lat="45.61237988449607" lon="11.416679012478225"><ele>286.0</ele><time>2026-04-10T14:59:25Z</time></trkpt><trkpt lat="45.61251180027944" lon="11.41664795994625"><ele>286.0</ele><time>2026-04-10T14:59:26Z</time></trkpt><trkpt lat="45.61261707293562" lon="11.416753791963231"><ele>286.0</ele><time>2026-04-10T14:59:27Z</time></trkpt><trkpt lat="45.61271834669544" lon="11.416890113161617"><ele>286.0</ele><time>2026-04-10T14:59:28Z</time></trkpt><trkpt lat="45.612809369240104" lon="11.417063885711508"><ele>286.0</ele><time>2026-04-10T14:59:29Z</time></trkpt><trkpt lat="45.612908089836196" lon="11.417257634981906"><ele>289.25</ele><time>2026-04-10T14:59:30Z</time></trkpt><trkpt lat="45.613030670250915" lon="11.417431623301054"><ele>292.5</ele><time>2026-04-10T14:59:31Z</time></trkpt><trkpt lat="45.61313570851119" lon="11.417568048763112"><ele>295.75</ele><time>2026-04-10T14:59:32Z</time></trkpt><trkpt lat="45.6132138718045" lon="11.417667986142021"><ele>299.0</ele><time>2026-04-10T14:59:33Z</time></trkpt><trkpt lat="45.61321201605555" lon="11.417779874073469"><ele>299.0</ele><time>2026-04-10T14:59:34Z</time></trkpt><trkpt lat="45.613206287335615" lon="11.417927210445752"><ele>299.0</ele><time>2026-04-10T14:59:35Z</time></trkpt><trkpt lat="45.61323731208796" lon="11.418109238670022"><ele>299.0</ele><time>2026-04-10T14:59:36Z</time></trkpt><trkpt lat="45.61328612381508" lon="11.418215312676384"><ele>299.0</ele><time>2026-04-10T14:59:37Z</time></trkpt><trkpt lat="45.613370686501156" lon="11.418316131302532"><ele>299.0</ele><time>2026-04-10T14:59:38Z</time></trkpt><trkpt lat="45.613482352394826" lon="11.418332442317844"><ele>301.4</ele><time>2026-04-10T14:59:39Z</time></trkpt><trkpt lat="45.61357282603871" lon="11.418315940392056"><ele>303.79999999999995</ele><time>2026-04-10T14:59:40Z</time></trkpt><trkpt lat="45.61365678309556" lon="11.418223528924416"><ele>306.20000000000005</ele><time>2026-04-10T14:59:41Z</time></trkpt><trkpt lat="45.613713720339874" lon="11.41810835763667"><ele>308.6</ele><time>2026-04-10T14:59:42Z</time></trkpt><trkpt lat="45.613752700718265" lon="11.418011598825624"><ele>311.0</ele><time>2026-04-10T14:59:43Z</time></trkpt><trkpt lat="45.613857977227575" lon="11.418061519266741"><ele>311.0</ele><time>2026-04-10T14:59:45Z</time></trkpt><trkpt lat="45.61382933593611" lon="11.418174997388103"><ele>311.0</ele><time>2026-04-10T14:59:46Z</time></trkpt><trkpt lat="45.613753910478074" lon="11.418240201750772"><ele>311.0</ele><time>2026-04-10T14:59:47Z</time></trkpt><trkpt lat="45.613655860452454" lon="11.418319404938286"><ele>311.0</ele><time>2026-04-10T14:59:48Z</time></trkpt><trkpt lat="45.613544530584164" lon="11.41841944413337"><ele>311.0</ele><time>2026-04-10T14:59:49Z</time></trkpt><trkpt lat="45.61341883160328" lon="11.418515321038585"><ele>311.0</ele><time>2026-04-10T14:59:50Z</time></trkpt><trkpt lat="45.613292724851654" lon="11.41858617181839"><ele>311.0</ele><time>2026-04-10T14:59:51Z</time></trkpt><trkpt lat="45.61316634505779" lon="11.418676248822244"><ele>311.0</ele><time>2026-04-10T14:59:52Z</time></trkpt><trkpt lat="45.61306650395458" lon="11.418772624892998"><ele>311.0</ele><time>2026-04-10T14:59:53Z</time></trkpt><trkpt lat="45.61292540053416" lon="11.418821091144105"><ele>313.25</ele><time>2026-04-10T14:59:54Z</time></trkpt><trkpt lat="45.612745458236546" lon="11.418872082821222"><ele>315.5</ele><time>2026-04-10T14:59:55Z</time></trkpt><trkpt lat="45.61261555132963" lon="11.418948412034217"><ele>317.75</ele><time>2026-04-10T14:59:56Z</time></trkpt><trkpt lat="45.61253078525464" lon="11.419034475679528"><ele>320.0</ele><time>2026-04-10T14:59:57Z</time></trkpt><trkpt lat="45.612450817872194" lon="11.419208984429273"><ele>320.0</ele><time>2026-04-10T14:59:58Z</time></trkpt><trkpt lat="45.61236291961738" lon="11.419408342516133"><ele>320.0</ele><time>2026-04-10T14:59:59Z</time></trkpt><trkpt lat="45.61224612194498" lon="11.41959218056568"><ele>320.0</ele><time>2026-04-10T15:00:00Z</time></trkpt><trkpt lat="45.61209463107729" lon="11.419766038389868"><ele>323.0</ele><time>2026-04-10T15:00:01Z</time></trkpt><trkpt lat="45.611939138933735" lon="11.419960647638872"><ele>326.0</ele><time>2026-04-10T15:00:02Z</time></trkpt><trkpt lat="45.61177728543545" lon="11.420094148215167"><ele>329.0</ele><time>2026-04-10T15:00:03Z</time></trkpt><trkpt lat="45.611647490545096" lon="11.420200635644115"><ele>329.0</ele><time>2026-04-10T15:00:04Z</time></trkpt><trkpt lat="45.61152266382876" lon="11.420288052757066"><ele>329.0</ele><time>2026-04-10T15:00:05Z</time></trkpt><trkpt lat="45.61139353509183" lon="11.42035798992859"><ele>329.0</ele><time>2026-04-10T15:00:06Z</time></trkpt><trkpt lat="45.61123946213585" lon="11.420401477310532"><ele>329.0</ele><time>2026-04-10T15:00:07Z</time></trkpt><trkpt lat="45.61105733795781" lon="11.420442137036144"><ele>333.6666666666667</ele><time>2026-04-10T15:00:08Z</time></trkpt><trkpt lat="45.61085723564692" lon="11.420485593019212"><ele>338.3333333333333</ele><time>2026-04-10T15:00:09Z</time></trkpt><trkpt lat="45.61066641227145" lon="11.420531201182055"><ele>343.0</ele><time>2026-04-10T15:00:10Z</time></trkpt><trkpt lat="45.6105131696099" lon="11.420594909538766"><ele>343.0</ele><time>2026-04-10T15:00:11Z</time></trkpt><trkpt lat="45.61038867999625" lon="11.420642438421524"><ele>343.0</ele><time>2026-04-10T15:00:12Z</time></trkpt><trkpt lat="45.6102645101494" lon="11.42072310546687"><ele>343.0</ele><time>2026-04-10T15:00:13Z</time></trkpt><trkpt lat="45.61013466859629" lon="11.420834580478827"><ele>343.0</ele><time>2026-04-10T15:00:14Z</time></trkpt><trkpt lat="45.610023590527454" lon="11.420935812825638"><ele>342.59999999999997</ele><time>2026-04-10T15:00:15Z</time></trkpt><trkpt lat="45.609945304579455" lon="11.421020844760196"><ele>342.2</ele><time>2026-04-10T15:00:16Z</time></trkpt><trkpt lat="45.609894455785536" lon="11.42107455504906"><ele>341.8</ele><time>2026-04-10T15:00:17Z</time></trkpt><trkpt lat="45.60983443513701" lon="11.421237762965173"><ele>341.4</ele><time>2026-04-10T15:00:19Z</time></trkpt><trkpt lat="45.60986664249936" lon="11.42135607806188"><ele>341.0</ele><time>2026-04-10T15:00:20Z</time></trkpt><trkpt lat="45.60994869375513" lon="11.421489933344416"><ele>343.0</ele><time>2026-04-10T15:00:21Z</time></trkpt><trkpt lat="45.609989310288796" lon="11.421610313384566"><ele>345.0</ele><time>2026-04-10T15:00:22Z</time></trkpt><trkpt lat="45.610084979332754" lon="11.421921987339008"><ele>347.0</ele><time>2026-04-10T15:00:23Z</time></trkpt><trkpt lat="45.61014859093642" lon="11.42212312292328"><ele>344.0</ele><time>2026-04-10T15:00:24Z</time></trkpt><trkpt lat="45.6102264576236" lon="11.42238267609194"><ele>341.0</ele><time>2026-04-10T15:00:25Z</time></trkpt><trkpt lat="45.61030428875612" lon="11.422645081523845"><ele>338.0</ele><time>2026-04-10T15:00:26Z</time></trkpt><trkpt lat="45.61037238930439" lon="11.42288890134117"><ele>343.25</ele><time>2026-04-10T15:00:27Z</time></trkpt><trkpt lat="45.61041060414618" lon="11.423118723416483"><ele>348.5</ele><time>2026-04-10T15:00:28Z</time></trkpt><trkpt lat="45.61039312172338" lon="11.423318315313919"><ele>353.75</ele><time>2026-04-10T15:00:29Z</time></trkpt><trkpt lat="45.610390255443576" lon="11.423517233069495"><ele>359.0</ele><time>2026-04-10T15:00:30Z</time></trkpt><trkpt lat="45.610358959928384" lon="11.423691452876342"><ele>360.25</ele><time>2026-04-10T15:00:31Z</time></trkpt><trkpt lat="45.61035993409202" lon="11.423859573136024"><ele>361.5</ele><time>2026-04-10T15:00:32Z</time></trkpt><trkpt lat="45.61037733514544" lon="11.424087973354878"><ele>362.75</ele><time>2026-04-10T15:00:33Z</time></trkpt><trkpt lat="45.61037342613496" lon="11.424294255215658"><ele>364.0</ele><time>2026-04-10T15:00:34Z</time></trkpt><trkpt lat="45.610346115064324" lon="11.42449866730477"><ele>357.66666666666663</ele><time>2026-04-10T15:00:35Z</time></trkpt><trkpt lat="45.61028620709293" lon="11.424699589714812"><ele>351.3333333333333</ele><time>2026-04-10T15:00:36Z</time></trkpt><trkpt lat="45.61021934038379" lon="11.424956255306288"><ele>345.0</ele><time>2026-04-10T15:00:37Z</time></trkpt><trkpt lat="45.6101621408826" lon="11.425252082446672"><ele>347.5</ele><time>2026-04-10T15:00:38Z</time></trkpt><trkpt lat="45.61010999676818" lon="11.425544399074395"><ele>350.0</ele><time>2026-04-10T15:00:39Z</time></trkpt><trkpt lat="45.61004925285035" lon="11.42587964203405"><ele>350.0</ele><time>2026-04-10T15:00:40Z</time></trkpt><trkpt lat="45.60999933164646" lon="11.426178267826723"><ele>350.0</ele><time>2026-04-10T15:00:41Z</time></trkpt><trkpt lat="45.609942759898416" lon="11.42642996903033"><ele>350.0</ele><time>2026-04-10T15:00:42.001Z</time></trkpt><trkpt lat="45.60989413822202" lon="11.426619871939598"><ele>352.75</ele><time>2026-04-10T15:00:43.001Z</time></trkpt><trkpt lat="45.60983249721497" lon="11.426803315216153"><ele>355.5</ele><time>2026-04-10T15:00:44.001Z</time></trkpt><trkpt lat="45.6097528561586" lon="11.426937051864519"><ele>358.25</ele><time>2026-04-10T15:00:45.001Z</time></trkpt><trkpt lat="45.609667836621135" lon="11.427065066497049"><ele>361.0</ele><time>2026-04-10T15:00:46.001Z</time></trkpt><trkpt lat="45.609591771794044" lon="11.427180774243237"><ele>362.0</ele><time>2026-04-10T15:00:47.001Z</time></trkpt><trkpt lat="45.60954092693146" lon="11.427303095671107"><ele>363.0</ele><time>2026-04-10T15:00:48.001Z</time></trkpt><trkpt lat="45.60949127530177" lon="11.427400969055952"><ele>364.0</ele><time>2026-04-10T15:00:49.001Z</time></trkpt><trkpt lat="45.60946482126501" lon="11.427511088478914"><ele>365.0</ele><time>2026-04-10T15:00:50.001Z</time></trkpt><trkpt lat="45.60945368464187" lon="11.427613715465155"><ele>366.0</ele><time>2026-04-10T15:00:51.001Z</time></trkpt><trkpt lat="45.609445046818095" lon="11.427764797427013"><ele>367.0</ele><time>2026-04-10T15:00:53.001Z</time></trkpt><trkpt lat="45.609551330046116" lon="11.427811127172069"><ele>367.0</ele><time>2026-04-10T15:00:54.001Z</time></trkpt><trkpt lat="45.60965170590809" lon="11.42783567837545"><ele>367.0</ele><time>2026-04-10T15:00:55.001Z</time></trkpt><trkpt lat="45.60978889932348" lon="11.42788283725294"><ele>367.0</ele><time>2026-04-10T15:00:56.001Z</time></trkpt><trkpt lat="45.6099373747809" lon="11.427978502916483"><ele>367.0</ele><time>2026-04-10T15:00:57Z</time></trkpt><trkpt lat="45.610074253510376" lon="11.4280889133426"><ele>364.3333333333333</ele><time>2026-04-10T15:00:58Z</time></trkpt><trkpt lat="45.610216559001344" lon="11.428209143453637"><ele>361.6666666666667</ele><time>2026-04-10T15:00:59Z</time></trkpt><trkpt lat="45.61036607894253" lon="11.428331633698328"><ele>359.0</ele><time>2026-04-10T15:01:00Z</time></trkpt><trkpt lat="45.6105228582942" lon="11.42845336632191"><ele>363.0</ele><time>2026-04-10T15:01:01Z</time></trkpt><trkpt lat="45.61066451937316" lon="11.428546142683388"><ele>367.0</ele><time>2026-04-10T15:01:02Z</time></trkpt><trkpt lat="45.61078442159899" lon="11.42862100719657"><ele>371.0</ele><time>2026-04-10T15:01:03Z</time></trkpt><trkpt lat="45.61088558738862" lon="11.428676981777853"><ele>375.0</ele><time>2026-04-10T15:01:04Z</time></trkpt><trkpt lat="45.61100362237914" lon="11.42872595574275"><ele>375.0</ele><time>2026-04-10T15:01:05Z</time></trkpt><trkpt lat="45.61115312327486" lon="11.428764475544368"><ele>375.0</ele><time>2026-04-10T15:01:06Z</time></trkpt><trkpt lat="45.6113188205611" lon="11.428793611846352"><ele>375.0</ele><time>2026-04-10T15:01:07Z</time></trkpt><trkpt lat="45.61148679666645" lon="11.428788929421803"><ele>373.6666666666667</ele><time>2026-04-10T15:01:08Z</time></trkpt><trkpt lat="45.61165227301129" lon="11.428748634728121"><ele>372.33333333333337</ele><time>2026-04-10T15:01:09Z</time></trkpt><trkpt lat="45.61179683528913" lon="11.428693410807943"><ele>371.0</ele><time>2026-04-10T15:01:10Z</time></trkpt><trkpt lat="45.61192911601471" lon="11.428628342373308"><ele>365.5</ele><time>2026-04-10T15:01:11Z</time></trkpt><trkpt lat="45.61203530525627" lon="11.428523238895385"><ele>360.0</ele><time>2026-04-10T15:01:12Z</time></trkpt><trkpt lat="45.61214066850706" lon="11.428380399117046"><ele>354.5</ele><time>2026-04-10T15:01:12.999Z</time></trkpt><trkpt lat="45.61226286530748" lon="11.428213934818016"><ele>349.0</ele><time>2026-04-10T15:01:13.999Z</time></trkpt><trkpt lat="45.61237988419713" lon="11.428014345182246"><ele>352.66666666666663</ele><time>2026-04-10T15:01:14.999Z</time></trkpt><trkpt lat="45.61250187363116" lon="11.427847080931278"><ele>356.3333333333333</ele><time>2026-04-10T15:01:15.999Z</time></trkpt><trkpt lat="45.61260423999041" lon="11.427687013117396"><ele>360.0</ele><time>2026-04-10T15:01:16.999Z</time></trkpt><trkpt lat="45.61270252510383" lon="11.427556199335692"><ele>360.0</ele><time>2026-04-10T15:01:17.999Z</time></trkpt><trkpt lat="45.612795215295705" lon="11.427470458916968"><ele>360.0</ele><time>2026-04-10T15:01:18.999Z</time></trkpt><trkpt lat="45.61289639352886" lon="11.427459304907504"><ele>360.0</ele><time>2026-04-10T15:01:19.999Z</time></trkpt><trkpt lat="45.61298922122204" lon="11.427466405113144"><ele>360.0</ele><time>2026-04-10T15:01:20.999Z</time></trkpt><trkpt lat="45.61307731415619" lon="11.427582468492274"><ele>360.0</ele><time>2026-04-10T15:01:21.999Z</time></trkpt><trkpt lat="45.61318476596506" lon="11.427625477023733"><ele>357.4</ele><time>2026-04-10T15:01:22.999Z</time></trkpt><trkpt lat="45.613294810699465" lon="11.427637088861726"><ele>354.8</ele><time>2026-04-10T15:01:23.999Z</time></trkpt><trkpt lat="45.61339398835953" lon="11.427583423138298"><ele>352.20000000000005</ele><time>2026-04-10T15:01:24.999Z</time></trkpt><trkpt lat="45.613454046195734" lon="11.427467453793442"><ele>349.6</ele><time>2026-04-10T15:01:25.999Z</time></trkpt><trkpt lat="45.61346580477348" lon="11.427341815827399"><ele>347.0</ele><time>2026-04-10T15:01:26.999Z</time></trkpt><trkpt lat="45.61344741508146" lon="11.427234041241178"><ele>347.0</ele><time>2026-04-10T15:01:27.999Z</time></trkpt><trkpt lat="45.613550253162146" lon="11.427237421025382"><ele>347.0</ele><time>2026-04-10T15:01:29.999Z</time></trkpt><trkpt lat="45.61357727891592" lon="11.427381936466347"><ele>347.0</ele><time>2026-04-10T15:01:30.999Z</time></trkpt><trkpt lat="45.613653891171744" lon="11.427531402987322"><ele>347.0</ele><time>2026-04-10T15:01:31.999Z</time></trkpt><trkpt lat="45.61372291422602" lon="11.42768602299515"><ele>341.25</ele><time>2026-04-10T15:01:32.999Z</time></trkpt><trkpt lat="45.61379748498168" lon="11.427851202177992"><ele>335.5</ele><time>2026-04-10T15:01:33.999Z</time></trkpt><trkpt lat="45.61386458565062" lon="11.428013035982977"><ele>329.75</ele><time>2026-04-10T15:01:34.999Z</time></trkpt><trkpt lat="45.61392353342928" lon="11.428174211481176"><ele>324.0</ele><time>2026-04-10T15:01:35.999Z</time></trkpt><trkpt lat="45.613975217073126" lon="11.428322456004913"><ele>323.79999999999995</ele><time>2026-04-10T15:01:36.999Z</time></trkpt><trkpt lat="45.61401803309078" lon="11.428465888758524"><ele>323.59999999999997</ele><time>2026-04-10T15:01:37.999Z</time></trkpt><trkpt lat="45.614003435775395" lon="11.428617511038"><ele>323.4</ele><time>2026-04-10T15:01:38.999Z</time></trkpt><trkpt lat="45.614027197444216" lon="11.428726834042784"><ele>323.2</ele><time>2026-04-10T15:01:39.999Z</time></trkpt><trkpt lat="45.614057459447494" lon="11.428818822622947"><ele>323.0</ele><time>2026-04-10T15:01:40.999Z</time></trkpt><trkpt lat="45.614144235462334" lon="11.428924899890639"><ele>320.75</ele><time>2026-04-10T15:01:41.999Z</time></trkpt><trkpt lat="45.614260532602025" lon="11.429005592265911"><ele>318.5</ele><time>2026-04-10T15:01:42.999Z</time></trkpt><trkpt lat="45.61438243699844" lon="11.429104378023162"><ele>316.25</ele><time>2026-04-10T15:01:43.999Z</time></trkpt><trkpt lat="45.6145176016646" lon="11.42919690392092"><ele>314.0</ele><time>2026-04-10T15:01:44.999Z</time></trkpt><trkpt lat="45.614674941659736" lon="11.429261314400422"><ele>310.33333333333337</ele><time>2026-04-10T15:01:45.999Z</time></trkpt><trkpt lat="45.61484375614046" lon="11.42931424540378"><ele>306.6666666666667</ele><time>2026-04-10T15:01:46.999Z</time></trkpt><trkpt lat="45.61503074233827" lon="11.42937394882527"><ele>303.0</ele><time>2026-04-10T15:01:47.999Z</time></trkpt><trkpt lat="45.61522674779062" lon="11.429433028021965"><ele>299.3333333333333</ele><time>2026-04-10T15:01:48.999Z</time></trkpt><trkpt lat="45.61541859189784" lon="11.429491307744483"><ele>295.66666666666663</ele><time>2026-04-10T15:01:49.999Z</time></trkpt><trkpt lat="45.615601215315394" lon="11.429555329121317"><ele>292.0</ele><time>2026-04-10T15:01:50.999Z</time></trkpt><trkpt lat="45.61577582921275" lon="11.429641852466277"><ele>292.3333333333333</ele><time>2026-04-10T15:01:51.999Z</time></trkpt><trkpt lat="45.61594051312596" lon="11.429758640983874"><ele>292.6666666666667</ele><time>2026-04-10T15:01:52.999Z</time></trkpt><trkpt lat="45.61607500243245" lon="11.429914883875972"><ele>293.0</ele><time>2026-04-10T15:01:53.999Z</time></trkpt><trkpt lat="45.616193252420786" lon="11.430067835146529"><ele>289.33333333333337</ele><time>2026-04-10T15:01:54.999Z</time></trkpt><trkpt lat="45.61630973523302" lon="11.430219977846702"><ele>285.6666666666667</ele><time>2026-04-10T15:01:55.999Z</time></trkpt><trkpt lat="45.61643272543835" lon="11.43035048490824"><ele>282.0</ele><time>2026-04-10T15:01:56.999Z</time></trkpt><trkpt lat="45.616560229055146" lon="11.430472905603153"><ele>282.0</ele><time>2026-04-10T15:01:57.999Z</time></trkpt><trkpt lat="45.61671275564324" lon="11.430566884646613"><ele>282.0</ele><time>2026-04-10T15:01:58.999Z</time></trkpt><trkpt lat="45.61686832472834" lon="11.43066232589572"><ele>282.0</ele><time>2026-04-10T15:01:59.999Z</time></trkpt><trkpt lat="45.617019548010646" lon="11.43074997245247"><ele>279.6666666666667</ele><time>2026-04-10T15:02:00.999Z</time></trkpt><trkpt lat="45.61716877214047" lon="11.430827472977471"><ele>277.33333333333337</ele><time>2026-04-10T15:02:01.999Z</time></trkpt><trkpt lat="45.61732510847006" lon="11.430887784218607"><ele>275.0</ele><time>2026-04-10T15:02:02.999Z</time></trkpt><trkpt lat="45.617475783938076" lon="11.430943871669259"><ele>275.0</ele><time>2026-04-10T15:02:03.999Z</time></trkpt><trkpt lat="45.61757941007667" lon="11.431065490230512"><ele>275.0</ele><time>2026-04-10T15:02:04.999Z</time></trkpt><trkpt lat="45.617664165270575" lon="11.431172215190296"><ele>275.0</ele><time>2026-04-10T15:02:05.999Z</time></trkpt><trkpt lat="45.617712469143996" lon="11.431247952017534"><ele>275.0</ele><time>2026-04-10T15:02:06.999Z</time></trkpt><trkpt lat="45.61772028028607" lon="11.431431858178637"><ele>275.0</ele><time>2026-04-10T15:02:08.999Z</time></trkpt><trkpt lat="45.61767223197447" lon="11.431604704506956"><ele>275.25</ele><time>2026-04-10T15:02:09.999Z</time></trkpt><trkpt lat="45.61762891096829" lon="11.431785651403116"><ele>275.5</ele><time>2026-04-10T15:02:10.999Z</time></trkpt><trkpt lat="45.61757088768141" lon="11.43197307892112"><ele>275.75</ele><time>2026-04-10T15:02:11.999Z</time></trkpt><trkpt lat="45.61754467057075" lon="11.432151949424577"><ele>276.0</ele><time>2026-04-10T15:02:12.999Z</time></trkpt><trkpt lat="45.617528258221604" lon="11.432335380259481"><ele>272.0</ele><time>2026-04-10T15:02:13.999Z</time></trkpt><trkpt lat="45.617575671035304" lon="11.432531434974019"><ele>268.0</ele><time>2026-04-10T15:02:14.999Z</time></trkpt><trkpt lat="45.61763110885863" lon="11.432746170118328"><ele>264.0</ele><time>2026-04-10T15:02:15.999Z</time></trkpt><trkpt lat="45.617711491403" lon="11.432950588496155"><ele>259.0</ele><time>2026-04-10T15:02:16.999Z</time></trkpt><trkpt lat="45.617780173554564" lon="11.4331569881445"><ele>254.0</ele><time>2026-04-10T15:02:17.999Z</time></trkpt><trkpt lat="45.61785859500688" lon="11.433341180837413"><ele>249.0</ele><time>2026-04-10T15:02:18.999Z</time></trkpt><trkpt lat="45.61794338678874" lon="11.433522986857344"><ele>249.0</ele><time>2026-04-10T15:02:19.999Z</time></trkpt><trkpt lat="45.618030374788056" lon="11.433701003622687"><ele>249.0</ele><time>2026-04-10T15:02:20.999Z</time></trkpt><trkpt lat="45.61809436010319" lon="11.433884364115597"><ele>249.0</ele><time>2026-04-10T15:02:21.999Z</time></trkpt><trkpt lat="45.618145253663045" lon="11.434030020263922"><ele>249.0</ele><time>2026-04-10T15:02:22.999Z</time></trkpt><trkpt lat="45.61821949309831" lon="11.434161944301085"><ele>247.0</ele><time>2026-04-10T15:02:23.999Z</time></trkpt><trkpt lat="45.61833245285615" lon="11.434272579258751"><ele>245.0</ele><time>2026-04-10T15:02:24.999Z</time></trkpt><trkpt lat="45.61846790508447" lon="11.434377810901749"><ele>243.0</ele><time>2026-04-10T15:02:25.999Z</time></trkpt><trkpt lat="45.61858543173985" lon="11.434496308555655"><ele>241.0</ele><time>2026-04-10T15:02:26.999Z</time></trkpt><trkpt lat="45.61870006472663" lon="11.434605247518984"><ele>238.4</ele><time>2026-04-10T15:02:27.999Z</time></trkpt><trkpt lat="45.61879935756812" lon="11.4347005283689"><ele>235.8</ele><time>2026-04-10T15:02:28.999Z</time></trkpt><trkpt lat="45.61886953426566" lon="11.434789916712797"><ele>233.20000000000002</ele><time>2026-04-10T15:02:29.999Z</time></trkpt><trkpt lat="45.618923032858184" lon="11.434904755664228"><ele>230.60000000000002</ele><time>2026-04-10T15:02:30.999Z</time></trkpt><trkpt lat="45.618920964827375" lon="11.435078854498146"><ele>228.0</ele><time>2026-04-10T15:02:31.999Z</time></trkpt><trkpt lat="45.61889487470785" lon="11.43526983359144"><ele>226.25</ele><time>2026-04-10T15:02:32.999Z</time></trkpt><trkpt lat="45.61888112884905" lon="11.435474283414946"><ele>224.5</ele><time>2026-04-10T15:02:33.999Z</time></trkpt><trkpt lat="45.61886345260244" lon="11.435657817139454"><ele>222.75</ele><time>2026-04-10T15:02:34.999Z</time></trkpt><trkpt lat="45.61885901491979" lon="11.435810435816606"><ele>221.0</ele><time>2026-04-10T15:02:35.999Z</time></trkpt><trkpt lat="45.61889558068794" lon="11.435978296707603"><ele>221.0</ele><time>2026-04-10T15:02:36.999Z</time></trkpt><trkpt lat="45.61897508502616" lon="11.436138616901088"><ele>221.0</ele><time>2026-04-10T15:02:37.999Z</time></trkpt><trkpt lat="45.619070680029424" lon="11.436277073527721"><ele>221.0</ele><time>2026-04-10T15:02:38.999Z</time></trkpt><trkpt lat="45.619165753742315" lon="11.43632605623264"><ele>221.0</ele><time>2026-04-10T15:02:39.999Z</time></trkpt><trkpt lat="45.619275268472386" lon="11.436341072321406"><ele>221.0</ele><time>2026-04-10T15:02:40.999Z</time></trkpt><trkpt lat="45.619402449765396" lon="11.436298569498879"><ele>221.0</ele><time>2026-04-10T15:02:41.999Z</time></trkpt><trkpt lat="45.619496540075886" lon="11.436244904351343"><ele>221.0</ele><time>2026-04-10T15:02:42.999Z</time></trkpt><trkpt lat="45.61955069898696" lon="11.436167885453775"><ele>221.0</ele><time>2026-04-10T15:02:43.999Z</time></trkpt><trkpt lat="45.61966759017373" lon="11.436295260109013"><ele>214.33333333333334</ele><time>2026-04-10T15:02:45.999Z</time></trkpt><trkpt lat="45.61964802261548" lon="11.436478567156996"><ele>207.66666666666669</ele><time>2026-04-10T15:02:46.999Z</time></trkpt><trkpt lat="45.619705433648846" lon="11.436650192897888"><ele>201.0</ele><time>2026-04-10T15:02:48Z</time></trkpt><trkpt lat="45.61979110048423" lon="11.436888223665257"><ele>200.33333333333331</ele><time>2026-04-10T15:02:49Z</time></trkpt><trkpt lat="45.61989076003037" lon="11.437162249269276"><ele>199.66666666666666</ele><time>2026-04-10T15:02:50Z</time></trkpt><trkpt lat="45.61997379349803" lon="11.437385116217147"><ele>199.0</ele><time>2026-04-10T15:02:51Z</time></trkpt><trkpt lat="45.6200663627376" lon="11.437607901265254"><ele>199.0</ele><time>2026-04-10T15:02:52Z</time></trkpt><trkpt lat="45.620138433327675" lon="11.437859250505628"><ele>199.0</ele><time>2026-04-10T15:02:53Z</time></trkpt><trkpt lat="45.62019440357649" lon="11.438091811304359"><ele>199.0</ele><time>2026-04-10T15:02:54Z</time></trkpt><trkpt lat="45.620246689813285" lon="11.438297880136393"><ele>197.0</ele><time>2026-04-10T15:02:55Z</time></trkpt><trkpt lat="45.62030495446261" lon="11.438509886254757"><ele>195.0</ele><time>2026-04-10T15:02:56Z</time></trkpt><trkpt lat="45.620358787146486" lon="11.438700758064762"><ele>193.0</ele><time>2026-04-10T15:02:57Z</time></trkpt><trkpt lat="45.62042796362035" lon="11.438887982216231"><ele>188.33333333333331</ele><time>2026-04-10T15:02:58Z</time></trkpt><trkpt lat="45.62053363034657" lon="11.439019478402775"><ele>183.66666666666666</ele><time>2026-04-10T15:02:59Z</time></trkpt><trkpt lat="45.620645432320565" lon="11.439179071907008"><ele>179.0</ele><time>2026-04-10T15:03:00Z</time></trkpt><trkpt lat="45.620774051533495" lon="11.439300753703742"><ele>179.0</ele><time>2026-04-10T15:03:01Z</time></trkpt><trkpt lat="45.62091227965165" lon="11.439430219535828"><ele>179.0</ele><time>2026-04-10T15:03:02Z</time></trkpt><trkpt lat="45.6210480409855" lon="11.43958458513935"><ele>179.0</ele><time>2026-04-10T15:03:03Z</time></trkpt><trkpt lat="45.621187139868454" lon="11.439744098819785"><ele>174.0</ele><time>2026-04-10T15:03:04Z</time></trkpt><trkpt lat="45.62131039471956" lon="11.439904064221333"><ele>169.0</ele><time>2026-04-10T15:03:05Z</time></trkpt><trkpt lat="45.6214358377635" lon="11.440058083362361"><ele>164.0</ele><time>2026-04-10T15:03:06Z</time></trkpt><trkpt lat="45.62157227037538" lon="11.440192221947035"><ele>164.0</ele><time>2026-04-10T15:03:07Z</time></trkpt><trkpt lat="45.6217542535849" lon="11.440284362715056"><ele>164.0</ele><time>2026-04-10T15:03:08Z</time></trkpt><trkpt lat="45.62193683395786" lon="11.440383438983082"><ele>164.0</ele><time>2026-04-10T15:03:09Z</time></trkpt><trkpt lat="45.62212473596749" lon="11.440463444731723"><ele>164.66666666666666</ele><time>2026-04-10T15:03:10Z</time></trkpt><trkpt lat="45.62230483800949" lon="11.440564532226874"><ele>165.33333333333334</ele><time>2026-04-10T15:03:11Z</time></trkpt><trkpt lat="45.622474323025166" lon="11.440663529718595"><ele>166.0</ele><time>2026-04-10T15:03:12Z</time></trkpt><trkpt lat="45.62263536340469" lon="11.440748389906547"><ele>166.0</ele><time>2026-04-10T15:03:13Z</time></trkpt><trkpt lat="45.622798380815475" lon="11.440829254774762"><ele>166.0</ele><time>2026-04-10T15:03:14Z</time></trkpt><trkpt lat="45.62295690910592" lon="11.440903399890203"><ele>166.0</ele><time>2026-04-10T15:03:15Z</time></trkpt><trkpt lat="45.623118090124926" lon="11.44094749149845"><ele>162.0</ele><time>2026-04-10T15:03:16Z</time></trkpt><trkpt lat="45.623273873895585" lon="11.440918073096425"><ele>158.0</ele><time>2026-04-10T15:03:17Z</time></trkpt><trkpt lat="45.62341560535154" lon="11.440863117555622"><ele>154.0</ele><time>2026-04-10T15:03:18Z</time></trkpt><trkpt lat="45.623544724072545" lon="11.440817445053264"><ele>150.0</ele><time>2026-04-10T15:03:19Z</time></trkpt><trkpt lat="45.623642572384" lon="11.440756915319845"><ele>150.0</ele><time>2026-04-10T15:03:20Z</time></trkpt><trkpt lat="45.62372343267261" lon="11.440738556150228"><ele>149.0</ele><time>2026-04-10T15:03:21Z</time></trkpt><trkpt lat="45.623775354327194" lon="11.4406148361973"><ele>149.0</ele><time>2026-04-10T15:03:23Z</time></trkpt><trkpt lat="45.62372069333238" lon="11.440524049216437"><ele>149.0</ele><time>2026-04-10T15:03:24Z</time></trkpt><trkpt lat="45.62361922097697" lon="11.44050660605296"><ele>150.0</ele><time>2026-04-10T15:03:25Z</time></trkpt></trkseg></trk></gpx>